<?xml version="1.0" encoding="UTF-8" standalone="no" ?>
<gpx xmlns="http://www.topografix.com/GPX/1/1" xmlns:xsi="http://www.w3.org/2001/XMLSchema-instance" xsi:schemaLocation="http://www.topografix.com/GPX/1/1 http://www.topografix.com/GPX/1/1/gpx.xsd" version="1.1" creator="VisuGPX - https://www.visugpx.com">
  <metadata>
    <name>Chantraine dounoux xertigny hadol </name>
  </metadata>
  <trk>
    <name><![CDATA[Vélo du matin - Vélo - Strava by traXappSt app]]></name>
    <trkseg>
      <trkpt lat="48.15325" lon="6.41698">
        <ele>463.6</ele>
        <time>2023-04-30T14:02:53Z</time>
      </trkpt>
      <trkpt lat="48.15328" lon="6.41705">
        <ele>463.3</ele>
        <time>2023-04-30T14:02:54Z</time>
      </trkpt>
      <trkpt lat="48.15331" lon="6.41712">
        <ele>463.1</ele>
        <time>2023-04-30T14:02:55Z</time>
      </trkpt>
      <trkpt lat="48.15335" lon="6.41719">
        <ele>462.9</ele>
        <time>2023-04-30T14:02:56Z</time>
      </trkpt>
      <trkpt lat="48.15338" lon="6.41726">
        <ele>462.7</ele>
        <time>2023-04-30T14:02:57Z</time>
      </trkpt>
      <trkpt lat="48.15341" lon="6.41734">
        <ele>462.4</ele>
        <time>2023-04-30T14:02:58Z</time>
      </trkpt>
      <trkpt lat="48.15344" lon="6.41742">
        <ele>462.2</ele>
        <time>2023-04-30T14:02:59Z</time>
      </trkpt>
      <trkpt lat="48.15348" lon="6.4175">
        <ele>462</ele>
        <time>2023-04-30T14:03:00Z</time>
      </trkpt>
      <trkpt lat="48.15351" lon="6.41757">
        <ele>461.7</ele>
        <time>2023-04-30T14:03:01Z</time>
      </trkpt>
      <trkpt lat="48.15355" lon="6.41765">
        <ele>461.4</ele>
        <time>2023-04-30T14:03:02Z</time>
      </trkpt>
      <trkpt lat="48.15359" lon="6.41773">
        <ele>461.2</ele>
        <time>2023-04-30T14:03:03Z</time>
      </trkpt>
      <trkpt lat="48.15362" lon="6.41781">
        <ele>460.9</ele>
        <time>2023-04-30T14:03:04Z</time>
      </trkpt>
      <trkpt lat="48.15366" lon="6.41789">
        <ele>460.7</ele>
        <time>2023-04-30T14:03:05Z</time>
      </trkpt>
      <trkpt lat="48.1537" lon="6.41797">
        <ele>460.5</ele>
        <time>2023-04-30T14:03:06Z</time>
      </trkpt>
      <trkpt lat="48.15374" lon="6.41805">
        <ele>460.2</ele>
        <time>2023-04-30T14:03:07Z</time>
      </trkpt>
      <trkpt lat="48.15378" lon="6.41813">
        <ele>460</ele>
        <time>2023-04-30T14:03:08Z</time>
      </trkpt>
      <trkpt lat="48.15381" lon="6.41821">
        <ele>459.8</ele>
        <time>2023-04-30T14:03:09Z</time>
      </trkpt>
      <trkpt lat="48.15385" lon="6.41829">
        <ele>459.6</ele>
        <time>2023-04-30T14:03:10Z</time>
      </trkpt>
      <trkpt lat="48.15389" lon="6.41837">
        <ele>459.4</ele>
        <time>2023-04-30T14:03:11Z</time>
      </trkpt>
      <trkpt lat="48.15393" lon="6.41845">
        <ele>459.2</ele>
        <time>2023-04-30T14:03:12Z</time>
      </trkpt>
      <trkpt lat="48.15396" lon="6.41852">
        <ele>459.1</ele>
        <time>2023-04-30T14:03:13Z</time>
      </trkpt>
      <trkpt lat="48.154" lon="6.41859">
        <ele>458.9</ele>
        <time>2023-04-30T14:03:14Z</time>
      </trkpt>
      <trkpt lat="48.15403" lon="6.41867">
        <ele>458.7</ele>
        <time>2023-04-30T14:03:15Z</time>
      </trkpt>
      <trkpt lat="48.15406" lon="6.41874">
        <ele>458.6</ele>
        <time>2023-04-30T14:03:16Z</time>
      </trkpt>
      <trkpt lat="48.15409" lon="6.41883">
        <ele>458.5</ele>
        <time>2023-04-30T14:03:17Z</time>
      </trkpt>
      <trkpt lat="48.15413" lon="6.4189">
        <ele>458.3</ele>
        <time>2023-04-30T14:03:18Z</time>
      </trkpt>
      <trkpt lat="48.15416" lon="6.41899">
        <ele>458.2</ele>
        <time>2023-04-30T14:03:19Z</time>
      </trkpt>
      <trkpt lat="48.15419" lon="6.41906">
        <ele>458.1</ele>
        <time>2023-04-30T14:03:20Z</time>
      </trkpt>
      <trkpt lat="48.15422" lon="6.41913">
        <ele>458.1</ele>
        <time>2023-04-30T14:03:21Z</time>
      </trkpt>
      <trkpt lat="48.15426" lon="6.41921">
        <ele>458</ele>
        <time>2023-04-30T14:03:22Z</time>
      </trkpt>
      <trkpt lat="48.15429" lon="6.41929">
        <ele>458</ele>
        <time>2023-04-30T14:03:23Z</time>
      </trkpt>
      <trkpt lat="48.15432" lon="6.41936">
        <ele>458</ele>
        <time>2023-04-30T14:03:24Z</time>
      </trkpt>
      <trkpt lat="48.15435" lon="6.41943">
        <ele>458</ele>
        <time>2023-04-30T14:03:25Z</time>
      </trkpt>
      <trkpt lat="48.15439" lon="6.4195">
        <ele>458</ele>
        <time>2023-04-30T14:03:26Z</time>
      </trkpt>
      <trkpt lat="48.15442" lon="6.41957">
        <ele>458.1</ele>
        <time>2023-04-30T14:03:27Z</time>
      </trkpt>
      <trkpt lat="48.15445" lon="6.41964">
        <ele>458.1</ele>
        <time>2023-04-30T14:03:28Z</time>
      </trkpt>
      <trkpt lat="48.15448" lon="6.41971">
        <ele>458.2</ele>
        <time>2023-04-30T14:03:29Z</time>
      </trkpt>
      <trkpt lat="48.15451" lon="6.41977">
        <ele>458.4</ele>
        <time>2023-04-30T14:03:30Z</time>
      </trkpt>
      <trkpt lat="48.15452" lon="6.41977">
        <ele>458.4</ele>
        <time>2023-04-30T14:03:31Z</time>
      </trkpt>
      <trkpt lat="48.15452" lon="6.41977">
        <ele>458.4</ele>
        <time>2023-04-30T14:03:32Z</time>
      </trkpt>
      <trkpt lat="48.15453" lon="6.41981">
        <ele>458.5</ele>
        <time>2023-04-30T14:03:33Z</time>
      </trkpt>
      <trkpt lat="48.15456" lon="6.41987">
        <ele>458.6</ele>
        <time>2023-04-30T14:03:34Z</time>
      </trkpt>
      <trkpt lat="48.15458" lon="6.41992">
        <ele>458.8</ele>
        <time>2023-04-30T14:03:35Z</time>
      </trkpt>
      <trkpt lat="48.1546" lon="6.41997">
        <ele>458.9</ele>
        <time>2023-04-30T14:03:36Z</time>
      </trkpt>
      <trkpt lat="48.15463" lon="6.42002">
        <ele>459</ele>
        <time>2023-04-30T14:03:37Z</time>
      </trkpt>
      <trkpt lat="48.15465" lon="6.42007">
        <ele>459.1</ele>
        <time>2023-04-30T14:03:38Z</time>
      </trkpt>
      <trkpt lat="48.15468" lon="6.42016">
        <ele>459.4</ele>
        <time>2023-04-30T14:03:40Z</time>
      </trkpt>
      <trkpt lat="48.1547" lon="6.42021">
        <ele>459.5</ele>
        <time>2023-04-30T14:03:41Z</time>
      </trkpt>
      <trkpt lat="48.15471" lon="6.42029">
        <ele>459.7</ele>
        <time>2023-04-30T14:03:43Z</time>
      </trkpt>
      <trkpt lat="48.15473" lon="6.42032">
        <ele>459.8</ele>
        <time>2023-04-30T14:03:44Z</time>
      </trkpt>
      <trkpt lat="48.15474" lon="6.42036">
        <ele>459.9</ele>
        <time>2023-04-30T14:03:45Z</time>
      </trkpt>
      <trkpt lat="48.15475" lon="6.42038">
        <ele>459.9</ele>
        <time>2023-04-30T14:03:47Z</time>
      </trkpt>
      <trkpt lat="48.15475" lon="6.42036">
        <ele>460</ele>
        <time>2023-04-30T14:03:48Z</time>
      </trkpt>
      <trkpt lat="48.15476" lon="6.42036">
        <ele>460</ele>
        <time>2023-04-30T14:03:49Z</time>
      </trkpt>
      <trkpt lat="48.15476" lon="6.42036">
        <ele>460</ele>
        <time>2023-04-30T14:03:50Z</time>
      </trkpt>
      <trkpt lat="48.15476" lon="6.42036">
        <ele>460</ele>
        <time>2023-04-30T14:03:52Z</time>
      </trkpt>
      <trkpt lat="48.15476" lon="6.42036">
        <ele>460</ele>
        <time>2023-04-30T14:03:53Z</time>
      </trkpt>
      <trkpt lat="48.15476" lon="6.42036">
        <ele>460</ele>
        <time>2023-04-30T14:03:54Z</time>
      </trkpt>
      <trkpt lat="48.15476" lon="6.42036">
        <ele>460</ele>
        <time>2023-04-30T14:03:56Z</time>
      </trkpt>
      <trkpt lat="48.15476" lon="6.42036">
        <ele>460</ele>
        <time>2023-04-30T14:03:57Z</time>
      </trkpt>
      <trkpt lat="48.15476" lon="6.42036">
        <ele>460</ele>
        <time>2023-04-30T14:03:59Z</time>
      </trkpt>
      <trkpt lat="48.15476" lon="6.42038">
        <ele>460</ele>
        <time>2023-04-30T14:05:24Z</time>
      </trkpt>
      <trkpt lat="48.15474" lon="6.42036">
        <ele>460.1</ele>
        <time>2023-04-30T14:05:26Z</time>
      </trkpt>
      <trkpt lat="48.15472" lon="6.42036">
        <ele>460.2</ele>
        <time>2023-04-30T14:05:27Z</time>
      </trkpt>
      <trkpt lat="48.15472" lon="6.42037">
        <ele>460.2</ele>
        <time>2023-04-30T14:05:29Z</time>
      </trkpt>
      <trkpt lat="48.15478" lon="6.4204">
        <ele>460.3</ele>
        <time>2023-04-30T14:05:31Z</time>
      </trkpt>
      <trkpt lat="48.15483" lon="6.42036">
        <ele>460.4</ele>
        <time>2023-04-30T14:05:33Z</time>
      </trkpt>
      <trkpt lat="48.15482" lon="6.42032">
        <ele>460.3</ele>
        <time>2023-04-30T14:05:35Z</time>
      </trkpt>
      <trkpt lat="48.15479" lon="6.42024">
        <ele>460.2</ele>
        <time>2023-04-30T14:05:37Z</time>
      </trkpt>
      <trkpt lat="48.15477" lon="6.42019">
        <ele>460.1</ele>
        <time>2023-04-30T14:05:38Z</time>
      </trkpt>
      <trkpt lat="48.15473" lon="6.4201">
        <ele>459.9</ele>
        <time>2023-04-30T14:05:40Z</time>
      </trkpt>
      <trkpt lat="48.1547" lon="6.42005">
        <ele>459.8</ele>
        <time>2023-04-30T14:05:41Z</time>
      </trkpt>
      <trkpt lat="48.15468" lon="6.42">
        <ele>459.7</ele>
        <time>2023-04-30T14:05:42Z</time>
      </trkpt>
      <trkpt lat="48.15465" lon="6.41994">
        <ele>459.5</ele>
        <time>2023-04-30T14:05:43Z</time>
      </trkpt>
      <trkpt lat="48.15463" lon="6.4199">
        <ele>459.4</ele>
        <time>2023-04-30T14:05:44Z</time>
      </trkpt>
      <trkpt lat="48.1546" lon="6.41984">
        <ele>459.2</ele>
        <time>2023-04-30T14:05:45Z</time>
      </trkpt>
      <trkpt lat="48.15456" lon="6.41975">
        <ele>458.9</ele>
        <time>2023-04-30T14:05:47Z</time>
      </trkpt>
      <trkpt lat="48.15453" lon="6.41968">
        <ele>458.7</ele>
        <time>2023-04-30T14:05:48Z</time>
      </trkpt>
      <trkpt lat="48.1545" lon="6.41961">
        <ele>458.5</ele>
        <time>2023-04-30T14:05:49Z</time>
      </trkpt>
      <trkpt lat="48.15447" lon="6.41954">
        <ele>458.4</ele>
        <time>2023-04-30T14:05:50Z</time>
      </trkpt>
      <trkpt lat="48.15444" lon="6.41947">
        <ele>458.2</ele>
        <time>2023-04-30T14:05:51Z</time>
      </trkpt>
      <trkpt lat="48.1544" lon="6.41941">
        <ele>458.1</ele>
        <time>2023-04-30T14:05:52Z</time>
      </trkpt>
      <trkpt lat="48.15437" lon="6.41934">
        <ele>458.1</ele>
        <time>2023-04-30T14:05:53Z</time>
      </trkpt>
      <trkpt lat="48.15434" lon="6.41927">
        <ele>458</ele>
        <time>2023-04-30T14:05:54Z</time>
      </trkpt>
      <trkpt lat="48.15431" lon="6.41921">
        <ele>458</ele>
        <time>2023-04-30T14:05:55Z</time>
      </trkpt>
      <trkpt lat="48.15428" lon="6.41915">
        <ele>458</ele>
        <time>2023-04-30T14:05:56Z</time>
      </trkpt>
      <trkpt lat="48.15426" lon="6.41909">
        <ele>458</ele>
        <time>2023-04-30T14:05:57Z</time>
      </trkpt>
      <trkpt lat="48.15423" lon="6.41903">
        <ele>458</ele>
        <time>2023-04-30T14:05:58Z</time>
      </trkpt>
      <trkpt lat="48.1542" lon="6.41897">
        <ele>458</ele>
        <time>2023-04-30T14:05:59Z</time>
      </trkpt>
      <trkpt lat="48.15418" lon="6.41893">
        <ele>458.1</ele>
        <time>2023-04-30T14:06:00Z</time>
      </trkpt>
      <trkpt lat="48.15415" lon="6.41888">
        <ele>458.1</ele>
        <time>2023-04-30T14:06:01Z</time>
      </trkpt>
      <trkpt lat="48.15413" lon="6.41882">
        <ele>458.2</ele>
        <time>2023-04-30T14:06:02Z</time>
      </trkpt>
      <trkpt lat="48.15411" lon="6.41878">
        <ele>458.3</ele>
        <time>2023-04-30T14:06:03Z</time>
      </trkpt>
      <trkpt lat="48.15409" lon="6.41872">
        <ele>458.3</ele>
        <time>2023-04-30T14:06:04Z</time>
      </trkpt>
      <trkpt lat="48.15406" lon="6.41867">
        <ele>458.4</ele>
        <time>2023-04-30T14:06:05Z</time>
      </trkpt>
      <trkpt lat="48.15404" lon="6.41861">
        <ele>458.5</ele>
        <time>2023-04-30T14:06:06Z</time>
      </trkpt>
      <trkpt lat="48.154" lon="6.41852">
        <ele>458.7</ele>
        <time>2023-04-30T14:06:07Z</time>
      </trkpt>
      <trkpt lat="48.15398" lon="6.41848">
        <ele>458.8</ele>
        <time>2023-04-30T14:06:08Z</time>
      </trkpt>
      <trkpt lat="48.15396" lon="6.41842">
        <ele>458.9</ele>
        <time>2023-04-30T14:06:09Z</time>
      </trkpt>
      <trkpt lat="48.15393" lon="6.41835">
        <ele>459.1</ele>
        <time>2023-04-30T14:06:10Z</time>
      </trkpt>
      <trkpt lat="48.1539" lon="6.41829">
        <ele>459.2</ele>
        <time>2023-04-30T14:06:12Z</time>
      </trkpt>
      <trkpt lat="48.15388" lon="6.41825">
        <ele>459.4</ele>
        <time>2023-04-30T14:06:13Z</time>
      </trkpt>
      <trkpt lat="48.15386" lon="6.41819">
        <ele>459.5</ele>
        <time>2023-04-30T14:06:14Z</time>
      </trkpt>
      <trkpt lat="48.15384" lon="6.41813">
        <ele>459.6</ele>
        <time>2023-04-30T14:06:15Z</time>
      </trkpt>
      <trkpt lat="48.1538" lon="6.41805">
        <ele>459.9</ele>
        <time>2023-04-30T14:06:16Z</time>
      </trkpt>
      <trkpt lat="48.15377" lon="6.41798">
        <ele>460</ele>
        <time>2023-04-30T14:06:17Z</time>
      </trkpt>
      <trkpt lat="48.15375" lon="6.41792">
        <ele>460.2</ele>
        <time>2023-04-30T14:06:18Z</time>
      </trkpt>
      <trkpt lat="48.15369" lon="6.41779">
        <ele>460.6</ele>
        <time>2023-04-30T14:06:20Z</time>
      </trkpt>
      <trkpt lat="48.15366" lon="6.41774">
        <ele>460.8</ele>
        <time>2023-04-30T14:06:22Z</time>
      </trkpt>
      <trkpt lat="48.15363" lon="6.41768">
        <ele>461</ele>
        <time>2023-04-30T14:06:23Z</time>
      </trkpt>
      <trkpt lat="48.15361" lon="6.41763">
        <ele>461.1</ele>
        <time>2023-04-30T14:06:24Z</time>
      </trkpt>
      <trkpt lat="48.15358" lon="6.41756">
        <ele>461.4</ele>
        <time>2023-04-30T14:06:25Z</time>
      </trkpt>
      <trkpt lat="48.15354" lon="6.41749">
        <ele>461.6</ele>
        <time>2023-04-30T14:06:26Z</time>
      </trkpt>
      <trkpt lat="48.1535" lon="6.41739">
        <ele>462</ele>
        <time>2023-04-30T14:06:28Z</time>
      </trkpt>
      <trkpt lat="48.15347" lon="6.41734">
        <ele>462.1</ele>
        <time>2023-04-30T14:06:30Z</time>
      </trkpt>
      <trkpt lat="48.15345" lon="6.41728">
        <ele>462.4</ele>
        <time>2023-04-30T14:06:31Z</time>
      </trkpt>
      <trkpt lat="48.15342" lon="6.41723">
        <ele>462.5</ele>
        <time>2023-04-30T14:06:32Z</time>
      </trkpt>
      <trkpt lat="48.1534" lon="6.41719">
        <ele>462.7</ele>
        <time>2023-04-30T14:06:33Z</time>
      </trkpt>
      <trkpt lat="48.15337" lon="6.41712">
        <ele>462.9</ele>
        <time>2023-04-30T14:06:35Z</time>
      </trkpt>
      <trkpt lat="48.15335" lon="6.41708">
        <ele>463</ele>
        <time>2023-04-30T14:06:36Z</time>
      </trkpt>
      <trkpt lat="48.15333" lon="6.41703">
        <ele>463.2</ele>
        <time>2023-04-30T14:06:37Z</time>
      </trkpt>
      <trkpt lat="48.15331" lon="6.41698">
        <ele>463.3</ele>
        <time>2023-04-30T14:06:38Z</time>
      </trkpt>
      <trkpt lat="48.15329" lon="6.41693">
        <ele>463.5</ele>
        <time>2023-04-30T14:06:39Z</time>
      </trkpt>
      <trkpt lat="48.15326" lon="6.41687">
        <ele>463.7</ele>
        <time>2023-04-30T14:06:40Z</time>
      </trkpt>
      <trkpt lat="48.15323" lon="6.41678">
        <ele>464</ele>
        <time>2023-04-30T14:06:41Z</time>
      </trkpt>
      <trkpt lat="48.1532" lon="6.41673">
        <ele>464.1</ele>
        <time>2023-04-30T14:06:43Z</time>
      </trkpt>
      <trkpt lat="48.15317" lon="6.41667">
        <ele>464.3</ele>
        <time>2023-04-30T14:06:44Z</time>
      </trkpt>
      <trkpt lat="48.15314" lon="6.41661">
        <ele>464.5</ele>
        <time>2023-04-30T14:06:45Z</time>
      </trkpt>
      <trkpt lat="48.15312" lon="6.41656">
        <ele>464.6</ele>
        <time>2023-04-30T14:06:46Z</time>
      </trkpt>
      <trkpt lat="48.15309" lon="6.4165">
        <ele>464.7</ele>
        <time>2023-04-30T14:06:47Z</time>
      </trkpt>
      <trkpt lat="48.15307" lon="6.41643">
        <ele>464.8</ele>
        <time>2023-04-30T14:06:49Z</time>
      </trkpt>
      <trkpt lat="48.15304" lon="6.41639">
        <ele>464.8</ele>
        <time>2023-04-30T14:06:50Z</time>
      </trkpt>
      <trkpt lat="48.15302" lon="6.41635">
        <ele>464.9</ele>
        <time>2023-04-30T14:06:51Z</time>
      </trkpt>
      <trkpt lat="48.153" lon="6.4163">
        <ele>465</ele>
        <time>2023-04-30T14:06:52Z</time>
      </trkpt>
      <trkpt lat="48.15296" lon="6.41621">
        <ele>465</ele>
        <time>2023-04-30T14:06:53Z</time>
      </trkpt>
      <trkpt lat="48.15291" lon="6.41611">
        <ele>465.1</ele>
        <time>2023-04-30T14:06:55Z</time>
      </trkpt>
      <trkpt lat="48.15289" lon="6.41606">
        <ele>465.1</ele>
        <time>2023-04-30T14:06:57Z</time>
      </trkpt>
      <trkpt lat="48.15286" lon="6.41601">
        <ele>465.1</ele>
        <time>2023-04-30T14:06:58Z</time>
      </trkpt>
      <trkpt lat="48.15283" lon="6.41595">
        <ele>465.2</ele>
        <time>2023-04-30T14:06:59Z</time>
      </trkpt>
      <trkpt lat="48.15281" lon="6.4159">
        <ele>465.1</ele>
        <time>2023-04-30T14:07:00Z</time>
      </trkpt>
      <trkpt lat="48.15277" lon="6.41583">
        <ele>465</ele>
        <time>2023-04-30T14:07:01Z</time>
      </trkpt>
      <trkpt lat="48.15274" lon="6.41577">
        <ele>464.9</ele>
        <time>2023-04-30T14:07:02Z</time>
      </trkpt>
      <trkpt lat="48.15271" lon="6.4157">
        <ele>464.8</ele>
        <time>2023-04-30T14:07:04Z</time>
      </trkpt>
      <trkpt lat="48.15268" lon="6.41564">
        <ele>464.7</ele>
        <time>2023-04-30T14:07:05Z</time>
      </trkpt>
      <trkpt lat="48.15265" lon="6.41557">
        <ele>464.6</ele>
        <time>2023-04-30T14:07:06Z</time>
      </trkpt>
      <trkpt lat="48.15263" lon="6.4155">
        <ele>464.5</ele>
        <time>2023-04-30T14:07:07Z</time>
      </trkpt>
      <trkpt lat="48.1526" lon="6.41543">
        <ele>464.4</ele>
        <time>2023-04-30T14:07:08Z</time>
      </trkpt>
      <trkpt lat="48.15257" lon="6.41536">
        <ele>464.3</ele>
        <time>2023-04-30T14:07:09Z</time>
      </trkpt>
      <trkpt lat="48.15254" lon="6.41529">
        <ele>464.2</ele>
        <time>2023-04-30T14:07:10Z</time>
      </trkpt>
      <trkpt lat="48.15252" lon="6.41522">
        <ele>464.1</ele>
        <time>2023-04-30T14:07:11Z</time>
      </trkpt>
      <trkpt lat="48.15249" lon="6.41515">
        <ele>464.1</ele>
        <time>2023-04-30T14:07:12Z</time>
      </trkpt>
      <trkpt lat="48.15246" lon="6.41509">
        <ele>464</ele>
        <time>2023-04-30T14:07:13Z</time>
      </trkpt>
      <trkpt lat="48.15242" lon="6.41502">
        <ele>464</ele>
        <time>2023-04-30T14:07:14Z</time>
      </trkpt>
      <trkpt lat="48.1524" lon="6.41495">
        <ele>464</ele>
        <time>2023-04-30T14:07:15Z</time>
      </trkpt>
      <trkpt lat="48.15236" lon="6.41488">
        <ele>463.9</ele>
        <time>2023-04-30T14:07:16Z</time>
      </trkpt>
      <trkpt lat="48.15233" lon="6.41482">
        <ele>463.9</ele>
        <time>2023-04-30T14:07:17Z</time>
      </trkpt>
      <trkpt lat="48.1523" lon="6.41475">
        <ele>464</ele>
        <time>2023-04-30T14:07:18Z</time>
      </trkpt>
      <trkpt lat="48.15227" lon="6.41468">
        <ele>464</ele>
        <time>2023-04-30T14:07:19Z</time>
      </trkpt>
      <trkpt lat="48.15224" lon="6.41462">
        <ele>464</ele>
        <time>2023-04-30T14:07:20Z</time>
      </trkpt>
      <trkpt lat="48.15221" lon="6.41455">
        <ele>464.1</ele>
        <time>2023-04-30T14:07:21Z</time>
      </trkpt>
      <trkpt lat="48.15218" lon="6.41449">
        <ele>464.2</ele>
        <time>2023-04-30T14:07:22Z</time>
      </trkpt>
      <trkpt lat="48.15215" lon="6.41443">
        <ele>464.2</ele>
        <time>2023-04-30T14:07:23Z</time>
      </trkpt>
      <trkpt lat="48.15212" lon="6.41436">
        <ele>464.3</ele>
        <time>2023-04-30T14:07:24Z</time>
      </trkpt>
      <trkpt lat="48.15209" lon="6.4143">
        <ele>464.4</ele>
        <time>2023-04-30T14:07:25Z</time>
      </trkpt>
      <trkpt lat="48.15206" lon="6.41424">
        <ele>464.5</ele>
        <time>2023-04-30T14:07:26Z</time>
      </trkpt>
      <trkpt lat="48.15203" lon="6.41417">
        <ele>464.6</ele>
        <time>2023-04-30T14:07:27Z</time>
      </trkpt>
      <trkpt lat="48.152" lon="6.4141">
        <ele>464.8</ele>
        <time>2023-04-30T14:07:28Z</time>
      </trkpt>
      <trkpt lat="48.15197" lon="6.41405">
        <ele>464.9</ele>
        <time>2023-04-30T14:07:29Z</time>
      </trkpt>
      <trkpt lat="48.15195" lon="6.414">
        <ele>465.1</ele>
        <time>2023-04-30T14:07:30Z</time>
      </trkpt>
      <trkpt lat="48.15193" lon="6.41396">
        <ele>465.2</ele>
        <time>2023-04-30T14:07:31Z</time>
      </trkpt>
      <trkpt lat="48.1519" lon="6.41391">
        <ele>465.4</ele>
        <time>2023-04-30T14:07:32Z</time>
      </trkpt>
      <trkpt lat="48.15187" lon="6.41384">
        <ele>465.6</ele>
        <time>2023-04-30T14:07:33Z</time>
      </trkpt>
      <trkpt lat="48.15184" lon="6.41377">
        <ele>465.8</ele>
        <time>2023-04-30T14:07:34Z</time>
      </trkpt>
      <trkpt lat="48.15181" lon="6.41371">
        <ele>466</ele>
        <time>2023-04-30T14:07:35Z</time>
      </trkpt>
      <trkpt lat="48.15179" lon="6.41366">
        <ele>466.1</ele>
        <time>2023-04-30T14:07:36Z</time>
      </trkpt>
      <trkpt lat="48.15177" lon="6.41362">
        <ele>466.2</ele>
        <time>2023-04-30T14:07:37Z</time>
      </trkpt>
      <trkpt lat="48.15177" lon="6.41358">
        <ele>466.4</ele>
        <time>2023-04-30T14:07:38Z</time>
      </trkpt>
      <trkpt lat="48.15173" lon="6.41353">
        <ele>466.6</ele>
        <time>2023-04-30T14:07:39Z</time>
      </trkpt>
      <trkpt lat="48.15167" lon="6.41341">
        <ele>467</ele>
        <time>2023-04-30T14:07:41Z</time>
      </trkpt>
      <trkpt lat="48.15164" lon="6.41335">
        <ele>467.2</ele>
        <time>2023-04-30T14:07:43Z</time>
      </trkpt>
      <trkpt lat="48.15161" lon="6.4133">
        <ele>467.4</ele>
        <time>2023-04-30T14:07:44Z</time>
      </trkpt>
      <trkpt lat="48.15158" lon="6.41324">
        <ele>467.6</ele>
        <time>2023-04-30T14:07:45Z</time>
      </trkpt>
      <trkpt lat="48.15155" lon="6.41318">
        <ele>467.7</ele>
        <time>2023-04-30T14:07:46Z</time>
      </trkpt>
      <trkpt lat="48.15152" lon="6.41312">
        <ele>467.9</ele>
        <time>2023-04-30T14:07:47Z</time>
      </trkpt>
      <trkpt lat="48.15148" lon="6.41297">
        <ele>468.3</ele>
        <time>2023-04-30T14:07:49Z</time>
      </trkpt>
      <trkpt lat="48.15146" lon="6.4129">
        <ele>468.4</ele>
        <time>2023-04-30T14:07:50Z</time>
      </trkpt>
      <trkpt lat="48.15143" lon="6.41285">
        <ele>468.5</ele>
        <time>2023-04-30T14:07:51Z</time>
      </trkpt>
      <trkpt lat="48.15141" lon="6.4128">
        <ele>468.6</ele>
        <time>2023-04-30T14:07:52Z</time>
      </trkpt>
      <trkpt lat="48.1514" lon="6.41278">
        <ele>468.6</ele>
        <time>2023-04-30T14:07:54Z</time>
      </trkpt>
      <trkpt lat="48.15139" lon="6.41277">
        <ele>468.6</ele>
        <time>2023-04-30T14:07:55Z</time>
      </trkpt>
      <trkpt lat="48.15138" lon="6.41273">
        <ele>468.7</ele>
        <time>2023-04-30T14:07:56Z</time>
      </trkpt>
      <trkpt lat="48.15134" lon="6.41267">
        <ele>468.7</ele>
        <time>2023-04-30T14:07:57Z</time>
      </trkpt>
      <trkpt lat="48.1513" lon="6.41258">
        <ele>468.6</ele>
        <time>2023-04-30T14:07:58Z</time>
      </trkpt>
      <trkpt lat="48.15127" lon="6.41251">
        <ele>468.5</ele>
        <time>2023-04-30T14:07:59Z</time>
      </trkpt>
      <trkpt lat="48.15124" lon="6.41241">
        <ele>468.4</ele>
        <time>2023-04-30T14:08:01Z</time>
      </trkpt>
      <trkpt lat="48.15121" lon="6.41233">
        <ele>468.2</ele>
        <time>2023-04-30T14:08:02Z</time>
      </trkpt>
      <trkpt lat="48.15118" lon="6.41226">
        <ele>468</ele>
        <time>2023-04-30T14:08:03Z</time>
      </trkpt>
      <trkpt lat="48.15116" lon="6.41219">
        <ele>467.8</ele>
        <time>2023-04-30T14:08:04Z</time>
      </trkpt>
      <trkpt lat="48.15114" lon="6.41211">
        <ele>467.6</ele>
        <time>2023-04-30T14:08:05Z</time>
      </trkpt>
      <trkpt lat="48.15112" lon="6.41203">
        <ele>467.4</ele>
        <time>2023-04-30T14:08:06Z</time>
      </trkpt>
      <trkpt lat="48.1511" lon="6.41194">
        <ele>467.2</ele>
        <time>2023-04-30T14:08:07Z</time>
      </trkpt>
      <trkpt lat="48.15109" lon="6.41186">
        <ele>467</ele>
        <time>2023-04-30T14:08:08Z</time>
      </trkpt>
      <trkpt lat="48.15107" lon="6.41178">
        <ele>466.8</ele>
        <time>2023-04-30T14:08:09Z</time>
      </trkpt>
      <trkpt lat="48.15106" lon="6.41168">
        <ele>466.6</ele>
        <time>2023-04-30T14:08:10Z</time>
      </trkpt>
      <trkpt lat="48.15104" lon="6.41157">
        <ele>466.3</ele>
        <time>2023-04-30T14:08:11Z</time>
      </trkpt>
      <trkpt lat="48.15103" lon="6.41147">
        <ele>466.1</ele>
        <time>2023-04-30T14:08:12Z</time>
      </trkpt>
      <trkpt lat="48.15101" lon="6.41137">
        <ele>465.8</ele>
        <time>2023-04-30T14:08:13Z</time>
      </trkpt>
      <trkpt lat="48.151" lon="6.41127">
        <ele>465.6</ele>
        <time>2023-04-30T14:08:14Z</time>
      </trkpt>
      <trkpt lat="48.15098" lon="6.41117">
        <ele>465.4</ele>
        <time>2023-04-30T14:08:15Z</time>
      </trkpt>
      <trkpt lat="48.15097" lon="6.41107">
        <ele>465.2</ele>
        <time>2023-04-30T14:08:16Z</time>
      </trkpt>
      <trkpt lat="48.15095" lon="6.41097">
        <ele>465</ele>
        <time>2023-04-30T14:08:17Z</time>
      </trkpt>
      <trkpt lat="48.15093" lon="6.41088">
        <ele>464.8</ele>
        <time>2023-04-30T14:08:18Z</time>
      </trkpt>
      <trkpt lat="48.15092" lon="6.41078">
        <ele>464.6</ele>
        <time>2023-04-30T14:08:19Z</time>
      </trkpt>
      <trkpt lat="48.1509" lon="6.41068">
        <ele>464.4</ele>
        <time>2023-04-30T14:08:20Z</time>
      </trkpt>
      <trkpt lat="48.15089" lon="6.41059">
        <ele>464.2</ele>
        <time>2023-04-30T14:08:21Z</time>
      </trkpt>
      <trkpt lat="48.15087" lon="6.41049">
        <ele>464.1</ele>
        <time>2023-04-30T14:08:22Z</time>
      </trkpt>
      <trkpt lat="48.15085" lon="6.4104">
        <ele>464</ele>
        <time>2023-04-30T14:08:23Z</time>
      </trkpt>
      <trkpt lat="48.15083" lon="6.41031">
        <ele>464</ele>
        <time>2023-04-30T14:08:24Z</time>
      </trkpt>
      <trkpt lat="48.15081" lon="6.41022">
        <ele>463.9</ele>
        <time>2023-04-30T14:08:25Z</time>
      </trkpt>
      <trkpt lat="48.15078" lon="6.41013">
        <ele>463.9</ele>
        <time>2023-04-30T14:08:26Z</time>
      </trkpt>
      <trkpt lat="48.15075" lon="6.41003">
        <ele>463.8</ele>
        <time>2023-04-30T14:08:27Z</time>
      </trkpt>
      <trkpt lat="48.15071" lon="6.40994">
        <ele>463.8</ele>
        <time>2023-04-30T14:08:28Z</time>
      </trkpt>
      <trkpt lat="48.15067" lon="6.40985">
        <ele>463.8</ele>
        <time>2023-04-30T14:08:29Z</time>
      </trkpt>
      <trkpt lat="48.15063" lon="6.40976">
        <ele>463.8</ele>
        <time>2023-04-30T14:08:30Z</time>
      </trkpt>
      <trkpt lat="48.15058" lon="6.40967">
        <ele>463.7</ele>
        <time>2023-04-30T14:08:31Z</time>
      </trkpt>
      <trkpt lat="48.15054" lon="6.40958">
        <ele>463.8</ele>
        <time>2023-04-30T14:08:32Z</time>
      </trkpt>
      <trkpt lat="48.1505" lon="6.40949">
        <ele>463.8</ele>
        <time>2023-04-30T14:08:33Z</time>
      </trkpt>
      <trkpt lat="48.15046" lon="6.40941">
        <ele>463.9</ele>
        <time>2023-04-30T14:08:34Z</time>
      </trkpt>
      <trkpt lat="48.15042" lon="6.40933">
        <ele>464.1</ele>
        <time>2023-04-30T14:08:35Z</time>
      </trkpt>
      <trkpt lat="48.15038" lon="6.40926">
        <ele>464.2</ele>
        <time>2023-04-30T14:08:36Z</time>
      </trkpt>
      <trkpt lat="48.15034" lon="6.40919">
        <ele>464.4</ele>
        <time>2023-04-30T14:08:37Z</time>
      </trkpt>
      <trkpt lat="48.15031" lon="6.40913">
        <ele>464.5</ele>
        <time>2023-04-30T14:08:38Z</time>
      </trkpt>
      <trkpt lat="48.15028" lon="6.40906">
        <ele>464.7</ele>
        <time>2023-04-30T14:08:39Z</time>
      </trkpt>
      <trkpt lat="48.15025" lon="6.40899">
        <ele>464.9</ele>
        <time>2023-04-30T14:08:40Z</time>
      </trkpt>
      <trkpt lat="48.15021" lon="6.40893">
        <ele>465.1</ele>
        <time>2023-04-30T14:08:41Z</time>
      </trkpt>
      <trkpt lat="48.15019" lon="6.40886">
        <ele>465.3</ele>
        <time>2023-04-30T14:08:42Z</time>
      </trkpt>
      <trkpt lat="48.15016" lon="6.40881">
        <ele>465.5</ele>
        <time>2023-04-30T14:08:43Z</time>
      </trkpt>
      <trkpt lat="48.15013" lon="6.40875">
        <ele>465.6</ele>
        <time>2023-04-30T14:08:44Z</time>
      </trkpt>
      <trkpt lat="48.1501" lon="6.4087">
        <ele>465.8</ele>
        <time>2023-04-30T14:08:45Z</time>
      </trkpt>
      <trkpt lat="48.15007" lon="6.40865">
        <ele>465.9</ele>
        <time>2023-04-30T14:08:46Z</time>
      </trkpt>
      <trkpt lat="48.15005" lon="6.4086">
        <ele>466</ele>
        <time>2023-04-30T14:08:47Z</time>
      </trkpt>
      <trkpt lat="48.15003" lon="6.40856">
        <ele>466</ele>
        <time>2023-04-30T14:08:48Z</time>
      </trkpt>
      <trkpt lat="48.14999" lon="6.4085">
        <ele>466.1</ele>
        <time>2023-04-30T14:08:49Z</time>
      </trkpt>
      <trkpt lat="48.14996" lon="6.40844">
        <ele>466.2</ele>
        <time>2023-04-30T14:08:50Z</time>
      </trkpt>
      <trkpt lat="48.14993" lon="6.40838">
        <ele>466.2</ele>
        <time>2023-04-30T14:08:51Z</time>
      </trkpt>
      <trkpt lat="48.1499" lon="6.40832">
        <ele>466.3</ele>
        <time>2023-04-30T14:08:52Z</time>
      </trkpt>
      <trkpt lat="48.14987" lon="6.40826">
        <ele>466.3</ele>
        <time>2023-04-30T14:08:53Z</time>
      </trkpt>
      <trkpt lat="48.14984" lon="6.4082">
        <ele>466.3</ele>
        <time>2023-04-30T14:08:54Z</time>
      </trkpt>
      <trkpt lat="48.14981" lon="6.40814">
        <ele>466.3</ele>
        <time>2023-04-30T14:08:55Z</time>
      </trkpt>
      <trkpt lat="48.14978" lon="6.40808">
        <ele>466.3</ele>
        <time>2023-04-30T14:08:56Z</time>
      </trkpt>
      <trkpt lat="48.14974" lon="6.40802">
        <ele>466.3</ele>
        <time>2023-04-30T14:08:57Z</time>
      </trkpt>
      <trkpt lat="48.14971" lon="6.40795">
        <ele>466.2</ele>
        <time>2023-04-30T14:08:58Z</time>
      </trkpt>
      <trkpt lat="48.14968" lon="6.40789">
        <ele>466.2</ele>
        <time>2023-04-30T14:08:59Z</time>
      </trkpt>
      <trkpt lat="48.14964" lon="6.40781">
        <ele>466.2</ele>
        <time>2023-04-30T14:09:00Z</time>
      </trkpt>
      <trkpt lat="48.14961" lon="6.40775">
        <ele>466.1</ele>
        <time>2023-04-30T14:09:01Z</time>
      </trkpt>
      <trkpt lat="48.14958" lon="6.4077">
        <ele>466.1</ele>
        <time>2023-04-30T14:09:02Z</time>
      </trkpt>
      <trkpt lat="48.14955" lon="6.40764">
        <ele>466.1</ele>
        <time>2023-04-30T14:09:03Z</time>
      </trkpt>
      <trkpt lat="48.14951" lon="6.40758">
        <ele>466</ele>
        <time>2023-04-30T14:09:04Z</time>
      </trkpt>
      <trkpt lat="48.14948" lon="6.40751">
        <ele>466</ele>
        <time>2023-04-30T14:09:05Z</time>
      </trkpt>
      <trkpt lat="48.14945" lon="6.40744">
        <ele>465.9</ele>
        <time>2023-04-30T14:09:06Z</time>
      </trkpt>
      <trkpt lat="48.14941" lon="6.40737">
        <ele>465.8</ele>
        <time>2023-04-30T14:09:07Z</time>
      </trkpt>
      <trkpt lat="48.14938" lon="6.40729">
        <ele>465.8</ele>
        <time>2023-04-30T14:09:08Z</time>
      </trkpt>
      <trkpt lat="48.14935" lon="6.40723">
        <ele>465.7</ele>
        <time>2023-04-30T14:09:09Z</time>
      </trkpt>
      <trkpt lat="48.14931" lon="6.40715">
        <ele>465.6</ele>
        <time>2023-04-30T14:09:10Z</time>
      </trkpt>
      <trkpt lat="48.14928" lon="6.40708">
        <ele>465.6</ele>
        <time>2023-04-30T14:09:11Z</time>
      </trkpt>
      <trkpt lat="48.14924" lon="6.40701">
        <ele>465.5</ele>
        <time>2023-04-30T14:09:12Z</time>
      </trkpt>
      <trkpt lat="48.1492" lon="6.40693">
        <ele>465.4</ele>
        <time>2023-04-30T14:09:13Z</time>
      </trkpt>
      <trkpt lat="48.14916" lon="6.40682">
        <ele>465.4</ele>
        <time>2023-04-30T14:09:14Z</time>
      </trkpt>
      <trkpt lat="48.14912" lon="6.40674">
        <ele>465.4</ele>
        <time>2023-04-30T14:09:15Z</time>
      </trkpt>
      <trkpt lat="48.14909" lon="6.40666">
        <ele>465.4</ele>
        <time>2023-04-30T14:09:16Z</time>
      </trkpt>
      <trkpt lat="48.14905" lon="6.40659">
        <ele>465.4</ele>
        <time>2023-04-30T14:09:17Z</time>
      </trkpt>
      <trkpt lat="48.14901" lon="6.40652">
        <ele>465.4</ele>
        <time>2023-04-30T14:09:18Z</time>
      </trkpt>
      <trkpt lat="48.14898" lon="6.40645">
        <ele>465.4</ele>
        <time>2023-04-30T14:09:19Z</time>
      </trkpt>
      <trkpt lat="48.14895" lon="6.40638">
        <ele>465.4</ele>
        <time>2023-04-30T14:09:20Z</time>
      </trkpt>
      <trkpt lat="48.14892" lon="6.40631">
        <ele>465.4</ele>
        <time>2023-04-30T14:09:21Z</time>
      </trkpt>
      <trkpt lat="48.14888" lon="6.40622">
        <ele>465.4</ele>
        <time>2023-04-30T14:09:22Z</time>
      </trkpt>
      <trkpt lat="48.14885" lon="6.40614">
        <ele>465.4</ele>
        <time>2023-04-30T14:09:23Z</time>
      </trkpt>
      <trkpt lat="48.14881" lon="6.40609">
        <ele>465.4</ele>
        <time>2023-04-30T14:09:24Z</time>
      </trkpt>
      <trkpt lat="48.14878" lon="6.40603">
        <ele>465.4</ele>
        <time>2023-04-30T14:09:25Z</time>
      </trkpt>
      <trkpt lat="48.14875" lon="6.40597">
        <ele>465.4</ele>
        <time>2023-04-30T14:09:26Z</time>
      </trkpt>
      <trkpt lat="48.14871" lon="6.40591">
        <ele>465.4</ele>
        <time>2023-04-30T14:09:27Z</time>
      </trkpt>
      <trkpt lat="48.14868" lon="6.40585">
        <ele>465.4</ele>
        <time>2023-04-30T14:09:28Z</time>
      </trkpt>
      <trkpt lat="48.14864" lon="6.40579">
        <ele>465.4</ele>
        <time>2023-04-30T14:09:29Z</time>
      </trkpt>
      <trkpt lat="48.14861" lon="6.40574">
        <ele>465.3</ele>
        <time>2023-04-30T14:09:30Z</time>
      </trkpt>
      <trkpt lat="48.14858" lon="6.40569">
        <ele>465.3</ele>
        <time>2023-04-30T14:09:31Z</time>
      </trkpt>
      <trkpt lat="48.14855" lon="6.4056">
        <ele>465.1</ele>
        <time>2023-04-30T14:09:32Z</time>
      </trkpt>
      <trkpt lat="48.14851" lon="6.40554">
        <ele>465</ele>
        <time>2023-04-30T14:09:33Z</time>
      </trkpt>
      <trkpt lat="48.14846" lon="6.40548">
        <ele>464.8</ele>
        <time>2023-04-30T14:09:34Z</time>
      </trkpt>
      <trkpt lat="48.14841" lon="6.40535">
        <ele>464.4</ele>
        <time>2023-04-30T14:09:35Z</time>
      </trkpt>
      <trkpt lat="48.14835" lon="6.40527">
        <ele>464</ele>
        <time>2023-04-30T14:09:36Z</time>
      </trkpt>
      <trkpt lat="48.14828" lon="6.40521">
        <ele>463.5</ele>
        <time>2023-04-30T14:09:37Z</time>
      </trkpt>
      <trkpt lat="48.14822" lon="6.40515">
        <ele>463</ele>
        <time>2023-04-30T14:09:38Z</time>
      </trkpt>
      <trkpt lat="48.14816" lon="6.40509">
        <ele>462.6</ele>
        <time>2023-04-30T14:09:39Z</time>
      </trkpt>
      <trkpt lat="48.14809" lon="6.40504">
        <ele>462</ele>
        <time>2023-04-30T14:09:40Z</time>
      </trkpt>
      <trkpt lat="48.14802" lon="6.40498">
        <ele>461.4</ele>
        <time>2023-04-30T14:09:41Z</time>
      </trkpt>
      <trkpt lat="48.14795" lon="6.40491">
        <ele>460.7</ele>
        <time>2023-04-30T14:09:42Z</time>
      </trkpt>
      <trkpt lat="48.14788" lon="6.40485">
        <ele>460.1</ele>
        <time>2023-04-30T14:09:43Z</time>
      </trkpt>
      <trkpt lat="48.14781" lon="6.40478">
        <ele>459.4</ele>
        <time>2023-04-30T14:09:44Z</time>
      </trkpt>
      <trkpt lat="48.14775" lon="6.40471">
        <ele>458.8</ele>
        <time>2023-04-30T14:09:45Z</time>
      </trkpt>
      <trkpt lat="48.14767" lon="6.40464">
        <ele>458.1</ele>
        <time>2023-04-30T14:09:46Z</time>
      </trkpt>
      <trkpt lat="48.1476" lon="6.40457">
        <ele>457.5</ele>
        <time>2023-04-30T14:09:47Z</time>
      </trkpt>
      <trkpt lat="48.14754" lon="6.4045">
        <ele>456.9</ele>
        <time>2023-04-30T14:09:48Z</time>
      </trkpt>
      <trkpt lat="48.14747" lon="6.40443">
        <ele>456.4</ele>
        <time>2023-04-30T14:09:49Z</time>
      </trkpt>
      <trkpt lat="48.1474" lon="6.40436">
        <ele>455.8</ele>
        <time>2023-04-30T14:09:50Z</time>
      </trkpt>
      <trkpt lat="48.14732" lon="6.40429">
        <ele>455.3</ele>
        <time>2023-04-30T14:09:51Z</time>
      </trkpt>
      <trkpt lat="48.14724" lon="6.40421">
        <ele>454.7</ele>
        <time>2023-04-30T14:09:52Z</time>
      </trkpt>
      <trkpt lat="48.14715" lon="6.40413">
        <ele>454.3</ele>
        <time>2023-04-30T14:09:53Z</time>
      </trkpt>
      <trkpt lat="48.14708" lon="6.40404">
        <ele>453.9</ele>
        <time>2023-04-30T14:09:54Z</time>
      </trkpt>
      <trkpt lat="48.147" lon="6.40395">
        <ele>453.6</ele>
        <time>2023-04-30T14:09:55Z</time>
      </trkpt>
      <trkpt lat="48.14693" lon="6.40386">
        <ele>453.3</ele>
        <time>2023-04-30T14:09:56Z</time>
      </trkpt>
      <trkpt lat="48.14686" lon="6.40376">
        <ele>453.1</ele>
        <time>2023-04-30T14:09:57Z</time>
      </trkpt>
      <trkpt lat="48.1468" lon="6.40367">
        <ele>452.9</ele>
        <time>2023-04-30T14:09:58Z</time>
      </trkpt>
      <trkpt lat="48.14673" lon="6.40358">
        <ele>452.8</ele>
        <time>2023-04-30T14:09:59Z</time>
      </trkpt>
      <trkpt lat="48.14668" lon="6.40348">
        <ele>452.7</ele>
        <time>2023-04-30T14:10:00Z</time>
      </trkpt>
      <trkpt lat="48.14663" lon="6.40338">
        <ele>452.7</ele>
        <time>2023-04-30T14:10:01Z</time>
      </trkpt>
      <trkpt lat="48.14658" lon="6.40328">
        <ele>452.6</ele>
        <time>2023-04-30T14:10:02Z</time>
      </trkpt>
      <trkpt lat="48.14654" lon="6.40318">
        <ele>452.6</ele>
        <time>2023-04-30T14:10:03Z</time>
      </trkpt>
      <trkpt lat="48.14652" lon="6.40308">
        <ele>452.5</ele>
        <time>2023-04-30T14:10:04Z</time>
      </trkpt>
      <trkpt lat="48.14649" lon="6.40298">
        <ele>452.5</ele>
        <time>2023-04-30T14:10:05Z</time>
      </trkpt>
      <trkpt lat="48.14647" lon="6.40288">
        <ele>452.5</ele>
        <time>2023-04-30T14:10:06Z</time>
      </trkpt>
      <trkpt lat="48.14646" lon="6.40279">
        <ele>452.6</ele>
        <time>2023-04-30T14:10:07Z</time>
      </trkpt>
      <trkpt lat="48.14644" lon="6.40269">
        <ele>452.7</ele>
        <time>2023-04-30T14:10:08Z</time>
      </trkpt>
      <trkpt lat="48.14642" lon="6.40259">
        <ele>452.7</ele>
        <time>2023-04-30T14:10:09Z</time>
      </trkpt>
      <trkpt lat="48.14641" lon="6.4025">
        <ele>452.8</ele>
        <time>2023-04-30T14:10:10Z</time>
      </trkpt>
      <trkpt lat="48.14639" lon="6.4024">
        <ele>452.9</ele>
        <time>2023-04-30T14:10:11Z</time>
      </trkpt>
      <trkpt lat="48.14638" lon="6.4023">
        <ele>453</ele>
        <time>2023-04-30T14:10:12Z</time>
      </trkpt>
      <trkpt lat="48.14637" lon="6.4022">
        <ele>453</ele>
        <time>2023-04-30T14:10:13Z</time>
      </trkpt>
      <trkpt lat="48.14636" lon="6.4021">
        <ele>453.1</ele>
        <time>2023-04-30T14:10:14Z</time>
      </trkpt>
      <trkpt lat="48.14636" lon="6.40201">
        <ele>453.2</ele>
        <time>2023-04-30T14:10:15Z</time>
      </trkpt>
      <trkpt lat="48.14635" lon="6.40191">
        <ele>453.3</ele>
        <time>2023-04-30T14:10:16Z</time>
      </trkpt>
      <trkpt lat="48.14634" lon="6.40181">
        <ele>453.5</ele>
        <time>2023-04-30T14:10:17Z</time>
      </trkpt>
      <trkpt lat="48.14633" lon="6.40171">
        <ele>453.6</ele>
        <time>2023-04-30T14:10:18Z</time>
      </trkpt>
      <trkpt lat="48.14633" lon="6.40162">
        <ele>453.8</ele>
        <time>2023-04-30T14:10:19Z</time>
      </trkpt>
      <trkpt lat="48.14633" lon="6.40153">
        <ele>454.1</ele>
        <time>2023-04-30T14:10:20Z</time>
      </trkpt>
      <trkpt lat="48.14632" lon="6.40145">
        <ele>454.3</ele>
        <time>2023-04-30T14:10:21Z</time>
      </trkpt>
      <trkpt lat="48.14631" lon="6.40136">
        <ele>454.5</ele>
        <time>2023-04-30T14:10:22Z</time>
      </trkpt>
      <trkpt lat="48.1463" lon="6.40128">
        <ele>454.7</ele>
        <time>2023-04-30T14:10:23Z</time>
      </trkpt>
      <trkpt lat="48.14629" lon="6.40119">
        <ele>454.9</ele>
        <time>2023-04-30T14:10:24Z</time>
      </trkpt>
      <trkpt lat="48.14628" lon="6.40111">
        <ele>455.2</ele>
        <time>2023-04-30T14:10:25Z</time>
      </trkpt>
      <trkpt lat="48.14627" lon="6.40103">
        <ele>455.4</ele>
        <time>2023-04-30T14:10:26Z</time>
      </trkpt>
      <trkpt lat="48.14626" lon="6.40095">
        <ele>455.6</ele>
        <time>2023-04-30T14:10:27Z</time>
      </trkpt>
      <trkpt lat="48.14626" lon="6.40086">
        <ele>455.8</ele>
        <time>2023-04-30T14:10:28Z</time>
      </trkpt>
      <trkpt lat="48.14625" lon="6.40078">
        <ele>456</ele>
        <time>2023-04-30T14:10:29Z</time>
      </trkpt>
      <trkpt lat="48.14624" lon="6.4007">
        <ele>456.1</ele>
        <time>2023-04-30T14:10:30Z</time>
      </trkpt>
      <trkpt lat="48.14624" lon="6.40064">
        <ele>456.3</ele>
        <time>2023-04-30T14:10:31Z</time>
      </trkpt>
      <trkpt lat="48.14623" lon="6.40056">
        <ele>456.5</ele>
        <time>2023-04-30T14:10:32Z</time>
      </trkpt>
      <trkpt lat="48.14622" lon="6.4005">
        <ele>456.6</ele>
        <time>2023-04-30T14:10:33Z</time>
      </trkpt>
      <trkpt lat="48.14622" lon="6.40043">
        <ele>456.8</ele>
        <time>2023-04-30T14:10:34Z</time>
      </trkpt>
      <trkpt lat="48.14621" lon="6.40035">
        <ele>457</ele>
        <time>2023-04-30T14:10:35Z</time>
      </trkpt>
      <trkpt lat="48.1462" lon="6.40028">
        <ele>457.1</ele>
        <time>2023-04-30T14:10:36Z</time>
      </trkpt>
      <trkpt lat="48.14619" lon="6.40021">
        <ele>457.3</ele>
        <time>2023-04-30T14:10:37Z</time>
      </trkpt>
      <trkpt lat="48.14619" lon="6.40014">
        <ele>457.5</ele>
        <time>2023-04-30T14:10:38Z</time>
      </trkpt>
      <trkpt lat="48.14619" lon="6.40007">
        <ele>457.6</ele>
        <time>2023-04-30T14:10:39Z</time>
      </trkpt>
      <trkpt lat="48.14619" lon="6.40001">
        <ele>457.7</ele>
        <time>2023-04-30T14:10:40Z</time>
      </trkpt>
      <trkpt lat="48.14618" lon="6.39995">
        <ele>457.9</ele>
        <time>2023-04-30T14:10:41Z</time>
      </trkpt>
      <trkpt lat="48.14618" lon="6.39988">
        <ele>458</ele>
        <time>2023-04-30T14:10:42Z</time>
      </trkpt>
      <trkpt lat="48.14617" lon="6.39983">
        <ele>458.1</ele>
        <time>2023-04-30T14:10:43Z</time>
      </trkpt>
      <trkpt lat="48.14617" lon="6.39981">
        <ele>458.2</ele>
        <time>2023-04-30T14:10:44Z</time>
      </trkpt>
      <trkpt lat="48.14616" lon="6.39974">
        <ele>458.3</ele>
        <time>2023-04-30T14:10:45Z</time>
      </trkpt>
      <trkpt lat="48.14614" lon="6.39967">
        <ele>458.5</ele>
        <time>2023-04-30T14:10:46Z</time>
      </trkpt>
      <trkpt lat="48.14614" lon="6.39962">
        <ele>458.6</ele>
        <time>2023-04-30T14:10:47Z</time>
      </trkpt>
      <trkpt lat="48.14613" lon="6.39957">
        <ele>458.7</ele>
        <time>2023-04-30T14:10:48Z</time>
      </trkpt>
      <trkpt lat="48.14612" lon="6.39952">
        <ele>458.8</ele>
        <time>2023-04-30T14:10:49Z</time>
      </trkpt>
      <trkpt lat="48.14611" lon="6.39945">
        <ele>459</ele>
        <time>2023-04-30T14:10:50Z</time>
      </trkpt>
      <trkpt lat="48.1461" lon="6.39941">
        <ele>459</ele>
        <time>2023-04-30T14:10:51Z</time>
      </trkpt>
      <trkpt lat="48.1461" lon="6.39932">
        <ele>459.3</ele>
        <time>2023-04-30T14:10:52Z</time>
      </trkpt>
      <trkpt lat="48.14609" lon="6.39922">
        <ele>459.5</ele>
        <time>2023-04-30T14:10:54Z</time>
      </trkpt>
      <trkpt lat="48.14608" lon="6.39916">
        <ele>459.6</ele>
        <time>2023-04-30T14:10:55Z</time>
      </trkpt>
      <trkpt lat="48.14608" lon="6.39909">
        <ele>459.8</ele>
        <time>2023-04-30T14:10:57Z</time>
      </trkpt>
      <trkpt lat="48.14607" lon="6.399">
        <ele>460</ele>
        <time>2023-04-30T14:10:59Z</time>
      </trkpt>
      <trkpt lat="48.14608" lon="6.39895">
        <ele>460.1</ele>
        <time>2023-04-30T14:11:00Z</time>
      </trkpt>
      <trkpt lat="48.14608" lon="6.39891">
        <ele>460.2</ele>
        <time>2023-04-30T14:11:01Z</time>
      </trkpt>
      <trkpt lat="48.14607" lon="6.39887">
        <ele>460.3</ele>
        <time>2023-04-30T14:11:03Z</time>
      </trkpt>
      <trkpt lat="48.14607" lon="6.39887">
        <ele>460.3</ele>
        <time>2023-04-30T14:11:04Z</time>
      </trkpt>
      <trkpt lat="48.14607" lon="6.39885">
        <ele>460.4</ele>
        <time>2023-04-30T14:11:05Z</time>
      </trkpt>
      <trkpt lat="48.14606" lon="6.39885">
        <ele>460.4</ele>
        <time>2023-04-30T14:11:07Z</time>
      </trkpt>
      <trkpt lat="48.14605" lon="6.39885">
        <ele>460.4</ele>
        <time>2023-04-30T14:11:08Z</time>
      </trkpt>
      <trkpt lat="48.14605" lon="6.39884">
        <ele>460.5</ele>
        <time>2023-04-30T14:11:10Z</time>
      </trkpt>
      <trkpt lat="48.14604" lon="6.39884">
        <ele>460.5</ele>
        <time>2023-04-30T14:11:11Z</time>
      </trkpt>
      <trkpt lat="48.14604" lon="6.39883">
        <ele>460.5</ele>
        <time>2023-04-30T14:11:12Z</time>
      </trkpt>
      <trkpt lat="48.14603" lon="6.39883">
        <ele>460.5</ele>
        <time>2023-04-30T14:11:14Z</time>
      </trkpt>
      <trkpt lat="48.14603" lon="6.39883">
        <ele>460.5</ele>
        <time>2023-04-30T14:11:59Z</time>
      </trkpt>
      <trkpt lat="48.14603" lon="6.39882">
        <ele>460.6</ele>
        <time>2023-04-30T14:12:00Z</time>
      </trkpt>
      <trkpt lat="48.14602" lon="6.39882">
        <ele>460.6</ele>
        <time>2023-04-30T14:12:01Z</time>
      </trkpt>
      <trkpt lat="48.14602" lon="6.39881">
        <ele>460.6</ele>
        <time>2023-04-30T14:12:02Z</time>
      </trkpt>
      <trkpt lat="48.14602" lon="6.3988">
        <ele>460.6</ele>
        <time>2023-04-30T14:12:03Z</time>
      </trkpt>
      <trkpt lat="48.14603" lon="6.39878">
        <ele>460.7</ele>
        <time>2023-04-30T14:12:04Z</time>
      </trkpt>
      <trkpt lat="48.14603" lon="6.39877">
        <ele>460.7</ele>
        <time>2023-04-30T14:12:05Z</time>
      </trkpt>
      <trkpt lat="48.14604" lon="6.39876">
        <ele>460.7</ele>
        <time>2023-04-30T14:12:06Z</time>
      </trkpt>
      <trkpt lat="48.14603" lon="6.39877">
        <ele>460.8</ele>
        <time>2023-04-30T14:12:07Z</time>
      </trkpt>
      <trkpt lat="48.14603" lon="6.39879">
        <ele>460.8</ele>
        <time>2023-04-30T14:12:08Z</time>
      </trkpt>
      <trkpt lat="48.14602" lon="6.39881">
        <ele>460.9</ele>
        <time>2023-04-30T14:12:09Z</time>
      </trkpt>
      <trkpt lat="48.14601" lon="6.39883">
        <ele>460.9</ele>
        <time>2023-04-30T14:12:10Z</time>
      </trkpt>
      <trkpt lat="48.146" lon="6.39884">
        <ele>461</ele>
        <time>2023-04-30T14:12:11Z</time>
      </trkpt>
      <trkpt lat="48.14598" lon="6.39884">
        <ele>461.1</ele>
        <time>2023-04-30T14:12:12Z</time>
      </trkpt>
      <trkpt lat="48.14596" lon="6.39883">
        <ele>461.1</ele>
        <time>2023-04-30T14:12:13Z</time>
      </trkpt>
      <trkpt lat="48.14594" lon="6.39878">
        <ele>461.3</ele>
        <time>2023-04-30T14:12:14Z</time>
      </trkpt>
      <trkpt lat="48.14593" lon="6.39876">
        <ele>461.3</ele>
        <time>2023-04-30T14:12:15Z</time>
      </trkpt>
      <trkpt lat="48.14591" lon="6.39872">
        <ele>461.4</ele>
        <time>2023-04-30T14:12:16Z</time>
      </trkpt>
      <trkpt lat="48.14589" lon="6.39868">
        <ele>461.5</ele>
        <time>2023-04-30T14:12:17Z</time>
      </trkpt>
      <trkpt lat="48.14586" lon="6.39863">
        <ele>461.7</ele>
        <time>2023-04-30T14:12:19Z</time>
      </trkpt>
      <trkpt lat="48.14584" lon="6.3986">
        <ele>461.8</ele>
        <time>2023-04-30T14:12:20Z</time>
      </trkpt>
      <trkpt lat="48.14582" lon="6.39857">
        <ele>461.9</ele>
        <time>2023-04-30T14:12:21Z</time>
      </trkpt>
      <trkpt lat="48.14579" lon="6.39852">
        <ele>462</ele>
        <time>2023-04-30T14:12:22Z</time>
      </trkpt>
      <trkpt lat="48.14577" lon="6.3985">
        <ele>462.1</ele>
        <time>2023-04-30T14:12:23Z</time>
      </trkpt>
      <trkpt lat="48.14576" lon="6.39849">
        <ele>462.1</ele>
        <time>2023-04-30T14:12:25Z</time>
      </trkpt>
      <trkpt lat="48.14575" lon="6.39848">
        <ele>462.2</ele>
        <time>2023-04-30T14:12:26Z</time>
      </trkpt>
      <trkpt lat="48.1457" lon="6.39843">
        <ele>462.3</ele>
        <time>2023-04-30T14:12:27Z</time>
      </trkpt>
      <trkpt lat="48.14565" lon="6.39837">
        <ele>462.5</ele>
        <time>2023-04-30T14:12:28Z</time>
      </trkpt>
      <trkpt lat="48.14561" lon="6.39831">
        <ele>462.7</ele>
        <time>2023-04-30T14:12:30Z</time>
      </trkpt>
      <trkpt lat="48.14558" lon="6.39826">
        <ele>462.8</ele>
        <time>2023-04-30T14:12:31Z</time>
      </trkpt>
      <trkpt lat="48.14554" lon="6.39821">
        <ele>462.9</ele>
        <time>2023-04-30T14:12:32Z</time>
      </trkpt>
      <trkpt lat="48.14551" lon="6.39815">
        <ele>463.1</ele>
        <time>2023-04-30T14:12:33Z</time>
      </trkpt>
      <trkpt lat="48.14549" lon="6.39808">
        <ele>463.2</ele>
        <time>2023-04-30T14:12:34Z</time>
      </trkpt>
      <trkpt lat="48.14548" lon="6.39804">
        <ele>463.3</ele>
        <time>2023-04-30T14:12:35Z</time>
      </trkpt>
      <trkpt lat="48.14546" lon="6.39799">
        <ele>463.5</ele>
        <time>2023-04-30T14:12:37Z</time>
      </trkpt>
      <trkpt lat="48.14543" lon="6.39795">
        <ele>463.6</ele>
        <time>2023-04-30T14:12:38Z</time>
      </trkpt>
      <trkpt lat="48.1454" lon="6.39792">
        <ele>463.7</ele>
        <time>2023-04-30T14:12:39Z</time>
      </trkpt>
      <trkpt lat="48.14536" lon="6.39786">
        <ele>463.9</ele>
        <time>2023-04-30T14:12:40Z</time>
      </trkpt>
      <trkpt lat="48.14533" lon="6.39781">
        <ele>464</ele>
        <time>2023-04-30T14:12:41Z</time>
      </trkpt>
      <trkpt lat="48.1453" lon="6.39776">
        <ele>464.2</ele>
        <time>2023-04-30T14:12:43Z</time>
      </trkpt>
      <trkpt lat="48.14528" lon="6.39771">
        <ele>464.3</ele>
        <time>2023-04-30T14:12:44Z</time>
      </trkpt>
      <trkpt lat="48.14526" lon="6.39768">
        <ele>464.4</ele>
        <time>2023-04-30T14:12:45Z</time>
      </trkpt>
      <trkpt lat="48.14522" lon="6.39758">
        <ele>464.6</ele>
        <time>2023-04-30T14:12:46Z</time>
      </trkpt>
      <trkpt lat="48.14519" lon="6.39753">
        <ele>464.7</ele>
        <time>2023-04-30T14:12:48Z</time>
      </trkpt>
      <trkpt lat="48.14517" lon="6.39749">
        <ele>464.8</ele>
        <time>2023-04-30T14:12:49Z</time>
      </trkpt>
      <trkpt lat="48.14513" lon="6.39742">
        <ele>465</ele>
        <time>2023-04-30T14:12:50Z</time>
      </trkpt>
      <trkpt lat="48.1451" lon="6.39738">
        <ele>465.1</ele>
        <time>2023-04-30T14:12:51Z</time>
      </trkpt>
      <trkpt lat="48.14507" lon="6.39731">
        <ele>465.2</ele>
        <time>2023-04-30T14:12:52Z</time>
      </trkpt>
      <trkpt lat="48.14502" lon="6.39719">
        <ele>465.4</ele>
        <time>2023-04-30T14:12:53Z</time>
      </trkpt>
      <trkpt lat="48.14498" lon="6.3971">
        <ele>465.5</ele>
        <time>2023-04-30T14:12:54Z</time>
      </trkpt>
      <trkpt lat="48.14494" lon="6.397">
        <ele>465.7</ele>
        <time>2023-04-30T14:12:56Z</time>
      </trkpt>
      <trkpt lat="48.1449" lon="6.39693">
        <ele>465.8</ele>
        <time>2023-04-30T14:12:57Z</time>
      </trkpt>
      <trkpt lat="48.14486" lon="6.39685">
        <ele>465.9</ele>
        <time>2023-04-30T14:12:58Z</time>
      </trkpt>
      <trkpt lat="48.14482" lon="6.39678">
        <ele>465.9</ele>
        <time>2023-04-30T14:12:59Z</time>
      </trkpt>
      <trkpt lat="48.14478" lon="6.39672">
        <ele>465.9</ele>
        <time>2023-04-30T14:13:00Z</time>
      </trkpt>
      <trkpt lat="48.14471" lon="6.39662">
        <ele>465.9</ele>
        <time>2023-04-30T14:13:02Z</time>
      </trkpt>
      <trkpt lat="48.14467" lon="6.39657">
        <ele>465.9</ele>
        <time>2023-04-30T14:13:03Z</time>
      </trkpt>
      <trkpt lat="48.14463" lon="6.39652">
        <ele>465.9</ele>
        <time>2023-04-30T14:13:04Z</time>
      </trkpt>
      <trkpt lat="48.14459" lon="6.39646">
        <ele>465.9</ele>
        <time>2023-04-30T14:13:05Z</time>
      </trkpt>
      <trkpt lat="48.14455" lon="6.39642">
        <ele>465.9</ele>
        <time>2023-04-30T14:13:06Z</time>
      </trkpt>
      <trkpt lat="48.1445" lon="6.39637">
        <ele>465.9</ele>
        <time>2023-04-30T14:13:07Z</time>
      </trkpt>
      <trkpt lat="48.14446" lon="6.3963">
        <ele>466</ele>
        <time>2023-04-30T14:13:08Z</time>
      </trkpt>
      <trkpt lat="48.14441" lon="6.39625">
        <ele>466</ele>
        <time>2023-04-30T14:13:09Z</time>
      </trkpt>
      <trkpt lat="48.14437" lon="6.3962">
        <ele>466</ele>
        <time>2023-04-30T14:13:10Z</time>
      </trkpt>
      <trkpt lat="48.14433" lon="6.39614">
        <ele>466.1</ele>
        <time>2023-04-30T14:13:11Z</time>
      </trkpt>
      <trkpt lat="48.14428" lon="6.39609">
        <ele>466.1</ele>
        <time>2023-04-30T14:13:12Z</time>
      </trkpt>
      <trkpt lat="48.14423" lon="6.39604">
        <ele>466.1</ele>
        <time>2023-04-30T14:13:13Z</time>
      </trkpt>
      <trkpt lat="48.14419" lon="6.39599">
        <ele>466.1</ele>
        <time>2023-04-30T14:13:14Z</time>
      </trkpt>
      <trkpt lat="48.14414" lon="6.39596">
        <ele>466.1</ele>
        <time>2023-04-30T14:13:15Z</time>
      </trkpt>
      <trkpt lat="48.14409" lon="6.39591">
        <ele>466.1</ele>
        <time>2023-04-30T14:13:16Z</time>
      </trkpt>
      <trkpt lat="48.14405" lon="6.39587">
        <ele>466.1</ele>
        <time>2023-04-30T14:13:17Z</time>
      </trkpt>
      <trkpt lat="48.14399" lon="6.39583">
        <ele>466.1</ele>
        <time>2023-04-30T14:13:18Z</time>
      </trkpt>
      <trkpt lat="48.14394" lon="6.3958">
        <ele>466.2</ele>
        <time>2023-04-30T14:13:19Z</time>
      </trkpt>
      <trkpt lat="48.14389" lon="6.39576">
        <ele>466.2</ele>
        <time>2023-04-30T14:13:20Z</time>
      </trkpt>
      <trkpt lat="48.14384" lon="6.39572">
        <ele>466.2</ele>
        <time>2023-04-30T14:13:21Z</time>
      </trkpt>
      <trkpt lat="48.14379" lon="6.39569">
        <ele>466.2</ele>
        <time>2023-04-30T14:13:22Z</time>
      </trkpt>
      <trkpt lat="48.14374" lon="6.39565">
        <ele>466.2</ele>
        <time>2023-04-30T14:13:23Z</time>
      </trkpt>
      <trkpt lat="48.14369" lon="6.39562">
        <ele>466.2</ele>
        <time>2023-04-30T14:13:24Z</time>
      </trkpt>
      <trkpt lat="48.14364" lon="6.39559">
        <ele>466.2</ele>
        <time>2023-04-30T14:13:25Z</time>
      </trkpt>
      <trkpt lat="48.14359" lon="6.39555">
        <ele>466.2</ele>
        <time>2023-04-30T14:13:26Z</time>
      </trkpt>
      <trkpt lat="48.14354" lon="6.39552">
        <ele>466.3</ele>
        <time>2023-04-30T14:13:27Z</time>
      </trkpt>
      <trkpt lat="48.14349" lon="6.39549">
        <ele>466.3</ele>
        <time>2023-04-30T14:13:28Z</time>
      </trkpt>
      <trkpt lat="48.14344" lon="6.39546">
        <ele>466.3</ele>
        <time>2023-04-30T14:13:29Z</time>
      </trkpt>
      <trkpt lat="48.14339" lon="6.39542">
        <ele>466.4</ele>
        <time>2023-04-30T14:13:30Z</time>
      </trkpt>
      <trkpt lat="48.14334" lon="6.39539">
        <ele>466.4</ele>
        <time>2023-04-30T14:13:31Z</time>
      </trkpt>
      <trkpt lat="48.14329" lon="6.39536">
        <ele>466.4</ele>
        <time>2023-04-30T14:13:32Z</time>
      </trkpt>
      <trkpt lat="48.14324" lon="6.39532">
        <ele>466.5</ele>
        <time>2023-04-30T14:13:33Z</time>
      </trkpt>
      <trkpt lat="48.14319" lon="6.39529">
        <ele>466.5</ele>
        <time>2023-04-30T14:13:34Z</time>
      </trkpt>
      <trkpt lat="48.14314" lon="6.39525">
        <ele>466.5</ele>
        <time>2023-04-30T14:13:35Z</time>
      </trkpt>
      <trkpt lat="48.14309" lon="6.39522">
        <ele>466.5</ele>
        <time>2023-04-30T14:13:36Z</time>
      </trkpt>
      <trkpt lat="48.14305" lon="6.39519">
        <ele>466.5</ele>
        <time>2023-04-30T14:13:37Z</time>
      </trkpt>
      <trkpt lat="48.143" lon="6.39515">
        <ele>466.5</ele>
        <time>2023-04-30T14:13:38Z</time>
      </trkpt>
      <trkpt lat="48.14294" lon="6.39511">
        <ele>466.5</ele>
        <time>2023-04-30T14:13:39Z</time>
      </trkpt>
      <trkpt lat="48.14289" lon="6.39508">
        <ele>466.5</ele>
        <time>2023-04-30T14:13:40Z</time>
      </trkpt>
      <trkpt lat="48.14284" lon="6.39504">
        <ele>466.5</ele>
        <time>2023-04-30T14:13:41Z</time>
      </trkpt>
      <trkpt lat="48.14278" lon="6.39501">
        <ele>466.5</ele>
        <time>2023-04-30T14:13:42Z</time>
      </trkpt>
      <trkpt lat="48.14273" lon="6.39498">
        <ele>466.6</ele>
        <time>2023-04-30T14:13:43Z</time>
      </trkpt>
      <trkpt lat="48.14269" lon="6.39495">
        <ele>466.6</ele>
        <time>2023-04-30T14:13:44Z</time>
      </trkpt>
      <trkpt lat="48.14264" lon="6.39492">
        <ele>466.6</ele>
        <time>2023-04-30T14:13:45Z</time>
      </trkpt>
      <trkpt lat="48.14259" lon="6.39489">
        <ele>466.6</ele>
        <time>2023-04-30T14:13:46Z</time>
      </trkpt>
      <trkpt lat="48.14255" lon="6.39486">
        <ele>466.6</ele>
        <time>2023-04-30T14:13:47Z</time>
      </trkpt>
      <trkpt lat="48.1425" lon="6.39482">
        <ele>466.5</ele>
        <time>2023-04-30T14:13:48Z</time>
      </trkpt>
      <trkpt lat="48.14245" lon="6.39479">
        <ele>466.5</ele>
        <time>2023-04-30T14:13:49Z</time>
      </trkpt>
      <trkpt lat="48.1424" lon="6.39477">
        <ele>466.4</ele>
        <time>2023-04-30T14:13:50Z</time>
      </trkpt>
      <trkpt lat="48.14235" lon="6.39473">
        <ele>466.3</ele>
        <time>2023-04-30T14:13:51Z</time>
      </trkpt>
      <trkpt lat="48.1423" lon="6.39469">
        <ele>466.3</ele>
        <time>2023-04-30T14:13:52Z</time>
      </trkpt>
      <trkpt lat="48.14225" lon="6.39466">
        <ele>466.2</ele>
        <time>2023-04-30T14:13:53Z</time>
      </trkpt>
      <trkpt lat="48.1422" lon="6.39462">
        <ele>466.1</ele>
        <time>2023-04-30T14:13:54Z</time>
      </trkpt>
      <trkpt lat="48.14214" lon="6.39458">
        <ele>466</ele>
        <time>2023-04-30T14:13:55Z</time>
      </trkpt>
      <trkpt lat="48.14208" lon="6.39454">
        <ele>465.9</ele>
        <time>2023-04-30T14:13:56Z</time>
      </trkpt>
      <trkpt lat="48.14202" lon="6.3945">
        <ele>465.8</ele>
        <time>2023-04-30T14:13:57Z</time>
      </trkpt>
      <trkpt lat="48.14197" lon="6.39445">
        <ele>465.7</ele>
        <time>2023-04-30T14:13:58Z</time>
      </trkpt>
      <trkpt lat="48.14192" lon="6.39441">
        <ele>465.6</ele>
        <time>2023-04-30T14:13:59Z</time>
      </trkpt>
      <trkpt lat="48.14187" lon="6.39438">
        <ele>465.5</ele>
        <time>2023-04-30T14:14:00Z</time>
      </trkpt>
      <trkpt lat="48.14182" lon="6.39435">
        <ele>465.4</ele>
        <time>2023-04-30T14:14:01Z</time>
      </trkpt>
      <trkpt lat="48.14176" lon="6.39431">
        <ele>465.2</ele>
        <time>2023-04-30T14:14:02Z</time>
      </trkpt>
      <trkpt lat="48.1417" lon="6.39427">
        <ele>465</ele>
        <time>2023-04-30T14:14:03Z</time>
      </trkpt>
      <trkpt lat="48.14164" lon="6.39423">
        <ele>464.9</ele>
        <time>2023-04-30T14:14:04Z</time>
      </trkpt>
      <trkpt lat="48.14157" lon="6.3942">
        <ele>464.8</ele>
        <time>2023-04-30T14:14:05Z</time>
      </trkpt>
      <trkpt lat="48.14151" lon="6.39417">
        <ele>464.6</ele>
        <time>2023-04-30T14:14:06Z</time>
      </trkpt>
      <trkpt lat="48.14147" lon="6.39414">
        <ele>464.5</ele>
        <time>2023-04-30T14:14:07Z</time>
      </trkpt>
      <trkpt lat="48.14142" lon="6.39412">
        <ele>464.4</ele>
        <time>2023-04-30T14:14:08Z</time>
      </trkpt>
      <trkpt lat="48.14137" lon="6.3941">
        <ele>464.4</ele>
        <time>2023-04-30T14:14:09Z</time>
      </trkpt>
      <trkpt lat="48.1413" lon="6.39408">
        <ele>464.2</ele>
        <time>2023-04-30T14:14:10Z</time>
      </trkpt>
      <trkpt lat="48.14124" lon="6.39407">
        <ele>464.1</ele>
        <time>2023-04-30T14:14:11Z</time>
      </trkpt>
      <trkpt lat="48.14117" lon="6.39406">
        <ele>463.9</ele>
        <time>2023-04-30T14:14:12Z</time>
      </trkpt>
      <trkpt lat="48.14111" lon="6.39406">
        <ele>463.8</ele>
        <time>2023-04-30T14:14:13Z</time>
      </trkpt>
      <trkpt lat="48.14105" lon="6.39406">
        <ele>463.7</ele>
        <time>2023-04-30T14:14:14Z</time>
      </trkpt>
      <trkpt lat="48.14099" lon="6.39406">
        <ele>463.6</ele>
        <time>2023-04-30T14:14:15Z</time>
      </trkpt>
      <trkpt lat="48.14093" lon="6.39406">
        <ele>463.5</ele>
        <time>2023-04-30T14:14:16Z</time>
      </trkpt>
      <trkpt lat="48.14087" lon="6.39407">
        <ele>463.4</ele>
        <time>2023-04-30T14:14:17Z</time>
      </trkpt>
      <trkpt lat="48.1408" lon="6.39407">
        <ele>463.3</ele>
        <time>2023-04-30T14:14:18Z</time>
      </trkpt>
      <trkpt lat="48.14074" lon="6.39407">
        <ele>463.3</ele>
        <time>2023-04-30T14:14:19Z</time>
      </trkpt>
      <trkpt lat="48.14068" lon="6.39408">
        <ele>463.2</ele>
        <time>2023-04-30T14:14:20Z</time>
      </trkpt>
      <trkpt lat="48.14062" lon="6.39409">
        <ele>463.1</ele>
        <time>2023-04-30T14:14:21Z</time>
      </trkpt>
      <trkpt lat="48.14055" lon="6.3941">
        <ele>463</ele>
        <time>2023-04-30T14:14:22Z</time>
      </trkpt>
      <trkpt lat="48.14051" lon="6.3941">
        <ele>463</ele>
        <time>2023-04-30T14:14:23Z</time>
      </trkpt>
      <trkpt lat="48.14046" lon="6.39411">
        <ele>462.9</ele>
        <time>2023-04-30T14:14:24Z</time>
      </trkpt>
      <trkpt lat="48.14039" lon="6.39411">
        <ele>462.9</ele>
        <time>2023-04-30T14:14:25Z</time>
      </trkpt>
      <trkpt lat="48.14033" lon="6.39412">
        <ele>462.8</ele>
        <time>2023-04-30T14:14:26Z</time>
      </trkpt>
      <trkpt lat="48.14026" lon="6.39413">
        <ele>462.8</ele>
        <time>2023-04-30T14:14:27Z</time>
      </trkpt>
      <trkpt lat="48.1402" lon="6.39413">
        <ele>462.8</ele>
        <time>2023-04-30T14:14:28Z</time>
      </trkpt>
      <trkpt lat="48.14012" lon="6.39414">
        <ele>462.8</ele>
        <time>2023-04-30T14:14:29Z</time>
      </trkpt>
      <trkpt lat="48.14006" lon="6.39415">
        <ele>462.8</ele>
        <time>2023-04-30T14:14:30Z</time>
      </trkpt>
      <trkpt lat="48.13999" lon="6.39414">
        <ele>462.8</ele>
        <time>2023-04-30T14:14:31Z</time>
      </trkpt>
      <trkpt lat="48.13992" lon="6.39413">
        <ele>462.8</ele>
        <time>2023-04-30T14:14:32Z</time>
      </trkpt>
      <trkpt lat="48.13986" lon="6.39411">
        <ele>462.8</ele>
        <time>2023-04-30T14:14:33Z</time>
      </trkpt>
      <trkpt lat="48.13979" lon="6.39407">
        <ele>462.8</ele>
        <time>2023-04-30T14:14:34Z</time>
      </trkpt>
      <trkpt lat="48.13972" lon="6.39404">
        <ele>462.8</ele>
        <time>2023-04-30T14:14:35Z</time>
      </trkpt>
      <trkpt lat="48.13966" lon="6.394">
        <ele>462.7</ele>
        <time>2023-04-30T14:14:36Z</time>
      </trkpt>
      <trkpt lat="48.13959" lon="6.39396">
        <ele>462.7</ele>
        <time>2023-04-30T14:14:37Z</time>
      </trkpt>
      <trkpt lat="48.13953" lon="6.3939">
        <ele>462.7</ele>
        <time>2023-04-30T14:14:38Z</time>
      </trkpt>
      <trkpt lat="48.13947" lon="6.39385">
        <ele>462.7</ele>
        <time>2023-04-30T14:14:39Z</time>
      </trkpt>
      <trkpt lat="48.13942" lon="6.39379">
        <ele>462.6</ele>
        <time>2023-04-30T14:14:40Z</time>
      </trkpt>
      <trkpt lat="48.13937" lon="6.39372">
        <ele>462.6</ele>
        <time>2023-04-30T14:14:41Z</time>
      </trkpt>
      <trkpt lat="48.13931" lon="6.39366">
        <ele>462.5</ele>
        <time>2023-04-30T14:14:42Z</time>
      </trkpt>
      <trkpt lat="48.13925" lon="6.39359">
        <ele>462.4</ele>
        <time>2023-04-30T14:14:43Z</time>
      </trkpt>
      <trkpt lat="48.13919" lon="6.39353">
        <ele>462.3</ele>
        <time>2023-04-30T14:14:44Z</time>
      </trkpt>
      <trkpt lat="48.13913" lon="6.39346">
        <ele>462.1</ele>
        <time>2023-04-30T14:14:45Z</time>
      </trkpt>
      <trkpt lat="48.13907" lon="6.39339">
        <ele>462</ele>
        <time>2023-04-30T14:14:46Z</time>
      </trkpt>
      <trkpt lat="48.13901" lon="6.39332">
        <ele>461.8</ele>
        <time>2023-04-30T14:14:47Z</time>
      </trkpt>
      <trkpt lat="48.13896" lon="6.39325">
        <ele>461.6</ele>
        <time>2023-04-30T14:14:48Z</time>
      </trkpt>
      <trkpt lat="48.1389" lon="6.39318">
        <ele>461.5</ele>
        <time>2023-04-30T14:14:49Z</time>
      </trkpt>
      <trkpt lat="48.13884" lon="6.39311">
        <ele>461.4</ele>
        <time>2023-04-30T14:14:50Z</time>
      </trkpt>
      <trkpt lat="48.13878" lon="6.39303">
        <ele>461.3</ele>
        <time>2023-04-30T14:14:51Z</time>
      </trkpt>
      <trkpt lat="48.13872" lon="6.39296">
        <ele>461.3</ele>
        <time>2023-04-30T14:14:52Z</time>
      </trkpt>
      <trkpt lat="48.13866" lon="6.39289">
        <ele>461.2</ele>
        <time>2023-04-30T14:14:53Z</time>
      </trkpt>
      <trkpt lat="48.1386" lon="6.39282">
        <ele>461.2</ele>
        <time>2023-04-30T14:14:54Z</time>
      </trkpt>
      <trkpt lat="48.13854" lon="6.39275">
        <ele>461.1</ele>
        <time>2023-04-30T14:14:55Z</time>
      </trkpt>
      <trkpt lat="48.13849" lon="6.39268">
        <ele>461</ele>
        <time>2023-04-30T14:14:56Z</time>
      </trkpt>
      <trkpt lat="48.13843" lon="6.39261">
        <ele>461</ele>
        <time>2023-04-30T14:14:57Z</time>
      </trkpt>
      <trkpt lat="48.13837" lon="6.39254">
        <ele>461</ele>
        <time>2023-04-30T14:14:58Z</time>
      </trkpt>
      <trkpt lat="48.13832" lon="6.39247">
        <ele>461</ele>
        <time>2023-04-30T14:14:59Z</time>
      </trkpt>
      <trkpt lat="48.13827" lon="6.3924">
        <ele>461</ele>
        <time>2023-04-30T14:15:00Z</time>
      </trkpt>
      <trkpt lat="48.13821" lon="6.39233">
        <ele>461.1</ele>
        <time>2023-04-30T14:15:01Z</time>
      </trkpt>
      <trkpt lat="48.13816" lon="6.39226">
        <ele>461.2</ele>
        <time>2023-04-30T14:15:02Z</time>
      </trkpt>
      <trkpt lat="48.13811" lon="6.39219">
        <ele>461.3</ele>
        <time>2023-04-30T14:15:03Z</time>
      </trkpt>
      <trkpt lat="48.13806" lon="6.39212">
        <ele>461.5</ele>
        <time>2023-04-30T14:15:04Z</time>
      </trkpt>
      <trkpt lat="48.13801" lon="6.39205">
        <ele>461.7</ele>
        <time>2023-04-30T14:15:05Z</time>
      </trkpt>
      <trkpt lat="48.13796" lon="6.39198">
        <ele>461.9</ele>
        <time>2023-04-30T14:15:06Z</time>
      </trkpt>
      <trkpt lat="48.13792" lon="6.39192">
        <ele>462.1</ele>
        <time>2023-04-30T14:15:07Z</time>
      </trkpt>
      <trkpt lat="48.13787" lon="6.39185">
        <ele>462.3</ele>
        <time>2023-04-30T14:15:08Z</time>
      </trkpt>
      <trkpt lat="48.13782" lon="6.39179">
        <ele>462.5</ele>
        <time>2023-04-30T14:15:09Z</time>
      </trkpt>
      <trkpt lat="48.13778" lon="6.39173">
        <ele>462.7</ele>
        <time>2023-04-30T14:15:10Z</time>
      </trkpt>
      <trkpt lat="48.13774" lon="6.39167">
        <ele>462.9</ele>
        <time>2023-04-30T14:15:11Z</time>
      </trkpt>
      <trkpt lat="48.13769" lon="6.39162">
        <ele>463.1</ele>
        <time>2023-04-30T14:15:12Z</time>
      </trkpt>
      <trkpt lat="48.13765" lon="6.39156">
        <ele>463.3</ele>
        <time>2023-04-30T14:15:13Z</time>
      </trkpt>
      <trkpt lat="48.1376" lon="6.3915">
        <ele>463.5</ele>
        <time>2023-04-30T14:15:14Z</time>
      </trkpt>
      <trkpt lat="48.13756" lon="6.39144">
        <ele>463.7</ele>
        <time>2023-04-30T14:15:15Z</time>
      </trkpt>
      <trkpt lat="48.13752" lon="6.39138">
        <ele>463.9</ele>
        <time>2023-04-30T14:15:16Z</time>
      </trkpt>
      <trkpt lat="48.13748" lon="6.39131">
        <ele>464.1</ele>
        <time>2023-04-30T14:15:17Z</time>
      </trkpt>
      <trkpt lat="48.13744" lon="6.39125">
        <ele>464.2</ele>
        <time>2023-04-30T14:15:18Z</time>
      </trkpt>
      <trkpt lat="48.13741" lon="6.39119">
        <ele>464.4</ele>
        <time>2023-04-30T14:15:19Z</time>
      </trkpt>
      <trkpt lat="48.13737" lon="6.39112">
        <ele>464.5</ele>
        <time>2023-04-30T14:15:20Z</time>
      </trkpt>
      <trkpt lat="48.13734" lon="6.39105">
        <ele>464.5</ele>
        <time>2023-04-30T14:15:21Z</time>
      </trkpt>
      <trkpt lat="48.13731" lon="6.39098">
        <ele>464.6</ele>
        <time>2023-04-30T14:15:22Z</time>
      </trkpt>
      <trkpt lat="48.13728" lon="6.39091">
        <ele>464.6</ele>
        <time>2023-04-30T14:15:23Z</time>
      </trkpt>
      <trkpt lat="48.13725" lon="6.39083">
        <ele>464.7</ele>
        <time>2023-04-30T14:15:24Z</time>
      </trkpt>
      <trkpt lat="48.13722" lon="6.39075">
        <ele>464.7</ele>
        <time>2023-04-30T14:15:25Z</time>
      </trkpt>
      <trkpt lat="48.1372" lon="6.39068">
        <ele>464.6</ele>
        <time>2023-04-30T14:15:26Z</time>
      </trkpt>
      <trkpt lat="48.13717" lon="6.3906">
        <ele>464.6</ele>
        <time>2023-04-30T14:15:27Z</time>
      </trkpt>
      <trkpt lat="48.13714" lon="6.39052">
        <ele>464.6</ele>
        <time>2023-04-30T14:15:28Z</time>
      </trkpt>
      <trkpt lat="48.13711" lon="6.39045">
        <ele>464.5</ele>
        <time>2023-04-30T14:15:29Z</time>
      </trkpt>
      <trkpt lat="48.13709" lon="6.39036">
        <ele>464.5</ele>
        <time>2023-04-30T14:15:30Z</time>
      </trkpt>
      <trkpt lat="48.13706" lon="6.39028">
        <ele>464.4</ele>
        <time>2023-04-30T14:15:31Z</time>
      </trkpt>
      <trkpt lat="48.13704" lon="6.3902">
        <ele>464.3</ele>
        <time>2023-04-30T14:15:32Z</time>
      </trkpt>
      <trkpt lat="48.13701" lon="6.39011">
        <ele>464.2</ele>
        <time>2023-04-30T14:15:33Z</time>
      </trkpt>
      <trkpt lat="48.13698" lon="6.39003">
        <ele>464.1</ele>
        <time>2023-04-30T14:15:34Z</time>
      </trkpt>
      <trkpt lat="48.13695" lon="6.38995">
        <ele>464</ele>
        <time>2023-04-30T14:15:35Z</time>
      </trkpt>
      <trkpt lat="48.13692" lon="6.38986">
        <ele>463.9</ele>
        <time>2023-04-30T14:15:36Z</time>
      </trkpt>
      <trkpt lat="48.13689" lon="6.38978">
        <ele>463.8</ele>
        <time>2023-04-30T14:15:37Z</time>
      </trkpt>
      <trkpt lat="48.13687" lon="6.3897">
        <ele>463.7</ele>
        <time>2023-04-30T14:15:38Z</time>
      </trkpt>
      <trkpt lat="48.13684" lon="6.38961">
        <ele>463.5</ele>
        <time>2023-04-30T14:15:39Z</time>
      </trkpt>
      <trkpt lat="48.13681" lon="6.38952">
        <ele>463.4</ele>
        <time>2023-04-30T14:15:40Z</time>
      </trkpt>
      <trkpt lat="48.13678" lon="6.38944">
        <ele>463.3</ele>
        <time>2023-04-30T14:15:41Z</time>
      </trkpt>
      <trkpt lat="48.13675" lon="6.38935">
        <ele>463.2</ele>
        <time>2023-04-30T14:15:42Z</time>
      </trkpt>
      <trkpt lat="48.13673" lon="6.38926">
        <ele>463.1</ele>
        <time>2023-04-30T14:15:43Z</time>
      </trkpt>
      <trkpt lat="48.1367" lon="6.38918">
        <ele>462.9</ele>
        <time>2023-04-30T14:15:44Z</time>
      </trkpt>
      <trkpt lat="48.13667" lon="6.38909">
        <ele>462.8</ele>
        <time>2023-04-30T14:15:45Z</time>
      </trkpt>
      <trkpt lat="48.13665" lon="6.38901">
        <ele>462.6</ele>
        <time>2023-04-30T14:15:46Z</time>
      </trkpt>
      <trkpt lat="48.13663" lon="6.38892">
        <ele>462.5</ele>
        <time>2023-04-30T14:15:47Z</time>
      </trkpt>
      <trkpt lat="48.13661" lon="6.38882">
        <ele>462.3</ele>
        <time>2023-04-30T14:15:48Z</time>
      </trkpt>
      <trkpt lat="48.13659" lon="6.38873">
        <ele>462.2</ele>
        <time>2023-04-30T14:15:49Z</time>
      </trkpt>
      <trkpt lat="48.13658" lon="6.38863">
        <ele>462.1</ele>
        <time>2023-04-30T14:15:50Z</time>
      </trkpt>
      <trkpt lat="48.13657" lon="6.38853">
        <ele>462</ele>
        <time>2023-04-30T14:15:51Z</time>
      </trkpt>
      <trkpt lat="48.13656" lon="6.38841">
        <ele>461.8</ele>
        <time>2023-04-30T14:15:52Z</time>
      </trkpt>
      <trkpt lat="48.13656" lon="6.38831">
        <ele>461.6</ele>
        <time>2023-04-30T14:15:53Z</time>
      </trkpt>
      <trkpt lat="48.13657" lon="6.38822">
        <ele>461.5</ele>
        <time>2023-04-30T14:15:54Z</time>
      </trkpt>
      <trkpt lat="48.13658" lon="6.38812">
        <ele>461.4</ele>
        <time>2023-04-30T14:15:55Z</time>
      </trkpt>
      <trkpt lat="48.13659" lon="6.38801">
        <ele>461.3</ele>
        <time>2023-04-30T14:15:56Z</time>
      </trkpt>
      <trkpt lat="48.1366" lon="6.38791">
        <ele>461.2</ele>
        <time>2023-04-30T14:15:57Z</time>
      </trkpt>
      <trkpt lat="48.13661" lon="6.38781">
        <ele>461.1</ele>
        <time>2023-04-30T14:15:58Z</time>
      </trkpt>
      <trkpt lat="48.13662" lon="6.38771">
        <ele>461</ele>
        <time>2023-04-30T14:15:59Z</time>
      </trkpt>
      <trkpt lat="48.13663" lon="6.3876">
        <ele>461</ele>
        <time>2023-04-30T14:16:00Z</time>
      </trkpt>
      <trkpt lat="48.13664" lon="6.38751">
        <ele>460.9</ele>
        <time>2023-04-30T14:16:01Z</time>
      </trkpt>
      <trkpt lat="48.13665" lon="6.3874">
        <ele>460.8</ele>
        <time>2023-04-30T14:16:02Z</time>
      </trkpt>
      <trkpt lat="48.13666" lon="6.3873">
        <ele>460.7</ele>
        <time>2023-04-30T14:16:03Z</time>
      </trkpt>
      <trkpt lat="48.13667" lon="6.38721">
        <ele>460.6</ele>
        <time>2023-04-30T14:16:04Z</time>
      </trkpt>
      <trkpt lat="48.13668" lon="6.38711">
        <ele>460.5</ele>
        <time>2023-04-30T14:16:05Z</time>
      </trkpt>
      <trkpt lat="48.13669" lon="6.38701">
        <ele>460.4</ele>
        <time>2023-04-30T14:16:06Z</time>
      </trkpt>
      <trkpt lat="48.1367" lon="6.38691">
        <ele>460.4</ele>
        <time>2023-04-30T14:16:07Z</time>
      </trkpt>
      <trkpt lat="48.13671" lon="6.38681">
        <ele>460.3</ele>
        <time>2023-04-30T14:16:08Z</time>
      </trkpt>
      <trkpt lat="48.13672" lon="6.3867">
        <ele>460.2</ele>
        <time>2023-04-30T14:16:09Z</time>
      </trkpt>
      <trkpt lat="48.13673" lon="6.3866">
        <ele>460.2</ele>
        <time>2023-04-30T14:16:10Z</time>
      </trkpt>
      <trkpt lat="48.13674" lon="6.3865">
        <ele>460.1</ele>
        <time>2023-04-30T14:16:11Z</time>
      </trkpt>
      <trkpt lat="48.13674" lon="6.38639">
        <ele>460</ele>
        <time>2023-04-30T14:16:12Z</time>
      </trkpt>
      <trkpt lat="48.13674" lon="6.38629">
        <ele>460</ele>
        <time>2023-04-30T14:16:13Z</time>
      </trkpt>
      <trkpt lat="48.13675" lon="6.38619">
        <ele>459.9</ele>
        <time>2023-04-30T14:16:14Z</time>
      </trkpt>
      <trkpt lat="48.13675" lon="6.38609">
        <ele>459.9</ele>
        <time>2023-04-30T14:16:15Z</time>
      </trkpt>
      <trkpt lat="48.13675" lon="6.38599">
        <ele>459.8</ele>
        <time>2023-04-30T14:16:16Z</time>
      </trkpt>
      <trkpt lat="48.13675" lon="6.38589">
        <ele>459.7</ele>
        <time>2023-04-30T14:16:17Z</time>
      </trkpt>
      <trkpt lat="48.13674" lon="6.38578">
        <ele>459.6</ele>
        <time>2023-04-30T14:16:18Z</time>
      </trkpt>
      <trkpt lat="48.13673" lon="6.38568">
        <ele>459.6</ele>
        <time>2023-04-30T14:16:19Z</time>
      </trkpt>
      <trkpt lat="48.13672" lon="6.38558">
        <ele>459.4</ele>
        <time>2023-04-30T14:16:20Z</time>
      </trkpt>
      <trkpt lat="48.13671" lon="6.38548">
        <ele>459.3</ele>
        <time>2023-04-30T14:16:21Z</time>
      </trkpt>
      <trkpt lat="48.13669" lon="6.38539">
        <ele>459.2</ele>
        <time>2023-04-30T14:16:22Z</time>
      </trkpt>
      <trkpt lat="48.13667" lon="6.38529">
        <ele>459.1</ele>
        <time>2023-04-30T14:16:23Z</time>
      </trkpt>
      <trkpt lat="48.13665" lon="6.38519">
        <ele>459</ele>
        <time>2023-04-30T14:16:24Z</time>
      </trkpt>
      <trkpt lat="48.13663" lon="6.3851">
        <ele>458.9</ele>
        <time>2023-04-30T14:16:25Z</time>
      </trkpt>
      <trkpt lat="48.1366" lon="6.385">
        <ele>458.8</ele>
        <time>2023-04-30T14:16:26Z</time>
      </trkpt>
      <trkpt lat="48.13657" lon="6.38491">
        <ele>458.6</ele>
        <time>2023-04-30T14:16:27Z</time>
      </trkpt>
      <trkpt lat="48.13654" lon="6.38482">
        <ele>458.5</ele>
        <time>2023-04-30T14:16:28Z</time>
      </trkpt>
      <trkpt lat="48.1365" lon="6.38473">
        <ele>458.3</ele>
        <time>2023-04-30T14:16:29Z</time>
      </trkpt>
      <trkpt lat="48.13647" lon="6.38464">
        <ele>458.2</ele>
        <time>2023-04-30T14:16:30Z</time>
      </trkpt>
      <trkpt lat="48.13643" lon="6.38456">
        <ele>458</ele>
        <time>2023-04-30T14:16:31Z</time>
      </trkpt>
      <trkpt lat="48.13639" lon="6.38448">
        <ele>457.9</ele>
        <time>2023-04-30T14:16:32Z</time>
      </trkpt>
      <trkpt lat="48.13635" lon="6.38441">
        <ele>457.7</ele>
        <time>2023-04-30T14:16:33Z</time>
      </trkpt>
      <trkpt lat="48.1363" lon="6.38433">
        <ele>457.6</ele>
        <time>2023-04-30T14:16:34Z</time>
      </trkpt>
      <trkpt lat="48.13625" lon="6.38425">
        <ele>457.4</ele>
        <time>2023-04-30T14:16:35Z</time>
      </trkpt>
      <trkpt lat="48.13621" lon="6.38418">
        <ele>457.2</ele>
        <time>2023-04-30T14:16:36Z</time>
      </trkpt>
      <trkpt lat="48.13616" lon="6.3841">
        <ele>457</ele>
        <time>2023-04-30T14:16:37Z</time>
      </trkpt>
      <trkpt lat="48.13611" lon="6.38403">
        <ele>456.7</ele>
        <time>2023-04-30T14:16:38Z</time>
      </trkpt>
      <trkpt lat="48.13606" lon="6.38396">
        <ele>456.4</ele>
        <time>2023-04-30T14:16:39Z</time>
      </trkpt>
      <trkpt lat="48.136" lon="6.38389">
        <ele>456.2</ele>
        <time>2023-04-30T14:16:40Z</time>
      </trkpt>
      <trkpt lat="48.13594" lon="6.38382">
        <ele>455.9</ele>
        <time>2023-04-30T14:16:41Z</time>
      </trkpt>
      <trkpt lat="48.13589" lon="6.38375">
        <ele>455.6</ele>
        <time>2023-04-30T14:16:42Z</time>
      </trkpt>
      <trkpt lat="48.13584" lon="6.38369">
        <ele>455.4</ele>
        <time>2023-04-30T14:16:43Z</time>
      </trkpt>
      <trkpt lat="48.13578" lon="6.38363">
        <ele>455.1</ele>
        <time>2023-04-30T14:16:44Z</time>
      </trkpt>
      <trkpt lat="48.13572" lon="6.38357">
        <ele>454.8</ele>
        <time>2023-04-30T14:16:45Z</time>
      </trkpt>
      <trkpt lat="48.13566" lon="6.3835">
        <ele>454.5</ele>
        <time>2023-04-30T14:16:46Z</time>
      </trkpt>
      <trkpt lat="48.13559" lon="6.38344">
        <ele>454.1</ele>
        <time>2023-04-30T14:16:47Z</time>
      </trkpt>
      <trkpt lat="48.13552" lon="6.38337">
        <ele>453.8</ele>
        <time>2023-04-30T14:16:48Z</time>
      </trkpt>
      <trkpt lat="48.13546" lon="6.38332">
        <ele>453.5</ele>
        <time>2023-04-30T14:16:49Z</time>
      </trkpt>
      <trkpt lat="48.13541" lon="6.38326">
        <ele>453.2</ele>
        <time>2023-04-30T14:16:50Z</time>
      </trkpt>
      <trkpt lat="48.13535" lon="6.38321">
        <ele>452.9</ele>
        <time>2023-04-30T14:16:51Z</time>
      </trkpt>
      <trkpt lat="48.13528" lon="6.38316">
        <ele>452.6</ele>
        <time>2023-04-30T14:16:52Z</time>
      </trkpt>
      <trkpt lat="48.13525" lon="6.38311">
        <ele>452.4</ele>
        <time>2023-04-30T14:16:53Z</time>
      </trkpt>
      <trkpt lat="48.1352" lon="6.38307">
        <ele>452.1</ele>
        <time>2023-04-30T14:16:54Z</time>
      </trkpt>
      <trkpt lat="48.13513" lon="6.38302">
        <ele>451.8</ele>
        <time>2023-04-30T14:16:55Z</time>
      </trkpt>
      <trkpt lat="48.13507" lon="6.38297">
        <ele>451.5</ele>
        <time>2023-04-30T14:16:56Z</time>
      </trkpt>
      <trkpt lat="48.13502" lon="6.38293">
        <ele>451.3</ele>
        <time>2023-04-30T14:16:57Z</time>
      </trkpt>
      <trkpt lat="48.13496" lon="6.38288">
        <ele>451</ele>
        <time>2023-04-30T14:16:58Z</time>
      </trkpt>
      <trkpt lat="48.13488" lon="6.38284">
        <ele>450.7</ele>
        <time>2023-04-30T14:16:59Z</time>
      </trkpt>
      <trkpt lat="48.1348" lon="6.38279">
        <ele>450.3</ele>
        <time>2023-04-30T14:17:00Z</time>
      </trkpt>
      <trkpt lat="48.13472" lon="6.38275">
        <ele>449.9</ele>
        <time>2023-04-30T14:17:01Z</time>
      </trkpt>
      <trkpt lat="48.13464" lon="6.3827">
        <ele>449.5</ele>
        <time>2023-04-30T14:17:02Z</time>
      </trkpt>
      <trkpt lat="48.13456" lon="6.38265">
        <ele>449</ele>
        <time>2023-04-30T14:17:03Z</time>
      </trkpt>
      <trkpt lat="48.13446" lon="6.3826">
        <ele>448.5</ele>
        <time>2023-04-30T14:17:04Z</time>
      </trkpt>
      <trkpt lat="48.13437" lon="6.38255">
        <ele>447.9</ele>
        <time>2023-04-30T14:17:05Z</time>
      </trkpt>
      <trkpt lat="48.13428" lon="6.3825">
        <ele>447.4</ele>
        <time>2023-04-30T14:17:06Z</time>
      </trkpt>
      <trkpt lat="48.13419" lon="6.38245">
        <ele>447</ele>
        <time>2023-04-30T14:17:07Z</time>
      </trkpt>
      <trkpt lat="48.13409" lon="6.38241">
        <ele>446.6</ele>
        <time>2023-04-30T14:17:08Z</time>
      </trkpt>
      <trkpt lat="48.134" lon="6.38236">
        <ele>446.2</ele>
        <time>2023-04-30T14:17:09Z</time>
      </trkpt>
      <trkpt lat="48.13391" lon="6.3823">
        <ele>445.8</ele>
        <time>2023-04-30T14:17:10Z</time>
      </trkpt>
      <trkpt lat="48.13383" lon="6.38222">
        <ele>445.4</ele>
        <time>2023-04-30T14:17:11Z</time>
      </trkpt>
      <trkpt lat="48.13374" lon="6.38214">
        <ele>445.1</ele>
        <time>2023-04-30T14:17:12Z</time>
      </trkpt>
      <trkpt lat="48.13366" lon="6.38205">
        <ele>444.8</ele>
        <time>2023-04-30T14:17:13Z</time>
      </trkpt>
      <trkpt lat="48.13358" lon="6.38196">
        <ele>444.5</ele>
        <time>2023-04-30T14:17:14Z</time>
      </trkpt>
      <trkpt lat="48.1335" lon="6.38186">
        <ele>444.1</ele>
        <time>2023-04-30T14:17:15Z</time>
      </trkpt>
      <trkpt lat="48.13343" lon="6.38175">
        <ele>443.6</ele>
        <time>2023-04-30T14:17:16Z</time>
      </trkpt>
      <trkpt lat="48.13335" lon="6.38165">
        <ele>443.2</ele>
        <time>2023-04-30T14:17:17Z</time>
      </trkpt>
      <trkpt lat="48.13328" lon="6.38155">
        <ele>442.7</ele>
        <time>2023-04-30T14:17:18Z</time>
      </trkpt>
      <trkpt lat="48.13321" lon="6.38145">
        <ele>442.4</ele>
        <time>2023-04-30T14:17:19Z</time>
      </trkpt>
      <trkpt lat="48.13314" lon="6.38135">
        <ele>442.1</ele>
        <time>2023-04-30T14:17:20Z</time>
      </trkpt>
      <trkpt lat="48.13307" lon="6.38125">
        <ele>441.9</ele>
        <time>2023-04-30T14:17:21Z</time>
      </trkpt>
      <trkpt lat="48.133" lon="6.38115">
        <ele>441.8</ele>
        <time>2023-04-30T14:17:22Z</time>
      </trkpt>
      <trkpt lat="48.13293" lon="6.38106">
        <ele>441.7</ele>
        <time>2023-04-30T14:17:23Z</time>
      </trkpt>
      <trkpt lat="48.13287" lon="6.38096">
        <ele>441.7</ele>
        <time>2023-04-30T14:17:24Z</time>
      </trkpt>
      <trkpt lat="48.13281" lon="6.38086">
        <ele>441.7</ele>
        <time>2023-04-30T14:17:25Z</time>
      </trkpt>
      <trkpt lat="48.13275" lon="6.38075">
        <ele>441.9</ele>
        <time>2023-04-30T14:17:26Z</time>
      </trkpt>
      <trkpt lat="48.1327" lon="6.38066">
        <ele>442.1</ele>
        <time>2023-04-30T14:17:27Z</time>
      </trkpt>
      <trkpt lat="48.13264" lon="6.38056">
        <ele>442.4</ele>
        <time>2023-04-30T14:17:28Z</time>
      </trkpt>
      <trkpt lat="48.13259" lon="6.38047">
        <ele>442.8</ele>
        <time>2023-04-30T14:17:29Z</time>
      </trkpt>
      <trkpt lat="48.13255" lon="6.38038">
        <ele>443.2</ele>
        <time>2023-04-30T14:17:30Z</time>
      </trkpt>
      <trkpt lat="48.1325" lon="6.38029">
        <ele>443.6</ele>
        <time>2023-04-30T14:17:31Z</time>
      </trkpt>
      <trkpt lat="48.13246" lon="6.38021">
        <ele>444</ele>
        <time>2023-04-30T14:17:32Z</time>
      </trkpt>
      <trkpt lat="48.13242" lon="6.38014">
        <ele>444.4</ele>
        <time>2023-04-30T14:17:33Z</time>
      </trkpt>
      <trkpt lat="48.13238" lon="6.38006">
        <ele>444.7</ele>
        <time>2023-04-30T14:17:34Z</time>
      </trkpt>
      <trkpt lat="48.13234" lon="6.37998">
        <ele>445.1</ele>
        <time>2023-04-30T14:17:35Z</time>
      </trkpt>
      <trkpt lat="48.1323" lon="6.37991">
        <ele>445.5</ele>
        <time>2023-04-30T14:17:36Z</time>
      </trkpt>
      <trkpt lat="48.13226" lon="6.37984">
        <ele>445.8</ele>
        <time>2023-04-30T14:17:37Z</time>
      </trkpt>
      <trkpt lat="48.13222" lon="6.37978">
        <ele>446.1</ele>
        <time>2023-04-30T14:17:38Z</time>
      </trkpt>
      <trkpt lat="48.13218" lon="6.37971">
        <ele>446.4</ele>
        <time>2023-04-30T14:17:39Z</time>
      </trkpt>
      <trkpt lat="48.13214" lon="6.37964">
        <ele>446.7</ele>
        <time>2023-04-30T14:17:40Z</time>
      </trkpt>
      <trkpt lat="48.1321" lon="6.37957">
        <ele>446.9</ele>
        <time>2023-04-30T14:17:41Z</time>
      </trkpt>
      <trkpt lat="48.13206" lon="6.37951">
        <ele>447.2</ele>
        <time>2023-04-30T14:17:42Z</time>
      </trkpt>
      <trkpt lat="48.13202" lon="6.37944">
        <ele>447.4</ele>
        <time>2023-04-30T14:17:43Z</time>
      </trkpt>
      <trkpt lat="48.13198" lon="6.37938">
        <ele>447.5</ele>
        <time>2023-04-30T14:17:44Z</time>
      </trkpt>
      <trkpt lat="48.13195" lon="6.37931">
        <ele>447.7</ele>
        <time>2023-04-30T14:17:45Z</time>
      </trkpt>
      <trkpt lat="48.13191" lon="6.37924">
        <ele>447.8</ele>
        <time>2023-04-30T14:17:46Z</time>
      </trkpt>
      <trkpt lat="48.13187" lon="6.37918">
        <ele>447.9</ele>
        <time>2023-04-30T14:17:47Z</time>
      </trkpt>
      <trkpt lat="48.13183" lon="6.37911">
        <ele>448</ele>
        <time>2023-04-30T14:17:48Z</time>
      </trkpt>
      <trkpt lat="48.13179" lon="6.37904">
        <ele>448</ele>
        <time>2023-04-30T14:17:49Z</time>
      </trkpt>
      <trkpt lat="48.13174" lon="6.37897">
        <ele>448</ele>
        <time>2023-04-30T14:17:50Z</time>
      </trkpt>
      <trkpt lat="48.1317" lon="6.37889">
        <ele>448</ele>
        <time>2023-04-30T14:17:51Z</time>
      </trkpt>
      <trkpt lat="48.13166" lon="6.37882">
        <ele>448</ele>
        <time>2023-04-30T14:17:52Z</time>
      </trkpt>
      <trkpt lat="48.13162" lon="6.37874">
        <ele>448</ele>
        <time>2023-04-30T14:17:53Z</time>
      </trkpt>
      <trkpt lat="48.13159" lon="6.37867">
        <ele>448</ele>
        <time>2023-04-30T14:17:54Z</time>
      </trkpt>
      <trkpt lat="48.13155" lon="6.37859">
        <ele>447.9</ele>
        <time>2023-04-30T14:17:55Z</time>
      </trkpt>
      <trkpt lat="48.13151" lon="6.37852">
        <ele>447.8</ele>
        <time>2023-04-30T14:17:56Z</time>
      </trkpt>
      <trkpt lat="48.13148" lon="6.37844">
        <ele>447.6</ele>
        <time>2023-04-30T14:17:57Z</time>
      </trkpt>
      <trkpt lat="48.13144" lon="6.37836">
        <ele>447.4</ele>
        <time>2023-04-30T14:17:58Z</time>
      </trkpt>
      <trkpt lat="48.13141" lon="6.37827">
        <ele>447.2</ele>
        <time>2023-04-30T14:17:59Z</time>
      </trkpt>
      <trkpt lat="48.13137" lon="6.37818">
        <ele>446.9</ele>
        <time>2023-04-30T14:18:00Z</time>
      </trkpt>
      <trkpt lat="48.13133" lon="6.37809">
        <ele>446.6</ele>
        <time>2023-04-30T14:18:01Z</time>
      </trkpt>
      <trkpt lat="48.13128" lon="6.378">
        <ele>446.2</ele>
        <time>2023-04-30T14:18:02Z</time>
      </trkpt>
      <trkpt lat="48.13124" lon="6.3779">
        <ele>445.8</ele>
        <time>2023-04-30T14:18:03Z</time>
      </trkpt>
      <trkpt lat="48.13119" lon="6.3778">
        <ele>445.3</ele>
        <time>2023-04-30T14:18:04Z</time>
      </trkpt>
      <trkpt lat="48.13115" lon="6.3777">
        <ele>444.9</ele>
        <time>2023-04-30T14:18:05Z</time>
      </trkpt>
      <trkpt lat="48.1311" lon="6.37758">
        <ele>444.4</ele>
        <time>2023-04-30T14:18:06Z</time>
      </trkpt>
      <trkpt lat="48.13105" lon="6.37747">
        <ele>443.8</ele>
        <time>2023-04-30T14:18:07Z</time>
      </trkpt>
      <trkpt lat="48.13101" lon="6.37735">
        <ele>443.2</ele>
        <time>2023-04-30T14:18:08Z</time>
      </trkpt>
      <trkpt lat="48.13096" lon="6.37723">
        <ele>442.6</ele>
        <time>2023-04-30T14:18:09Z</time>
      </trkpt>
      <trkpt lat="48.13091" lon="6.37712">
        <ele>442.2</ele>
        <time>2023-04-30T14:18:10Z</time>
      </trkpt>
      <trkpt lat="48.13086" lon="6.377">
        <ele>441.7</ele>
        <time>2023-04-30T14:18:11Z</time>
      </trkpt>
      <trkpt lat="48.13081" lon="6.37688">
        <ele>441.3</ele>
        <time>2023-04-30T14:18:12Z</time>
      </trkpt>
      <trkpt lat="48.13075" lon="6.37677">
        <ele>440.9</ele>
        <time>2023-04-30T14:18:13Z</time>
      </trkpt>
      <trkpt lat="48.13071" lon="6.37664">
        <ele>440.5</ele>
        <time>2023-04-30T14:18:14Z</time>
      </trkpt>
      <trkpt lat="48.13066" lon="6.37652">
        <ele>440.1</ele>
        <time>2023-04-30T14:18:15Z</time>
      </trkpt>
      <trkpt lat="48.13061" lon="6.3764">
        <ele>439.7</ele>
        <time>2023-04-30T14:18:16Z</time>
      </trkpt>
      <trkpt lat="48.13056" lon="6.37629">
        <ele>439.4</ele>
        <time>2023-04-30T14:18:17Z</time>
      </trkpt>
      <trkpt lat="48.13051" lon="6.37618">
        <ele>439.2</ele>
        <time>2023-04-30T14:18:18Z</time>
      </trkpt>
      <trkpt lat="48.13046" lon="6.37606">
        <ele>439.1</ele>
        <time>2023-04-30T14:18:19Z</time>
      </trkpt>
      <trkpt lat="48.13042" lon="6.37596">
        <ele>439</ele>
        <time>2023-04-30T14:18:20Z</time>
      </trkpt>
      <trkpt lat="48.13037" lon="6.37584">
        <ele>438.9</ele>
        <time>2023-04-30T14:18:21Z</time>
      </trkpt>
      <trkpt lat="48.13033" lon="6.37573">
        <ele>438.7</ele>
        <time>2023-04-30T14:18:22Z</time>
      </trkpt>
      <trkpt lat="48.13028" lon="6.37563">
        <ele>438.6</ele>
        <time>2023-04-30T14:18:23Z</time>
      </trkpt>
      <trkpt lat="48.13024" lon="6.37553">
        <ele>438.6</ele>
        <time>2023-04-30T14:18:24Z</time>
      </trkpt>
      <trkpt lat="48.1302" lon="6.37542">
        <ele>438.5</ele>
        <time>2023-04-30T14:18:25Z</time>
      </trkpt>
      <trkpt lat="48.13015" lon="6.37532">
        <ele>438.5</ele>
        <time>2023-04-30T14:18:26Z</time>
      </trkpt>
      <trkpt lat="48.13011" lon="6.37523">
        <ele>438.5</ele>
        <time>2023-04-30T14:18:27Z</time>
      </trkpt>
      <trkpt lat="48.13007" lon="6.37513">
        <ele>438.4</ele>
        <time>2023-04-30T14:18:28Z</time>
      </trkpt>
      <trkpt lat="48.13003" lon="6.37503">
        <ele>438.4</ele>
        <time>2023-04-30T14:18:29Z</time>
      </trkpt>
      <trkpt lat="48.12999" lon="6.37493">
        <ele>438.4</ele>
        <time>2023-04-30T14:18:30Z</time>
      </trkpt>
      <trkpt lat="48.12995" lon="6.37483">
        <ele>438.4</ele>
        <time>2023-04-30T14:18:31Z</time>
      </trkpt>
      <trkpt lat="48.12991" lon="6.37473">
        <ele>438.4</ele>
        <time>2023-04-30T14:18:32Z</time>
      </trkpt>
      <trkpt lat="48.12986" lon="6.37464">
        <ele>438.4</ele>
        <time>2023-04-30T14:18:33Z</time>
      </trkpt>
      <trkpt lat="48.12982" lon="6.37454">
        <ele>438.3</ele>
        <time>2023-04-30T14:18:34Z</time>
      </trkpt>
      <trkpt lat="48.12979" lon="6.37445">
        <ele>438.3</ele>
        <time>2023-04-30T14:18:35Z</time>
      </trkpt>
      <trkpt lat="48.12975" lon="6.37435">
        <ele>438.3</ele>
        <time>2023-04-30T14:18:36Z</time>
      </trkpt>
      <trkpt lat="48.12971" lon="6.37426">
        <ele>438.3</ele>
        <time>2023-04-30T14:18:37Z</time>
      </trkpt>
      <trkpt lat="48.12967" lon="6.37416">
        <ele>438.2</ele>
        <time>2023-04-30T14:18:38Z</time>
      </trkpt>
      <trkpt lat="48.12963" lon="6.37407">
        <ele>438.1</ele>
        <time>2023-04-30T14:18:39Z</time>
      </trkpt>
      <trkpt lat="48.1296" lon="6.37398">
        <ele>437.9</ele>
        <time>2023-04-30T14:18:40Z</time>
      </trkpt>
      <trkpt lat="48.12956" lon="6.37388">
        <ele>437.7</ele>
        <time>2023-04-30T14:18:41Z</time>
      </trkpt>
      <trkpt lat="48.12952" lon="6.37379">
        <ele>437.4</ele>
        <time>2023-04-30T14:18:42Z</time>
      </trkpt>
      <trkpt lat="48.12947" lon="6.37369">
        <ele>437</ele>
        <time>2023-04-30T14:18:43Z</time>
      </trkpt>
      <trkpt lat="48.12943" lon="6.37359">
        <ele>436.6</ele>
        <time>2023-04-30T14:18:44Z</time>
      </trkpt>
      <trkpt lat="48.12939" lon="6.37348">
        <ele>436.2</ele>
        <time>2023-04-30T14:18:45Z</time>
      </trkpt>
      <trkpt lat="48.12934" lon="6.37337">
        <ele>435.6</ele>
        <time>2023-04-30T14:18:46Z</time>
      </trkpt>
      <trkpt lat="48.12929" lon="6.37326">
        <ele>435.1</ele>
        <time>2023-04-30T14:18:47Z</time>
      </trkpt>
      <trkpt lat="48.12924" lon="6.37314">
        <ele>434.5</ele>
        <time>2023-04-30T14:18:48Z</time>
      </trkpt>
      <trkpt lat="48.12919" lon="6.37301">
        <ele>433.9</ele>
        <time>2023-04-30T14:18:49Z</time>
      </trkpt>
      <trkpt lat="48.12913" lon="6.37289">
        <ele>433.3</ele>
        <time>2023-04-30T14:18:50Z</time>
      </trkpt>
      <trkpt lat="48.12908" lon="6.37276">
        <ele>432.7</ele>
        <time>2023-04-30T14:18:51Z</time>
      </trkpt>
      <trkpt lat="48.12902" lon="6.37264">
        <ele>432.2</ele>
        <time>2023-04-30T14:18:52Z</time>
      </trkpt>
      <trkpt lat="48.12896" lon="6.37253">
        <ele>431.7</ele>
        <time>2023-04-30T14:18:53Z</time>
      </trkpt>
      <trkpt lat="48.1289" lon="6.37242">
        <ele>431.4</ele>
        <time>2023-04-30T14:18:54Z</time>
      </trkpt>
      <trkpt lat="48.12883" lon="6.37231">
        <ele>431</ele>
        <time>2023-04-30T14:18:55Z</time>
      </trkpt>
      <trkpt lat="48.12876" lon="6.37221">
        <ele>430.8</ele>
        <time>2023-04-30T14:18:56Z</time>
      </trkpt>
      <trkpt lat="48.12869" lon="6.37212">
        <ele>430.5</ele>
        <time>2023-04-30T14:18:57Z</time>
      </trkpt>
      <trkpt lat="48.12862" lon="6.37203">
        <ele>430.3</ele>
        <time>2023-04-30T14:18:58Z</time>
      </trkpt>
      <trkpt lat="48.12856" lon="6.37194">
        <ele>430</ele>
        <time>2023-04-30T14:18:59Z</time>
      </trkpt>
      <trkpt lat="48.12849" lon="6.37185">
        <ele>429.8</ele>
        <time>2023-04-30T14:19:00Z</time>
      </trkpt>
      <trkpt lat="48.12842" lon="6.37176">
        <ele>429.6</ele>
        <time>2023-04-30T14:19:01Z</time>
      </trkpt>
      <trkpt lat="48.12836" lon="6.37167">
        <ele>429.3</ele>
        <time>2023-04-30T14:19:02Z</time>
      </trkpt>
      <trkpt lat="48.12829" lon="6.37158">
        <ele>429</ele>
        <time>2023-04-30T14:19:03Z</time>
      </trkpt>
      <trkpt lat="48.12823" lon="6.37149">
        <ele>428.8</ele>
        <time>2023-04-30T14:19:04Z</time>
      </trkpt>
      <trkpt lat="48.12817" lon="6.3714">
        <ele>428.5</ele>
        <time>2023-04-30T14:19:05Z</time>
      </trkpt>
      <trkpt lat="48.1281" lon="6.37131">
        <ele>428.3</ele>
        <time>2023-04-30T14:19:06Z</time>
      </trkpt>
      <trkpt lat="48.12804" lon="6.37122">
        <ele>428.1</ele>
        <time>2023-04-30T14:19:07Z</time>
      </trkpt>
      <trkpt lat="48.12797" lon="6.37114">
        <ele>427.9</ele>
        <time>2023-04-30T14:19:08Z</time>
      </trkpt>
      <trkpt lat="48.12791" lon="6.37105">
        <ele>427.7</ele>
        <time>2023-04-30T14:19:09Z</time>
      </trkpt>
      <trkpt lat="48.12785" lon="6.37096">
        <ele>427.5</ele>
        <time>2023-04-30T14:19:10Z</time>
      </trkpt>
      <trkpt lat="48.12778" lon="6.37088">
        <ele>427.3</ele>
        <time>2023-04-30T14:19:11Z</time>
      </trkpt>
      <trkpt lat="48.12772" lon="6.37079">
        <ele>427.1</ele>
        <time>2023-04-30T14:19:12Z</time>
      </trkpt>
      <trkpt lat="48.12765" lon="6.37069">
        <ele>426.8</ele>
        <time>2023-04-30T14:19:13Z</time>
      </trkpt>
      <trkpt lat="48.12759" lon="6.3706">
        <ele>426.5</ele>
        <time>2023-04-30T14:19:14Z</time>
      </trkpt>
      <trkpt lat="48.12752" lon="6.37051">
        <ele>426.2</ele>
        <time>2023-04-30T14:19:15Z</time>
      </trkpt>
      <trkpt lat="48.12746" lon="6.37043">
        <ele>425.9</ele>
        <time>2023-04-30T14:19:16Z</time>
      </trkpt>
      <trkpt lat="48.12739" lon="6.37033">
        <ele>425.6</ele>
        <time>2023-04-30T14:19:17Z</time>
      </trkpt>
      <trkpt lat="48.12732" lon="6.37025">
        <ele>425.3</ele>
        <time>2023-04-30T14:19:18Z</time>
      </trkpt>
      <trkpt lat="48.12725" lon="6.37015">
        <ele>424.9</ele>
        <time>2023-04-30T14:19:19Z</time>
      </trkpt>
      <trkpt lat="48.12719" lon="6.37006">
        <ele>424.6</ele>
        <time>2023-04-30T14:19:20Z</time>
      </trkpt>
      <trkpt lat="48.12712" lon="6.36996">
        <ele>424.1</ele>
        <time>2023-04-30T14:19:21Z</time>
      </trkpt>
      <trkpt lat="48.12705" lon="6.36986">
        <ele>423.6</ele>
        <time>2023-04-30T14:19:22Z</time>
      </trkpt>
      <trkpt lat="48.12698" lon="6.36976">
        <ele>423.1</ele>
        <time>2023-04-30T14:19:23Z</time>
      </trkpt>
      <trkpt lat="48.12691" lon="6.36966">
        <ele>422.6</ele>
        <time>2023-04-30T14:19:24Z</time>
      </trkpt>
      <trkpt lat="48.12684" lon="6.36956">
        <ele>422.1</ele>
        <time>2023-04-30T14:19:25Z</time>
      </trkpt>
      <trkpt lat="48.12676" lon="6.36946">
        <ele>421.6</ele>
        <time>2023-04-30T14:19:26Z</time>
      </trkpt>
      <trkpt lat="48.12669" lon="6.36935">
        <ele>421.2</ele>
        <time>2023-04-30T14:19:27Z</time>
      </trkpt>
      <trkpt lat="48.12662" lon="6.36925">
        <ele>420.9</ele>
        <time>2023-04-30T14:19:28Z</time>
      </trkpt>
      <trkpt lat="48.12655" lon="6.36915">
        <ele>420.8</ele>
        <time>2023-04-30T14:19:29Z</time>
      </trkpt>
      <trkpt lat="48.12648" lon="6.36905">
        <ele>420.7</ele>
        <time>2023-04-30T14:19:30Z</time>
      </trkpt>
      <trkpt lat="48.12641" lon="6.36894">
        <ele>420.7</ele>
        <time>2023-04-30T14:19:31Z</time>
      </trkpt>
      <trkpt lat="48.12635" lon="6.36883">
        <ele>420.5</ele>
        <time>2023-04-30T14:19:32Z</time>
      </trkpt>
      <trkpt lat="48.12629" lon="6.36872">
        <ele>420.3</ele>
        <time>2023-04-30T14:19:33Z</time>
      </trkpt>
      <trkpt lat="48.12624" lon="6.3686">
        <ele>420.1</ele>
        <time>2023-04-30T14:19:34Z</time>
      </trkpt>
      <trkpt lat="48.12619" lon="6.36848">
        <ele>420</ele>
        <time>2023-04-30T14:19:35Z</time>
      </trkpt>
      <trkpt lat="48.12615" lon="6.36836">
        <ele>419.9</ele>
        <time>2023-04-30T14:19:36Z</time>
      </trkpt>
      <trkpt lat="48.12611" lon="6.36823">
        <ele>419.9</ele>
        <time>2023-04-30T14:19:37Z</time>
      </trkpt>
      <trkpt lat="48.12608" lon="6.36811">
        <ele>420</ele>
        <time>2023-04-30T14:19:38Z</time>
      </trkpt>
      <trkpt lat="48.12606" lon="6.36799">
        <ele>420.1</ele>
        <time>2023-04-30T14:19:39Z</time>
      </trkpt>
      <trkpt lat="48.12603" lon="6.36788">
        <ele>420.2</ele>
        <time>2023-04-30T14:19:40Z</time>
      </trkpt>
      <trkpt lat="48.12602" lon="6.36777">
        <ele>420.4</ele>
        <time>2023-04-30T14:19:41Z</time>
      </trkpt>
      <trkpt lat="48.12601" lon="6.36767">
        <ele>420.5</ele>
        <time>2023-04-30T14:19:42Z</time>
      </trkpt>
      <trkpt lat="48.126" lon="6.36756">
        <ele>420.7</ele>
        <time>2023-04-30T14:19:43Z</time>
      </trkpt>
      <trkpt lat="48.12599" lon="6.36745">
        <ele>421</ele>
        <time>2023-04-30T14:19:44Z</time>
      </trkpt>
      <trkpt lat="48.12599" lon="6.36734">
        <ele>421.2</ele>
        <time>2023-04-30T14:19:45Z</time>
      </trkpt>
      <trkpt lat="48.12599" lon="6.36724">
        <ele>421.4</ele>
        <time>2023-04-30T14:19:46Z</time>
      </trkpt>
      <trkpt lat="48.12599" lon="6.36714">
        <ele>421.6</ele>
        <time>2023-04-30T14:19:47Z</time>
      </trkpt>
      <trkpt lat="48.126" lon="6.36703">
        <ele>421.9</ele>
        <time>2023-04-30T14:19:48Z</time>
      </trkpt>
      <trkpt lat="48.126" lon="6.36693">
        <ele>422.1</ele>
        <time>2023-04-30T14:19:49Z</time>
      </trkpt>
      <trkpt lat="48.126" lon="6.36684">
        <ele>422.4</ele>
        <time>2023-04-30T14:19:50Z</time>
      </trkpt>
      <trkpt lat="48.12601" lon="6.36674">
        <ele>422.6</ele>
        <time>2023-04-30T14:19:51Z</time>
      </trkpt>
      <trkpt lat="48.12601" lon="6.36665">
        <ele>422.8</ele>
        <time>2023-04-30T14:19:52Z</time>
      </trkpt>
      <trkpt lat="48.12601" lon="6.36655">
        <ele>423.1</ele>
        <time>2023-04-30T14:19:53Z</time>
      </trkpt>
      <trkpt lat="48.12602" lon="6.36646">
        <ele>423.3</ele>
        <time>2023-04-30T14:19:54Z</time>
      </trkpt>
      <trkpt lat="48.12602" lon="6.36636">
        <ele>423.6</ele>
        <time>2023-04-30T14:19:55Z</time>
      </trkpt>
      <trkpt lat="48.12602" lon="6.36627">
        <ele>423.8</ele>
        <time>2023-04-30T14:19:56Z</time>
      </trkpt>
      <trkpt lat="48.12603" lon="6.36618">
        <ele>424</ele>
        <time>2023-04-30T14:19:57Z</time>
      </trkpt>
      <trkpt lat="48.12603" lon="6.36609">
        <ele>424.2</ele>
        <time>2023-04-30T14:19:58Z</time>
      </trkpt>
      <trkpt lat="48.12604" lon="6.366">
        <ele>424.4</ele>
        <time>2023-04-30T14:19:59Z</time>
      </trkpt>
      <trkpt lat="48.12604" lon="6.36591">
        <ele>424.7</ele>
        <time>2023-04-30T14:20:00Z</time>
      </trkpt>
      <trkpt lat="48.12604" lon="6.36582">
        <ele>424.9</ele>
        <time>2023-04-30T14:20:01Z</time>
      </trkpt>
      <trkpt lat="48.12604" lon="6.36574">
        <ele>425.1</ele>
        <time>2023-04-30T14:20:02Z</time>
      </trkpt>
      <trkpt lat="48.12604" lon="6.36565">
        <ele>425.3</ele>
        <time>2023-04-30T14:20:03Z</time>
      </trkpt>
      <trkpt lat="48.12604" lon="6.36556">
        <ele>425.5</ele>
        <time>2023-04-30T14:20:04Z</time>
      </trkpt>
      <trkpt lat="48.12604" lon="6.36547">
        <ele>425.7</ele>
        <time>2023-04-30T14:20:05Z</time>
      </trkpt>
      <trkpt lat="48.12604" lon="6.36539">
        <ele>425.9</ele>
        <time>2023-04-30T14:20:06Z</time>
      </trkpt>
      <trkpt lat="48.12603" lon="6.3653">
        <ele>426.1</ele>
        <time>2023-04-30T14:20:07Z</time>
      </trkpt>
      <trkpt lat="48.12603" lon="6.36521">
        <ele>426.3</ele>
        <time>2023-04-30T14:20:08Z</time>
      </trkpt>
      <trkpt lat="48.12602" lon="6.36513">
        <ele>426.5</ele>
        <time>2023-04-30T14:20:09Z</time>
      </trkpt>
      <trkpt lat="48.12601" lon="6.36506">
        <ele>426.7</ele>
        <time>2023-04-30T14:20:10Z</time>
      </trkpt>
      <trkpt lat="48.126" lon="6.36497">
        <ele>426.9</ele>
        <time>2023-04-30T14:20:11Z</time>
      </trkpt>
      <trkpt lat="48.12598" lon="6.3649">
        <ele>427.1</ele>
        <time>2023-04-30T14:20:12Z</time>
      </trkpt>
      <trkpt lat="48.12597" lon="6.36482">
        <ele>427.3</ele>
        <time>2023-04-30T14:20:13Z</time>
      </trkpt>
      <trkpt lat="48.12595" lon="6.36474">
        <ele>427.5</ele>
        <time>2023-04-30T14:20:14Z</time>
      </trkpt>
      <trkpt lat="48.12593" lon="6.36466">
        <ele>427.7</ele>
        <time>2023-04-30T14:20:15Z</time>
      </trkpt>
      <trkpt lat="48.12591" lon="6.36457">
        <ele>427.9</ele>
        <time>2023-04-30T14:20:16Z</time>
      </trkpt>
      <trkpt lat="48.12589" lon="6.3645">
        <ele>428</ele>
        <time>2023-04-30T14:20:17Z</time>
      </trkpt>
      <trkpt lat="48.12586" lon="6.36444">
        <ele>428.2</ele>
        <time>2023-04-30T14:20:18Z</time>
      </trkpt>
      <trkpt lat="48.12584" lon="6.36437">
        <ele>428.4</ele>
        <time>2023-04-30T14:20:19Z</time>
      </trkpt>
      <trkpt lat="48.12581" lon="6.3643">
        <ele>428.5</ele>
        <time>2023-04-30T14:20:20Z</time>
      </trkpt>
      <trkpt lat="48.12578" lon="6.36423">
        <ele>428.7</ele>
        <time>2023-04-30T14:20:21Z</time>
      </trkpt>
      <trkpt lat="48.12574" lon="6.36417">
        <ele>428.9</ele>
        <time>2023-04-30T14:20:22Z</time>
      </trkpt>
      <trkpt lat="48.12571" lon="6.3641">
        <ele>429</ele>
        <time>2023-04-30T14:20:23Z</time>
      </trkpt>
      <trkpt lat="48.12568" lon="6.36403">
        <ele>429.2</ele>
        <time>2023-04-30T14:20:24Z</time>
      </trkpt>
      <trkpt lat="48.12564" lon="6.36397">
        <ele>429.3</ele>
        <time>2023-04-30T14:20:25Z</time>
      </trkpt>
      <trkpt lat="48.1256" lon="6.36391">
        <ele>429.5</ele>
        <time>2023-04-30T14:20:26Z</time>
      </trkpt>
      <trkpt lat="48.12556" lon="6.36383">
        <ele>429.6</ele>
        <time>2023-04-30T14:20:27Z</time>
      </trkpt>
      <trkpt lat="48.12552" lon="6.36376">
        <ele>429.7</ele>
        <time>2023-04-30T14:20:28Z</time>
      </trkpt>
      <trkpt lat="48.12548" lon="6.3637">
        <ele>429.8</ele>
        <time>2023-04-30T14:20:29Z</time>
      </trkpt>
      <trkpt lat="48.12544" lon="6.36364">
        <ele>429.9</ele>
        <time>2023-04-30T14:20:30Z</time>
      </trkpt>
      <trkpt lat="48.12539" lon="6.36358">
        <ele>430</ele>
        <time>2023-04-30T14:20:31Z</time>
      </trkpt>
      <trkpt lat="48.12534" lon="6.36353">
        <ele>430</ele>
        <time>2023-04-30T14:20:32Z</time>
      </trkpt>
      <trkpt lat="48.1253" lon="6.36349">
        <ele>430.1</ele>
        <time>2023-04-30T14:20:33Z</time>
      </trkpt>
      <trkpt lat="48.12525" lon="6.36345">
        <ele>430.1</ele>
        <time>2023-04-30T14:20:34Z</time>
      </trkpt>
      <trkpt lat="48.12521" lon="6.3634">
        <ele>430.2</ele>
        <time>2023-04-30T14:20:35Z</time>
      </trkpt>
      <trkpt lat="48.12516" lon="6.36336">
        <ele>430.2</ele>
        <time>2023-04-30T14:20:36Z</time>
      </trkpt>
      <trkpt lat="48.12511" lon="6.36332">
        <ele>430.2</ele>
        <time>2023-04-30T14:20:37Z</time>
      </trkpt>
      <trkpt lat="48.12506" lon="6.36327">
        <ele>430.2</ele>
        <time>2023-04-30T14:20:38Z</time>
      </trkpt>
      <trkpt lat="48.12501" lon="6.36323">
        <ele>430.2</ele>
        <time>2023-04-30T14:20:39Z</time>
      </trkpt>
      <trkpt lat="48.12496" lon="6.36319">
        <ele>430.1</ele>
        <time>2023-04-30T14:20:40Z</time>
      </trkpt>
      <trkpt lat="48.12491" lon="6.36314">
        <ele>430.1</ele>
        <time>2023-04-30T14:20:41Z</time>
      </trkpt>
      <trkpt lat="48.12485" lon="6.3631">
        <ele>430</ele>
        <time>2023-04-30T14:20:42Z</time>
      </trkpt>
      <trkpt lat="48.1248" lon="6.36305">
        <ele>430</ele>
        <time>2023-04-30T14:20:43Z</time>
      </trkpt>
      <trkpt lat="48.12475" lon="6.36301">
        <ele>429.9</ele>
        <time>2023-04-30T14:20:44Z</time>
      </trkpt>
      <trkpt lat="48.12469" lon="6.36297">
        <ele>429.9</ele>
        <time>2023-04-30T14:20:45Z</time>
      </trkpt>
      <trkpt lat="48.12463" lon="6.36293">
        <ele>429.8</ele>
        <time>2023-04-30T14:20:46Z</time>
      </trkpt>
      <trkpt lat="48.12458" lon="6.36289">
        <ele>429.7</ele>
        <time>2023-04-30T14:20:47Z</time>
      </trkpt>
      <trkpt lat="48.12452" lon="6.36284">
        <ele>429.6</ele>
        <time>2023-04-30T14:20:48Z</time>
      </trkpt>
      <trkpt lat="48.12446" lon="6.3628">
        <ele>429.5</ele>
        <time>2023-04-30T14:20:49Z</time>
      </trkpt>
      <trkpt lat="48.12441" lon="6.36276">
        <ele>429.3</ele>
        <time>2023-04-30T14:20:50Z</time>
      </trkpt>
      <trkpt lat="48.12436" lon="6.36271">
        <ele>429.2</ele>
        <time>2023-04-30T14:20:51Z</time>
      </trkpt>
      <trkpt lat="48.1243" lon="6.36268">
        <ele>429</ele>
        <time>2023-04-30T14:20:52Z</time>
      </trkpt>
      <trkpt lat="48.12425" lon="6.36264">
        <ele>428.9</ele>
        <time>2023-04-30T14:20:53Z</time>
      </trkpt>
      <trkpt lat="48.12419" lon="6.36259">
        <ele>428.7</ele>
        <time>2023-04-30T14:20:54Z</time>
      </trkpt>
      <trkpt lat="48.12413" lon="6.36255">
        <ele>428.5</ele>
        <time>2023-04-30T14:20:55Z</time>
      </trkpt>
      <trkpt lat="48.12407" lon="6.3625">
        <ele>428.2</ele>
        <time>2023-04-30T14:20:56Z</time>
      </trkpt>
      <trkpt lat="48.124" lon="6.36245">
        <ele>427.9</ele>
        <time>2023-04-30T14:20:57Z</time>
      </trkpt>
      <trkpt lat="48.12394" lon="6.3624">
        <ele>427.5</ele>
        <time>2023-04-30T14:20:58Z</time>
      </trkpt>
      <trkpt lat="48.12387" lon="6.36234">
        <ele>427.2</ele>
        <time>2023-04-30T14:20:59Z</time>
      </trkpt>
      <trkpt lat="48.12381" lon="6.36229">
        <ele>427</ele>
        <time>2023-04-30T14:21:00Z</time>
      </trkpt>
      <trkpt lat="48.12374" lon="6.36223">
        <ele>426.7</ele>
        <time>2023-04-30T14:21:01Z</time>
      </trkpt>
      <trkpt lat="48.12368" lon="6.36218">
        <ele>426.4</ele>
        <time>2023-04-30T14:21:02Z</time>
      </trkpt>
      <trkpt lat="48.12361" lon="6.36213">
        <ele>426.2</ele>
        <time>2023-04-30T14:21:03Z</time>
      </trkpt>
      <trkpt lat="48.12354" lon="6.36208">
        <ele>425.9</ele>
        <time>2023-04-30T14:21:04Z</time>
      </trkpt>
      <trkpt lat="48.12348" lon="6.36202">
        <ele>425.6</ele>
        <time>2023-04-30T14:21:05Z</time>
      </trkpt>
      <trkpt lat="48.12341" lon="6.36197">
        <ele>425.4</ele>
        <time>2023-04-30T14:21:06Z</time>
      </trkpt>
      <trkpt lat="48.12334" lon="6.36192">
        <ele>425.2</ele>
        <time>2023-04-30T14:21:07Z</time>
      </trkpt>
      <trkpt lat="48.12327" lon="6.36187">
        <ele>425.2</ele>
        <time>2023-04-30T14:21:08Z</time>
      </trkpt>
      <trkpt lat="48.1232" lon="6.36185">
        <ele>425.1</ele>
        <time>2023-04-30T14:21:09Z</time>
      </trkpt>
      <trkpt lat="48.12312" lon="6.36184">
        <ele>425</ele>
        <time>2023-04-30T14:21:10Z</time>
      </trkpt>
      <trkpt lat="48.12305" lon="6.36185">
        <ele>425</ele>
        <time>2023-04-30T14:21:11Z</time>
      </trkpt>
      <trkpt lat="48.12298" lon="6.36188">
        <ele>425</ele>
        <time>2023-04-30T14:21:12Z</time>
      </trkpt>
      <trkpt lat="48.12292" lon="6.36192">
        <ele>425.1</ele>
        <time>2023-04-30T14:21:13Z</time>
      </trkpt>
      <trkpt lat="48.12286" lon="6.36197">
        <ele>425.1</ele>
        <time>2023-04-30T14:21:14Z</time>
      </trkpt>
      <trkpt lat="48.1228" lon="6.36201">
        <ele>425.1</ele>
        <time>2023-04-30T14:21:15Z</time>
      </trkpt>
      <trkpt lat="48.12274" lon="6.36206">
        <ele>425.2</ele>
        <time>2023-04-30T14:21:16Z</time>
      </trkpt>
      <trkpt lat="48.12268" lon="6.3621">
        <ele>425.2</ele>
        <time>2023-04-30T14:21:17Z</time>
      </trkpt>
      <trkpt lat="48.12262" lon="6.36215">
        <ele>425.2</ele>
        <time>2023-04-30T14:21:18Z</time>
      </trkpt>
      <trkpt lat="48.12257" lon="6.36219">
        <ele>425.2</ele>
        <time>2023-04-30T14:21:19Z</time>
      </trkpt>
      <trkpt lat="48.12252" lon="6.36224">
        <ele>425.2</ele>
        <time>2023-04-30T14:21:20Z</time>
      </trkpt>
      <trkpt lat="48.12246" lon="6.36228">
        <ele>425.3</ele>
        <time>2023-04-30T14:21:21Z</time>
      </trkpt>
      <trkpt lat="48.12241" lon="6.36233">
        <ele>425.4</ele>
        <time>2023-04-30T14:21:22Z</time>
      </trkpt>
      <trkpt lat="48.12236" lon="6.36237">
        <ele>425.4</ele>
        <time>2023-04-30T14:21:23Z</time>
      </trkpt>
      <trkpt lat="48.1223" lon="6.36241">
        <ele>425.5</ele>
        <time>2023-04-30T14:21:24Z</time>
      </trkpt>
      <trkpt lat="48.12225" lon="6.36246">
        <ele>425.6</ele>
        <time>2023-04-30T14:21:25Z</time>
      </trkpt>
      <trkpt lat="48.1222" lon="6.3625">
        <ele>425.7</ele>
        <time>2023-04-30T14:21:26Z</time>
      </trkpt>
      <trkpt lat="48.12215" lon="6.36254">
        <ele>425.8</ele>
        <time>2023-04-30T14:21:27Z</time>
      </trkpt>
      <trkpt lat="48.1221" lon="6.36258">
        <ele>425.9</ele>
        <time>2023-04-30T14:21:28Z</time>
      </trkpt>
      <trkpt lat="48.12205" lon="6.36262">
        <ele>426.1</ele>
        <time>2023-04-30T14:21:29Z</time>
      </trkpt>
      <trkpt lat="48.122" lon="6.36266">
        <ele>426.2</ele>
        <time>2023-04-30T14:21:30Z</time>
      </trkpt>
      <trkpt lat="48.12195" lon="6.3627">
        <ele>426.3</ele>
        <time>2023-04-30T14:21:31Z</time>
      </trkpt>
      <trkpt lat="48.12191" lon="6.36275">
        <ele>426.4</ele>
        <time>2023-04-30T14:21:32Z</time>
      </trkpt>
      <trkpt lat="48.12186" lon="6.36279">
        <ele>426.5</ele>
        <time>2023-04-30T14:21:33Z</time>
      </trkpt>
      <trkpt lat="48.12182" lon="6.36284">
        <ele>426.6</ele>
        <time>2023-04-30T14:21:34Z</time>
      </trkpt>
      <trkpt lat="48.12177" lon="6.36288">
        <ele>426.7</ele>
        <time>2023-04-30T14:21:35Z</time>
      </trkpt>
      <trkpt lat="48.12173" lon="6.36293">
        <ele>426.8</ele>
        <time>2023-04-30T14:21:36Z</time>
      </trkpt>
      <trkpt lat="48.12169" lon="6.36298">
        <ele>426.9</ele>
        <time>2023-04-30T14:21:37Z</time>
      </trkpt>
      <trkpt lat="48.12165" lon="6.36302">
        <ele>427</ele>
        <time>2023-04-30T14:21:38Z</time>
      </trkpt>
      <trkpt lat="48.12161" lon="6.36307">
        <ele>427.1</ele>
        <time>2023-04-30T14:21:39Z</time>
      </trkpt>
      <trkpt lat="48.12156" lon="6.36311">
        <ele>427.1</ele>
        <time>2023-04-30T14:21:40Z</time>
      </trkpt>
      <trkpt lat="48.12152" lon="6.36314">
        <ele>427.2</ele>
        <time>2023-04-30T14:21:41Z</time>
      </trkpt>
      <trkpt lat="48.12147" lon="6.36316">
        <ele>427.2</ele>
        <time>2023-04-30T14:21:42Z</time>
      </trkpt>
      <trkpt lat="48.12142" lon="6.36317">
        <ele>427.2</ele>
        <time>2023-04-30T14:21:43Z</time>
      </trkpt>
      <trkpt lat="48.12137" lon="6.36317">
        <ele>427.2</ele>
        <time>2023-04-30T14:21:44Z</time>
      </trkpt>
      <trkpt lat="48.12132" lon="6.36316">
        <ele>427.1</ele>
        <time>2023-04-30T14:21:45Z</time>
      </trkpt>
      <trkpt lat="48.12126" lon="6.36314">
        <ele>427.1</ele>
        <time>2023-04-30T14:21:46Z</time>
      </trkpt>
      <trkpt lat="48.12121" lon="6.36312">
        <ele>427</ele>
        <time>2023-04-30T14:21:47Z</time>
      </trkpt>
      <trkpt lat="48.12115" lon="6.36308">
        <ele>427</ele>
        <time>2023-04-30T14:21:48Z</time>
      </trkpt>
      <trkpt lat="48.1211" lon="6.36304">
        <ele>426.9</ele>
        <time>2023-04-30T14:21:49Z</time>
      </trkpt>
      <trkpt lat="48.12105" lon="6.363">
        <ele>426.9</ele>
        <time>2023-04-30T14:21:50Z</time>
      </trkpt>
      <trkpt lat="48.121" lon="6.36297">
        <ele>426.8</ele>
        <time>2023-04-30T14:21:51Z</time>
      </trkpt>
      <trkpt lat="48.12094" lon="6.36293">
        <ele>426.8</ele>
        <time>2023-04-30T14:21:52Z</time>
      </trkpt>
      <trkpt lat="48.12089" lon="6.36288">
        <ele>426.8</ele>
        <time>2023-04-30T14:21:53Z</time>
      </trkpt>
      <trkpt lat="48.12085" lon="6.36282">
        <ele>426.8</ele>
        <time>2023-04-30T14:21:54Z</time>
      </trkpt>
      <trkpt lat="48.1208" lon="6.36276">
        <ele>426.7</ele>
        <time>2023-04-30T14:21:55Z</time>
      </trkpt>
      <trkpt lat="48.12075" lon="6.36271">
        <ele>426.7</ele>
        <time>2023-04-30T14:21:56Z</time>
      </trkpt>
      <trkpt lat="48.12071" lon="6.36265">
        <ele>426.7</ele>
        <time>2023-04-30T14:21:57Z</time>
      </trkpt>
      <trkpt lat="48.12066" lon="6.3626">
        <ele>426.7</ele>
        <time>2023-04-30T14:21:58Z</time>
      </trkpt>
      <trkpt lat="48.12062" lon="6.36255">
        <ele>426.8</ele>
        <time>2023-04-30T14:21:59Z</time>
      </trkpt>
      <trkpt lat="48.12057" lon="6.36249">
        <ele>426.8</ele>
        <time>2023-04-30T14:22:00Z</time>
      </trkpt>
      <trkpt lat="48.12052" lon="6.36242">
        <ele>426.9</ele>
        <time>2023-04-30T14:22:01Z</time>
      </trkpt>
      <trkpt lat="48.12048" lon="6.36238">
        <ele>426.9</ele>
        <time>2023-04-30T14:22:02Z</time>
      </trkpt>
      <trkpt lat="48.12043" lon="6.36233">
        <ele>427</ele>
        <time>2023-04-30T14:22:03Z</time>
      </trkpt>
      <trkpt lat="48.12038" lon="6.36228">
        <ele>427.1</ele>
        <time>2023-04-30T14:22:04Z</time>
      </trkpt>
      <trkpt lat="48.12033" lon="6.36223">
        <ele>427.2</ele>
        <time>2023-04-30T14:22:05Z</time>
      </trkpt>
      <trkpt lat="48.12029" lon="6.36217">
        <ele>427.3</ele>
        <time>2023-04-30T14:22:06Z</time>
      </trkpt>
      <trkpt lat="48.12024" lon="6.36212">
        <ele>427.4</ele>
        <time>2023-04-30T14:22:07Z</time>
      </trkpt>
      <trkpt lat="48.1202" lon="6.36206">
        <ele>427.5</ele>
        <time>2023-04-30T14:22:08Z</time>
      </trkpt>
      <trkpt lat="48.12016" lon="6.362">
        <ele>427.7</ele>
        <time>2023-04-30T14:22:09Z</time>
      </trkpt>
      <trkpt lat="48.12011" lon="6.36195">
        <ele>427.9</ele>
        <time>2023-04-30T14:22:10Z</time>
      </trkpt>
      <trkpt lat="48.12006" lon="6.3619">
        <ele>428.1</ele>
        <time>2023-04-30T14:22:11Z</time>
      </trkpt>
      <trkpt lat="48.12002" lon="6.36185">
        <ele>428.2</ele>
        <time>2023-04-30T14:22:12Z</time>
      </trkpt>
      <trkpt lat="48.11998" lon="6.3618">
        <ele>428.4</ele>
        <time>2023-04-30T14:22:13Z</time>
      </trkpt>
      <trkpt lat="48.11994" lon="6.36175">
        <ele>428.6</ele>
        <time>2023-04-30T14:22:14Z</time>
      </trkpt>
      <trkpt lat="48.11989" lon="6.3617">
        <ele>428.9</ele>
        <time>2023-04-30T14:22:15Z</time>
      </trkpt>
      <trkpt lat="48.11985" lon="6.36165">
        <ele>429.1</ele>
        <time>2023-04-30T14:22:16Z</time>
      </trkpt>
      <trkpt lat="48.11981" lon="6.3616">
        <ele>429.3</ele>
        <time>2023-04-30T14:22:17Z</time>
      </trkpt>
      <trkpt lat="48.11976" lon="6.36155">
        <ele>429.6</ele>
        <time>2023-04-30T14:22:18Z</time>
      </trkpt>
      <trkpt lat="48.11972" lon="6.3615">
        <ele>429.8</ele>
        <time>2023-04-30T14:22:19Z</time>
      </trkpt>
      <trkpt lat="48.11968" lon="6.36145">
        <ele>430.1</ele>
        <time>2023-04-30T14:22:20Z</time>
      </trkpt>
      <trkpt lat="48.11964" lon="6.3614">
        <ele>430.4</ele>
        <time>2023-04-30T14:22:21Z</time>
      </trkpt>
      <trkpt lat="48.1196" lon="6.36136">
        <ele>430.6</ele>
        <time>2023-04-30T14:22:22Z</time>
      </trkpt>
      <trkpt lat="48.11956" lon="6.36131">
        <ele>430.9</ele>
        <time>2023-04-30T14:22:23Z</time>
      </trkpt>
      <trkpt lat="48.11952" lon="6.36126">
        <ele>431.2</ele>
        <time>2023-04-30T14:22:24Z</time>
      </trkpt>
      <trkpt lat="48.11948" lon="6.36122">
        <ele>431.5</ele>
        <time>2023-04-30T14:22:25Z</time>
      </trkpt>
      <trkpt lat="48.11944" lon="6.36117">
        <ele>431.8</ele>
        <time>2023-04-30T14:22:26Z</time>
      </trkpt>
      <trkpt lat="48.1194" lon="6.36113">
        <ele>432.1</ele>
        <time>2023-04-30T14:22:27Z</time>
      </trkpt>
      <trkpt lat="48.11936" lon="6.36108">
        <ele>432.4</ele>
        <time>2023-04-30T14:22:28Z</time>
      </trkpt>
      <trkpt lat="48.11932" lon="6.36103">
        <ele>432.7</ele>
        <time>2023-04-30T14:22:29Z</time>
      </trkpt>
      <trkpt lat="48.11929" lon="6.36098">
        <ele>432.9</ele>
        <time>2023-04-30T14:22:30Z</time>
      </trkpt>
      <trkpt lat="48.11925" lon="6.36093">
        <ele>433.1</ele>
        <time>2023-04-30T14:22:31Z</time>
      </trkpt>
      <trkpt lat="48.11922" lon="6.36088">
        <ele>433.3</ele>
        <time>2023-04-30T14:22:32Z</time>
      </trkpt>
      <trkpt lat="48.11919" lon="6.36082">
        <ele>433.5</ele>
        <time>2023-04-30T14:22:33Z</time>
      </trkpt>
      <trkpt lat="48.11916" lon="6.36076">
        <ele>433.7</ele>
        <time>2023-04-30T14:22:34Z</time>
      </trkpt>
      <trkpt lat="48.11913" lon="6.36071">
        <ele>433.9</ele>
        <time>2023-04-30T14:22:35Z</time>
      </trkpt>
      <trkpt lat="48.11911" lon="6.36067">
        <ele>434.1</ele>
        <time>2023-04-30T14:22:36Z</time>
      </trkpt>
      <trkpt lat="48.11908" lon="6.36062">
        <ele>434.3</ele>
        <time>2023-04-30T14:22:37Z</time>
      </trkpt>
      <trkpt lat="48.11907" lon="6.3606">
        <ele>434.4</ele>
        <time>2023-04-30T14:22:38Z</time>
      </trkpt>
      <trkpt lat="48.11905" lon="6.36055">
        <ele>434.6</ele>
        <time>2023-04-30T14:22:39Z</time>
      </trkpt>
      <trkpt lat="48.11902" lon="6.3605">
        <ele>434.8</ele>
        <time>2023-04-30T14:22:40Z</time>
      </trkpt>
      <trkpt lat="48.119" lon="6.36047">
        <ele>434.9</ele>
        <time>2023-04-30T14:22:41Z</time>
      </trkpt>
      <trkpt lat="48.11898" lon="6.36042">
        <ele>435.1</ele>
        <time>2023-04-30T14:22:42Z</time>
      </trkpt>
      <trkpt lat="48.11895" lon="6.36038">
        <ele>435.2</ele>
        <time>2023-04-30T14:22:43Z</time>
      </trkpt>
      <trkpt lat="48.11892" lon="6.36037">
        <ele>435.3</ele>
        <time>2023-04-30T14:22:44Z</time>
      </trkpt>
      <trkpt lat="48.11887" lon="6.3603">
        <ele>435.6</ele>
        <time>2023-04-30T14:22:45Z</time>
      </trkpt>
      <trkpt lat="48.11879" lon="6.3602">
        <ele>435.6</ele>
        <time>2023-04-30T14:22:47Z</time>
      </trkpt>
      <trkpt lat="48.11875" lon="6.36017">
        <ele>435.5</ele>
        <time>2023-04-30T14:22:48Z</time>
      </trkpt>
      <trkpt lat="48.11871" lon="6.36011">
        <ele>435.4</ele>
        <time>2023-04-30T14:22:50Z</time>
      </trkpt>
      <trkpt lat="48.11867" lon="6.36007">
        <ele>435.2</ele>
        <time>2023-04-30T14:22:51Z</time>
      </trkpt>
      <trkpt lat="48.11863" lon="6.36003">
        <ele>435</ele>
        <time>2023-04-30T14:22:52Z</time>
      </trkpt>
      <trkpt lat="48.1186" lon="6.35999">
        <ele>434.8</ele>
        <time>2023-04-30T14:22:53Z</time>
      </trkpt>
      <trkpt lat="48.11856" lon="6.35994">
        <ele>434.5</ele>
        <time>2023-04-30T14:22:54Z</time>
      </trkpt>
      <trkpt lat="48.11853" lon="6.35989">
        <ele>434.3</ele>
        <time>2023-04-30T14:22:55Z</time>
      </trkpt>
      <trkpt lat="48.11851" lon="6.35985">
        <ele>434.2</ele>
        <time>2023-04-30T14:22:56Z</time>
      </trkpt>
      <trkpt lat="48.11845" lon="6.35978">
        <ele>433.8</ele>
        <time>2023-04-30T14:22:57Z</time>
      </trkpt>
      <trkpt lat="48.11836" lon="6.35967">
        <ele>433.2</ele>
        <time>2023-04-30T14:22:59Z</time>
      </trkpt>
      <trkpt lat="48.11832" lon="6.35961">
        <ele>432.9</ele>
        <time>2023-04-30T14:23:00Z</time>
      </trkpt>
      <trkpt lat="48.11828" lon="6.35956">
        <ele>432.6</ele>
        <time>2023-04-30T14:23:01Z</time>
      </trkpt>
      <trkpt lat="48.11824" lon="6.35949">
        <ele>432.3</ele>
        <time>2023-04-30T14:23:02Z</time>
      </trkpt>
      <trkpt lat="48.11821" lon="6.35942">
        <ele>432</ele>
        <time>2023-04-30T14:23:03Z</time>
      </trkpt>
      <trkpt lat="48.11816" lon="6.35935">
        <ele>431.6</ele>
        <time>2023-04-30T14:23:04Z</time>
      </trkpt>
      <trkpt lat="48.11813" lon="6.3593">
        <ele>431.4</ele>
        <time>2023-04-30T14:23:05Z</time>
      </trkpt>
      <trkpt lat="48.11809" lon="6.35925">
        <ele>431.2</ele>
        <time>2023-04-30T14:23:06Z</time>
      </trkpt>
      <trkpt lat="48.11804" lon="6.35919">
        <ele>430.9</ele>
        <time>2023-04-30T14:23:07Z</time>
      </trkpt>
      <trkpt lat="48.11799" lon="6.35914">
        <ele>430.7</ele>
        <time>2023-04-30T14:23:08Z</time>
      </trkpt>
      <trkpt lat="48.11794" lon="6.35909">
        <ele>430.5</ele>
        <time>2023-04-30T14:23:09Z</time>
      </trkpt>
      <trkpt lat="48.11789" lon="6.35905">
        <ele>430.3</ele>
        <time>2023-04-30T14:23:10Z</time>
      </trkpt>
      <trkpt lat="48.11783" lon="6.359">
        <ele>430.1</ele>
        <time>2023-04-30T14:23:11Z</time>
      </trkpt>
      <trkpt lat="48.11777" lon="6.35897">
        <ele>429.9</ele>
        <time>2023-04-30T14:23:12Z</time>
      </trkpt>
      <trkpt lat="48.11772" lon="6.35894">
        <ele>429.7</ele>
        <time>2023-04-30T14:23:13Z</time>
      </trkpt>
      <trkpt lat="48.11767" lon="6.35893">
        <ele>429.5</ele>
        <time>2023-04-30T14:23:14Z</time>
      </trkpt>
      <trkpt lat="48.11762" lon="6.35892">
        <ele>429.3</ele>
        <time>2023-04-30T14:23:15Z</time>
      </trkpt>
      <trkpt lat="48.11758" lon="6.35891">
        <ele>429.1</ele>
        <time>2023-04-30T14:23:16Z</time>
      </trkpt>
      <trkpt lat="48.11752" lon="6.35892">
        <ele>428.9</ele>
        <time>2023-04-30T14:23:17Z</time>
      </trkpt>
      <trkpt lat="48.11749" lon="6.35892">
        <ele>428.8</ele>
        <time>2023-04-30T14:23:18Z</time>
      </trkpt>
      <trkpt lat="48.11746" lon="6.35892">
        <ele>428.7</ele>
        <time>2023-04-30T14:23:19Z</time>
      </trkpt>
      <trkpt lat="48.11742" lon="6.35891">
        <ele>428.5</ele>
        <time>2023-04-30T14:23:20Z</time>
      </trkpt>
      <trkpt lat="48.11741" lon="6.35891">
        <ele>428.4</ele>
        <time>2023-04-30T14:23:21Z</time>
      </trkpt>
      <trkpt lat="48.11738" lon="6.3589">
        <ele>428.3</ele>
        <time>2023-04-30T14:23:22Z</time>
      </trkpt>
      <trkpt lat="48.11729" lon="6.35891">
        <ele>427.9</ele>
        <time>2023-04-30T14:23:23Z</time>
      </trkpt>
      <trkpt lat="48.11719" lon="6.35892">
        <ele>427.4</ele>
        <time>2023-04-30T14:23:24Z</time>
      </trkpt>
      <trkpt lat="48.1171" lon="6.35895">
        <ele>427</ele>
        <time>2023-04-30T14:23:25Z</time>
      </trkpt>
      <trkpt lat="48.11703" lon="6.35899">
        <ele>426.7</ele>
        <time>2023-04-30T14:23:26Z</time>
      </trkpt>
      <trkpt lat="48.11695" lon="6.35903">
        <ele>426.4</ele>
        <time>2023-04-30T14:23:27Z</time>
      </trkpt>
      <trkpt lat="48.1169" lon="6.35906">
        <ele>426.2</ele>
        <time>2023-04-30T14:23:28Z</time>
      </trkpt>
      <trkpt lat="48.11681" lon="6.35909">
        <ele>425.9</ele>
        <time>2023-04-30T14:23:29Z</time>
      </trkpt>
      <trkpt lat="48.11673" lon="6.35911">
        <ele>425.6</ele>
        <time>2023-04-30T14:23:30Z</time>
      </trkpt>
      <trkpt lat="48.11667" lon="6.35911">
        <ele>425.4</ele>
        <time>2023-04-30T14:23:31Z</time>
      </trkpt>
      <trkpt lat="48.11659" lon="6.35912">
        <ele>425.2</ele>
        <time>2023-04-30T14:23:32Z</time>
      </trkpt>
      <trkpt lat="48.11651" lon="6.3591">
        <ele>425</ele>
        <time>2023-04-30T14:23:33Z</time>
      </trkpt>
      <trkpt lat="48.11644" lon="6.35908">
        <ele>424.9</ele>
        <time>2023-04-30T14:23:34Z</time>
      </trkpt>
      <trkpt lat="48.11637" lon="6.35906">
        <ele>424.8</ele>
        <time>2023-04-30T14:23:35Z</time>
      </trkpt>
      <trkpt lat="48.11631" lon="6.35904">
        <ele>424.7</ele>
        <time>2023-04-30T14:23:36Z</time>
      </trkpt>
      <trkpt lat="48.11625" lon="6.35902">
        <ele>424.6</ele>
        <time>2023-04-30T14:23:37Z</time>
      </trkpt>
      <trkpt lat="48.11618" lon="6.35899">
        <ele>424.6</ele>
        <time>2023-04-30T14:23:38Z</time>
      </trkpt>
      <trkpt lat="48.11611" lon="6.35896">
        <ele>424.6</ele>
        <time>2023-04-30T14:23:39Z</time>
      </trkpt>
      <trkpt lat="48.11605" lon="6.35893">
        <ele>424.5</ele>
        <time>2023-04-30T14:23:40Z</time>
      </trkpt>
      <trkpt lat="48.11599" lon="6.35891">
        <ele>424.5</ele>
        <time>2023-04-30T14:23:41Z</time>
      </trkpt>
      <trkpt lat="48.11593" lon="6.35887">
        <ele>424.5</ele>
        <time>2023-04-30T14:23:42Z</time>
      </trkpt>
      <trkpt lat="48.11587" lon="6.35884">
        <ele>424.5</ele>
        <time>2023-04-30T14:23:43Z</time>
      </trkpt>
      <trkpt lat="48.11581" lon="6.3588">
        <ele>424.6</ele>
        <time>2023-04-30T14:23:44Z</time>
      </trkpt>
      <trkpt lat="48.11576" lon="6.35877">
        <ele>424.6</ele>
        <time>2023-04-30T14:23:45Z</time>
      </trkpt>
      <trkpt lat="48.1157" lon="6.35872">
        <ele>424.6</ele>
        <time>2023-04-30T14:23:46Z</time>
      </trkpt>
      <trkpt lat="48.11565" lon="6.35866">
        <ele>424.6</ele>
        <time>2023-04-30T14:23:47Z</time>
      </trkpt>
      <trkpt lat="48.1156" lon="6.35861">
        <ele>424.6</ele>
        <time>2023-04-30T14:23:48Z</time>
      </trkpt>
      <trkpt lat="48.11557" lon="6.35857">
        <ele>424.6</ele>
        <time>2023-04-30T14:23:49Z</time>
      </trkpt>
      <trkpt lat="48.11553" lon="6.35854">
        <ele>424.6</ele>
        <time>2023-04-30T14:23:50Z</time>
      </trkpt>
      <trkpt lat="48.11549" lon="6.35849">
        <ele>424.6</ele>
        <time>2023-04-30T14:23:51Z</time>
      </trkpt>
      <trkpt lat="48.11548" lon="6.35846">
        <ele>424.6</ele>
        <time>2023-04-30T14:23:52Z</time>
      </trkpt>
      <trkpt lat="48.11544" lon="6.35842">
        <ele>424.6</ele>
        <time>2023-04-30T14:23:53Z</time>
      </trkpt>
      <trkpt lat="48.11539" lon="6.35836">
        <ele>424.5</ele>
        <time>2023-04-30T14:23:54Z</time>
      </trkpt>
      <trkpt lat="48.11534" lon="6.35829">
        <ele>424.5</ele>
        <time>2023-04-30T14:23:55Z</time>
      </trkpt>
      <trkpt lat="48.11529" lon="6.35821">
        <ele>424.5</ele>
        <time>2023-04-30T14:23:56Z</time>
      </trkpt>
      <trkpt lat="48.11524" lon="6.35814">
        <ele>424.4</ele>
        <time>2023-04-30T14:23:57Z</time>
      </trkpt>
      <trkpt lat="48.1152" lon="6.35806">
        <ele>424.4</ele>
        <time>2023-04-30T14:23:58Z</time>
      </trkpt>
      <trkpt lat="48.11517" lon="6.35798">
        <ele>424.4</ele>
        <time>2023-04-30T14:23:59Z</time>
      </trkpt>
      <trkpt lat="48.11513" lon="6.3579">
        <ele>424.4</ele>
        <time>2023-04-30T14:24:00Z</time>
      </trkpt>
      <trkpt lat="48.11511" lon="6.35781">
        <ele>424.4</ele>
        <time>2023-04-30T14:24:01Z</time>
      </trkpt>
      <trkpt lat="48.11508" lon="6.35773">
        <ele>424.5</ele>
        <time>2023-04-30T14:24:02Z</time>
      </trkpt>
      <trkpt lat="48.11506" lon="6.35765">
        <ele>424.5</ele>
        <time>2023-04-30T14:24:03Z</time>
      </trkpt>
      <trkpt lat="48.11504" lon="6.35757">
        <ele>424.5</ele>
        <time>2023-04-30T14:24:04Z</time>
      </trkpt>
      <trkpt lat="48.11503" lon="6.35749">
        <ele>424.5</ele>
        <time>2023-04-30T14:24:05Z</time>
      </trkpt>
      <trkpt lat="48.11502" lon="6.3574">
        <ele>424.5</ele>
        <time>2023-04-30T14:24:06Z</time>
      </trkpt>
      <trkpt lat="48.11501" lon="6.35731">
        <ele>424.5</ele>
        <time>2023-04-30T14:24:07Z</time>
      </trkpt>
      <trkpt lat="48.11502" lon="6.35721">
        <ele>424.4</ele>
        <time>2023-04-30T14:24:08Z</time>
      </trkpt>
      <trkpt lat="48.11504" lon="6.35712">
        <ele>424.4</ele>
        <time>2023-04-30T14:24:09Z</time>
      </trkpt>
      <trkpt lat="48.11507" lon="6.35704">
        <ele>424.3</ele>
        <time>2023-04-30T14:24:10Z</time>
      </trkpt>
      <trkpt lat="48.1151" lon="6.35697">
        <ele>424.3</ele>
        <time>2023-04-30T14:24:11Z</time>
      </trkpt>
      <trkpt lat="48.11512" lon="6.35689">
        <ele>424.2</ele>
        <time>2023-04-30T14:24:12Z</time>
      </trkpt>
      <trkpt lat="48.11515" lon="6.35681">
        <ele>424.1</ele>
        <time>2023-04-30T14:24:13Z</time>
      </trkpt>
      <trkpt lat="48.11518" lon="6.35673">
        <ele>424</ele>
        <time>2023-04-30T14:24:14Z</time>
      </trkpt>
      <trkpt lat="48.1152" lon="6.35666">
        <ele>423.9</ele>
        <time>2023-04-30T14:24:15Z</time>
      </trkpt>
      <trkpt lat="48.11523" lon="6.35659">
        <ele>423.8</ele>
        <time>2023-04-30T14:24:16Z</time>
      </trkpt>
      <trkpt lat="48.11525" lon="6.35652">
        <ele>423.7</ele>
        <time>2023-04-30T14:24:17Z</time>
      </trkpt>
      <trkpt lat="48.11526" lon="6.35645">
        <ele>423.6</ele>
        <time>2023-04-30T14:24:18Z</time>
      </trkpt>
      <trkpt lat="48.11527" lon="6.35637">
        <ele>423.5</ele>
        <time>2023-04-30T14:24:19Z</time>
      </trkpt>
      <trkpt lat="48.11528" lon="6.35625">
        <ele>423.3</ele>
        <time>2023-04-30T14:24:20Z</time>
      </trkpt>
      <trkpt lat="48.11528" lon="6.35615">
        <ele>423.1</ele>
        <time>2023-04-30T14:24:21Z</time>
      </trkpt>
      <trkpt lat="48.11527" lon="6.35604">
        <ele>422.9</ele>
        <time>2023-04-30T14:24:22Z</time>
      </trkpt>
      <trkpt lat="48.11524" lon="6.35595">
        <ele>422.8</ele>
        <time>2023-04-30T14:24:23Z</time>
      </trkpt>
      <trkpt lat="48.11522" lon="6.35583">
        <ele>422.6</ele>
        <time>2023-04-30T14:24:24Z</time>
      </trkpt>
      <trkpt lat="48.11518" lon="6.35572">
        <ele>422.4</ele>
        <time>2023-04-30T14:24:25Z</time>
      </trkpt>
      <trkpt lat="48.11514" lon="6.35563">
        <ele>422.2</ele>
        <time>2023-04-30T14:24:26Z</time>
      </trkpt>
      <trkpt lat="48.1151" lon="6.35554">
        <ele>422.1</ele>
        <time>2023-04-30T14:24:27Z</time>
      </trkpt>
      <trkpt lat="48.11505" lon="6.35546">
        <ele>421.9</ele>
        <time>2023-04-30T14:24:28Z</time>
      </trkpt>
      <trkpt lat="48.11501" lon="6.35539">
        <ele>421.8</ele>
        <time>2023-04-30T14:24:29Z</time>
      </trkpt>
      <trkpt lat="48.11496" lon="6.35532">
        <ele>421.6</ele>
        <time>2023-04-30T14:24:30Z</time>
      </trkpt>
      <trkpt lat="48.11491" lon="6.35525">
        <ele>421.5</ele>
        <time>2023-04-30T14:24:31Z</time>
      </trkpt>
      <trkpt lat="48.11487" lon="6.35519">
        <ele>421.4</ele>
        <time>2023-04-30T14:24:32Z</time>
      </trkpt>
      <trkpt lat="48.11482" lon="6.35512">
        <ele>421.3</ele>
        <time>2023-04-30T14:24:33Z</time>
      </trkpt>
      <trkpt lat="48.11476" lon="6.35505">
        <ele>421.2</ele>
        <time>2023-04-30T14:24:34Z</time>
      </trkpt>
      <trkpt lat="48.11472" lon="6.35499">
        <ele>421.2</ele>
        <time>2023-04-30T14:24:35Z</time>
      </trkpt>
      <trkpt lat="48.11466" lon="6.35492">
        <ele>421.1</ele>
        <time>2023-04-30T14:24:36Z</time>
      </trkpt>
      <trkpt lat="48.11461" lon="6.35486">
        <ele>421</ele>
        <time>2023-04-30T14:24:37Z</time>
      </trkpt>
      <trkpt lat="48.11455" lon="6.35479">
        <ele>420.9</ele>
        <time>2023-04-30T14:24:38Z</time>
      </trkpt>
      <trkpt lat="48.1145" lon="6.35472">
        <ele>420.8</ele>
        <time>2023-04-30T14:24:39Z</time>
      </trkpt>
      <trkpt lat="48.11444" lon="6.35465">
        <ele>420.7</ele>
        <time>2023-04-30T14:24:40Z</time>
      </trkpt>
      <trkpt lat="48.11439" lon="6.35458">
        <ele>420.6</ele>
        <time>2023-04-30T14:24:41Z</time>
      </trkpt>
      <trkpt lat="48.11434" lon="6.35451">
        <ele>420.5</ele>
        <time>2023-04-30T14:24:42Z</time>
      </trkpt>
      <trkpt lat="48.11429" lon="6.35444">
        <ele>420.3</ele>
        <time>2023-04-30T14:24:43Z</time>
      </trkpt>
      <trkpt lat="48.11424" lon="6.35437">
        <ele>420.1</ele>
        <time>2023-04-30T14:24:44Z</time>
      </trkpt>
      <trkpt lat="48.11419" lon="6.35429">
        <ele>419.8</ele>
        <time>2023-04-30T14:24:45Z</time>
      </trkpt>
      <trkpt lat="48.11414" lon="6.35419">
        <ele>419.5</ele>
        <time>2023-04-30T14:24:46Z</time>
      </trkpt>
      <trkpt lat="48.1141" lon="6.35409">
        <ele>419.1</ele>
        <time>2023-04-30T14:24:47Z</time>
      </trkpt>
      <trkpt lat="48.11407" lon="6.35399">
        <ele>418.7</ele>
        <time>2023-04-30T14:24:48Z</time>
      </trkpt>
      <trkpt lat="48.11404" lon="6.35388">
        <ele>418.3</ele>
        <time>2023-04-30T14:24:49Z</time>
      </trkpt>
      <trkpt lat="48.11401" lon="6.35376">
        <ele>417.8</ele>
        <time>2023-04-30T14:24:50Z</time>
      </trkpt>
      <trkpt lat="48.11398" lon="6.35366">
        <ele>417.3</ele>
        <time>2023-04-30T14:24:51Z</time>
      </trkpt>
      <trkpt lat="48.11396" lon="6.35355">
        <ele>416.8</ele>
        <time>2023-04-30T14:24:52Z</time>
      </trkpt>
      <trkpt lat="48.11393" lon="6.35343">
        <ele>416.3</ele>
        <time>2023-04-30T14:24:53Z</time>
      </trkpt>
      <trkpt lat="48.11389" lon="6.35332">
        <ele>415.8</ele>
        <time>2023-04-30T14:24:54Z</time>
      </trkpt>
      <trkpt lat="48.11386" lon="6.35321">
        <ele>415.3</ele>
        <time>2023-04-30T14:24:55Z</time>
      </trkpt>
      <trkpt lat="48.11382" lon="6.35309">
        <ele>414.7</ele>
        <time>2023-04-30T14:24:56Z</time>
      </trkpt>
      <trkpt lat="48.11379" lon="6.35298">
        <ele>414.2</ele>
        <time>2023-04-30T14:24:57Z</time>
      </trkpt>
      <trkpt lat="48.11375" lon="6.35287">
        <ele>413.7</ele>
        <time>2023-04-30T14:24:58Z</time>
      </trkpt>
      <trkpt lat="48.11371" lon="6.35276">
        <ele>413.1</ele>
        <time>2023-04-30T14:24:59Z</time>
      </trkpt>
      <trkpt lat="48.11366" lon="6.35264">
        <ele>412.5</ele>
        <time>2023-04-30T14:25:00Z</time>
      </trkpt>
      <trkpt lat="48.11362" lon="6.35253">
        <ele>412</ele>
        <time>2023-04-30T14:25:01Z</time>
      </trkpt>
      <trkpt lat="48.11357" lon="6.3524">
        <ele>411.3</ele>
        <time>2023-04-30T14:25:02Z</time>
      </trkpt>
      <trkpt lat="48.11352" lon="6.35228">
        <ele>410.7</ele>
        <time>2023-04-30T14:25:03Z</time>
      </trkpt>
      <trkpt lat="48.11348" lon="6.35216">
        <ele>410.1</ele>
        <time>2023-04-30T14:25:04Z</time>
      </trkpt>
      <trkpt lat="48.11344" lon="6.35204">
        <ele>409.5</ele>
        <time>2023-04-30T14:25:05Z</time>
      </trkpt>
      <trkpt lat="48.11339" lon="6.35192">
        <ele>408.9</ele>
        <time>2023-04-30T14:25:06Z</time>
      </trkpt>
      <trkpt lat="48.11333" lon="6.35181">
        <ele>408.2</ele>
        <time>2023-04-30T14:25:07Z</time>
      </trkpt>
      <trkpt lat="48.11327" lon="6.35171">
        <ele>407.6</ele>
        <time>2023-04-30T14:25:08Z</time>
      </trkpt>
      <trkpt lat="48.11321" lon="6.35162">
        <ele>407</ele>
        <time>2023-04-30T14:25:09Z</time>
      </trkpt>
      <trkpt lat="48.11314" lon="6.35152">
        <ele>406.4</ele>
        <time>2023-04-30T14:25:10Z</time>
      </trkpt>
      <trkpt lat="48.11308" lon="6.35142">
        <ele>405.8</ele>
        <time>2023-04-30T14:25:11Z</time>
      </trkpt>
      <trkpt lat="48.11301" lon="6.35132">
        <ele>405.1</ele>
        <time>2023-04-30T14:25:12Z</time>
      </trkpt>
      <trkpt lat="48.11294" lon="6.35121">
        <ele>404.4</ele>
        <time>2023-04-30T14:25:13Z</time>
      </trkpt>
      <trkpt lat="48.11287" lon="6.35111">
        <ele>403.6</ele>
        <time>2023-04-30T14:25:14Z</time>
      </trkpt>
      <trkpt lat="48.11279" lon="6.351">
        <ele>402.9</ele>
        <time>2023-04-30T14:25:15Z</time>
      </trkpt>
      <trkpt lat="48.11272" lon="6.35089">
        <ele>402.1</ele>
        <time>2023-04-30T14:25:16Z</time>
      </trkpt>
      <trkpt lat="48.11264" lon="6.35077">
        <ele>401.2</ele>
        <time>2023-04-30T14:25:17Z</time>
      </trkpt>
      <trkpt lat="48.11256" lon="6.35065">
        <ele>400.3</ele>
        <time>2023-04-30T14:25:18Z</time>
      </trkpt>
      <trkpt lat="48.11248" lon="6.35053">
        <ele>399.3</ele>
        <time>2023-04-30T14:25:19Z</time>
      </trkpt>
      <trkpt lat="48.11241" lon="6.35041">
        <ele>398.3</ele>
        <time>2023-04-30T14:25:20Z</time>
      </trkpt>
      <trkpt lat="48.11233" lon="6.35029">
        <ele>397.2</ele>
        <time>2023-04-30T14:25:21Z</time>
      </trkpt>
      <trkpt lat="48.11225" lon="6.35017">
        <ele>396.2</ele>
        <time>2023-04-30T14:25:22Z</time>
      </trkpt>
      <trkpt lat="48.11216" lon="6.35005">
        <ele>395.1</ele>
        <time>2023-04-30T14:25:23Z</time>
      </trkpt>
      <trkpt lat="48.11208" lon="6.34993">
        <ele>394.1</ele>
        <time>2023-04-30T14:25:24Z</time>
      </trkpt>
      <trkpt lat="48.112" lon="6.34981">
        <ele>393</ele>
        <time>2023-04-30T14:25:25Z</time>
      </trkpt>
      <trkpt lat="48.11192" lon="6.34969">
        <ele>392</ele>
        <time>2023-04-30T14:25:26Z</time>
      </trkpt>
      <trkpt lat="48.11183" lon="6.34956">
        <ele>390.8</ele>
        <time>2023-04-30T14:25:27Z</time>
      </trkpt>
      <trkpt lat="48.11175" lon="6.34944">
        <ele>389.7</ele>
        <time>2023-04-30T14:25:28Z</time>
      </trkpt>
      <trkpt lat="48.11166" lon="6.3493">
        <ele>388.6</ele>
        <time>2023-04-30T14:25:29Z</time>
      </trkpt>
      <trkpt lat="48.11157" lon="6.34917">
        <ele>387.5</ele>
        <time>2023-04-30T14:25:30Z</time>
      </trkpt>
      <trkpt lat="48.11148" lon="6.34904">
        <ele>386.3</ele>
        <time>2023-04-30T14:25:31Z</time>
      </trkpt>
      <trkpt lat="48.11138" lon="6.3489">
        <ele>385.3</ele>
        <time>2023-04-30T14:25:32Z</time>
      </trkpt>
      <trkpt lat="48.11129" lon="6.34877">
        <ele>384.3</ele>
        <time>2023-04-30T14:25:33Z</time>
      </trkpt>
      <trkpt lat="48.1112" lon="6.34864">
        <ele>383.3</ele>
        <time>2023-04-30T14:25:34Z</time>
      </trkpt>
      <trkpt lat="48.11111" lon="6.34851">
        <ele>382.4</ele>
        <time>2023-04-30T14:25:35Z</time>
      </trkpt>
      <trkpt lat="48.11103" lon="6.34838">
        <ele>381.7</ele>
        <time>2023-04-30T14:25:36Z</time>
      </trkpt>
      <trkpt lat="48.11096" lon="6.34826">
        <ele>380.9</ele>
        <time>2023-04-30T14:25:37Z</time>
      </trkpt>
      <trkpt lat="48.11088" lon="6.34816">
        <ele>380.3</ele>
        <time>2023-04-30T14:25:38Z</time>
      </trkpt>
      <trkpt lat="48.11082" lon="6.34807">
        <ele>379.7</ele>
        <time>2023-04-30T14:25:39Z</time>
      </trkpt>
      <trkpt lat="48.11076" lon="6.34798">
        <ele>379.2</ele>
        <time>2023-04-30T14:25:40Z</time>
      </trkpt>
      <trkpt lat="48.11071" lon="6.3479">
        <ele>378.8</ele>
        <time>2023-04-30T14:25:41Z</time>
      </trkpt>
      <trkpt lat="48.11067" lon="6.34783">
        <ele>378.4</ele>
        <time>2023-04-30T14:25:42Z</time>
      </trkpt>
      <trkpt lat="48.11063" lon="6.34777">
        <ele>378.1</ele>
        <time>2023-04-30T14:25:43Z</time>
      </trkpt>
      <trkpt lat="48.11059" lon="6.34772">
        <ele>377.8</ele>
        <time>2023-04-30T14:25:44Z</time>
      </trkpt>
      <trkpt lat="48.11055" lon="6.34769">
        <ele>377.5</ele>
        <time>2023-04-30T14:25:45Z</time>
      </trkpt>
      <trkpt lat="48.11051" lon="6.34762">
        <ele>377.2</ele>
        <time>2023-04-30T14:25:46Z</time>
      </trkpt>
      <trkpt lat="48.11047" lon="6.34758">
        <ele>376.9</ele>
        <time>2023-04-30T14:25:47Z</time>
      </trkpt>
      <trkpt lat="48.11043" lon="6.34755">
        <ele>376.7</ele>
        <time>2023-04-30T14:25:48Z</time>
      </trkpt>
      <trkpt lat="48.11039" lon="6.34755">
        <ele>376.5</ele>
        <time>2023-04-30T14:25:49Z</time>
      </trkpt>
      <trkpt lat="48.11034" lon="6.34758">
        <ele>376.3</ele>
        <time>2023-04-30T14:25:50Z</time>
      </trkpt>
      <trkpt lat="48.1103" lon="6.34763">
        <ele>376.2</ele>
        <time>2023-04-30T14:25:51Z</time>
      </trkpt>
      <trkpt lat="48.11027" lon="6.34767">
        <ele>376</ele>
        <time>2023-04-30T14:25:52Z</time>
      </trkpt>
      <trkpt lat="48.11023" lon="6.34772">
        <ele>375.9</ele>
        <time>2023-04-30T14:25:53Z</time>
      </trkpt>
      <trkpt lat="48.11019" lon="6.34777">
        <ele>375.8</ele>
        <time>2023-04-30T14:25:54Z</time>
      </trkpt>
      <trkpt lat="48.11014" lon="6.34781">
        <ele>375.7</ele>
        <time>2023-04-30T14:25:55Z</time>
      </trkpt>
      <trkpt lat="48.1101" lon="6.34785">
        <ele>375.6</ele>
        <time>2023-04-30T14:25:56Z</time>
      </trkpt>
      <trkpt lat="48.11005" lon="6.34789">
        <ele>375.6</ele>
        <time>2023-04-30T14:25:57Z</time>
      </trkpt>
      <trkpt lat="48.11" lon="6.34794">
        <ele>375.5</ele>
        <time>2023-04-30T14:25:58Z</time>
      </trkpt>
      <trkpt lat="48.10995" lon="6.34798">
        <ele>375.5</ele>
        <time>2023-04-30T14:25:59Z</time>
      </trkpt>
      <trkpt lat="48.1099" lon="6.34803">
        <ele>375.5</ele>
        <time>2023-04-30T14:26:00Z</time>
      </trkpt>
      <trkpt lat="48.10985" lon="6.34807">
        <ele>375.4</ele>
        <time>2023-04-30T14:26:01Z</time>
      </trkpt>
      <trkpt lat="48.1098" lon="6.34812">
        <ele>375.4</ele>
        <time>2023-04-30T14:26:02Z</time>
      </trkpt>
      <trkpt lat="48.10974" lon="6.34817">
        <ele>375.4</ele>
        <time>2023-04-30T14:26:03Z</time>
      </trkpt>
      <trkpt lat="48.10969" lon="6.34821">
        <ele>375.3</ele>
        <time>2023-04-30T14:26:04Z</time>
      </trkpt>
      <trkpt lat="48.10963" lon="6.34826">
        <ele>375.3</ele>
        <time>2023-04-30T14:26:05Z</time>
      </trkpt>
      <trkpt lat="48.10958" lon="6.34829">
        <ele>375.3</ele>
        <time>2023-04-30T14:26:06Z</time>
      </trkpt>
      <trkpt lat="48.10952" lon="6.34833">
        <ele>375.2</ele>
        <time>2023-04-30T14:26:07Z</time>
      </trkpt>
      <trkpt lat="48.10947" lon="6.34836">
        <ele>375.2</ele>
        <time>2023-04-30T14:26:08Z</time>
      </trkpt>
      <trkpt lat="48.10942" lon="6.34839">
        <ele>375.2</ele>
        <time>2023-04-30T14:26:09Z</time>
      </trkpt>
      <trkpt lat="48.10937" lon="6.34842">
        <ele>375.1</ele>
        <time>2023-04-30T14:26:10Z</time>
      </trkpt>
      <trkpt lat="48.10932" lon="6.34845">
        <ele>375</ele>
        <time>2023-04-30T14:26:11Z</time>
      </trkpt>
      <trkpt lat="48.10927" lon="6.34848">
        <ele>374.9</ele>
        <time>2023-04-30T14:26:12Z</time>
      </trkpt>
      <trkpt lat="48.10921" lon="6.34851">
        <ele>374.8</ele>
        <time>2023-04-30T14:26:13Z</time>
      </trkpt>
      <trkpt lat="48.10915" lon="6.34855">
        <ele>374.7</ele>
        <time>2023-04-30T14:26:14Z</time>
      </trkpt>
      <trkpt lat="48.10909" lon="6.34858">
        <ele>374.6</ele>
        <time>2023-04-30T14:26:15Z</time>
      </trkpt>
      <trkpt lat="48.10903" lon="6.34862">
        <ele>374.4</ele>
        <time>2023-04-30T14:26:16Z</time>
      </trkpt>
      <trkpt lat="48.10897" lon="6.34865">
        <ele>374.3</ele>
        <time>2023-04-30T14:26:17Z</time>
      </trkpt>
      <trkpt lat="48.10891" lon="6.34868">
        <ele>374.1</ele>
        <time>2023-04-30T14:26:18Z</time>
      </trkpt>
      <trkpt lat="48.10884" lon="6.34872">
        <ele>373.9</ele>
        <time>2023-04-30T14:26:19Z</time>
      </trkpt>
      <trkpt lat="48.10878" lon="6.34875">
        <ele>373.8</ele>
        <time>2023-04-30T14:26:20Z</time>
      </trkpt>
      <trkpt lat="48.10871" lon="6.34879">
        <ele>373.6</ele>
        <time>2023-04-30T14:26:21Z</time>
      </trkpt>
      <trkpt lat="48.10865" lon="6.34882">
        <ele>373.5</ele>
        <time>2023-04-30T14:26:22Z</time>
      </trkpt>
      <trkpt lat="48.10858" lon="6.34885">
        <ele>373.3</ele>
        <time>2023-04-30T14:26:23Z</time>
      </trkpt>
      <trkpt lat="48.10851" lon="6.34888">
        <ele>373.2</ele>
        <time>2023-04-30T14:26:24Z</time>
      </trkpt>
      <trkpt lat="48.10845" lon="6.34891">
        <ele>373</ele>
        <time>2023-04-30T14:26:25Z</time>
      </trkpt>
      <trkpt lat="48.10838" lon="6.34894">
        <ele>372.9</ele>
        <time>2023-04-30T14:26:26Z</time>
      </trkpt>
      <trkpt lat="48.10832" lon="6.34898">
        <ele>372.7</ele>
        <time>2023-04-30T14:26:27Z</time>
      </trkpt>
      <trkpt lat="48.10825" lon="6.34901">
        <ele>372.6</ele>
        <time>2023-04-30T14:26:28Z</time>
      </trkpt>
      <trkpt lat="48.10818" lon="6.34905">
        <ele>372.4</ele>
        <time>2023-04-30T14:26:29Z</time>
      </trkpt>
      <trkpt lat="48.10811" lon="6.34909">
        <ele>372.3</ele>
        <time>2023-04-30T14:26:30Z</time>
      </trkpt>
      <trkpt lat="48.10805" lon="6.34913">
        <ele>372.1</ele>
        <time>2023-04-30T14:26:31Z</time>
      </trkpt>
      <trkpt lat="48.10798" lon="6.34918">
        <ele>371.9</ele>
        <time>2023-04-30T14:26:32Z</time>
      </trkpt>
      <trkpt lat="48.10792" lon="6.34923">
        <ele>371.7</ele>
        <time>2023-04-30T14:26:33Z</time>
      </trkpt>
      <trkpt lat="48.10785" lon="6.34928">
        <ele>371.5</ele>
        <time>2023-04-30T14:26:34Z</time>
      </trkpt>
      <trkpt lat="48.10779" lon="6.34934">
        <ele>371.4</ele>
        <time>2023-04-30T14:26:35Z</time>
      </trkpt>
      <trkpt lat="48.10773" lon="6.34941">
        <ele>371.3</ele>
        <time>2023-04-30T14:26:36Z</time>
      </trkpt>
      <trkpt lat="48.10767" lon="6.34948">
        <ele>371.1</ele>
        <time>2023-04-30T14:26:37Z</time>
      </trkpt>
      <trkpt lat="48.10761" lon="6.34955">
        <ele>371</ele>
        <time>2023-04-30T14:26:38Z</time>
      </trkpt>
      <trkpt lat="48.10755" lon="6.34961">
        <ele>371</ele>
        <time>2023-04-30T14:26:39Z</time>
      </trkpt>
      <trkpt lat="48.10749" lon="6.34968">
        <ele>370.9</ele>
        <time>2023-04-30T14:26:40Z</time>
      </trkpt>
      <trkpt lat="48.10743" lon="6.34974">
        <ele>370.9</ele>
        <time>2023-04-30T14:26:41Z</time>
      </trkpt>
      <trkpt lat="48.10737" lon="6.34981">
        <ele>370.9</ele>
        <time>2023-04-30T14:26:42Z</time>
      </trkpt>
      <trkpt lat="48.10731" lon="6.34987">
        <ele>370.9</ele>
        <time>2023-04-30T14:26:43Z</time>
      </trkpt>
      <trkpt lat="48.10725" lon="6.34993">
        <ele>370.8</ele>
        <time>2023-04-30T14:26:44Z</time>
      </trkpt>
      <trkpt lat="48.10719" lon="6.34999">
        <ele>370.8</ele>
        <time>2023-04-30T14:26:45Z</time>
      </trkpt>
      <trkpt lat="48.10714" lon="6.35005">
        <ele>370.7</ele>
        <time>2023-04-30T14:26:46Z</time>
      </trkpt>
      <trkpt lat="48.10708" lon="6.35011">
        <ele>370.7</ele>
        <time>2023-04-30T14:26:47Z</time>
      </trkpt>
      <trkpt lat="48.10703" lon="6.35017">
        <ele>370.7</ele>
        <time>2023-04-30T14:26:48Z</time>
      </trkpt>
      <trkpt lat="48.10697" lon="6.35023">
        <ele>370.7</ele>
        <time>2023-04-30T14:26:49Z</time>
      </trkpt>
      <trkpt lat="48.10692" lon="6.35028">
        <ele>370.6</ele>
        <time>2023-04-30T14:26:50Z</time>
      </trkpt>
      <trkpt lat="48.10686" lon="6.35034">
        <ele>370.6</ele>
        <time>2023-04-30T14:26:51Z</time>
      </trkpt>
      <trkpt lat="48.10681" lon="6.3504">
        <ele>370.6</ele>
        <time>2023-04-30T14:26:52Z</time>
      </trkpt>
      <trkpt lat="48.10676" lon="6.35046">
        <ele>370.5</ele>
        <time>2023-04-30T14:26:53Z</time>
      </trkpt>
      <trkpt lat="48.1067" lon="6.35051">
        <ele>370.4</ele>
        <time>2023-04-30T14:26:54Z</time>
      </trkpt>
      <trkpt lat="48.10665" lon="6.35056">
        <ele>370.4</ele>
        <time>2023-04-30T14:26:55Z</time>
      </trkpt>
      <trkpt lat="48.1066" lon="6.35062">
        <ele>370.3</ele>
        <time>2023-04-30T14:26:56Z</time>
      </trkpt>
      <trkpt lat="48.10654" lon="6.35067">
        <ele>370.3</ele>
        <time>2023-04-30T14:26:57Z</time>
      </trkpt>
      <trkpt lat="48.10649" lon="6.35073">
        <ele>370.3</ele>
        <time>2023-04-30T14:26:58Z</time>
      </trkpt>
      <trkpt lat="48.10645" lon="6.35078">
        <ele>370.2</ele>
        <time>2023-04-30T14:26:59Z</time>
      </trkpt>
      <trkpt lat="48.1064" lon="6.35084">
        <ele>370.2</ele>
        <time>2023-04-30T14:27:00Z</time>
      </trkpt>
      <trkpt lat="48.10635" lon="6.35089">
        <ele>370.2</ele>
        <time>2023-04-30T14:27:01Z</time>
      </trkpt>
      <trkpt lat="48.1063" lon="6.35095">
        <ele>370.2</ele>
        <time>2023-04-30T14:27:02Z</time>
      </trkpt>
      <trkpt lat="48.10625" lon="6.351">
        <ele>370.1</ele>
        <time>2023-04-30T14:27:03Z</time>
      </trkpt>
      <trkpt lat="48.1062" lon="6.35106">
        <ele>370.1</ele>
        <time>2023-04-30T14:27:04Z</time>
      </trkpt>
      <trkpt lat="48.10615" lon="6.35111">
        <ele>370.1</ele>
        <time>2023-04-30T14:27:05Z</time>
      </trkpt>
      <trkpt lat="48.10611" lon="6.35117">
        <ele>370</ele>
        <time>2023-04-30T14:27:06Z</time>
      </trkpt>
      <trkpt lat="48.10606" lon="6.35123">
        <ele>370</ele>
        <time>2023-04-30T14:27:07Z</time>
      </trkpt>
      <trkpt lat="48.10602" lon="6.35129">
        <ele>370</ele>
        <time>2023-04-30T14:27:08Z</time>
      </trkpt>
      <trkpt lat="48.10598" lon="6.35136">
        <ele>370</ele>
        <time>2023-04-30T14:27:09Z</time>
      </trkpt>
      <trkpt lat="48.10594" lon="6.35144">
        <ele>369.9</ele>
        <time>2023-04-30T14:27:10Z</time>
      </trkpt>
      <trkpt lat="48.1059" lon="6.35151">
        <ele>369.9</ele>
        <time>2023-04-30T14:27:11Z</time>
      </trkpt>
      <trkpt lat="48.10587" lon="6.35159">
        <ele>369.9</ele>
        <time>2023-04-30T14:27:12Z</time>
      </trkpt>
      <trkpt lat="48.10584" lon="6.35167">
        <ele>369.8</ele>
        <time>2023-04-30T14:27:13Z</time>
      </trkpt>
      <trkpt lat="48.10581" lon="6.35174">
        <ele>369.7</ele>
        <time>2023-04-30T14:27:14Z</time>
      </trkpt>
      <trkpt lat="48.10577" lon="6.35181">
        <ele>369.7</ele>
        <time>2023-04-30T14:27:15Z</time>
      </trkpt>
      <trkpt lat="48.10573" lon="6.35188">
        <ele>369.7</ele>
        <time>2023-04-30T14:27:16Z</time>
      </trkpt>
      <trkpt lat="48.10569" lon="6.35195">
        <ele>369.6</ele>
        <time>2023-04-30T14:27:17Z</time>
      </trkpt>
      <trkpt lat="48.10565" lon="6.35202">
        <ele>369.5</ele>
        <time>2023-04-30T14:27:18Z</time>
      </trkpt>
      <trkpt lat="48.10561" lon="6.35209">
        <ele>369.4</ele>
        <time>2023-04-30T14:27:19Z</time>
      </trkpt>
      <trkpt lat="48.10557" lon="6.35215">
        <ele>369.3</ele>
        <time>2023-04-30T14:27:20Z</time>
      </trkpt>
      <trkpt lat="48.10553" lon="6.35221">
        <ele>369.2</ele>
        <time>2023-04-30T14:27:21Z</time>
      </trkpt>
      <trkpt lat="48.10548" lon="6.35227">
        <ele>369</ele>
        <time>2023-04-30T14:27:22Z</time>
      </trkpt>
      <trkpt lat="48.10544" lon="6.35233">
        <ele>368.9</ele>
        <time>2023-04-30T14:27:23Z</time>
      </trkpt>
      <trkpt lat="48.1054" lon="6.3524">
        <ele>368.7</ele>
        <time>2023-04-30T14:27:24Z</time>
      </trkpt>
      <trkpt lat="48.10536" lon="6.35246">
        <ele>368.5</ele>
        <time>2023-04-30T14:27:25Z</time>
      </trkpt>
      <trkpt lat="48.10533" lon="6.35253">
        <ele>368.3</ele>
        <time>2023-04-30T14:27:26Z</time>
      </trkpt>
      <trkpt lat="48.10529" lon="6.35259">
        <ele>368.1</ele>
        <time>2023-04-30T14:27:27Z</time>
      </trkpt>
      <trkpt lat="48.10525" lon="6.35264">
        <ele>368</ele>
        <time>2023-04-30T14:27:28Z</time>
      </trkpt>
      <trkpt lat="48.10521" lon="6.3527">
        <ele>367.8</ele>
        <time>2023-04-30T14:27:29Z</time>
      </trkpt>
      <trkpt lat="48.10517" lon="6.35276">
        <ele>367.6</ele>
        <time>2023-04-30T14:27:30Z</time>
      </trkpt>
      <trkpt lat="48.10513" lon="6.35283">
        <ele>367.3</ele>
        <time>2023-04-30T14:27:31Z</time>
      </trkpt>
      <trkpt lat="48.1051" lon="6.3529">
        <ele>367.1</ele>
        <time>2023-04-30T14:27:32Z</time>
      </trkpt>
      <trkpt lat="48.10506" lon="6.35297">
        <ele>366.9</ele>
        <time>2023-04-30T14:27:33Z</time>
      </trkpt>
      <trkpt lat="48.10503" lon="6.35304">
        <ele>366.7</ele>
        <time>2023-04-30T14:27:34Z</time>
      </trkpt>
      <trkpt lat="48.10499" lon="6.35312">
        <ele>366.4</ele>
        <time>2023-04-30T14:27:35Z</time>
      </trkpt>
      <trkpt lat="48.10497" lon="6.3532">
        <ele>366.2</ele>
        <time>2023-04-30T14:27:36Z</time>
      </trkpt>
      <trkpt lat="48.10494" lon="6.35328">
        <ele>366</ele>
        <time>2023-04-30T14:27:37Z</time>
      </trkpt>
      <trkpt lat="48.10492" lon="6.35336">
        <ele>365.7</ele>
        <time>2023-04-30T14:27:38Z</time>
      </trkpt>
      <trkpt lat="48.10489" lon="6.35344">
        <ele>365.5</ele>
        <time>2023-04-30T14:27:39Z</time>
      </trkpt>
      <trkpt lat="48.10487" lon="6.35353">
        <ele>365.2</ele>
        <time>2023-04-30T14:27:40Z</time>
      </trkpt>
      <trkpt lat="48.10485" lon="6.35363">
        <ele>364.9</ele>
        <time>2023-04-30T14:27:41Z</time>
      </trkpt>
      <trkpt lat="48.10484" lon="6.35373">
        <ele>364.5</ele>
        <time>2023-04-30T14:27:42Z</time>
      </trkpt>
      <trkpt lat="48.10483" lon="6.35384">
        <ele>364.2</ele>
        <time>2023-04-30T14:27:43Z</time>
      </trkpt>
      <trkpt lat="48.10483" lon="6.35395">
        <ele>363.8</ele>
        <time>2023-04-30T14:27:44Z</time>
      </trkpt>
      <trkpt lat="48.10482" lon="6.35405">
        <ele>363.5</ele>
        <time>2023-04-30T14:27:45Z</time>
      </trkpt>
      <trkpt lat="48.10482" lon="6.35416">
        <ele>363.4</ele>
        <time>2023-04-30T14:27:46Z</time>
      </trkpt>
      <trkpt lat="48.10482" lon="6.35427">
        <ele>363.3</ele>
        <time>2023-04-30T14:27:47Z</time>
      </trkpt>
      <trkpt lat="48.10481" lon="6.35437">
        <ele>363</ele>
        <time>2023-04-30T14:27:48Z</time>
      </trkpt>
      <trkpt lat="48.10481" lon="6.35448">
        <ele>362.7</ele>
        <time>2023-04-30T14:27:49Z</time>
      </trkpt>
      <trkpt lat="48.10481" lon="6.35459">
        <ele>362.3</ele>
        <time>2023-04-30T14:27:50Z</time>
      </trkpt>
      <trkpt lat="48.10481" lon="6.3547">
        <ele>362</ele>
        <time>2023-04-30T14:27:51Z</time>
      </trkpt>
      <trkpt lat="48.1048" lon="6.35482">
        <ele>361.7</ele>
        <time>2023-04-30T14:27:52Z</time>
      </trkpt>
      <trkpt lat="48.1048" lon="6.35493">
        <ele>361.4</ele>
        <time>2023-04-30T14:27:53Z</time>
      </trkpt>
      <trkpt lat="48.1048" lon="6.35505">
        <ele>361</ele>
        <time>2023-04-30T14:27:54Z</time>
      </trkpt>
      <trkpt lat="48.1048" lon="6.35516">
        <ele>360.7</ele>
        <time>2023-04-30T14:27:55Z</time>
      </trkpt>
      <trkpt lat="48.1048" lon="6.35528">
        <ele>360.4</ele>
        <time>2023-04-30T14:27:56Z</time>
      </trkpt>
      <trkpt lat="48.1048" lon="6.3554">
        <ele>360.2</ele>
        <time>2023-04-30T14:27:57Z</time>
      </trkpt>
      <trkpt lat="48.10479" lon="6.35551">
        <ele>360</ele>
        <time>2023-04-30T14:27:58Z</time>
      </trkpt>
      <trkpt lat="48.10479" lon="6.35563">
        <ele>359.8</ele>
        <time>2023-04-30T14:27:59Z</time>
      </trkpt>
      <trkpt lat="48.10477" lon="6.35574">
        <ele>359.6</ele>
        <time>2023-04-30T14:28:00Z</time>
      </trkpt>
      <trkpt lat="48.10474" lon="6.35583">
        <ele>359.6</ele>
        <time>2023-04-30T14:28:01Z</time>
      </trkpt>
      <trkpt lat="48.10469" lon="6.35591">
        <ele>359.6</ele>
        <time>2023-04-30T14:28:02Z</time>
      </trkpt>
      <trkpt lat="48.10464" lon="6.35597">
        <ele>359.5</ele>
        <time>2023-04-30T14:28:03Z</time>
      </trkpt>
      <trkpt lat="48.10457" lon="6.35599">
        <ele>359.5</ele>
        <time>2023-04-30T14:28:04Z</time>
      </trkpt>
      <trkpt lat="48.10451" lon="6.356">
        <ele>359.4</ele>
        <time>2023-04-30T14:28:05Z</time>
      </trkpt>
      <trkpt lat="48.10444" lon="6.356">
        <ele>359.4</ele>
        <time>2023-04-30T14:28:06Z</time>
      </trkpt>
      <trkpt lat="48.10438" lon="6.356">
        <ele>359.3</ele>
        <time>2023-04-30T14:28:07Z</time>
      </trkpt>
      <trkpt lat="48.10431" lon="6.356">
        <ele>359.2</ele>
        <time>2023-04-30T14:28:08Z</time>
      </trkpt>
      <trkpt lat="48.10425" lon="6.35601">
        <ele>359</ele>
        <time>2023-04-30T14:28:09Z</time>
      </trkpt>
      <trkpt lat="48.10419" lon="6.35601">
        <ele>358.9</ele>
        <time>2023-04-30T14:28:10Z</time>
      </trkpt>
      <trkpt lat="48.10413" lon="6.35602">
        <ele>358.8</ele>
        <time>2023-04-30T14:28:11Z</time>
      </trkpt>
      <trkpt lat="48.10406" lon="6.35603">
        <ele>358.6</ele>
        <time>2023-04-30T14:28:12Z</time>
      </trkpt>
      <trkpt lat="48.10399" lon="6.35604">
        <ele>358.4</ele>
        <time>2023-04-30T14:28:13Z</time>
      </trkpt>
      <trkpt lat="48.10393" lon="6.35606">
        <ele>358.3</ele>
        <time>2023-04-30T14:28:14Z</time>
      </trkpt>
      <trkpt lat="48.10386" lon="6.35609">
        <ele>358.1</ele>
        <time>2023-04-30T14:28:15Z</time>
      </trkpt>
      <trkpt lat="48.1038" lon="6.35612">
        <ele>357.9</ele>
        <time>2023-04-30T14:28:16Z</time>
      </trkpt>
      <trkpt lat="48.10373" lon="6.35617">
        <ele>357.8</ele>
        <time>2023-04-30T14:28:17Z</time>
      </trkpt>
      <trkpt lat="48.10367" lon="6.35623">
        <ele>357.7</ele>
        <time>2023-04-30T14:28:18Z</time>
      </trkpt>
      <trkpt lat="48.10361" lon="6.35629">
        <ele>357.6</ele>
        <time>2023-04-30T14:28:19Z</time>
      </trkpt>
      <trkpt lat="48.10357" lon="6.35636">
        <ele>357.6</ele>
        <time>2023-04-30T14:28:20Z</time>
      </trkpt>
      <trkpt lat="48.10352" lon="6.35644">
        <ele>357.5</ele>
        <time>2023-04-30T14:28:21Z</time>
      </trkpt>
      <trkpt lat="48.10347" lon="6.35651">
        <ele>357.5</ele>
        <time>2023-04-30T14:28:22Z</time>
      </trkpt>
      <trkpt lat="48.10342" lon="6.35659">
        <ele>357.5</ele>
        <time>2023-04-30T14:28:23Z</time>
      </trkpt>
      <trkpt lat="48.10338" lon="6.35667">
        <ele>357.4</ele>
        <time>2023-04-30T14:28:24Z</time>
      </trkpt>
      <trkpt lat="48.10333" lon="6.35674">
        <ele>357.4</ele>
        <time>2023-04-30T14:28:25Z</time>
      </trkpt>
      <trkpt lat="48.10327" lon="6.35682">
        <ele>357.4</ele>
        <time>2023-04-30T14:28:26Z</time>
      </trkpt>
      <trkpt lat="48.10322" lon="6.3569">
        <ele>357.4</ele>
        <time>2023-04-30T14:28:27Z</time>
      </trkpt>
      <trkpt lat="48.10317" lon="6.35699">
        <ele>357.4</ele>
        <time>2023-04-30T14:28:28Z</time>
      </trkpt>
      <trkpt lat="48.10313" lon="6.35707">
        <ele>357.4</ele>
        <time>2023-04-30T14:28:29Z</time>
      </trkpt>
      <trkpt lat="48.10308" lon="6.35714">
        <ele>357.5</ele>
        <time>2023-04-30T14:28:30Z</time>
      </trkpt>
      <trkpt lat="48.10303" lon="6.3572">
        <ele>357.5</ele>
        <time>2023-04-30T14:28:31Z</time>
      </trkpt>
      <trkpt lat="48.10298" lon="6.35727">
        <ele>357.5</ele>
        <time>2023-04-30T14:28:32Z</time>
      </trkpt>
      <trkpt lat="48.10292" lon="6.35732">
        <ele>357.6</ele>
        <time>2023-04-30T14:28:33Z</time>
      </trkpt>
      <trkpt lat="48.10287" lon="6.35736">
        <ele>357.6</ele>
        <time>2023-04-30T14:28:34Z</time>
      </trkpt>
      <trkpt lat="48.10281" lon="6.35741">
        <ele>357.7</ele>
        <time>2023-04-30T14:28:35Z</time>
      </trkpt>
      <trkpt lat="48.10275" lon="6.35746">
        <ele>357.7</ele>
        <time>2023-04-30T14:28:36Z</time>
      </trkpt>
      <trkpt lat="48.10269" lon="6.35751">
        <ele>357.8</ele>
        <time>2023-04-30T14:28:37Z</time>
      </trkpt>
      <trkpt lat="48.10264" lon="6.35755">
        <ele>357.8</ele>
        <time>2023-04-30T14:28:38Z</time>
      </trkpt>
      <trkpt lat="48.10258" lon="6.3576">
        <ele>357.8</ele>
        <time>2023-04-30T14:28:39Z</time>
      </trkpt>
      <trkpt lat="48.10252" lon="6.35765">
        <ele>357.8</ele>
        <time>2023-04-30T14:28:40Z</time>
      </trkpt>
      <trkpt lat="48.10247" lon="6.3577">
        <ele>357.8</ele>
        <time>2023-04-30T14:28:41Z</time>
      </trkpt>
      <trkpt lat="48.10241" lon="6.35774">
        <ele>357.9</ele>
        <time>2023-04-30T14:28:42Z</time>
      </trkpt>
      <trkpt lat="48.10235" lon="6.35778">
        <ele>357.9</ele>
        <time>2023-04-30T14:28:43Z</time>
      </trkpt>
      <trkpt lat="48.1023" lon="6.35782">
        <ele>357.9</ele>
        <time>2023-04-30T14:28:44Z</time>
      </trkpt>
      <trkpt lat="48.10224" lon="6.35787">
        <ele>357.9</ele>
        <time>2023-04-30T14:28:45Z</time>
      </trkpt>
      <trkpt lat="48.10218" lon="6.35792">
        <ele>357.9</ele>
        <time>2023-04-30T14:28:46Z</time>
      </trkpt>
      <trkpt lat="48.10212" lon="6.35796">
        <ele>358</ele>
        <time>2023-04-30T14:28:47Z</time>
      </trkpt>
      <trkpt lat="48.10206" lon="6.35801">
        <ele>358</ele>
        <time>2023-04-30T14:28:48Z</time>
      </trkpt>
      <trkpt lat="48.102" lon="6.35805">
        <ele>358</ele>
        <time>2023-04-30T14:28:49Z</time>
      </trkpt>
      <trkpt lat="48.10195" lon="6.35809">
        <ele>358.1</ele>
        <time>2023-04-30T14:28:50Z</time>
      </trkpt>
      <trkpt lat="48.10189" lon="6.35813">
        <ele>358.1</ele>
        <time>2023-04-30T14:28:51Z</time>
      </trkpt>
      <trkpt lat="48.10183" lon="6.35818">
        <ele>358.1</ele>
        <time>2023-04-30T14:28:52Z</time>
      </trkpt>
      <trkpt lat="48.10178" lon="6.35822">
        <ele>358.1</ele>
        <time>2023-04-30T14:28:53Z</time>
      </trkpt>
      <trkpt lat="48.10172" lon="6.35825">
        <ele>358.1</ele>
        <time>2023-04-30T14:28:54Z</time>
      </trkpt>
      <trkpt lat="48.10166" lon="6.35829">
        <ele>358.1</ele>
        <time>2023-04-30T14:28:55Z</time>
      </trkpt>
      <trkpt lat="48.1016" lon="6.35833">
        <ele>358.1</ele>
        <time>2023-04-30T14:28:56Z</time>
      </trkpt>
      <trkpt lat="48.10154" lon="6.35836">
        <ele>358.2</ele>
        <time>2023-04-30T14:28:57Z</time>
      </trkpt>
      <trkpt lat="48.10147" lon="6.35838">
        <ele>358.2</ele>
        <time>2023-04-30T14:28:58Z</time>
      </trkpt>
      <trkpt lat="48.10141" lon="6.3584">
        <ele>358.2</ele>
        <time>2023-04-30T14:28:59Z</time>
      </trkpt>
      <trkpt lat="48.10134" lon="6.35843">
        <ele>358.2</ele>
        <time>2023-04-30T14:29:00Z</time>
      </trkpt>
      <trkpt lat="48.10127" lon="6.35845">
        <ele>358.2</ele>
        <time>2023-04-30T14:29:01Z</time>
      </trkpt>
      <trkpt lat="48.10121" lon="6.35846">
        <ele>358.3</ele>
        <time>2023-04-30T14:29:02Z</time>
      </trkpt>
      <trkpt lat="48.10114" lon="6.35848">
        <ele>358.3</ele>
        <time>2023-04-30T14:29:03Z</time>
      </trkpt>
      <trkpt lat="48.10108" lon="6.3585">
        <ele>358.4</ele>
        <time>2023-04-30T14:29:04Z</time>
      </trkpt>
      <trkpt lat="48.10102" lon="6.35851">
        <ele>358.5</ele>
        <time>2023-04-30T14:29:05Z</time>
      </trkpt>
      <trkpt lat="48.10096" lon="6.35853">
        <ele>358.5</ele>
        <time>2023-04-30T14:29:06Z</time>
      </trkpt>
      <trkpt lat="48.1009" lon="6.35854">
        <ele>358.6</ele>
        <time>2023-04-30T14:29:07Z</time>
      </trkpt>
      <trkpt lat="48.10083" lon="6.35855">
        <ele>358.7</ele>
        <time>2023-04-30T14:29:08Z</time>
      </trkpt>
      <trkpt lat="48.10077" lon="6.35856">
        <ele>358.8</ele>
        <time>2023-04-30T14:29:09Z</time>
      </trkpt>
      <trkpt lat="48.10071" lon="6.35857">
        <ele>358.9</ele>
        <time>2023-04-30T14:29:10Z</time>
      </trkpt>
      <trkpt lat="48.10065" lon="6.35858">
        <ele>359</ele>
        <time>2023-04-30T14:29:11Z</time>
      </trkpt>
      <trkpt lat="48.10059" lon="6.35859">
        <ele>359</ele>
        <time>2023-04-30T14:29:12Z</time>
      </trkpt>
      <trkpt lat="48.10052" lon="6.35859">
        <ele>359.1</ele>
        <time>2023-04-30T14:29:13Z</time>
      </trkpt>
      <trkpt lat="48.10046" lon="6.35859">
        <ele>359.2</ele>
        <time>2023-04-30T14:29:14Z</time>
      </trkpt>
      <trkpt lat="48.1004" lon="6.3586">
        <ele>359.3</ele>
        <time>2023-04-30T14:29:15Z</time>
      </trkpt>
      <trkpt lat="48.10034" lon="6.3586">
        <ele>359.4</ele>
        <time>2023-04-30T14:29:16Z</time>
      </trkpt>
      <trkpt lat="48.10028" lon="6.35859">
        <ele>359.5</ele>
        <time>2023-04-30T14:29:17Z</time>
      </trkpt>
      <trkpt lat="48.10022" lon="6.35858">
        <ele>359.6</ele>
        <time>2023-04-30T14:29:18Z</time>
      </trkpt>
      <trkpt lat="48.10016" lon="6.35858">
        <ele>359.8</ele>
        <time>2023-04-30T14:29:19Z</time>
      </trkpt>
      <trkpt lat="48.1001" lon="6.35857">
        <ele>359.9</ele>
        <time>2023-04-30T14:29:20Z</time>
      </trkpt>
      <trkpt lat="48.10005" lon="6.35856">
        <ele>360</ele>
        <time>2023-04-30T14:29:21Z</time>
      </trkpt>
      <trkpt lat="48.09999" lon="6.35855">
        <ele>360.2</ele>
        <time>2023-04-30T14:29:22Z</time>
      </trkpt>
      <trkpt lat="48.09993" lon="6.35854">
        <ele>360.3</ele>
        <time>2023-04-30T14:29:23Z</time>
      </trkpt>
      <trkpt lat="48.09987" lon="6.35853">
        <ele>360.5</ele>
        <time>2023-04-30T14:29:24Z</time>
      </trkpt>
      <trkpt lat="48.09981" lon="6.35852">
        <ele>360.6</ele>
        <time>2023-04-30T14:29:25Z</time>
      </trkpt>
      <trkpt lat="48.09975" lon="6.35851">
        <ele>360.7</ele>
        <time>2023-04-30T14:29:26Z</time>
      </trkpt>
      <trkpt lat="48.09969" lon="6.3585">
        <ele>360.9</ele>
        <time>2023-04-30T14:29:27Z</time>
      </trkpt>
      <trkpt lat="48.09963" lon="6.3585">
        <ele>361</ele>
        <time>2023-04-30T14:29:28Z</time>
      </trkpt>
      <trkpt lat="48.09957" lon="6.35849">
        <ele>361.2</ele>
        <time>2023-04-30T14:29:29Z</time>
      </trkpt>
      <trkpt lat="48.09951" lon="6.35848">
        <ele>361.3</ele>
        <time>2023-04-30T14:29:30Z</time>
      </trkpt>
      <trkpt lat="48.09945" lon="6.35848">
        <ele>361.4</ele>
        <time>2023-04-30T14:29:31Z</time>
      </trkpt>
      <trkpt lat="48.09939" lon="6.35847">
        <ele>361.6</ele>
        <time>2023-04-30T14:29:32Z</time>
      </trkpt>
      <trkpt lat="48.09934" lon="6.35846">
        <ele>361.7</ele>
        <time>2023-04-30T14:29:33Z</time>
      </trkpt>
      <trkpt lat="48.09928" lon="6.35845">
        <ele>361.8</ele>
        <time>2023-04-30T14:29:34Z</time>
      </trkpt>
      <trkpt lat="48.09922" lon="6.35844">
        <ele>361.9</ele>
        <time>2023-04-30T14:29:35Z</time>
      </trkpt>
      <trkpt lat="48.09916" lon="6.35843">
        <ele>362.1</ele>
        <time>2023-04-30T14:29:36Z</time>
      </trkpt>
      <trkpt lat="48.0991" lon="6.35842">
        <ele>362.2</ele>
        <time>2023-04-30T14:29:37Z</time>
      </trkpt>
      <trkpt lat="48.09904" lon="6.35841">
        <ele>362.3</ele>
        <time>2023-04-30T14:29:38Z</time>
      </trkpt>
      <trkpt lat="48.09898" lon="6.3584">
        <ele>362.4</ele>
        <time>2023-04-30T14:29:39Z</time>
      </trkpt>
      <trkpt lat="48.09892" lon="6.35839">
        <ele>362.6</ele>
        <time>2023-04-30T14:29:40Z</time>
      </trkpt>
      <trkpt lat="48.09886" lon="6.35838">
        <ele>362.7</ele>
        <time>2023-04-30T14:29:41Z</time>
      </trkpt>
      <trkpt lat="48.09881" lon="6.35838">
        <ele>362.8</ele>
        <time>2023-04-30T14:29:42Z</time>
      </trkpt>
      <trkpt lat="48.09875" lon="6.35837">
        <ele>362.9</ele>
        <time>2023-04-30T14:29:43Z</time>
      </trkpt>
      <trkpt lat="48.09869" lon="6.35836">
        <ele>363</ele>
        <time>2023-04-30T14:29:44Z</time>
      </trkpt>
      <trkpt lat="48.09864" lon="6.35835">
        <ele>363</ele>
        <time>2023-04-30T14:29:45Z</time>
      </trkpt>
      <trkpt lat="48.09858" lon="6.35834">
        <ele>363.1</ele>
        <time>2023-04-30T14:29:46Z</time>
      </trkpt>
      <trkpt lat="48.09852" lon="6.35833">
        <ele>363.2</ele>
        <time>2023-04-30T14:29:47Z</time>
      </trkpt>
      <trkpt lat="48.09846" lon="6.35832">
        <ele>363.3</ele>
        <time>2023-04-30T14:29:48Z</time>
      </trkpt>
      <trkpt lat="48.0984" lon="6.35831">
        <ele>363.4</ele>
        <time>2023-04-30T14:29:49Z</time>
      </trkpt>
      <trkpt lat="48.09834" lon="6.3583">
        <ele>363.5</ele>
        <time>2023-04-30T14:29:50Z</time>
      </trkpt>
      <trkpt lat="48.09828" lon="6.35829">
        <ele>363.6</ele>
        <time>2023-04-30T14:29:51Z</time>
      </trkpt>
      <trkpt lat="48.09822" lon="6.35828">
        <ele>363.6</ele>
        <time>2023-04-30T14:29:52Z</time>
      </trkpt>
      <trkpt lat="48.09816" lon="6.35828">
        <ele>363.7</ele>
        <time>2023-04-30T14:29:53Z</time>
      </trkpt>
      <trkpt lat="48.0981" lon="6.35827">
        <ele>363.8</ele>
        <time>2023-04-30T14:29:54Z</time>
      </trkpt>
      <trkpt lat="48.09804" lon="6.35826">
        <ele>363.8</ele>
        <time>2023-04-30T14:29:55Z</time>
      </trkpt>
      <trkpt lat="48.09798" lon="6.35825">
        <ele>363.9</ele>
        <time>2023-04-30T14:29:56Z</time>
      </trkpt>
      <trkpt lat="48.09792" lon="6.35824">
        <ele>364</ele>
        <time>2023-04-30T14:29:57Z</time>
      </trkpt>
      <trkpt lat="48.09786" lon="6.35823">
        <ele>364.1</ele>
        <time>2023-04-30T14:29:58Z</time>
      </trkpt>
      <trkpt lat="48.09779" lon="6.35822">
        <ele>364.2</ele>
        <time>2023-04-30T14:29:59Z</time>
      </trkpt>
      <trkpt lat="48.09773" lon="6.35822">
        <ele>364.3</ele>
        <time>2023-04-30T14:30:00Z</time>
      </trkpt>
      <trkpt lat="48.09766" lon="6.35821">
        <ele>364.4</ele>
        <time>2023-04-30T14:30:01Z</time>
      </trkpt>
      <trkpt lat="48.09761" lon="6.35821">
        <ele>364.5</ele>
        <time>2023-04-30T14:30:02Z</time>
      </trkpt>
      <trkpt lat="48.09755" lon="6.35821">
        <ele>364.5</ele>
        <time>2023-04-30T14:30:03Z</time>
      </trkpt>
      <trkpt lat="48.0975" lon="6.35821">
        <ele>364.6</ele>
        <time>2023-04-30T14:30:04Z</time>
      </trkpt>
      <trkpt lat="48.09744" lon="6.35821">
        <ele>364.7</ele>
        <time>2023-04-30T14:30:05Z</time>
      </trkpt>
      <trkpt lat="48.09738" lon="6.35822">
        <ele>364.8</ele>
        <time>2023-04-30T14:30:06Z</time>
      </trkpt>
      <trkpt lat="48.09733" lon="6.35823">
        <ele>364.9</ele>
        <time>2023-04-30T14:30:07Z</time>
      </trkpt>
      <trkpt lat="48.09727" lon="6.35824">
        <ele>365</ele>
        <time>2023-04-30T14:30:08Z</time>
      </trkpt>
      <trkpt lat="48.09722" lon="6.35825">
        <ele>365.1</ele>
        <time>2023-04-30T14:30:09Z</time>
      </trkpt>
      <trkpt lat="48.09716" lon="6.35827">
        <ele>365.2</ele>
        <time>2023-04-30T14:30:10Z</time>
      </trkpt>
      <trkpt lat="48.09711" lon="6.35829">
        <ele>365.3</ele>
        <time>2023-04-30T14:30:11Z</time>
      </trkpt>
      <trkpt lat="48.09706" lon="6.35831">
        <ele>365.3</ele>
        <time>2023-04-30T14:30:12Z</time>
      </trkpt>
      <trkpt lat="48.09701" lon="6.35834">
        <ele>365.4</ele>
        <time>2023-04-30T14:30:13Z</time>
      </trkpt>
      <trkpt lat="48.09696" lon="6.35836">
        <ele>365.5</ele>
        <time>2023-04-30T14:30:14Z</time>
      </trkpt>
      <trkpt lat="48.09691" lon="6.35839">
        <ele>365.5</ele>
        <time>2023-04-30T14:30:15Z</time>
      </trkpt>
      <trkpt lat="48.09687" lon="6.35842">
        <ele>365.6</ele>
        <time>2023-04-30T14:30:16Z</time>
      </trkpt>
      <trkpt lat="48.09682" lon="6.35844">
        <ele>365.6</ele>
        <time>2023-04-30T14:30:17Z</time>
      </trkpt>
      <trkpt lat="48.09677" lon="6.35847">
        <ele>365.6</ele>
        <time>2023-04-30T14:30:18Z</time>
      </trkpt>
      <trkpt lat="48.09673" lon="6.3585">
        <ele>365.5</ele>
        <time>2023-04-30T14:30:19Z</time>
      </trkpt>
      <trkpt lat="48.09668" lon="6.35854">
        <ele>365.4</ele>
        <time>2023-04-30T14:30:20Z</time>
      </trkpt>
      <trkpt lat="48.09663" lon="6.35857">
        <ele>365.3</ele>
        <time>2023-04-30T14:30:21Z</time>
      </trkpt>
      <trkpt lat="48.09658" lon="6.35861">
        <ele>365.1</ele>
        <time>2023-04-30T14:30:22Z</time>
      </trkpt>
      <trkpt lat="48.09653" lon="6.35864">
        <ele>365</ele>
        <time>2023-04-30T14:30:23Z</time>
      </trkpt>
      <trkpt lat="48.09648" lon="6.35867">
        <ele>364.8</ele>
        <time>2023-04-30T14:30:24Z</time>
      </trkpt>
      <trkpt lat="48.09643" lon="6.35871">
        <ele>364.6</ele>
        <time>2023-04-30T14:30:25Z</time>
      </trkpt>
      <trkpt lat="48.09638" lon="6.35874">
        <ele>364.5</ele>
        <time>2023-04-30T14:30:26Z</time>
      </trkpt>
      <trkpt lat="48.09633" lon="6.35878">
        <ele>364.3</ele>
        <time>2023-04-30T14:30:27Z</time>
      </trkpt>
      <trkpt lat="48.09628" lon="6.35881">
        <ele>364.1</ele>
        <time>2023-04-30T14:30:28Z</time>
      </trkpt>
      <trkpt lat="48.09623" lon="6.35883">
        <ele>363.9</ele>
        <time>2023-04-30T14:30:29Z</time>
      </trkpt>
      <trkpt lat="48.09617" lon="6.35886">
        <ele>363.7</ele>
        <time>2023-04-30T14:30:30Z</time>
      </trkpt>
      <trkpt lat="48.09611" lon="6.35889">
        <ele>363.5</ele>
        <time>2023-04-30T14:30:31Z</time>
      </trkpt>
      <trkpt lat="48.09604" lon="6.35892">
        <ele>363.2</ele>
        <time>2023-04-30T14:30:32Z</time>
      </trkpt>
      <trkpt lat="48.09597" lon="6.35894">
        <ele>363</ele>
        <time>2023-04-30T14:30:33Z</time>
      </trkpt>
      <trkpt lat="48.0959" lon="6.35896">
        <ele>362.7</ele>
        <time>2023-04-30T14:30:34Z</time>
      </trkpt>
      <trkpt lat="48.09583" lon="6.35899">
        <ele>362.5</ele>
        <time>2023-04-30T14:30:35Z</time>
      </trkpt>
      <trkpt lat="48.09576" lon="6.35901">
        <ele>362.3</ele>
        <time>2023-04-30T14:30:36Z</time>
      </trkpt>
      <trkpt lat="48.09569" lon="6.35902">
        <ele>362.3</ele>
        <time>2023-04-30T14:30:37Z</time>
      </trkpt>
      <trkpt lat="48.09562" lon="6.35904">
        <ele>362</ele>
        <time>2023-04-30T14:30:38Z</time>
      </trkpt>
      <trkpt lat="48.09554" lon="6.35905">
        <ele>361.7</ele>
        <time>2023-04-30T14:30:39Z</time>
      </trkpt>
      <trkpt lat="48.09547" lon="6.35906">
        <ele>361.4</ele>
        <time>2023-04-30T14:30:40Z</time>
      </trkpt>
      <trkpt lat="48.09541" lon="6.35908">
        <ele>361</ele>
        <time>2023-04-30T14:30:41Z</time>
      </trkpt>
      <trkpt lat="48.09533" lon="6.35909">
        <ele>360.7</ele>
        <time>2023-04-30T14:30:42Z</time>
      </trkpt>
      <trkpt lat="48.09526" lon="6.35911">
        <ele>360.3</ele>
        <time>2023-04-30T14:30:43Z</time>
      </trkpt>
      <trkpt lat="48.09518" lon="6.35911">
        <ele>359.9</ele>
        <time>2023-04-30T14:30:44Z</time>
      </trkpt>
      <trkpt lat="48.09511" lon="6.35913">
        <ele>359.6</ele>
        <time>2023-04-30T14:30:45Z</time>
      </trkpt>
      <trkpt lat="48.09503" lon="6.35914">
        <ele>359.2</ele>
        <time>2023-04-30T14:30:46Z</time>
      </trkpt>
      <trkpt lat="48.09495" lon="6.35915">
        <ele>358.8</ele>
        <time>2023-04-30T14:30:47Z</time>
      </trkpt>
      <trkpt lat="48.09487" lon="6.35915">
        <ele>358.4</ele>
        <time>2023-04-30T14:30:48Z</time>
      </trkpt>
      <trkpt lat="48.09479" lon="6.35916">
        <ele>358.1</ele>
        <time>2023-04-30T14:30:49Z</time>
      </trkpt>
      <trkpt lat="48.09471" lon="6.35917">
        <ele>357.6</ele>
        <time>2023-04-30T14:30:50Z</time>
      </trkpt>
      <trkpt lat="48.09463" lon="6.35917">
        <ele>357.2</ele>
        <time>2023-04-30T14:30:51Z</time>
      </trkpt>
      <trkpt lat="48.09454" lon="6.35918">
        <ele>356.7</ele>
        <time>2023-04-30T14:30:52Z</time>
      </trkpt>
      <trkpt lat="48.09445" lon="6.35918">
        <ele>356.2</ele>
        <time>2023-04-30T14:30:53Z</time>
      </trkpt>
      <trkpt lat="48.09437" lon="6.35918">
        <ele>355.7</ele>
        <time>2023-04-30T14:30:54Z</time>
      </trkpt>
      <trkpt lat="48.09428" lon="6.35919">
        <ele>355.2</ele>
        <time>2023-04-30T14:30:55Z</time>
      </trkpt>
      <trkpt lat="48.09418" lon="6.35919">
        <ele>354.6</ele>
        <time>2023-04-30T14:30:56Z</time>
      </trkpt>
      <trkpt lat="48.09408" lon="6.35918">
        <ele>353.9</ele>
        <time>2023-04-30T14:30:57Z</time>
      </trkpt>
      <trkpt lat="48.09398" lon="6.35917">
        <ele>353.2</ele>
        <time>2023-04-30T14:30:58Z</time>
      </trkpt>
      <trkpt lat="48.09388" lon="6.35915">
        <ele>352.4</ele>
        <time>2023-04-30T14:30:59Z</time>
      </trkpt>
      <trkpt lat="48.09377" lon="6.35914">
        <ele>351.7</ele>
        <time>2023-04-30T14:31:00Z</time>
      </trkpt>
      <trkpt lat="48.09366" lon="6.35911">
        <ele>351</ele>
        <time>2023-04-30T14:31:01Z</time>
      </trkpt>
      <trkpt lat="48.09355" lon="6.35909">
        <ele>350.2</ele>
        <time>2023-04-30T14:31:02Z</time>
      </trkpt>
      <trkpt lat="48.09344" lon="6.35907">
        <ele>349.4</ele>
        <time>2023-04-30T14:31:03Z</time>
      </trkpt>
      <trkpt lat="48.09334" lon="6.35904">
        <ele>348.6</ele>
        <time>2023-04-30T14:31:04Z</time>
      </trkpt>
      <trkpt lat="48.09323" lon="6.35902">
        <ele>347.9</ele>
        <time>2023-04-30T14:31:05Z</time>
      </trkpt>
      <trkpt lat="48.09313" lon="6.359">
        <ele>347.2</ele>
        <time>2023-04-30T14:31:06Z</time>
      </trkpt>
      <trkpt lat="48.09302" lon="6.35896">
        <ele>346.5</ele>
        <time>2023-04-30T14:31:07Z</time>
      </trkpt>
      <trkpt lat="48.09291" lon="6.35894">
        <ele>346</ele>
        <time>2023-04-30T14:31:08Z</time>
      </trkpt>
      <trkpt lat="48.09281" lon="6.35892">
        <ele>345.5</ele>
        <time>2023-04-30T14:31:09Z</time>
      </trkpt>
      <trkpt lat="48.0927" lon="6.35889">
        <ele>344.9</ele>
        <time>2023-04-30T14:31:10Z</time>
      </trkpt>
      <trkpt lat="48.0926" lon="6.35887">
        <ele>344.4</ele>
        <time>2023-04-30T14:31:11Z</time>
      </trkpt>
      <trkpt lat="48.09249" lon="6.35885">
        <ele>343.9</ele>
        <time>2023-04-30T14:31:12Z</time>
      </trkpt>
      <trkpt lat="48.09239" lon="6.35883">
        <ele>343.4</ele>
        <time>2023-04-30T14:31:13Z</time>
      </trkpt>
      <trkpt lat="48.09229" lon="6.35881">
        <ele>342.9</ele>
        <time>2023-04-30T14:31:14Z</time>
      </trkpt>
      <trkpt lat="48.09218" lon="6.3588">
        <ele>342.4</ele>
        <time>2023-04-30T14:31:15Z</time>
      </trkpt>
      <trkpt lat="48.09208" lon="6.3588">
        <ele>341.9</ele>
        <time>2023-04-30T14:31:16Z</time>
      </trkpt>
      <trkpt lat="48.09198" lon="6.35882">
        <ele>341.4</ele>
        <time>2023-04-30T14:31:17Z</time>
      </trkpt>
      <trkpt lat="48.09187" lon="6.35884">
        <ele>340.9</ele>
        <time>2023-04-30T14:31:18Z</time>
      </trkpt>
      <trkpt lat="48.09178" lon="6.35888">
        <ele>340.5</ele>
        <time>2023-04-30T14:31:19Z</time>
      </trkpt>
      <trkpt lat="48.09168" lon="6.35893">
        <ele>340.1</ele>
        <time>2023-04-30T14:31:20Z</time>
      </trkpt>
      <trkpt lat="48.09159" lon="6.35899">
        <ele>339.7</ele>
        <time>2023-04-30T14:31:21Z</time>
      </trkpt>
      <trkpt lat="48.0915" lon="6.35905">
        <ele>339.4</ele>
        <time>2023-04-30T14:31:22Z</time>
      </trkpt>
      <trkpt lat="48.09141" lon="6.35911">
        <ele>339</ele>
        <time>2023-04-30T14:31:23Z</time>
      </trkpt>
      <trkpt lat="48.09132" lon="6.35917">
        <ele>338.7</ele>
        <time>2023-04-30T14:31:24Z</time>
      </trkpt>
      <trkpt lat="48.09124" lon="6.35924">
        <ele>338.5</ele>
        <time>2023-04-30T14:31:25Z</time>
      </trkpt>
      <trkpt lat="48.09115" lon="6.35929">
        <ele>338.3</ele>
        <time>2023-04-30T14:31:26Z</time>
      </trkpt>
      <trkpt lat="48.09107" lon="6.35935">
        <ele>338.2</ele>
        <time>2023-04-30T14:31:27Z</time>
      </trkpt>
      <trkpt lat="48.09099" lon="6.3594">
        <ele>338.1</ele>
        <time>2023-04-30T14:31:28Z</time>
      </trkpt>
      <trkpt lat="48.09092" lon="6.35946">
        <ele>338.1</ele>
        <time>2023-04-30T14:31:29Z</time>
      </trkpt>
      <trkpt lat="48.09085" lon="6.35952">
        <ele>338</ele>
        <time>2023-04-30T14:31:30Z</time>
      </trkpt>
      <trkpt lat="48.09077" lon="6.35957">
        <ele>338.1</ele>
        <time>2023-04-30T14:31:31Z</time>
      </trkpt>
      <trkpt lat="48.0907" lon="6.35963">
        <ele>338.1</ele>
        <time>2023-04-30T14:31:32Z</time>
      </trkpt>
      <trkpt lat="48.09063" lon="6.35968">
        <ele>338.2</ele>
        <time>2023-04-30T14:31:33Z</time>
      </trkpt>
      <trkpt lat="48.09055" lon="6.35972">
        <ele>338.4</ele>
        <time>2023-04-30T14:31:34Z</time>
      </trkpt>
      <trkpt lat="48.09049" lon="6.35976">
        <ele>338.6</ele>
        <time>2023-04-30T14:31:35Z</time>
      </trkpt>
      <trkpt lat="48.09042" lon="6.3598">
        <ele>338.9</ele>
        <time>2023-04-30T14:31:36Z</time>
      </trkpt>
      <trkpt lat="48.09036" lon="6.35983">
        <ele>339.1</ele>
        <time>2023-04-30T14:31:37Z</time>
      </trkpt>
      <trkpt lat="48.09031" lon="6.35985">
        <ele>339.3</ele>
        <time>2023-04-30T14:31:38Z</time>
      </trkpt>
      <trkpt lat="48.09027" lon="6.35987">
        <ele>339.5</ele>
        <time>2023-04-30T14:31:39Z</time>
      </trkpt>
      <trkpt lat="48.09023" lon="6.35988">
        <ele>339.7</ele>
        <time>2023-04-30T14:31:40Z</time>
      </trkpt>
      <trkpt lat="48.0902" lon="6.35989">
        <ele>339.9</ele>
        <time>2023-04-30T14:31:41Z</time>
      </trkpt>
      <trkpt lat="48.09019" lon="6.3599">
        <ele>339.9</ele>
        <time>2023-04-30T14:31:42Z</time>
      </trkpt>
      <trkpt lat="48.09017" lon="6.35993">
        <ele>340</ele>
        <time>2023-04-30T14:31:43Z</time>
      </trkpt>
      <trkpt lat="48.09017" lon="6.35994">
        <ele>340.1</ele>
        <time>2023-04-30T14:31:44Z</time>
      </trkpt>
      <trkpt lat="48.09015" lon="6.35998">
        <ele>340.2</ele>
        <time>2023-04-30T14:31:45Z</time>
      </trkpt>
      <trkpt lat="48.09014" lon="6.36002">
        <ele>340.3</ele>
        <time>2023-04-30T14:31:46Z</time>
      </trkpt>
      <trkpt lat="48.09015" lon="6.36009">
        <ele>340.4</ele>
        <time>2023-04-30T14:31:47Z</time>
      </trkpt>
      <trkpt lat="48.09016" lon="6.36016">
        <ele>340.4</ele>
        <time>2023-04-30T14:31:48Z</time>
      </trkpt>
      <trkpt lat="48.09016" lon="6.3602">
        <ele>340.4</ele>
        <time>2023-04-30T14:31:49Z</time>
      </trkpt>
      <trkpt lat="48.09017" lon="6.36026">
        <ele>340.5</ele>
        <time>2023-04-30T14:31:50Z</time>
      </trkpt>
      <trkpt lat="48.09019" lon="6.36033">
        <ele>340.5</ele>
        <time>2023-04-30T14:31:51Z</time>
      </trkpt>
      <trkpt lat="48.0902" lon="6.3604">
        <ele>340.6</ele>
        <time>2023-04-30T14:31:52Z</time>
      </trkpt>
      <trkpt lat="48.09022" lon="6.36046">
        <ele>340.7</ele>
        <time>2023-04-30T14:31:53Z</time>
      </trkpt>
      <trkpt lat="48.09024" lon="6.36053">
        <ele>340.8</ele>
        <time>2023-04-30T14:31:54Z</time>
      </trkpt>
      <trkpt lat="48.09025" lon="6.3606">
        <ele>340.8</ele>
        <time>2023-04-30T14:31:55Z</time>
      </trkpt>
      <trkpt lat="48.09027" lon="6.36065">
        <ele>340.9</ele>
        <time>2023-04-30T14:31:56Z</time>
      </trkpt>
      <trkpt lat="48.09028" lon="6.36073">
        <ele>341</ele>
        <time>2023-04-30T14:31:57Z</time>
      </trkpt>
      <trkpt lat="48.09029" lon="6.3608">
        <ele>341</ele>
        <time>2023-04-30T14:31:58Z</time>
      </trkpt>
      <trkpt lat="48.09031" lon="6.36087">
        <ele>341.1</ele>
        <time>2023-04-30T14:31:59Z</time>
      </trkpt>
      <trkpt lat="48.09032" lon="6.36094">
        <ele>341.2</ele>
        <time>2023-04-30T14:32:00Z</time>
      </trkpt>
      <trkpt lat="48.09033" lon="6.36101">
        <ele>341.2</ele>
        <time>2023-04-30T14:32:01Z</time>
      </trkpt>
      <trkpt lat="48.09035" lon="6.36108">
        <ele>341.3</ele>
        <time>2023-04-30T14:32:02Z</time>
      </trkpt>
      <trkpt lat="48.09037" lon="6.36115">
        <ele>341.4</ele>
        <time>2023-04-30T14:32:03Z</time>
      </trkpt>
      <trkpt lat="48.09038" lon="6.36122">
        <ele>341.5</ele>
        <time>2023-04-30T14:32:04Z</time>
      </trkpt>
      <trkpt lat="48.0904" lon="6.36129">
        <ele>341.5</ele>
        <time>2023-04-30T14:32:05Z</time>
      </trkpt>
      <trkpt lat="48.09042" lon="6.36135">
        <ele>341.6</ele>
        <time>2023-04-30T14:32:06Z</time>
      </trkpt>
      <trkpt lat="48.09043" lon="6.36142">
        <ele>341.7</ele>
        <time>2023-04-30T14:32:07Z</time>
      </trkpt>
      <trkpt lat="48.09045" lon="6.36148">
        <ele>341.9</ele>
        <time>2023-04-30T14:32:08Z</time>
      </trkpt>
      <trkpt lat="48.09046" lon="6.36155">
        <ele>342</ele>
        <time>2023-04-30T14:32:09Z</time>
      </trkpt>
      <trkpt lat="48.09048" lon="6.3616">
        <ele>342.1</ele>
        <time>2023-04-30T14:32:10Z</time>
      </trkpt>
      <trkpt lat="48.09049" lon="6.36168">
        <ele>342.2</ele>
        <time>2023-04-30T14:32:11Z</time>
      </trkpt>
      <trkpt lat="48.09051" lon="6.36173">
        <ele>342.3</ele>
        <time>2023-04-30T14:32:12Z</time>
      </trkpt>
      <trkpt lat="48.09052" lon="6.36178">
        <ele>342.4</ele>
        <time>2023-04-30T14:32:13Z</time>
      </trkpt>
      <trkpt lat="48.09054" lon="6.36185">
        <ele>342.5</ele>
        <time>2023-04-30T14:32:14Z</time>
      </trkpt>
      <trkpt lat="48.09056" lon="6.36191">
        <ele>342.6</ele>
        <time>2023-04-30T14:32:15Z</time>
      </trkpt>
      <trkpt lat="48.09058" lon="6.36199">
        <ele>342.7</ele>
        <time>2023-04-30T14:32:16Z</time>
      </trkpt>
      <trkpt lat="48.09061" lon="6.36207">
        <ele>342.8</ele>
        <time>2023-04-30T14:32:17Z</time>
      </trkpt>
      <trkpt lat="48.09062" lon="6.36211">
        <ele>342.9</ele>
        <time>2023-04-30T14:32:18Z</time>
      </trkpt>
      <trkpt lat="48.09064" lon="6.36217">
        <ele>343</ele>
        <time>2023-04-30T14:32:19Z</time>
      </trkpt>
      <trkpt lat="48.09066" lon="6.36224">
        <ele>343.1</ele>
        <time>2023-04-30T14:32:20Z</time>
      </trkpt>
      <trkpt lat="48.09067" lon="6.36228">
        <ele>343.1</ele>
        <time>2023-04-30T14:32:21Z</time>
      </trkpt>
      <trkpt lat="48.0907" lon="6.36235">
        <ele>343.2</ele>
        <time>2023-04-30T14:32:22Z</time>
      </trkpt>
      <trkpt lat="48.09072" lon="6.36242">
        <ele>343.3</ele>
        <time>2023-04-30T14:32:23Z</time>
      </trkpt>
      <trkpt lat="48.09074" lon="6.3625">
        <ele>343.4</ele>
        <time>2023-04-30T14:32:24Z</time>
      </trkpt>
      <trkpt lat="48.09077" lon="6.36257">
        <ele>343.5</ele>
        <time>2023-04-30T14:32:25Z</time>
      </trkpt>
      <trkpt lat="48.09078" lon="6.36263">
        <ele>343.5</ele>
        <time>2023-04-30T14:32:26Z</time>
      </trkpt>
      <trkpt lat="48.09081" lon="6.3627">
        <ele>343.5</ele>
        <time>2023-04-30T14:32:27Z</time>
      </trkpt>
      <trkpt lat="48.09083" lon="6.36277">
        <ele>343.5</ele>
        <time>2023-04-30T14:32:28Z</time>
      </trkpt>
      <trkpt lat="48.09085" lon="6.36284">
        <ele>343.5</ele>
        <time>2023-04-30T14:32:29Z</time>
      </trkpt>
      <trkpt lat="48.09087" lon="6.36291">
        <ele>343.5</ele>
        <time>2023-04-30T14:32:30Z</time>
      </trkpt>
      <trkpt lat="48.09089" lon="6.36299">
        <ele>343.4</ele>
        <time>2023-04-30T14:32:31Z</time>
      </trkpt>
      <trkpt lat="48.09091" lon="6.36308">
        <ele>343.4</ele>
        <time>2023-04-30T14:32:32Z</time>
      </trkpt>
      <trkpt lat="48.09093" lon="6.36316">
        <ele>343.3</ele>
        <time>2023-04-30T14:32:33Z</time>
      </trkpt>
      <trkpt lat="48.09096" lon="6.36323">
        <ele>343.2</ele>
        <time>2023-04-30T14:32:34Z</time>
      </trkpt>
      <trkpt lat="48.09098" lon="6.3633">
        <ele>343.1</ele>
        <time>2023-04-30T14:32:35Z</time>
      </trkpt>
      <trkpt lat="48.09101" lon="6.36338">
        <ele>343</ele>
        <time>2023-04-30T14:32:36Z</time>
      </trkpt>
      <trkpt lat="48.09103" lon="6.36346">
        <ele>342.9</ele>
        <time>2023-04-30T14:32:37Z</time>
      </trkpt>
      <trkpt lat="48.09105" lon="6.36354">
        <ele>342.8</ele>
        <time>2023-04-30T14:32:38Z</time>
      </trkpt>
      <trkpt lat="48.09108" lon="6.36362">
        <ele>342.7</ele>
        <time>2023-04-30T14:32:39Z</time>
      </trkpt>
      <trkpt lat="48.0911" lon="6.3637">
        <ele>342.6</ele>
        <time>2023-04-30T14:32:40Z</time>
      </trkpt>
      <trkpt lat="48.09113" lon="6.36378">
        <ele>342.5</ele>
        <time>2023-04-30T14:32:41Z</time>
      </trkpt>
      <trkpt lat="48.09115" lon="6.36385">
        <ele>342.4</ele>
        <time>2023-04-30T14:32:42Z</time>
      </trkpt>
      <trkpt lat="48.09118" lon="6.36392">
        <ele>342.3</ele>
        <time>2023-04-30T14:32:43Z</time>
      </trkpt>
      <trkpt lat="48.09119" lon="6.364">
        <ele>342.2</ele>
        <time>2023-04-30T14:32:44Z</time>
      </trkpt>
      <trkpt lat="48.09121" lon="6.36407">
        <ele>342.1</ele>
        <time>2023-04-30T14:32:45Z</time>
      </trkpt>
      <trkpt lat="48.09124" lon="6.36415">
        <ele>341.9</ele>
        <time>2023-04-30T14:32:46Z</time>
      </trkpt>
      <trkpt lat="48.09126" lon="6.36423">
        <ele>341.8</ele>
        <time>2023-04-30T14:32:47Z</time>
      </trkpt>
      <trkpt lat="48.09128" lon="6.36431">
        <ele>341.6</ele>
        <time>2023-04-30T14:32:48Z</time>
      </trkpt>
      <trkpt lat="48.0913" lon="6.3644">
        <ele>341.5</ele>
        <time>2023-04-30T14:32:49Z</time>
      </trkpt>
      <trkpt lat="48.09131" lon="6.36449">
        <ele>341.3</ele>
        <time>2023-04-30T14:32:50Z</time>
      </trkpt>
      <trkpt lat="48.09133" lon="6.36458">
        <ele>341.1</ele>
        <time>2023-04-30T14:32:51Z</time>
      </trkpt>
      <trkpt lat="48.09134" lon="6.36468">
        <ele>340.9</ele>
        <time>2023-04-30T14:32:52Z</time>
      </trkpt>
      <trkpt lat="48.09135" lon="6.36478">
        <ele>340.7</ele>
        <time>2023-04-30T14:32:53Z</time>
      </trkpt>
      <trkpt lat="48.09136" lon="6.36487">
        <ele>340.6</ele>
        <time>2023-04-30T14:32:54Z</time>
      </trkpt>
      <trkpt lat="48.09137" lon="6.36497">
        <ele>340.4</ele>
        <time>2023-04-30T14:32:55Z</time>
      </trkpt>
      <trkpt lat="48.09138" lon="6.36507">
        <ele>340.2</ele>
        <time>2023-04-30T14:32:56Z</time>
      </trkpt>
      <trkpt lat="48.09139" lon="6.36517">
        <ele>340</ele>
        <time>2023-04-30T14:32:57Z</time>
      </trkpt>
      <trkpt lat="48.0914" lon="6.36526">
        <ele>339.8</ele>
        <time>2023-04-30T14:32:58Z</time>
      </trkpt>
      <trkpt lat="48.09141" lon="6.36536">
        <ele>339.7</ele>
        <time>2023-04-30T14:32:59Z</time>
      </trkpt>
      <trkpt lat="48.09142" lon="6.36546">
        <ele>339.6</ele>
        <time>2023-04-30T14:33:00Z</time>
      </trkpt>
      <trkpt lat="48.09143" lon="6.36556">
        <ele>339.5</ele>
        <time>2023-04-30T14:33:01Z</time>
      </trkpt>
      <trkpt lat="48.09143" lon="6.36566">
        <ele>339.4</ele>
        <time>2023-04-30T14:33:02Z</time>
      </trkpt>
      <trkpt lat="48.09144" lon="6.36576">
        <ele>339.4</ele>
        <time>2023-04-30T14:33:03Z</time>
      </trkpt>
      <trkpt lat="48.09144" lon="6.36586">
        <ele>339.4</ele>
        <time>2023-04-30T14:33:04Z</time>
      </trkpt>
      <trkpt lat="48.09144" lon="6.36595">
        <ele>339.4</ele>
        <time>2023-04-30T14:33:05Z</time>
      </trkpt>
      <trkpt lat="48.09143" lon="6.36605">
        <ele>339.5</ele>
        <time>2023-04-30T14:33:06Z</time>
      </trkpt>
      <trkpt lat="48.09142" lon="6.36613">
        <ele>339.6</ele>
        <time>2023-04-30T14:33:07Z</time>
      </trkpt>
      <trkpt lat="48.0914" lon="6.36622">
        <ele>339.7</ele>
        <time>2023-04-30T14:33:08Z</time>
      </trkpt>
      <trkpt lat="48.09139" lon="6.36632">
        <ele>339.8</ele>
        <time>2023-04-30T14:33:09Z</time>
      </trkpt>
      <trkpt lat="48.09137" lon="6.36641">
        <ele>340</ele>
        <time>2023-04-30T14:33:10Z</time>
      </trkpt>
      <trkpt lat="48.09136" lon="6.3665">
        <ele>340.2</ele>
        <time>2023-04-30T14:33:11Z</time>
      </trkpt>
      <trkpt lat="48.09135" lon="6.3666">
        <ele>340.3</ele>
        <time>2023-04-30T14:33:12Z</time>
      </trkpt>
      <trkpt lat="48.09135" lon="6.36669">
        <ele>340.5</ele>
        <time>2023-04-30T14:33:13Z</time>
      </trkpt>
      <trkpt lat="48.09134" lon="6.36677">
        <ele>340.6</ele>
        <time>2023-04-30T14:33:14Z</time>
      </trkpt>
      <trkpt lat="48.09134" lon="6.36686">
        <ele>340.8</ele>
        <time>2023-04-30T14:33:15Z</time>
      </trkpt>
      <trkpt lat="48.09134" lon="6.36694">
        <ele>340.9</ele>
        <time>2023-04-30T14:33:16Z</time>
      </trkpt>
      <trkpt lat="48.09134" lon="6.36703">
        <ele>340.9</ele>
        <time>2023-04-30T14:33:17Z</time>
      </trkpt>
      <trkpt lat="48.09135" lon="6.36711">
        <ele>340.9</ele>
        <time>2023-04-30T14:33:18Z</time>
      </trkpt>
      <trkpt lat="48.09136" lon="6.3672">
        <ele>340.9</ele>
        <time>2023-04-30T14:33:19Z</time>
      </trkpt>
      <trkpt lat="48.09137" lon="6.36729">
        <ele>340.8</ele>
        <time>2023-04-30T14:33:20Z</time>
      </trkpt>
      <trkpt lat="48.09137" lon="6.36738">
        <ele>340.8</ele>
        <time>2023-04-30T14:33:21Z</time>
      </trkpt>
      <trkpt lat="48.09138" lon="6.36747">
        <ele>340.7</ele>
        <time>2023-04-30T14:33:22Z</time>
      </trkpt>
      <trkpt lat="48.09139" lon="6.36756">
        <ele>340.6</ele>
        <time>2023-04-30T14:33:23Z</time>
      </trkpt>
      <trkpt lat="48.09139" lon="6.36765">
        <ele>340.6</ele>
        <time>2023-04-30T14:33:24Z</time>
      </trkpt>
      <trkpt lat="48.0914" lon="6.36775">
        <ele>340.5</ele>
        <time>2023-04-30T14:33:25Z</time>
      </trkpt>
      <trkpt lat="48.09141" lon="6.36784">
        <ele>340.5</ele>
        <time>2023-04-30T14:33:26Z</time>
      </trkpt>
      <trkpt lat="48.09142" lon="6.36793">
        <ele>340.5</ele>
        <time>2023-04-30T14:33:27Z</time>
      </trkpt>
      <trkpt lat="48.09142" lon="6.36803">
        <ele>340.4</ele>
        <time>2023-04-30T14:33:28Z</time>
      </trkpt>
      <trkpt lat="48.09143" lon="6.36813">
        <ele>340.4</ele>
        <time>2023-04-30T14:33:29Z</time>
      </trkpt>
      <trkpt lat="48.09144" lon="6.36822">
        <ele>340.5</ele>
        <time>2023-04-30T14:33:30Z</time>
      </trkpt>
      <trkpt lat="48.09144" lon="6.36832">
        <ele>340.5</ele>
        <time>2023-04-30T14:33:31Z</time>
      </trkpt>
      <trkpt lat="48.09145" lon="6.36841">
        <ele>340.5</ele>
        <time>2023-04-30T14:33:32Z</time>
      </trkpt>
      <trkpt lat="48.09146" lon="6.3685">
        <ele>340.6</ele>
        <time>2023-04-30T14:33:33Z</time>
      </trkpt>
      <trkpt lat="48.09146" lon="6.3686">
        <ele>340.6</ele>
        <time>2023-04-30T14:33:34Z</time>
      </trkpt>
      <trkpt lat="48.09147" lon="6.36868">
        <ele>340.7</ele>
        <time>2023-04-30T14:33:35Z</time>
      </trkpt>
      <trkpt lat="48.09146" lon="6.36877">
        <ele>340.8</ele>
        <time>2023-04-30T14:33:36Z</time>
      </trkpt>
      <trkpt lat="48.09146" lon="6.36885">
        <ele>340.8</ele>
        <time>2023-04-30T14:33:37Z</time>
      </trkpt>
      <trkpt lat="48.09146" lon="6.36895">
        <ele>340.9</ele>
        <time>2023-04-30T14:33:38Z</time>
      </trkpt>
      <trkpt lat="48.09146" lon="6.36904">
        <ele>341</ele>
        <time>2023-04-30T14:33:39Z</time>
      </trkpt>
      <trkpt lat="48.09146" lon="6.36912">
        <ele>341</ele>
        <time>2023-04-30T14:33:40Z</time>
      </trkpt>
      <trkpt lat="48.09146" lon="6.36921">
        <ele>341.1</ele>
        <time>2023-04-30T14:33:41Z</time>
      </trkpt>
      <trkpt lat="48.09146" lon="6.36929">
        <ele>341.1</ele>
        <time>2023-04-30T14:33:42Z</time>
      </trkpt>
      <trkpt lat="48.09146" lon="6.36939">
        <ele>341.2</ele>
        <time>2023-04-30T14:33:43Z</time>
      </trkpt>
      <trkpt lat="48.09146" lon="6.36947">
        <ele>341.2</ele>
        <time>2023-04-30T14:33:44Z</time>
      </trkpt>
      <trkpt lat="48.09146" lon="6.36954">
        <ele>341.2</ele>
        <time>2023-04-30T14:33:45Z</time>
      </trkpt>
      <trkpt lat="48.09147" lon="6.36962">
        <ele>341.3</ele>
        <time>2023-04-30T14:33:46Z</time>
      </trkpt>
      <trkpt lat="48.09147" lon="6.36972">
        <ele>341.3</ele>
        <time>2023-04-30T14:33:47Z</time>
      </trkpt>
      <trkpt lat="48.09147" lon="6.36982">
        <ele>341.3</ele>
        <time>2023-04-30T14:33:48Z</time>
      </trkpt>
      <trkpt lat="48.09147" lon="6.36991">
        <ele>341.2</ele>
        <time>2023-04-30T14:33:49Z</time>
      </trkpt>
      <trkpt lat="48.09148" lon="6.37001">
        <ele>341.2</ele>
        <time>2023-04-30T14:33:50Z</time>
      </trkpt>
      <trkpt lat="48.09149" lon="6.3701">
        <ele>341.2</ele>
        <time>2023-04-30T14:33:51Z</time>
      </trkpt>
      <trkpt lat="48.09149" lon="6.3702">
        <ele>341.2</ele>
        <time>2023-04-30T14:33:52Z</time>
      </trkpt>
      <trkpt lat="48.0915" lon="6.37029">
        <ele>341.2</ele>
        <time>2023-04-30T14:33:53Z</time>
      </trkpt>
      <trkpt lat="48.09151" lon="6.3704">
        <ele>341.2</ele>
        <time>2023-04-30T14:33:54Z</time>
      </trkpt>
      <trkpt lat="48.09152" lon="6.3705">
        <ele>341.2</ele>
        <time>2023-04-30T14:33:55Z</time>
      </trkpt>
      <trkpt lat="48.09153" lon="6.37058">
        <ele>341.2</ele>
        <time>2023-04-30T14:33:56Z</time>
      </trkpt>
      <trkpt lat="48.09154" lon="6.37066">
        <ele>341.2</ele>
        <time>2023-04-30T14:33:57Z</time>
      </trkpt>
      <trkpt lat="48.09155" lon="6.37074">
        <ele>341.3</ele>
        <time>2023-04-30T14:33:58Z</time>
      </trkpt>
      <trkpt lat="48.09156" lon="6.37079">
        <ele>341.3</ele>
        <time>2023-04-30T14:33:59Z</time>
      </trkpt>
      <trkpt lat="48.09157" lon="6.37088">
        <ele>341.3</ele>
        <time>2023-04-30T14:34:00Z</time>
      </trkpt>
      <trkpt lat="48.09158" lon="6.37097">
        <ele>341.3</ele>
        <time>2023-04-30T14:34:01Z</time>
      </trkpt>
      <trkpt lat="48.0916" lon="6.37104">
        <ele>341.4</ele>
        <time>2023-04-30T14:34:02Z</time>
      </trkpt>
      <trkpt lat="48.09161" lon="6.37111">
        <ele>341.4</ele>
        <time>2023-04-30T14:34:03Z</time>
      </trkpt>
      <trkpt lat="48.09164" lon="6.37124">
        <ele>341.4</ele>
        <time>2023-04-30T14:34:04Z</time>
      </trkpt>
      <trkpt lat="48.09166" lon="6.37138">
        <ele>341.4</ele>
        <time>2023-04-30T14:34:05Z</time>
      </trkpt>
      <trkpt lat="48.09169" lon="6.37149">
        <ele>341.4</ele>
        <time>2023-04-30T14:34:06Z</time>
      </trkpt>
      <trkpt lat="48.09171" lon="6.37158">
        <ele>341.4</ele>
        <time>2023-04-30T14:34:07Z</time>
      </trkpt>
      <trkpt lat="48.09173" lon="6.37169">
        <ele>341.4</ele>
        <time>2023-04-30T14:34:08Z</time>
      </trkpt>
      <trkpt lat="48.09175" lon="6.37178">
        <ele>341.5</ele>
        <time>2023-04-30T14:34:09Z</time>
      </trkpt>
      <trkpt lat="48.09177" lon="6.37186">
        <ele>341.5</ele>
        <time>2023-04-30T14:34:10Z</time>
      </trkpt>
      <trkpt lat="48.09179" lon="6.37195">
        <ele>341.5</ele>
        <time>2023-04-30T14:34:11Z</time>
      </trkpt>
      <trkpt lat="48.0918" lon="6.37202">
        <ele>341.5</ele>
        <time>2023-04-30T14:34:12Z</time>
      </trkpt>
      <trkpt lat="48.09181" lon="6.37209">
        <ele>341.5</ele>
        <time>2023-04-30T14:34:13Z</time>
      </trkpt>
      <trkpt lat="48.09183" lon="6.37217">
        <ele>341.6</ele>
        <time>2023-04-30T14:34:14Z</time>
      </trkpt>
      <trkpt lat="48.09185" lon="6.37226">
        <ele>341.6</ele>
        <time>2023-04-30T14:34:15Z</time>
      </trkpt>
      <trkpt lat="48.09188" lon="6.37236">
        <ele>341.7</ele>
        <time>2023-04-30T14:34:16Z</time>
      </trkpt>
      <trkpt lat="48.09189" lon="6.37244">
        <ele>341.7</ele>
        <time>2023-04-30T14:34:17Z</time>
      </trkpt>
      <trkpt lat="48.09192" lon="6.37252">
        <ele>341.8</ele>
        <time>2023-04-30T14:34:18Z</time>
      </trkpt>
      <trkpt lat="48.09194" lon="6.37261">
        <ele>341.9</ele>
        <time>2023-04-30T14:34:19Z</time>
      </trkpt>
      <trkpt lat="48.09196" lon="6.37269">
        <ele>341.9</ele>
        <time>2023-04-30T14:34:20Z</time>
      </trkpt>
      <trkpt lat="48.09198" lon="6.37278">
        <ele>342</ele>
        <time>2023-04-30T14:34:21Z</time>
      </trkpt>
      <trkpt lat="48.092" lon="6.37287">
        <ele>342</ele>
        <time>2023-04-30T14:34:22Z</time>
      </trkpt>
      <trkpt lat="48.09202" lon="6.37295">
        <ele>342</ele>
        <time>2023-04-30T14:34:23Z</time>
      </trkpt>
      <trkpt lat="48.09204" lon="6.37303">
        <ele>342.1</ele>
        <time>2023-04-30T14:34:24Z</time>
      </trkpt>
      <trkpt lat="48.09206" lon="6.37312">
        <ele>342.1</ele>
        <time>2023-04-30T14:34:25Z</time>
      </trkpt>
      <trkpt lat="48.09208" lon="6.3732">
        <ele>342.1</ele>
        <time>2023-04-30T14:34:26Z</time>
      </trkpt>
      <trkpt lat="48.0921" lon="6.37328">
        <ele>342.2</ele>
        <time>2023-04-30T14:34:27Z</time>
      </trkpt>
      <trkpt lat="48.09212" lon="6.37336">
        <ele>342.2</ele>
        <time>2023-04-30T14:34:28Z</time>
      </trkpt>
      <trkpt lat="48.09214" lon="6.37345">
        <ele>342.3</ele>
        <time>2023-04-30T14:34:29Z</time>
      </trkpt>
      <trkpt lat="48.09215" lon="6.37353">
        <ele>342.3</ele>
        <time>2023-04-30T14:34:30Z</time>
      </trkpt>
      <trkpt lat="48.09217" lon="6.37361">
        <ele>342.4</ele>
        <time>2023-04-30T14:34:31Z</time>
      </trkpt>
      <trkpt lat="48.09219" lon="6.37369">
        <ele>342.5</ele>
        <time>2023-04-30T14:34:32Z</time>
      </trkpt>
      <trkpt lat="48.09221" lon="6.37378">
        <ele>342.5</ele>
        <time>2023-04-30T14:34:33Z</time>
      </trkpt>
      <trkpt lat="48.09223" lon="6.37386">
        <ele>342.6</ele>
        <time>2023-04-30T14:34:34Z</time>
      </trkpt>
      <trkpt lat="48.09225" lon="6.37394">
        <ele>342.7</ele>
        <time>2023-04-30T14:34:35Z</time>
      </trkpt>
      <trkpt lat="48.09226" lon="6.37401">
        <ele>342.7</ele>
        <time>2023-04-30T14:34:36Z</time>
      </trkpt>
      <trkpt lat="48.09228" lon="6.37409">
        <ele>342.8</ele>
        <time>2023-04-30T14:34:37Z</time>
      </trkpt>
      <trkpt lat="48.0923" lon="6.37417">
        <ele>342.9</ele>
        <time>2023-04-30T14:34:38Z</time>
      </trkpt>
      <trkpt lat="48.09232" lon="6.37424">
        <ele>343</ele>
        <time>2023-04-30T14:34:39Z</time>
      </trkpt>
      <trkpt lat="48.09234" lon="6.37433">
        <ele>343</ele>
        <time>2023-04-30T14:34:40Z</time>
      </trkpt>
      <trkpt lat="48.09237" lon="6.37441">
        <ele>343.1</ele>
        <time>2023-04-30T14:34:41Z</time>
      </trkpt>
      <trkpt lat="48.09239" lon="6.37448">
        <ele>343.1</ele>
        <time>2023-04-30T14:34:42Z</time>
      </trkpt>
      <trkpt lat="48.09241" lon="6.37455">
        <ele>343.1</ele>
        <time>2023-04-30T14:34:43Z</time>
      </trkpt>
      <trkpt lat="48.09243" lon="6.37463">
        <ele>343.2</ele>
        <time>2023-04-30T14:34:44Z</time>
      </trkpt>
      <trkpt lat="48.09245" lon="6.37471">
        <ele>343.2</ele>
        <time>2023-04-30T14:34:45Z</time>
      </trkpt>
      <trkpt lat="48.09248" lon="6.37479">
        <ele>343.2</ele>
        <time>2023-04-30T14:34:46Z</time>
      </trkpt>
      <trkpt lat="48.0925" lon="6.37487">
        <ele>343.3</ele>
        <time>2023-04-30T14:34:47Z</time>
      </trkpt>
      <trkpt lat="48.09253" lon="6.37495">
        <ele>343.3</ele>
        <time>2023-04-30T14:34:48Z</time>
      </trkpt>
      <trkpt lat="48.09255" lon="6.37502">
        <ele>343.4</ele>
        <time>2023-04-30T14:34:49Z</time>
      </trkpt>
      <trkpt lat="48.09258" lon="6.37509">
        <ele>343.4</ele>
        <time>2023-04-30T14:34:50Z</time>
      </trkpt>
      <trkpt lat="48.0926" lon="6.37516">
        <ele>343.5</ele>
        <time>2023-04-30T14:34:51Z</time>
      </trkpt>
      <trkpt lat="48.09262" lon="6.37524">
        <ele>343.6</ele>
        <time>2023-04-30T14:34:52Z</time>
      </trkpt>
      <trkpt lat="48.09264" lon="6.37531">
        <ele>343.6</ele>
        <time>2023-04-30T14:34:53Z</time>
      </trkpt>
      <trkpt lat="48.09267" lon="6.37539">
        <ele>343.7</ele>
        <time>2023-04-30T14:34:54Z</time>
      </trkpt>
      <trkpt lat="48.09269" lon="6.37546">
        <ele>343.7</ele>
        <time>2023-04-30T14:34:55Z</time>
      </trkpt>
      <trkpt lat="48.09271" lon="6.37553">
        <ele>343.8</ele>
        <time>2023-04-30T14:34:56Z</time>
      </trkpt>
      <trkpt lat="48.09272" lon="6.37561">
        <ele>343.9</ele>
        <time>2023-04-30T14:34:57Z</time>
      </trkpt>
      <trkpt lat="48.09275" lon="6.37568">
        <ele>344</ele>
        <time>2023-04-30T14:34:58Z</time>
      </trkpt>
      <trkpt lat="48.09277" lon="6.37575">
        <ele>344</ele>
        <time>2023-04-30T14:34:59Z</time>
      </trkpt>
      <trkpt lat="48.09278" lon="6.37583">
        <ele>344.1</ele>
        <time>2023-04-30T14:35:00Z</time>
      </trkpt>
      <trkpt lat="48.0928" lon="6.37591">
        <ele>344.2</ele>
        <time>2023-04-30T14:35:01Z</time>
      </trkpt>
      <trkpt lat="48.09281" lon="6.37599">
        <ele>344.2</ele>
        <time>2023-04-30T14:35:02Z</time>
      </trkpt>
      <trkpt lat="48.09282" lon="6.37606">
        <ele>344.3</ele>
        <time>2023-04-30T14:35:03Z</time>
      </trkpt>
      <trkpt lat="48.09283" lon="6.37614">
        <ele>344.3</ele>
        <time>2023-04-30T14:35:04Z</time>
      </trkpt>
      <trkpt lat="48.09284" lon="6.37622">
        <ele>344.4</ele>
        <time>2023-04-30T14:35:05Z</time>
      </trkpt>
      <trkpt lat="48.09285" lon="6.3763">
        <ele>344.4</ele>
        <time>2023-04-30T14:35:06Z</time>
      </trkpt>
      <trkpt lat="48.09286" lon="6.37637">
        <ele>344.4</ele>
        <time>2023-04-30T14:35:07Z</time>
      </trkpt>
      <trkpt lat="48.09287" lon="6.37643">
        <ele>344.4</ele>
        <time>2023-04-30T14:35:08Z</time>
      </trkpt>
      <trkpt lat="48.09287" lon="6.37648">
        <ele>344.4</ele>
        <time>2023-04-30T14:35:09Z</time>
      </trkpt>
      <trkpt lat="48.09288" lon="6.37654">
        <ele>344.4</ele>
        <time>2023-04-30T14:35:10Z</time>
      </trkpt>
      <trkpt lat="48.0929" lon="6.37663">
        <ele>344.5</ele>
        <time>2023-04-30T14:35:11Z</time>
      </trkpt>
      <trkpt lat="48.09292" lon="6.3767">
        <ele>344.5</ele>
        <time>2023-04-30T14:35:12Z</time>
      </trkpt>
      <trkpt lat="48.09294" lon="6.37679">
        <ele>344.5</ele>
        <time>2023-04-30T14:35:13Z</time>
      </trkpt>
      <trkpt lat="48.09294" lon="6.37686">
        <ele>344.5</ele>
        <time>2023-04-30T14:35:14Z</time>
      </trkpt>
      <trkpt lat="48.09295" lon="6.37693">
        <ele>344.5</ele>
        <time>2023-04-30T14:35:15Z</time>
      </trkpt>
      <trkpt lat="48.09297" lon="6.37701">
        <ele>344.5</ele>
        <time>2023-04-30T14:35:16Z</time>
      </trkpt>
      <trkpt lat="48.09299" lon="6.37709">
        <ele>344.6</ele>
        <time>2023-04-30T14:35:17Z</time>
      </trkpt>
      <trkpt lat="48.093" lon="6.37717">
        <ele>344.6</ele>
        <time>2023-04-30T14:35:18Z</time>
      </trkpt>
      <trkpt lat="48.09303" lon="6.37726">
        <ele>344.6</ele>
        <time>2023-04-30T14:35:19Z</time>
      </trkpt>
      <trkpt lat="48.09304" lon="6.37736">
        <ele>344.6</ele>
        <time>2023-04-30T14:35:20Z</time>
      </trkpt>
      <trkpt lat="48.09306" lon="6.37746">
        <ele>344.6</ele>
        <time>2023-04-30T14:35:21Z</time>
      </trkpt>
      <trkpt lat="48.09307" lon="6.37754">
        <ele>344.7</ele>
        <time>2023-04-30T14:35:22Z</time>
      </trkpt>
      <trkpt lat="48.09308" lon="6.37763">
        <ele>344.7</ele>
        <time>2023-04-30T14:35:23Z</time>
      </trkpt>
      <trkpt lat="48.09308" lon="6.37769">
        <ele>344.7</ele>
        <time>2023-04-30T14:35:24Z</time>
      </trkpt>
      <trkpt lat="48.09309" lon="6.37776">
        <ele>344.8</ele>
        <time>2023-04-30T14:35:25Z</time>
      </trkpt>
      <trkpt lat="48.0931" lon="6.37782">
        <ele>344.8</ele>
        <time>2023-04-30T14:35:26Z</time>
      </trkpt>
      <trkpt lat="48.09311" lon="6.37792">
        <ele>344.9</ele>
        <time>2023-04-30T14:35:27Z</time>
      </trkpt>
      <trkpt lat="48.09313" lon="6.37801">
        <ele>345</ele>
        <time>2023-04-30T14:35:28Z</time>
      </trkpt>
      <trkpt lat="48.09314" lon="6.37809">
        <ele>345.1</ele>
        <time>2023-04-30T14:35:29Z</time>
      </trkpt>
      <trkpt lat="48.09316" lon="6.37816">
        <ele>345.2</ele>
        <time>2023-04-30T14:35:30Z</time>
      </trkpt>
      <trkpt lat="48.09317" lon="6.37826">
        <ele>345.3</ele>
        <time>2023-04-30T14:35:31Z</time>
      </trkpt>
      <trkpt lat="48.09318" lon="6.37836">
        <ele>345.3</ele>
        <time>2023-04-30T14:35:32Z</time>
      </trkpt>
      <trkpt lat="48.09318" lon="6.37846">
        <ele>345.4</ele>
        <time>2023-04-30T14:35:33Z</time>
      </trkpt>
      <trkpt lat="48.09319" lon="6.37857">
        <ele>345.6</ele>
        <time>2023-04-30T14:35:34Z</time>
      </trkpt>
      <trkpt lat="48.09321" lon="6.37869">
        <ele>345.7</ele>
        <time>2023-04-30T14:35:35Z</time>
      </trkpt>
      <trkpt lat="48.09321" lon="6.37879">
        <ele>345.9</ele>
        <time>2023-04-30T14:35:36Z</time>
      </trkpt>
      <trkpt lat="48.09321" lon="6.37887">
        <ele>346</ele>
        <time>2023-04-30T14:35:37Z</time>
      </trkpt>
      <trkpt lat="48.0932" lon="6.37895">
        <ele>346.1</ele>
        <time>2023-04-30T14:35:38Z</time>
      </trkpt>
      <trkpt lat="48.09319" lon="6.37903">
        <ele>346.2</ele>
        <time>2023-04-30T14:35:39Z</time>
      </trkpt>
      <trkpt lat="48.09318" lon="6.37909">
        <ele>346.3</ele>
        <time>2023-04-30T14:35:40Z</time>
      </trkpt>
      <trkpt lat="48.09317" lon="6.37916">
        <ele>346.4</ele>
        <time>2023-04-30T14:35:41Z</time>
      </trkpt>
      <trkpt lat="48.09316" lon="6.37924">
        <ele>346.4</ele>
        <time>2023-04-30T14:35:42Z</time>
      </trkpt>
      <trkpt lat="48.09316" lon="6.37931">
        <ele>346.5</ele>
        <time>2023-04-30T14:35:43Z</time>
      </trkpt>
      <trkpt lat="48.09314" lon="6.37938">
        <ele>346.6</ele>
        <time>2023-04-30T14:35:44Z</time>
      </trkpt>
      <trkpt lat="48.09312" lon="6.37946">
        <ele>346.6</ele>
        <time>2023-04-30T14:35:45Z</time>
      </trkpt>
      <trkpt lat="48.09311" lon="6.37954">
        <ele>346.7</ele>
        <time>2023-04-30T14:35:46Z</time>
      </trkpt>
      <trkpt lat="48.09309" lon="6.37962">
        <ele>346.8</ele>
        <time>2023-04-30T14:35:47Z</time>
      </trkpt>
      <trkpt lat="48.09308" lon="6.3797">
        <ele>346.8</ele>
        <time>2023-04-30T14:35:48Z</time>
      </trkpt>
      <trkpt lat="48.09306" lon="6.37978">
        <ele>346.8</ele>
        <time>2023-04-30T14:35:49Z</time>
      </trkpt>
      <trkpt lat="48.09306" lon="6.37987">
        <ele>346.9</ele>
        <time>2023-04-30T14:35:50Z</time>
      </trkpt>
      <trkpt lat="48.09305" lon="6.37996">
        <ele>346.9</ele>
        <time>2023-04-30T14:35:51Z</time>
      </trkpt>
      <trkpt lat="48.09305" lon="6.38004">
        <ele>346.9</ele>
        <time>2023-04-30T14:35:52Z</time>
      </trkpt>
      <trkpt lat="48.09305" lon="6.38013">
        <ele>346.9</ele>
        <time>2023-04-30T14:35:53Z</time>
      </trkpt>
      <trkpt lat="48.09304" lon="6.38023">
        <ele>346.9</ele>
        <time>2023-04-30T14:35:54Z</time>
      </trkpt>
      <trkpt lat="48.09304" lon="6.38031">
        <ele>346.9</ele>
        <time>2023-04-30T14:35:55Z</time>
      </trkpt>
      <trkpt lat="48.09305" lon="6.38043">
        <ele>347</ele>
        <time>2023-04-30T14:35:56Z</time>
      </trkpt>
      <trkpt lat="48.09306" lon="6.38053">
        <ele>347</ele>
        <time>2023-04-30T14:35:57Z</time>
      </trkpt>
      <trkpt lat="48.09307" lon="6.38062">
        <ele>347.1</ele>
        <time>2023-04-30T14:35:58Z</time>
      </trkpt>
      <trkpt lat="48.09308" lon="6.38071">
        <ele>347.1</ele>
        <time>2023-04-30T14:35:59Z</time>
      </trkpt>
      <trkpt lat="48.0931" lon="6.38079">
        <ele>347.2</ele>
        <time>2023-04-30T14:36:00Z</time>
      </trkpt>
      <trkpt lat="48.09312" lon="6.38086">
        <ele>347.2</ele>
        <time>2023-04-30T14:36:01Z</time>
      </trkpt>
      <trkpt lat="48.09313" lon="6.38093">
        <ele>347.3</ele>
        <time>2023-04-30T14:36:02Z</time>
      </trkpt>
      <trkpt lat="48.09315" lon="6.38101">
        <ele>347.3</ele>
        <time>2023-04-30T14:36:03Z</time>
      </trkpt>
      <trkpt lat="48.09317" lon="6.38109">
        <ele>347.3</ele>
        <time>2023-04-30T14:36:04Z</time>
      </trkpt>
      <trkpt lat="48.09318" lon="6.38114">
        <ele>347.3</ele>
        <time>2023-04-30T14:36:05Z</time>
      </trkpt>
      <trkpt lat="48.09319" lon="6.38119">
        <ele>347.3</ele>
        <time>2023-04-30T14:36:06Z</time>
      </trkpt>
      <trkpt lat="48.09322" lon="6.38129">
        <ele>347.3</ele>
        <time>2023-04-30T14:36:07Z</time>
      </trkpt>
      <trkpt lat="48.09324" lon="6.38138">
        <ele>347.3</ele>
        <time>2023-04-30T14:36:08Z</time>
      </trkpt>
      <trkpt lat="48.09326" lon="6.38147">
        <ele>347.4</ele>
        <time>2023-04-30T14:36:09Z</time>
      </trkpt>
      <trkpt lat="48.09328" lon="6.38155">
        <ele>347.4</ele>
        <time>2023-04-30T14:36:10Z</time>
      </trkpt>
      <trkpt lat="48.0933" lon="6.38163">
        <ele>347.4</ele>
        <time>2023-04-30T14:36:11Z</time>
      </trkpt>
      <trkpt lat="48.09332" lon="6.3817">
        <ele>347.5</ele>
        <time>2023-04-30T14:36:12Z</time>
      </trkpt>
      <trkpt lat="48.09333" lon="6.38177">
        <ele>347.5</ele>
        <time>2023-04-30T14:36:13Z</time>
      </trkpt>
      <trkpt lat="48.09335" lon="6.38185">
        <ele>347.5</ele>
        <time>2023-04-30T14:36:14Z</time>
      </trkpt>
      <trkpt lat="48.09337" lon="6.38194">
        <ele>347.6</ele>
        <time>2023-04-30T14:36:15Z</time>
      </trkpt>
      <trkpt lat="48.0934" lon="6.38204">
        <ele>347.7</ele>
        <time>2023-04-30T14:36:16Z</time>
      </trkpt>
      <trkpt lat="48.09343" lon="6.38212">
        <ele>347.7</ele>
        <time>2023-04-30T14:36:17Z</time>
      </trkpt>
      <trkpt lat="48.09345" lon="6.38219">
        <ele>347.7</ele>
        <time>2023-04-30T14:36:18Z</time>
      </trkpt>
      <trkpt lat="48.09347" lon="6.38225">
        <ele>347.8</ele>
        <time>2023-04-30T14:36:19Z</time>
      </trkpt>
      <trkpt lat="48.0935" lon="6.38233">
        <ele>347.8</ele>
        <time>2023-04-30T14:36:20Z</time>
      </trkpt>
      <trkpt lat="48.09351" lon="6.38238">
        <ele>347.8</ele>
        <time>2023-04-30T14:36:21Z</time>
      </trkpt>
      <trkpt lat="48.09351" lon="6.38239">
        <ele>347.8</ele>
        <time>2023-04-30T14:36:22Z</time>
      </trkpt>
      <trkpt lat="48.09352" lon="6.38243">
        <ele>347.8</ele>
        <time>2023-04-30T14:36:23Z</time>
      </trkpt>
      <trkpt lat="48.09352" lon="6.38247">
        <ele>347.8</ele>
        <time>2023-04-30T14:36:24Z</time>
      </trkpt>
      <trkpt lat="48.09351" lon="6.38249">
        <ele>347.8</ele>
        <time>2023-04-30T14:36:25Z</time>
      </trkpt>
      <trkpt lat="48.09348" lon="6.38253">
        <ele>347.7</ele>
        <time>2023-04-30T14:36:26Z</time>
      </trkpt>
      <trkpt lat="48.09345" lon="6.38255">
        <ele>347.7</ele>
        <time>2023-04-30T14:36:27Z</time>
      </trkpt>
      <trkpt lat="48.09341" lon="6.38258">
        <ele>347.7</ele>
        <time>2023-04-30T14:36:28Z</time>
      </trkpt>
      <trkpt lat="48.09328" lon="6.38271">
        <ele>347.4</ele>
        <time>2023-04-30T14:36:30Z</time>
      </trkpt>
      <trkpt lat="48.09323" lon="6.38275">
        <ele>347.3</ele>
        <time>2023-04-30T14:36:31Z</time>
      </trkpt>
      <trkpt lat="48.0932" lon="6.3828">
        <ele>347.3</ele>
        <time>2023-04-30T14:36:32Z</time>
      </trkpt>
      <trkpt lat="48.09316" lon="6.38284">
        <ele>347.2</ele>
        <time>2023-04-30T14:36:33Z</time>
      </trkpt>
      <trkpt lat="48.09311" lon="6.3829">
        <ele>347.1</ele>
        <time>2023-04-30T14:36:34Z</time>
      </trkpt>
      <trkpt lat="48.09303" lon="6.38297">
        <ele>347.1</ele>
        <time>2023-04-30T14:36:36Z</time>
      </trkpt>
      <trkpt lat="48.09299" lon="6.383">
        <ele>347.1</ele>
        <time>2023-04-30T14:36:37Z</time>
      </trkpt>
      <trkpt lat="48.09295" lon="6.38304">
        <ele>347.1</ele>
        <time>2023-04-30T14:36:38Z</time>
      </trkpt>
      <trkpt lat="48.0929" lon="6.38308">
        <ele>347.1</ele>
        <time>2023-04-30T14:36:39Z</time>
      </trkpt>
      <trkpt lat="48.09285" lon="6.38314">
        <ele>347.1</ele>
        <time>2023-04-30T14:36:40Z</time>
      </trkpt>
      <trkpt lat="48.0928" lon="6.38321">
        <ele>347.1</ele>
        <time>2023-04-30T14:36:41Z</time>
      </trkpt>
      <trkpt lat="48.09274" lon="6.38328">
        <ele>347.2</ele>
        <time>2023-04-30T14:36:42Z</time>
      </trkpt>
      <trkpt lat="48.0927" lon="6.38335">
        <ele>347.3</ele>
        <time>2023-04-30T14:36:43Z</time>
      </trkpt>
      <trkpt lat="48.09267" lon="6.38345">
        <ele>347.4</ele>
        <time>2023-04-30T14:36:44Z</time>
      </trkpt>
      <trkpt lat="48.09264" lon="6.38355">
        <ele>347.4</ele>
        <time>2023-04-30T14:36:45Z</time>
      </trkpt>
      <trkpt lat="48.09262" lon="6.38364">
        <ele>347.5</ele>
        <time>2023-04-30T14:36:46Z</time>
      </trkpt>
      <trkpt lat="48.0926" lon="6.38372">
        <ele>347.6</ele>
        <time>2023-04-30T14:36:47Z</time>
      </trkpt>
      <trkpt lat="48.09258" lon="6.38381">
        <ele>347.7</ele>
        <time>2023-04-30T14:36:48Z</time>
      </trkpt>
      <trkpt lat="48.09256" lon="6.38389">
        <ele>347.7</ele>
        <time>2023-04-30T14:36:49Z</time>
      </trkpt>
      <trkpt lat="48.09255" lon="6.38397">
        <ele>347.8</ele>
        <time>2023-04-30T14:36:50Z</time>
      </trkpt>
      <trkpt lat="48.09252" lon="6.38404">
        <ele>347.9</ele>
        <time>2023-04-30T14:36:51Z</time>
      </trkpt>
      <trkpt lat="48.09249" lon="6.3841">
        <ele>347.9</ele>
        <time>2023-04-30T14:36:52Z</time>
      </trkpt>
      <trkpt lat="48.09246" lon="6.38414">
        <ele>348</ele>
        <time>2023-04-30T14:36:53Z</time>
      </trkpt>
      <trkpt lat="48.09241" lon="6.38419">
        <ele>348.1</ele>
        <time>2023-04-30T14:36:54Z</time>
      </trkpt>
      <trkpt lat="48.09237" lon="6.38423">
        <ele>348.1</ele>
        <time>2023-04-30T14:36:55Z</time>
      </trkpt>
      <trkpt lat="48.09233" lon="6.38429">
        <ele>348.2</ele>
        <time>2023-04-30T14:36:56Z</time>
      </trkpt>
      <trkpt lat="48.09229" lon="6.38434">
        <ele>348.2</ele>
        <time>2023-04-30T14:36:57Z</time>
      </trkpt>
      <trkpt lat="48.09224" lon="6.38439">
        <ele>348.3</ele>
        <time>2023-04-30T14:36:58Z</time>
      </trkpt>
      <trkpt lat="48.0922" lon="6.38445">
        <ele>348.3</ele>
        <time>2023-04-30T14:36:59Z</time>
      </trkpt>
      <trkpt lat="48.09216" lon="6.38451">
        <ele>348.4</ele>
        <time>2023-04-30T14:37:00Z</time>
      </trkpt>
      <trkpt lat="48.09212" lon="6.38457">
        <ele>348.6</ele>
        <time>2023-04-30T14:37:01Z</time>
      </trkpt>
      <trkpt lat="48.09208" lon="6.38461">
        <ele>348.7</ele>
        <time>2023-04-30T14:37:02Z</time>
      </trkpt>
      <trkpt lat="48.09205" lon="6.38466">
        <ele>348.9</ele>
        <time>2023-04-30T14:37:03Z</time>
      </trkpt>
      <trkpt lat="48.09201" lon="6.38472">
        <ele>349.1</ele>
        <time>2023-04-30T14:37:04Z</time>
      </trkpt>
      <trkpt lat="48.09197" lon="6.38477">
        <ele>349.3</ele>
        <time>2023-04-30T14:37:05Z</time>
      </trkpt>
      <trkpt lat="48.09194" lon="6.38481">
        <ele>349.5</ele>
        <time>2023-04-30T14:37:06Z</time>
      </trkpt>
      <trkpt lat="48.0919" lon="6.38487">
        <ele>349.7</ele>
        <time>2023-04-30T14:37:07Z</time>
      </trkpt>
      <trkpt lat="48.09187" lon="6.38492">
        <ele>349.9</ele>
        <time>2023-04-30T14:37:08Z</time>
      </trkpt>
      <trkpt lat="48.09184" lon="6.38496">
        <ele>350.1</ele>
        <time>2023-04-30T14:37:09Z</time>
      </trkpt>
      <trkpt lat="48.0918" lon="6.38499">
        <ele>350.3</ele>
        <time>2023-04-30T14:37:10Z</time>
      </trkpt>
      <trkpt lat="48.09177" lon="6.38502">
        <ele>350.5</ele>
        <time>2023-04-30T14:37:11Z</time>
      </trkpt>
      <trkpt lat="48.09174" lon="6.38508">
        <ele>350.6</ele>
        <time>2023-04-30T14:37:12Z</time>
      </trkpt>
      <trkpt lat="48.0917" lon="6.38513">
        <ele>350.8</ele>
        <time>2023-04-30T14:37:13Z</time>
      </trkpt>
      <trkpt lat="48.09168" lon="6.38516">
        <ele>351</ele>
        <time>2023-04-30T14:37:14Z</time>
      </trkpt>
      <trkpt lat="48.09164" lon="6.38523">
        <ele>351.2</ele>
        <time>2023-04-30T14:37:15Z</time>
      </trkpt>
      <trkpt lat="48.09161" lon="6.38528">
        <ele>351.3</ele>
        <time>2023-04-30T14:37:16Z</time>
      </trkpt>
      <trkpt lat="48.09157" lon="6.38532">
        <ele>351.4</ele>
        <time>2023-04-30T14:37:17Z</time>
      </trkpt>
      <trkpt lat="48.09154" lon="6.38536">
        <ele>351.6</ele>
        <time>2023-04-30T14:37:18Z</time>
      </trkpt>
      <trkpt lat="48.09151" lon="6.38541">
        <ele>351.7</ele>
        <time>2023-04-30T14:37:19Z</time>
      </trkpt>
      <trkpt lat="48.09147" lon="6.38546">
        <ele>351.8</ele>
        <time>2023-04-30T14:37:20Z</time>
      </trkpt>
      <trkpt lat="48.09144" lon="6.38553">
        <ele>351.9</ele>
        <time>2023-04-30T14:37:21Z</time>
      </trkpt>
      <trkpt lat="48.0914" lon="6.38559">
        <ele>352</ele>
        <time>2023-04-30T14:37:22Z</time>
      </trkpt>
      <trkpt lat="48.09137" lon="6.38566">
        <ele>352.1</ele>
        <time>2023-04-30T14:37:23Z</time>
      </trkpt>
      <trkpt lat="48.09134" lon="6.38572">
        <ele>352.3</ele>
        <time>2023-04-30T14:37:24Z</time>
      </trkpt>
      <trkpt lat="48.09132" lon="6.38579">
        <ele>352.4</ele>
        <time>2023-04-30T14:37:25Z</time>
      </trkpt>
      <trkpt lat="48.0913" lon="6.38586">
        <ele>352.5</ele>
        <time>2023-04-30T14:37:26Z</time>
      </trkpt>
      <trkpt lat="48.09129" lon="6.38593">
        <ele>352.6</ele>
        <time>2023-04-30T14:37:27Z</time>
      </trkpt>
      <trkpt lat="48.09128" lon="6.38601">
        <ele>352.8</ele>
        <time>2023-04-30T14:37:28Z</time>
      </trkpt>
      <trkpt lat="48.09127" lon="6.38608">
        <ele>353.1</ele>
        <time>2023-04-30T14:37:29Z</time>
      </trkpt>
      <trkpt lat="48.09126" lon="6.38615">
        <ele>353.4</ele>
        <time>2023-04-30T14:37:30Z</time>
      </trkpt>
      <trkpt lat="48.09125" lon="6.38622">
        <ele>353.8</ele>
        <time>2023-04-30T14:37:31Z</time>
      </trkpt>
      <trkpt lat="48.09124" lon="6.38626">
        <ele>354</ele>
        <time>2023-04-30T14:37:32Z</time>
      </trkpt>
      <trkpt lat="48.09124" lon="6.38633">
        <ele>354.3</ele>
        <time>2023-04-30T14:37:33Z</time>
      </trkpt>
      <trkpt lat="48.09124" lon="6.38638">
        <ele>354.6</ele>
        <time>2023-04-30T14:37:34Z</time>
      </trkpt>
      <trkpt lat="48.09124" lon="6.38644">
        <ele>354.9</ele>
        <time>2023-04-30T14:37:35Z</time>
      </trkpt>
      <trkpt lat="48.09123" lon="6.38653">
        <ele>355.4</ele>
        <time>2023-04-30T14:37:36Z</time>
      </trkpt>
      <trkpt lat="48.09123" lon="6.3866">
        <ele>355.8</ele>
        <time>2023-04-30T14:37:37Z</time>
      </trkpt>
      <trkpt lat="48.09123" lon="6.38668">
        <ele>356.1</ele>
        <time>2023-04-30T14:37:38Z</time>
      </trkpt>
      <trkpt lat="48.09122" lon="6.38673">
        <ele>356.4</ele>
        <time>2023-04-30T14:37:39Z</time>
      </trkpt>
      <trkpt lat="48.09122" lon="6.38681">
        <ele>356.8</ele>
        <time>2023-04-30T14:37:40Z</time>
      </trkpt>
      <trkpt lat="48.09121" lon="6.38687">
        <ele>357</ele>
        <time>2023-04-30T14:37:41Z</time>
      </trkpt>
      <trkpt lat="48.09121" lon="6.38693">
        <ele>357.3</ele>
        <time>2023-04-30T14:37:42Z</time>
      </trkpt>
      <trkpt lat="48.0912" lon="6.38699">
        <ele>357.6</ele>
        <time>2023-04-30T14:37:44Z</time>
      </trkpt>
      <trkpt lat="48.09119" lon="6.38704">
        <ele>357.8</ele>
        <time>2023-04-30T14:37:45Z</time>
      </trkpt>
      <trkpt lat="48.09119" lon="6.38711">
        <ele>358.1</ele>
        <time>2023-04-30T14:37:46Z</time>
      </trkpt>
      <trkpt lat="48.09118" lon="6.38717">
        <ele>358.4</ele>
        <time>2023-04-30T14:37:47Z</time>
      </trkpt>
      <trkpt lat="48.09118" lon="6.38723">
        <ele>358.7</ele>
        <time>2023-04-30T14:37:48Z</time>
      </trkpt>
      <trkpt lat="48.09117" lon="6.3873">
        <ele>359</ele>
        <time>2023-04-30T14:37:49Z</time>
      </trkpt>
      <trkpt lat="48.09117" lon="6.38737">
        <ele>359.3</ele>
        <time>2023-04-30T14:37:50Z</time>
      </trkpt>
      <trkpt lat="48.09117" lon="6.38742">
        <ele>359.5</ele>
        <time>2023-04-30T14:37:52Z</time>
      </trkpt>
      <trkpt lat="48.09116" lon="6.38754">
        <ele>359.9</ele>
        <time>2023-04-30T14:37:53Z</time>
      </trkpt>
      <trkpt lat="48.09114" lon="6.38759">
        <ele>360.1</ele>
        <time>2023-04-30T14:37:55Z</time>
      </trkpt>
      <trkpt lat="48.09113" lon="6.38766">
        <ele>360.3</ele>
        <time>2023-04-30T14:37:56Z</time>
      </trkpt>
      <trkpt lat="48.09112" lon="6.38772">
        <ele>360.4</ele>
        <time>2023-04-30T14:37:57Z</time>
      </trkpt>
      <trkpt lat="48.0911" lon="6.38776">
        <ele>360.4</ele>
        <time>2023-04-30T14:37:58Z</time>
      </trkpt>
      <trkpt lat="48.09109" lon="6.38781">
        <ele>360.5</ele>
        <time>2023-04-30T14:37:59Z</time>
      </trkpt>
      <trkpt lat="48.09107" lon="6.38788">
        <ele>360.6</ele>
        <time>2023-04-30T14:38:01Z</time>
      </trkpt>
      <trkpt lat="48.09105" lon="6.38796">
        <ele>360.7</ele>
        <time>2023-04-30T14:38:02Z</time>
      </trkpt>
      <trkpt lat="48.09103" lon="6.38805">
        <ele>360.7</ele>
        <time>2023-04-30T14:38:03Z</time>
      </trkpt>
      <trkpt lat="48.09103" lon="6.38814">
        <ele>360.6</ele>
        <time>2023-04-30T14:38:04Z</time>
      </trkpt>
      <trkpt lat="48.09102" lon="6.38825">
        <ele>360.5</ele>
        <time>2023-04-30T14:38:05Z</time>
      </trkpt>
      <trkpt lat="48.091" lon="6.3883">
        <ele>360.4</ele>
        <time>2023-04-30T14:38:06Z</time>
      </trkpt>
      <trkpt lat="48.09097" lon="6.38841">
        <ele>360.1</ele>
        <time>2023-04-30T14:38:08Z</time>
      </trkpt>
      <trkpt lat="48.09095" lon="6.38847">
        <ele>360</ele>
        <time>2023-04-30T14:38:09Z</time>
      </trkpt>
      <trkpt lat="48.09092" lon="6.38855">
        <ele>359.8</ele>
        <time>2023-04-30T14:38:10Z</time>
      </trkpt>
      <trkpt lat="48.0909" lon="6.38861">
        <ele>359.6</ele>
        <time>2023-04-30T14:38:11Z</time>
      </trkpt>
      <trkpt lat="48.09088" lon="6.38868">
        <ele>359.4</ele>
        <time>2023-04-30T14:38:12Z</time>
      </trkpt>
      <trkpt lat="48.09085" lon="6.38875">
        <ele>359.2</ele>
        <time>2023-04-30T14:38:13Z</time>
      </trkpt>
      <trkpt lat="48.09083" lon="6.38883">
        <ele>358.9</ele>
        <time>2023-04-30T14:38:14Z</time>
      </trkpt>
      <trkpt lat="48.0908" lon="6.3889">
        <ele>358.6</ele>
        <time>2023-04-30T14:38:15Z</time>
      </trkpt>
      <trkpt lat="48.09077" lon="6.38898">
        <ele>358.2</ele>
        <time>2023-04-30T14:38:16Z</time>
      </trkpt>
      <trkpt lat="48.09074" lon="6.38906">
        <ele>357.8</ele>
        <time>2023-04-30T14:38:17Z</time>
      </trkpt>
      <trkpt lat="48.0907" lon="6.38914">
        <ele>357.4</ele>
        <time>2023-04-30T14:38:18Z</time>
      </trkpt>
      <trkpt lat="48.09067" lon="6.38923">
        <ele>356.9</ele>
        <time>2023-04-30T14:38:19Z</time>
      </trkpt>
      <trkpt lat="48.09063" lon="6.38932">
        <ele>356.6</ele>
        <time>2023-04-30T14:38:20Z</time>
      </trkpt>
      <trkpt lat="48.09059" lon="6.38941">
        <ele>356.3</ele>
        <time>2023-04-30T14:38:21Z</time>
      </trkpt>
      <trkpt lat="48.09055" lon="6.3895">
        <ele>356.1</ele>
        <time>2023-04-30T14:38:22Z</time>
      </trkpt>
      <trkpt lat="48.09052" lon="6.38957">
        <ele>356</ele>
        <time>2023-04-30T14:38:23Z</time>
      </trkpt>
      <trkpt lat="48.09048" lon="6.38965">
        <ele>356</ele>
        <time>2023-04-30T14:38:24Z</time>
      </trkpt>
      <trkpt lat="48.09043" lon="6.38973">
        <ele>356.1</ele>
        <time>2023-04-30T14:38:25Z</time>
      </trkpt>
      <trkpt lat="48.0904" lon="6.38981">
        <ele>356.2</ele>
        <time>2023-04-30T14:38:26Z</time>
      </trkpt>
      <trkpt lat="48.09036" lon="6.38988">
        <ele>356.3</ele>
        <time>2023-04-30T14:38:27Z</time>
      </trkpt>
      <trkpt lat="48.09033" lon="6.38995">
        <ele>356.4</ele>
        <time>2023-04-30T14:38:28Z</time>
      </trkpt>
      <trkpt lat="48.0903" lon="6.39002">
        <ele>356.5</ele>
        <time>2023-04-30T14:38:29Z</time>
      </trkpt>
      <trkpt lat="48.09028" lon="6.39007">
        <ele>356.6</ele>
        <time>2023-04-30T14:38:30Z</time>
      </trkpt>
      <trkpt lat="48.09025" lon="6.39014">
        <ele>356.6</ele>
        <time>2023-04-30T14:38:31Z</time>
      </trkpt>
      <trkpt lat="48.09023" lon="6.39021">
        <ele>356.7</ele>
        <time>2023-04-30T14:38:32Z</time>
      </trkpt>
      <trkpt lat="48.0902" lon="6.39028">
        <ele>356.7</ele>
        <time>2023-04-30T14:38:33Z</time>
      </trkpt>
      <trkpt lat="48.09017" lon="6.39034">
        <ele>356.8</ele>
        <time>2023-04-30T14:38:34Z</time>
      </trkpt>
      <trkpt lat="48.09014" lon="6.3904">
        <ele>356.8</ele>
        <time>2023-04-30T14:38:35Z</time>
      </trkpt>
      <trkpt lat="48.09011" lon="6.39046">
        <ele>356.9</ele>
        <time>2023-04-30T14:38:36Z</time>
      </trkpt>
      <trkpt lat="48.09008" lon="6.39052">
        <ele>356.9</ele>
        <time>2023-04-30T14:38:37Z</time>
      </trkpt>
      <trkpt lat="48.09005" lon="6.39057">
        <ele>357</ele>
        <time>2023-04-30T14:38:38Z</time>
      </trkpt>
      <trkpt lat="48.09002" lon="6.39064">
        <ele>357</ele>
        <time>2023-04-30T14:38:39Z</time>
      </trkpt>
      <trkpt lat="48.08998" lon="6.39071">
        <ele>357</ele>
        <time>2023-04-30T14:38:40Z</time>
      </trkpt>
      <trkpt lat="48.08994" lon="6.39078">
        <ele>357</ele>
        <time>2023-04-30T14:38:41Z</time>
      </trkpt>
      <trkpt lat="48.0899" lon="6.39085">
        <ele>357</ele>
        <time>2023-04-30T14:38:42Z</time>
      </trkpt>
      <trkpt lat="48.08986" lon="6.39092">
        <ele>356.9</ele>
        <time>2023-04-30T14:38:43Z</time>
      </trkpt>
      <trkpt lat="48.08982" lon="6.391">
        <ele>356.8</ele>
        <time>2023-04-30T14:38:44Z</time>
      </trkpt>
      <trkpt lat="48.08978" lon="6.39107">
        <ele>356.7</ele>
        <time>2023-04-30T14:38:45Z</time>
      </trkpt>
      <trkpt lat="48.08974" lon="6.39114">
        <ele>356.6</ele>
        <time>2023-04-30T14:38:46Z</time>
      </trkpt>
      <trkpt lat="48.08972" lon="6.39123">
        <ele>356.5</ele>
        <time>2023-04-30T14:38:47Z</time>
      </trkpt>
      <trkpt lat="48.08969" lon="6.39131">
        <ele>356.5</ele>
        <time>2023-04-30T14:38:48Z</time>
      </trkpt>
      <trkpt lat="48.08969" lon="6.3914">
        <ele>356.5</ele>
        <time>2023-04-30T14:38:49Z</time>
      </trkpt>
      <trkpt lat="48.08968" lon="6.3915">
        <ele>356.6</ele>
        <time>2023-04-30T14:38:50Z</time>
      </trkpt>
      <trkpt lat="48.08967" lon="6.39158">
        <ele>356.6</ele>
        <time>2023-04-30T14:38:51Z</time>
      </trkpt>
      <trkpt lat="48.08967" lon="6.39167">
        <ele>356.7</ele>
        <time>2023-04-30T14:38:52Z</time>
      </trkpt>
      <trkpt lat="48.08966" lon="6.39176">
        <ele>356.8</ele>
        <time>2023-04-30T14:38:53Z</time>
      </trkpt>
      <trkpt lat="48.08965" lon="6.39184">
        <ele>356.9</ele>
        <time>2023-04-30T14:38:54Z</time>
      </trkpt>
      <trkpt lat="48.08964" lon="6.39193">
        <ele>357.1</ele>
        <time>2023-04-30T14:38:55Z</time>
      </trkpt>
      <trkpt lat="48.08962" lon="6.39201">
        <ele>357.2</ele>
        <time>2023-04-30T14:38:56Z</time>
      </trkpt>
      <trkpt lat="48.08961" lon="6.39209">
        <ele>357.4</ele>
        <time>2023-04-30T14:38:57Z</time>
      </trkpt>
      <trkpt lat="48.08959" lon="6.39218">
        <ele>357.6</ele>
        <time>2023-04-30T14:38:58Z</time>
      </trkpt>
      <trkpt lat="48.08958" lon="6.39226">
        <ele>357.7</ele>
        <time>2023-04-30T14:38:59Z</time>
      </trkpt>
      <trkpt lat="48.08956" lon="6.39233">
        <ele>357.9</ele>
        <time>2023-04-30T14:39:00Z</time>
      </trkpt>
      <trkpt lat="48.08955" lon="6.39241">
        <ele>358.1</ele>
        <time>2023-04-30T14:39:01Z</time>
      </trkpt>
      <trkpt lat="48.08953" lon="6.39249">
        <ele>358.2</ele>
        <time>2023-04-30T14:39:02Z</time>
      </trkpt>
      <trkpt lat="48.08951" lon="6.39257">
        <ele>358.4</ele>
        <time>2023-04-30T14:39:03Z</time>
      </trkpt>
      <trkpt lat="48.08949" lon="6.39265">
        <ele>358.6</ele>
        <time>2023-04-30T14:39:04Z</time>
      </trkpt>
      <trkpt lat="48.08948" lon="6.39273">
        <ele>358.8</ele>
        <time>2023-04-30T14:39:05Z</time>
      </trkpt>
      <trkpt lat="48.08946" lon="6.39281">
        <ele>359</ele>
        <time>2023-04-30T14:39:06Z</time>
      </trkpt>
      <trkpt lat="48.08945" lon="6.39288">
        <ele>359.2</ele>
        <time>2023-04-30T14:39:07Z</time>
      </trkpt>
      <trkpt lat="48.08943" lon="6.39295">
        <ele>359.4</ele>
        <time>2023-04-30T14:39:08Z</time>
      </trkpt>
      <trkpt lat="48.08942" lon="6.39303">
        <ele>359.6</ele>
        <time>2023-04-30T14:39:09Z</time>
      </trkpt>
      <trkpt lat="48.08941" lon="6.39309">
        <ele>359.8</ele>
        <time>2023-04-30T14:39:10Z</time>
      </trkpt>
      <trkpt lat="48.0894" lon="6.39314">
        <ele>360</ele>
        <time>2023-04-30T14:39:11Z</time>
      </trkpt>
      <trkpt lat="48.08938" lon="6.3932">
        <ele>360.2</ele>
        <time>2023-04-30T14:39:12Z</time>
      </trkpt>
      <trkpt lat="48.08937" lon="6.39322">
        <ele>360.2</ele>
        <time>2023-04-30T14:39:13Z</time>
      </trkpt>
      <trkpt lat="48.08935" lon="6.39329">
        <ele>360.5</ele>
        <time>2023-04-30T14:39:14Z</time>
      </trkpt>
      <trkpt lat="48.08933" lon="6.39337">
        <ele>360.7</ele>
        <time>2023-04-30T14:39:15Z</time>
      </trkpt>
      <trkpt lat="48.08931" lon="6.39344">
        <ele>361</ele>
        <time>2023-04-30T14:39:16Z</time>
      </trkpt>
      <trkpt lat="48.08929" lon="6.39351">
        <ele>361.2</ele>
        <time>2023-04-30T14:39:17Z</time>
      </trkpt>
      <trkpt lat="48.08928" lon="6.39358">
        <ele>361.4</ele>
        <time>2023-04-30T14:39:18Z</time>
      </trkpt>
      <trkpt lat="48.08926" lon="6.39365">
        <ele>361.6</ele>
        <time>2023-04-30T14:39:19Z</time>
      </trkpt>
      <trkpt lat="48.08924" lon="6.39373">
        <ele>361.8</ele>
        <time>2023-04-30T14:39:20Z</time>
      </trkpt>
      <trkpt lat="48.08922" lon="6.3938">
        <ele>362</ele>
        <time>2023-04-30T14:39:21Z</time>
      </trkpt>
      <trkpt lat="48.0892" lon="6.39387">
        <ele>362.1</ele>
        <time>2023-04-30T14:39:22Z</time>
      </trkpt>
      <trkpt lat="48.08919" lon="6.39388">
        <ele>362.1</ele>
        <time>2023-04-30T14:39:23Z</time>
      </trkpt>
      <trkpt lat="48.08914" lon="6.39403">
        <ele>362.3</ele>
        <time>2023-04-30T14:39:25Z</time>
      </trkpt>
      <trkpt lat="48.08911" lon="6.39411">
        <ele>362.3</ele>
        <time>2023-04-30T14:39:26Z</time>
      </trkpt>
      <trkpt lat="48.08908" lon="6.39419">
        <ele>362.3</ele>
        <time>2023-04-30T14:39:27Z</time>
      </trkpt>
      <trkpt lat="48.08905" lon="6.39426">
        <ele>362.2</ele>
        <time>2023-04-30T14:39:28Z</time>
      </trkpt>
      <trkpt lat="48.08902" lon="6.39433">
        <ele>362.2</ele>
        <time>2023-04-30T14:39:29Z</time>
      </trkpt>
      <trkpt lat="48.089" lon="6.3944">
        <ele>362.1</ele>
        <time>2023-04-30T14:39:30Z</time>
      </trkpt>
      <trkpt lat="48.08898" lon="6.39447">
        <ele>362.1</ele>
        <time>2023-04-30T14:39:31Z</time>
      </trkpt>
      <trkpt lat="48.08897" lon="6.39455">
        <ele>362</ele>
        <time>2023-04-30T14:39:32Z</time>
      </trkpt>
      <trkpt lat="48.08895" lon="6.39463">
        <ele>361.9</ele>
        <time>2023-04-30T14:39:33Z</time>
      </trkpt>
      <trkpt lat="48.08894" lon="6.39471">
        <ele>361.9</ele>
        <time>2023-04-30T14:39:34Z</time>
      </trkpt>
      <trkpt lat="48.08893" lon="6.39479">
        <ele>361.8</ele>
        <time>2023-04-30T14:39:35Z</time>
      </trkpt>
      <trkpt lat="48.08891" lon="6.39488">
        <ele>361.8</ele>
        <time>2023-04-30T14:39:36Z</time>
      </trkpt>
      <trkpt lat="48.0889" lon="6.39496">
        <ele>361.8</ele>
        <time>2023-04-30T14:39:37Z</time>
      </trkpt>
      <trkpt lat="48.08889" lon="6.39505">
        <ele>361.9</ele>
        <time>2023-04-30T14:39:38Z</time>
      </trkpt>
      <trkpt lat="48.08887" lon="6.39513">
        <ele>361.9</ele>
        <time>2023-04-30T14:39:39Z</time>
      </trkpt>
      <trkpt lat="48.08886" lon="6.3952">
        <ele>362</ele>
        <time>2023-04-30T14:39:40Z</time>
      </trkpt>
      <trkpt lat="48.08885" lon="6.39528">
        <ele>362</ele>
        <time>2023-04-30T14:39:41Z</time>
      </trkpt>
      <trkpt lat="48.08883" lon="6.39535">
        <ele>362.1</ele>
        <time>2023-04-30T14:39:42Z</time>
      </trkpt>
      <trkpt lat="48.08881" lon="6.39542">
        <ele>362.1</ele>
        <time>2023-04-30T14:39:43Z</time>
      </trkpt>
      <trkpt lat="48.08879" lon="6.39549">
        <ele>362.1</ele>
        <time>2023-04-30T14:39:44Z</time>
      </trkpt>
      <trkpt lat="48.08878" lon="6.39558">
        <ele>362.2</ele>
        <time>2023-04-30T14:39:45Z</time>
      </trkpt>
      <trkpt lat="48.08877" lon="6.39567">
        <ele>362.2</ele>
        <time>2023-04-30T14:39:46Z</time>
      </trkpt>
      <trkpt lat="48.08875" lon="6.39575">
        <ele>362.2</ele>
        <time>2023-04-30T14:39:47Z</time>
      </trkpt>
      <trkpt lat="48.08874" lon="6.39584">
        <ele>362.2</ele>
        <time>2023-04-30T14:39:48Z</time>
      </trkpt>
      <trkpt lat="48.08873" lon="6.39593">
        <ele>362.2</ele>
        <time>2023-04-30T14:39:49Z</time>
      </trkpt>
      <trkpt lat="48.08871" lon="6.39601">
        <ele>362.2</ele>
        <time>2023-04-30T14:39:50Z</time>
      </trkpt>
      <trkpt lat="48.0887" lon="6.39609">
        <ele>362.2</ele>
        <time>2023-04-30T14:39:51Z</time>
      </trkpt>
      <trkpt lat="48.08868" lon="6.39617">
        <ele>362.3</ele>
        <time>2023-04-30T14:39:52Z</time>
      </trkpt>
      <trkpt lat="48.08867" lon="6.39625">
        <ele>362.4</ele>
        <time>2023-04-30T14:39:53Z</time>
      </trkpt>
      <trkpt lat="48.08866" lon="6.39632">
        <ele>362.4</ele>
        <time>2023-04-30T14:39:54Z</time>
      </trkpt>
      <trkpt lat="48.08865" lon="6.3964">
        <ele>362.5</ele>
        <time>2023-04-30T14:39:55Z</time>
      </trkpt>
      <trkpt lat="48.08864" lon="6.39648">
        <ele>362.6</ele>
        <time>2023-04-30T14:39:56Z</time>
      </trkpt>
      <trkpt lat="48.08862" lon="6.39656">
        <ele>362.6</ele>
        <time>2023-04-30T14:39:57Z</time>
      </trkpt>
      <trkpt lat="48.08861" lon="6.39664">
        <ele>362.7</ele>
        <time>2023-04-30T14:39:58Z</time>
      </trkpt>
      <trkpt lat="48.0886" lon="6.39673">
        <ele>362.7</ele>
        <time>2023-04-30T14:39:59Z</time>
      </trkpt>
      <trkpt lat="48.08859" lon="6.39681">
        <ele>362.7</ele>
        <time>2023-04-30T14:40:00Z</time>
      </trkpt>
      <trkpt lat="48.08858" lon="6.39688">
        <ele>362.7</ele>
        <time>2023-04-30T14:40:01Z</time>
      </trkpt>
      <trkpt lat="48.08856" lon="6.39696">
        <ele>362.7</ele>
        <time>2023-04-30T14:40:02Z</time>
      </trkpt>
      <trkpt lat="48.08855" lon="6.39705">
        <ele>362.8</ele>
        <time>2023-04-30T14:40:03Z</time>
      </trkpt>
      <trkpt lat="48.08854" lon="6.39713">
        <ele>362.8</ele>
        <time>2023-04-30T14:40:04Z</time>
      </trkpt>
      <trkpt lat="48.08853" lon="6.3972">
        <ele>362.9</ele>
        <time>2023-04-30T14:40:05Z</time>
      </trkpt>
      <trkpt lat="48.08852" lon="6.39726">
        <ele>362.9</ele>
        <time>2023-04-30T14:40:06Z</time>
      </trkpt>
      <trkpt lat="48.08851" lon="6.39734">
        <ele>363</ele>
        <time>2023-04-30T14:40:07Z</time>
      </trkpt>
      <trkpt lat="48.0885" lon="6.39742">
        <ele>363.2</ele>
        <time>2023-04-30T14:40:08Z</time>
      </trkpt>
      <trkpt lat="48.0885" lon="6.39751">
        <ele>363.3</ele>
        <time>2023-04-30T14:40:09Z</time>
      </trkpt>
      <trkpt lat="48.08849" lon="6.39758">
        <ele>363.5</ele>
        <time>2023-04-30T14:40:10Z</time>
      </trkpt>
      <trkpt lat="48.08849" lon="6.39766">
        <ele>363.6</ele>
        <time>2023-04-30T14:40:11Z</time>
      </trkpt>
      <trkpt lat="48.08849" lon="6.39773">
        <ele>363.8</ele>
        <time>2023-04-30T14:40:12Z</time>
      </trkpt>
      <trkpt lat="48.08849" lon="6.3978">
        <ele>364</ele>
        <time>2023-04-30T14:40:13Z</time>
      </trkpt>
      <trkpt lat="48.08849" lon="6.39786">
        <ele>364.1</ele>
        <time>2023-04-30T14:40:14Z</time>
      </trkpt>
      <trkpt lat="48.0885" lon="6.39794">
        <ele>364.3</ele>
        <time>2023-04-30T14:40:15Z</time>
      </trkpt>
      <trkpt lat="48.08851" lon="6.39801">
        <ele>364.5</ele>
        <time>2023-04-30T14:40:16Z</time>
      </trkpt>
      <trkpt lat="48.08852" lon="6.39808">
        <ele>364.7</ele>
        <time>2023-04-30T14:40:17Z</time>
      </trkpt>
      <trkpt lat="48.08852" lon="6.39813">
        <ele>364.8</ele>
        <time>2023-04-30T14:40:18Z</time>
      </trkpt>
      <trkpt lat="48.08854" lon="6.3982">
        <ele>365</ele>
        <time>2023-04-30T14:40:19Z</time>
      </trkpt>
      <trkpt lat="48.08855" lon="6.39828">
        <ele>365.2</ele>
        <time>2023-04-30T14:40:20Z</time>
      </trkpt>
      <trkpt lat="48.08856" lon="6.39835">
        <ele>365.4</ele>
        <time>2023-04-30T14:40:21Z</time>
      </trkpt>
      <trkpt lat="48.08857" lon="6.39839">
        <ele>365.5</ele>
        <time>2023-04-30T14:40:22Z</time>
      </trkpt>
      <trkpt lat="48.08857" lon="6.39845">
        <ele>365.6</ele>
        <time>2023-04-30T14:40:23Z</time>
      </trkpt>
      <trkpt lat="48.08859" lon="6.39854">
        <ele>365.8</ele>
        <time>2023-04-30T14:40:24Z</time>
      </trkpt>
      <trkpt lat="48.08861" lon="6.3986">
        <ele>366</ele>
        <time>2023-04-30T14:40:25Z</time>
      </trkpt>
      <trkpt lat="48.08862" lon="6.39869">
        <ele>366.2</ele>
        <time>2023-04-30T14:40:27Z</time>
      </trkpt>
      <trkpt lat="48.08862" lon="6.39883">
        <ele>366.5</ele>
        <time>2023-04-30T14:40:28Z</time>
      </trkpt>
      <trkpt lat="48.08861" lon="6.39889">
        <ele>366.7</ele>
        <time>2023-04-30T14:40:30Z</time>
      </trkpt>
      <trkpt lat="48.08858" lon="6.39896">
        <ele>367</ele>
        <time>2023-04-30T14:40:31Z</time>
      </trkpt>
      <trkpt lat="48.08855" lon="6.39898">
        <ele>367.1</ele>
        <time>2023-04-30T14:40:32Z</time>
      </trkpt>
      <trkpt lat="48.08851" lon="6.399">
        <ele>367.3</ele>
        <time>2023-04-30T14:40:33Z</time>
      </trkpt>
      <trkpt lat="48.08846" lon="6.39908">
        <ele>367.5</ele>
        <time>2023-04-30T14:40:35Z</time>
      </trkpt>
      <trkpt lat="48.08844" lon="6.39913">
        <ele>367.6</ele>
        <time>2023-04-30T14:40:36Z</time>
      </trkpt>
      <trkpt lat="48.08838" lon="6.39916">
        <ele>367.7</ele>
        <time>2023-04-30T14:40:37Z</time>
      </trkpt>
      <trkpt lat="48.08833" lon="6.3992">
        <ele>367.8</ele>
        <time>2023-04-30T14:40:38Z</time>
      </trkpt>
      <trkpt lat="48.08826" lon="6.39924">
        <ele>367.9</ele>
        <time>2023-04-30T14:40:40Z</time>
      </trkpt>
      <trkpt lat="48.08822" lon="6.39927">
        <ele>367.9</ele>
        <time>2023-04-30T14:40:41Z</time>
      </trkpt>
      <trkpt lat="48.08817" lon="6.3993">
        <ele>367.8</ele>
        <time>2023-04-30T14:40:42Z</time>
      </trkpt>
      <trkpt lat="48.08812" lon="6.39934">
        <ele>367.8</ele>
        <time>2023-04-30T14:40:43Z</time>
      </trkpt>
      <trkpt lat="48.08807" lon="6.39939">
        <ele>367.6</ele>
        <time>2023-04-30T14:40:44Z</time>
      </trkpt>
      <trkpt lat="48.08803" lon="6.39945">
        <ele>367.5</ele>
        <time>2023-04-30T14:40:45Z</time>
      </trkpt>
      <trkpt lat="48.08798" lon="6.39952">
        <ele>367.4</ele>
        <time>2023-04-30T14:40:46Z</time>
      </trkpt>
      <trkpt lat="48.08794" lon="6.39959">
        <ele>367.3</ele>
        <time>2023-04-30T14:40:47Z</time>
      </trkpt>
      <trkpt lat="48.0879" lon="6.39966">
        <ele>367.1</ele>
        <time>2023-04-30T14:40:48Z</time>
      </trkpt>
      <trkpt lat="48.08786" lon="6.39974">
        <ele>367</ele>
        <time>2023-04-30T14:40:49Z</time>
      </trkpt>
      <trkpt lat="48.08784" lon="6.39981">
        <ele>366.9</ele>
        <time>2023-04-30T14:40:50Z</time>
      </trkpt>
      <trkpt lat="48.08782" lon="6.39989">
        <ele>366.9</ele>
        <time>2023-04-30T14:40:51Z</time>
      </trkpt>
      <trkpt lat="48.0878" lon="6.39997">
        <ele>366.8</ele>
        <time>2023-04-30T14:40:52Z</time>
      </trkpt>
      <trkpt lat="48.08778" lon="6.40004">
        <ele>366.8</ele>
        <time>2023-04-30T14:40:53Z</time>
      </trkpt>
      <trkpt lat="48.08775" lon="6.40012">
        <ele>366.7</ele>
        <time>2023-04-30T14:40:54Z</time>
      </trkpt>
      <trkpt lat="48.08772" lon="6.40021">
        <ele>366.7</ele>
        <time>2023-04-30T14:40:55Z</time>
      </trkpt>
      <trkpt lat="48.08769" lon="6.40029">
        <ele>366.6</ele>
        <time>2023-04-30T14:40:56Z</time>
      </trkpt>
      <trkpt lat="48.08766" lon="6.40038">
        <ele>366.5</ele>
        <time>2023-04-30T14:40:57Z</time>
      </trkpt>
      <trkpt lat="48.08764" lon="6.40047">
        <ele>366.4</ele>
        <time>2023-04-30T14:40:58Z</time>
      </trkpt>
      <trkpt lat="48.08761" lon="6.40055">
        <ele>366.4</ele>
        <time>2023-04-30T14:40:59Z</time>
      </trkpt>
      <trkpt lat="48.08759" lon="6.40064">
        <ele>366.5</ele>
        <time>2023-04-30T14:41:00Z</time>
      </trkpt>
      <trkpt lat="48.08758" lon="6.40073">
        <ele>366.5</ele>
        <time>2023-04-30T14:41:01Z</time>
      </trkpt>
      <trkpt lat="48.08756" lon="6.40082">
        <ele>366.6</ele>
        <time>2023-04-30T14:41:02Z</time>
      </trkpt>
      <trkpt lat="48.08754" lon="6.4009">
        <ele>366.8</ele>
        <time>2023-04-30T14:41:03Z</time>
      </trkpt>
      <trkpt lat="48.08751" lon="6.40098">
        <ele>367</ele>
        <time>2023-04-30T14:41:04Z</time>
      </trkpt>
      <trkpt lat="48.08749" lon="6.40106">
        <ele>367.2</ele>
        <time>2023-04-30T14:41:05Z</time>
      </trkpt>
      <trkpt lat="48.08747" lon="6.40113">
        <ele>367.4</ele>
        <time>2023-04-30T14:41:06Z</time>
      </trkpt>
      <trkpt lat="48.08745" lon="6.40119">
        <ele>367.6</ele>
        <time>2023-04-30T14:41:07Z</time>
      </trkpt>
      <trkpt lat="48.08743" lon="6.40125">
        <ele>367.7</ele>
        <time>2023-04-30T14:41:08Z</time>
      </trkpt>
      <trkpt lat="48.0874" lon="6.40132">
        <ele>367.9</ele>
        <time>2023-04-30T14:41:09Z</time>
      </trkpt>
      <trkpt lat="48.08738" lon="6.40139">
        <ele>368.1</ele>
        <time>2023-04-30T14:41:10Z</time>
      </trkpt>
      <trkpt lat="48.08736" lon="6.40146">
        <ele>368.2</ele>
        <time>2023-04-30T14:41:11Z</time>
      </trkpt>
      <trkpt lat="48.08734" lon="6.40152">
        <ele>368.3</ele>
        <time>2023-04-30T14:41:12Z</time>
      </trkpt>
      <trkpt lat="48.08731" lon="6.40159">
        <ele>368.4</ele>
        <time>2023-04-30T14:41:13Z</time>
      </trkpt>
      <trkpt lat="48.08729" lon="6.40166">
        <ele>368.5</ele>
        <time>2023-04-30T14:41:14Z</time>
      </trkpt>
      <trkpt lat="48.08727" lon="6.40173">
        <ele>368.6</ele>
        <time>2023-04-30T14:41:15Z</time>
      </trkpt>
      <trkpt lat="48.08724" lon="6.40181">
        <ele>368.6</ele>
        <time>2023-04-30T14:41:16Z</time>
      </trkpt>
      <trkpt lat="48.08722" lon="6.40188">
        <ele>368.6</ele>
        <time>2023-04-30T14:41:17Z</time>
      </trkpt>
      <trkpt lat="48.0872" lon="6.40196">
        <ele>368.6</ele>
        <time>2023-04-30T14:41:18Z</time>
      </trkpt>
      <trkpt lat="48.08718" lon="6.40204">
        <ele>368.6</ele>
        <time>2023-04-30T14:41:19Z</time>
      </trkpt>
      <trkpt lat="48.08717" lon="6.40213">
        <ele>368.6</ele>
        <time>2023-04-30T14:41:20Z</time>
      </trkpt>
      <trkpt lat="48.08715" lon="6.40221">
        <ele>368.6</ele>
        <time>2023-04-30T14:41:21Z</time>
      </trkpt>
      <trkpt lat="48.08714" lon="6.4023">
        <ele>368.6</ele>
        <time>2023-04-30T14:41:22Z</time>
      </trkpt>
      <trkpt lat="48.08713" lon="6.40238">
        <ele>368.5</ele>
        <time>2023-04-30T14:41:23Z</time>
      </trkpt>
      <trkpt lat="48.08711" lon="6.40247">
        <ele>368.5</ele>
        <time>2023-04-30T14:41:24Z</time>
      </trkpt>
      <trkpt lat="48.0871" lon="6.40255">
        <ele>368.4</ele>
        <time>2023-04-30T14:41:25Z</time>
      </trkpt>
      <trkpt lat="48.08709" lon="6.40264">
        <ele>368.4</ele>
        <time>2023-04-30T14:41:26Z</time>
      </trkpt>
      <trkpt lat="48.08707" lon="6.40273">
        <ele>368.4</ele>
        <time>2023-04-30T14:41:27Z</time>
      </trkpt>
      <trkpt lat="48.08706" lon="6.40281">
        <ele>368.4</ele>
        <time>2023-04-30T14:41:28Z</time>
      </trkpt>
      <trkpt lat="48.08705" lon="6.40289">
        <ele>368.4</ele>
        <time>2023-04-30T14:41:29Z</time>
      </trkpt>
      <trkpt lat="48.08703" lon="6.40298">
        <ele>368.4</ele>
        <time>2023-04-30T14:41:30Z</time>
      </trkpt>
      <trkpt lat="48.08702" lon="6.40306">
        <ele>368.4</ele>
        <time>2023-04-30T14:41:31Z</time>
      </trkpt>
      <trkpt lat="48.08701" lon="6.40314">
        <ele>368.4</ele>
        <time>2023-04-30T14:41:32Z</time>
      </trkpt>
      <trkpt lat="48.087" lon="6.40323">
        <ele>368.4</ele>
        <time>2023-04-30T14:41:33Z</time>
      </trkpt>
      <trkpt lat="48.08699" lon="6.40331">
        <ele>368.3</ele>
        <time>2023-04-30T14:41:34Z</time>
      </trkpt>
      <trkpt lat="48.08698" lon="6.4034">
        <ele>368.3</ele>
        <time>2023-04-30T14:41:35Z</time>
      </trkpt>
      <trkpt lat="48.08698" lon="6.4035">
        <ele>368.2</ele>
        <time>2023-04-30T14:41:36Z</time>
      </trkpt>
      <trkpt lat="48.08697" lon="6.40359">
        <ele>368.2</ele>
        <time>2023-04-30T14:41:37Z</time>
      </trkpt>
      <trkpt lat="48.08696" lon="6.40368">
        <ele>368.1</ele>
        <time>2023-04-30T14:41:38Z</time>
      </trkpt>
      <trkpt lat="48.08694" lon="6.40376">
        <ele>368</ele>
        <time>2023-04-30T14:41:39Z</time>
      </trkpt>
      <trkpt lat="48.08692" lon="6.40385">
        <ele>368</ele>
        <time>2023-04-30T14:41:40Z</time>
      </trkpt>
      <trkpt lat="48.0869" lon="6.40394">
        <ele>367.9</ele>
        <time>2023-04-30T14:41:41Z</time>
      </trkpt>
      <trkpt lat="48.08687" lon="6.40402">
        <ele>367.9</ele>
        <time>2023-04-30T14:41:42Z</time>
      </trkpt>
      <trkpt lat="48.08684" lon="6.4041">
        <ele>367.9</ele>
        <time>2023-04-30T14:41:43Z</time>
      </trkpt>
      <trkpt lat="48.08682" lon="6.40418">
        <ele>367.9</ele>
        <time>2023-04-30T14:41:44Z</time>
      </trkpt>
      <trkpt lat="48.08679" lon="6.40426">
        <ele>367.9</ele>
        <time>2023-04-30T14:41:45Z</time>
      </trkpt>
      <trkpt lat="48.08676" lon="6.40435">
        <ele>367.9</ele>
        <time>2023-04-30T14:41:46Z</time>
      </trkpt>
      <trkpt lat="48.08673" lon="6.40443">
        <ele>367.9</ele>
        <time>2023-04-30T14:41:47Z</time>
      </trkpt>
      <trkpt lat="48.08671" lon="6.40451">
        <ele>368</ele>
        <time>2023-04-30T14:41:48Z</time>
      </trkpt>
      <trkpt lat="48.08668" lon="6.40459">
        <ele>368</ele>
        <time>2023-04-30T14:41:49Z</time>
      </trkpt>
      <trkpt lat="48.08666" lon="6.40466">
        <ele>368.1</ele>
        <time>2023-04-30T14:41:50Z</time>
      </trkpt>
      <trkpt lat="48.08665" lon="6.40475">
        <ele>368.1</ele>
        <time>2023-04-30T14:41:51Z</time>
      </trkpt>
      <trkpt lat="48.08663" lon="6.40484">
        <ele>368.1</ele>
        <time>2023-04-30T14:41:52Z</time>
      </trkpt>
      <trkpt lat="48.08662" lon="6.40492">
        <ele>368.2</ele>
        <time>2023-04-30T14:41:53Z</time>
      </trkpt>
      <trkpt lat="48.08662" lon="6.40501">
        <ele>368.2</ele>
        <time>2023-04-30T14:41:54Z</time>
      </trkpt>
      <trkpt lat="48.08661" lon="6.4051">
        <ele>368.2</ele>
        <time>2023-04-30T14:41:55Z</time>
      </trkpt>
      <trkpt lat="48.08661" lon="6.40519">
        <ele>368.2</ele>
        <time>2023-04-30T14:41:56Z</time>
      </trkpt>
      <trkpt lat="48.0866" lon="6.40528">
        <ele>368.2</ele>
        <time>2023-04-30T14:41:57Z</time>
      </trkpt>
      <trkpt lat="48.0866" lon="6.40537">
        <ele>368.2</ele>
        <time>2023-04-30T14:41:58Z</time>
      </trkpt>
      <trkpt lat="48.0866" lon="6.40545">
        <ele>368.2</ele>
        <time>2023-04-30T14:41:59Z</time>
      </trkpt>
      <trkpt lat="48.08661" lon="6.40553">
        <ele>368.3</ele>
        <time>2023-04-30T14:42:00Z</time>
      </trkpt>
      <trkpt lat="48.08661" lon="6.40562">
        <ele>368.3</ele>
        <time>2023-04-30T14:42:01Z</time>
      </trkpt>
      <trkpt lat="48.08661" lon="6.40571">
        <ele>368.3</ele>
        <time>2023-04-30T14:42:02Z</time>
      </trkpt>
      <trkpt lat="48.08661" lon="6.40581">
        <ele>368.4</ele>
        <time>2023-04-30T14:42:03Z</time>
      </trkpt>
      <trkpt lat="48.08662" lon="6.4059">
        <ele>368.4</ele>
        <time>2023-04-30T14:42:04Z</time>
      </trkpt>
      <trkpt lat="48.08662" lon="6.40599">
        <ele>368.5</ele>
        <time>2023-04-30T14:42:05Z</time>
      </trkpt>
      <trkpt lat="48.08662" lon="6.40607">
        <ele>368.5</ele>
        <time>2023-04-30T14:42:06Z</time>
      </trkpt>
      <trkpt lat="48.08663" lon="6.40616">
        <ele>368.6</ele>
        <time>2023-04-30T14:42:07Z</time>
      </trkpt>
      <trkpt lat="48.08663" lon="6.40625">
        <ele>368.6</ele>
        <time>2023-04-30T14:42:08Z</time>
      </trkpt>
      <trkpt lat="48.08664" lon="6.40634">
        <ele>368.7</ele>
        <time>2023-04-30T14:42:09Z</time>
      </trkpt>
      <trkpt lat="48.08663" lon="6.40642">
        <ele>368.7</ele>
        <time>2023-04-30T14:42:10Z</time>
      </trkpt>
      <trkpt lat="48.08663" lon="6.4065">
        <ele>368.8</ele>
        <time>2023-04-30T14:42:11Z</time>
      </trkpt>
      <trkpt lat="48.08662" lon="6.40657">
        <ele>368.9</ele>
        <time>2023-04-30T14:42:12Z</time>
      </trkpt>
      <trkpt lat="48.08662" lon="6.40664">
        <ele>369</ele>
        <time>2023-04-30T14:42:13Z</time>
      </trkpt>
      <trkpt lat="48.08661" lon="6.40672">
        <ele>369.1</ele>
        <time>2023-04-30T14:42:14Z</time>
      </trkpt>
      <trkpt lat="48.08661" lon="6.4068">
        <ele>369.2</ele>
        <time>2023-04-30T14:42:15Z</time>
      </trkpt>
      <trkpt lat="48.08661" lon="6.40689">
        <ele>369.4</ele>
        <time>2023-04-30T14:42:16Z</time>
      </trkpt>
      <trkpt lat="48.08661" lon="6.40697">
        <ele>369.6</ele>
        <time>2023-04-30T14:42:17Z</time>
      </trkpt>
      <trkpt lat="48.08661" lon="6.40705">
        <ele>369.7</ele>
        <time>2023-04-30T14:42:18Z</time>
      </trkpt>
      <trkpt lat="48.08661" lon="6.40714">
        <ele>369.9</ele>
        <time>2023-04-30T14:42:19Z</time>
      </trkpt>
      <trkpt lat="48.0866" lon="6.40722">
        <ele>370.1</ele>
        <time>2023-04-30T14:42:20Z</time>
      </trkpt>
      <trkpt lat="48.08659" lon="6.40729">
        <ele>370.2</ele>
        <time>2023-04-30T14:42:21Z</time>
      </trkpt>
      <trkpt lat="48.08658" lon="6.40736">
        <ele>370.4</ele>
        <time>2023-04-30T14:42:22Z</time>
      </trkpt>
      <trkpt lat="48.08657" lon="6.40744">
        <ele>370.6</ele>
        <time>2023-04-30T14:42:23Z</time>
      </trkpt>
      <trkpt lat="48.08655" lon="6.40751">
        <ele>370.8</ele>
        <time>2023-04-30T14:42:24Z</time>
      </trkpt>
      <trkpt lat="48.08652" lon="6.40757">
        <ele>371</ele>
        <time>2023-04-30T14:42:25Z</time>
      </trkpt>
      <trkpt lat="48.0865" lon="6.40764">
        <ele>371.2</ele>
        <time>2023-04-30T14:42:26Z</time>
      </trkpt>
      <trkpt lat="48.08648" lon="6.4077">
        <ele>371.5</ele>
        <time>2023-04-30T14:42:27Z</time>
      </trkpt>
      <trkpt lat="48.08645" lon="6.40777">
        <ele>371.7</ele>
        <time>2023-04-30T14:42:28Z</time>
      </trkpt>
      <trkpt lat="48.08642" lon="6.40783">
        <ele>371.9</ele>
        <time>2023-04-30T14:42:29Z</time>
      </trkpt>
      <trkpt lat="48.08639" lon="6.4079">
        <ele>372.2</ele>
        <time>2023-04-30T14:42:30Z</time>
      </trkpt>
      <trkpt lat="48.08637" lon="6.40797">
        <ele>372.4</ele>
        <time>2023-04-30T14:42:31Z</time>
      </trkpt>
      <trkpt lat="48.08634" lon="6.40803">
        <ele>372.6</ele>
        <time>2023-04-30T14:42:32Z</time>
      </trkpt>
      <trkpt lat="48.08631" lon="6.4081">
        <ele>372.8</ele>
        <time>2023-04-30T14:42:33Z</time>
      </trkpt>
      <trkpt lat="48.08628" lon="6.40816">
        <ele>373</ele>
        <time>2023-04-30T14:42:34Z</time>
      </trkpt>
      <trkpt lat="48.08626" lon="6.40822">
        <ele>373.2</ele>
        <time>2023-04-30T14:42:35Z</time>
      </trkpt>
      <trkpt lat="48.08623" lon="6.40828">
        <ele>373.5</ele>
        <time>2023-04-30T14:42:36Z</time>
      </trkpt>
      <trkpt lat="48.08621" lon="6.40834">
        <ele>373.7</ele>
        <time>2023-04-30T14:42:37Z</time>
      </trkpt>
      <trkpt lat="48.08618" lon="6.40839">
        <ele>374</ele>
        <time>2023-04-30T14:42:38Z</time>
      </trkpt>
      <trkpt lat="48.08616" lon="6.40845">
        <ele>374.2</ele>
        <time>2023-04-30T14:42:39Z</time>
      </trkpt>
      <trkpt lat="48.08615" lon="6.40849">
        <ele>374.4</ele>
        <time>2023-04-30T14:42:40Z</time>
      </trkpt>
      <trkpt lat="48.08612" lon="6.40853">
        <ele>374.6</ele>
        <time>2023-04-30T14:42:41Z</time>
      </trkpt>
      <trkpt lat="48.0861" lon="6.40859">
        <ele>374.9</ele>
        <time>2023-04-30T14:42:42Z</time>
      </trkpt>
      <trkpt lat="48.08607" lon="6.40864">
        <ele>375.1</ele>
        <time>2023-04-30T14:42:43Z</time>
      </trkpt>
      <trkpt lat="48.08605" lon="6.40869">
        <ele>375.4</ele>
        <time>2023-04-30T14:42:44Z</time>
      </trkpt>
      <trkpt lat="48.08602" lon="6.40876">
        <ele>375.7</ele>
        <time>2023-04-30T14:42:45Z</time>
      </trkpt>
      <trkpt lat="48.086" lon="6.40882">
        <ele>375.9</ele>
        <time>2023-04-30T14:42:46Z</time>
      </trkpt>
      <trkpt lat="48.08598" lon="6.40885">
        <ele>376.1</ele>
        <time>2023-04-30T14:42:47Z</time>
      </trkpt>
      <trkpt lat="48.08595" lon="6.40894">
        <ele>376.4</ele>
        <time>2023-04-30T14:42:48Z</time>
      </trkpt>
      <trkpt lat="48.08591" lon="6.40901">
        <ele>376.8</ele>
        <time>2023-04-30T14:42:49Z</time>
      </trkpt>
      <trkpt lat="48.08588" lon="6.40907">
        <ele>377.1</ele>
        <time>2023-04-30T14:42:50Z</time>
      </trkpt>
      <trkpt lat="48.08585" lon="6.4091">
        <ele>377.3</ele>
        <time>2023-04-30T14:42:52Z</time>
      </trkpt>
      <trkpt lat="48.08582" lon="6.40915">
        <ele>377.5</ele>
        <time>2023-04-30T14:42:53Z</time>
      </trkpt>
      <trkpt lat="48.08579" lon="6.40916">
        <ele>377.7</ele>
        <time>2023-04-30T14:42:54Z</time>
      </trkpt>
      <trkpt lat="48.08578" lon="6.40915">
        <ele>377.8</ele>
        <time>2023-04-30T14:42:55Z</time>
      </trkpt>
      <trkpt lat="48.08574" lon="6.40918">
        <ele>378</ele>
        <time>2023-04-30T14:42:56Z</time>
      </trkpt>
      <trkpt lat="48.08571" lon="6.40923">
        <ele>378.2</ele>
        <time>2023-04-30T14:42:57Z</time>
      </trkpt>
      <trkpt lat="48.08568" lon="6.40928">
        <ele>378.5</ele>
        <time>2023-04-30T14:42:58Z</time>
      </trkpt>
      <trkpt lat="48.08564" lon="6.40933">
        <ele>378.7</ele>
        <time>2023-04-30T14:43:00Z</time>
      </trkpt>
      <trkpt lat="48.08561" lon="6.40938">
        <ele>378.9</ele>
        <time>2023-04-30T14:43:01Z</time>
      </trkpt>
      <trkpt lat="48.08555" lon="6.40945">
        <ele>379.2</ele>
        <time>2023-04-30T14:43:02Z</time>
      </trkpt>
      <trkpt lat="48.08551" lon="6.4095">
        <ele>379.5</ele>
        <time>2023-04-30T14:43:03Z</time>
      </trkpt>
      <trkpt lat="48.08549" lon="6.40954">
        <ele>379.7</ele>
        <time>2023-04-30T14:43:05Z</time>
      </trkpt>
      <trkpt lat="48.08547" lon="6.40957">
        <ele>379.8</ele>
        <time>2023-04-30T14:43:06Z</time>
      </trkpt>
      <trkpt lat="48.08543" lon="6.4096">
        <ele>380</ele>
        <time>2023-04-30T14:43:07Z</time>
      </trkpt>
      <trkpt lat="48.08541" lon="6.40964">
        <ele>380.2</ele>
        <time>2023-04-30T14:43:08Z</time>
      </trkpt>
      <trkpt lat="48.08538" lon="6.40969">
        <ele>380.4</ele>
        <time>2023-04-30T14:43:09Z</time>
      </trkpt>
      <trkpt lat="48.08535" lon="6.40977">
        <ele>380.7</ele>
        <time>2023-04-30T14:43:10Z</time>
      </trkpt>
      <trkpt lat="48.08532" lon="6.40984">
        <ele>381</ele>
        <time>2023-04-30T14:43:11Z</time>
      </trkpt>
      <trkpt lat="48.08529" lon="6.40991">
        <ele>381.3</ele>
        <time>2023-04-30T14:43:13Z</time>
      </trkpt>
      <trkpt lat="48.08527" lon="6.40997">
        <ele>381.5</ele>
        <time>2023-04-30T14:43:14Z</time>
      </trkpt>
      <trkpt lat="48.08524" lon="6.41003">
        <ele>381.7</ele>
        <time>2023-04-30T14:43:15Z</time>
      </trkpt>
      <trkpt lat="48.08522" lon="6.41008">
        <ele>381.9</ele>
        <time>2023-04-30T14:43:16Z</time>
      </trkpt>
      <trkpt lat="48.0852" lon="6.41012">
        <ele>382</ele>
        <time>2023-04-30T14:43:17Z</time>
      </trkpt>
      <trkpt lat="48.08518" lon="6.41016">
        <ele>382.2</ele>
        <time>2023-04-30T14:43:18Z</time>
      </trkpt>
      <trkpt lat="48.08517" lon="6.41021">
        <ele>382.3</ele>
        <time>2023-04-30T14:43:19Z</time>
      </trkpt>
      <trkpt lat="48.08514" lon="6.41037">
        <ele>382.7</ele>
        <time>2023-04-30T14:43:21Z</time>
      </trkpt>
      <trkpt lat="48.08513" lon="6.41044">
        <ele>382.9</ele>
        <time>2023-04-30T14:43:23Z</time>
      </trkpt>
      <trkpt lat="48.08512" lon="6.41051">
        <ele>383</ele>
        <time>2023-04-30T14:43:24Z</time>
      </trkpt>
      <trkpt lat="48.0851" lon="6.41059">
        <ele>382.9</ele>
        <time>2023-04-30T14:43:25Z</time>
      </trkpt>
      <trkpt lat="48.08508" lon="6.41069">
        <ele>382.7</ele>
        <time>2023-04-30T14:43:26Z</time>
      </trkpt>
      <trkpt lat="48.08507" lon="6.41077">
        <ele>382.6</ele>
        <time>2023-04-30T14:43:27Z</time>
      </trkpt>
      <trkpt lat="48.08505" lon="6.41087">
        <ele>382.3</ele>
        <time>2023-04-30T14:43:29Z</time>
      </trkpt>
      <trkpt lat="48.08505" lon="6.41097">
        <ele>382.1</ele>
        <time>2023-04-30T14:43:30Z</time>
      </trkpt>
      <trkpt lat="48.08503" lon="6.41107">
        <ele>381.8</ele>
        <time>2023-04-30T14:43:31Z</time>
      </trkpt>
      <trkpt lat="48.08502" lon="6.41115">
        <ele>381.6</ele>
        <time>2023-04-30T14:43:32Z</time>
      </trkpt>
      <trkpt lat="48.085" lon="6.41125">
        <ele>381.3</ele>
        <time>2023-04-30T14:43:33Z</time>
      </trkpt>
      <trkpt lat="48.08498" lon="6.41136">
        <ele>380.9</ele>
        <time>2023-04-30T14:43:34Z</time>
      </trkpt>
      <trkpt lat="48.08496" lon="6.41147">
        <ele>380.6</ele>
        <time>2023-04-30T14:43:35Z</time>
      </trkpt>
      <trkpt lat="48.08496" lon="6.41157">
        <ele>380.3</ele>
        <time>2023-04-30T14:43:36Z</time>
      </trkpt>
      <trkpt lat="48.08494" lon="6.41169">
        <ele>380</ele>
        <time>2023-04-30T14:43:37Z</time>
      </trkpt>
      <trkpt lat="48.08493" lon="6.4118">
        <ele>379.7</ele>
        <time>2023-04-30T14:43:38Z</time>
      </trkpt>
      <trkpt lat="48.08491" lon="6.41193">
        <ele>379.3</ele>
        <time>2023-04-30T14:43:39Z</time>
      </trkpt>
      <trkpt lat="48.08489" lon="6.41206">
        <ele>379</ele>
        <time>2023-04-30T14:43:40Z</time>
      </trkpt>
      <trkpt lat="48.08488" lon="6.41218">
        <ele>378.8</ele>
        <time>2023-04-30T14:43:41Z</time>
      </trkpt>
      <trkpt lat="48.08487" lon="6.4123">
        <ele>378.7</ele>
        <time>2023-04-30T14:43:42Z</time>
      </trkpt>
      <trkpt lat="48.08485" lon="6.41242">
        <ele>378.6</ele>
        <time>2023-04-30T14:43:43Z</time>
      </trkpt>
      <trkpt lat="48.08483" lon="6.41254">
        <ele>378.6</ele>
        <time>2023-04-30T14:43:44Z</time>
      </trkpt>
      <trkpt lat="48.08482" lon="6.41265">
        <ele>378.7</ele>
        <time>2023-04-30T14:43:45Z</time>
      </trkpt>
      <trkpt lat="48.08481" lon="6.41275">
        <ele>378.7</ele>
        <time>2023-04-30T14:43:46Z</time>
      </trkpt>
      <trkpt lat="48.0848" lon="6.41284">
        <ele>378.8</ele>
        <time>2023-04-30T14:43:47Z</time>
      </trkpt>
      <trkpt lat="48.08478" lon="6.41293">
        <ele>378.9</ele>
        <time>2023-04-30T14:43:48Z</time>
      </trkpt>
      <trkpt lat="48.08475" lon="6.41303">
        <ele>379</ele>
        <time>2023-04-30T14:43:49Z</time>
      </trkpt>
      <trkpt lat="48.08472" lon="6.41311">
        <ele>379.2</ele>
        <time>2023-04-30T14:43:50Z</time>
      </trkpt>
      <trkpt lat="48.08469" lon="6.41319">
        <ele>379.4</ele>
        <time>2023-04-30T14:43:51Z</time>
      </trkpt>
      <trkpt lat="48.08466" lon="6.41325">
        <ele>379.6</ele>
        <time>2023-04-30T14:43:52Z</time>
      </trkpt>
      <trkpt lat="48.08462" lon="6.41332">
        <ele>379.7</ele>
        <time>2023-04-30T14:43:53Z</time>
      </trkpt>
      <trkpt lat="48.08458" lon="6.4134">
        <ele>380</ele>
        <time>2023-04-30T14:43:54Z</time>
      </trkpt>
      <trkpt lat="48.08454" lon="6.41347">
        <ele>380.1</ele>
        <time>2023-04-30T14:43:55Z</time>
      </trkpt>
      <trkpt lat="48.08452" lon="6.41354">
        <ele>380.2</ele>
        <time>2023-04-30T14:43:56Z</time>
      </trkpt>
      <trkpt lat="48.08449" lon="6.4136">
        <ele>380.3</ele>
        <time>2023-04-30T14:43:57Z</time>
      </trkpt>
      <trkpt lat="48.08446" lon="6.41365">
        <ele>380.4</ele>
        <time>2023-04-30T14:43:58Z</time>
      </trkpt>
      <trkpt lat="48.08443" lon="6.41371">
        <ele>380.4</ele>
        <time>2023-04-30T14:43:59Z</time>
      </trkpt>
      <trkpt lat="48.0844" lon="6.41377">
        <ele>380.5</ele>
        <time>2023-04-30T14:44:00Z</time>
      </trkpt>
      <trkpt lat="48.08436" lon="6.41386">
        <ele>380.6</ele>
        <time>2023-04-30T14:44:01Z</time>
      </trkpt>
      <trkpt lat="48.08433" lon="6.41393">
        <ele>380.6</ele>
        <time>2023-04-30T14:44:02Z</time>
      </trkpt>
      <trkpt lat="48.0843" lon="6.41399">
        <ele>380.6</ele>
        <time>2023-04-30T14:44:03Z</time>
      </trkpt>
      <trkpt lat="48.08427" lon="6.41406">
        <ele>380.6</ele>
        <time>2023-04-30T14:44:04Z</time>
      </trkpt>
      <trkpt lat="48.08422" lon="6.41413">
        <ele>380.6</ele>
        <time>2023-04-30T14:44:05Z</time>
      </trkpt>
      <trkpt lat="48.08419" lon="6.4142">
        <ele>380.6</ele>
        <time>2023-04-30T14:44:06Z</time>
      </trkpt>
      <trkpt lat="48.08415" lon="6.41428">
        <ele>380.7</ele>
        <time>2023-04-30T14:44:07Z</time>
      </trkpt>
      <trkpt lat="48.08411" lon="6.41436">
        <ele>380.7</ele>
        <time>2023-04-30T14:44:08Z</time>
      </trkpt>
      <trkpt lat="48.08408" lon="6.41443">
        <ele>380.7</ele>
        <time>2023-04-30T14:44:09Z</time>
      </trkpt>
      <trkpt lat="48.08405" lon="6.41451">
        <ele>380.8</ele>
        <time>2023-04-30T14:44:10Z</time>
      </trkpt>
      <trkpt lat="48.08401" lon="6.41458">
        <ele>380.8</ele>
        <time>2023-04-30T14:44:11Z</time>
      </trkpt>
      <trkpt lat="48.08398" lon="6.41465">
        <ele>380.9</ele>
        <time>2023-04-30T14:44:12Z</time>
      </trkpt>
      <trkpt lat="48.08395" lon="6.41473">
        <ele>381</ele>
        <time>2023-04-30T14:44:13Z</time>
      </trkpt>
      <trkpt lat="48.08391" lon="6.41479">
        <ele>381</ele>
        <time>2023-04-30T14:44:14Z</time>
      </trkpt>
      <trkpt lat="48.08388" lon="6.41485">
        <ele>381.1</ele>
        <time>2023-04-30T14:44:15Z</time>
      </trkpt>
      <trkpt lat="48.08385" lon="6.41492">
        <ele>381.1</ele>
        <time>2023-04-30T14:44:16Z</time>
      </trkpt>
      <trkpt lat="48.08381" lon="6.41499">
        <ele>381.2</ele>
        <time>2023-04-30T14:44:17Z</time>
      </trkpt>
      <trkpt lat="48.08378" lon="6.41506">
        <ele>381.2</ele>
        <time>2023-04-30T14:44:18Z</time>
      </trkpt>
      <trkpt lat="48.08374" lon="6.41513">
        <ele>381.3</ele>
        <time>2023-04-30T14:44:19Z</time>
      </trkpt>
      <trkpt lat="48.0837" lon="6.4152">
        <ele>381.3</ele>
        <time>2023-04-30T14:44:20Z</time>
      </trkpt>
      <trkpt lat="48.08366" lon="6.41527">
        <ele>381.3</ele>
        <time>2023-04-30T14:44:21Z</time>
      </trkpt>
      <trkpt lat="48.08362" lon="6.41533">
        <ele>381.3</ele>
        <time>2023-04-30T14:44:22Z</time>
      </trkpt>
      <trkpt lat="48.08359" lon="6.4154">
        <ele>381.3</ele>
        <time>2023-04-30T14:44:23Z</time>
      </trkpt>
      <trkpt lat="48.08355" lon="6.41547">
        <ele>381.3</ele>
        <time>2023-04-30T14:44:24Z</time>
      </trkpt>
      <trkpt lat="48.08351" lon="6.41554">
        <ele>381.3</ele>
        <time>2023-04-30T14:44:25Z</time>
      </trkpt>
      <trkpt lat="48.08347" lon="6.4156">
        <ele>381.3</ele>
        <time>2023-04-30T14:44:26Z</time>
      </trkpt>
      <trkpt lat="48.08343" lon="6.41567">
        <ele>381.3</ele>
        <time>2023-04-30T14:44:27Z</time>
      </trkpt>
      <trkpt lat="48.08339" lon="6.41573">
        <ele>381.3</ele>
        <time>2023-04-30T14:44:28Z</time>
      </trkpt>
      <trkpt lat="48.08335" lon="6.41579">
        <ele>381.3</ele>
        <time>2023-04-30T14:44:29Z</time>
      </trkpt>
      <trkpt lat="48.08331" lon="6.41586">
        <ele>381.3</ele>
        <time>2023-04-30T14:44:30Z</time>
      </trkpt>
      <trkpt lat="48.08327" lon="6.41592">
        <ele>381.3</ele>
        <time>2023-04-30T14:44:31Z</time>
      </trkpt>
      <trkpt lat="48.08323" lon="6.41599">
        <ele>381.3</ele>
        <time>2023-04-30T14:44:32Z</time>
      </trkpt>
      <trkpt lat="48.08319" lon="6.41605">
        <ele>381.3</ele>
        <time>2023-04-30T14:44:33Z</time>
      </trkpt>
      <trkpt lat="48.08315" lon="6.41611">
        <ele>381.3</ele>
        <time>2023-04-30T14:44:34Z</time>
      </trkpt>
      <trkpt lat="48.08312" lon="6.41617">
        <ele>381.3</ele>
        <time>2023-04-30T14:44:35Z</time>
      </trkpt>
      <trkpt lat="48.08308" lon="6.41623">
        <ele>381.3</ele>
        <time>2023-04-30T14:44:36Z</time>
      </trkpt>
      <trkpt lat="48.08305" lon="6.41629">
        <ele>381.3</ele>
        <time>2023-04-30T14:44:37Z</time>
      </trkpt>
      <trkpt lat="48.08301" lon="6.41634">
        <ele>381.3</ele>
        <time>2023-04-30T14:44:38Z</time>
      </trkpt>
      <trkpt lat="48.08298" lon="6.41641">
        <ele>381.3</ele>
        <time>2023-04-30T14:44:39Z</time>
      </trkpt>
      <trkpt lat="48.08294" lon="6.4165">
        <ele>381.4</ele>
        <time>2023-04-30T14:44:40Z</time>
      </trkpt>
      <trkpt lat="48.08291" lon="6.41657">
        <ele>381.4</ele>
        <time>2023-04-30T14:44:41Z</time>
      </trkpt>
      <trkpt lat="48.08288" lon="6.41664">
        <ele>381.4</ele>
        <time>2023-04-30T14:44:42Z</time>
      </trkpt>
      <trkpt lat="48.08285" lon="6.41671">
        <ele>381.5</ele>
        <time>2023-04-30T14:44:43Z</time>
      </trkpt>
      <trkpt lat="48.08282" lon="6.41679">
        <ele>381.6</ele>
        <time>2023-04-30T14:44:44Z</time>
      </trkpt>
      <trkpt lat="48.08279" lon="6.41686">
        <ele>381.7</ele>
        <time>2023-04-30T14:44:45Z</time>
      </trkpt>
      <trkpt lat="48.08276" lon="6.41693">
        <ele>381.8</ele>
        <time>2023-04-30T14:44:46Z</time>
      </trkpt>
      <trkpt lat="48.08273" lon="6.41699">
        <ele>381.8</ele>
        <time>2023-04-30T14:44:47Z</time>
      </trkpt>
      <trkpt lat="48.08271" lon="6.41705">
        <ele>381.9</ele>
        <time>2023-04-30T14:44:48Z</time>
      </trkpt>
      <trkpt lat="48.08268" lon="6.4171">
        <ele>382</ele>
        <time>2023-04-30T14:44:49Z</time>
      </trkpt>
      <trkpt lat="48.08265" lon="6.41718">
        <ele>382.1</ele>
        <time>2023-04-30T14:44:50Z</time>
      </trkpt>
      <trkpt lat="48.08263" lon="6.41725">
        <ele>382.1</ele>
        <time>2023-04-30T14:44:51Z</time>
      </trkpt>
      <trkpt lat="48.0826" lon="6.41732">
        <ele>382.2</ele>
        <time>2023-04-30T14:44:52Z</time>
      </trkpt>
      <trkpt lat="48.08258" lon="6.41737">
        <ele>382.2</ele>
        <time>2023-04-30T14:44:53Z</time>
      </trkpt>
      <trkpt lat="48.08254" lon="6.41745">
        <ele>382.3</ele>
        <time>2023-04-30T14:44:54Z</time>
      </trkpt>
      <trkpt lat="48.08251" lon="6.41753">
        <ele>382.4</ele>
        <time>2023-04-30T14:44:55Z</time>
      </trkpt>
      <trkpt lat="48.08249" lon="6.41762">
        <ele>382.5</ele>
        <time>2023-04-30T14:44:56Z</time>
      </trkpt>
      <trkpt lat="48.08247" lon="6.41771">
        <ele>382.6</ele>
        <time>2023-04-30T14:44:57Z</time>
      </trkpt>
      <trkpt lat="48.08245" lon="6.4178">
        <ele>382.7</ele>
        <time>2023-04-30T14:44:58Z</time>
      </trkpt>
      <trkpt lat="48.08243" lon="6.41787">
        <ele>382.8</ele>
        <time>2023-04-30T14:44:59Z</time>
      </trkpt>
      <trkpt lat="48.08241" lon="6.41795">
        <ele>382.9</ele>
        <time>2023-04-30T14:45:00Z</time>
      </trkpt>
      <trkpt lat="48.0824" lon="6.41803">
        <ele>383</ele>
        <time>2023-04-30T14:45:01Z</time>
      </trkpt>
      <trkpt lat="48.08238" lon="6.4181">
        <ele>383.1</ele>
        <time>2023-04-30T14:45:02Z</time>
      </trkpt>
      <trkpt lat="48.08237" lon="6.41818">
        <ele>383.2</ele>
        <time>2023-04-30T14:45:03Z</time>
      </trkpt>
      <trkpt lat="48.08236" lon="6.41826">
        <ele>383.3</ele>
        <time>2023-04-30T14:45:04Z</time>
      </trkpt>
      <trkpt lat="48.08234" lon="6.41833">
        <ele>383.4</ele>
        <time>2023-04-30T14:45:05Z</time>
      </trkpt>
      <trkpt lat="48.08233" lon="6.4184">
        <ele>383.5</ele>
        <time>2023-04-30T14:45:06Z</time>
      </trkpt>
      <trkpt lat="48.08233" lon="6.41845">
        <ele>383.5</ele>
        <time>2023-04-30T14:45:07Z</time>
      </trkpt>
      <trkpt lat="48.08231" lon="6.41851">
        <ele>383.5</ele>
        <time>2023-04-30T14:45:08Z</time>
      </trkpt>
      <trkpt lat="48.0823" lon="6.41853">
        <ele>383.6</ele>
        <time>2023-04-30T14:45:09Z</time>
      </trkpt>
      <trkpt lat="48.08229" lon="6.4186">
        <ele>383.6</ele>
        <time>2023-04-30T14:45:10Z</time>
      </trkpt>
      <trkpt lat="48.08228" lon="6.41867">
        <ele>383.7</ele>
        <time>2023-04-30T14:45:11Z</time>
      </trkpt>
      <trkpt lat="48.08227" lon="6.41872">
        <ele>383.8</ele>
        <time>2023-04-30T14:45:12Z</time>
      </trkpt>
      <trkpt lat="48.08226" lon="6.41879">
        <ele>383.9</ele>
        <time>2023-04-30T14:45:13Z</time>
      </trkpt>
      <trkpt lat="48.08224" lon="6.41884">
        <ele>384</ele>
        <time>2023-04-30T14:45:14Z</time>
      </trkpt>
      <trkpt lat="48.08221" lon="6.41898">
        <ele>384.2</ele>
        <time>2023-04-30T14:45:16Z</time>
      </trkpt>
      <trkpt lat="48.08218" lon="6.41906">
        <ele>384.3</ele>
        <time>2023-04-30T14:45:17Z</time>
      </trkpt>
      <trkpt lat="48.08214" lon="6.41913">
        <ele>384.4</ele>
        <time>2023-04-30T14:45:18Z</time>
      </trkpt>
      <trkpt lat="48.08209" lon="6.41927">
        <ele>384.6</ele>
        <time>2023-04-30T14:45:20Z</time>
      </trkpt>
      <trkpt lat="48.08204" lon="6.41933">
        <ele>384.6</ele>
        <time>2023-04-30T14:45:21Z</time>
      </trkpt>
      <trkpt lat="48.082" lon="6.41938">
        <ele>384.7</ele>
        <time>2023-04-30T14:45:22Z</time>
      </trkpt>
      <trkpt lat="48.08197" lon="6.41949">
        <ele>384.8</ele>
        <time>2023-04-30T14:45:23Z</time>
      </trkpt>
      <trkpt lat="48.08194" lon="6.41957">
        <ele>384.8</ele>
        <time>2023-04-30T14:45:24Z</time>
      </trkpt>
      <trkpt lat="48.08194" lon="6.41962">
        <ele>384.9</ele>
        <time>2023-04-30T14:45:25Z</time>
      </trkpt>
      <trkpt lat="48.08193" lon="6.41965">
        <ele>384.9</ele>
        <time>2023-04-30T14:45:26Z</time>
      </trkpt>
      <trkpt lat="48.08191" lon="6.41966">
        <ele>384.9</ele>
        <time>2023-04-30T14:45:27Z</time>
      </trkpt>
      <trkpt lat="48.08188" lon="6.41968">
        <ele>385</ele>
        <time>2023-04-30T14:45:28Z</time>
      </trkpt>
      <trkpt lat="48.0818" lon="6.41972">
        <ele>385</ele>
        <time>2023-04-30T14:45:30Z</time>
      </trkpt>
      <trkpt lat="48.08173" lon="6.41975">
        <ele>385</ele>
        <time>2023-04-30T14:45:31Z</time>
      </trkpt>
      <trkpt lat="48.08167" lon="6.41978">
        <ele>385</ele>
        <time>2023-04-30T14:45:32Z</time>
      </trkpt>
      <trkpt lat="48.08163" lon="6.41983">
        <ele>385</ele>
        <time>2023-04-30T14:45:33Z</time>
      </trkpt>
      <trkpt lat="48.08159" lon="6.41987">
        <ele>385</ele>
        <time>2023-04-30T14:45:34Z</time>
      </trkpt>
      <trkpt lat="48.08155" lon="6.41991">
        <ele>385</ele>
        <time>2023-04-30T14:45:35Z</time>
      </trkpt>
      <trkpt lat="48.0815" lon="6.41994">
        <ele>385</ele>
        <time>2023-04-30T14:45:36Z</time>
      </trkpt>
      <trkpt lat="48.08144" lon="6.41996">
        <ele>385</ele>
        <time>2023-04-30T14:45:37Z</time>
      </trkpt>
      <trkpt lat="48.08138" lon="6.41998">
        <ele>385</ele>
        <time>2023-04-30T14:45:38Z</time>
      </trkpt>
      <trkpt lat="48.08131" lon="6.41997">
        <ele>385</ele>
        <time>2023-04-30T14:45:39Z</time>
      </trkpt>
      <trkpt lat="48.08126" lon="6.41994">
        <ele>384.9</ele>
        <time>2023-04-30T14:45:40Z</time>
      </trkpt>
      <trkpt lat="48.08122" lon="6.41989">
        <ele>384.9</ele>
        <time>2023-04-30T14:45:41Z</time>
      </trkpt>
      <trkpt lat="48.08118" lon="6.41983">
        <ele>385</ele>
        <time>2023-04-30T14:45:42Z</time>
      </trkpt>
      <trkpt lat="48.08114" lon="6.41978">
        <ele>385</ele>
        <time>2023-04-30T14:45:43Z</time>
      </trkpt>
      <trkpt lat="48.0811" lon="6.41972">
        <ele>385</ele>
        <time>2023-04-30T14:45:44Z</time>
      </trkpt>
      <trkpt lat="48.08106" lon="6.41967">
        <ele>385.1</ele>
        <time>2023-04-30T14:45:45Z</time>
      </trkpt>
      <trkpt lat="48.08101" lon="6.41962">
        <ele>385.2</ele>
        <time>2023-04-30T14:45:46Z</time>
      </trkpt>
      <trkpt lat="48.08097" lon="6.41956">
        <ele>385.2</ele>
        <time>2023-04-30T14:45:47Z</time>
      </trkpt>
      <trkpt lat="48.08092" lon="6.41951">
        <ele>385.3</ele>
        <time>2023-04-30T14:45:48Z</time>
      </trkpt>
      <trkpt lat="48.08087" lon="6.41948">
        <ele>385.4</ele>
        <time>2023-04-30T14:45:49Z</time>
      </trkpt>
      <trkpt lat="48.08081" lon="6.41946">
        <ele>385.6</ele>
        <time>2023-04-30T14:45:50Z</time>
      </trkpt>
      <trkpt lat="48.08075" lon="6.41946">
        <ele>385.7</ele>
        <time>2023-04-30T14:45:51Z</time>
      </trkpt>
      <trkpt lat="48.0807" lon="6.41948">
        <ele>385.8</ele>
        <time>2023-04-30T14:45:52Z</time>
      </trkpt>
      <trkpt lat="48.08065" lon="6.41951">
        <ele>386</ele>
        <time>2023-04-30T14:45:53Z</time>
      </trkpt>
      <trkpt lat="48.08061" lon="6.41955">
        <ele>386.1</ele>
        <time>2023-04-30T14:45:54Z</time>
      </trkpt>
      <trkpt lat="48.08057" lon="6.4196">
        <ele>386.3</ele>
        <time>2023-04-30T14:45:55Z</time>
      </trkpt>
      <trkpt lat="48.08053" lon="6.41966">
        <ele>386.4</ele>
        <time>2023-04-30T14:45:56Z</time>
      </trkpt>
      <trkpt lat="48.0805" lon="6.41972">
        <ele>386.5</ele>
        <time>2023-04-30T14:45:57Z</time>
      </trkpt>
      <trkpt lat="48.08046" lon="6.41977">
        <ele>386.7</ele>
        <time>2023-04-30T14:45:58Z</time>
      </trkpt>
      <trkpt lat="48.08043" lon="6.41983">
        <ele>386.8</ele>
        <time>2023-04-30T14:45:59Z</time>
      </trkpt>
      <trkpt lat="48.0804" lon="6.41988">
        <ele>386.9</ele>
        <time>2023-04-30T14:46:00Z</time>
      </trkpt>
      <trkpt lat="48.08036" lon="6.41994">
        <ele>387</ele>
        <time>2023-04-30T14:46:01Z</time>
      </trkpt>
      <trkpt lat="48.08033" lon="6.41999">
        <ele>387.1</ele>
        <time>2023-04-30T14:46:02Z</time>
      </trkpt>
      <trkpt lat="48.08029" lon="6.42004">
        <ele>387.3</ele>
        <time>2023-04-30T14:46:03Z</time>
      </trkpt>
      <trkpt lat="48.08025" lon="6.42009">
        <ele>387.4</ele>
        <time>2023-04-30T14:46:04Z</time>
      </trkpt>
      <trkpt lat="48.08022" lon="6.42015">
        <ele>387.5</ele>
        <time>2023-04-30T14:46:05Z</time>
      </trkpt>
      <trkpt lat="48.08019" lon="6.4202">
        <ele>387.6</ele>
        <time>2023-04-30T14:46:06Z</time>
      </trkpt>
      <trkpt lat="48.08016" lon="6.42025">
        <ele>387.7</ele>
        <time>2023-04-30T14:46:07Z</time>
      </trkpt>
      <trkpt lat="48.08013" lon="6.42031">
        <ele>387.8</ele>
        <time>2023-04-30T14:46:08Z</time>
      </trkpt>
      <trkpt lat="48.0801" lon="6.42036">
        <ele>387.9</ele>
        <time>2023-04-30T14:46:09Z</time>
      </trkpt>
      <trkpt lat="48.08007" lon="6.42041">
        <ele>388</ele>
        <time>2023-04-30T14:46:10Z</time>
      </trkpt>
      <trkpt lat="48.08004" lon="6.42046">
        <ele>388</ele>
        <time>2023-04-30T14:46:11Z</time>
      </trkpt>
      <trkpt lat="48.08001" lon="6.42052">
        <ele>388.1</ele>
        <time>2023-04-30T14:46:12Z</time>
      </trkpt>
      <trkpt lat="48.07998" lon="6.42057">
        <ele>388.1</ele>
        <time>2023-04-30T14:46:13Z</time>
      </trkpt>
      <trkpt lat="48.07994" lon="6.42062">
        <ele>388.1</ele>
        <time>2023-04-30T14:46:14Z</time>
      </trkpt>
      <trkpt lat="48.07991" lon="6.42068">
        <ele>388.2</ele>
        <time>2023-04-30T14:46:15Z</time>
      </trkpt>
      <trkpt lat="48.07987" lon="6.42074">
        <ele>388.2</ele>
        <time>2023-04-30T14:46:16Z</time>
      </trkpt>
      <trkpt lat="48.07984" lon="6.42079">
        <ele>388.2</ele>
        <time>2023-04-30T14:46:17Z</time>
      </trkpt>
      <trkpt lat="48.0798" lon="6.42085">
        <ele>388.2</ele>
        <time>2023-04-30T14:46:18Z</time>
      </trkpt>
      <trkpt lat="48.07977" lon="6.4209">
        <ele>388.3</ele>
        <time>2023-04-30T14:46:19Z</time>
      </trkpt>
      <trkpt lat="48.07974" lon="6.42096">
        <ele>388.3</ele>
        <time>2023-04-30T14:46:20Z</time>
      </trkpt>
      <trkpt lat="48.0797" lon="6.42102">
        <ele>388.3</ele>
        <time>2023-04-30T14:46:21Z</time>
      </trkpt>
      <trkpt lat="48.07966" lon="6.42107">
        <ele>388.4</ele>
        <time>2023-04-30T14:46:22Z</time>
      </trkpt>
      <trkpt lat="48.07963" lon="6.42113">
        <ele>388.4</ele>
        <time>2023-04-30T14:46:23Z</time>
      </trkpt>
      <trkpt lat="48.07959" lon="6.42118">
        <ele>388.5</ele>
        <time>2023-04-30T14:46:24Z</time>
      </trkpt>
      <trkpt lat="48.07955" lon="6.42123">
        <ele>388.6</ele>
        <time>2023-04-30T14:46:25Z</time>
      </trkpt>
      <trkpt lat="48.07951" lon="6.42128">
        <ele>388.6</ele>
        <time>2023-04-30T14:46:26Z</time>
      </trkpt>
      <trkpt lat="48.07946" lon="6.42132">
        <ele>388.7</ele>
        <time>2023-04-30T14:46:27Z</time>
      </trkpt>
      <trkpt lat="48.07942" lon="6.42136">
        <ele>388.7</ele>
        <time>2023-04-30T14:46:28Z</time>
      </trkpt>
      <trkpt lat="48.07938" lon="6.4214">
        <ele>388.8</ele>
        <time>2023-04-30T14:46:29Z</time>
      </trkpt>
      <trkpt lat="48.07934" lon="6.42145">
        <ele>388.9</ele>
        <time>2023-04-30T14:46:30Z</time>
      </trkpt>
      <trkpt lat="48.07929" lon="6.42149">
        <ele>388.9</ele>
        <time>2023-04-30T14:46:31Z</time>
      </trkpt>
      <trkpt lat="48.07925" lon="6.42154">
        <ele>389</ele>
        <time>2023-04-30T14:46:32Z</time>
      </trkpt>
      <trkpt lat="48.07921" lon="6.42158">
        <ele>389.1</ele>
        <time>2023-04-30T14:46:33Z</time>
      </trkpt>
      <trkpt lat="48.07917" lon="6.42163">
        <ele>389.2</ele>
        <time>2023-04-30T14:46:34Z</time>
      </trkpt>
      <trkpt lat="48.07913" lon="6.42167">
        <ele>389.3</ele>
        <time>2023-04-30T14:46:35Z</time>
      </trkpt>
      <trkpt lat="48.07909" lon="6.4217">
        <ele>389.3</ele>
        <time>2023-04-30T14:46:36Z</time>
      </trkpt>
      <trkpt lat="48.07905" lon="6.42175">
        <ele>389.5</ele>
        <time>2023-04-30T14:46:37Z</time>
      </trkpt>
      <trkpt lat="48.07901" lon="6.42181">
        <ele>389.6</ele>
        <time>2023-04-30T14:46:38Z</time>
      </trkpt>
      <trkpt lat="48.07897" lon="6.42186">
        <ele>389.8</ele>
        <time>2023-04-30T14:46:39Z</time>
      </trkpt>
      <trkpt lat="48.07895" lon="6.42191">
        <ele>389.9</ele>
        <time>2023-04-30T14:46:40Z</time>
      </trkpt>
      <trkpt lat="48.07893" lon="6.42196">
        <ele>390.1</ele>
        <time>2023-04-30T14:46:41Z</time>
      </trkpt>
      <trkpt lat="48.07892" lon="6.422">
        <ele>390.2</ele>
        <time>2023-04-30T14:46:42Z</time>
      </trkpt>
      <trkpt lat="48.07891" lon="6.42202">
        <ele>390.3</ele>
        <time>2023-04-30T14:46:43Z</time>
      </trkpt>
      <trkpt lat="48.07889" lon="6.4221">
        <ele>390.5</ele>
        <time>2023-04-30T14:46:44Z</time>
      </trkpt>
      <trkpt lat="48.07888" lon="6.42217">
        <ele>390.8</ele>
        <time>2023-04-30T14:46:45Z</time>
      </trkpt>
      <trkpt lat="48.07887" lon="6.42222">
        <ele>390.9</ele>
        <time>2023-04-30T14:46:46Z</time>
      </trkpt>
      <trkpt lat="48.07886" lon="6.42228">
        <ele>391.1</ele>
        <time>2023-04-30T14:46:47Z</time>
      </trkpt>
      <trkpt lat="48.07885" lon="6.42233">
        <ele>391.3</ele>
        <time>2023-04-30T14:46:48Z</time>
      </trkpt>
      <trkpt lat="48.07884" lon="6.42235">
        <ele>391.4</ele>
        <time>2023-04-30T14:46:49Z</time>
      </trkpt>
      <trkpt lat="48.07883" lon="6.42242">
        <ele>391.6</ele>
        <time>2023-04-30T14:46:50Z</time>
      </trkpt>
      <trkpt lat="48.07881" lon="6.42254">
        <ele>392</ele>
        <time>2023-04-30T14:46:52Z</time>
      </trkpt>
      <trkpt lat="48.07881" lon="6.42258">
        <ele>392.1</ele>
        <time>2023-04-30T14:46:53Z</time>
      </trkpt>
      <trkpt lat="48.07879" lon="6.42266">
        <ele>392.4</ele>
        <time>2023-04-30T14:46:55Z</time>
      </trkpt>
      <trkpt lat="48.07879" lon="6.4227">
        <ele>392.5</ele>
        <time>2023-04-30T14:46:56Z</time>
      </trkpt>
      <trkpt lat="48.07877" lon="6.42277">
        <ele>392.7</ele>
        <time>2023-04-30T14:46:58Z</time>
      </trkpt>
      <trkpt lat="48.07877" lon="6.42281">
        <ele>392.9</ele>
        <time>2023-04-30T14:46:59Z</time>
      </trkpt>
      <trkpt lat="48.07876" lon="6.42287">
        <ele>393</ele>
        <time>2023-04-30T14:47:00Z</time>
      </trkpt>
      <trkpt lat="48.07872" lon="6.42295">
        <ele>393.3</ele>
        <time>2023-04-30T14:47:01Z</time>
      </trkpt>
      <trkpt lat="48.07865" lon="6.4231">
        <ele>393.7</ele>
        <time>2023-04-30T14:47:02Z</time>
      </trkpt>
      <trkpt lat="48.07856" lon="6.4233">
        <ele>394.2</ele>
        <time>2023-04-30T14:47:03Z</time>
      </trkpt>
      <trkpt lat="48.0785" lon="6.42343">
        <ele>394.5</ele>
        <time>2023-04-30T14:47:05Z</time>
      </trkpt>
      <trkpt lat="48.07848" lon="6.42346">
        <ele>394.6</ele>
        <time>2023-04-30T14:47:07Z</time>
      </trkpt>
      <trkpt lat="48.07845" lon="6.42351">
        <ele>394.8</ele>
        <time>2023-04-30T14:47:08Z</time>
      </trkpt>
      <trkpt lat="48.07842" lon="6.42358">
        <ele>394.9</ele>
        <time>2023-04-30T14:47:10Z</time>
      </trkpt>
      <trkpt lat="48.07841" lon="6.42363">
        <ele>395</ele>
        <time>2023-04-30T14:47:11Z</time>
      </trkpt>
      <trkpt lat="48.0784" lon="6.4237">
        <ele>395.1</ele>
        <time>2023-04-30T14:47:12Z</time>
      </trkpt>
      <trkpt lat="48.07838" lon="6.42379">
        <ele>395.2</ele>
        <time>2023-04-30T14:47:13Z</time>
      </trkpt>
      <trkpt lat="48.07836" lon="6.42386">
        <ele>395.2</ele>
        <time>2023-04-30T14:47:14Z</time>
      </trkpt>
      <trkpt lat="48.07834" lon="6.42392">
        <ele>395.3</ele>
        <time>2023-04-30T14:47:15Z</time>
      </trkpt>
      <trkpt lat="48.07833" lon="6.42399">
        <ele>395.3</ele>
        <time>2023-04-30T14:47:16Z</time>
      </trkpt>
      <trkpt lat="48.07831" lon="6.42406">
        <ele>395.4</ele>
        <time>2023-04-30T14:47:18Z</time>
      </trkpt>
      <trkpt lat="48.07829" lon="6.42416">
        <ele>395.4</ele>
        <time>2023-04-30T14:47:19Z</time>
      </trkpt>
      <trkpt lat="48.07828" lon="6.42424">
        <ele>395.5</ele>
        <time>2023-04-30T14:47:21Z</time>
      </trkpt>
      <trkpt lat="48.07826" lon="6.42431">
        <ele>395.5</ele>
        <time>2023-04-30T14:47:22Z</time>
      </trkpt>
      <trkpt lat="48.07825" lon="6.42437">
        <ele>395.6</ele>
        <time>2023-04-30T14:47:23Z</time>
      </trkpt>
      <trkpt lat="48.07824" lon="6.42445">
        <ele>395.6</ele>
        <time>2023-04-30T14:47:24Z</time>
      </trkpt>
      <trkpt lat="48.07822" lon="6.42451">
        <ele>395.7</ele>
        <time>2023-04-30T14:47:25Z</time>
      </trkpt>
      <trkpt lat="48.07821" lon="6.42457">
        <ele>395.7</ele>
        <time>2023-04-30T14:47:27Z</time>
      </trkpt>
      <trkpt lat="48.07819" lon="6.42464">
        <ele>395.8</ele>
        <time>2023-04-30T14:47:28Z</time>
      </trkpt>
      <trkpt lat="48.07818" lon="6.42471">
        <ele>395.9</ele>
        <time>2023-04-30T14:47:30Z</time>
      </trkpt>
      <trkpt lat="48.07816" lon="6.42475">
        <ele>395.9</ele>
        <time>2023-04-30T14:47:31Z</time>
      </trkpt>
      <trkpt lat="48.07815" lon="6.42476">
        <ele>395.9</ele>
        <time>2023-04-30T14:47:32Z</time>
      </trkpt>
      <trkpt lat="48.07814" lon="6.42477">
        <ele>396</ele>
        <time>2023-04-30T14:47:33Z</time>
      </trkpt>
      <trkpt lat="48.07815" lon="6.42477">
        <ele>396</ele>
        <time>2023-04-30T14:47:35Z</time>
      </trkpt>
      <trkpt lat="48.07816" lon="6.42477">
        <ele>396</ele>
        <time>2023-04-30T14:47:36Z</time>
      </trkpt>
      <trkpt lat="48.07817" lon="6.42477">
        <ele>396</ele>
        <time>2023-04-30T14:47:37Z</time>
      </trkpt>
      <trkpt lat="48.07815" lon="6.42479">
        <ele>396.1</ele>
        <time>2023-04-30T14:47:38Z</time>
      </trkpt>
      <trkpt lat="48.07812" lon="6.42482">
        <ele>396.1</ele>
        <time>2023-04-30T14:47:39Z</time>
      </trkpt>
      <trkpt lat="48.0781" lon="6.42487">
        <ele>396.2</ele>
        <time>2023-04-30T14:47:41Z</time>
      </trkpt>
      <trkpt lat="48.07809" lon="6.42492">
        <ele>396.3</ele>
        <time>2023-04-30T14:47:42Z</time>
      </trkpt>
      <trkpt lat="48.07808" lon="6.42497">
        <ele>396.3</ele>
        <time>2023-04-30T14:47:43Z</time>
      </trkpt>
      <trkpt lat="48.07807" lon="6.42503">
        <ele>396.4</ele>
        <time>2023-04-30T14:47:44Z</time>
      </trkpt>
      <trkpt lat="48.07804" lon="6.42512">
        <ele>396.4</ele>
        <time>2023-04-30T14:47:46Z</time>
      </trkpt>
      <trkpt lat="48.07801" lon="6.42517">
        <ele>396.4</ele>
        <time>2023-04-30T14:47:47Z</time>
      </trkpt>
      <trkpt lat="48.07798" lon="6.42522">
        <ele>396.4</ele>
        <time>2023-04-30T14:47:48Z</time>
      </trkpt>
      <trkpt lat="48.07793" lon="6.4253">
        <ele>396.5</ele>
        <time>2023-04-30T14:47:50Z</time>
      </trkpt>
      <trkpt lat="48.07789" lon="6.42536">
        <ele>396.6</ele>
        <time>2023-04-30T14:47:51Z</time>
      </trkpt>
      <trkpt lat="48.07785" lon="6.42541">
        <ele>396.7</ele>
        <time>2023-04-30T14:47:52Z</time>
      </trkpt>
      <trkpt lat="48.07782" lon="6.42544">
        <ele>396.8</ele>
        <time>2023-04-30T14:47:53Z</time>
      </trkpt>
      <trkpt lat="48.07778" lon="6.42548">
        <ele>397</ele>
        <time>2023-04-30T14:47:54Z</time>
      </trkpt>
      <trkpt lat="48.07774" lon="6.42551">
        <ele>397.2</ele>
        <time>2023-04-30T14:47:55Z</time>
      </trkpt>
      <trkpt lat="48.0777" lon="6.42555">
        <ele>397.6</ele>
        <time>2023-04-30T14:47:57Z</time>
      </trkpt>
      <trkpt lat="48.07767" lon="6.42558">
        <ele>397.8</ele>
        <time>2023-04-30T14:47:58Z</time>
      </trkpt>
      <trkpt lat="48.07763" lon="6.42561">
        <ele>398.1</ele>
        <time>2023-04-30T14:47:59Z</time>
      </trkpt>
      <trkpt lat="48.0776" lon="6.42566">
        <ele>398.5</ele>
        <time>2023-04-30T14:48:00Z</time>
      </trkpt>
      <trkpt lat="48.07758" lon="6.42571">
        <ele>398.8</ele>
        <time>2023-04-30T14:48:01Z</time>
      </trkpt>
      <trkpt lat="48.07756" lon="6.42577">
        <ele>399.2</ele>
        <time>2023-04-30T14:48:02Z</time>
      </trkpt>
      <trkpt lat="48.07753" lon="6.42584">
        <ele>399.6</ele>
        <time>2023-04-30T14:48:03Z</time>
      </trkpt>
      <trkpt lat="48.07751" lon="6.4259">
        <ele>399.9</ele>
        <time>2023-04-30T14:48:04Z</time>
      </trkpt>
      <trkpt lat="48.0775" lon="6.42595">
        <ele>400.1</ele>
        <time>2023-04-30T14:48:05Z</time>
      </trkpt>
      <trkpt lat="48.07749" lon="6.42601">
        <ele>400.4</ele>
        <time>2023-04-30T14:48:06Z</time>
      </trkpt>
      <trkpt lat="48.07748" lon="6.42605">
        <ele>400.6</ele>
        <time>2023-04-30T14:48:08Z</time>
      </trkpt>
      <trkpt lat="48.07747" lon="6.42611">
        <ele>400.9</ele>
        <time>2023-04-30T14:48:09Z</time>
      </trkpt>
      <trkpt lat="48.07746" lon="6.42616">
        <ele>401.2</ele>
        <time>2023-04-30T14:48:10Z</time>
      </trkpt>
      <trkpt lat="48.07744" lon="6.42622">
        <ele>401.4</ele>
        <time>2023-04-30T14:48:11Z</time>
      </trkpt>
      <trkpt lat="48.07742" lon="6.42628">
        <ele>401.7</ele>
        <time>2023-04-30T14:48:12Z</time>
      </trkpt>
      <trkpt lat="48.07741" lon="6.42633">
        <ele>402</ele>
        <time>2023-04-30T14:48:14Z</time>
      </trkpt>
      <trkpt lat="48.07739" lon="6.42638">
        <ele>402.2</ele>
        <time>2023-04-30T14:48:15Z</time>
      </trkpt>
      <trkpt lat="48.07738" lon="6.42643">
        <ele>402.4</ele>
        <time>2023-04-30T14:48:16Z</time>
      </trkpt>
      <trkpt lat="48.07736" lon="6.42649">
        <ele>402.6</ele>
        <time>2023-04-30T14:48:17Z</time>
      </trkpt>
      <trkpt lat="48.07734" lon="6.42655">
        <ele>402.8</ele>
        <time>2023-04-30T14:48:18Z</time>
      </trkpt>
      <trkpt lat="48.07733" lon="6.42661">
        <ele>402.9</ele>
        <time>2023-04-30T14:48:19Z</time>
      </trkpt>
      <trkpt lat="48.07731" lon="6.42668">
        <ele>403</ele>
        <time>2023-04-30T14:48:21Z</time>
      </trkpt>
      <trkpt lat="48.07729" lon="6.42675">
        <ele>403.1</ele>
        <time>2023-04-30T14:48:22Z</time>
      </trkpt>
      <trkpt lat="48.07727" lon="6.42681">
        <ele>403.1</ele>
        <time>2023-04-30T14:48:23Z</time>
      </trkpt>
      <trkpt lat="48.07725" lon="6.42689">
        <ele>403.2</ele>
        <time>2023-04-30T14:48:24Z</time>
      </trkpt>
      <trkpt lat="48.07723" lon="6.42696">
        <ele>403.2</ele>
        <time>2023-04-30T14:48:25Z</time>
      </trkpt>
      <trkpt lat="48.07721" lon="6.42702">
        <ele>403.2</ele>
        <time>2023-04-30T14:48:26Z</time>
      </trkpt>
      <trkpt lat="48.0772" lon="6.42709">
        <ele>403.2</ele>
        <time>2023-04-30T14:48:27Z</time>
      </trkpt>
      <trkpt lat="48.07718" lon="6.42715">
        <ele>403.2</ele>
        <time>2023-04-30T14:48:28Z</time>
      </trkpt>
      <trkpt lat="48.07716" lon="6.42722">
        <ele>403.2</ele>
        <time>2023-04-30T14:48:29Z</time>
      </trkpt>
      <trkpt lat="48.07714" lon="6.4273">
        <ele>403.2</ele>
        <time>2023-04-30T14:48:30Z</time>
      </trkpt>
      <trkpt lat="48.07712" lon="6.42737">
        <ele>403.2</ele>
        <time>2023-04-30T14:48:31Z</time>
      </trkpt>
      <trkpt lat="48.07711" lon="6.42745">
        <ele>403.2</ele>
        <time>2023-04-30T14:48:32Z</time>
      </trkpt>
      <trkpt lat="48.07708" lon="6.42753">
        <ele>403.2</ele>
        <time>2023-04-30T14:48:33Z</time>
      </trkpt>
      <trkpt lat="48.07707" lon="6.42761">
        <ele>403.2</ele>
        <time>2023-04-30T14:48:34Z</time>
      </trkpt>
      <trkpt lat="48.07705" lon="6.42769">
        <ele>403.2</ele>
        <time>2023-04-30T14:48:35Z</time>
      </trkpt>
      <trkpt lat="48.07704" lon="6.42777">
        <ele>403.2</ele>
        <time>2023-04-30T14:48:36Z</time>
      </trkpt>
      <trkpt lat="48.07702" lon="6.42784">
        <ele>403.2</ele>
        <time>2023-04-30T14:48:37Z</time>
      </trkpt>
      <trkpt lat="48.07701" lon="6.42792">
        <ele>403.2</ele>
        <time>2023-04-30T14:48:38Z</time>
      </trkpt>
      <trkpt lat="48.07699" lon="6.42799">
        <ele>403.2</ele>
        <time>2023-04-30T14:48:39Z</time>
      </trkpt>
      <trkpt lat="48.07698" lon="6.42806">
        <ele>403.3</ele>
        <time>2023-04-30T14:48:40Z</time>
      </trkpt>
      <trkpt lat="48.07696" lon="6.42814">
        <ele>403.3</ele>
        <time>2023-04-30T14:48:41Z</time>
      </trkpt>
      <trkpt lat="48.07695" lon="6.42823">
        <ele>403.4</ele>
        <time>2023-04-30T14:48:42Z</time>
      </trkpt>
      <trkpt lat="48.07694" lon="6.42831">
        <ele>403.4</ele>
        <time>2023-04-30T14:48:43Z</time>
      </trkpt>
      <trkpt lat="48.07693" lon="6.42839">
        <ele>403.4</ele>
        <time>2023-04-30T14:48:44Z</time>
      </trkpt>
      <trkpt lat="48.07694" lon="6.42847">
        <ele>403.4</ele>
        <time>2023-04-30T14:48:45Z</time>
      </trkpt>
      <trkpt lat="48.07694" lon="6.42854">
        <ele>403.4</ele>
        <time>2023-04-30T14:48:46Z</time>
      </trkpt>
      <trkpt lat="48.07694" lon="6.42862">
        <ele>403.4</ele>
        <time>2023-04-30T14:48:47Z</time>
      </trkpt>
      <trkpt lat="48.07694" lon="6.4287">
        <ele>403.5</ele>
        <time>2023-04-30T14:48:48Z</time>
      </trkpt>
      <trkpt lat="48.07695" lon="6.42877">
        <ele>403.5</ele>
        <time>2023-04-30T14:48:49Z</time>
      </trkpt>
      <trkpt lat="48.07695" lon="6.42885">
        <ele>403.5</ele>
        <time>2023-04-30T14:48:50Z</time>
      </trkpt>
      <trkpt lat="48.07695" lon="6.42893">
        <ele>403.5</ele>
        <time>2023-04-30T14:48:51Z</time>
      </trkpt>
      <trkpt lat="48.07695" lon="6.42901">
        <ele>403.5</ele>
        <time>2023-04-30T14:48:52Z</time>
      </trkpt>
      <trkpt lat="48.07695" lon="6.42909">
        <ele>403.5</ele>
        <time>2023-04-30T14:48:53Z</time>
      </trkpt>
      <trkpt lat="48.07695" lon="6.42917">
        <ele>403.5</ele>
        <time>2023-04-30T14:48:54Z</time>
      </trkpt>
      <trkpt lat="48.07694" lon="6.42925">
        <ele>403.5</ele>
        <time>2023-04-30T14:48:55Z</time>
      </trkpt>
      <trkpt lat="48.07693" lon="6.42933">
        <ele>403.5</ele>
        <time>2023-04-30T14:48:56Z</time>
      </trkpt>
      <trkpt lat="48.07692" lon="6.42941">
        <ele>403.4</ele>
        <time>2023-04-30T14:48:57Z</time>
      </trkpt>
      <trkpt lat="48.07691" lon="6.42949">
        <ele>403.4</ele>
        <time>2023-04-30T14:48:58Z</time>
      </trkpt>
      <trkpt lat="48.0769" lon="6.42956">
        <ele>403.3</ele>
        <time>2023-04-30T14:48:59Z</time>
      </trkpt>
      <trkpt lat="48.07688" lon="6.42964">
        <ele>403.2</ele>
        <time>2023-04-30T14:49:00Z</time>
      </trkpt>
      <trkpt lat="48.07687" lon="6.42973">
        <ele>403.1</ele>
        <time>2023-04-30T14:49:01Z</time>
      </trkpt>
      <trkpt lat="48.07685" lon="6.42982">
        <ele>403</ele>
        <time>2023-04-30T14:49:02Z</time>
      </trkpt>
      <trkpt lat="48.07684" lon="6.42992">
        <ele>402.9</ele>
        <time>2023-04-30T14:49:03Z</time>
      </trkpt>
      <trkpt lat="48.07684" lon="6.43001">
        <ele>402.9</ele>
        <time>2023-04-30T14:49:04Z</time>
      </trkpt>
      <trkpt lat="48.07683" lon="6.4301">
        <ele>402.9</ele>
        <time>2023-04-30T14:49:05Z</time>
      </trkpt>
      <trkpt lat="48.07683" lon="6.43019">
        <ele>402.9</ele>
        <time>2023-04-30T14:49:06Z</time>
      </trkpt>
      <trkpt lat="48.07682" lon="6.43027">
        <ele>402.9</ele>
        <time>2023-04-30T14:49:07Z</time>
      </trkpt>
      <trkpt lat="48.07682" lon="6.43036">
        <ele>403</ele>
        <time>2023-04-30T14:49:08Z</time>
      </trkpt>
      <trkpt lat="48.07683" lon="6.43045">
        <ele>403.1</ele>
        <time>2023-04-30T14:49:09Z</time>
      </trkpt>
      <trkpt lat="48.07683" lon="6.43053">
        <ele>403.2</ele>
        <time>2023-04-30T14:49:10Z</time>
      </trkpt>
      <trkpt lat="48.07684" lon="6.4306">
        <ele>403.3</ele>
        <time>2023-04-30T14:49:11Z</time>
      </trkpt>
      <trkpt lat="48.07685" lon="6.43068">
        <ele>403.5</ele>
        <time>2023-04-30T14:49:12Z</time>
      </trkpt>
      <trkpt lat="48.07685" lon="6.43075">
        <ele>403.6</ele>
        <time>2023-04-30T14:49:13Z</time>
      </trkpt>
      <trkpt lat="48.07686" lon="6.43082">
        <ele>403.8</ele>
        <time>2023-04-30T14:49:14Z</time>
      </trkpt>
      <trkpt lat="48.07686" lon="6.43089">
        <ele>403.9</ele>
        <time>2023-04-30T14:49:15Z</time>
      </trkpt>
      <trkpt lat="48.07686" lon="6.43094">
        <ele>403.9</ele>
        <time>2023-04-30T14:49:16Z</time>
      </trkpt>
      <trkpt lat="48.07686" lon="6.43102">
        <ele>404</ele>
        <time>2023-04-30T14:49:17Z</time>
      </trkpt>
      <trkpt lat="48.07686" lon="6.4311">
        <ele>404</ele>
        <time>2023-04-30T14:49:18Z</time>
      </trkpt>
      <trkpt lat="48.07686" lon="6.43117">
        <ele>404</ele>
        <time>2023-04-30T14:49:19Z</time>
      </trkpt>
      <trkpt lat="48.07685" lon="6.43125">
        <ele>403.9</ele>
        <time>2023-04-30T14:49:20Z</time>
      </trkpt>
      <trkpt lat="48.07685" lon="6.43134">
        <ele>403.8</ele>
        <time>2023-04-30T14:49:21Z</time>
      </trkpt>
      <trkpt lat="48.07685" lon="6.43142">
        <ele>403.7</ele>
        <time>2023-04-30T14:49:22Z</time>
      </trkpt>
      <trkpt lat="48.07684" lon="6.4315">
        <ele>403.6</ele>
        <time>2023-04-30T14:49:23Z</time>
      </trkpt>
      <trkpt lat="48.07684" lon="6.43159">
        <ele>403.5</ele>
        <time>2023-04-30T14:49:24Z</time>
      </trkpt>
      <trkpt lat="48.07685" lon="6.43167">
        <ele>403.3</ele>
        <time>2023-04-30T14:49:25Z</time>
      </trkpt>
      <trkpt lat="48.07685" lon="6.43176">
        <ele>403.2</ele>
        <time>2023-04-30T14:49:26Z</time>
      </trkpt>
      <trkpt lat="48.07686" lon="6.43184">
        <ele>403</ele>
        <time>2023-04-30T14:49:27Z</time>
      </trkpt>
      <trkpt lat="48.07686" lon="6.43193">
        <ele>402.9</ele>
        <time>2023-04-30T14:49:28Z</time>
      </trkpt>
      <trkpt lat="48.07686" lon="6.43201">
        <ele>402.8</ele>
        <time>2023-04-30T14:49:29Z</time>
      </trkpt>
      <trkpt lat="48.07686" lon="6.4321">
        <ele>402.6</ele>
        <time>2023-04-30T14:49:30Z</time>
      </trkpt>
      <trkpt lat="48.07686" lon="6.43219">
        <ele>402.5</ele>
        <time>2023-04-30T14:49:31Z</time>
      </trkpt>
      <trkpt lat="48.07685" lon="6.43227">
        <ele>402.4</ele>
        <time>2023-04-30T14:49:32Z</time>
      </trkpt>
      <trkpt lat="48.07683" lon="6.43236">
        <ele>402.4</ele>
        <time>2023-04-30T14:49:33Z</time>
      </trkpt>
      <trkpt lat="48.07681" lon="6.43244">
        <ele>402.3</ele>
        <time>2023-04-30T14:49:34Z</time>
      </trkpt>
      <trkpt lat="48.07679" lon="6.43251">
        <ele>402.2</ele>
        <time>2023-04-30T14:49:35Z</time>
      </trkpt>
      <trkpt lat="48.07676" lon="6.43258">
        <ele>402.2</ele>
        <time>2023-04-30T14:49:36Z</time>
      </trkpt>
      <trkpt lat="48.07673" lon="6.43264">
        <ele>402.2</ele>
        <time>2023-04-30T14:49:37Z</time>
      </trkpt>
      <trkpt lat="48.07671" lon="6.4327">
        <ele>402.2</ele>
        <time>2023-04-30T14:49:38Z</time>
      </trkpt>
      <trkpt lat="48.07668" lon="6.43277">
        <ele>402.3</ele>
        <time>2023-04-30T14:49:39Z</time>
      </trkpt>
      <trkpt lat="48.07665" lon="6.43283">
        <ele>402.4</ele>
        <time>2023-04-30T14:49:40Z</time>
      </trkpt>
      <trkpt lat="48.07664" lon="6.4329">
        <ele>402.5</ele>
        <time>2023-04-30T14:49:41Z</time>
      </trkpt>
      <trkpt lat="48.07663" lon="6.43296">
        <ele>402.6</ele>
        <time>2023-04-30T14:49:42Z</time>
      </trkpt>
      <trkpt lat="48.07663" lon="6.433">
        <ele>402.7</ele>
        <time>2023-04-30T14:49:43Z</time>
      </trkpt>
      <trkpt lat="48.07665" lon="6.43306">
        <ele>402.8</ele>
        <time>2023-04-30T14:49:44Z</time>
      </trkpt>
      <trkpt lat="48.07667" lon="6.43312">
        <ele>402.7</ele>
        <time>2023-04-30T14:49:45Z</time>
      </trkpt>
      <trkpt lat="48.07671" lon="6.4332">
        <ele>402.7</ele>
        <time>2023-04-30T14:49:46Z</time>
      </trkpt>
      <trkpt lat="48.07676" lon="6.43326">
        <ele>402.6</ele>
        <time>2023-04-30T14:49:47Z</time>
      </trkpt>
      <trkpt lat="48.0768" lon="6.43331">
        <ele>402.6</ele>
        <time>2023-04-30T14:49:48Z</time>
      </trkpt>
      <trkpt lat="48.07685" lon="6.43335">
        <ele>402.6</ele>
        <time>2023-04-30T14:49:49Z</time>
      </trkpt>
      <trkpt lat="48.07688" lon="6.43339">
        <ele>402.7</ele>
        <time>2023-04-30T14:49:50Z</time>
      </trkpt>
      <trkpt lat="48.07692" lon="6.43343">
        <ele>402.7</ele>
        <time>2023-04-30T14:49:51Z</time>
      </trkpt>
      <trkpt lat="48.07695" lon="6.43347">
        <ele>402.8</ele>
        <time>2023-04-30T14:49:52Z</time>
      </trkpt>
      <trkpt lat="48.07699" lon="6.4335">
        <ele>402.9</ele>
        <time>2023-04-30T14:49:53Z</time>
      </trkpt>
      <trkpt lat="48.07708" lon="6.43358">
        <ele>403.1</ele>
        <time>2023-04-30T14:49:55Z</time>
      </trkpt>
      <trkpt lat="48.07714" lon="6.43362">
        <ele>403.3</ele>
        <time>2023-04-30T14:49:57Z</time>
      </trkpt>
      <trkpt lat="48.07718" lon="6.43365">
        <ele>403.5</ele>
        <time>2023-04-30T14:49:58Z</time>
      </trkpt>
      <trkpt lat="48.07722" lon="6.43369">
        <ele>403.6</ele>
        <time>2023-04-30T14:49:59Z</time>
      </trkpt>
      <trkpt lat="48.07726" lon="6.43371">
        <ele>403.8</ele>
        <time>2023-04-30T14:50:00Z</time>
      </trkpt>
      <trkpt lat="48.0773" lon="6.43373">
        <ele>404</ele>
        <time>2023-04-30T14:50:01Z</time>
      </trkpt>
      <trkpt lat="48.07735" lon="6.43378">
        <ele>404.3</ele>
        <time>2023-04-30T14:50:02Z</time>
      </trkpt>
      <trkpt lat="48.07741" lon="6.43384">
        <ele>404.8</ele>
        <time>2023-04-30T14:50:04Z</time>
      </trkpt>
      <trkpt lat="48.07745" lon="6.43386">
        <ele>405.1</ele>
        <time>2023-04-30T14:50:05Z</time>
      </trkpt>
      <trkpt lat="48.07748" lon="6.43389">
        <ele>405.3</ele>
        <time>2023-04-30T14:50:07Z</time>
      </trkpt>
      <trkpt lat="48.07752" lon="6.43391">
        <ele>405.6</ele>
        <time>2023-04-30T14:50:08Z</time>
      </trkpt>
      <trkpt lat="48.07756" lon="6.43395">
        <ele>405.9</ele>
        <time>2023-04-30T14:50:09Z</time>
      </trkpt>
      <trkpt lat="48.07758" lon="6.434">
        <ele>406.6</ele>
        <time>2023-04-30T14:50:10Z</time>
      </trkpt>
      <trkpt lat="48.07758" lon="6.43404">
        <ele>406.9</ele>
        <time>2023-04-30T14:50:12Z</time>
      </trkpt>
      <trkpt lat="48.07757" lon="6.43411">
        <ele>407.2</ele>
        <time>2023-04-30T14:50:13Z</time>
      </trkpt>
      <trkpt lat="48.07753" lon="6.43415">
        <ele>407.4</ele>
        <time>2023-04-30T14:50:14Z</time>
      </trkpt>
      <trkpt lat="48.0775" lon="6.43418">
        <ele>407.7</ele>
        <time>2023-04-30T14:50:15Z</time>
      </trkpt>
      <trkpt lat="48.07747" lon="6.43423">
        <ele>408</ele>
        <time>2023-04-30T14:50:16Z</time>
      </trkpt>
      <trkpt lat="48.07745" lon="6.43428">
        <ele>408.3</ele>
        <time>2023-04-30T14:50:18Z</time>
      </trkpt>
      <trkpt lat="48.07741" lon="6.43436">
        <ele>408.8</ele>
        <time>2023-04-30T14:50:19Z</time>
      </trkpt>
      <trkpt lat="48.07739" lon="6.4344">
        <ele>409</ele>
        <time>2023-04-30T14:50:20Z</time>
      </trkpt>
      <trkpt lat="48.07737" lon="6.43444">
        <ele>409.2</ele>
        <time>2023-04-30T14:50:22Z</time>
      </trkpt>
      <trkpt lat="48.07735" lon="6.43449">
        <ele>409.5</ele>
        <time>2023-04-30T14:50:23Z</time>
      </trkpt>
      <trkpt lat="48.07732" lon="6.43455">
        <ele>409.9</ele>
        <time>2023-04-30T14:50:24Z</time>
      </trkpt>
      <trkpt lat="48.07729" lon="6.43465">
        <ele>410.4</ele>
        <time>2023-04-30T14:50:26Z</time>
      </trkpt>
      <trkpt lat="48.07726" lon="6.43471">
        <ele>410.7</ele>
        <time>2023-04-30T14:50:28Z</time>
      </trkpt>
      <trkpt lat="48.07724" lon="6.43475">
        <ele>411</ele>
        <time>2023-04-30T14:50:29Z</time>
      </trkpt>
      <trkpt lat="48.07722" lon="6.43479">
        <ele>411.2</ele>
        <time>2023-04-30T14:50:30Z</time>
      </trkpt>
      <trkpt lat="48.0772" lon="6.43484">
        <ele>411.5</ele>
        <time>2023-04-30T14:50:31Z</time>
      </trkpt>
      <trkpt lat="48.07716" lon="6.43495">
        <ele>412</ele>
        <time>2023-04-30T14:50:33Z</time>
      </trkpt>
      <trkpt lat="48.07714" lon="6.43498">
        <ele>412.2</ele>
        <time>2023-04-30T14:50:34Z</time>
      </trkpt>
      <trkpt lat="48.07711" lon="6.43504">
        <ele>412.6</ele>
        <time>2023-04-30T14:50:36Z</time>
      </trkpt>
      <trkpt lat="48.07709" lon="6.4351">
        <ele>412.8</ele>
        <time>2023-04-30T14:50:38Z</time>
      </trkpt>
      <trkpt lat="48.07707" lon="6.43515">
        <ele>413</ele>
        <time>2023-04-30T14:50:39Z</time>
      </trkpt>
      <trkpt lat="48.07705" lon="6.4352">
        <ele>413.2</ele>
        <time>2023-04-30T14:50:40Z</time>
      </trkpt>
      <trkpt lat="48.07704" lon="6.43525">
        <ele>413.5</ele>
        <time>2023-04-30T14:50:41Z</time>
      </trkpt>
      <trkpt lat="48.07702" lon="6.4353">
        <ele>413.6</ele>
        <time>2023-04-30T14:50:42Z</time>
      </trkpt>
      <trkpt lat="48.07699" lon="6.43536">
        <ele>413.9</ele>
        <time>2023-04-30T14:50:43Z</time>
      </trkpt>
      <trkpt lat="48.07698" lon="6.4354">
        <ele>414</ele>
        <time>2023-04-30T14:50:44Z</time>
      </trkpt>
      <trkpt lat="48.07696" lon="6.43545">
        <ele>414.2</ele>
        <time>2023-04-30T14:50:46Z</time>
      </trkpt>
      <trkpt lat="48.07695" lon="6.4355">
        <ele>414.4</ele>
        <time>2023-04-30T14:50:47Z</time>
      </trkpt>
      <trkpt lat="48.07692" lon="6.43556">
        <ele>414.6</ele>
        <time>2023-04-30T14:50:48Z</time>
      </trkpt>
      <trkpt lat="48.0769" lon="6.43561">
        <ele>414.7</ele>
        <time>2023-04-30T14:50:49Z</time>
      </trkpt>
      <trkpt lat="48.07689" lon="6.43565">
        <ele>414.9</ele>
        <time>2023-04-30T14:50:51Z</time>
      </trkpt>
      <trkpt lat="48.07688" lon="6.43567">
        <ele>414.9</ele>
        <time>2023-04-30T14:50:52Z</time>
      </trkpt>
      <trkpt lat="48.07687" lon="6.43571">
        <ele>415</ele>
        <time>2023-04-30T14:50:53Z</time>
      </trkpt>
      <trkpt lat="48.07686" lon="6.43576">
        <ele>415.2</ele>
        <time>2023-04-30T14:50:54Z</time>
      </trkpt>
      <trkpt lat="48.07683" lon="6.43582">
        <ele>415.2</ele>
        <time>2023-04-30T14:50:56Z</time>
      </trkpt>
      <trkpt lat="48.07682" lon="6.43584">
        <ele>415.2</ele>
        <time>2023-04-30T14:50:57Z</time>
      </trkpt>
      <trkpt lat="48.0768" lon="6.43588">
        <ele>415.3</ele>
        <time>2023-04-30T14:50:58Z</time>
      </trkpt>
      <trkpt lat="48.07676" lon="6.43596">
        <ele>415.2</ele>
        <time>2023-04-30T14:51:00Z</time>
      </trkpt>
      <trkpt lat="48.07672" lon="6.43602">
        <ele>415.2</ele>
        <time>2023-04-30T14:51:01Z</time>
      </trkpt>
      <trkpt lat="48.07669" lon="6.4361">
        <ele>415.1</ele>
        <time>2023-04-30T14:51:02Z</time>
      </trkpt>
      <trkpt lat="48.07665" lon="6.43616">
        <ele>415</ele>
        <time>2023-04-30T14:51:04Z</time>
      </trkpt>
      <trkpt lat="48.07662" lon="6.43623">
        <ele>414.9</ele>
        <time>2023-04-30T14:51:05Z</time>
      </trkpt>
      <trkpt lat="48.0766" lon="6.4363">
        <ele>414.8</ele>
        <time>2023-04-30T14:51:06Z</time>
      </trkpt>
      <trkpt lat="48.07658" lon="6.43637">
        <ele>414.7</ele>
        <time>2023-04-30T14:51:07Z</time>
      </trkpt>
      <trkpt lat="48.07656" lon="6.43644">
        <ele>414.6</ele>
        <time>2023-04-30T14:51:08Z</time>
      </trkpt>
      <trkpt lat="48.07655" lon="6.43652">
        <ele>414.6</ele>
        <time>2023-04-30T14:51:09Z</time>
      </trkpt>
      <trkpt lat="48.07653" lon="6.43659">
        <ele>414.5</ele>
        <time>2023-04-30T14:51:10Z</time>
      </trkpt>
      <trkpt lat="48.07652" lon="6.43667">
        <ele>414.4</ele>
        <time>2023-04-30T14:51:11Z</time>
      </trkpt>
      <trkpt lat="48.0765" lon="6.43674">
        <ele>414.4</ele>
        <time>2023-04-30T14:51:12Z</time>
      </trkpt>
      <trkpt lat="48.07648" lon="6.43681">
        <ele>414.3</ele>
        <time>2023-04-30T14:51:13Z</time>
      </trkpt>
      <trkpt lat="48.07645" lon="6.43687">
        <ele>414.3</ele>
        <time>2023-04-30T14:51:14Z</time>
      </trkpt>
      <trkpt lat="48.07643" lon="6.43694">
        <ele>414.3</ele>
        <time>2023-04-30T14:51:15Z</time>
      </trkpt>
      <trkpt lat="48.0764" lon="6.43699">
        <ele>414.3</ele>
        <time>2023-04-30T14:51:16Z</time>
      </trkpt>
      <trkpt lat="48.07636" lon="6.43704">
        <ele>414.4</ele>
        <time>2023-04-30T14:51:17Z</time>
      </trkpt>
      <trkpt lat="48.07632" lon="6.4371">
        <ele>414.4</ele>
        <time>2023-04-30T14:51:18Z</time>
      </trkpt>
      <trkpt lat="48.07628" lon="6.43713">
        <ele>414.4</ele>
        <time>2023-04-30T14:51:19Z</time>
      </trkpt>
      <trkpt lat="48.07624" lon="6.43715">
        <ele>414.4</ele>
        <time>2023-04-30T14:51:20Z</time>
      </trkpt>
      <trkpt lat="48.0762" lon="6.43713">
        <ele>414.4</ele>
        <time>2023-04-30T14:51:21Z</time>
      </trkpt>
      <trkpt lat="48.07616" lon="6.43711">
        <ele>414.4</ele>
        <time>2023-04-30T14:51:22Z</time>
      </trkpt>
      <trkpt lat="48.07613" lon="6.4371">
        <ele>414.4</ele>
        <time>2023-04-30T14:51:23Z</time>
      </trkpt>
      <trkpt lat="48.07609" lon="6.43706">
        <ele>414.5</ele>
        <time>2023-04-30T14:51:24Z</time>
      </trkpt>
      <trkpt lat="48.07604" lon="6.43702">
        <ele>414.5</ele>
        <time>2023-04-30T14:51:25Z</time>
      </trkpt>
      <trkpt lat="48.076" lon="6.43698">
        <ele>414.6</ele>
        <time>2023-04-30T14:51:26Z</time>
      </trkpt>
      <trkpt lat="48.07595" lon="6.43695">
        <ele>414.8</ele>
        <time>2023-04-30T14:51:27Z</time>
      </trkpt>
      <trkpt lat="48.07592" lon="6.43693">
        <ele>414.9</ele>
        <time>2023-04-30T14:51:28Z</time>
      </trkpt>
      <trkpt lat="48.07582" lon="6.4369">
        <ele>414.9</ele>
        <time>2023-04-30T14:51:30Z</time>
      </trkpt>
      <trkpt lat="48.07577" lon="6.43691">
        <ele>414.9</ele>
        <time>2023-04-30T14:51:31Z</time>
      </trkpt>
      <trkpt lat="48.07572" lon="6.43692">
        <ele>415</ele>
        <time>2023-04-30T14:51:32Z</time>
      </trkpt>
      <trkpt lat="48.07567" lon="6.43694">
        <ele>415.3</ele>
        <time>2023-04-30T14:51:33Z</time>
      </trkpt>
      <trkpt lat="48.07563" lon="6.43696">
        <ele>415.6</ele>
        <time>2023-04-30T14:51:34Z</time>
      </trkpt>
      <trkpt lat="48.0756" lon="6.43696">
        <ele>415.8</ele>
        <time>2023-04-30T14:51:35Z</time>
      </trkpt>
      <trkpt lat="48.07555" lon="6.43699">
        <ele>416.2</ele>
        <time>2023-04-30T14:51:36Z</time>
      </trkpt>
      <trkpt lat="48.0755" lon="6.43703">
        <ele>416.5</ele>
        <time>2023-04-30T14:51:37Z</time>
      </trkpt>
      <trkpt lat="48.07546" lon="6.43705">
        <ele>416.8</ele>
        <time>2023-04-30T14:51:38Z</time>
      </trkpt>
      <trkpt lat="48.07539" lon="6.43708">
        <ele>417.3</ele>
        <time>2023-04-30T14:51:40Z</time>
      </trkpt>
      <trkpt lat="48.07536" lon="6.43709">
        <ele>417.6</ele>
        <time>2023-04-30T14:51:42Z</time>
      </trkpt>
      <trkpt lat="48.07532" lon="6.43711">
        <ele>417.8</ele>
        <time>2023-04-30T14:51:43Z</time>
      </trkpt>
      <trkpt lat="48.07528" lon="6.43714">
        <ele>418.1</ele>
        <time>2023-04-30T14:51:44Z</time>
      </trkpt>
      <trkpt lat="48.07525" lon="6.43715">
        <ele>418.3</ele>
        <time>2023-04-30T14:51:45Z</time>
      </trkpt>
      <trkpt lat="48.07521" lon="6.43717">
        <ele>418.6</ele>
        <time>2023-04-30T14:51:46Z</time>
      </trkpt>
      <trkpt lat="48.07517" lon="6.43719">
        <ele>418.9</ele>
        <time>2023-04-30T14:51:47Z</time>
      </trkpt>
      <trkpt lat="48.07514" lon="6.43722">
        <ele>419.2</ele>
        <time>2023-04-30T14:51:48Z</time>
      </trkpt>
      <trkpt lat="48.0751" lon="6.43725">
        <ele>419.5</ele>
        <time>2023-04-30T14:51:50Z</time>
      </trkpt>
      <trkpt lat="48.07507" lon="6.43726">
        <ele>419.7</ele>
        <time>2023-04-30T14:51:51Z</time>
      </trkpt>
      <trkpt lat="48.07504" lon="6.43728">
        <ele>419.9</ele>
        <time>2023-04-30T14:51:52Z</time>
      </trkpt>
      <trkpt lat="48.075" lon="6.4373">
        <ele>420.2</ele>
        <time>2023-04-30T14:51:53Z</time>
      </trkpt>
      <trkpt lat="48.07497" lon="6.43731">
        <ele>420.4</ele>
        <time>2023-04-30T14:51:54Z</time>
      </trkpt>
      <trkpt lat="48.07494" lon="6.43732">
        <ele>420.6</ele>
        <time>2023-04-30T14:51:55Z</time>
      </trkpt>
      <trkpt lat="48.07493" lon="6.43732">
        <ele>420.7</ele>
        <time>2023-04-30T14:51:56Z</time>
      </trkpt>
      <trkpt lat="48.07489" lon="6.43734">
        <ele>421</ele>
        <time>2023-04-30T14:51:58Z</time>
      </trkpt>
      <trkpt lat="48.07487" lon="6.43734">
        <ele>421.1</ele>
        <time>2023-04-30T14:51:59Z</time>
      </trkpt>
      <trkpt lat="48.07484" lon="6.43736">
        <ele>421.3</ele>
        <time>2023-04-30T14:52:00Z</time>
      </trkpt>
      <trkpt lat="48.0748" lon="6.43739">
        <ele>421.6</ele>
        <time>2023-04-30T14:52:01Z</time>
      </trkpt>
      <trkpt lat="48.07477" lon="6.43741">
        <ele>421.8</ele>
        <time>2023-04-30T14:52:02Z</time>
      </trkpt>
      <trkpt lat="48.07473" lon="6.43743">
        <ele>422</ele>
        <time>2023-04-30T14:52:03Z</time>
      </trkpt>
      <trkpt lat="48.07471" lon="6.43744">
        <ele>422.2</ele>
        <time>2023-04-30T14:52:04Z</time>
      </trkpt>
      <trkpt lat="48.07468" lon="6.43746">
        <ele>422.4</ele>
        <time>2023-04-30T14:52:06Z</time>
      </trkpt>
      <trkpt lat="48.07466" lon="6.43748">
        <ele>422.6</ele>
        <time>2023-04-30T14:52:07Z</time>
      </trkpt>
      <trkpt lat="48.07463" lon="6.4375">
        <ele>422.8</ele>
        <time>2023-04-30T14:52:08Z</time>
      </trkpt>
      <trkpt lat="48.0746" lon="6.43753">
        <ele>423</ele>
        <time>2023-04-30T14:52:09Z</time>
      </trkpt>
      <trkpt lat="48.07458" lon="6.43755">
        <ele>423.2</ele>
        <time>2023-04-30T14:52:10Z</time>
      </trkpt>
      <trkpt lat="48.07454" lon="6.43758">
        <ele>423.5</ele>
        <time>2023-04-30T14:52:11Z</time>
      </trkpt>
      <trkpt lat="48.07451" lon="6.4376">
        <ele>423.8</ele>
        <time>2023-04-30T14:52:12Z</time>
      </trkpt>
      <trkpt lat="48.07449" lon="6.43762">
        <ele>424</ele>
        <time>2023-04-30T14:52:13Z</time>
      </trkpt>
      <trkpt lat="48.07445" lon="6.43765">
        <ele>424.2</ele>
        <time>2023-04-30T14:52:15Z</time>
      </trkpt>
      <trkpt lat="48.07442" lon="6.43768">
        <ele>424.5</ele>
        <time>2023-04-30T14:52:16Z</time>
      </trkpt>
      <trkpt lat="48.07436" lon="6.43776">
        <ele>425.1</ele>
        <time>2023-04-30T14:52:17Z</time>
      </trkpt>
      <trkpt lat="48.07431" lon="6.4378">
        <ele>425.6</ele>
        <time>2023-04-30T14:52:18Z</time>
      </trkpt>
      <trkpt lat="48.07427" lon="6.43784">
        <ele>426</ele>
        <time>2023-04-30T14:52:19Z</time>
      </trkpt>
      <trkpt lat="48.07423" lon="6.43788">
        <ele>426.3</ele>
        <time>2023-04-30T14:52:20Z</time>
      </trkpt>
      <trkpt lat="48.07421" lon="6.43792">
        <ele>426.6</ele>
        <time>2023-04-30T14:52:21Z</time>
      </trkpt>
      <trkpt lat="48.07418" lon="6.43795">
        <ele>426.9</ele>
        <time>2023-04-30T14:52:22Z</time>
      </trkpt>
      <trkpt lat="48.07415" lon="6.43797">
        <ele>427.2</ele>
        <time>2023-04-30T14:52:24Z</time>
      </trkpt>
      <trkpt lat="48.07412" lon="6.43801">
        <ele>427.5</ele>
        <time>2023-04-30T14:52:25Z</time>
      </trkpt>
      <trkpt lat="48.07409" lon="6.43806">
        <ele>427.8</ele>
        <time>2023-04-30T14:52:26Z</time>
      </trkpt>
      <trkpt lat="48.07407" lon="6.43809">
        <ele>428.1</ele>
        <time>2023-04-30T14:52:27Z</time>
      </trkpt>
      <trkpt lat="48.07403" lon="6.43812">
        <ele>428.4</ele>
        <time>2023-04-30T14:52:28Z</time>
      </trkpt>
      <trkpt lat="48.074" lon="6.43815">
        <ele>428.7</ele>
        <time>2023-04-30T14:52:29Z</time>
      </trkpt>
      <trkpt lat="48.07397" lon="6.43818">
        <ele>428.9</ele>
        <time>2023-04-30T14:52:31Z</time>
      </trkpt>
      <trkpt lat="48.07395" lon="6.43821">
        <ele>429.2</ele>
        <time>2023-04-30T14:52:32Z</time>
      </trkpt>
      <trkpt lat="48.07391" lon="6.43823">
        <ele>429.5</ele>
        <time>2023-04-30T14:52:33Z</time>
      </trkpt>
      <trkpt lat="48.07388" lon="6.43826">
        <ele>429.8</ele>
        <time>2023-04-30T14:52:34Z</time>
      </trkpt>
      <trkpt lat="48.07385" lon="6.43831">
        <ele>430.1</ele>
        <time>2023-04-30T14:52:35Z</time>
      </trkpt>
      <trkpt lat="48.07383" lon="6.43836">
        <ele>430.4</ele>
        <time>2023-04-30T14:52:36Z</time>
      </trkpt>
      <trkpt lat="48.0738" lon="6.43841">
        <ele>430.7</ele>
        <time>2023-04-30T14:52:38Z</time>
      </trkpt>
      <trkpt lat="48.07376" lon="6.43844">
        <ele>431</ele>
        <time>2023-04-30T14:52:39Z</time>
      </trkpt>
      <trkpt lat="48.07375" lon="6.43845">
        <ele>431.1</ele>
        <time>2023-04-30T14:52:40Z</time>
      </trkpt>
      <trkpt lat="48.07373" lon="6.43848">
        <ele>431.3</ele>
        <time>2023-04-30T14:52:41Z</time>
      </trkpt>
      <trkpt lat="48.0737" lon="6.43851">
        <ele>431.5</ele>
        <time>2023-04-30T14:52:42Z</time>
      </trkpt>
      <trkpt lat="48.07367" lon="6.43852">
        <ele>431.7</ele>
        <time>2023-04-30T14:52:44Z</time>
      </trkpt>
      <trkpt lat="48.07364" lon="6.43854">
        <ele>431.9</ele>
        <time>2023-04-30T14:52:45Z</time>
      </trkpt>
      <trkpt lat="48.07361" lon="6.43856">
        <ele>432.1</ele>
        <time>2023-04-30T14:52:46Z</time>
      </trkpt>
      <trkpt lat="48.07357" lon="6.43859">
        <ele>432.3</ele>
        <time>2023-04-30T14:52:47Z</time>
      </trkpt>
      <trkpt lat="48.07354" lon="6.43862">
        <ele>432.5</ele>
        <time>2023-04-30T14:52:48Z</time>
      </trkpt>
      <trkpt lat="48.07348" lon="6.43867">
        <ele>432.9</ele>
        <time>2023-04-30T14:52:50Z</time>
      </trkpt>
      <trkpt lat="48.07345" lon="6.43871">
        <ele>433.1</ele>
        <time>2023-04-30T14:52:51Z</time>
      </trkpt>
      <trkpt lat="48.07342" lon="6.43874">
        <ele>433.2</ele>
        <time>2023-04-30T14:52:53Z</time>
      </trkpt>
      <trkpt lat="48.07338" lon="6.43877">
        <ele>433.4</ele>
        <time>2023-04-30T14:52:54Z</time>
      </trkpt>
      <trkpt lat="48.07335" lon="6.43879">
        <ele>433.5</ele>
        <time>2023-04-30T14:52:55Z</time>
      </trkpt>
      <trkpt lat="48.07331" lon="6.43883">
        <ele>433.7</ele>
        <time>2023-04-30T14:52:56Z</time>
      </trkpt>
      <trkpt lat="48.07327" lon="6.43887">
        <ele>433.8</ele>
        <time>2023-04-30T14:52:57Z</time>
      </trkpt>
      <trkpt lat="48.07324" lon="6.4389">
        <ele>433.9</ele>
        <time>2023-04-30T14:52:58Z</time>
      </trkpt>
      <trkpt lat="48.07321" lon="6.43892">
        <ele>434</ele>
        <time>2023-04-30T14:52:59Z</time>
      </trkpt>
      <trkpt lat="48.07317" lon="6.43895">
        <ele>434.2</ele>
        <time>2023-04-30T14:53:01Z</time>
      </trkpt>
      <trkpt lat="48.07313" lon="6.43899">
        <ele>434.3</ele>
        <time>2023-04-30T14:53:02Z</time>
      </trkpt>
      <trkpt lat="48.07309" lon="6.43903">
        <ele>434.4</ele>
        <time>2023-04-30T14:53:03Z</time>
      </trkpt>
      <trkpt lat="48.07305" lon="6.43906">
        <ele>434.5</ele>
        <time>2023-04-30T14:53:04Z</time>
      </trkpt>
      <trkpt lat="48.07301" lon="6.43909">
        <ele>434.6</ele>
        <time>2023-04-30T14:53:06Z</time>
      </trkpt>
      <trkpt lat="48.07297" lon="6.43913">
        <ele>434.7</ele>
        <time>2023-04-30T14:53:07Z</time>
      </trkpt>
      <trkpt lat="48.07293" lon="6.43916">
        <ele>434.8</ele>
        <time>2023-04-30T14:53:08Z</time>
      </trkpt>
      <trkpt lat="48.07288" lon="6.43922">
        <ele>435</ele>
        <time>2023-04-30T14:53:09Z</time>
      </trkpt>
      <trkpt lat="48.07284" lon="6.43928">
        <ele>435.2</ele>
        <time>2023-04-30T14:53:11Z</time>
      </trkpt>
      <trkpt lat="48.0728" lon="6.43932">
        <ele>435.3</ele>
        <time>2023-04-30T14:53:12Z</time>
      </trkpt>
      <trkpt lat="48.07277" lon="6.43938">
        <ele>435.5</ele>
        <time>2023-04-30T14:53:13Z</time>
      </trkpt>
      <trkpt lat="48.07273" lon="6.43944">
        <ele>435.7</ele>
        <time>2023-04-30T14:53:14Z</time>
      </trkpt>
      <trkpt lat="48.07269" lon="6.4395">
        <ele>435.9</ele>
        <time>2023-04-30T14:53:16Z</time>
      </trkpt>
      <trkpt lat="48.07267" lon="6.43954">
        <ele>436</ele>
        <time>2023-04-30T14:53:17Z</time>
      </trkpt>
      <trkpt lat="48.07264" lon="6.43963">
        <ele>436.2</ele>
        <time>2023-04-30T14:53:18Z</time>
      </trkpt>
      <trkpt lat="48.07262" lon="6.43969">
        <ele>436.4</ele>
        <time>2023-04-30T14:53:19Z</time>
      </trkpt>
      <trkpt lat="48.07261" lon="6.43976">
        <ele>436.6</ele>
        <time>2023-04-30T14:53:20Z</time>
      </trkpt>
      <trkpt lat="48.0726" lon="6.43984">
        <ele>436.9</ele>
        <time>2023-04-30T14:53:21Z</time>
      </trkpt>
      <trkpt lat="48.0726" lon="6.43991">
        <ele>437.1</ele>
        <time>2023-04-30T14:53:23Z</time>
      </trkpt>
      <trkpt lat="48.0726" lon="6.43997">
        <ele>437.3</ele>
        <time>2023-04-30T14:53:24Z</time>
      </trkpt>
      <trkpt lat="48.07261" lon="6.44003">
        <ele>437.6</ele>
        <time>2023-04-30T14:53:25Z</time>
      </trkpt>
      <trkpt lat="48.0726" lon="6.44009">
        <ele>437.8</ele>
        <time>2023-04-30T14:53:26Z</time>
      </trkpt>
      <trkpt lat="48.0726" lon="6.44014">
        <ele>438</ele>
        <time>2023-04-30T14:53:27Z</time>
      </trkpt>
      <trkpt lat="48.0726" lon="6.44019">
        <ele>438.2</ele>
        <time>2023-04-30T14:53:28Z</time>
      </trkpt>
      <trkpt lat="48.07261" lon="6.44026">
        <ele>438.5</ele>
        <time>2023-04-30T14:53:29Z</time>
      </trkpt>
      <trkpt lat="48.07262" lon="6.44033">
        <ele>438.8</ele>
        <time>2023-04-30T14:53:30Z</time>
      </trkpt>
      <trkpt lat="48.07263" lon="6.44036">
        <ele>439</ele>
        <time>2023-04-30T14:53:31Z</time>
      </trkpt>
      <trkpt lat="48.07264" lon="6.44045">
        <ele>439.4</ele>
        <time>2023-04-30T14:53:33Z</time>
      </trkpt>
      <trkpt lat="48.07264" lon="6.44052">
        <ele>439.7</ele>
        <time>2023-04-30T14:53:34Z</time>
      </trkpt>
      <trkpt lat="48.07265" lon="6.44062">
        <ele>440.1</ele>
        <time>2023-04-30T14:53:36Z</time>
      </trkpt>
      <trkpt lat="48.07265" lon="6.44067">
        <ele>440.3</ele>
        <time>2023-04-30T14:53:37Z</time>
      </trkpt>
      <trkpt lat="48.07265" lon="6.44073">
        <ele>440.5</ele>
        <time>2023-04-30T14:53:38Z</time>
      </trkpt>
      <trkpt lat="48.07266" lon="6.44079">
        <ele>440.8</ele>
        <time>2023-04-30T14:53:39Z</time>
      </trkpt>
      <trkpt lat="48.07266" lon="6.44084">
        <ele>441</ele>
        <time>2023-04-30T14:53:40Z</time>
      </trkpt>
      <trkpt lat="48.07267" lon="6.44091">
        <ele>441.3</ele>
        <time>2023-04-30T14:53:41Z</time>
      </trkpt>
      <trkpt lat="48.07268" lon="6.44098">
        <ele>441.5</ele>
        <time>2023-04-30T14:53:42Z</time>
      </trkpt>
      <trkpt lat="48.07269" lon="6.44103">
        <ele>441.8</ele>
        <time>2023-04-30T14:53:43Z</time>
      </trkpt>
      <trkpt lat="48.0727" lon="6.44109">
        <ele>442</ele>
        <time>2023-04-30T14:53:45Z</time>
      </trkpt>
      <trkpt lat="48.07271" lon="6.44115">
        <ele>442.3</ele>
        <time>2023-04-30T14:53:46Z</time>
      </trkpt>
      <trkpt lat="48.07272" lon="6.44121">
        <ele>442.5</ele>
        <time>2023-04-30T14:53:47Z</time>
      </trkpt>
      <trkpt lat="48.07273" lon="6.4413">
        <ele>442.9</ele>
        <time>2023-04-30T14:53:49Z</time>
      </trkpt>
      <trkpt lat="48.07274" lon="6.44136">
        <ele>443.1</ele>
        <time>2023-04-30T14:53:50Z</time>
      </trkpt>
      <trkpt lat="48.07274" lon="6.44143">
        <ele>443.3</ele>
        <time>2023-04-30T14:53:51Z</time>
      </trkpt>
      <trkpt lat="48.07275" lon="6.4415">
        <ele>443.6</ele>
        <time>2023-04-30T14:53:52Z</time>
      </trkpt>
      <trkpt lat="48.07275" lon="6.44156">
        <ele>443.8</ele>
        <time>2023-04-30T14:53:53Z</time>
      </trkpt>
      <trkpt lat="48.07275" lon="6.44162">
        <ele>444</ele>
        <time>2023-04-30T14:53:55Z</time>
      </trkpt>
      <trkpt lat="48.07275" lon="6.44168">
        <ele>444.2</ele>
        <time>2023-04-30T14:53:56Z</time>
      </trkpt>
      <trkpt lat="48.07273" lon="6.44174">
        <ele>444.3</ele>
        <time>2023-04-30T14:53:57Z</time>
      </trkpt>
      <trkpt lat="48.0727" lon="6.44179">
        <ele>444.4</ele>
        <time>2023-04-30T14:53:58Z</time>
      </trkpt>
      <trkpt lat="48.07266" lon="6.44182">
        <ele>444.5</ele>
        <time>2023-04-30T14:53:59Z</time>
      </trkpt>
      <trkpt lat="48.07262" lon="6.44185">
        <ele>444.6</ele>
        <time>2023-04-30T14:54:00Z</time>
      </trkpt>
      <trkpt lat="48.07258" lon="6.44187">
        <ele>444.8</ele>
        <time>2023-04-30T14:54:02Z</time>
      </trkpt>
      <trkpt lat="48.07254" lon="6.4419">
        <ele>444.8</ele>
        <time>2023-04-30T14:54:03Z</time>
      </trkpt>
      <trkpt lat="48.0725" lon="6.44193">
        <ele>445</ele>
        <time>2023-04-30T14:54:04Z</time>
      </trkpt>
      <trkpt lat="48.07246" lon="6.44196">
        <ele>445.1</ele>
        <time>2023-04-30T14:54:05Z</time>
      </trkpt>
      <trkpt lat="48.07241" lon="6.44198">
        <ele>445.3</ele>
        <time>2023-04-30T14:54:06Z</time>
      </trkpt>
      <trkpt lat="48.07237" lon="6.442">
        <ele>445.4</ele>
        <time>2023-04-30T14:54:08Z</time>
      </trkpt>
      <trkpt lat="48.07234" lon="6.44203">
        <ele>445.6</ele>
        <time>2023-04-30T14:54:09Z</time>
      </trkpt>
      <trkpt lat="48.0723" lon="6.44205">
        <ele>445.8</ele>
        <time>2023-04-30T14:54:10Z</time>
      </trkpt>
      <trkpt lat="48.07221" lon="6.44212">
        <ele>446.3</ele>
        <time>2023-04-30T14:54:12Z</time>
      </trkpt>
      <trkpt lat="48.07217" lon="6.44214">
        <ele>446.5</ele>
        <time>2023-04-30T14:54:14Z</time>
      </trkpt>
      <trkpt lat="48.07213" lon="6.44216">
        <ele>446.8</ele>
        <time>2023-04-30T14:54:15Z</time>
      </trkpt>
      <trkpt lat="48.07208" lon="6.44218">
        <ele>447.1</ele>
        <time>2023-04-30T14:54:16Z</time>
      </trkpt>
      <trkpt lat="48.07205" lon="6.44221">
        <ele>447.3</ele>
        <time>2023-04-30T14:54:17Z</time>
      </trkpt>
      <trkpt lat="48.07201" lon="6.44224">
        <ele>447.5</ele>
        <time>2023-04-30T14:54:18Z</time>
      </trkpt>
      <trkpt lat="48.07197" lon="6.44226">
        <ele>447.8</ele>
        <time>2023-04-30T14:54:19Z</time>
      </trkpt>
      <trkpt lat="48.07194" lon="6.44228">
        <ele>448.1</ele>
        <time>2023-04-30T14:54:20Z</time>
      </trkpt>
      <trkpt lat="48.0719" lon="6.44231">
        <ele>448.3</ele>
        <time>2023-04-30T14:54:22Z</time>
      </trkpt>
      <trkpt lat="48.07187" lon="6.44233">
        <ele>448.6</ele>
        <time>2023-04-30T14:54:23Z</time>
      </trkpt>
      <trkpt lat="48.07183" lon="6.44235">
        <ele>448.8</ele>
        <time>2023-04-30T14:54:24Z</time>
      </trkpt>
      <trkpt lat="48.07179" lon="6.44237">
        <ele>449.1</ele>
        <time>2023-04-30T14:54:25Z</time>
      </trkpt>
      <trkpt lat="48.07176" lon="6.44239">
        <ele>449.4</ele>
        <time>2023-04-30T14:54:26Z</time>
      </trkpt>
      <trkpt lat="48.07173" lon="6.44241">
        <ele>449.6</ele>
        <time>2023-04-30T14:54:27Z</time>
      </trkpt>
      <trkpt lat="48.07169" lon="6.44242">
        <ele>449.9</ele>
        <time>2023-04-30T14:54:28Z</time>
      </trkpt>
      <trkpt lat="48.07165" lon="6.44244">
        <ele>450.1</ele>
        <time>2023-04-30T14:54:29Z</time>
      </trkpt>
      <trkpt lat="48.07162" lon="6.44246">
        <ele>450.4</ele>
        <time>2023-04-30T14:54:31Z</time>
      </trkpt>
      <trkpt lat="48.07158" lon="6.44248">
        <ele>450.7</ele>
        <time>2023-04-30T14:54:32Z</time>
      </trkpt>
      <trkpt lat="48.07154" lon="6.4425">
        <ele>451</ele>
        <time>2023-04-30T14:54:33Z</time>
      </trkpt>
      <trkpt lat="48.0715" lon="6.44252">
        <ele>451.3</ele>
        <time>2023-04-30T14:54:34Z</time>
      </trkpt>
      <trkpt lat="48.07147" lon="6.44253">
        <ele>451.6</ele>
        <time>2023-04-30T14:54:36Z</time>
      </trkpt>
      <trkpt lat="48.07143" lon="6.44254">
        <ele>451.8</ele>
        <time>2023-04-30T14:54:37Z</time>
      </trkpt>
      <trkpt lat="48.0714" lon="6.44256">
        <ele>452.1</ele>
        <time>2023-04-30T14:54:38Z</time>
      </trkpt>
      <trkpt lat="48.07136" lon="6.44257">
        <ele>452.5</ele>
        <time>2023-04-30T14:54:39Z</time>
      </trkpt>
      <trkpt lat="48.07133" lon="6.4426">
        <ele>452.7</ele>
        <time>2023-04-30T14:54:40Z</time>
      </trkpt>
      <trkpt lat="48.0713" lon="6.44261">
        <ele>453</ele>
        <time>2023-04-30T14:54:41Z</time>
      </trkpt>
      <trkpt lat="48.07126" lon="6.44263">
        <ele>453.4</ele>
        <time>2023-04-30T14:54:43Z</time>
      </trkpt>
      <trkpt lat="48.07124" lon="6.44264">
        <ele>453.5</ele>
        <time>2023-04-30T14:54:44Z</time>
      </trkpt>
      <trkpt lat="48.07121" lon="6.44267">
        <ele>453.8</ele>
        <time>2023-04-30T14:54:45Z</time>
      </trkpt>
      <trkpt lat="48.07118" lon="6.44269">
        <ele>454.1</ele>
        <time>2023-04-30T14:54:46Z</time>
      </trkpt>
      <trkpt lat="48.07115" lon="6.44271">
        <ele>454.4</ele>
        <time>2023-04-30T14:54:47Z</time>
      </trkpt>
      <trkpt lat="48.07112" lon="6.44273">
        <ele>454.6</ele>
        <time>2023-04-30T14:54:48Z</time>
      </trkpt>
      <trkpt lat="48.07109" lon="6.44275">
        <ele>454.8</ele>
        <time>2023-04-30T14:54:49Z</time>
      </trkpt>
      <trkpt lat="48.07106" lon="6.44277">
        <ele>455.1</ele>
        <time>2023-04-30T14:54:50Z</time>
      </trkpt>
      <trkpt lat="48.07105" lon="6.44278">
        <ele>455.2</ele>
        <time>2023-04-30T14:54:51Z</time>
      </trkpt>
      <trkpt lat="48.07102" lon="6.44281">
        <ele>455.5</ele>
        <time>2023-04-30T14:54:53Z</time>
      </trkpt>
      <trkpt lat="48.07098" lon="6.44284">
        <ele>455.7</ele>
        <time>2023-04-30T14:54:54Z</time>
      </trkpt>
      <trkpt lat="48.07095" lon="6.44287">
        <ele>455.7</ele>
        <time>2023-04-30T14:54:55Z</time>
      </trkpt>
      <trkpt lat="48.07091" lon="6.44292">
        <ele>455.7</ele>
        <time>2023-04-30T14:54:56Z</time>
      </trkpt>
      <trkpt lat="48.07087" lon="6.44296">
        <ele>455.9</ele>
        <time>2023-04-30T14:54:57Z</time>
      </trkpt>
      <trkpt lat="48.0708" lon="6.44299">
        <ele>456.3</ele>
        <time>2023-04-30T14:54:59Z</time>
      </trkpt>
      <trkpt lat="48.07076" lon="6.44298">
        <ele>456.6</ele>
        <time>2023-04-30T14:55:01Z</time>
      </trkpt>
      <trkpt lat="48.07073" lon="6.44299">
        <ele>456.8</ele>
        <time>2023-04-30T14:55:02Z</time>
      </trkpt>
      <trkpt lat="48.07069" lon="6.443">
        <ele>457.1</ele>
        <time>2023-04-30T14:55:03Z</time>
      </trkpt>
      <trkpt lat="48.07065" lon="6.443">
        <ele>457.3</ele>
        <time>2023-04-30T14:55:04Z</time>
      </trkpt>
      <trkpt lat="48.07061" lon="6.443">
        <ele>457.6</ele>
        <time>2023-04-30T14:55:06Z</time>
      </trkpt>
      <trkpt lat="48.07058" lon="6.44301">
        <ele>457.8</ele>
        <time>2023-04-30T14:55:07Z</time>
      </trkpt>
      <trkpt lat="48.07054" lon="6.44301">
        <ele>458</ele>
        <time>2023-04-30T14:55:08Z</time>
      </trkpt>
      <trkpt lat="48.07051" lon="6.443">
        <ele>458.2</ele>
        <time>2023-04-30T14:55:09Z</time>
      </trkpt>
      <trkpt lat="48.07047" lon="6.44299">
        <ele>458.5</ele>
        <time>2023-04-30T14:55:10Z</time>
      </trkpt>
      <trkpt lat="48.07044" lon="6.443">
        <ele>458.7</ele>
        <time>2023-04-30T14:55:11Z</time>
      </trkpt>
      <trkpt lat="48.0704" lon="6.443">
        <ele>459</ele>
        <time>2023-04-30T14:55:12Z</time>
      </trkpt>
      <trkpt lat="48.07036" lon="6.443">
        <ele>459.2</ele>
        <time>2023-04-30T14:55:13Z</time>
      </trkpt>
      <trkpt lat="48.07032" lon="6.44299">
        <ele>459.5</ele>
        <time>2023-04-30T14:55:14Z</time>
      </trkpt>
      <trkpt lat="48.07028" lon="6.44299">
        <ele>459.8</ele>
        <time>2023-04-30T14:55:16Z</time>
      </trkpt>
      <trkpt lat="48.07024" lon="6.44299">
        <ele>460</ele>
        <time>2023-04-30T14:55:17Z</time>
      </trkpt>
      <trkpt lat="48.0702" lon="6.443">
        <ele>460.3</ele>
        <time>2023-04-30T14:55:18Z</time>
      </trkpt>
      <trkpt lat="48.07013" lon="6.443">
        <ele>460.8</ele>
        <time>2023-04-30T14:55:20Z</time>
      </trkpt>
      <trkpt lat="48.07009" lon="6.44299">
        <ele>461</ele>
        <time>2023-04-30T14:55:22Z</time>
      </trkpt>
      <trkpt lat="48.07008" lon="6.44299">
        <ele>461.1</ele>
        <time>2023-04-30T14:55:23Z</time>
      </trkpt>
      <trkpt lat="48.07004" lon="6.443">
        <ele>461.3</ele>
        <time>2023-04-30T14:55:24Z</time>
      </trkpt>
      <trkpt lat="48.07001" lon="6.443">
        <ele>461.5</ele>
        <time>2023-04-30T14:55:25Z</time>
      </trkpt>
      <trkpt lat="48.06997" lon="6.44299">
        <ele>461.8</ele>
        <time>2023-04-30T14:55:26Z</time>
      </trkpt>
      <trkpt lat="48.06992" lon="6.44299">
        <ele>462.1</ele>
        <time>2023-04-30T14:55:27Z</time>
      </trkpt>
      <trkpt lat="48.06987" lon="6.44299">
        <ele>462.4</ele>
        <time>2023-04-30T14:55:29Z</time>
      </trkpt>
      <trkpt lat="48.06979" lon="6.44302">
        <ele>463</ele>
        <time>2023-04-30T14:55:30Z</time>
      </trkpt>
      <trkpt lat="48.06973" lon="6.44301">
        <ele>463.4</ele>
        <time>2023-04-30T14:55:31Z</time>
      </trkpt>
      <trkpt lat="48.06969" lon="6.44301">
        <ele>463.7</ele>
        <time>2023-04-30T14:55:32Z</time>
      </trkpt>
      <trkpt lat="48.06965" lon="6.443">
        <ele>464</ele>
        <time>2023-04-30T14:55:33Z</time>
      </trkpt>
      <trkpt lat="48.06961" lon="6.443">
        <ele>464.3</ele>
        <time>2023-04-30T14:55:34Z</time>
      </trkpt>
      <trkpt lat="48.06957" lon="6.44301">
        <ele>464.6</ele>
        <time>2023-04-30T14:55:36Z</time>
      </trkpt>
      <trkpt lat="48.06953" lon="6.44301">
        <ele>464.9</ele>
        <time>2023-04-30T14:55:37Z</time>
      </trkpt>
      <trkpt lat="48.0695" lon="6.443">
        <ele>465.1</ele>
        <time>2023-04-30T14:55:38Z</time>
      </trkpt>
      <trkpt lat="48.06948" lon="6.44301">
        <ele>465.3</ele>
        <time>2023-04-30T14:55:39Z</time>
      </trkpt>
      <trkpt lat="48.06944" lon="6.44301">
        <ele>465.6</ele>
        <time>2023-04-30T14:55:40Z</time>
      </trkpt>
      <trkpt lat="48.06942" lon="6.44302">
        <ele>465.8</ele>
        <time>2023-04-30T14:55:41Z</time>
      </trkpt>
      <trkpt lat="48.06938" lon="6.44303">
        <ele>466</ele>
        <time>2023-04-30T14:55:43Z</time>
      </trkpt>
      <trkpt lat="48.06937" lon="6.44304">
        <ele>466.2</ele>
        <time>2023-04-30T14:55:44Z</time>
      </trkpt>
      <trkpt lat="48.06933" lon="6.44305">
        <ele>466.4</ele>
        <time>2023-04-30T14:55:45Z</time>
      </trkpt>
      <trkpt lat="48.06931" lon="6.44308">
        <ele>466.7</ele>
        <time>2023-04-30T14:55:46Z</time>
      </trkpt>
      <trkpt lat="48.06927" lon="6.44309">
        <ele>467</ele>
        <time>2023-04-30T14:55:47Z</time>
      </trkpt>
      <trkpt lat="48.06924" lon="6.44309">
        <ele>467.2</ele>
        <time>2023-04-30T14:55:48Z</time>
      </trkpt>
      <trkpt lat="48.0692" lon="6.44311">
        <ele>467.5</ele>
        <time>2023-04-30T14:55:49Z</time>
      </trkpt>
      <trkpt lat="48.06918" lon="6.44311">
        <ele>467.7</ele>
        <time>2023-04-30T14:55:50Z</time>
      </trkpt>
      <trkpt lat="48.06914" lon="6.44313">
        <ele>467.9</ele>
        <time>2023-04-30T14:55:52Z</time>
      </trkpt>
      <trkpt lat="48.0691" lon="6.44315">
        <ele>468.3</ele>
        <time>2023-04-30T14:55:53Z</time>
      </trkpt>
      <trkpt lat="48.06907" lon="6.44317">
        <ele>468.5</ele>
        <time>2023-04-30T14:55:54Z</time>
      </trkpt>
      <trkpt lat="48.06905" lon="6.44319">
        <ele>468.7</ele>
        <time>2023-04-30T14:55:55Z</time>
      </trkpt>
      <trkpt lat="48.06903" lon="6.44321">
        <ele>468.9</ele>
        <time>2023-04-30T14:55:56Z</time>
      </trkpt>
      <trkpt lat="48.06896" lon="6.44323">
        <ele>469.4</ele>
        <time>2023-04-30T14:55:58Z</time>
      </trkpt>
      <trkpt lat="48.06893" lon="6.44324">
        <ele>469.7</ele>
        <time>2023-04-30T14:56:00Z</time>
      </trkpt>
      <trkpt lat="48.06889" lon="6.44325">
        <ele>470</ele>
        <time>2023-04-30T14:56:01Z</time>
      </trkpt>
      <trkpt lat="48.06886" lon="6.44327">
        <ele>470.2</ele>
        <time>2023-04-30T14:56:02Z</time>
      </trkpt>
      <trkpt lat="48.06882" lon="6.44328">
        <ele>470.5</ele>
        <time>2023-04-30T14:56:03Z</time>
      </trkpt>
      <trkpt lat="48.06879" lon="6.44329">
        <ele>470.7</ele>
        <time>2023-04-30T14:56:04Z</time>
      </trkpt>
      <trkpt lat="48.06877" lon="6.4433">
        <ele>470.9</ele>
        <time>2023-04-30T14:56:05Z</time>
      </trkpt>
      <trkpt lat="48.0687" lon="6.44331">
        <ele>471.3</ele>
        <time>2023-04-30T14:56:07Z</time>
      </trkpt>
      <trkpt lat="48.06866" lon="6.44332">
        <ele>471.6</ele>
        <time>2023-04-30T14:56:09Z</time>
      </trkpt>
      <trkpt lat="48.06863" lon="6.44333">
        <ele>471.8</ele>
        <time>2023-04-30T14:56:10Z</time>
      </trkpt>
      <trkpt lat="48.06862" lon="6.44332">
        <ele>471.9</ele>
        <time>2023-04-30T14:56:11Z</time>
      </trkpt>
      <trkpt lat="48.06858" lon="6.44331">
        <ele>472.2</ele>
        <time>2023-04-30T14:56:12Z</time>
      </trkpt>
      <trkpt lat="48.06856" lon="6.44331">
        <ele>472.3</ele>
        <time>2023-04-30T14:56:13Z</time>
      </trkpt>
      <trkpt lat="48.06854" lon="6.44331">
        <ele>472.4</ele>
        <time>2023-04-30T14:56:14Z</time>
      </trkpt>
      <trkpt lat="48.06852" lon="6.4433">
        <ele>472.6</ele>
        <time>2023-04-30T14:56:16Z</time>
      </trkpt>
      <trkpt lat="48.06849" lon="6.4433">
        <ele>472.8</ele>
        <time>2023-04-30T14:56:17Z</time>
      </trkpt>
      <trkpt lat="48.06844" lon="6.44329">
        <ele>473.1</ele>
        <time>2023-04-30T14:56:18Z</time>
      </trkpt>
      <trkpt lat="48.0684" lon="6.44328">
        <ele>473.3</ele>
        <time>2023-04-30T14:56:19Z</time>
      </trkpt>
      <trkpt lat="48.06835" lon="6.44325">
        <ele>473.7</ele>
        <time>2023-04-30T14:56:21Z</time>
      </trkpt>
      <trkpt lat="48.06831" lon="6.44324">
        <ele>474</ele>
        <time>2023-04-30T14:56:22Z</time>
      </trkpt>
      <trkpt lat="48.06826" lon="6.44321">
        <ele>474.3</ele>
        <time>2023-04-30T14:56:23Z</time>
      </trkpt>
      <trkpt lat="48.06819" lon="6.4432">
        <ele>474.7</ele>
        <time>2023-04-30T14:56:24Z</time>
      </trkpt>
      <trkpt lat="48.06814" lon="6.44318">
        <ele>475.1</ele>
        <time>2023-04-30T14:56:25Z</time>
      </trkpt>
      <trkpt lat="48.06809" lon="6.44314">
        <ele>475.5</ele>
        <time>2023-04-30T14:56:27Z</time>
      </trkpt>
      <trkpt lat="48.06806" lon="6.4431">
        <ele>475.7</ele>
        <time>2023-04-30T14:56:28Z</time>
      </trkpt>
      <trkpt lat="48.06803" lon="6.44305">
        <ele>476</ele>
        <time>2023-04-30T14:56:29Z</time>
      </trkpt>
      <trkpt lat="48.06799" lon="6.44298">
        <ele>476.4</ele>
        <time>2023-04-30T14:56:31Z</time>
      </trkpt>
      <trkpt lat="48.06796" lon="6.44295">
        <ele>476.7</ele>
        <time>2023-04-30T14:56:32Z</time>
      </trkpt>
      <trkpt lat="48.06794" lon="6.4429">
        <ele>476.9</ele>
        <time>2023-04-30T14:56:33Z</time>
      </trkpt>
      <trkpt lat="48.06792" lon="6.44285">
        <ele>477.2</ele>
        <time>2023-04-30T14:56:34Z</time>
      </trkpt>
      <trkpt lat="48.0679" lon="6.44279">
        <ele>477.5</ele>
        <time>2023-04-30T14:56:35Z</time>
      </trkpt>
      <trkpt lat="48.06788" lon="6.44275">
        <ele>477.8</ele>
        <time>2023-04-30T14:56:36Z</time>
      </trkpt>
      <trkpt lat="48.06786" lon="6.44269">
        <ele>478.1</ele>
        <time>2023-04-30T14:56:38Z</time>
      </trkpt>
      <trkpt lat="48.06784" lon="6.44264">
        <ele>478.3</ele>
        <time>2023-04-30T14:56:39Z</time>
      </trkpt>
      <trkpt lat="48.06782" lon="6.44259">
        <ele>478.6</ele>
        <time>2023-04-30T14:56:40Z</time>
      </trkpt>
      <trkpt lat="48.0678" lon="6.44254">
        <ele>478.9</ele>
        <time>2023-04-30T14:56:41Z</time>
      </trkpt>
      <trkpt lat="48.06778" lon="6.4425">
        <ele>479.1</ele>
        <time>2023-04-30T14:56:42Z</time>
      </trkpt>
      <trkpt lat="48.06776" lon="6.44244">
        <ele>479.4</ele>
        <time>2023-04-30T14:56:43Z</time>
      </trkpt>
      <trkpt lat="48.06774" lon="6.4424">
        <ele>479.7</ele>
        <time>2023-04-30T14:56:45Z</time>
      </trkpt>
      <trkpt lat="48.06773" lon="6.44235">
        <ele>480</ele>
        <time>2023-04-30T14:56:46Z</time>
      </trkpt>
      <trkpt lat="48.06771" lon="6.44228">
        <ele>480.3</ele>
        <time>2023-04-30T14:56:47Z</time>
      </trkpt>
      <trkpt lat="48.06769" lon="6.44224">
        <ele>480.6</ele>
        <time>2023-04-30T14:56:48Z</time>
      </trkpt>
      <trkpt lat="48.06765" lon="6.44213">
        <ele>481.1</ele>
        <time>2023-04-30T14:56:50Z</time>
      </trkpt>
      <trkpt lat="48.06763" lon="6.44209">
        <ele>481.4</ele>
        <time>2023-04-30T14:56:52Z</time>
      </trkpt>
      <trkpt lat="48.0676" lon="6.44203">
        <ele>481.6</ele>
        <time>2023-04-30T14:56:53Z</time>
      </trkpt>
      <trkpt lat="48.06758" lon="6.44196">
        <ele>481.9</ele>
        <time>2023-04-30T14:56:54Z</time>
      </trkpt>
      <trkpt lat="48.06755" lon="6.4419">
        <ele>482.2</ele>
        <time>2023-04-30T14:56:55Z</time>
      </trkpt>
      <trkpt lat="48.06753" lon="6.44185">
        <ele>482.4</ele>
        <time>2023-04-30T14:56:56Z</time>
      </trkpt>
      <trkpt lat="48.0675" lon="6.44178">
        <ele>482.6</ele>
        <time>2023-04-30T14:56:57Z</time>
      </trkpt>
      <trkpt lat="48.06748" lon="6.44173">
        <ele>482.8</ele>
        <time>2023-04-30T14:56:59Z</time>
      </trkpt>
      <trkpt lat="48.06745" lon="6.44168">
        <ele>483</ele>
        <time>2023-04-30T14:57:00Z</time>
      </trkpt>
      <trkpt lat="48.06742" lon="6.4416">
        <ele>483.2</ele>
        <time>2023-04-30T14:57:01Z</time>
      </trkpt>
      <trkpt lat="48.06739" lon="6.44155">
        <ele>483.4</ele>
        <time>2023-04-30T14:57:02Z</time>
      </trkpt>
      <trkpt lat="48.06736" lon="6.4415">
        <ele>483.5</ele>
        <time>2023-04-30T14:57:03Z</time>
      </trkpt>
      <trkpt lat="48.06733" lon="6.44144">
        <ele>483.7</ele>
        <time>2023-04-30T14:57:04Z</time>
      </trkpt>
      <trkpt lat="48.0673" lon="6.44138">
        <ele>483.9</ele>
        <time>2023-04-30T14:57:06Z</time>
      </trkpt>
      <trkpt lat="48.06728" lon="6.44133">
        <ele>484.1</ele>
        <time>2023-04-30T14:57:07Z</time>
      </trkpt>
      <trkpt lat="48.06725" lon="6.44127">
        <ele>484.3</ele>
        <time>2023-04-30T14:57:08Z</time>
      </trkpt>
      <trkpt lat="48.06721" lon="6.4412">
        <ele>484.5</ele>
        <time>2023-04-30T14:57:09Z</time>
      </trkpt>
      <trkpt lat="48.06717" lon="6.44115">
        <ele>484.7</ele>
        <time>2023-04-30T14:57:11Z</time>
      </trkpt>
      <trkpt lat="48.06715" lon="6.44111">
        <ele>484.9</ele>
        <time>2023-04-30T14:57:12Z</time>
      </trkpt>
      <trkpt lat="48.06711" lon="6.44105">
        <ele>485.2</ele>
        <time>2023-04-30T14:57:13Z</time>
      </trkpt>
      <trkpt lat="48.06708" lon="6.44101">
        <ele>485.5</ele>
        <time>2023-04-30T14:57:14Z</time>
      </trkpt>
      <trkpt lat="48.06704" lon="6.44098">
        <ele>485.8</ele>
        <time>2023-04-30T14:57:15Z</time>
      </trkpt>
      <trkpt lat="48.067" lon="6.44095">
        <ele>486.1</ele>
        <time>2023-04-30T14:57:16Z</time>
      </trkpt>
      <trkpt lat="48.06697" lon="6.44093">
        <ele>486.3</ele>
        <time>2023-04-30T14:57:18Z</time>
      </trkpt>
      <trkpt lat="48.06694" lon="6.44087">
        <ele>486.2</ele>
        <time>2023-04-30T14:57:19Z</time>
      </trkpt>
      <trkpt lat="48.06692" lon="6.44082">
        <ele>486.1</ele>
        <time>2023-04-30T14:57:20Z</time>
      </trkpt>
      <trkpt lat="48.06691" lon="6.44076">
        <ele>486.1</ele>
        <time>2023-04-30T14:57:21Z</time>
      </trkpt>
      <trkpt lat="48.06689" lon="6.4407">
        <ele>486</ele>
        <time>2023-04-30T14:57:22Z</time>
      </trkpt>
      <trkpt lat="48.06687" lon="6.44063">
        <ele>485.9</ele>
        <time>2023-04-30T14:57:24Z</time>
      </trkpt>
      <trkpt lat="48.06686" lon="6.44058">
        <ele>485.8</ele>
        <time>2023-04-30T14:57:25Z</time>
      </trkpt>
      <trkpt lat="48.06684" lon="6.44046">
        <ele>485.7</ele>
        <time>2023-04-30T14:57:26Z</time>
      </trkpt>
      <trkpt lat="48.06682" lon="6.44037">
        <ele>485.6</ele>
        <time>2023-04-30T14:57:28Z</time>
      </trkpt>
      <trkpt lat="48.0668" lon="6.4403">
        <ele>485.6</ele>
        <time>2023-04-30T14:57:29Z</time>
      </trkpt>
      <trkpt lat="48.06679" lon="6.44023">
        <ele>485.5</ele>
        <time>2023-04-30T14:57:30Z</time>
      </trkpt>
      <trkpt lat="48.06677" lon="6.44016">
        <ele>485.5</ele>
        <time>2023-04-30T14:57:31Z</time>
      </trkpt>
      <trkpt lat="48.06676" lon="6.44009">
        <ele>485.4</ele>
        <time>2023-04-30T14:57:32Z</time>
      </trkpt>
      <trkpt lat="48.06674" lon="6.44002">
        <ele>485.4</ele>
        <time>2023-04-30T14:57:33Z</time>
      </trkpt>
      <trkpt lat="48.06672" lon="6.43995">
        <ele>485.3</ele>
        <time>2023-04-30T14:57:34Z</time>
      </trkpt>
      <trkpt lat="48.06671" lon="6.43988">
        <ele>485.3</ele>
        <time>2023-04-30T14:57:35Z</time>
      </trkpt>
      <trkpt lat="48.06669" lon="6.43981">
        <ele>485.2</ele>
        <time>2023-04-30T14:57:36Z</time>
      </trkpt>
      <trkpt lat="48.06667" lon="6.43973">
        <ele>485.2</ele>
        <time>2023-04-30T14:57:37Z</time>
      </trkpt>
      <trkpt lat="48.06665" lon="6.43966">
        <ele>485.1</ele>
        <time>2023-04-30T14:57:38Z</time>
      </trkpt>
      <trkpt lat="48.06663" lon="6.43959">
        <ele>485.1</ele>
        <time>2023-04-30T14:57:39Z</time>
      </trkpt>
      <trkpt lat="48.06662" lon="6.43951">
        <ele>485.1</ele>
        <time>2023-04-30T14:57:40Z</time>
      </trkpt>
      <trkpt lat="48.0666" lon="6.43943">
        <ele>485.1</ele>
        <time>2023-04-30T14:57:41Z</time>
      </trkpt>
      <trkpt lat="48.06658" lon="6.43935">
        <ele>485.1</ele>
        <time>2023-04-30T14:57:42Z</time>
      </trkpt>
      <trkpt lat="48.06656" lon="6.43927">
        <ele>485.1</ele>
        <time>2023-04-30T14:57:43Z</time>
      </trkpt>
      <trkpt lat="48.06655" lon="6.4392">
        <ele>485.1</ele>
        <time>2023-04-30T14:57:44Z</time>
      </trkpt>
      <trkpt lat="48.06653" lon="6.43912">
        <ele>485</ele>
        <time>2023-04-30T14:57:45Z</time>
      </trkpt>
      <trkpt lat="48.06651" lon="6.43904">
        <ele>485</ele>
        <time>2023-04-30T14:57:46Z</time>
      </trkpt>
      <trkpt lat="48.06649" lon="6.43896">
        <ele>485</ele>
        <time>2023-04-30T14:57:47Z</time>
      </trkpt>
      <trkpt lat="48.06647" lon="6.43888">
        <ele>485</ele>
        <time>2023-04-30T14:57:48Z</time>
      </trkpt>
      <trkpt lat="48.06645" lon="6.4388">
        <ele>484.9</ele>
        <time>2023-04-30T14:57:49Z</time>
      </trkpt>
      <trkpt lat="48.06643" lon="6.43872">
        <ele>484.9</ele>
        <time>2023-04-30T14:57:50Z</time>
      </trkpt>
      <trkpt lat="48.06641" lon="6.43863">
        <ele>484.8</ele>
        <time>2023-04-30T14:57:51Z</time>
      </trkpt>
      <trkpt lat="48.0664" lon="6.43855">
        <ele>484.7</ele>
        <time>2023-04-30T14:57:52Z</time>
      </trkpt>
      <trkpt lat="48.06637" lon="6.43846">
        <ele>484.6</ele>
        <time>2023-04-30T14:57:53Z</time>
      </trkpt>
      <trkpt lat="48.06635" lon="6.43837">
        <ele>484.6</ele>
        <time>2023-04-30T14:57:54Z</time>
      </trkpt>
      <trkpt lat="48.06633" lon="6.43829">
        <ele>484.5</ele>
        <time>2023-04-30T14:57:55Z</time>
      </trkpt>
      <trkpt lat="48.06631" lon="6.4382">
        <ele>484.3</ele>
        <time>2023-04-30T14:57:56Z</time>
      </trkpt>
      <trkpt lat="48.06629" lon="6.43811">
        <ele>484.2</ele>
        <time>2023-04-30T14:57:57Z</time>
      </trkpt>
      <trkpt lat="48.06626" lon="6.43803">
        <ele>484.1</ele>
        <time>2023-04-30T14:57:58Z</time>
      </trkpt>
      <trkpt lat="48.06624" lon="6.43794">
        <ele>484</ele>
        <time>2023-04-30T14:57:59Z</time>
      </trkpt>
      <trkpt lat="48.06621" lon="6.43785">
        <ele>483.9</ele>
        <time>2023-04-30T14:58:00Z</time>
      </trkpt>
      <trkpt lat="48.06619" lon="6.43776">
        <ele>483.8</ele>
        <time>2023-04-30T14:58:01Z</time>
      </trkpt>
      <trkpt lat="48.06616" lon="6.43766">
        <ele>483.7</ele>
        <time>2023-04-30T14:58:02Z</time>
      </trkpt>
      <trkpt lat="48.06613" lon="6.43757">
        <ele>483.5</ele>
        <time>2023-04-30T14:58:03Z</time>
      </trkpt>
      <trkpt lat="48.06609" lon="6.43749">
        <ele>483.4</ele>
        <time>2023-04-30T14:58:04Z</time>
      </trkpt>
      <trkpt lat="48.06604" lon="6.43741">
        <ele>483.2</ele>
        <time>2023-04-30T14:58:05Z</time>
      </trkpt>
      <trkpt lat="48.06599" lon="6.43732">
        <ele>483.1</ele>
        <time>2023-04-30T14:58:06Z</time>
      </trkpt>
      <trkpt lat="48.06594" lon="6.43725">
        <ele>482.9</ele>
        <time>2023-04-30T14:58:07Z</time>
      </trkpt>
      <trkpt lat="48.06589" lon="6.43718">
        <ele>482.7</ele>
        <time>2023-04-30T14:58:08Z</time>
      </trkpt>
      <trkpt lat="48.06583" lon="6.43712">
        <ele>482.6</ele>
        <time>2023-04-30T14:58:09Z</time>
      </trkpt>
      <trkpt lat="48.06578" lon="6.43707">
        <ele>482.4</ele>
        <time>2023-04-30T14:58:10Z</time>
      </trkpt>
      <trkpt lat="48.06572" lon="6.43703">
        <ele>482.2</ele>
        <time>2023-04-30T14:58:11Z</time>
      </trkpt>
      <trkpt lat="48.06567" lon="6.43698">
        <ele>482.1</ele>
        <time>2023-04-30T14:58:12Z</time>
      </trkpt>
      <trkpt lat="48.06562" lon="6.43693">
        <ele>481.9</ele>
        <time>2023-04-30T14:58:13Z</time>
      </trkpt>
      <trkpt lat="48.06557" lon="6.43688">
        <ele>481.6</ele>
        <time>2023-04-30T14:58:14Z</time>
      </trkpt>
      <trkpt lat="48.0655" lon="6.43682">
        <ele>481.3</ele>
        <time>2023-04-30T14:58:15Z</time>
      </trkpt>
      <trkpt lat="48.06543" lon="6.43674">
        <ele>481</ele>
        <time>2023-04-30T14:58:16Z</time>
      </trkpt>
      <trkpt lat="48.06535" lon="6.43667">
        <ele>480.8</ele>
        <time>2023-04-30T14:58:17Z</time>
      </trkpt>
      <trkpt lat="48.06528" lon="6.43661">
        <ele>480.7</ele>
        <time>2023-04-30T14:58:18Z</time>
      </trkpt>
      <trkpt lat="48.0652" lon="6.43655">
        <ele>480.3</ele>
        <time>2023-04-30T14:58:19Z</time>
      </trkpt>
      <trkpt lat="48.06512" lon="6.43648">
        <ele>479.8</ele>
        <time>2023-04-30T14:58:20Z</time>
      </trkpt>
      <trkpt lat="48.06504" lon="6.43641">
        <ele>479.4</ele>
        <time>2023-04-30T14:58:21Z</time>
      </trkpt>
      <trkpt lat="48.06496" lon="6.43635">
        <ele>478.9</ele>
        <time>2023-04-30T14:58:22Z</time>
      </trkpt>
      <trkpt lat="48.06489" lon="6.43628">
        <ele>478.5</ele>
        <time>2023-04-30T14:58:23Z</time>
      </trkpt>
      <trkpt lat="48.06481" lon="6.43621">
        <ele>478.1</ele>
        <time>2023-04-30T14:58:24Z</time>
      </trkpt>
      <trkpt lat="48.06473" lon="6.43613">
        <ele>477.7</ele>
        <time>2023-04-30T14:58:25Z</time>
      </trkpt>
      <trkpt lat="48.06465" lon="6.43605">
        <ele>477.3</ele>
        <time>2023-04-30T14:58:26Z</time>
      </trkpt>
      <trkpt lat="48.06458" lon="6.43595">
        <ele>476.9</ele>
        <time>2023-04-30T14:58:27Z</time>
      </trkpt>
      <trkpt lat="48.06451" lon="6.43586">
        <ele>476.5</ele>
        <time>2023-04-30T14:58:28Z</time>
      </trkpt>
      <trkpt lat="48.06446" lon="6.43576">
        <ele>476.1</ele>
        <time>2023-04-30T14:58:29Z</time>
      </trkpt>
      <trkpt lat="48.06441" lon="6.43565">
        <ele>475.7</ele>
        <time>2023-04-30T14:58:30Z</time>
      </trkpt>
      <trkpt lat="48.06437" lon="6.43553">
        <ele>475.3</ele>
        <time>2023-04-30T14:58:31Z</time>
      </trkpt>
      <trkpt lat="48.06433" lon="6.4354">
        <ele>474.8</ele>
        <time>2023-04-30T14:58:32Z</time>
      </trkpt>
      <trkpt lat="48.06431" lon="6.43527">
        <ele>474.3</ele>
        <time>2023-04-30T14:58:33Z</time>
      </trkpt>
      <trkpt lat="48.0643" lon="6.43514">
        <ele>473.8</ele>
        <time>2023-04-30T14:58:34Z</time>
      </trkpt>
      <trkpt lat="48.06428" lon="6.435">
        <ele>473.3</ele>
        <time>2023-04-30T14:58:35Z</time>
      </trkpt>
      <trkpt lat="48.06427" lon="6.43487">
        <ele>472.8</ele>
        <time>2023-04-30T14:58:36Z</time>
      </trkpt>
      <trkpt lat="48.06426" lon="6.43473">
        <ele>472.3</ele>
        <time>2023-04-30T14:58:37Z</time>
      </trkpt>
      <trkpt lat="48.06425" lon="6.4346">
        <ele>471.8</ele>
        <time>2023-04-30T14:58:38Z</time>
      </trkpt>
      <trkpt lat="48.06423" lon="6.43446">
        <ele>471.2</ele>
        <time>2023-04-30T14:58:39Z</time>
      </trkpt>
      <trkpt lat="48.0642" lon="6.43433">
        <ele>470.7</ele>
        <time>2023-04-30T14:58:40Z</time>
      </trkpt>
      <trkpt lat="48.06417" lon="6.43419">
        <ele>470.2</ele>
        <time>2023-04-30T14:58:41Z</time>
      </trkpt>
      <trkpt lat="48.06413" lon="6.43405">
        <ele>469.6</ele>
        <time>2023-04-30T14:58:42Z</time>
      </trkpt>
      <trkpt lat="48.06408" lon="6.43392">
        <ele>469.2</ele>
        <time>2023-04-30T14:58:43Z</time>
      </trkpt>
      <trkpt lat="48.06402" lon="6.4338">
        <ele>468.7</ele>
        <time>2023-04-30T14:58:44Z</time>
      </trkpt>
      <trkpt lat="48.06395" lon="6.43369">
        <ele>468.2</ele>
        <time>2023-04-30T14:58:45Z</time>
      </trkpt>
      <trkpt lat="48.06388" lon="6.43358">
        <ele>467.8</ele>
        <time>2023-04-30T14:58:46Z</time>
      </trkpt>
      <trkpt lat="48.0638" lon="6.43348">
        <ele>467.3</ele>
        <time>2023-04-30T14:58:47Z</time>
      </trkpt>
      <trkpt lat="48.06372" lon="6.43337">
        <ele>466.8</ele>
        <time>2023-04-30T14:58:48Z</time>
      </trkpt>
      <trkpt lat="48.06364" lon="6.43327">
        <ele>466.4</ele>
        <time>2023-04-30T14:58:49Z</time>
      </trkpt>
      <trkpt lat="48.06356" lon="6.43317">
        <ele>465.9</ele>
        <time>2023-04-30T14:58:50Z</time>
      </trkpt>
      <trkpt lat="48.06348" lon="6.43307">
        <ele>465.4</ele>
        <time>2023-04-30T14:58:51Z</time>
      </trkpt>
      <trkpt lat="48.0634" lon="6.43298">
        <ele>464.9</ele>
        <time>2023-04-30T14:58:52Z</time>
      </trkpt>
      <trkpt lat="48.06333" lon="6.43288">
        <ele>464.5</ele>
        <time>2023-04-30T14:58:53Z</time>
      </trkpt>
      <trkpt lat="48.06325" lon="6.43279">
        <ele>464</ele>
        <time>2023-04-30T14:58:54Z</time>
      </trkpt>
      <trkpt lat="48.06318" lon="6.43269">
        <ele>463.5</ele>
        <time>2023-04-30T14:58:55Z</time>
      </trkpt>
      <trkpt lat="48.0631" lon="6.43259">
        <ele>463</ele>
        <time>2023-04-30T14:58:56Z</time>
      </trkpt>
      <trkpt lat="48.06303" lon="6.43249">
        <ele>462.6</ele>
        <time>2023-04-30T14:58:57Z</time>
      </trkpt>
      <trkpt lat="48.06296" lon="6.43238">
        <ele>462.1</ele>
        <time>2023-04-30T14:58:58Z</time>
      </trkpt>
      <trkpt lat="48.06289" lon="6.43227">
        <ele>461.6</ele>
        <time>2023-04-30T14:58:59Z</time>
      </trkpt>
      <trkpt lat="48.06283" lon="6.43215">
        <ele>461</ele>
        <time>2023-04-30T14:59:00Z</time>
      </trkpt>
      <trkpt lat="48.06277" lon="6.43203">
        <ele>460.5</ele>
        <time>2023-04-30T14:59:01Z</time>
      </trkpt>
      <trkpt lat="48.06271" lon="6.4319">
        <ele>460</ele>
        <time>2023-04-30T14:59:02Z</time>
      </trkpt>
      <trkpt lat="48.06265" lon="6.43178">
        <ele>459.5</ele>
        <time>2023-04-30T14:59:03Z</time>
      </trkpt>
      <trkpt lat="48.0626" lon="6.43165">
        <ele>459</ele>
        <time>2023-04-30T14:59:04Z</time>
      </trkpt>
      <trkpt lat="48.06255" lon="6.43152">
        <ele>458.5</ele>
        <time>2023-04-30T14:59:05Z</time>
      </trkpt>
      <trkpt lat="48.06249" lon="6.43139">
        <ele>458</ele>
        <time>2023-04-30T14:59:06Z</time>
      </trkpt>
      <trkpt lat="48.06244" lon="6.43127">
        <ele>457.5</ele>
        <time>2023-04-30T14:59:07Z</time>
      </trkpt>
      <trkpt lat="48.06239" lon="6.43114">
        <ele>457</ele>
        <time>2023-04-30T14:59:08Z</time>
      </trkpt>
      <trkpt lat="48.06233" lon="6.431">
        <ele>456.4</ele>
        <time>2023-04-30T14:59:09Z</time>
      </trkpt>
      <trkpt lat="48.06227" lon="6.43087">
        <ele>455.8</ele>
        <time>2023-04-30T14:59:10Z</time>
      </trkpt>
      <trkpt lat="48.06222" lon="6.43074">
        <ele>455.2</ele>
        <time>2023-04-30T14:59:11Z</time>
      </trkpt>
      <trkpt lat="48.06216" lon="6.4306">
        <ele>454.6</ele>
        <time>2023-04-30T14:59:12Z</time>
      </trkpt>
      <trkpt lat="48.0621" lon="6.43046">
        <ele>454</ele>
        <time>2023-04-30T14:59:13Z</time>
      </trkpt>
      <trkpt lat="48.06204" lon="6.43033">
        <ele>453.4</ele>
        <time>2023-04-30T14:59:14Z</time>
      </trkpt>
      <trkpt lat="48.06198" lon="6.43018">
        <ele>452.8</ele>
        <time>2023-04-30T14:59:15Z</time>
      </trkpt>
      <trkpt lat="48.06192" lon="6.43004">
        <ele>452.3</ele>
        <time>2023-04-30T14:59:16Z</time>
      </trkpt>
      <trkpt lat="48.06188" lon="6.42988">
        <ele>451.9</ele>
        <time>2023-04-30T14:59:17Z</time>
      </trkpt>
      <trkpt lat="48.06184" lon="6.42972">
        <ele>451.4</ele>
        <time>2023-04-30T14:59:18Z</time>
      </trkpt>
      <trkpt lat="48.06182" lon="6.42956">
        <ele>451</ele>
        <time>2023-04-30T14:59:19Z</time>
      </trkpt>
      <trkpt lat="48.06182" lon="6.42939">
        <ele>450.5</ele>
        <time>2023-04-30T14:59:20Z</time>
      </trkpt>
      <trkpt lat="48.06183" lon="6.42922">
        <ele>450.1</ele>
        <time>2023-04-30T14:59:21Z</time>
      </trkpt>
      <trkpt lat="48.06184" lon="6.42906">
        <ele>449.6</ele>
        <time>2023-04-30T14:59:22Z</time>
      </trkpt>
      <trkpt lat="48.06186" lon="6.42889">
        <ele>449.2</ele>
        <time>2023-04-30T14:59:23Z</time>
      </trkpt>
      <trkpt lat="48.06188" lon="6.42873">
        <ele>448.7</ele>
        <time>2023-04-30T14:59:24Z</time>
      </trkpt>
      <trkpt lat="48.0619" lon="6.42857">
        <ele>448.3</ele>
        <time>2023-04-30T14:59:25Z</time>
      </trkpt>
      <trkpt lat="48.06192" lon="6.42842">
        <ele>447.8</ele>
        <time>2023-04-30T14:59:26Z</time>
      </trkpt>
      <trkpt lat="48.06194" lon="6.42826">
        <ele>447.3</ele>
        <time>2023-04-30T14:59:27Z</time>
      </trkpt>
      <trkpt lat="48.06195" lon="6.4281">
        <ele>446.8</ele>
        <time>2023-04-30T14:59:28Z</time>
      </trkpt>
      <trkpt lat="48.06197" lon="6.42794">
        <ele>446.3</ele>
        <time>2023-04-30T14:59:29Z</time>
      </trkpt>
      <trkpt lat="48.06199" lon="6.42778">
        <ele>445.7</ele>
        <time>2023-04-30T14:59:30Z</time>
      </trkpt>
      <trkpt lat="48.062" lon="6.42761">
        <ele>445.1</ele>
        <time>2023-04-30T14:59:31Z</time>
      </trkpt>
      <trkpt lat="48.06202" lon="6.42745">
        <ele>444.6</ele>
        <time>2023-04-30T14:59:32Z</time>
      </trkpt>
      <trkpt lat="48.06204" lon="6.42729">
        <ele>444</ele>
        <time>2023-04-30T14:59:33Z</time>
      </trkpt>
      <trkpt lat="48.06205" lon="6.42714">
        <ele>443.4</ele>
        <time>2023-04-30T14:59:34Z</time>
      </trkpt>
      <trkpt lat="48.06206" lon="6.42698">
        <ele>442.8</ele>
        <time>2023-04-30T14:59:35Z</time>
      </trkpt>
      <trkpt lat="48.06206" lon="6.42681">
        <ele>442.2</ele>
        <time>2023-04-30T14:59:36Z</time>
      </trkpt>
      <trkpt lat="48.06206" lon="6.42664">
        <ele>441.6</ele>
        <time>2023-04-30T14:59:37Z</time>
      </trkpt>
      <trkpt lat="48.06205" lon="6.42647">
        <ele>441.1</ele>
        <time>2023-04-30T14:59:38Z</time>
      </trkpt>
      <trkpt lat="48.06203" lon="6.4263">
        <ele>440.6</ele>
        <time>2023-04-30T14:59:39Z</time>
      </trkpt>
      <trkpt lat="48.062" lon="6.42614">
        <ele>440.1</ele>
        <time>2023-04-30T14:59:40Z</time>
      </trkpt>
      <trkpt lat="48.06196" lon="6.42598">
        <ele>439.6</ele>
        <time>2023-04-30T14:59:41Z</time>
      </trkpt>
      <trkpt lat="48.06191" lon="6.42582">
        <ele>439.1</ele>
        <time>2023-04-30T14:59:42Z</time>
      </trkpt>
      <trkpt lat="48.06185" lon="6.42568">
        <ele>438.7</ele>
        <time>2023-04-30T14:59:43Z</time>
      </trkpt>
      <trkpt lat="48.06179" lon="6.42556">
        <ele>438.2</ele>
        <time>2023-04-30T14:59:44Z</time>
      </trkpt>
      <trkpt lat="48.06171" lon="6.42544">
        <ele>437.8</ele>
        <time>2023-04-30T14:59:45Z</time>
      </trkpt>
      <trkpt lat="48.06162" lon="6.42534">
        <ele>437.4</ele>
        <time>2023-04-30T14:59:46Z</time>
      </trkpt>
      <trkpt lat="48.06153" lon="6.42526">
        <ele>437.1</ele>
        <time>2023-04-30T14:59:47Z</time>
      </trkpt>
      <trkpt lat="48.06143" lon="6.42519">
        <ele>436.7</ele>
        <time>2023-04-30T14:59:48Z</time>
      </trkpt>
      <trkpt lat="48.06133" lon="6.42512">
        <ele>436.3</ele>
        <time>2023-04-30T14:59:49Z</time>
      </trkpt>
      <trkpt lat="48.06123" lon="6.42508">
        <ele>435.9</ele>
        <time>2023-04-30T14:59:50Z</time>
      </trkpt>
      <trkpt lat="48.06114" lon="6.42503">
        <ele>435.5</ele>
        <time>2023-04-30T14:59:51Z</time>
      </trkpt>
      <trkpt lat="48.06106" lon="6.42497">
        <ele>435.1</ele>
        <time>2023-04-30T14:59:52Z</time>
      </trkpt>
      <trkpt lat="48.06096" lon="6.42492">
        <ele>434.7</ele>
        <time>2023-04-30T14:59:53Z</time>
      </trkpt>
      <trkpt lat="48.06085" lon="6.42487">
        <ele>434.2</ele>
        <time>2023-04-30T14:59:54Z</time>
      </trkpt>
      <trkpt lat="48.06073" lon="6.42482">
        <ele>433.6</ele>
        <time>2023-04-30T14:59:55Z</time>
      </trkpt>
      <trkpt lat="48.06061" lon="6.42477">
        <ele>433.1</ele>
        <time>2023-04-30T14:59:56Z</time>
      </trkpt>
      <trkpt lat="48.06051" lon="6.42473">
        <ele>432.7</ele>
        <time>2023-04-30T14:59:57Z</time>
      </trkpt>
      <trkpt lat="48.06041" lon="6.42468">
        <ele>432.3</ele>
        <time>2023-04-30T14:59:58Z</time>
      </trkpt>
      <trkpt lat="48.06031" lon="6.42464">
        <ele>431.8</ele>
        <time>2023-04-30T14:59:59Z</time>
      </trkpt>
      <trkpt lat="48.0602" lon="6.42459">
        <ele>431.4</ele>
        <time>2023-04-30T15:00:00Z</time>
      </trkpt>
      <trkpt lat="48.0601" lon="6.42455">
        <ele>431</ele>
        <time>2023-04-30T15:00:01Z</time>
      </trkpt>
      <trkpt lat="48.06001" lon="6.42452">
        <ele>430.6</ele>
        <time>2023-04-30T15:00:02Z</time>
      </trkpt>
      <trkpt lat="48.05992" lon="6.42447">
        <ele>430.2</ele>
        <time>2023-04-30T15:00:03Z</time>
      </trkpt>
      <trkpt lat="48.05982" lon="6.42443">
        <ele>429.7</ele>
        <time>2023-04-30T15:00:04Z</time>
      </trkpt>
      <trkpt lat="48.05971" lon="6.42438">
        <ele>429.2</ele>
        <time>2023-04-30T15:00:05Z</time>
      </trkpt>
      <trkpt lat="48.0596" lon="6.42434">
        <ele>428.8</ele>
        <time>2023-04-30T15:00:06Z</time>
      </trkpt>
      <trkpt lat="48.0595" lon="6.42429">
        <ele>428.4</ele>
        <time>2023-04-30T15:00:07Z</time>
      </trkpt>
      <trkpt lat="48.05944" lon="6.42425">
        <ele>428.1</ele>
        <time>2023-04-30T15:00:08Z</time>
      </trkpt>
      <trkpt lat="48.05937" lon="6.42421">
        <ele>427.8</ele>
        <time>2023-04-30T15:00:09Z</time>
      </trkpt>
      <trkpt lat="48.05929" lon="6.42415">
        <ele>427.4</ele>
        <time>2023-04-30T15:00:10Z</time>
      </trkpt>
      <trkpt lat="48.05921" lon="6.4241">
        <ele>427.1</ele>
        <time>2023-04-30T15:00:11Z</time>
      </trkpt>
      <trkpt lat="48.05915" lon="6.42404">
        <ele>426.8</ele>
        <time>2023-04-30T15:00:12Z</time>
      </trkpt>
      <trkpt lat="48.05908" lon="6.42397">
        <ele>426.4</ele>
        <time>2023-04-30T15:00:13Z</time>
      </trkpt>
      <trkpt lat="48.05899" lon="6.42391">
        <ele>426</ele>
        <time>2023-04-30T15:00:14Z</time>
      </trkpt>
      <trkpt lat="48.0589" lon="6.42383">
        <ele>425.5</ele>
        <time>2023-04-30T15:00:15Z</time>
      </trkpt>
      <trkpt lat="48.05882" lon="6.42375">
        <ele>425</ele>
        <time>2023-04-30T15:00:16Z</time>
      </trkpt>
      <trkpt lat="48.05873" lon="6.42368">
        <ele>424.6</ele>
        <time>2023-04-30T15:00:17Z</time>
      </trkpt>
      <trkpt lat="48.05863" lon="6.4236">
        <ele>424</ele>
        <time>2023-04-30T15:00:18Z</time>
      </trkpt>
      <trkpt lat="48.05854" lon="6.42352">
        <ele>423.5</ele>
        <time>2023-04-30T15:00:19Z</time>
      </trkpt>
      <trkpt lat="48.05845" lon="6.42344">
        <ele>423.1</ele>
        <time>2023-04-30T15:00:20Z</time>
      </trkpt>
      <trkpt lat="48.05837" lon="6.42337">
        <ele>422.7</ele>
        <time>2023-04-30T15:00:21Z</time>
      </trkpt>
      <trkpt lat="48.05829" lon="6.42331">
        <ele>422.3</ele>
        <time>2023-04-30T15:00:22Z</time>
      </trkpt>
      <trkpt lat="48.05822" lon="6.42324">
        <ele>421.9</ele>
        <time>2023-04-30T15:00:23Z</time>
      </trkpt>
      <trkpt lat="48.05814" lon="6.42317">
        <ele>421.4</ele>
        <time>2023-04-30T15:00:24Z</time>
      </trkpt>
      <trkpt lat="48.05805" lon="6.42309">
        <ele>421</ele>
        <time>2023-04-30T15:00:25Z</time>
      </trkpt>
      <trkpt lat="48.05796" lon="6.42302">
        <ele>420.5</ele>
        <time>2023-04-30T15:00:26Z</time>
      </trkpt>
      <trkpt lat="48.05787" lon="6.42295">
        <ele>420.1</ele>
        <time>2023-04-30T15:00:27Z</time>
      </trkpt>
      <trkpt lat="48.05777" lon="6.42289">
        <ele>419.6</ele>
        <time>2023-04-30T15:00:28Z</time>
      </trkpt>
      <trkpt lat="48.05766" lon="6.42286">
        <ele>419.1</ele>
        <time>2023-04-30T15:00:29Z</time>
      </trkpt>
      <trkpt lat="48.05754" lon="6.42286">
        <ele>418.6</ele>
        <time>2023-04-30T15:00:30Z</time>
      </trkpt>
      <trkpt lat="48.05744" lon="6.42287">
        <ele>418.1</ele>
        <time>2023-04-30T15:00:31Z</time>
      </trkpt>
      <trkpt lat="48.05735" lon="6.42291">
        <ele>417.5</ele>
        <time>2023-04-30T15:00:32Z</time>
      </trkpt>
      <trkpt lat="48.05726" lon="6.42297">
        <ele>416.9</ele>
        <time>2023-04-30T15:00:33Z</time>
      </trkpt>
      <trkpt lat="48.05716" lon="6.42307">
        <ele>416.2</ele>
        <time>2023-04-30T15:00:34Z</time>
      </trkpt>
      <trkpt lat="48.05707" lon="6.42319">
        <ele>415.5</ele>
        <time>2023-04-30T15:00:35Z</time>
      </trkpt>
      <trkpt lat="48.05701" lon="6.42331">
        <ele>414.9</ele>
        <time>2023-04-30T15:00:36Z</time>
      </trkpt>
      <trkpt lat="48.05694" lon="6.42341">
        <ele>414.4</ele>
        <time>2023-04-30T15:00:37Z</time>
      </trkpt>
      <trkpt lat="48.05687" lon="6.42352">
        <ele>413.9</ele>
        <time>2023-04-30T15:00:38Z</time>
      </trkpt>
      <trkpt lat="48.0568" lon="6.42363">
        <ele>413.4</ele>
        <time>2023-04-30T15:00:39Z</time>
      </trkpt>
      <trkpt lat="48.05672" lon="6.42375">
        <ele>412.8</ele>
        <time>2023-04-30T15:00:40Z</time>
      </trkpt>
      <trkpt lat="48.05664" lon="6.42387">
        <ele>412.3</ele>
        <time>2023-04-30T15:00:41Z</time>
      </trkpt>
      <trkpt lat="48.05657" lon="6.42399">
        <ele>411.8</ele>
        <time>2023-04-30T15:00:42Z</time>
      </trkpt>
      <trkpt lat="48.05651" lon="6.42411">
        <ele>411.4</ele>
        <time>2023-04-30T15:00:43Z</time>
      </trkpt>
      <trkpt lat="48.05644" lon="6.42422">
        <ele>411.1</ele>
        <time>2023-04-30T15:00:44Z</time>
      </trkpt>
      <trkpt lat="48.05638" lon="6.42434">
        <ele>410.7</ele>
        <time>2023-04-30T15:00:45Z</time>
      </trkpt>
      <trkpt lat="48.05631" lon="6.42444">
        <ele>410.6</ele>
        <time>2023-04-30T15:00:46Z</time>
      </trkpt>
      <trkpt lat="48.05623" lon="6.42453">
        <ele>410.5</ele>
        <time>2023-04-30T15:00:47Z</time>
      </trkpt>
      <trkpt lat="48.05615" lon="6.42459">
        <ele>410.5</ele>
        <time>2023-04-30T15:00:48Z</time>
      </trkpt>
      <trkpt lat="48.05607" lon="6.42461">
        <ele>410.5</ele>
        <time>2023-04-30T15:00:49Z</time>
      </trkpt>
      <trkpt lat="48.05599" lon="6.4246">
        <ele>410.4</ele>
        <time>2023-04-30T15:00:50Z</time>
      </trkpt>
      <trkpt lat="48.05592" lon="6.42456">
        <ele>410.3</ele>
        <time>2023-04-30T15:00:51Z</time>
      </trkpt>
      <trkpt lat="48.05585" lon="6.42448">
        <ele>410.1</ele>
        <time>2023-04-30T15:00:52Z</time>
      </trkpt>
      <trkpt lat="48.0558" lon="6.42438">
        <ele>410</ele>
        <time>2023-04-30T15:00:53Z</time>
      </trkpt>
      <trkpt lat="48.05577" lon="6.42426">
        <ele>410</ele>
        <time>2023-04-30T15:00:54Z</time>
      </trkpt>
      <trkpt lat="48.05576" lon="6.42415">
        <ele>410.1</ele>
        <time>2023-04-30T15:00:55Z</time>
      </trkpt>
      <trkpt lat="48.05575" lon="6.42404">
        <ele>410.2</ele>
        <time>2023-04-30T15:00:56Z</time>
      </trkpt>
      <trkpt lat="48.05574" lon="6.42394">
        <ele>410.3</ele>
        <time>2023-04-30T15:00:57Z</time>
      </trkpt>
      <trkpt lat="48.05574" lon="6.42384">
        <ele>410.4</ele>
        <time>2023-04-30T15:00:58Z</time>
      </trkpt>
      <trkpt lat="48.05575" lon="6.42374">
        <ele>410.5</ele>
        <time>2023-04-30T15:00:59Z</time>
      </trkpt>
      <trkpt lat="48.05576" lon="6.42364">
        <ele>410.6</ele>
        <time>2023-04-30T15:01:00Z</time>
      </trkpt>
      <trkpt lat="48.05577" lon="6.42355">
        <ele>410.7</ele>
        <time>2023-04-30T15:01:01Z</time>
      </trkpt>
      <trkpt lat="48.05578" lon="6.42346">
        <ele>410.8</ele>
        <time>2023-04-30T15:01:02Z</time>
      </trkpt>
      <trkpt lat="48.05579" lon="6.42337">
        <ele>410.9</ele>
        <time>2023-04-30T15:01:03Z</time>
      </trkpt>
      <trkpt lat="48.05579" lon="6.42328">
        <ele>411</ele>
        <time>2023-04-30T15:01:04Z</time>
      </trkpt>
      <trkpt lat="48.0558" lon="6.4232">
        <ele>411.2</ele>
        <time>2023-04-30T15:01:05Z</time>
      </trkpt>
      <trkpt lat="48.05581" lon="6.42312">
        <ele>411.3</ele>
        <time>2023-04-30T15:01:06Z</time>
      </trkpt>
      <trkpt lat="48.05583" lon="6.42303">
        <ele>411.5</ele>
        <time>2023-04-30T15:01:07Z</time>
      </trkpt>
      <trkpt lat="48.05584" lon="6.42295">
        <ele>411.6</ele>
        <time>2023-04-30T15:01:08Z</time>
      </trkpt>
      <trkpt lat="48.05586" lon="6.42287">
        <ele>411.8</ele>
        <time>2023-04-30T15:01:09Z</time>
      </trkpt>
      <trkpt lat="48.05589" lon="6.42278">
        <ele>411.9</ele>
        <time>2023-04-30T15:01:10Z</time>
      </trkpt>
      <trkpt lat="48.05591" lon="6.42269">
        <ele>412</ele>
        <time>2023-04-30T15:01:11Z</time>
      </trkpt>
      <trkpt lat="48.05594" lon="6.42261">
        <ele>412.1</ele>
        <time>2023-04-30T15:01:12Z</time>
      </trkpt>
      <trkpt lat="48.05597" lon="6.42255">
        <ele>412.3</ele>
        <time>2023-04-30T15:01:13Z</time>
      </trkpt>
      <trkpt lat="48.056" lon="6.42248">
        <ele>412.4</ele>
        <time>2023-04-30T15:01:14Z</time>
      </trkpt>
      <trkpt lat="48.05603" lon="6.42242">
        <ele>412.5</ele>
        <time>2023-04-30T15:01:15Z</time>
      </trkpt>
      <trkpt lat="48.05606" lon="6.42236">
        <ele>412.6</ele>
        <time>2023-04-30T15:01:16Z</time>
      </trkpt>
      <trkpt lat="48.0561" lon="6.42229">
        <ele>412.8</ele>
        <time>2023-04-30T15:01:17Z</time>
      </trkpt>
      <trkpt lat="48.05613" lon="6.42221">
        <ele>413</ele>
        <time>2023-04-30T15:01:18Z</time>
      </trkpt>
      <trkpt lat="48.05615" lon="6.42215">
        <ele>413.1</ele>
        <time>2023-04-30T15:01:19Z</time>
      </trkpt>
      <trkpt lat="48.05618" lon="6.42208">
        <ele>413.3</ele>
        <time>2023-04-30T15:01:20Z</time>
      </trkpt>
      <trkpt lat="48.0562" lon="6.42202">
        <ele>413.5</ele>
        <time>2023-04-30T15:01:21Z</time>
      </trkpt>
      <trkpt lat="48.05622" lon="6.42194">
        <ele>413.8</ele>
        <time>2023-04-30T15:01:22Z</time>
      </trkpt>
      <trkpt lat="48.05624" lon="6.42186">
        <ele>414</ele>
        <time>2023-04-30T15:01:23Z</time>
      </trkpt>
      <trkpt lat="48.05625" lon="6.42178">
        <ele>414.2</ele>
        <time>2023-04-30T15:01:24Z</time>
      </trkpt>
      <trkpt lat="48.05627" lon="6.42171">
        <ele>414.4</ele>
        <time>2023-04-30T15:01:25Z</time>
      </trkpt>
      <trkpt lat="48.05628" lon="6.42164">
        <ele>414.6</ele>
        <time>2023-04-30T15:01:26Z</time>
      </trkpt>
      <trkpt lat="48.0563" lon="6.42156">
        <ele>414.8</ele>
        <time>2023-04-30T15:01:27Z</time>
      </trkpt>
      <trkpt lat="48.05631" lon="6.42149">
        <ele>415</ele>
        <time>2023-04-30T15:01:28Z</time>
      </trkpt>
      <trkpt lat="48.05632" lon="6.42141">
        <ele>415.2</ele>
        <time>2023-04-30T15:01:29Z</time>
      </trkpt>
      <trkpt lat="48.05633" lon="6.42134">
        <ele>415.5</ele>
        <time>2023-04-30T15:01:30Z</time>
      </trkpt>
      <trkpt lat="48.05634" lon="6.42126">
        <ele>415.7</ele>
        <time>2023-04-30T15:01:31Z</time>
      </trkpt>
      <trkpt lat="48.05634" lon="6.42119">
        <ele>415.9</ele>
        <time>2023-04-30T15:01:32Z</time>
      </trkpt>
      <trkpt lat="48.05634" lon="6.42111">
        <ele>416.1</ele>
        <time>2023-04-30T15:01:33Z</time>
      </trkpt>
      <trkpt lat="48.05634" lon="6.42104">
        <ele>416.3</ele>
        <time>2023-04-30T15:01:34Z</time>
      </trkpt>
      <trkpt lat="48.05633" lon="6.42097">
        <ele>416.5</ele>
        <time>2023-04-30T15:01:35Z</time>
      </trkpt>
      <trkpt lat="48.05633" lon="6.42091">
        <ele>416.6</ele>
        <time>2023-04-30T15:01:36Z</time>
      </trkpt>
      <trkpt lat="48.05633" lon="6.42083">
        <ele>416.8</ele>
        <time>2023-04-30T15:01:37Z</time>
      </trkpt>
      <trkpt lat="48.05632" lon="6.42079">
        <ele>416.9</ele>
        <time>2023-04-30T15:01:38Z</time>
      </trkpt>
      <trkpt lat="48.05632" lon="6.42072">
        <ele>417.1</ele>
        <time>2023-04-30T15:01:39Z</time>
      </trkpt>
      <trkpt lat="48.05631" lon="6.42067">
        <ele>417.2</ele>
        <time>2023-04-30T15:01:40Z</time>
      </trkpt>
      <trkpt lat="48.05631" lon="6.42062">
        <ele>417.3</ele>
        <time>2023-04-30T15:01:41Z</time>
      </trkpt>
      <trkpt lat="48.0563" lon="6.42056">
        <ele>417.4</ele>
        <time>2023-04-30T15:01:42Z</time>
      </trkpt>
      <trkpt lat="48.05629" lon="6.42051">
        <ele>417.5</ele>
        <time>2023-04-30T15:01:43Z</time>
      </trkpt>
      <trkpt lat="48.05628" lon="6.42044">
        <ele>417.7</ele>
        <time>2023-04-30T15:01:44Z</time>
      </trkpt>
      <trkpt lat="48.05627" lon="6.42039">
        <ele>417.8</ele>
        <time>2023-04-30T15:01:45Z</time>
      </trkpt>
      <trkpt lat="48.05626" lon="6.42031">
        <ele>417.9</ele>
        <time>2023-04-30T15:01:46Z</time>
      </trkpt>
      <trkpt lat="48.05625" lon="6.42026">
        <ele>418.1</ele>
        <time>2023-04-30T15:01:47Z</time>
      </trkpt>
      <trkpt lat="48.05623" lon="6.42019">
        <ele>418.3</ele>
        <time>2023-04-30T15:01:48Z</time>
      </trkpt>
      <trkpt lat="48.05622" lon="6.42011">
        <ele>418.5</ele>
        <time>2023-04-30T15:01:49Z</time>
      </trkpt>
      <trkpt lat="48.05621" lon="6.42004">
        <ele>418.7</ele>
        <time>2023-04-30T15:01:50Z</time>
      </trkpt>
      <trkpt lat="48.0562" lon="6.41998">
        <ele>418.8</ele>
        <time>2023-04-30T15:01:51Z</time>
      </trkpt>
      <trkpt lat="48.05619" lon="6.41994">
        <ele>418.9</ele>
        <time>2023-04-30T15:01:52Z</time>
      </trkpt>
      <trkpt lat="48.05619" lon="6.41988">
        <ele>419.1</ele>
        <time>2023-04-30T15:01:53Z</time>
      </trkpt>
      <trkpt lat="48.05617" lon="6.41979">
        <ele>419.3</ele>
        <time>2023-04-30T15:01:54Z</time>
      </trkpt>
      <trkpt lat="48.05616" lon="6.41972">
        <ele>419.5</ele>
        <time>2023-04-30T15:01:55Z</time>
      </trkpt>
      <trkpt lat="48.05615" lon="6.41967">
        <ele>419.6</ele>
        <time>2023-04-30T15:01:56Z</time>
      </trkpt>
      <trkpt lat="48.05613" lon="6.41961">
        <ele>419.8</ele>
        <time>2023-04-30T15:01:57Z</time>
      </trkpt>
      <trkpt lat="48.05612" lon="6.41955">
        <ele>419.9</ele>
        <time>2023-04-30T15:01:58Z</time>
      </trkpt>
      <trkpt lat="48.05611" lon="6.4195">
        <ele>420.1</ele>
        <time>2023-04-30T15:01:59Z</time>
      </trkpt>
      <trkpt lat="48.05609" lon="6.41944">
        <ele>420.2</ele>
        <time>2023-04-30T15:02:00Z</time>
      </trkpt>
      <trkpt lat="48.05608" lon="6.41937">
        <ele>420.4</ele>
        <time>2023-04-30T15:02:01Z</time>
      </trkpt>
      <trkpt lat="48.05606" lon="6.41929">
        <ele>420.6</ele>
        <time>2023-04-30T15:02:02Z</time>
      </trkpt>
      <trkpt lat="48.05604" lon="6.41923">
        <ele>420.8</ele>
        <time>2023-04-30T15:02:03Z</time>
      </trkpt>
      <trkpt lat="48.05603" lon="6.41917">
        <ele>421</ele>
        <time>2023-04-30T15:02:04Z</time>
      </trkpt>
      <trkpt lat="48.05601" lon="6.4191">
        <ele>421.1</ele>
        <time>2023-04-30T15:02:05Z</time>
      </trkpt>
      <trkpt lat="48.056" lon="6.41907">
        <ele>421.2</ele>
        <time>2023-04-30T15:02:06Z</time>
      </trkpt>
      <trkpt lat="48.05598" lon="6.419">
        <ele>421.4</ele>
        <time>2023-04-30T15:02:07Z</time>
      </trkpt>
      <trkpt lat="48.05596" lon="6.41895">
        <ele>421.5</ele>
        <time>2023-04-30T15:02:08Z</time>
      </trkpt>
      <trkpt lat="48.05594" lon="6.41887">
        <ele>421.8</ele>
        <time>2023-04-30T15:02:09Z</time>
      </trkpt>
      <trkpt lat="48.05591" lon="6.41881">
        <ele>421.9</ele>
        <time>2023-04-30T15:02:10Z</time>
      </trkpt>
      <trkpt lat="48.05589" lon="6.41873">
        <ele>422.1</ele>
        <time>2023-04-30T15:02:12Z</time>
      </trkpt>
      <trkpt lat="48.05587" lon="6.41867">
        <ele>422.3</ele>
        <time>2023-04-30T15:02:13Z</time>
      </trkpt>
      <trkpt lat="48.05585" lon="6.41862">
        <ele>422.4</ele>
        <time>2023-04-30T15:02:14Z</time>
      </trkpt>
      <trkpt lat="48.05583" lon="6.41854">
        <ele>422.7</ele>
        <time>2023-04-30T15:02:15Z</time>
      </trkpt>
      <trkpt lat="48.0558" lon="6.4185">
        <ele>422.8</ele>
        <time>2023-04-30T15:02:16Z</time>
      </trkpt>
      <trkpt lat="48.05577" lon="6.41844">
        <ele>423</ele>
        <time>2023-04-30T15:02:17Z</time>
      </trkpt>
      <trkpt lat="48.05575" lon="6.41838">
        <ele>423.2</ele>
        <time>2023-04-30T15:02:18Z</time>
      </trkpt>
      <trkpt lat="48.05572" lon="6.41833">
        <ele>423.3</ele>
        <time>2023-04-30T15:02:19Z</time>
      </trkpt>
      <trkpt lat="48.05569" lon="6.41827">
        <ele>423.5</ele>
        <time>2023-04-30T15:02:20Z</time>
      </trkpt>
      <trkpt lat="48.05566" lon="6.41821">
        <ele>423.7</ele>
        <time>2023-04-30T15:02:21Z</time>
      </trkpt>
      <trkpt lat="48.05562" lon="6.41813">
        <ele>423.9</ele>
        <time>2023-04-30T15:02:22Z</time>
      </trkpt>
      <trkpt lat="48.05559" lon="6.41807">
        <ele>424.1</ele>
        <time>2023-04-30T15:02:24Z</time>
      </trkpt>
      <trkpt lat="48.05556" lon="6.41801">
        <ele>424.3</ele>
        <time>2023-04-30T15:02:25Z</time>
      </trkpt>
      <trkpt lat="48.05553" lon="6.41795">
        <ele>424.5</ele>
        <time>2023-04-30T15:02:26Z</time>
      </trkpt>
      <trkpt lat="48.0555" lon="6.4179">
        <ele>424.7</ele>
        <time>2023-04-30T15:02:27Z</time>
      </trkpt>
      <trkpt lat="48.05547" lon="6.41786">
        <ele>424.8</ele>
        <time>2023-04-30T15:02:28Z</time>
      </trkpt>
      <trkpt lat="48.05543" lon="6.4178">
        <ele>425.1</ele>
        <time>2023-04-30T15:02:29Z</time>
      </trkpt>
      <trkpt lat="48.0554" lon="6.41774">
        <ele>425.3</ele>
        <time>2023-04-30T15:02:30Z</time>
      </trkpt>
      <trkpt lat="48.05536" lon="6.4177">
        <ele>425.5</ele>
        <time>2023-04-30T15:02:31Z</time>
      </trkpt>
      <trkpt lat="48.05533" lon="6.41766">
        <ele>425.7</ele>
        <time>2023-04-30T15:02:32Z</time>
      </trkpt>
      <trkpt lat="48.0553" lon="6.4176">
        <ele>425.9</ele>
        <time>2023-04-30T15:02:33Z</time>
      </trkpt>
      <trkpt lat="48.05525" lon="6.41755">
        <ele>426.2</ele>
        <time>2023-04-30T15:02:34Z</time>
      </trkpt>
      <trkpt lat="48.05522" lon="6.41751">
        <ele>426.3</ele>
        <time>2023-04-30T15:02:35Z</time>
      </trkpt>
      <trkpt lat="48.05518" lon="6.41746">
        <ele>426.5</ele>
        <time>2023-04-30T15:02:36Z</time>
      </trkpt>
      <trkpt lat="48.05513" lon="6.41742">
        <ele>426.8</ele>
        <time>2023-04-30T15:02:37Z</time>
      </trkpt>
      <trkpt lat="48.05509" lon="6.41737">
        <ele>427</ele>
        <time>2023-04-30T15:02:39Z</time>
      </trkpt>
      <trkpt lat="48.05507" lon="6.41733">
        <ele>427.2</ele>
        <time>2023-04-30T15:02:40Z</time>
      </trkpt>
      <trkpt lat="48.055" lon="6.41728">
        <ele>427.5</ele>
        <time>2023-04-30T15:02:41Z</time>
      </trkpt>
      <trkpt lat="48.05496" lon="6.41725">
        <ele>427.8</ele>
        <time>2023-04-30T15:02:42Z</time>
      </trkpt>
      <trkpt lat="48.05492" lon="6.41721">
        <ele>428</ele>
        <time>2023-04-30T15:02:44Z</time>
      </trkpt>
      <trkpt lat="48.05488" lon="6.41717">
        <ele>428.2</ele>
        <time>2023-04-30T15:02:45Z</time>
      </trkpt>
      <trkpt lat="48.05484" lon="6.41713">
        <ele>428.5</ele>
        <time>2023-04-30T15:02:46Z</time>
      </trkpt>
      <trkpt lat="48.0548" lon="6.41709">
        <ele>428.7</ele>
        <time>2023-04-30T15:02:47Z</time>
      </trkpt>
      <trkpt lat="48.05476" lon="6.41705">
        <ele>429</ele>
        <time>2023-04-30T15:02:48Z</time>
      </trkpt>
      <trkpt lat="48.05472" lon="6.41703">
        <ele>429.2</ele>
        <time>2023-04-30T15:02:49Z</time>
      </trkpt>
      <trkpt lat="48.05463" lon="6.41697">
        <ele>429.7</ele>
        <time>2023-04-30T15:02:51Z</time>
      </trkpt>
      <trkpt lat="48.05459" lon="6.41694">
        <ele>429.9</ele>
        <time>2023-04-30T15:02:53Z</time>
      </trkpt>
      <trkpt lat="48.05455" lon="6.41691">
        <ele>430.1</ele>
        <time>2023-04-30T15:02:54Z</time>
      </trkpt>
      <trkpt lat="48.0545" lon="6.41689">
        <ele>430.4</ele>
        <time>2023-04-30T15:02:55Z</time>
      </trkpt>
      <trkpt lat="48.05445" lon="6.41686">
        <ele>430.6</ele>
        <time>2023-04-30T15:02:56Z</time>
      </trkpt>
      <trkpt lat="48.0544" lon="6.41684">
        <ele>430.8</ele>
        <time>2023-04-30T15:02:57Z</time>
      </trkpt>
      <trkpt lat="48.05432" lon="6.4168">
        <ele>431.2</ele>
        <time>2023-04-30T15:02:59Z</time>
      </trkpt>
      <trkpt lat="48.05427" lon="6.41678">
        <ele>431.4</ele>
        <time>2023-04-30T15:03:00Z</time>
      </trkpt>
      <trkpt lat="48.05423" lon="6.41676">
        <ele>431.6</ele>
        <time>2023-04-30T15:03:02Z</time>
      </trkpt>
      <trkpt lat="48.05418" lon="6.41675">
        <ele>431.9</ele>
        <time>2023-04-30T15:03:03Z</time>
      </trkpt>
      <trkpt lat="48.05412" lon="6.41674">
        <ele>432.2</ele>
        <time>2023-04-30T15:03:04Z</time>
      </trkpt>
      <trkpt lat="48.05408" lon="6.41672">
        <ele>432.4</ele>
        <time>2023-04-30T15:03:05Z</time>
      </trkpt>
      <trkpt lat="48.05404" lon="6.41669">
        <ele>432.5</ele>
        <time>2023-04-30T15:03:06Z</time>
      </trkpt>
      <trkpt lat="48.05399" lon="6.41668">
        <ele>432.7</ele>
        <time>2023-04-30T15:03:08Z</time>
      </trkpt>
      <trkpt lat="48.05396" lon="6.41668">
        <ele>432.8</ele>
        <time>2023-04-30T15:03:09Z</time>
      </trkpt>
      <trkpt lat="48.05391" lon="6.41667">
        <ele>433</ele>
        <time>2023-04-30T15:03:10Z</time>
      </trkpt>
      <trkpt lat="48.05386" lon="6.41665">
        <ele>433.2</ele>
        <time>2023-04-30T15:03:11Z</time>
      </trkpt>
      <trkpt lat="48.05381" lon="6.41664">
        <ele>433.4</ele>
        <time>2023-04-30T15:03:12Z</time>
      </trkpt>
      <trkpt lat="48.05376" lon="6.41663">
        <ele>433.6</ele>
        <time>2023-04-30T15:03:13Z</time>
      </trkpt>
      <trkpt lat="48.05372" lon="6.41662">
        <ele>433.8</ele>
        <time>2023-04-30T15:03:14Z</time>
      </trkpt>
      <trkpt lat="48.05368" lon="6.41662">
        <ele>433.9</ele>
        <time>2023-04-30T15:03:16Z</time>
      </trkpt>
      <trkpt lat="48.05364" lon="6.41662">
        <ele>434.1</ele>
        <time>2023-04-30T15:03:17Z</time>
      </trkpt>
      <trkpt lat="48.0536" lon="6.41662">
        <ele>434.2</ele>
        <time>2023-04-30T15:03:18Z</time>
      </trkpt>
      <trkpt lat="48.05356" lon="6.41662">
        <ele>434.4</ele>
        <time>2023-04-30T15:03:19Z</time>
      </trkpt>
      <trkpt lat="48.05352" lon="6.41664">
        <ele>434.6</ele>
        <time>2023-04-30T15:03:20Z</time>
      </trkpt>
      <trkpt lat="48.05349" lon="6.41664">
        <ele>434.8</ele>
        <time>2023-04-30T15:03:22Z</time>
      </trkpt>
      <trkpt lat="48.05345" lon="6.41664">
        <ele>435</ele>
        <time>2023-04-30T15:03:23Z</time>
      </trkpt>
      <trkpt lat="48.05341" lon="6.41664">
        <ele>435.1</ele>
        <time>2023-04-30T15:03:24Z</time>
      </trkpt>
      <trkpt lat="48.05334" lon="6.41667">
        <ele>435.5</ele>
        <time>2023-04-30T15:03:25Z</time>
      </trkpt>
      <trkpt lat="48.05327" lon="6.41669">
        <ele>435.9</ele>
        <time>2023-04-30T15:03:26Z</time>
      </trkpt>
      <trkpt lat="48.05322" lon="6.4167">
        <ele>436.2</ele>
        <time>2023-04-30T15:03:27Z</time>
      </trkpt>
      <trkpt lat="48.05311" lon="6.41674">
        <ele>436.7</ele>
        <time>2023-04-30T15:03:29Z</time>
      </trkpt>
      <trkpt lat="48.05307" lon="6.41676">
        <ele>437</ele>
        <time>2023-04-30T15:03:31Z</time>
      </trkpt>
      <trkpt lat="48.05303" lon="6.41678">
        <ele>437.2</ele>
        <time>2023-04-30T15:03:32Z</time>
      </trkpt>
      <trkpt lat="48.05297" lon="6.4168">
        <ele>437.5</ele>
        <time>2023-04-30T15:03:33Z</time>
      </trkpt>
      <trkpt lat="48.05293" lon="6.41681">
        <ele>437.7</ele>
        <time>2023-04-30T15:03:35Z</time>
      </trkpt>
      <trkpt lat="48.05285" lon="6.41685">
        <ele>438.2</ele>
        <time>2023-04-30T15:03:36Z</time>
      </trkpt>
      <trkpt lat="48.05281" lon="6.41688">
        <ele>438.4</ele>
        <time>2023-04-30T15:03:38Z</time>
      </trkpt>
      <trkpt lat="48.05277" lon="6.41691">
        <ele>438.6</ele>
        <time>2023-04-30T15:03:39Z</time>
      </trkpt>
      <trkpt lat="48.05272" lon="6.41692">
        <ele>438.8</ele>
        <time>2023-04-30T15:03:40Z</time>
      </trkpt>
      <trkpt lat="48.05269" lon="6.41693">
        <ele>439</ele>
        <time>2023-04-30T15:03:41Z</time>
      </trkpt>
      <trkpt lat="48.05264" lon="6.41695">
        <ele>439.3</ele>
        <time>2023-04-30T15:03:42Z</time>
      </trkpt>
      <trkpt lat="48.0526" lon="6.41697">
        <ele>439.5</ele>
        <time>2023-04-30T15:03:43Z</time>
      </trkpt>
      <trkpt lat="48.05255" lon="6.41701">
        <ele>439.7</ele>
        <time>2023-04-30T15:03:45Z</time>
      </trkpt>
      <trkpt lat="48.0525" lon="6.41706">
        <ele>440</ele>
        <time>2023-04-30T15:03:46Z</time>
      </trkpt>
      <trkpt lat="48.05246" lon="6.41711">
        <ele>440.4</ele>
        <time>2023-04-30T15:03:47Z</time>
      </trkpt>
      <trkpt lat="48.05241" lon="6.41716">
        <ele>440.7</ele>
        <time>2023-04-30T15:03:48Z</time>
      </trkpt>
      <trkpt lat="48.05232" lon="6.41724">
        <ele>441.4</ele>
        <time>2023-04-30T15:03:50Z</time>
      </trkpt>
      <trkpt lat="48.05228" lon="6.41728">
        <ele>441.7</ele>
        <time>2023-04-30T15:03:51Z</time>
      </trkpt>
      <trkpt lat="48.05225" lon="6.41732">
        <ele>442</ele>
        <time>2023-04-30T15:03:53Z</time>
      </trkpt>
      <trkpt lat="48.05221" lon="6.41735">
        <ele>442.4</ele>
        <time>2023-04-30T15:03:54Z</time>
      </trkpt>
      <trkpt lat="48.05217" lon="6.4174">
        <ele>442.7</ele>
        <time>2023-04-30T15:03:55Z</time>
      </trkpt>
      <trkpt lat="48.05213" lon="6.41743">
        <ele>443.1</ele>
        <time>2023-04-30T15:03:56Z</time>
      </trkpt>
      <trkpt lat="48.0521" lon="6.41746">
        <ele>443.4</ele>
        <time>2023-04-30T15:03:57Z</time>
      </trkpt>
      <trkpt lat="48.05206" lon="6.41748">
        <ele>443.8</ele>
        <time>2023-04-30T15:03:58Z</time>
      </trkpt>
      <trkpt lat="48.05203" lon="6.4175">
        <ele>444.1</ele>
        <time>2023-04-30T15:03:59Z</time>
      </trkpt>
      <trkpt lat="48.05199" lon="6.41752">
        <ele>444.5</ele>
        <time>2023-04-30T15:04:01Z</time>
      </trkpt>
      <trkpt lat="48.05194" lon="6.41755">
        <ele>444.9</ele>
        <time>2023-04-30T15:04:02Z</time>
      </trkpt>
      <trkpt lat="48.05189" lon="6.41758">
        <ele>445.5</ele>
        <time>2023-04-30T15:04:03Z</time>
      </trkpt>
      <trkpt lat="48.05184" lon="6.41758">
        <ele>445.9</ele>
        <time>2023-04-30T15:04:05Z</time>
      </trkpt>
      <trkpt lat="48.05181" lon="6.41758">
        <ele>446.3</ele>
        <time>2023-04-30T15:04:06Z</time>
      </trkpt>
      <trkpt lat="48.05177" lon="6.41758">
        <ele>446.6</ele>
        <time>2023-04-30T15:04:07Z</time>
      </trkpt>
      <trkpt lat="48.05174" lon="6.41757">
        <ele>446.9</ele>
        <time>2023-04-30T15:04:08Z</time>
      </trkpt>
      <trkpt lat="48.05167" lon="6.41757">
        <ele>447.5</ele>
        <time>2023-04-30T15:04:10Z</time>
      </trkpt>
      <trkpt lat="48.05162" lon="6.41756">
        <ele>447.9</ele>
        <time>2023-04-30T15:04:12Z</time>
      </trkpt>
      <trkpt lat="48.05158" lon="6.41756">
        <ele>448.2</ele>
        <time>2023-04-30T15:04:13Z</time>
      </trkpt>
      <trkpt lat="48.05154" lon="6.41752">
        <ele>448.5</ele>
        <time>2023-04-30T15:04:14Z</time>
      </trkpt>
      <trkpt lat="48.0515" lon="6.41747">
        <ele>448.7</ele>
        <time>2023-04-30T15:04:15Z</time>
      </trkpt>
      <trkpt lat="48.05148" lon="6.41743">
        <ele>448.9</ele>
        <time>2023-04-30T15:04:16Z</time>
      </trkpt>
      <trkpt lat="48.05146" lon="6.41738">
        <ele>449.1</ele>
        <time>2023-04-30T15:04:18Z</time>
      </trkpt>
      <trkpt lat="48.05144" lon="6.41734">
        <ele>449.3</ele>
        <time>2023-04-30T15:04:19Z</time>
      </trkpt>
      <trkpt lat="48.05144" lon="6.41728">
        <ele>449.5</ele>
        <time>2023-04-30T15:04:20Z</time>
      </trkpt>
      <trkpt lat="48.05144" lon="6.41722">
        <ele>449.6</ele>
        <time>2023-04-30T15:04:21Z</time>
      </trkpt>
      <trkpt lat="48.05144" lon="6.41716">
        <ele>449.7</ele>
        <time>2023-04-30T15:04:22Z</time>
      </trkpt>
      <trkpt lat="48.05145" lon="6.4171">
        <ele>449.9</ele>
        <time>2023-04-30T15:04:23Z</time>
      </trkpt>
      <trkpt lat="48.05146" lon="6.41706">
        <ele>449.9</ele>
        <time>2023-04-30T15:04:25Z</time>
      </trkpt>
      <trkpt lat="48.05146" lon="6.41705">
        <ele>450</ele>
        <time>2023-04-30T15:04:26Z</time>
      </trkpt>
      <trkpt lat="48.05148" lon="6.41699">
        <ele>450.1</ele>
        <time>2023-04-30T15:04:27Z</time>
      </trkpt>
      <trkpt lat="48.05148" lon="6.41697">
        <ele>450.1</ele>
        <time>2023-04-30T15:04:28Z</time>
      </trkpt>
      <trkpt lat="48.0515" lon="6.41694">
        <ele>450.2</ele>
        <time>2023-04-30T15:04:29Z</time>
      </trkpt>
      <trkpt lat="48.05152" lon="6.41687">
        <ele>450.3</ele>
        <time>2023-04-30T15:04:31Z</time>
      </trkpt>
      <trkpt lat="48.05152" lon="6.41677">
        <ele>450.5</ele>
        <time>2023-04-30T15:04:33Z</time>
      </trkpt>
      <trkpt lat="48.05153" lon="6.41671">
        <ele>450.6</ele>
        <time>2023-04-30T15:04:34Z</time>
      </trkpt>
      <trkpt lat="48.05154" lon="6.41657">
        <ele>450.9</ele>
        <time>2023-04-30T15:04:35Z</time>
      </trkpt>
      <trkpt lat="48.05155" lon="6.41649">
        <ele>451</ele>
        <time>2023-04-30T15:04:37Z</time>
      </trkpt>
      <trkpt lat="48.05156" lon="6.41645">
        <ele>451.1</ele>
        <time>2023-04-30T15:04:38Z</time>
      </trkpt>
      <trkpt lat="48.05157" lon="6.41639">
        <ele>451.3</ele>
        <time>2023-04-30T15:04:39Z</time>
      </trkpt>
      <trkpt lat="48.05158" lon="6.4163">
        <ele>451.5</ele>
        <time>2023-04-30T15:04:40Z</time>
      </trkpt>
      <trkpt lat="48.0516" lon="6.41624">
        <ele>451.6</ele>
        <time>2023-04-30T15:04:42Z</time>
      </trkpt>
      <trkpt lat="48.05161" lon="6.41618">
        <ele>451.8</ele>
        <time>2023-04-30T15:04:43Z</time>
      </trkpt>
      <trkpt lat="48.05162" lon="6.41611">
        <ele>451.9</ele>
        <time>2023-04-30T15:04:44Z</time>
      </trkpt>
      <trkpt lat="48.05163" lon="6.41603">
        <ele>452.1</ele>
        <time>2023-04-30T15:04:46Z</time>
      </trkpt>
      <trkpt lat="48.05164" lon="6.41598">
        <ele>452.2</ele>
        <time>2023-04-30T15:04:47Z</time>
      </trkpt>
      <trkpt lat="48.05165" lon="6.41591">
        <ele>452.4</ele>
        <time>2023-04-30T15:04:48Z</time>
      </trkpt>
      <trkpt lat="48.05167" lon="6.41584">
        <ele>452.5</ele>
        <time>2023-04-30T15:04:50Z</time>
      </trkpt>
      <trkpt lat="48.05168" lon="6.41579">
        <ele>452.6</ele>
        <time>2023-04-30T15:04:51Z</time>
      </trkpt>
      <trkpt lat="48.05169" lon="6.41574">
        <ele>452.8</ele>
        <time>2023-04-30T15:04:52Z</time>
      </trkpt>
      <trkpt lat="48.0517" lon="6.41565">
        <ele>453</ele>
        <time>2023-04-30T15:04:53Z</time>
      </trkpt>
      <trkpt lat="48.05172" lon="6.41559">
        <ele>453.2</ele>
        <time>2023-04-30T15:04:54Z</time>
      </trkpt>
      <trkpt lat="48.05173" lon="6.41553">
        <ele>453.3</ele>
        <time>2023-04-30T15:04:56Z</time>
      </trkpt>
      <trkpt lat="48.05175" lon="6.41543">
        <ele>453.6</ele>
        <time>2023-04-30T15:04:57Z</time>
      </trkpt>
      <trkpt lat="48.05176" lon="6.41538">
        <ele>453.7</ele>
        <time>2023-04-30T15:04:59Z</time>
      </trkpt>
      <trkpt lat="48.05178" lon="6.41527">
        <ele>454</ele>
        <time>2023-04-30T15:05:00Z</time>
      </trkpt>
      <trkpt lat="48.05178" lon="6.41514">
        <ele>454.4</ele>
        <time>2023-04-30T15:05:02Z</time>
      </trkpt>
      <trkpt lat="48.05179" lon="6.41509">
        <ele>454.5</ele>
        <time>2023-04-30T15:05:04Z</time>
      </trkpt>
      <trkpt lat="48.0518" lon="6.41504">
        <ele>454.7</ele>
        <time>2023-04-30T15:05:05Z</time>
      </trkpt>
      <trkpt lat="48.0518" lon="6.41501">
        <ele>454.8</ele>
        <time>2023-04-30T15:05:07Z</time>
      </trkpt>
      <trkpt lat="48.05181" lon="6.41497">
        <ele>454.9</ele>
        <time>2023-04-30T15:05:08Z</time>
      </trkpt>
      <trkpt lat="48.05181" lon="6.41494">
        <ele>455</ele>
        <time>2023-04-30T15:05:09Z</time>
      </trkpt>
      <trkpt lat="48.05181" lon="6.41488">
        <ele>455.3</ele>
        <time>2023-04-30T15:05:10Z</time>
      </trkpt>
      <trkpt lat="48.05181" lon="6.41481">
        <ele>455.5</ele>
        <time>2023-04-30T15:05:11Z</time>
      </trkpt>
      <trkpt lat="48.05181" lon="6.41475">
        <ele>455.8</ele>
        <time>2023-04-30T15:05:13Z</time>
      </trkpt>
      <trkpt lat="48.05181" lon="6.41468">
        <ele>456</ele>
        <time>2023-04-30T15:05:14Z</time>
      </trkpt>
      <trkpt lat="48.0518" lon="6.41461">
        <ele>456.3</ele>
        <time>2023-04-30T15:05:15Z</time>
      </trkpt>
      <trkpt lat="48.05179" lon="6.41453">
        <ele>456.5</ele>
        <time>2023-04-30T15:05:16Z</time>
      </trkpt>
      <trkpt lat="48.05178" lon="6.41446">
        <ele>456.8</ele>
        <time>2023-04-30T15:05:17Z</time>
      </trkpt>
      <trkpt lat="48.05177" lon="6.41438">
        <ele>457</ele>
        <time>2023-04-30T15:05:18Z</time>
      </trkpt>
      <trkpt lat="48.05176" lon="6.4143">
        <ele>457.3</ele>
        <time>2023-04-30T15:05:20Z</time>
      </trkpt>
      <trkpt lat="48.05174" lon="6.41421">
        <ele>457.5</ele>
        <time>2023-04-30T15:05:21Z</time>
      </trkpt>
      <trkpt lat="48.05171" lon="6.41411">
        <ele>457.8</ele>
        <time>2023-04-30T15:05:22Z</time>
      </trkpt>
      <trkpt lat="48.05169" lon="6.41405">
        <ele>458</ele>
        <time>2023-04-30T15:05:24Z</time>
      </trkpt>
      <trkpt lat="48.05166" lon="6.41397">
        <ele>458.2</ele>
        <time>2023-04-30T15:05:25Z</time>
      </trkpt>
      <trkpt lat="48.05163" lon="6.4139">
        <ele>458.4</ele>
        <time>2023-04-30T15:05:26Z</time>
      </trkpt>
      <trkpt lat="48.05159" lon="6.41383">
        <ele>458.7</ele>
        <time>2023-04-30T15:05:27Z</time>
      </trkpt>
      <trkpt lat="48.05156" lon="6.41378">
        <ele>458.9</ele>
        <time>2023-04-30T15:05:28Z</time>
      </trkpt>
      <trkpt lat="48.05153" lon="6.41371">
        <ele>459.2</ele>
        <time>2023-04-30T15:05:29Z</time>
      </trkpt>
      <trkpt lat="48.05149" lon="6.41365">
        <ele>459.4</ele>
        <time>2023-04-30T15:05:31Z</time>
      </trkpt>
      <trkpt lat="48.05146" lon="6.41359">
        <ele>459.7</ele>
        <time>2023-04-30T15:05:32Z</time>
      </trkpt>
      <trkpt lat="48.05143" lon="6.41355">
        <ele>459.9</ele>
        <time>2023-04-30T15:05:33Z</time>
      </trkpt>
      <trkpt lat="48.05139" lon="6.41351">
        <ele>460.1</ele>
        <time>2023-04-30T15:05:34Z</time>
      </trkpt>
      <trkpt lat="48.05131" lon="6.41343">
        <ele>460.6</ele>
        <time>2023-04-30T15:05:36Z</time>
      </trkpt>
      <trkpt lat="48.05127" lon="6.41339">
        <ele>460.8</ele>
        <time>2023-04-30T15:05:38Z</time>
      </trkpt>
      <trkpt lat="48.05123" lon="6.41336">
        <ele>461</ele>
        <time>2023-04-30T15:05:39Z</time>
      </trkpt>
      <trkpt lat="48.05118" lon="6.41333">
        <ele>461.3</ele>
        <time>2023-04-30T15:05:40Z</time>
      </trkpt>
      <trkpt lat="48.05114" lon="6.4133">
        <ele>461.5</ele>
        <time>2023-04-30T15:05:41Z</time>
      </trkpt>
      <trkpt lat="48.05105" lon="6.41325">
        <ele>462</ele>
        <time>2023-04-30T15:05:43Z</time>
      </trkpt>
      <trkpt lat="48.05101" lon="6.41323">
        <ele>462.2</ele>
        <time>2023-04-30T15:05:44Z</time>
      </trkpt>
      <trkpt lat="48.05097" lon="6.41321">
        <ele>462.4</ele>
        <time>2023-04-30T15:05:46Z</time>
      </trkpt>
      <trkpt lat="48.0509" lon="6.41316">
        <ele>462.8</ele>
        <time>2023-04-30T15:05:48Z</time>
      </trkpt>
      <trkpt lat="48.05086" lon="6.41313">
        <ele>463</ele>
        <time>2023-04-30T15:05:49Z</time>
      </trkpt>
      <trkpt lat="48.05082" lon="6.41311">
        <ele>463.2</ele>
        <time>2023-04-30T15:05:50Z</time>
      </trkpt>
      <trkpt lat="48.05077" lon="6.41309">
        <ele>463.5</ele>
        <time>2023-04-30T15:05:51Z</time>
      </trkpt>
      <trkpt lat="48.05073" lon="6.41306">
        <ele>463.8</ele>
        <time>2023-04-30T15:05:52Z</time>
      </trkpt>
      <trkpt lat="48.05068" lon="6.41303">
        <ele>463.8</ele>
        <time>2023-04-30T15:05:53Z</time>
      </trkpt>
      <trkpt lat="48.05064" lon="6.413">
        <ele>463.9</ele>
        <time>2023-04-30T15:05:54Z</time>
      </trkpt>
      <trkpt lat="48.05061" lon="6.41298">
        <ele>463.9</ele>
        <time>2023-04-30T15:05:56Z</time>
      </trkpt>
      <trkpt lat="48.05056" lon="6.41296">
        <ele>464</ele>
        <time>2023-04-30T15:05:57Z</time>
      </trkpt>
      <trkpt lat="48.05052" lon="6.41293">
        <ele>464.1</ele>
        <time>2023-04-30T15:05:58Z</time>
      </trkpt>
      <trkpt lat="48.05048" lon="6.4129">
        <ele>464.1</ele>
        <time>2023-04-30T15:05:59Z</time>
      </trkpt>
      <trkpt lat="48.05043" lon="6.41286">
        <ele>464.4</ele>
        <time>2023-04-30T15:06:00Z</time>
      </trkpt>
      <trkpt lat="48.05039" lon="6.41283">
        <ele>464.5</ele>
        <time>2023-04-30T15:06:02Z</time>
      </trkpt>
      <trkpt lat="48.05035" lon="6.4128">
        <ele>464.7</ele>
        <time>2023-04-30T15:06:03Z</time>
      </trkpt>
      <trkpt lat="48.05032" lon="6.41277">
        <ele>464.9</ele>
        <time>2023-04-30T15:06:04Z</time>
      </trkpt>
      <trkpt lat="48.05028" lon="6.41272">
        <ele>465.1</ele>
        <time>2023-04-30T15:06:05Z</time>
      </trkpt>
      <trkpt lat="48.05024" lon="6.41269">
        <ele>465.3</ele>
        <time>2023-04-30T15:06:06Z</time>
      </trkpt>
      <trkpt lat="48.05016" lon="6.4126">
        <ele>465.7</ele>
        <time>2023-04-30T15:06:08Z</time>
      </trkpt>
      <trkpt lat="48.05012" lon="6.41257">
        <ele>465.9</ele>
        <time>2023-04-30T15:06:10Z</time>
      </trkpt>
      <trkpt lat="48.05008" lon="6.41252">
        <ele>466.1</ele>
        <time>2023-04-30T15:06:11Z</time>
      </trkpt>
      <trkpt lat="48.05002" lon="6.41246">
        <ele>466.4</ele>
        <time>2023-04-30T15:06:12Z</time>
      </trkpt>
      <trkpt lat="48.04999" lon="6.41242">
        <ele>466.6</ele>
        <time>2023-04-30T15:06:14Z</time>
      </trkpt>
      <trkpt lat="48.04995" lon="6.41238">
        <ele>466.8</ele>
        <time>2023-04-30T15:06:15Z</time>
      </trkpt>
      <trkpt lat="48.04991" lon="6.41234">
        <ele>467</ele>
        <time>2023-04-30T15:06:16Z</time>
      </trkpt>
      <trkpt lat="48.04987" lon="6.4123">
        <ele>467.3</ele>
        <time>2023-04-30T15:06:17Z</time>
      </trkpt>
      <trkpt lat="48.04983" lon="6.41226">
        <ele>467.5</ele>
        <time>2023-04-30T15:06:18Z</time>
      </trkpt>
      <trkpt lat="48.04979" lon="6.41221">
        <ele>467.7</ele>
        <time>2023-04-30T15:06:20Z</time>
      </trkpt>
      <trkpt lat="48.04976" lon="6.41219">
        <ele>467.9</ele>
        <time>2023-04-30T15:06:21Z</time>
      </trkpt>
      <trkpt lat="48.04973" lon="6.41217">
        <ele>468</ele>
        <time>2023-04-30T15:06:22Z</time>
      </trkpt>
      <trkpt lat="48.04968" lon="6.41214">
        <ele>468.3</ele>
        <time>2023-04-30T15:06:23Z</time>
      </trkpt>
      <trkpt lat="48.04965" lon="6.41211">
        <ele>468.4</ele>
        <time>2023-04-30T15:06:24Z</time>
      </trkpt>
      <trkpt lat="48.04957" lon="6.41204">
        <ele>468.9</ele>
        <time>2023-04-30T15:06:26Z</time>
      </trkpt>
      <trkpt lat="48.04953" lon="6.41199">
        <ele>469.2</ele>
        <time>2023-04-30T15:06:28Z</time>
      </trkpt>
      <trkpt lat="48.04949" lon="6.41195">
        <ele>469.4</ele>
        <time>2023-04-30T15:06:29Z</time>
      </trkpt>
      <trkpt lat="48.04946" lon="6.4119">
        <ele>469.6</ele>
        <time>2023-04-30T15:06:30Z</time>
      </trkpt>
      <trkpt lat="48.04942" lon="6.41186">
        <ele>469.8</ele>
        <time>2023-04-30T15:06:31Z</time>
      </trkpt>
      <trkpt lat="48.04939" lon="6.41183">
        <ele>470</ele>
        <time>2023-04-30T15:06:32Z</time>
      </trkpt>
      <trkpt lat="48.04936" lon="6.4118">
        <ele>470.2</ele>
        <time>2023-04-30T15:06:33Z</time>
      </trkpt>
      <trkpt lat="48.04928" lon="6.41172">
        <ele>470.7</ele>
        <time>2023-04-30T15:06:35Z</time>
      </trkpt>
      <trkpt lat="48.04925" lon="6.41166">
        <ele>471</ele>
        <time>2023-04-30T15:06:37Z</time>
      </trkpt>
      <trkpt lat="48.04921" lon="6.4116">
        <ele>471.2</ele>
        <time>2023-04-30T15:06:38Z</time>
      </trkpt>
      <trkpt lat="48.04915" lon="6.41153">
        <ele>471.6</ele>
        <time>2023-04-30T15:06:39Z</time>
      </trkpt>
      <trkpt lat="48.04911" lon="6.41149">
        <ele>471.8</ele>
        <time>2023-04-30T15:06:41Z</time>
      </trkpt>
      <trkpt lat="48.04908" lon="6.41145">
        <ele>471.9</ele>
        <time>2023-04-30T15:06:42Z</time>
      </trkpt>
      <trkpt lat="48.04903" lon="6.4114">
        <ele>472.2</ele>
        <time>2023-04-30T15:06:43Z</time>
      </trkpt>
      <trkpt lat="48.04895" lon="6.41131">
        <ele>472.7</ele>
        <time>2023-04-30T15:06:46Z</time>
      </trkpt>
      <trkpt lat="48.04892" lon="6.41128">
        <ele>472.9</ele>
        <time>2023-04-30T15:06:47Z</time>
      </trkpt>
      <trkpt lat="48.04888" lon="6.41123">
        <ele>473.1</ele>
        <time>2023-04-30T15:06:48Z</time>
      </trkpt>
      <trkpt lat="48.04882" lon="6.41116">
        <ele>473.4</ele>
        <time>2023-04-30T15:06:49Z</time>
      </trkpt>
      <trkpt lat="48.04878" lon="6.41112">
        <ele>473.5</ele>
        <time>2023-04-30T15:06:50Z</time>
      </trkpt>
      <trkpt lat="48.04875" lon="6.41108">
        <ele>473.7</ele>
        <time>2023-04-30T15:06:52Z</time>
      </trkpt>
      <trkpt lat="48.04872" lon="6.41105">
        <ele>473.9</ele>
        <time>2023-04-30T15:06:53Z</time>
      </trkpt>
      <trkpt lat="48.04868" lon="6.411">
        <ele>474.1</ele>
        <time>2023-04-30T15:06:54Z</time>
      </trkpt>
      <trkpt lat="48.04863" lon="6.41094">
        <ele>474.4</ele>
        <time>2023-04-30T15:06:56Z</time>
      </trkpt>
      <trkpt lat="48.0486" lon="6.4109">
        <ele>474.5</ele>
        <time>2023-04-30T15:06:57Z</time>
      </trkpt>
      <trkpt lat="48.04856" lon="6.41085">
        <ele>474.8</ele>
        <time>2023-04-30T15:06:58Z</time>
      </trkpt>
      <trkpt lat="48.04852" lon="6.4108">
        <ele>475</ele>
        <time>2023-04-30T15:06:59Z</time>
      </trkpt>
      <trkpt lat="48.04848" lon="6.41075">
        <ele>475.2</ele>
        <time>2023-04-30T15:07:00Z</time>
      </trkpt>
      <trkpt lat="48.04845" lon="6.41071">
        <ele>475.3</ele>
        <time>2023-04-30T15:07:01Z</time>
      </trkpt>
      <trkpt lat="48.04841" lon="6.41066">
        <ele>475.5</ele>
        <time>2023-04-30T15:07:03Z</time>
      </trkpt>
      <trkpt lat="48.04838" lon="6.41062">
        <ele>475.7</ele>
        <time>2023-04-30T15:07:04Z</time>
      </trkpt>
      <trkpt lat="48.04832" lon="6.41054">
        <ele>476</ele>
        <time>2023-04-30T15:07:05Z</time>
      </trkpt>
      <trkpt lat="48.04829" lon="6.4105">
        <ele>476.2</ele>
        <time>2023-04-30T15:07:07Z</time>
      </trkpt>
      <trkpt lat="48.04826" lon="6.41045">
        <ele>476.4</ele>
        <time>2023-04-30T15:07:08Z</time>
      </trkpt>
      <trkpt lat="48.04822" lon="6.4104">
        <ele>476.6</ele>
        <time>2023-04-30T15:07:09Z</time>
      </trkpt>
      <trkpt lat="48.04819" lon="6.41036">
        <ele>476.8</ele>
        <time>2023-04-30T15:07:10Z</time>
      </trkpt>
      <trkpt lat="48.04815" lon="6.4103">
        <ele>477</ele>
        <time>2023-04-30T15:07:11Z</time>
      </trkpt>
      <trkpt lat="48.04812" lon="6.41025">
        <ele>477.2</ele>
        <time>2023-04-30T15:07:13Z</time>
      </trkpt>
      <trkpt lat="48.04809" lon="6.41021">
        <ele>477.4</ele>
        <time>2023-04-30T15:07:14Z</time>
      </trkpt>
      <trkpt lat="48.04805" lon="6.41015">
        <ele>477.6</ele>
        <time>2023-04-30T15:07:15Z</time>
      </trkpt>
      <trkpt lat="48.04802" lon="6.41009">
        <ele>477.8</ele>
        <time>2023-04-30T15:07:16Z</time>
      </trkpt>
      <trkpt lat="48.04798" lon="6.41003">
        <ele>478</ele>
        <time>2023-04-30T15:07:17Z</time>
      </trkpt>
      <trkpt lat="48.04795" lon="6.40997">
        <ele>478.2</ele>
        <time>2023-04-30T15:07:18Z</time>
      </trkpt>
      <trkpt lat="48.04792" lon="6.40992">
        <ele>478.4</ele>
        <time>2023-04-30T15:07:19Z</time>
      </trkpt>
      <trkpt lat="48.0479" lon="6.40988">
        <ele>478.6</ele>
        <time>2023-04-30T15:07:21Z</time>
      </trkpt>
      <trkpt lat="48.04787" lon="6.40982">
        <ele>478.8</ele>
        <time>2023-04-30T15:07:22Z</time>
      </trkpt>
      <trkpt lat="48.04784" lon="6.40975">
        <ele>479</ele>
        <time>2023-04-30T15:07:23Z</time>
      </trkpt>
      <trkpt lat="48.04781" lon="6.4097">
        <ele>479.2</ele>
        <time>2023-04-30T15:07:24Z</time>
      </trkpt>
      <trkpt lat="48.04778" lon="6.40959">
        <ele>479.6</ele>
        <time>2023-04-30T15:07:26Z</time>
      </trkpt>
      <trkpt lat="48.04776" lon="6.40952">
        <ele>479.8</ele>
        <time>2023-04-30T15:07:28Z</time>
      </trkpt>
      <trkpt lat="48.04774" lon="6.40946">
        <ele>480</ele>
        <time>2023-04-30T15:07:29Z</time>
      </trkpt>
      <trkpt lat="48.04772" lon="6.40942">
        <ele>480.2</ele>
        <time>2023-04-30T15:07:30Z</time>
      </trkpt>
      <trkpt lat="48.0477" lon="6.40935">
        <ele>480.4</ele>
        <time>2023-04-30T15:07:31Z</time>
      </trkpt>
      <trkpt lat="48.04767" lon="6.40927">
        <ele>480.7</ele>
        <time>2023-04-30T15:07:33Z</time>
      </trkpt>
      <trkpt lat="48.04765" lon="6.40921">
        <ele>480.9</ele>
        <time>2023-04-30T15:07:34Z</time>
      </trkpt>
      <trkpt lat="48.04763" lon="6.40914">
        <ele>481.2</ele>
        <time>2023-04-30T15:07:35Z</time>
      </trkpt>
      <trkpt lat="48.04761" lon="6.40909">
        <ele>481.3</ele>
        <time>2023-04-30T15:07:36Z</time>
      </trkpt>
      <trkpt lat="48.04757" lon="6.40899">
        <ele>481.7</ele>
        <time>2023-04-30T15:07:38Z</time>
      </trkpt>
      <trkpt lat="48.04755" lon="6.40894">
        <ele>481.9</ele>
        <time>2023-04-30T15:07:40Z</time>
      </trkpt>
      <trkpt lat="48.04752" lon="6.40889">
        <ele>482.1</ele>
        <time>2023-04-30T15:07:41Z</time>
      </trkpt>
      <trkpt lat="48.0475" lon="6.40883">
        <ele>482.3</ele>
        <time>2023-04-30T15:07:42Z</time>
      </trkpt>
      <trkpt lat="48.04746" lon="6.40877">
        <ele>482.6</ele>
        <time>2023-04-30T15:07:43Z</time>
      </trkpt>
      <trkpt lat="48.04744" lon="6.40872">
        <ele>482.8</ele>
        <time>2023-04-30T15:07:44Z</time>
      </trkpt>
      <trkpt lat="48.04741" lon="6.40866">
        <ele>483</ele>
        <time>2023-04-30T15:07:45Z</time>
      </trkpt>
      <trkpt lat="48.04739" lon="6.40861">
        <ele>483.3</ele>
        <time>2023-04-30T15:07:46Z</time>
      </trkpt>
      <trkpt lat="48.04736" lon="6.40855">
        <ele>483.5</ele>
        <time>2023-04-30T15:07:48Z</time>
      </trkpt>
      <trkpt lat="48.04733" lon="6.4085">
        <ele>483.7</ele>
        <time>2023-04-30T15:07:49Z</time>
      </trkpt>
      <trkpt lat="48.04731" lon="6.40844">
        <ele>483.9</ele>
        <time>2023-04-30T15:07:50Z</time>
      </trkpt>
      <trkpt lat="48.04728" lon="6.40837">
        <ele>484.2</ele>
        <time>2023-04-30T15:07:51Z</time>
      </trkpt>
      <trkpt lat="48.04726" lon="6.40832">
        <ele>484.4</ele>
        <time>2023-04-30T15:07:52Z</time>
      </trkpt>
      <trkpt lat="48.04724" lon="6.40827">
        <ele>484.6</ele>
        <time>2023-04-30T15:07:54Z</time>
      </trkpt>
      <trkpt lat="48.0472" lon="6.40817">
        <ele>485</ele>
        <time>2023-04-30T15:07:55Z</time>
      </trkpt>
      <trkpt lat="48.04718" lon="6.40813">
        <ele>485.2</ele>
        <time>2023-04-30T15:07:57Z</time>
      </trkpt>
      <trkpt lat="48.04715" lon="6.40808">
        <ele>485.5</ele>
        <time>2023-04-30T15:07:58Z</time>
      </trkpt>
      <trkpt lat="48.04713" lon="6.40803">
        <ele>485.7</ele>
        <time>2023-04-30T15:07:59Z</time>
      </trkpt>
      <trkpt lat="48.0471" lon="6.40798">
        <ele>485.9</ele>
        <time>2023-04-30T15:08:00Z</time>
      </trkpt>
      <trkpt lat="48.04708" lon="6.40792">
        <ele>486.2</ele>
        <time>2023-04-30T15:08:01Z</time>
      </trkpt>
      <trkpt lat="48.04707" lon="6.40787">
        <ele>486.4</ele>
        <time>2023-04-30T15:08:03Z</time>
      </trkpt>
      <trkpt lat="48.04705" lon="6.40782">
        <ele>486.6</ele>
        <time>2023-04-30T15:08:04Z</time>
      </trkpt>
      <trkpt lat="48.04703" lon="6.40775">
        <ele>487</ele>
        <time>2023-04-30T15:08:05Z</time>
      </trkpt>
      <trkpt lat="48.04701" lon="6.40769">
        <ele>487.3</ele>
        <time>2023-04-30T15:08:06Z</time>
      </trkpt>
      <trkpt lat="48.04699" lon="6.40765">
        <ele>487.5</ele>
        <time>2023-04-30T15:08:07Z</time>
      </trkpt>
      <trkpt lat="48.04697" lon="6.4076">
        <ele>487.7</ele>
        <time>2023-04-30T15:08:08Z</time>
      </trkpt>
      <trkpt lat="48.04695" lon="6.40754">
        <ele>488</ele>
        <time>2023-04-30T15:08:09Z</time>
      </trkpt>
      <trkpt lat="48.04693" lon="6.40749">
        <ele>488.2</ele>
        <time>2023-04-30T15:08:10Z</time>
      </trkpt>
      <trkpt lat="48.04691" lon="6.40745">
        <ele>488.4</ele>
        <time>2023-04-30T15:08:11Z</time>
      </trkpt>
      <trkpt lat="48.04689" lon="6.4074">
        <ele>488.7</ele>
        <time>2023-04-30T15:08:13Z</time>
      </trkpt>
      <trkpt lat="48.04687" lon="6.40734">
        <ele>488.9</ele>
        <time>2023-04-30T15:08:14Z</time>
      </trkpt>
      <trkpt lat="48.04685" lon="6.40729">
        <ele>489.2</ele>
        <time>2023-04-30T15:08:15Z</time>
      </trkpt>
      <trkpt lat="48.04683" lon="6.40723">
        <ele>489.4</ele>
        <time>2023-04-30T15:08:16Z</time>
      </trkpt>
      <trkpt lat="48.04681" lon="6.40719">
        <ele>489.6</ele>
        <time>2023-04-30T15:08:17Z</time>
      </trkpt>
      <trkpt lat="48.04679" lon="6.40714">
        <ele>489.9</ele>
        <time>2023-04-30T15:08:19Z</time>
      </trkpt>
      <trkpt lat="48.04677" lon="6.40709">
        <ele>490.1</ele>
        <time>2023-04-30T15:08:20Z</time>
      </trkpt>
      <trkpt lat="48.04673" lon="6.40699">
        <ele>490.6</ele>
        <time>2023-04-30T15:08:22Z</time>
      </trkpt>
      <trkpt lat="48.04672" lon="6.40694">
        <ele>490.8</ele>
        <time>2023-04-30T15:08:23Z</time>
      </trkpt>
      <trkpt lat="48.0467" lon="6.40689">
        <ele>491</ele>
        <time>2023-04-30T15:08:24Z</time>
      </trkpt>
      <trkpt lat="48.04667" lon="6.40682">
        <ele>491.3</ele>
        <time>2023-04-30T15:08:25Z</time>
      </trkpt>
      <trkpt lat="48.04665" lon="6.40676">
        <ele>491.5</ele>
        <time>2023-04-30T15:08:27Z</time>
      </trkpt>
      <trkpt lat="48.04663" lon="6.40671">
        <ele>491.5</ele>
        <time>2023-04-30T15:08:28Z</time>
      </trkpt>
      <trkpt lat="48.04661" lon="6.40663">
        <ele>491.7</ele>
        <time>2023-04-30T15:08:30Z</time>
      </trkpt>
      <trkpt lat="48.04661" lon="6.40657">
        <ele>491.8</ele>
        <time>2023-04-30T15:08:31Z</time>
      </trkpt>
      <trkpt lat="48.0466" lon="6.40652">
        <ele>491.8</ele>
        <time>2023-04-30T15:08:32Z</time>
      </trkpt>
      <trkpt lat="48.04659" lon="6.40646">
        <ele>491.9</ele>
        <time>2023-04-30T15:08:33Z</time>
      </trkpt>
      <trkpt lat="48.04657" lon="6.40639">
        <ele>492</ele>
        <time>2023-04-30T15:08:35Z</time>
      </trkpt>
      <trkpt lat="48.04654" lon="6.40632">
        <ele>492.2</ele>
        <time>2023-04-30T15:08:36Z</time>
      </trkpt>
      <trkpt lat="48.04651" lon="6.40629">
        <ele>492.2</ele>
        <time>2023-04-30T15:08:38Z</time>
      </trkpt>
      <trkpt lat="48.04646" lon="6.40629">
        <ele>492.3</ele>
        <time>2023-04-30T15:08:39Z</time>
      </trkpt>
      <trkpt lat="48.04641" lon="6.40628">
        <ele>492.6</ele>
        <time>2023-04-30T15:08:40Z</time>
      </trkpt>
      <trkpt lat="48.04636" lon="6.40626">
        <ele>492.7</ele>
        <time>2023-04-30T15:08:42Z</time>
      </trkpt>
      <trkpt lat="48.04631" lon="6.40622">
        <ele>492.8</ele>
        <time>2023-04-30T15:08:43Z</time>
      </trkpt>
      <trkpt lat="48.04627" lon="6.40619">
        <ele>492.9</ele>
        <time>2023-04-30T15:08:45Z</time>
      </trkpt>
      <trkpt lat="48.04622" lon="6.40617">
        <ele>493.1</ele>
        <time>2023-04-30T15:08:46Z</time>
      </trkpt>
      <trkpt lat="48.04618" lon="6.40615">
        <ele>493.2</ele>
        <time>2023-04-30T15:08:47Z</time>
      </trkpt>
      <trkpt lat="48.04612" lon="6.40614">
        <ele>493.3</ele>
        <time>2023-04-30T15:08:49Z</time>
      </trkpt>
      <trkpt lat="48.04605" lon="6.40611">
        <ele>493.4</ele>
        <time>2023-04-30T15:08:50Z</time>
      </trkpt>
      <trkpt lat="48.04602" lon="6.4061">
        <ele>493.5</ele>
        <time>2023-04-30T15:08:52Z</time>
      </trkpt>
      <trkpt lat="48.04597" lon="6.40608">
        <ele>493.6</ele>
        <time>2023-04-30T15:08:53Z</time>
      </trkpt>
      <trkpt lat="48.04593" lon="6.40606">
        <ele>493.6</ele>
        <time>2023-04-30T15:08:54Z</time>
      </trkpt>
      <trkpt lat="48.04586" lon="6.40604">
        <ele>493.6</ele>
        <time>2023-04-30T15:08:56Z</time>
      </trkpt>
      <trkpt lat="48.04582" lon="6.40602">
        <ele>493.6</ele>
        <time>2023-04-30T15:08:57Z</time>
      </trkpt>
      <trkpt lat="48.04578" lon="6.406">
        <ele>493.6</ele>
        <time>2023-04-30T15:08:58Z</time>
      </trkpt>
      <trkpt lat="48.04572" lon="6.40599">
        <ele>493.5</ele>
        <time>2023-04-30T15:09:00Z</time>
      </trkpt>
      <trkpt lat="48.04569" lon="6.40598">
        <ele>493.5</ele>
        <time>2023-04-30T15:09:01Z</time>
      </trkpt>
      <trkpt lat="48.04566" lon="6.40597">
        <ele>493.4</ele>
        <time>2023-04-30T15:09:03Z</time>
      </trkpt>
      <trkpt lat="48.04562" lon="6.40595">
        <ele>493.4</ele>
        <time>2023-04-30T15:09:04Z</time>
      </trkpt>
      <trkpt lat="48.04557" lon="6.40593">
        <ele>493.3</ele>
        <time>2023-04-30T15:09:05Z</time>
      </trkpt>
      <trkpt lat="48.04551" lon="6.40592">
        <ele>493.2</ele>
        <time>2023-04-30T15:09:07Z</time>
      </trkpt>
      <trkpt lat="48.04547" lon="6.4059">
        <ele>493.1</ele>
        <time>2023-04-30T15:09:08Z</time>
      </trkpt>
      <trkpt lat="48.04543" lon="6.40589">
        <ele>493</ele>
        <time>2023-04-30T15:09:09Z</time>
      </trkpt>
      <trkpt lat="48.04537" lon="6.40584">
        <ele>492.2</ele>
        <time>2023-04-30T15:09:10Z</time>
      </trkpt>
      <trkpt lat="48.04532" lon="6.40578">
        <ele>491.8</ele>
        <time>2023-04-30T15:09:11Z</time>
      </trkpt>
      <trkpt lat="48.0453" lon="6.4057">
        <ele>491.3</ele>
        <time>2023-04-30T15:09:12Z</time>
      </trkpt>
      <trkpt lat="48.04528" lon="6.40562">
        <ele>490.9</ele>
        <time>2023-04-30T15:09:13Z</time>
      </trkpt>
      <trkpt lat="48.04526" lon="6.40552">
        <ele>490.1</ele>
        <time>2023-04-30T15:09:14Z</time>
      </trkpt>
      <trkpt lat="48.04524" lon="6.40541">
        <ele>489.1</ele>
        <time>2023-04-30T15:09:15Z</time>
      </trkpt>
      <trkpt lat="48.04522" lon="6.40529">
        <ele>488.2</ele>
        <time>2023-04-30T15:09:16Z</time>
      </trkpt>
      <trkpt lat="48.0452" lon="6.40517">
        <ele>487.2</ele>
        <time>2023-04-30T15:09:17Z</time>
      </trkpt>
      <trkpt lat="48.04517" lon="6.40505">
        <ele>486.1</ele>
        <time>2023-04-30T15:09:18Z</time>
      </trkpt>
      <trkpt lat="48.04515" lon="6.40491">
        <ele>485.1</ele>
        <time>2023-04-30T15:09:19Z</time>
      </trkpt>
      <trkpt lat="48.04512" lon="6.40477">
        <ele>483.9</ele>
        <time>2023-04-30T15:09:20Z</time>
      </trkpt>
      <trkpt lat="48.0451" lon="6.40462">
        <ele>482.8</ele>
        <time>2023-04-30T15:09:21Z</time>
      </trkpt>
      <trkpt lat="48.04508" lon="6.40447">
        <ele>481.7</ele>
        <time>2023-04-30T15:09:22Z</time>
      </trkpt>
      <trkpt lat="48.04505" lon="6.40433">
        <ele>480.9</ele>
        <time>2023-04-30T15:09:23Z</time>
      </trkpt>
      <trkpt lat="48.04503" lon="6.40418">
        <ele>480.2</ele>
        <time>2023-04-30T15:09:24Z</time>
      </trkpt>
      <trkpt lat="48.045" lon="6.40403">
        <ele>479.5</ele>
        <time>2023-04-30T15:09:25Z</time>
      </trkpt>
      <trkpt lat="48.04497" lon="6.40388">
        <ele>478.9</ele>
        <time>2023-04-30T15:09:26Z</time>
      </trkpt>
      <trkpt lat="48.04495" lon="6.40374">
        <ele>478.5</ele>
        <time>2023-04-30T15:09:27Z</time>
      </trkpt>
      <trkpt lat="48.04493" lon="6.40359">
        <ele>478.1</ele>
        <time>2023-04-30T15:09:28Z</time>
      </trkpt>
      <trkpt lat="48.04492" lon="6.40343">
        <ele>477.8</ele>
        <time>2023-04-30T15:09:29Z</time>
      </trkpt>
      <trkpt lat="48.0449" lon="6.40328">
        <ele>477.7</ele>
        <time>2023-04-30T15:09:30Z</time>
      </trkpt>
      <trkpt lat="48.04488" lon="6.40314">
        <ele>477.6</ele>
        <time>2023-04-30T15:09:31Z</time>
      </trkpt>
      <trkpt lat="48.04485" lon="6.40299">
        <ele>477.6</ele>
        <time>2023-04-30T15:09:32Z</time>
      </trkpt>
      <trkpt lat="48.04484" lon="6.40287">
        <ele>477.6</ele>
        <time>2023-04-30T15:09:33Z</time>
      </trkpt>
      <trkpt lat="48.04483" lon="6.40276">
        <ele>477.7</ele>
        <time>2023-04-30T15:09:34Z</time>
      </trkpt>
      <trkpt lat="48.04484" lon="6.40267">
        <ele>477.7</ele>
        <time>2023-04-30T15:09:35Z</time>
      </trkpt>
      <trkpt lat="48.04487" lon="6.40259">
        <ele>477.7</ele>
        <time>2023-04-30T15:09:36Z</time>
      </trkpt>
      <trkpt lat="48.04491" lon="6.40252">
        <ele>477.6</ele>
        <time>2023-04-30T15:09:37Z</time>
      </trkpt>
      <trkpt lat="48.04495" lon="6.40246">
        <ele>477.4</ele>
        <time>2023-04-30T15:09:38Z</time>
      </trkpt>
      <trkpt lat="48.04497" lon="6.40238">
        <ele>477.2</ele>
        <time>2023-04-30T15:09:39Z</time>
      </trkpt>
      <trkpt lat="48.04496" lon="6.4023">
        <ele>477.1</ele>
        <time>2023-04-30T15:09:40Z</time>
      </trkpt>
      <trkpt lat="48.04494" lon="6.40222">
        <ele>477.1</ele>
        <time>2023-04-30T15:09:41Z</time>
      </trkpt>
      <trkpt lat="48.0449" lon="6.40216">
        <ele>477.5</ele>
        <time>2023-04-30T15:09:42Z</time>
      </trkpt>
      <trkpt lat="48.04487" lon="6.40208">
        <ele>477.7</ele>
        <time>2023-04-30T15:09:43Z</time>
      </trkpt>
      <trkpt lat="48.04484" lon="6.40202">
        <ele>478.1</ele>
        <time>2023-04-30T15:09:44Z</time>
      </trkpt>
      <trkpt lat="48.04481" lon="6.40195">
        <ele>478.4</ele>
        <time>2023-04-30T15:09:45Z</time>
      </trkpt>
      <trkpt lat="48.04479" lon="6.40189">
        <ele>478.7</ele>
        <time>2023-04-30T15:09:46Z</time>
      </trkpt>
      <trkpt lat="48.04477" lon="6.40183">
        <ele>479</ele>
        <time>2023-04-30T15:09:47Z</time>
      </trkpt>
      <trkpt lat="48.04476" lon="6.40179">
        <ele>479.2</ele>
        <time>2023-04-30T15:09:48Z</time>
      </trkpt>
      <trkpt lat="48.04474" lon="6.40174">
        <ele>479.5</ele>
        <time>2023-04-30T15:09:49Z</time>
      </trkpt>
      <trkpt lat="48.04472" lon="6.40169">
        <ele>479.7</ele>
        <time>2023-04-30T15:09:50Z</time>
      </trkpt>
      <trkpt lat="48.04469" lon="6.40164">
        <ele>480</ele>
        <time>2023-04-30T15:09:51Z</time>
      </trkpt>
      <trkpt lat="48.04465" lon="6.4016">
        <ele>480.3</ele>
        <time>2023-04-30T15:09:52Z</time>
      </trkpt>
      <trkpt lat="48.04462" lon="6.40157">
        <ele>480.6</ele>
        <time>2023-04-30T15:09:53Z</time>
      </trkpt>
      <trkpt lat="48.04458" lon="6.40155">
        <ele>480.9</ele>
        <time>2023-04-30T15:09:54Z</time>
      </trkpt>
      <trkpt lat="48.04454" lon="6.40155">
        <ele>481.2</ele>
        <time>2023-04-30T15:09:55Z</time>
      </trkpt>
      <trkpt lat="48.04446" lon="6.4015">
        <ele>481.8</ele>
        <time>2023-04-30T15:09:57Z</time>
      </trkpt>
      <trkpt lat="48.04441" lon="6.40147">
        <ele>482.1</ele>
        <time>2023-04-30T15:09:58Z</time>
      </trkpt>
      <trkpt lat="48.04438" lon="6.40145">
        <ele>482.3</ele>
        <time>2023-04-30T15:09:59Z</time>
      </trkpt>
      <trkpt lat="48.04433" lon="6.40143">
        <ele>482.7</ele>
        <time>2023-04-30T15:10:00Z</time>
      </trkpt>
      <trkpt lat="48.04425" lon="6.4014">
        <ele>483.3</ele>
        <time>2023-04-30T15:10:02Z</time>
      </trkpt>
      <trkpt lat="48.0442" lon="6.40137">
        <ele>483.6</ele>
        <time>2023-04-30T15:10:04Z</time>
      </trkpt>
      <trkpt lat="48.04414" lon="6.40134">
        <ele>484.1</ele>
        <time>2023-04-30T15:10:06Z</time>
      </trkpt>
      <trkpt lat="48.0441" lon="6.40132">
        <ele>484.4</ele>
        <time>2023-04-30T15:10:07Z</time>
      </trkpt>
      <trkpt lat="48.04406" lon="6.40131">
        <ele>484.6</ele>
        <time>2023-04-30T15:10:08Z</time>
      </trkpt>
      <trkpt lat="48.04399" lon="6.40128">
        <ele>484.9</ele>
        <time>2023-04-30T15:10:10Z</time>
      </trkpt>
      <trkpt lat="48.04396" lon="6.40125">
        <ele>485.1</ele>
        <time>2023-04-30T15:10:11Z</time>
      </trkpt>
      <trkpt lat="48.04393" lon="6.4012">
        <ele>485.3</ele>
        <time>2023-04-30T15:10:12Z</time>
      </trkpt>
      <trkpt lat="48.04389" lon="6.40116">
        <ele>485.5</ele>
        <time>2023-04-30T15:10:13Z</time>
      </trkpt>
      <trkpt lat="48.04386" lon="6.40113">
        <ele>485.6</ele>
        <time>2023-04-30T15:10:14Z</time>
      </trkpt>
      <trkpt lat="48.04383" lon="6.4011">
        <ele>485.8</ele>
        <time>2023-04-30T15:10:15Z</time>
      </trkpt>
      <trkpt lat="48.0438" lon="6.40106">
        <ele>485.9</ele>
        <time>2023-04-30T15:10:16Z</time>
      </trkpt>
      <trkpt lat="48.04376" lon="6.40099">
        <ele>486.2</ele>
        <time>2023-04-30T15:10:18Z</time>
      </trkpt>
      <trkpt lat="48.04373" lon="6.40094">
        <ele>486.3</ele>
        <time>2023-04-30T15:10:20Z</time>
      </trkpt>
      <trkpt lat="48.04369" lon="6.40087">
        <ele>486.5</ele>
        <time>2023-04-30T15:10:22Z</time>
      </trkpt>
      <trkpt lat="48.04366" lon="6.4008">
        <ele>486.6</ele>
        <time>2023-04-30T15:10:23Z</time>
      </trkpt>
      <trkpt lat="48.04363" lon="6.40074">
        <ele>486.7</ele>
        <time>2023-04-30T15:10:24Z</time>
      </trkpt>
      <trkpt lat="48.04359" lon="6.40067">
        <ele>486.8</ele>
        <time>2023-04-30T15:10:25Z</time>
      </trkpt>
      <trkpt lat="48.04355" lon="6.4006">
        <ele>486.9</ele>
        <time>2023-04-30T15:10:26Z</time>
      </trkpt>
      <trkpt lat="48.0435" lon="6.40051">
        <ele>487.1</ele>
        <time>2023-04-30T15:10:28Z</time>
      </trkpt>
      <trkpt lat="48.04347" lon="6.40044">
        <ele>487.1</ele>
        <time>2023-04-30T15:10:30Z</time>
      </trkpt>
      <trkpt lat="48.04345" lon="6.40039">
        <ele>487.2</ele>
        <time>2023-04-30T15:10:31Z</time>
      </trkpt>
      <trkpt lat="48.04342" lon="6.40033">
        <ele>487.2</ele>
        <time>2023-04-30T15:10:32Z</time>
      </trkpt>
      <trkpt lat="48.04339" lon="6.40028">
        <ele>487.3</ele>
        <time>2023-04-30T15:10:33Z</time>
      </trkpt>
      <trkpt lat="48.04337" lon="6.40023">
        <ele>487.3</ele>
        <time>2023-04-30T15:10:34Z</time>
      </trkpt>
      <trkpt lat="48.04332" lon="6.40014">
        <ele>487.4</ele>
        <time>2023-04-30T15:10:36Z</time>
      </trkpt>
      <trkpt lat="48.04329" lon="6.40008">
        <ele>487.4</ele>
        <time>2023-04-30T15:10:38Z</time>
      </trkpt>
      <trkpt lat="48.04326" lon="6.40002">
        <ele>487.5</ele>
        <time>2023-04-30T15:10:39Z</time>
      </trkpt>
      <trkpt lat="48.04323" lon="6.39995">
        <ele>487.5</ele>
        <time>2023-04-30T15:10:40Z</time>
      </trkpt>
      <trkpt lat="48.0432" lon="6.39988">
        <ele>487.6</ele>
        <time>2023-04-30T15:10:41Z</time>
      </trkpt>
      <trkpt lat="48.04317" lon="6.39981">
        <ele>487.6</ele>
        <time>2023-04-30T15:10:43Z</time>
      </trkpt>
      <trkpt lat="48.04315" lon="6.39974">
        <ele>487.7</ele>
        <time>2023-04-30T15:10:44Z</time>
      </trkpt>
      <trkpt lat="48.04313" lon="6.39968">
        <ele>487.7</ele>
        <time>2023-04-30T15:10:45Z</time>
      </trkpt>
      <trkpt lat="48.0431" lon="6.39962">
        <ele>487.8</ele>
        <time>2023-04-30T15:10:46Z</time>
      </trkpt>
      <trkpt lat="48.04308" lon="6.39959">
        <ele>487.8</ele>
        <time>2023-04-30T15:10:47Z</time>
      </trkpt>
      <trkpt lat="48.04305" lon="6.39951">
        <ele>487.9</ele>
        <time>2023-04-30T15:10:48Z</time>
      </trkpt>
      <trkpt lat="48.04301" lon="6.39941">
        <ele>488</ele>
        <time>2023-04-30T15:10:49Z</time>
      </trkpt>
      <trkpt lat="48.04299" lon="6.39934">
        <ele>488.1</ele>
        <time>2023-04-30T15:10:50Z</time>
      </trkpt>
      <trkpt lat="48.04295" lon="6.39926">
        <ele>488.2</ele>
        <time>2023-04-30T15:10:52Z</time>
      </trkpt>
      <trkpt lat="48.04291" lon="6.39916">
        <ele>488.3</ele>
        <time>2023-04-30T15:10:53Z</time>
      </trkpt>
      <trkpt lat="48.04285" lon="6.39904">
        <ele>488.4</ele>
        <time>2023-04-30T15:10:55Z</time>
      </trkpt>
      <trkpt lat="48.04283" lon="6.39897">
        <ele>488.5</ele>
        <time>2023-04-30T15:10:57Z</time>
      </trkpt>
      <trkpt lat="48.0428" lon="6.39889">
        <ele>488.6</ele>
        <time>2023-04-30T15:10:58Z</time>
      </trkpt>
      <trkpt lat="48.04277" lon="6.39882">
        <ele>488.7</ele>
        <time>2023-04-30T15:11:00Z</time>
      </trkpt>
      <trkpt lat="48.04275" lon="6.39875">
        <ele>488.7</ele>
        <time>2023-04-30T15:11:01Z</time>
      </trkpt>
      <trkpt lat="48.04272" lon="6.39869">
        <ele>488.9</ele>
        <time>2023-04-30T15:11:02Z</time>
      </trkpt>
      <trkpt lat="48.0427" lon="6.39863">
        <ele>489.1</ele>
        <time>2023-04-30T15:11:03Z</time>
      </trkpt>
      <trkpt lat="48.04268" lon="6.39858">
        <ele>489.2</ele>
        <time>2023-04-30T15:11:04Z</time>
      </trkpt>
      <trkpt lat="48.04263" lon="6.39847">
        <ele>489.5</ele>
        <time>2023-04-30T15:11:06Z</time>
      </trkpt>
      <trkpt lat="48.04261" lon="6.39841">
        <ele>489.7</ele>
        <time>2023-04-30T15:11:07Z</time>
      </trkpt>
      <trkpt lat="48.04259" lon="6.39836">
        <ele>489.9</ele>
        <time>2023-04-30T15:11:09Z</time>
      </trkpt>
      <trkpt lat="48.04257" lon="6.39831">
        <ele>490</ele>
        <time>2023-04-30T15:11:10Z</time>
      </trkpt>
      <trkpt lat="48.04255" lon="6.39824">
        <ele>490.2</ele>
        <time>2023-04-30T15:11:11Z</time>
      </trkpt>
      <trkpt lat="48.04251" lon="6.39815">
        <ele>490.6</ele>
        <time>2023-04-30T15:11:12Z</time>
      </trkpt>
      <trkpt lat="48.04249" lon="6.39809">
        <ele>490.8</ele>
        <time>2023-04-30T15:11:14Z</time>
      </trkpt>
      <trkpt lat="48.04246" lon="6.39804">
        <ele>491.1</ele>
        <time>2023-04-30T15:11:15Z</time>
      </trkpt>
      <trkpt lat="48.04244" lon="6.39799">
        <ele>491.2</ele>
        <time>2023-04-30T15:11:16Z</time>
      </trkpt>
      <trkpt lat="48.04242" lon="6.39794">
        <ele>491.5</ele>
        <time>2023-04-30T15:11:17Z</time>
      </trkpt>
      <trkpt lat="48.04241" lon="6.3979">
        <ele>491.7</ele>
        <time>2023-04-30T15:11:18Z</time>
      </trkpt>
      <trkpt lat="48.04238" lon="6.39784">
        <ele>491.9</ele>
        <time>2023-04-30T15:11:20Z</time>
      </trkpt>
      <trkpt lat="48.04236" lon="6.3978">
        <ele>492.1</ele>
        <time>2023-04-30T15:11:21Z</time>
      </trkpt>
      <trkpt lat="48.04234" lon="6.39776">
        <ele>492.3</ele>
        <time>2023-04-30T15:11:22Z</time>
      </trkpt>
      <trkpt lat="48.04232" lon="6.39771">
        <ele>492.6</ele>
        <time>2023-04-30T15:11:23Z</time>
      </trkpt>
      <trkpt lat="48.04231" lon="6.39766">
        <ele>492.8</ele>
        <time>2023-04-30T15:11:24Z</time>
      </trkpt>
      <trkpt lat="48.04229" lon="6.39761">
        <ele>493</ele>
        <time>2023-04-30T15:11:25Z</time>
      </trkpt>
      <trkpt lat="48.04227" lon="6.39755">
        <ele>493.2</ele>
        <time>2023-04-30T15:11:26Z</time>
      </trkpt>
      <trkpt lat="48.04225" lon="6.39751">
        <ele>493.3</ele>
        <time>2023-04-30T15:11:27Z</time>
      </trkpt>
      <trkpt lat="48.04223" lon="6.39746">
        <ele>493.5</ele>
        <time>2023-04-30T15:11:28Z</time>
      </trkpt>
      <trkpt lat="48.04221" lon="6.39741">
        <ele>493.7</ele>
        <time>2023-04-30T15:11:30Z</time>
      </trkpt>
      <trkpt lat="48.04219" lon="6.39735">
        <ele>493.9</ele>
        <time>2023-04-30T15:11:31Z</time>
      </trkpt>
      <trkpt lat="48.04217" lon="6.39731">
        <ele>494.1</ele>
        <time>2023-04-30T15:11:32Z</time>
      </trkpt>
      <trkpt lat="48.04215" lon="6.39725">
        <ele>494.3</ele>
        <time>2023-04-30T15:11:33Z</time>
      </trkpt>
      <trkpt lat="48.04213" lon="6.3972">
        <ele>494.5</ele>
        <time>2023-04-30T15:11:34Z</time>
      </trkpt>
      <trkpt lat="48.04211" lon="6.39715">
        <ele>494.7</ele>
        <time>2023-04-30T15:11:35Z</time>
      </trkpt>
      <trkpt lat="48.04209" lon="6.39711">
        <ele>494.8</ele>
        <time>2023-04-30T15:11:36Z</time>
      </trkpt>
      <trkpt lat="48.04207" lon="6.39705">
        <ele>495</ele>
        <time>2023-04-30T15:11:38Z</time>
      </trkpt>
      <trkpt lat="48.04206" lon="6.39701">
        <ele>495.2</ele>
        <time>2023-04-30T15:11:39Z</time>
      </trkpt>
      <trkpt lat="48.04204" lon="6.39693">
        <ele>495.5</ele>
        <time>2023-04-30T15:11:40Z</time>
      </trkpt>
      <trkpt lat="48.04202" lon="6.39687">
        <ele>495.8</ele>
        <time>2023-04-30T15:11:42Z</time>
      </trkpt>
      <trkpt lat="48.04201" lon="6.39682">
        <ele>496.1</ele>
        <time>2023-04-30T15:11:43Z</time>
      </trkpt>
      <trkpt lat="48.04199" lon="6.39675">
        <ele>496.3</ele>
        <time>2023-04-30T15:11:44Z</time>
      </trkpt>
      <trkpt lat="48.04198" lon="6.39669">
        <ele>496.6</ele>
        <time>2023-04-30T15:11:45Z</time>
      </trkpt>
      <trkpt lat="48.04197" lon="6.39663">
        <ele>496.8</ele>
        <time>2023-04-30T15:11:46Z</time>
      </trkpt>
      <trkpt lat="48.04197" lon="6.39657">
        <ele>497</ele>
        <time>2023-04-30T15:11:48Z</time>
      </trkpt>
      <trkpt lat="48.04196" lon="6.39651">
        <ele>497.3</ele>
        <time>2023-04-30T15:11:49Z</time>
      </trkpt>
      <trkpt lat="48.04196" lon="6.39644">
        <ele>497.5</ele>
        <time>2023-04-30T15:11:50Z</time>
      </trkpt>
      <trkpt lat="48.04195" lon="6.39638">
        <ele>497.7</ele>
        <time>2023-04-30T15:11:51Z</time>
      </trkpt>
      <trkpt lat="48.04194" lon="6.39632">
        <ele>497.9</ele>
        <time>2023-04-30T15:11:52Z</time>
      </trkpt>
      <trkpt lat="48.04194" lon="6.39624">
        <ele>498.2</ele>
        <time>2023-04-30T15:11:53Z</time>
      </trkpt>
      <trkpt lat="48.04193" lon="6.39618">
        <ele>498.4</ele>
        <time>2023-04-30T15:11:54Z</time>
      </trkpt>
      <trkpt lat="48.04193" lon="6.39611">
        <ele>498.6</ele>
        <time>2023-04-30T15:11:55Z</time>
      </trkpt>
      <trkpt lat="48.04192" lon="6.39604">
        <ele>498.8</ele>
        <time>2023-04-30T15:11:57Z</time>
      </trkpt>
      <trkpt lat="48.04192" lon="6.39599">
        <ele>499</ele>
        <time>2023-04-30T15:11:58Z</time>
      </trkpt>
      <trkpt lat="48.04191" lon="6.39589">
        <ele>499.3</ele>
        <time>2023-04-30T15:11:59Z</time>
      </trkpt>
      <trkpt lat="48.04191" lon="6.39583">
        <ele>499.5</ele>
        <time>2023-04-30T15:12:01Z</time>
      </trkpt>
      <trkpt lat="48.04191" lon="6.39576">
        <ele>499.7</ele>
        <time>2023-04-30T15:12:02Z</time>
      </trkpt>
      <trkpt lat="48.0419" lon="6.39569">
        <ele>500</ele>
        <time>2023-04-30T15:12:03Z</time>
      </trkpt>
      <trkpt lat="48.0419" lon="6.39562">
        <ele>500.3</ele>
        <time>2023-04-30T15:12:04Z</time>
      </trkpt>
      <trkpt lat="48.04191" lon="6.39556">
        <ele>500.5</ele>
        <time>2023-04-30T15:12:05Z</time>
      </trkpt>
      <trkpt lat="48.0419" lon="6.3955">
        <ele>500.8</ele>
        <time>2023-04-30T15:12:06Z</time>
      </trkpt>
      <trkpt lat="48.0419" lon="6.39544">
        <ele>501</ele>
        <time>2023-04-30T15:12:08Z</time>
      </trkpt>
      <trkpt lat="48.04189" lon="6.39537">
        <ele>501.3</ele>
        <time>2023-04-30T15:12:09Z</time>
      </trkpt>
      <trkpt lat="48.04189" lon="6.39532">
        <ele>501.6</ele>
        <time>2023-04-30T15:12:10Z</time>
      </trkpt>
      <trkpt lat="48.04188" lon="6.39525">
        <ele>501.9</ele>
        <time>2023-04-30T15:12:11Z</time>
      </trkpt>
      <trkpt lat="48.04188" lon="6.39519">
        <ele>502.2</ele>
        <time>2023-04-30T15:12:12Z</time>
      </trkpt>
      <trkpt lat="48.04188" lon="6.39513">
        <ele>502.5</ele>
        <time>2023-04-30T15:12:14Z</time>
      </trkpt>
      <trkpt lat="48.04187" lon="6.39508">
        <ele>502.7</ele>
        <time>2023-04-30T15:12:15Z</time>
      </trkpt>
      <trkpt lat="48.04187" lon="6.39502">
        <ele>503</ele>
        <time>2023-04-30T15:12:16Z</time>
      </trkpt>
      <trkpt lat="48.04187" lon="6.39494">
        <ele>503.5</ele>
        <time>2023-04-30T15:12:17Z</time>
      </trkpt>
      <trkpt lat="48.04187" lon="6.39487">
        <ele>503.8</ele>
        <time>2023-04-30T15:12:18Z</time>
      </trkpt>
      <trkpt lat="48.04186" lon="6.39478">
        <ele>504.3</ele>
        <time>2023-04-30T15:12:20Z</time>
      </trkpt>
      <trkpt lat="48.04186" lon="6.39473">
        <ele>504.5</ele>
        <time>2023-04-30T15:12:21Z</time>
      </trkpt>
      <trkpt lat="48.04186" lon="6.39467">
        <ele>504.8</ele>
        <time>2023-04-30T15:12:22Z</time>
      </trkpt>
      <trkpt lat="48.04186" lon="6.39462">
        <ele>505.1</ele>
        <time>2023-04-30T15:12:24Z</time>
      </trkpt>
      <trkpt lat="48.04186" lon="6.39455">
        <ele>505.4</ele>
        <time>2023-04-30T15:12:25Z</time>
      </trkpt>
      <trkpt lat="48.04186" lon="6.39449">
        <ele>505.7</ele>
        <time>2023-04-30T15:12:26Z</time>
      </trkpt>
      <trkpt lat="48.04185" lon="6.39442">
        <ele>506</ele>
        <time>2023-04-30T15:12:27Z</time>
      </trkpt>
      <trkpt lat="48.04185" lon="6.39436">
        <ele>506.2</ele>
        <time>2023-04-30T15:12:28Z</time>
      </trkpt>
      <trkpt lat="48.04185" lon="6.39431">
        <ele>506.5</ele>
        <time>2023-04-30T15:12:30Z</time>
      </trkpt>
      <trkpt lat="48.04184" lon="6.39425">
        <ele>506.7</ele>
        <time>2023-04-30T15:12:31Z</time>
      </trkpt>
      <trkpt lat="48.04184" lon="6.39419">
        <ele>507</ele>
        <time>2023-04-30T15:12:32Z</time>
      </trkpt>
      <trkpt lat="48.04183" lon="6.39413">
        <ele>507.2</ele>
        <time>2023-04-30T15:12:33Z</time>
      </trkpt>
      <trkpt lat="48.04183" lon="6.39407">
        <ele>507.4</ele>
        <time>2023-04-30T15:12:34Z</time>
      </trkpt>
      <trkpt lat="48.04183" lon="6.394">
        <ele>507.7</ele>
        <time>2023-04-30T15:12:35Z</time>
      </trkpt>
      <trkpt lat="48.04182" lon="6.39394">
        <ele>507.8</ele>
        <time>2023-04-30T15:12:37Z</time>
      </trkpt>
      <trkpt lat="48.04182" lon="6.39389">
        <ele>508</ele>
        <time>2023-04-30T15:12:38Z</time>
      </trkpt>
      <trkpt lat="48.04182" lon="6.3938">
        <ele>508.2</ele>
        <time>2023-04-30T15:12:39Z</time>
      </trkpt>
      <trkpt lat="48.04182" lon="6.39374">
        <ele>508.4</ele>
        <time>2023-04-30T15:12:41Z</time>
      </trkpt>
      <trkpt lat="48.04181" lon="6.39367">
        <ele>508.5</ele>
        <time>2023-04-30T15:12:42Z</time>
      </trkpt>
      <trkpt lat="48.04181" lon="6.39359">
        <ele>508.6</ele>
        <time>2023-04-30T15:12:43Z</time>
      </trkpt>
      <trkpt lat="48.0418" lon="6.39353">
        <ele>508.7</ele>
        <time>2023-04-30T15:12:44Z</time>
      </trkpt>
      <trkpt lat="48.0418" lon="6.39346">
        <ele>508.8</ele>
        <time>2023-04-30T15:12:46Z</time>
      </trkpt>
      <trkpt lat="48.0418" lon="6.3934">
        <ele>508.9</ele>
        <time>2023-04-30T15:12:47Z</time>
      </trkpt>
      <trkpt lat="48.04179" lon="6.39334">
        <ele>508.9</ele>
        <time>2023-04-30T15:12:48Z</time>
      </trkpt>
      <trkpt lat="48.04179" lon="6.39326">
        <ele>509</ele>
        <time>2023-04-30T15:12:50Z</time>
      </trkpt>
      <trkpt lat="48.04179" lon="6.39321">
        <ele>509.1</ele>
        <time>2023-04-30T15:12:51Z</time>
      </trkpt>
      <trkpt lat="48.04179" lon="6.39317">
        <ele>509.1</ele>
        <time>2023-04-30T15:12:52Z</time>
      </trkpt>
      <trkpt lat="48.04178" lon="6.39308">
        <ele>509.1</ele>
        <time>2023-04-30T15:12:54Z</time>
      </trkpt>
      <trkpt lat="48.04177" lon="6.39304">
        <ele>509.2</ele>
        <time>2023-04-30T15:12:55Z</time>
      </trkpt>
      <trkpt lat="48.04176" lon="6.39297">
        <ele>509.2</ele>
        <time>2023-04-30T15:12:57Z</time>
      </trkpt>
      <trkpt lat="48.04175" lon="6.39293">
        <ele>509.3</ele>
        <time>2023-04-30T15:12:58Z</time>
      </trkpt>
      <trkpt lat="48.04171" lon="6.39288">
        <ele>509.4</ele>
        <time>2023-04-30T15:12:59Z</time>
      </trkpt>
      <trkpt lat="48.04167" lon="6.39287">
        <ele>509.5</ele>
        <time>2023-04-30T15:13:01Z</time>
      </trkpt>
      <trkpt lat="48.04164" lon="6.39287">
        <ele>509.6</ele>
        <time>2023-04-30T15:13:02Z</time>
      </trkpt>
      <trkpt lat="48.0416" lon="6.3929">
        <ele>509.6</ele>
        <time>2023-04-30T15:13:03Z</time>
      </trkpt>
      <trkpt lat="48.04158" lon="6.39294">
        <ele>509.7</ele>
        <time>2023-04-30T15:13:04Z</time>
      </trkpt>
      <trkpt lat="48.04155" lon="6.39297">
        <ele>509.8</ele>
        <time>2023-04-30T15:13:06Z</time>
      </trkpt>
      <trkpt lat="48.04152" lon="6.39299">
        <ele>509.8</ele>
        <time>2023-04-30T15:13:07Z</time>
      </trkpt>
      <trkpt lat="48.04151" lon="6.393">
        <ele>509.8</ele>
        <time>2023-04-30T15:13:08Z</time>
      </trkpt>
      <trkpt lat="48.04149" lon="6.39305">
        <ele>509.9</ele>
        <time>2023-04-30T15:13:09Z</time>
      </trkpt>
      <trkpt lat="48.04148" lon="6.39306">
        <ele>509.9</ele>
        <time>2023-04-30T15:13:10Z</time>
      </trkpt>
      <trkpt lat="48.04144" lon="6.39308">
        <ele>510</ele>
        <time>2023-04-30T15:13:11Z</time>
      </trkpt>
      <trkpt lat="48.04142" lon="6.39311">
        <ele>510.1</ele>
        <time>2023-04-30T15:13:12Z</time>
      </trkpt>
      <trkpt lat="48.04138" lon="6.39316">
        <ele>510.3</ele>
        <time>2023-04-30T15:13:14Z</time>
      </trkpt>
      <trkpt lat="48.04137" lon="6.39317">
        <ele>510.3</ele>
        <time>2023-04-30T15:13:15Z</time>
      </trkpt>
      <trkpt lat="48.04135" lon="6.39319">
        <ele>510.4</ele>
        <time>2023-04-30T15:13:16Z</time>
      </trkpt>
      <trkpt lat="48.04132" lon="6.3932">
        <ele>510.5</ele>
        <time>2023-04-30T15:13:17Z</time>
      </trkpt>
      <trkpt lat="48.04129" lon="6.39323">
        <ele>510.6</ele>
        <time>2023-04-30T15:13:18Z</time>
      </trkpt>
      <trkpt lat="48.04124" lon="6.39327">
        <ele>510.8</ele>
        <time>2023-04-30T15:13:20Z</time>
      </trkpt>
      <trkpt lat="48.04123" lon="6.39328">
        <ele>510.9</ele>
        <time>2023-04-30T15:13:21Z</time>
      </trkpt>
      <trkpt lat="48.04121" lon="6.39329">
        <ele>511</ele>
        <time>2023-04-30T15:13:22Z</time>
      </trkpt>
      <trkpt lat="48.04118" lon="6.3933">
        <ele>511.1</ele>
        <time>2023-04-30T15:13:23Z</time>
      </trkpt>
      <trkpt lat="48.04115" lon="6.39332">
        <ele>511.4</ele>
        <time>2023-04-30T15:13:24Z</time>
      </trkpt>
      <trkpt lat="48.04113" lon="6.39333">
        <ele>511.5</ele>
        <time>2023-04-30T15:13:25Z</time>
      </trkpt>
      <trkpt lat="48.04111" lon="6.39336">
        <ele>511.6</ele>
        <time>2023-04-30T15:13:26Z</time>
      </trkpt>
      <trkpt lat="48.04108" lon="6.39337">
        <ele>511.8</ele>
        <time>2023-04-30T15:13:27Z</time>
      </trkpt>
      <trkpt lat="48.04103" lon="6.3934">
        <ele>512.2</ele>
        <time>2023-04-30T15:13:29Z</time>
      </trkpt>
      <trkpt lat="48.041" lon="6.39342">
        <ele>512.4</ele>
        <time>2023-04-30T15:13:31Z</time>
      </trkpt>
      <trkpt lat="48.04097" lon="6.39346">
        <ele>512.7</ele>
        <time>2023-04-30T15:13:32Z</time>
      </trkpt>
      <trkpt lat="48.04094" lon="6.39349">
        <ele>512.9</ele>
        <time>2023-04-30T15:13:34Z</time>
      </trkpt>
      <trkpt lat="48.04091" lon="6.39351">
        <ele>513.2</ele>
        <time>2023-04-30T15:13:35Z</time>
      </trkpt>
      <trkpt lat="48.04087" lon="6.39355">
        <ele>513.5</ele>
        <time>2023-04-30T15:13:37Z</time>
      </trkpt>
      <trkpt lat="48.04084" lon="6.39357">
        <ele>513.8</ele>
        <time>2023-04-30T15:13:38Z</time>
      </trkpt>
      <trkpt lat="48.04081" lon="6.39359">
        <ele>514</ele>
        <time>2023-04-30T15:13:39Z</time>
      </trkpt>
      <trkpt lat="48.04078" lon="6.39362">
        <ele>514.3</ele>
        <time>2023-04-30T15:13:40Z</time>
      </trkpt>
      <trkpt lat="48.04077" lon="6.39363">
        <ele>514.4</ele>
        <time>2023-04-30T15:13:41Z</time>
      </trkpt>
      <trkpt lat="48.04075" lon="6.39365">
        <ele>514.6</ele>
        <time>2023-04-30T15:13:42Z</time>
      </trkpt>
      <trkpt lat="48.04069" lon="6.3937">
        <ele>515</ele>
        <time>2023-04-30T15:13:44Z</time>
      </trkpt>
      <trkpt lat="48.04067" lon="6.39372">
        <ele>515.3</ele>
        <time>2023-04-30T15:13:45Z</time>
      </trkpt>
      <trkpt lat="48.04064" lon="6.39375">
        <ele>515.5</ele>
        <time>2023-04-30T15:13:47Z</time>
      </trkpt>
      <trkpt lat="48.0406" lon="6.39377">
        <ele>515.8</ele>
        <time>2023-04-30T15:13:48Z</time>
      </trkpt>
      <trkpt lat="48.04057" lon="6.39379">
        <ele>516</ele>
        <time>2023-04-30T15:13:49Z</time>
      </trkpt>
      <trkpt lat="48.04054" lon="6.39381">
        <ele>516.3</ele>
        <time>2023-04-30T15:13:50Z</time>
      </trkpt>
      <trkpt lat="48.04052" lon="6.39382">
        <ele>516.5</ele>
        <time>2023-04-30T15:13:51Z</time>
      </trkpt>
      <trkpt lat="48.04049" lon="6.39384">
        <ele>516.8</ele>
        <time>2023-04-30T15:13:53Z</time>
      </trkpt>
      <trkpt lat="48.04046" lon="6.39386">
        <ele>517</ele>
        <time>2023-04-30T15:13:54Z</time>
      </trkpt>
      <trkpt lat="48.04043" lon="6.39388">
        <ele>517.3</ele>
        <time>2023-04-30T15:13:55Z</time>
      </trkpt>
      <trkpt lat="48.0404" lon="6.39393">
        <ele>517.7</ele>
        <time>2023-04-30T15:13:56Z</time>
      </trkpt>
      <trkpt lat="48.04038" lon="6.39397">
        <ele>518</ele>
        <time>2023-04-30T15:13:58Z</time>
      </trkpt>
      <trkpt lat="48.04036" lon="6.39397">
        <ele>518.1</ele>
        <time>2023-04-30T15:13:59Z</time>
      </trkpt>
      <trkpt lat="48.04035" lon="6.39399">
        <ele>518.3</ele>
        <time>2023-04-30T15:14:00Z</time>
      </trkpt>
      <trkpt lat="48.04034" lon="6.394">
        <ele>518.5</ele>
        <time>2023-04-30T15:14:02Z</time>
      </trkpt>
      <trkpt lat="48.04034" lon="6.394">
        <ele>518.5</ele>
        <time>2023-04-30T15:14:03Z</time>
      </trkpt>
      <trkpt lat="48.04035" lon="6.39399">
        <ele>518.6</ele>
        <time>2023-04-30T15:14:04Z</time>
      </trkpt>
      <trkpt lat="48.04035" lon="6.39399">
        <ele>518.6</ele>
        <time>2023-04-30T15:14:05Z</time>
      </trkpt>
      <trkpt lat="48.04035" lon="6.39399">
        <ele>518.6</ele>
        <time>2023-04-30T15:14:07Z</time>
      </trkpt>
      <trkpt lat="48.04036" lon="6.39399">
        <ele>518.7</ele>
        <time>2023-04-30T15:14:08Z</time>
      </trkpt>
      <trkpt lat="48.04036" lon="6.39399">
        <ele>518.7</ele>
        <time>2023-04-30T15:14:09Z</time>
      </trkpt>
      <trkpt lat="48.04036" lon="6.39399">
        <ele>518.7</ele>
        <time>2023-04-30T15:14:11Z</time>
      </trkpt>
      <trkpt lat="48.04036" lon="6.39399">
        <ele>518.7</ele>
        <time>2023-04-30T15:14:12Z</time>
      </trkpt>
      <trkpt lat="48.04035" lon="6.39395">
        <ele>519</ele>
        <time>2023-04-30T15:16:51Z</time>
      </trkpt>
      <trkpt lat="48.04034" lon="6.39395">
        <ele>519</ele>
        <time>2023-04-30T15:16:52Z</time>
      </trkpt>
      <trkpt lat="48.04034" lon="6.39395">
        <ele>519</ele>
        <time>2023-04-30T15:16:53Z</time>
      </trkpt>
      <trkpt lat="48.04035" lon="6.39395">
        <ele>519.1</ele>
        <time>2023-04-30T15:16:54Z</time>
      </trkpt>
      <trkpt lat="48.04035" lon="6.39395">
        <ele>519.1</ele>
        <time>2023-04-30T15:16:55Z</time>
      </trkpt>
      <trkpt lat="48.04035" lon="6.39395">
        <ele>519.1</ele>
        <time>2023-04-30T15:16:56Z</time>
      </trkpt>
      <trkpt lat="48.04035" lon="6.39395">
        <ele>519.1</ele>
        <time>2023-04-30T15:16:57Z</time>
      </trkpt>
      <trkpt lat="48.04035" lon="6.39395">
        <ele>519.1</ele>
        <time>2023-04-30T15:16:58Z</time>
      </trkpt>
      <trkpt lat="48.04035" lon="6.39395">
        <ele>519.2</ele>
        <time>2023-04-30T15:16:59Z</time>
      </trkpt>
      <trkpt lat="48.04035" lon="6.39395">
        <ele>519.2</ele>
        <time>2023-04-30T15:17:00Z</time>
      </trkpt>
      <trkpt lat="48.04035" lon="6.39395">
        <ele>519.2</ele>
        <time>2023-04-30T15:17:01Z</time>
      </trkpt>
      <trkpt lat="48.04035" lon="6.39394">
        <ele>519.2</ele>
        <time>2023-04-30T15:17:02Z</time>
      </trkpt>
      <trkpt lat="48.04029" lon="6.394">
        <ele>520</ele>
        <time>2023-04-30T15:18:08Z</time>
      </trkpt>
      <trkpt lat="48.04024" lon="6.39399">
        <ele>520.5</ele>
        <time>2023-04-30T15:18:10Z</time>
      </trkpt>
      <trkpt lat="48.04021" lon="6.39399">
        <ele>520.9</ele>
        <time>2023-04-30T15:18:11Z</time>
      </trkpt>
      <trkpt lat="48.04019" lon="6.39399">
        <ele>521.1</ele>
        <time>2023-04-30T15:18:12Z</time>
      </trkpt>
      <trkpt lat="48.04017" lon="6.39399">
        <ele>521.4</ele>
        <time>2023-04-30T15:18:13Z</time>
      </trkpt>
      <trkpt lat="48.04014" lon="6.39399">
        <ele>521.8</ele>
        <time>2023-04-30T15:18:14Z</time>
      </trkpt>
      <trkpt lat="48.0401" lon="6.394">
        <ele>522.3</ele>
        <time>2023-04-30T15:18:16Z</time>
      </trkpt>
      <trkpt lat="48.04008" lon="6.394">
        <ele>522.5</ele>
        <time>2023-04-30T15:18:17Z</time>
      </trkpt>
      <trkpt lat="48.04006" lon="6.394">
        <ele>522.7</ele>
        <time>2023-04-30T15:18:18Z</time>
      </trkpt>
      <trkpt lat="48.04003" lon="6.39401">
        <ele>523.1</ele>
        <time>2023-04-30T15:18:19Z</time>
      </trkpt>
      <trkpt lat="48.04001" lon="6.39402">
        <ele>523.4</ele>
        <time>2023-04-30T15:18:20Z</time>
      </trkpt>
      <trkpt lat="48.03998" lon="6.39403">
        <ele>523.8</ele>
        <time>2023-04-30T15:18:21Z</time>
      </trkpt>
      <trkpt lat="48.03995" lon="6.39404">
        <ele>524.2</ele>
        <time>2023-04-30T15:18:23Z</time>
      </trkpt>
      <trkpt lat="48.03993" lon="6.39405">
        <ele>524.4</ele>
        <time>2023-04-30T15:18:24Z</time>
      </trkpt>
      <trkpt lat="48.0399" lon="6.39407">
        <ele>524.9</ele>
        <time>2023-04-30T15:18:25Z</time>
      </trkpt>
      <trkpt lat="48.03989" lon="6.39408">
        <ele>525</ele>
        <time>2023-04-30T15:18:26Z</time>
      </trkpt>
      <trkpt lat="48.03986" lon="6.39411">
        <ele>525.5</ele>
        <time>2023-04-30T15:18:27Z</time>
      </trkpt>
      <trkpt lat="48.03984" lon="6.39414">
        <ele>525.9</ele>
        <time>2023-04-30T15:18:29Z</time>
      </trkpt>
      <trkpt lat="48.03983" lon="6.39415">
        <ele>526</ele>
        <time>2023-04-30T15:18:30Z</time>
      </trkpt>
      <trkpt lat="48.03982" lon="6.39416">
        <ele>526.2</ele>
        <time>2023-04-30T15:18:31Z</time>
      </trkpt>
      <trkpt lat="48.03981" lon="6.39418">
        <ele>526.4</ele>
        <time>2023-04-30T15:18:32Z</time>
      </trkpt>
      <trkpt lat="48.03978" lon="6.39422">
        <ele>526.8</ele>
        <time>2023-04-30T15:18:33Z</time>
      </trkpt>
      <trkpt lat="48.03977" lon="6.39424">
        <ele>527</ele>
        <time>2023-04-30T15:18:34Z</time>
      </trkpt>
      <trkpt lat="48.03975" lon="6.39426">
        <ele>527.3</ele>
        <time>2023-04-30T15:18:35Z</time>
      </trkpt>
      <trkpt lat="48.03973" lon="6.39429">
        <ele>527.7</ele>
        <time>2023-04-30T15:18:37Z</time>
      </trkpt>
      <trkpt lat="48.03972" lon="6.39433">
        <ele>528.1</ele>
        <time>2023-04-30T15:18:38Z</time>
      </trkpt>
      <trkpt lat="48.03971" lon="6.39435">
        <ele>528.2</ele>
        <time>2023-04-30T15:18:39Z</time>
      </trkpt>
      <trkpt lat="48.03969" lon="6.3944">
        <ele>528.7</ele>
        <time>2023-04-30T15:18:40Z</time>
      </trkpt>
      <trkpt lat="48.03968" lon="6.39442">
        <ele>528.9</ele>
        <time>2023-04-30T15:18:41Z</time>
      </trkpt>
      <trkpt lat="48.03966" lon="6.39448">
        <ele>529.4</ele>
        <time>2023-04-30T15:18:43Z</time>
      </trkpt>
      <trkpt lat="48.03965" lon="6.3945">
        <ele>529.6</ele>
        <time>2023-04-30T15:18:44Z</time>
      </trkpt>
      <trkpt lat="48.03965" lon="6.39452">
        <ele>529.7</ele>
        <time>2023-04-30T15:18:45Z</time>
      </trkpt>
      <trkpt lat="48.03963" lon="6.39458">
        <ele>530.2</ele>
        <time>2023-04-30T15:18:46Z</time>
      </trkpt>
      <trkpt lat="48.03962" lon="6.3946">
        <ele>530.4</ele>
        <time>2023-04-30T15:18:47Z</time>
      </trkpt>
      <trkpt lat="48.03961" lon="6.39465">
        <ele>530.8</ele>
        <time>2023-04-30T15:18:48Z</time>
      </trkpt>
      <trkpt lat="48.03961" lon="6.39466">
        <ele>531</ele>
        <time>2023-04-30T15:18:49Z</time>
      </trkpt>
      <trkpt lat="48.03959" lon="6.39471">
        <ele>531.4</ele>
        <time>2023-04-30T15:18:51Z</time>
      </trkpt>
      <trkpt lat="48.03959" lon="6.39473">
        <ele>531.5</ele>
        <time>2023-04-30T15:18:52Z</time>
      </trkpt>
      <trkpt lat="48.03957" lon="6.39479">
        <ele>531.9</ele>
        <time>2023-04-30T15:18:53Z</time>
      </trkpt>
      <trkpt lat="48.03957" lon="6.39483">
        <ele>532.2</ele>
        <time>2023-04-30T15:18:55Z</time>
      </trkpt>
      <trkpt lat="48.03955" lon="6.39487">
        <ele>532.5</ele>
        <time>2023-04-30T15:18:56Z</time>
      </trkpt>
      <trkpt lat="48.03954" lon="6.39493">
        <ele>532.9</ele>
        <time>2023-04-30T15:18:57Z</time>
      </trkpt>
      <trkpt lat="48.03954" lon="6.39495">
        <ele>533</ele>
        <time>2023-04-30T15:18:58Z</time>
      </trkpt>
      <trkpt lat="48.03953" lon="6.39499">
        <ele>533.3</ele>
        <time>2023-04-30T15:18:59Z</time>
      </trkpt>
      <trkpt lat="48.03953" lon="6.39505">
        <ele>533.7</ele>
        <time>2023-04-30T15:19:00Z</time>
      </trkpt>
      <trkpt lat="48.03953" lon="6.39507">
        <ele>533.8</ele>
        <time>2023-04-30T15:19:01Z</time>
      </trkpt>
      <trkpt lat="48.03951" lon="6.39511">
        <ele>534.2</ele>
        <time>2023-04-30T15:19:03Z</time>
      </trkpt>
      <trkpt lat="48.03951" lon="6.39517">
        <ele>534.6</ele>
        <time>2023-04-30T15:19:04Z</time>
      </trkpt>
      <trkpt lat="48.03951" lon="6.39522">
        <ele>535</ele>
        <time>2023-04-30T15:19:05Z</time>
      </trkpt>
      <trkpt lat="48.0395" lon="6.39529">
        <ele>535.6</ele>
        <time>2023-04-30T15:19:07Z</time>
      </trkpt>
      <trkpt lat="48.0395" lon="6.39531">
        <ele>535.8</ele>
        <time>2023-04-30T15:19:08Z</time>
      </trkpt>
      <trkpt lat="48.0395" lon="6.39534">
        <ele>536</ele>
        <time>2023-04-30T15:19:09Z</time>
      </trkpt>
      <trkpt lat="48.03949" lon="6.39542">
        <ele>536.8</ele>
        <time>2023-04-30T15:19:11Z</time>
      </trkpt>
      <trkpt lat="48.03948" lon="6.39546">
        <ele>537.2</ele>
        <time>2023-04-30T15:19:12Z</time>
      </trkpt>
      <trkpt lat="48.03947" lon="6.3955">
        <ele>537.7</ele>
        <time>2023-04-30T15:19:13Z</time>
      </trkpt>
      <trkpt lat="48.03946" lon="6.39555">
        <ele>538.3</ele>
        <time>2023-04-30T15:19:15Z</time>
      </trkpt>
      <trkpt lat="48.03946" lon="6.39557">
        <ele>538.5</ele>
        <time>2023-04-30T15:19:16Z</time>
      </trkpt>
      <trkpt lat="48.03946" lon="6.39562">
        <ele>539.1</ele>
        <time>2023-04-30T15:19:17Z</time>
      </trkpt>
      <trkpt lat="48.03945" lon="6.39564">
        <ele>539.3</ele>
        <time>2023-04-30T15:19:18Z</time>
      </trkpt>
      <trkpt lat="48.03944" lon="6.39568">
        <ele>539.8</ele>
        <time>2023-04-30T15:19:19Z</time>
      </trkpt>
      <trkpt lat="48.03943" lon="6.39573">
        <ele>540.4</ele>
        <time>2023-04-30T15:19:20Z</time>
      </trkpt>
      <trkpt lat="48.03942" lon="6.39574">
        <ele>540.5</ele>
        <time>2023-04-30T15:19:21Z</time>
      </trkpt>
      <trkpt lat="48.03942" lon="6.39577">
        <ele>540.9</ele>
        <time>2023-04-30T15:19:22Z</time>
      </trkpt>
      <trkpt lat="48.03941" lon="6.39581">
        <ele>541.3</ele>
        <time>2023-04-30T15:19:24Z</time>
      </trkpt>
      <trkpt lat="48.0394" lon="6.39585">
        <ele>541.9</ele>
        <time>2023-04-30T15:19:25Z</time>
      </trkpt>
      <trkpt lat="48.03939" lon="6.39587">
        <ele>542.1</ele>
        <time>2023-04-30T15:19:26Z</time>
      </trkpt>
      <trkpt lat="48.03937" lon="6.39592">
        <ele>542.7</ele>
        <time>2023-04-30T15:19:27Z</time>
      </trkpt>
      <trkpt lat="48.03937" lon="6.39594">
        <ele>542.9</ele>
        <time>2023-04-30T15:19:28Z</time>
      </trkpt>
      <trkpt lat="48.03935" lon="6.39599">
        <ele>543.6</ele>
        <time>2023-04-30T15:19:29Z</time>
      </trkpt>
      <trkpt lat="48.03935" lon="6.39601">
        <ele>543.8</ele>
        <time>2023-04-30T15:19:30Z</time>
      </trkpt>
      <trkpt lat="48.03934" lon="6.39605">
        <ele>544.2</ele>
        <time>2023-04-30T15:19:32Z</time>
      </trkpt>
      <trkpt lat="48.03933" lon="6.39609">
        <ele>544.7</ele>
        <time>2023-04-30T15:19:33Z</time>
      </trkpt>
      <trkpt lat="48.03931" lon="6.39613">
        <ele>545.2</ele>
        <time>2023-04-30T15:19:34Z</time>
      </trkpt>
      <trkpt lat="48.0393" lon="6.39614">
        <ele>545.3</ele>
        <time>2023-04-30T15:19:35Z</time>
      </trkpt>
      <trkpt lat="48.03929" lon="6.39618">
        <ele>545.8</ele>
        <time>2023-04-30T15:19:36Z</time>
      </trkpt>
      <trkpt lat="48.03927" lon="6.39624">
        <ele>546.4</ele>
        <time>2023-04-30T15:19:38Z</time>
      </trkpt>
      <trkpt lat="48.03926" lon="6.39626">
        <ele>546.6</ele>
        <time>2023-04-30T15:19:39Z</time>
      </trkpt>
      <trkpt lat="48.03925" lon="6.39628">
        <ele>546.9</ele>
        <time>2023-04-30T15:19:40Z</time>
      </trkpt>
      <trkpt lat="48.03925" lon="6.39632">
        <ele>547.3</ele>
        <time>2023-04-30T15:19:41Z</time>
      </trkpt>
      <trkpt lat="48.03923" lon="6.39635">
        <ele>547.7</ele>
        <time>2023-04-30T15:19:42Z</time>
      </trkpt>
      <trkpt lat="48.03922" lon="6.39636">
        <ele>547.8</ele>
        <time>2023-04-30T15:19:43Z</time>
      </trkpt>
      <trkpt lat="48.0392" lon="6.39636">
        <ele>548.1</ele>
        <time>2023-04-30T15:19:44Z</time>
      </trkpt>
      <trkpt lat="48.03919" lon="6.39637">
        <ele>548.3</ele>
        <time>2023-04-30T15:19:45Z</time>
      </trkpt>
      <trkpt lat="48.03917" lon="6.39641">
        <ele>548.8</ele>
        <time>2023-04-30T15:19:46Z</time>
      </trkpt>
      <trkpt lat="48.03916" lon="6.39643">
        <ele>548.9</ele>
        <time>2023-04-30T15:19:47Z</time>
      </trkpt>
      <trkpt lat="48.03914" lon="6.39647">
        <ele>549.4</ele>
        <time>2023-04-30T15:19:49Z</time>
      </trkpt>
      <trkpt lat="48.03912" lon="6.39648">
        <ele>549.6</ele>
        <time>2023-04-30T15:19:50Z</time>
      </trkpt>
      <trkpt lat="48.0391" lon="6.39653">
        <ele>550</ele>
        <time>2023-04-30T15:19:51Z</time>
      </trkpt>
      <trkpt lat="48.0391" lon="6.39655">
        <ele>550.2</ele>
        <time>2023-04-30T15:19:52Z</time>
      </trkpt>
      <trkpt lat="48.03908" lon="6.39658">
        <ele>550.6</ele>
        <time>2023-04-30T15:19:53Z</time>
      </trkpt>
      <trkpt lat="48.03905" lon="6.39662">
        <ele>551</ele>
        <time>2023-04-30T15:19:54Z</time>
      </trkpt>
      <trkpt lat="48.03905" lon="6.39664">
        <ele>551.2</ele>
        <time>2023-04-30T15:19:55Z</time>
      </trkpt>
      <trkpt lat="48.03903" lon="6.39668">
        <ele>551.5</ele>
        <time>2023-04-30T15:19:57Z</time>
      </trkpt>
      <trkpt lat="48.039" lon="6.39673">
        <ele>552</ele>
        <time>2023-04-30T15:19:58Z</time>
      </trkpt>
      <trkpt lat="48.03899" lon="6.39678">
        <ele>552.5</ele>
        <time>2023-04-30T15:19:59Z</time>
      </trkpt>
      <trkpt lat="48.03897" lon="6.39682">
        <ele>552.8</ele>
        <time>2023-04-30T15:20:00Z</time>
      </trkpt>
      <trkpt lat="48.03896" lon="6.39685">
        <ele>553.2</ele>
        <time>2023-04-30T15:20:01Z</time>
      </trkpt>
      <trkpt lat="48.03892" lon="6.39691">
        <ele>553.8</ele>
        <time>2023-04-30T15:20:03Z</time>
      </trkpt>
      <trkpt lat="48.03891" lon="6.39693">
        <ele>554</ele>
        <time>2023-04-30T15:20:04Z</time>
      </trkpt>
      <trkpt lat="48.03889" lon="6.39696">
        <ele>554.3</ele>
        <time>2023-04-30T15:20:05Z</time>
      </trkpt>
      <trkpt lat="48.03887" lon="6.397">
        <ele>554.7</ele>
        <time>2023-04-30T15:20:07Z</time>
      </trkpt>
      <trkpt lat="48.03887" lon="6.39702">
        <ele>554.9</ele>
        <time>2023-04-30T15:20:08Z</time>
      </trkpt>
      <trkpt lat="48.03885" lon="6.39705">
        <ele>555.2</ele>
        <time>2023-04-30T15:20:09Z</time>
      </trkpt>
      <trkpt lat="48.03882" lon="6.39708">
        <ele>555.6</ele>
        <time>2023-04-30T15:20:10Z</time>
      </trkpt>
      <trkpt lat="48.0388" lon="6.39711">
        <ele>555.9</ele>
        <time>2023-04-30T15:20:11Z</time>
      </trkpt>
      <trkpt lat="48.03879" lon="6.39715">
        <ele>556.3</ele>
        <time>2023-04-30T15:20:12Z</time>
      </trkpt>
      <trkpt lat="48.03876" lon="6.39721">
        <ele>556.8</ele>
        <time>2023-04-30T15:20:14Z</time>
      </trkpt>
      <trkpt lat="48.03875" lon="6.39723">
        <ele>557</ele>
        <time>2023-04-30T15:20:15Z</time>
      </trkpt>
      <trkpt lat="48.03873" lon="6.39725">
        <ele>557.2</ele>
        <time>2023-04-30T15:20:16Z</time>
      </trkpt>
      <trkpt lat="48.03871" lon="6.39728">
        <ele>557.6</ele>
        <time>2023-04-30T15:20:17Z</time>
      </trkpt>
      <trkpt lat="48.03869" lon="6.3973">
        <ele>557.9</ele>
        <time>2023-04-30T15:20:18Z</time>
      </trkpt>
      <trkpt lat="48.03867" lon="6.39734">
        <ele>558.3</ele>
        <time>2023-04-30T15:20:19Z</time>
      </trkpt>
      <trkpt lat="48.03865" lon="6.39738">
        <ele>558.6</ele>
        <time>2023-04-30T15:20:21Z</time>
      </trkpt>
      <trkpt lat="48.03864" lon="6.39742">
        <ele>558.9</ele>
        <time>2023-04-30T15:20:22Z</time>
      </trkpt>
      <trkpt lat="48.03862" lon="6.39744">
        <ele>559.3</ele>
        <time>2023-04-30T15:20:23Z</time>
      </trkpt>
      <trkpt lat="48.03859" lon="6.39749">
        <ele>559.8</ele>
        <time>2023-04-30T15:20:25Z</time>
      </trkpt>
      <trkpt lat="48.03856" lon="6.39754">
        <ele>560.3</ele>
        <time>2023-04-30T15:20:26Z</time>
      </trkpt>
      <trkpt lat="48.03854" lon="6.39757">
        <ele>560.6</ele>
        <time>2023-04-30T15:20:27Z</time>
      </trkpt>
      <trkpt lat="48.03851" lon="6.3976">
        <ele>561</ele>
        <time>2023-04-30T15:20:29Z</time>
      </trkpt>
      <trkpt lat="48.03847" lon="6.39764">
        <ele>561.6</ele>
        <time>2023-04-30T15:20:31Z</time>
      </trkpt>
      <trkpt lat="48.03846" lon="6.39766">
        <ele>561.8</ele>
        <time>2023-04-30T15:20:32Z</time>
      </trkpt>
      <trkpt lat="48.03845" lon="6.39768">
        <ele>561.9</ele>
        <time>2023-04-30T15:20:33Z</time>
      </trkpt>
      <trkpt lat="48.03841" lon="6.39771">
        <ele>562.4</ele>
        <time>2023-04-30T15:20:34Z</time>
      </trkpt>
      <trkpt lat="48.0384" lon="6.39773">
        <ele>562.5</ele>
        <time>2023-04-30T15:20:35Z</time>
      </trkpt>
      <trkpt lat="48.03839" lon="6.39775">
        <ele>562.8</ele>
        <time>2023-04-30T15:20:36Z</time>
      </trkpt>
      <trkpt lat="48.03836" lon="6.39777">
        <ele>563</ele>
        <time>2023-04-30T15:20:38Z</time>
      </trkpt>
      <trkpt lat="48.03834" lon="6.3978">
        <ele>563.3</ele>
        <time>2023-04-30T15:20:39Z</time>
      </trkpt>
      <trkpt lat="48.03831" lon="6.39783">
        <ele>563.7</ele>
        <time>2023-04-30T15:20:40Z</time>
      </trkpt>
      <trkpt lat="48.0383" lon="6.39784">
        <ele>563.8</ele>
        <time>2023-04-30T15:20:41Z</time>
      </trkpt>
      <trkpt lat="48.03827" lon="6.39787">
        <ele>564.1</ele>
        <time>2023-04-30T15:20:42Z</time>
      </trkpt>
      <trkpt lat="48.03824" lon="6.3979">
        <ele>564.5</ele>
        <time>2023-04-30T15:20:43Z</time>
      </trkpt>
      <trkpt lat="48.03823" lon="6.39792">
        <ele>564.6</ele>
        <time>2023-04-30T15:20:44Z</time>
      </trkpt>
      <trkpt lat="48.03819" lon="6.39796">
        <ele>565.1</ele>
        <time>2023-04-30T15:20:46Z</time>
      </trkpt>
      <trkpt lat="48.03816" lon="6.39799">
        <ele>565.3</ele>
        <time>2023-04-30T15:20:48Z</time>
      </trkpt>
      <trkpt lat="48.03814" lon="6.39801">
        <ele>565.5</ele>
        <time>2023-04-30T15:20:49Z</time>
      </trkpt>
      <trkpt lat="48.0381" lon="6.39805">
        <ele>565.9</ele>
        <time>2023-04-30T15:20:51Z</time>
      </trkpt>
      <trkpt lat="48.03809" lon="6.39807">
        <ele>566</ele>
        <time>2023-04-30T15:20:52Z</time>
      </trkpt>
      <trkpt lat="48.03806" lon="6.39811">
        <ele>566.3</ele>
        <time>2023-04-30T15:20:54Z</time>
      </trkpt>
      <trkpt lat="48.03803" lon="6.39814">
        <ele>566.5</ele>
        <time>2023-04-30T15:20:55Z</time>
      </trkpt>
      <trkpt lat="48.03802" lon="6.39815">
        <ele>566.6</ele>
        <time>2023-04-30T15:20:56Z</time>
      </trkpt>
      <trkpt lat="48.03799" lon="6.39818">
        <ele>566.8</ele>
        <time>2023-04-30T15:20:58Z</time>
      </trkpt>
      <trkpt lat="48.03798" lon="6.3982">
        <ele>566.9</ele>
        <time>2023-04-30T15:20:59Z</time>
      </trkpt>
      <trkpt lat="48.03794" lon="6.39822">
        <ele>567.1</ele>
        <time>2023-04-30T15:21:01Z</time>
      </trkpt>
      <trkpt lat="48.03792" lon="6.39826">
        <ele>567.3</ele>
        <time>2023-04-30T15:21:02Z</time>
      </trkpt>
      <trkpt lat="48.03791" lon="6.39827">
        <ele>567.3</ele>
        <time>2023-04-30T15:21:03Z</time>
      </trkpt>
      <trkpt lat="48.03789" lon="6.39828">
        <ele>567.4</ele>
        <time>2023-04-30T15:21:04Z</time>
      </trkpt>
      <trkpt lat="48.03785" lon="6.3983">
        <ele>567.5</ele>
        <time>2023-04-30T15:21:06Z</time>
      </trkpt>
      <trkpt lat="48.03783" lon="6.39833">
        <ele>567.6</ele>
        <time>2023-04-30T15:21:07Z</time>
      </trkpt>
      <trkpt lat="48.03782" lon="6.39835">
        <ele>567.6</ele>
        <time>2023-04-30T15:21:08Z</time>
      </trkpt>
      <trkpt lat="48.03779" lon="6.39838">
        <ele>567.6</ele>
        <time>2023-04-30T15:21:10Z</time>
      </trkpt>
      <trkpt lat="48.03777" lon="6.39838">
        <ele>567.6</ele>
        <time>2023-04-30T15:21:11Z</time>
      </trkpt>
      <trkpt lat="48.03774" lon="6.39842">
        <ele>567.6</ele>
        <time>2023-04-30T15:21:13Z</time>
      </trkpt>
      <trkpt lat="48.03771" lon="6.39845">
        <ele>567.5</ele>
        <time>2023-04-30T15:21:14Z</time>
      </trkpt>
      <trkpt lat="48.0377" lon="6.39845">
        <ele>567.5</ele>
        <time>2023-04-30T15:21:15Z</time>
      </trkpt>
      <trkpt lat="48.03767" lon="6.39848">
        <ele>567.4</ele>
        <time>2023-04-30T15:21:16Z</time>
      </trkpt>
      <trkpt lat="48.03765" lon="6.39851">
        <ele>567.3</ele>
        <time>2023-04-30T15:21:17Z</time>
      </trkpt>
      <trkpt lat="48.03763" lon="6.39853">
        <ele>567.2</ele>
        <time>2023-04-30T15:21:19Z</time>
      </trkpt>
      <trkpt lat="48.03761" lon="6.39856">
        <ele>567.1</ele>
        <time>2023-04-30T15:21:20Z</time>
      </trkpt>
      <trkpt lat="48.03758" lon="6.39861">
        <ele>566.9</ele>
        <time>2023-04-30T15:21:21Z</time>
      </trkpt>
      <trkpt lat="48.03755" lon="6.39865">
        <ele>566.8</ele>
        <time>2023-04-30T15:21:22Z</time>
      </trkpt>
      <trkpt lat="48.03751" lon="6.39868">
        <ele>566.6</ele>
        <time>2023-04-30T15:21:24Z</time>
      </trkpt>
      <trkpt lat="48.03747" lon="6.3987">
        <ele>566.5</ele>
        <time>2023-04-30T15:21:25Z</time>
      </trkpt>
      <trkpt lat="48.03741" lon="6.39869">
        <ele>566.1</ele>
        <time>2023-04-30T15:21:26Z</time>
      </trkpt>
      <trkpt lat="48.03734" lon="6.39868">
        <ele>565.4</ele>
        <time>2023-04-30T15:21:28Z</time>
      </trkpt>
      <trkpt lat="48.03728" lon="6.39868">
        <ele>565</ele>
        <time>2023-04-30T15:21:29Z</time>
      </trkpt>
      <trkpt lat="48.03723" lon="6.39867">
        <ele>564.5</ele>
        <time>2023-04-30T15:21:30Z</time>
      </trkpt>
      <trkpt lat="48.03718" lon="6.39866">
        <ele>564.1</ele>
        <time>2023-04-30T15:21:31Z</time>
      </trkpt>
      <trkpt lat="48.03713" lon="6.39866">
        <ele>563.7</ele>
        <time>2023-04-30T15:21:32Z</time>
      </trkpt>
      <trkpt lat="48.03708" lon="6.39867">
        <ele>563.2</ele>
        <time>2023-04-30T15:21:33Z</time>
      </trkpt>
      <trkpt lat="48.03703" lon="6.3987">
        <ele>562.8</ele>
        <time>2023-04-30T15:21:34Z</time>
      </trkpt>
      <trkpt lat="48.03699" lon="6.39874">
        <ele>562.5</ele>
        <time>2023-04-30T15:21:35Z</time>
      </trkpt>
      <trkpt lat="48.03694" lon="6.39878">
        <ele>562.2</ele>
        <time>2023-04-30T15:21:36Z</time>
      </trkpt>
      <trkpt lat="48.03689" lon="6.39882">
        <ele>561.9</ele>
        <time>2023-04-30T15:21:37Z</time>
      </trkpt>
      <trkpt lat="48.03684" lon="6.39886">
        <ele>561.5</ele>
        <time>2023-04-30T15:21:38Z</time>
      </trkpt>
      <trkpt lat="48.03678" lon="6.3989">
        <ele>561.2</ele>
        <time>2023-04-30T15:21:39Z</time>
      </trkpt>
      <trkpt lat="48.03673" lon="6.39895">
        <ele>560.8</ele>
        <time>2023-04-30T15:21:40Z</time>
      </trkpt>
      <trkpt lat="48.03667" lon="6.399">
        <ele>560.4</ele>
        <time>2023-04-30T15:21:41Z</time>
      </trkpt>
      <trkpt lat="48.03661" lon="6.39906">
        <ele>560.1</ele>
        <time>2023-04-30T15:21:42Z</time>
      </trkpt>
      <trkpt lat="48.03654" lon="6.39912">
        <ele>559.7</ele>
        <time>2023-04-30T15:21:43Z</time>
      </trkpt>
      <trkpt lat="48.03647" lon="6.39917">
        <ele>559.3</ele>
        <time>2023-04-30T15:21:44Z</time>
      </trkpt>
      <trkpt lat="48.0364" lon="6.39923">
        <ele>558.9</ele>
        <time>2023-04-30T15:21:45Z</time>
      </trkpt>
      <trkpt lat="48.03633" lon="6.39929">
        <ele>558.5</ele>
        <time>2023-04-30T15:21:46Z</time>
      </trkpt>
      <trkpt lat="48.03627" lon="6.39937">
        <ele>558.2</ele>
        <time>2023-04-30T15:21:47Z</time>
      </trkpt>
      <trkpt lat="48.03622" lon="6.39945">
        <ele>557.9</ele>
        <time>2023-04-30T15:21:48Z</time>
      </trkpt>
      <trkpt lat="48.03616" lon="6.39952">
        <ele>557.6</ele>
        <time>2023-04-30T15:21:49Z</time>
      </trkpt>
      <trkpt lat="48.03611" lon="6.3996">
        <ele>557.3</ele>
        <time>2023-04-30T15:21:50Z</time>
      </trkpt>
      <trkpt lat="48.03606" lon="6.39968">
        <ele>557</ele>
        <time>2023-04-30T15:21:51Z</time>
      </trkpt>
      <trkpt lat="48.036" lon="6.39976">
        <ele>556.8</ele>
        <time>2023-04-30T15:21:52Z</time>
      </trkpt>
      <trkpt lat="48.03594" lon="6.39984">
        <ele>556.7</ele>
        <time>2023-04-30T15:21:53Z</time>
      </trkpt>
      <trkpt lat="48.03588" lon="6.3999">
        <ele>556.6</ele>
        <time>2023-04-30T15:21:54Z</time>
      </trkpt>
      <trkpt lat="48.03581" lon="6.39996">
        <ele>556.4</ele>
        <time>2023-04-30T15:21:55Z</time>
      </trkpt>
      <trkpt lat="48.03573" lon="6.4">
        <ele>556.3</ele>
        <time>2023-04-30T15:21:56Z</time>
      </trkpt>
      <trkpt lat="48.03566" lon="6.40004">
        <ele>556.2</ele>
        <time>2023-04-30T15:21:57Z</time>
      </trkpt>
      <trkpt lat="48.03558" lon="6.40008">
        <ele>556.2</ele>
        <time>2023-04-30T15:21:58Z</time>
      </trkpt>
      <trkpt lat="48.0355" lon="6.40012">
        <ele>556.1</ele>
        <time>2023-04-30T15:21:59Z</time>
      </trkpt>
      <trkpt lat="48.03543" lon="6.40016">
        <ele>556.1</ele>
        <time>2023-04-30T15:22:00Z</time>
      </trkpt>
      <trkpt lat="48.03535" lon="6.4002">
        <ele>556.1</ele>
        <time>2023-04-30T15:22:01Z</time>
      </trkpt>
      <trkpt lat="48.03528" lon="6.40024">
        <ele>556.1</ele>
        <time>2023-04-30T15:22:02Z</time>
      </trkpt>
      <trkpt lat="48.03521" lon="6.40027">
        <ele>556.2</ele>
        <time>2023-04-30T15:22:03Z</time>
      </trkpt>
      <trkpt lat="48.03513" lon="6.4003">
        <ele>556.2</ele>
        <time>2023-04-30T15:22:04Z</time>
      </trkpt>
      <trkpt lat="48.03506" lon="6.40033">
        <ele>556.2</ele>
        <time>2023-04-30T15:22:05Z</time>
      </trkpt>
      <trkpt lat="48.03499" lon="6.40037">
        <ele>556.2</ele>
        <time>2023-04-30T15:22:06Z</time>
      </trkpt>
      <trkpt lat="48.03492" lon="6.4004">
        <ele>556.1</ele>
        <time>2023-04-30T15:22:07Z</time>
      </trkpt>
      <trkpt lat="48.03485" lon="6.40043">
        <ele>556</ele>
        <time>2023-04-30T15:22:08Z</time>
      </trkpt>
      <trkpt lat="48.03478" lon="6.40046">
        <ele>556</ele>
        <time>2023-04-30T15:22:09Z</time>
      </trkpt>
      <trkpt lat="48.03471" lon="6.40049">
        <ele>555.9</ele>
        <time>2023-04-30T15:22:10Z</time>
      </trkpt>
      <trkpt lat="48.03464" lon="6.40052">
        <ele>555.9</ele>
        <time>2023-04-30T15:22:11Z</time>
      </trkpt>
      <trkpt lat="48.03457" lon="6.40055">
        <ele>555.9</ele>
        <time>2023-04-30T15:22:12Z</time>
      </trkpt>
      <trkpt lat="48.0345" lon="6.40059">
        <ele>555.8</ele>
        <time>2023-04-30T15:22:13Z</time>
      </trkpt>
      <trkpt lat="48.03443" lon="6.40063">
        <ele>555.8</ele>
        <time>2023-04-30T15:22:14Z</time>
      </trkpt>
      <trkpt lat="48.03437" lon="6.40068">
        <ele>555.8</ele>
        <time>2023-04-30T15:22:15Z</time>
      </trkpt>
      <trkpt lat="48.0343" lon="6.40074">
        <ele>555.9</ele>
        <time>2023-04-30T15:22:16Z</time>
      </trkpt>
      <trkpt lat="48.03423" lon="6.40079">
        <ele>555.9</ele>
        <time>2023-04-30T15:22:17Z</time>
      </trkpt>
      <trkpt lat="48.03417" lon="6.40085">
        <ele>556</ele>
        <time>2023-04-30T15:22:18Z</time>
      </trkpt>
      <trkpt lat="48.0341" lon="6.40089">
        <ele>556</ele>
        <time>2023-04-30T15:22:19Z</time>
      </trkpt>
      <trkpt lat="48.03403" lon="6.40093">
        <ele>556.1</ele>
        <time>2023-04-30T15:22:20Z</time>
      </trkpt>
      <trkpt lat="48.03396" lon="6.40096">
        <ele>556.1</ele>
        <time>2023-04-30T15:22:21Z</time>
      </trkpt>
      <trkpt lat="48.03389" lon="6.40098">
        <ele>556.2</ele>
        <time>2023-04-30T15:22:22Z</time>
      </trkpt>
      <trkpt lat="48.03382" lon="6.401">
        <ele>556.3</ele>
        <time>2023-04-30T15:22:23Z</time>
      </trkpt>
      <trkpt lat="48.03375" lon="6.40101">
        <ele>556.4</ele>
        <time>2023-04-30T15:22:24Z</time>
      </trkpt>
      <trkpt lat="48.03369" lon="6.40102">
        <ele>556.5</ele>
        <time>2023-04-30T15:22:25Z</time>
      </trkpt>
      <trkpt lat="48.03362" lon="6.40102">
        <ele>556.6</ele>
        <time>2023-04-30T15:22:26Z</time>
      </trkpt>
      <trkpt lat="48.03356" lon="6.40103">
        <ele>556.7</ele>
        <time>2023-04-30T15:22:27Z</time>
      </trkpt>
      <trkpt lat="48.03349" lon="6.40102">
        <ele>556.7</ele>
        <time>2023-04-30T15:22:28Z</time>
      </trkpt>
      <trkpt lat="48.03342" lon="6.40102">
        <ele>556.7</ele>
        <time>2023-04-30T15:22:29Z</time>
      </trkpt>
      <trkpt lat="48.03336" lon="6.40102">
        <ele>556.8</ele>
        <time>2023-04-30T15:22:30Z</time>
      </trkpt>
      <trkpt lat="48.03329" lon="6.40101">
        <ele>556.8</ele>
        <time>2023-04-30T15:22:31Z</time>
      </trkpt>
      <trkpt lat="48.03323" lon="6.401">
        <ele>556.8</ele>
        <time>2023-04-30T15:22:32Z</time>
      </trkpt>
      <trkpt lat="48.03317" lon="6.40098">
        <ele>556.9</ele>
        <time>2023-04-30T15:22:33Z</time>
      </trkpt>
      <trkpt lat="48.03311" lon="6.40095">
        <ele>557</ele>
        <time>2023-04-30T15:22:34Z</time>
      </trkpt>
      <trkpt lat="48.03306" lon="6.40092">
        <ele>557</ele>
        <time>2023-04-30T15:22:35Z</time>
      </trkpt>
      <trkpt lat="48.033" lon="6.40089">
        <ele>557.1</ele>
        <time>2023-04-30T15:22:36Z</time>
      </trkpt>
      <trkpt lat="48.03295" lon="6.40087">
        <ele>557.2</ele>
        <time>2023-04-30T15:22:37Z</time>
      </trkpt>
      <trkpt lat="48.0329" lon="6.40084">
        <ele>557.3</ele>
        <time>2023-04-30T15:22:38Z</time>
      </trkpt>
      <trkpt lat="48.03286" lon="6.40082">
        <ele>557.4</ele>
        <time>2023-04-30T15:22:39Z</time>
      </trkpt>
      <trkpt lat="48.03283" lon="6.4008">
        <ele>557.5</ele>
        <time>2023-04-30T15:22:40Z</time>
      </trkpt>
      <trkpt lat="48.03278" lon="6.40077">
        <ele>557.6</ele>
        <time>2023-04-30T15:22:41Z</time>
      </trkpt>
      <trkpt lat="48.03275" lon="6.40075">
        <ele>557.7</ele>
        <time>2023-04-30T15:22:42Z</time>
      </trkpt>
      <trkpt lat="48.03269" lon="6.40071">
        <ele>557.9</ele>
        <time>2023-04-30T15:22:43Z</time>
      </trkpt>
      <trkpt lat="48.03262" lon="6.40067">
        <ele>558</ele>
        <time>2023-04-30T15:22:44Z</time>
      </trkpt>
      <trkpt lat="48.0326" lon="6.40064">
        <ele>558.1</ele>
        <time>2023-04-30T15:22:45Z</time>
      </trkpt>
      <trkpt lat="48.03258" lon="6.40062">
        <ele>558.2</ele>
        <time>2023-04-30T15:22:46Z</time>
      </trkpt>
      <trkpt lat="48.03255" lon="6.4006">
        <ele>558.3</ele>
        <time>2023-04-30T15:22:47Z</time>
      </trkpt>
      <trkpt lat="48.03253" lon="6.40057">
        <ele>558.3</ele>
        <time>2023-04-30T15:22:48Z</time>
      </trkpt>
      <trkpt lat="48.03252" lon="6.40057">
        <ele>558.4</ele>
        <time>2023-04-30T15:22:49Z</time>
      </trkpt>
      <trkpt lat="48.03245" lon="6.40054">
        <ele>558.5</ele>
        <time>2023-04-30T15:22:50Z</time>
      </trkpt>
      <trkpt lat="48.03243" lon="6.40052">
        <ele>558.6</ele>
        <time>2023-04-30T15:22:51Z</time>
      </trkpt>
      <trkpt lat="48.0324" lon="6.4005">
        <ele>558.7</ele>
        <time>2023-04-30T15:22:52Z</time>
      </trkpt>
      <trkpt lat="48.03236" lon="6.40049">
        <ele>558.7</ele>
        <time>2023-04-30T15:22:53Z</time>
      </trkpt>
      <trkpt lat="48.03232" lon="6.40049">
        <ele>558.8</ele>
        <time>2023-04-30T15:22:54Z</time>
      </trkpt>
      <trkpt lat="48.03228" lon="6.40049">
        <ele>558.8</ele>
        <time>2023-04-30T15:22:55Z</time>
      </trkpt>
      <trkpt lat="48.03222" lon="6.40047">
        <ele>558.9</ele>
        <time>2023-04-30T15:22:56Z</time>
      </trkpt>
      <trkpt lat="48.03216" lon="6.40045">
        <ele>558.9</ele>
        <time>2023-04-30T15:22:57Z</time>
      </trkpt>
      <trkpt lat="48.03208" lon="6.40043">
        <ele>558.9</ele>
        <time>2023-04-30T15:22:58Z</time>
      </trkpt>
      <trkpt lat="48.03199" lon="6.4004">
        <ele>558.9</ele>
        <time>2023-04-30T15:22:59Z</time>
      </trkpt>
      <trkpt lat="48.03193" lon="6.40037">
        <ele>559</ele>
        <time>2023-04-30T15:23:00Z</time>
      </trkpt>
      <trkpt lat="48.03187" lon="6.40034">
        <ele>559.1</ele>
        <time>2023-04-30T15:23:01Z</time>
      </trkpt>
      <trkpt lat="48.03183" lon="6.40033">
        <ele>559.2</ele>
        <time>2023-04-30T15:23:02Z</time>
      </trkpt>
      <trkpt lat="48.03178" lon="6.40032">
        <ele>559.2</ele>
        <time>2023-04-30T15:23:03Z</time>
      </trkpt>
      <trkpt lat="48.03173" lon="6.4003">
        <ele>559.3</ele>
        <time>2023-04-30T15:23:04Z</time>
      </trkpt>
      <trkpt lat="48.03167" lon="6.40028">
        <ele>559.4</ele>
        <time>2023-04-30T15:23:05Z</time>
      </trkpt>
      <trkpt lat="48.03161" lon="6.40026">
        <ele>559.4</ele>
        <time>2023-04-30T15:23:06Z</time>
      </trkpt>
      <trkpt lat="48.03156" lon="6.40024">
        <ele>559.5</ele>
        <time>2023-04-30T15:23:07Z</time>
      </trkpt>
      <trkpt lat="48.0315" lon="6.40021">
        <ele>559.5</ele>
        <time>2023-04-30T15:23:08Z</time>
      </trkpt>
      <trkpt lat="48.03144" lon="6.40019">
        <ele>559.4</ele>
        <time>2023-04-30T15:23:09Z</time>
      </trkpt>
      <trkpt lat="48.03137" lon="6.40018">
        <ele>559.4</ele>
        <time>2023-04-30T15:23:10Z</time>
      </trkpt>
      <trkpt lat="48.03131" lon="6.40016">
        <ele>559.5</ele>
        <time>2023-04-30T15:23:11Z</time>
      </trkpt>
      <trkpt lat="48.03124" lon="6.40014">
        <ele>559.6</ele>
        <time>2023-04-30T15:23:12Z</time>
      </trkpt>
      <trkpt lat="48.03117" lon="6.40012">
        <ele>559.7</ele>
        <time>2023-04-30T15:23:13Z</time>
      </trkpt>
      <trkpt lat="48.0311" lon="6.4001">
        <ele>559.9</ele>
        <time>2023-04-30T15:23:14Z</time>
      </trkpt>
      <trkpt lat="48.03103" lon="6.40008">
        <ele>560.2</ele>
        <time>2023-04-30T15:23:15Z</time>
      </trkpt>
      <trkpt lat="48.03096" lon="6.40007">
        <ele>560.4</ele>
        <time>2023-04-30T15:23:16Z</time>
      </trkpt>
      <trkpt lat="48.0309" lon="6.40007">
        <ele>560.6</ele>
        <time>2023-04-30T15:23:17Z</time>
      </trkpt>
      <trkpt lat="48.03084" lon="6.40008">
        <ele>560.9</ele>
        <time>2023-04-30T15:23:18Z</time>
      </trkpt>
      <trkpt lat="48.03078" lon="6.4001">
        <ele>561.2</ele>
        <time>2023-04-30T15:23:19Z</time>
      </trkpt>
      <trkpt lat="48.03073" lon="6.40013">
        <ele>561.5</ele>
        <time>2023-04-30T15:23:20Z</time>
      </trkpt>
      <trkpt lat="48.03068" lon="6.40016">
        <ele>561.8</ele>
        <time>2023-04-30T15:23:21Z</time>
      </trkpt>
      <trkpt lat="48.03062" lon="6.4002">
        <ele>562.2</ele>
        <time>2023-04-30T15:23:22Z</time>
      </trkpt>
      <trkpt lat="48.03058" lon="6.40024">
        <ele>562.6</ele>
        <time>2023-04-30T15:23:23Z</time>
      </trkpt>
      <trkpt lat="48.03054" lon="6.40027">
        <ele>563</ele>
        <time>2023-04-30T15:23:24Z</time>
      </trkpt>
      <trkpt lat="48.03051" lon="6.4003">
        <ele>563.3</ele>
        <time>2023-04-30T15:23:25Z</time>
      </trkpt>
      <trkpt lat="48.03048" lon="6.40033">
        <ele>563.5</ele>
        <time>2023-04-30T15:23:26Z</time>
      </trkpt>
      <trkpt lat="48.03044" lon="6.40036">
        <ele>563.9</ele>
        <time>2023-04-30T15:23:27Z</time>
      </trkpt>
      <trkpt lat="48.0304" lon="6.4004">
        <ele>564.4</ele>
        <time>2023-04-30T15:23:28Z</time>
      </trkpt>
      <trkpt lat="48.03037" lon="6.40043">
        <ele>564.8</ele>
        <time>2023-04-30T15:23:29Z</time>
      </trkpt>
      <trkpt lat="48.03034" lon="6.40046">
        <ele>565.2</ele>
        <time>2023-04-30T15:23:30Z</time>
      </trkpt>
      <trkpt lat="48.03031" lon="6.40051">
        <ele>565.7</ele>
        <time>2023-04-30T15:23:31Z</time>
      </trkpt>
      <trkpt lat="48.03027" lon="6.40053">
        <ele>566.2</ele>
        <time>2023-04-30T15:23:32Z</time>
      </trkpt>
      <trkpt lat="48.03026" lon="6.40054">
        <ele>566.4</ele>
        <time>2023-04-30T15:23:33Z</time>
      </trkpt>
      <trkpt lat="48.03024" lon="6.40056">
        <ele>566.7</ele>
        <time>2023-04-30T15:23:34Z</time>
      </trkpt>
      <trkpt lat="48.03021" lon="6.4006">
        <ele>567.2</ele>
        <time>2023-04-30T15:23:35Z</time>
      </trkpt>
      <trkpt lat="48.03018" lon="6.40062">
        <ele>567.6</ele>
        <time>2023-04-30T15:23:36Z</time>
      </trkpt>
      <trkpt lat="48.03017" lon="6.40063">
        <ele>567.7</ele>
        <time>2023-04-30T15:23:37Z</time>
      </trkpt>
      <trkpt lat="48.03014" lon="6.40065">
        <ele>568.2</ele>
        <time>2023-04-30T15:23:38Z</time>
      </trkpt>
      <trkpt lat="48.03012" lon="6.40066">
        <ele>568.4</ele>
        <time>2023-04-30T15:23:39Z</time>
      </trkpt>
      <trkpt lat="48.0301" lon="6.40068">
        <ele>568.8</ele>
        <time>2023-04-30T15:23:40Z</time>
      </trkpt>
      <trkpt lat="48.03007" lon="6.40071">
        <ele>569.2</ele>
        <time>2023-04-30T15:23:41Z</time>
      </trkpt>
      <trkpt lat="48.03003" lon="6.40075">
        <ele>569.7</ele>
        <time>2023-04-30T15:23:42Z</time>
      </trkpt>
      <trkpt lat="48.03" lon="6.40079">
        <ele>570.3</ele>
        <time>2023-04-30T15:23:43Z</time>
      </trkpt>
      <trkpt lat="48.02997" lon="6.40083">
        <ele>570.7</ele>
        <time>2023-04-30T15:23:44Z</time>
      </trkpt>
      <trkpt lat="48.02995" lon="6.40086">
        <ele>571.1</ele>
        <time>2023-04-30T15:23:45Z</time>
      </trkpt>
      <trkpt lat="48.02993" lon="6.40088">
        <ele>571.5</ele>
        <time>2023-04-30T15:23:46Z</time>
      </trkpt>
      <trkpt lat="48.02992" lon="6.40089">
        <ele>571.6</ele>
        <time>2023-04-30T15:23:47Z</time>
      </trkpt>
      <trkpt lat="48.0299" lon="6.4009">
        <ele>571.8</ele>
        <time>2023-04-30T15:23:48Z</time>
      </trkpt>
      <trkpt lat="48.02988" lon="6.40091">
        <ele>572</ele>
        <time>2023-04-30T15:23:49Z</time>
      </trkpt>
      <trkpt lat="48.02986" lon="6.40095">
        <ele>572.3</ele>
        <time>2023-04-30T15:23:50Z</time>
      </trkpt>
      <trkpt lat="48.02986" lon="6.40096">
        <ele>572.5</ele>
        <time>2023-04-30T15:23:51Z</time>
      </trkpt>
      <trkpt lat="48.02984" lon="6.40098">
        <ele>572.6</ele>
        <time>2023-04-30T15:23:52Z</time>
      </trkpt>
      <trkpt lat="48.02983" lon="6.401">
        <ele>572.8</ele>
        <time>2023-04-30T15:23:53Z</time>
      </trkpt>
      <trkpt lat="48.02982" lon="6.40101">
        <ele>573</ele>
        <time>2023-04-30T15:23:54Z</time>
      </trkpt>
      <trkpt lat="48.02981" lon="6.40103">
        <ele>573.2</ele>
        <time>2023-04-30T15:23:55Z</time>
      </trkpt>
      <trkpt lat="48.02979" lon="6.40107">
        <ele>573.5</ele>
        <time>2023-04-30T15:23:56Z</time>
      </trkpt>
      <trkpt lat="48.02978" lon="6.40108">
        <ele>573.6</ele>
        <time>2023-04-30T15:23:57Z</time>
      </trkpt>
      <trkpt lat="48.02977" lon="6.40109">
        <ele>573.8</ele>
        <time>2023-04-30T15:23:58Z</time>
      </trkpt>
      <trkpt lat="48.02975" lon="6.40111">
        <ele>574</ele>
        <time>2023-04-30T15:23:59Z</time>
      </trkpt>
      <trkpt lat="48.02973" lon="6.40112">
        <ele>574.2</ele>
        <time>2023-04-30T15:24:00Z</time>
      </trkpt>
      <trkpt lat="48.0297" lon="6.40117">
        <ele>574.6</ele>
        <time>2023-04-30T15:24:02Z</time>
      </trkpt>
      <trkpt lat="48.02965" lon="6.40131">
        <ele>575.7</ele>
        <time>2023-04-30T15:24:03Z</time>
      </trkpt>
      <trkpt lat="48.02961" lon="6.40139">
        <ele>576.3</ele>
        <time>2023-04-30T15:24:04Z</time>
      </trkpt>
      <trkpt lat="48.02957" lon="6.40151">
        <ele>577</ele>
        <time>2023-04-30T15:24:06Z</time>
      </trkpt>
      <trkpt lat="48.02954" lon="6.40154">
        <ele>577.3</ele>
        <time>2023-04-30T15:24:07Z</time>
      </trkpt>
      <trkpt lat="48.02952" lon="6.40159">
        <ele>577.5</ele>
        <time>2023-04-30T15:24:09Z</time>
      </trkpt>
      <trkpt lat="48.02955" lon="6.40161">
        <ele>577.7</ele>
        <time>2023-04-30T15:24:10Z</time>
      </trkpt>
      <trkpt lat="48.02937" lon="6.40174">
        <ele>578.1</ele>
        <time>2023-04-30T15:24:11Z</time>
      </trkpt>
      <trkpt lat="48.02933" lon="6.40177">
        <ele>578.1</ele>
        <time>2023-04-30T15:24:12Z</time>
      </trkpt>
      <trkpt lat="48.02927" lon="6.40181">
        <ele>578</ele>
        <time>2023-04-30T15:24:13Z</time>
      </trkpt>
      <trkpt lat="48.02921" lon="6.40184">
        <ele>577.8</ele>
        <time>2023-04-30T15:24:14Z</time>
      </trkpt>
      <trkpt lat="48.02915" lon="6.40188">
        <ele>577.3</ele>
        <time>2023-04-30T15:24:15Z</time>
      </trkpt>
      <trkpt lat="48.02909" lon="6.40193">
        <ele>576.5</ele>
        <time>2023-04-30T15:24:16Z</time>
      </trkpt>
      <trkpt lat="48.02903" lon="6.40197">
        <ele>575.7</ele>
        <time>2023-04-30T15:24:17Z</time>
      </trkpt>
      <trkpt lat="48.02897" lon="6.402">
        <ele>574.8</ele>
        <time>2023-04-30T15:24:18Z</time>
      </trkpt>
      <trkpt lat="48.02886" lon="6.40204">
        <ele>573.5</ele>
        <time>2023-04-30T15:24:19Z</time>
      </trkpt>
      <trkpt lat="48.02877" lon="6.40209">
        <ele>572.4</ele>
        <time>2023-04-30T15:24:20Z</time>
      </trkpt>
      <trkpt lat="48.02867" lon="6.40215">
        <ele>571.2</ele>
        <time>2023-04-30T15:24:21Z</time>
      </trkpt>
      <trkpt lat="48.02857" lon="6.4022">
        <ele>570.1</ele>
        <time>2023-04-30T15:24:22Z</time>
      </trkpt>
      <trkpt lat="48.02847" lon="6.40225">
        <ele>569</ele>
        <time>2023-04-30T15:24:23Z</time>
      </trkpt>
      <trkpt lat="48.02838" lon="6.40229">
        <ele>568</ele>
        <time>2023-04-30T15:24:24Z</time>
      </trkpt>
      <trkpt lat="48.02829" lon="6.40233">
        <ele>567</ele>
        <time>2023-04-30T15:24:25Z</time>
      </trkpt>
      <trkpt lat="48.0282" lon="6.40237">
        <ele>566</ele>
        <time>2023-04-30T15:24:26Z</time>
      </trkpt>
      <trkpt lat="48.02811" lon="6.40241">
        <ele>565</ele>
        <time>2023-04-30T15:24:27Z</time>
      </trkpt>
      <trkpt lat="48.02802" lon="6.40249">
        <ele>563.9</ele>
        <time>2023-04-30T15:24:28Z</time>
      </trkpt>
      <trkpt lat="48.02792" lon="6.40255">
        <ele>562.9</ele>
        <time>2023-04-30T15:24:29Z</time>
      </trkpt>
      <trkpt lat="48.02783" lon="6.4026">
        <ele>561.8</ele>
        <time>2023-04-30T15:24:30Z</time>
      </trkpt>
      <trkpt lat="48.02775" lon="6.40263">
        <ele>560.9</ele>
        <time>2023-04-30T15:24:31Z</time>
      </trkpt>
      <trkpt lat="48.02766" lon="6.4027">
        <ele>560</ele>
        <time>2023-04-30T15:24:32Z</time>
      </trkpt>
      <trkpt lat="48.02757" lon="6.40275">
        <ele>559</ele>
        <time>2023-04-30T15:24:33Z</time>
      </trkpt>
      <trkpt lat="48.0275" lon="6.40281">
        <ele>558.1</ele>
        <time>2023-04-30T15:24:34Z</time>
      </trkpt>
      <trkpt lat="48.02742" lon="6.40287">
        <ele>557.3</ele>
        <time>2023-04-30T15:24:35Z</time>
      </trkpt>
      <trkpt lat="48.02734" lon="6.40293">
        <ele>556.4</ele>
        <time>2023-04-30T15:24:36Z</time>
      </trkpt>
      <trkpt lat="48.02725" lon="6.40299">
        <ele>555.5</ele>
        <time>2023-04-30T15:24:37Z</time>
      </trkpt>
      <trkpt lat="48.02716" lon="6.40307">
        <ele>554.6</ele>
        <time>2023-04-30T15:24:38Z</time>
      </trkpt>
      <trkpt lat="48.02708" lon="6.40316">
        <ele>553.8</ele>
        <time>2023-04-30T15:24:39Z</time>
      </trkpt>
      <trkpt lat="48.02702" lon="6.40327">
        <ele>553.1</ele>
        <time>2023-04-30T15:24:40Z</time>
      </trkpt>
      <trkpt lat="48.02696" lon="6.40339">
        <ele>552.3</ele>
        <time>2023-04-30T15:24:41Z</time>
      </trkpt>
      <trkpt lat="48.02691" lon="6.40351">
        <ele>551.6</ele>
        <time>2023-04-30T15:24:42Z</time>
      </trkpt>
      <trkpt lat="48.02685" lon="6.40363">
        <ele>550.8</ele>
        <time>2023-04-30T15:24:43Z</time>
      </trkpt>
      <trkpt lat="48.0268" lon="6.40374">
        <ele>550.1</ele>
        <time>2023-04-30T15:24:44Z</time>
      </trkpt>
      <trkpt lat="48.02674" lon="6.40386">
        <ele>549.1</ele>
        <time>2023-04-30T15:24:45Z</time>
      </trkpt>
      <trkpt lat="48.02669" lon="6.40397">
        <ele>548.2</ele>
        <time>2023-04-30T15:24:46Z</time>
      </trkpt>
      <trkpt lat="48.02663" lon="6.40409">
        <ele>547.3</ele>
        <time>2023-04-30T15:24:47Z</time>
      </trkpt>
      <trkpt lat="48.02657" lon="6.4042">
        <ele>546.4</ele>
        <time>2023-04-30T15:24:48Z</time>
      </trkpt>
      <trkpt lat="48.02651" lon="6.40431">
        <ele>545.4</ele>
        <time>2023-04-30T15:24:49Z</time>
      </trkpt>
      <trkpt lat="48.02645" lon="6.40443">
        <ele>544.5</ele>
        <time>2023-04-30T15:24:50Z</time>
      </trkpt>
      <trkpt lat="48.0264" lon="6.40454">
        <ele>543.4</ele>
        <time>2023-04-30T15:24:51Z</time>
      </trkpt>
      <trkpt lat="48.02635" lon="6.40466">
        <ele>542.9</ele>
        <time>2023-04-30T15:24:52Z</time>
      </trkpt>
      <trkpt lat="48.02631" lon="6.40478">
        <ele>542.3</ele>
        <time>2023-04-30T15:24:53Z</time>
      </trkpt>
      <trkpt lat="48.02627" lon="6.4049">
        <ele>541.8</ele>
        <time>2023-04-30T15:24:54Z</time>
      </trkpt>
      <trkpt lat="48.02624" lon="6.40504">
        <ele>541.3</ele>
        <time>2023-04-30T15:24:55Z</time>
      </trkpt>
      <trkpt lat="48.02622" lon="6.40519">
        <ele>540.8</ele>
        <time>2023-04-30T15:24:56Z</time>
      </trkpt>
      <trkpt lat="48.0262" lon="6.40534">
        <ele>540.3</ele>
        <time>2023-04-30T15:24:57Z</time>
      </trkpt>
      <trkpt lat="48.02619" lon="6.40549">
        <ele>539.9</ele>
        <time>2023-04-30T15:24:58Z</time>
      </trkpt>
      <trkpt lat="48.02618" lon="6.40563">
        <ele>539.5</ele>
        <time>2023-04-30T15:24:59Z</time>
      </trkpt>
      <trkpt lat="48.02616" lon="6.40578">
        <ele>539.2</ele>
        <time>2023-04-30T15:25:00Z</time>
      </trkpt>
      <trkpt lat="48.02615" lon="6.40592">
        <ele>539.1</ele>
        <time>2023-04-30T15:25:01Z</time>
      </trkpt>
      <trkpt lat="48.02613" lon="6.40606">
        <ele>538.9</ele>
        <time>2023-04-30T15:25:02Z</time>
      </trkpt>
      <trkpt lat="48.02612" lon="6.40619">
        <ele>538.9</ele>
        <time>2023-04-30T15:25:03Z</time>
      </trkpt>
      <trkpt lat="48.02611" lon="6.40631">
        <ele>538.9</ele>
        <time>2023-04-30T15:25:04Z</time>
      </trkpt>
      <trkpt lat="48.02609" lon="6.40643">
        <ele>538.9</ele>
        <time>2023-04-30T15:25:05Z</time>
      </trkpt>
      <trkpt lat="48.02607" lon="6.40655">
        <ele>538.9</ele>
        <time>2023-04-30T15:25:06Z</time>
      </trkpt>
      <trkpt lat="48.02605" lon="6.40666">
        <ele>539</ele>
        <time>2023-04-30T15:25:07Z</time>
      </trkpt>
      <trkpt lat="48.02603" lon="6.40676">
        <ele>539.1</ele>
        <time>2023-04-30T15:25:08Z</time>
      </trkpt>
      <trkpt lat="48.02601" lon="6.40686">
        <ele>539.2</ele>
        <time>2023-04-30T15:25:09Z</time>
      </trkpt>
      <trkpt lat="48.02599" lon="6.40696">
        <ele>539.3</ele>
        <time>2023-04-30T15:25:10Z</time>
      </trkpt>
      <trkpt lat="48.02598" lon="6.40707">
        <ele>539.5</ele>
        <time>2023-04-30T15:25:11Z</time>
      </trkpt>
      <trkpt lat="48.02597" lon="6.40718">
        <ele>539.6</ele>
        <time>2023-04-30T15:25:12Z</time>
      </trkpt>
      <trkpt lat="48.02596" lon="6.40728">
        <ele>539.8</ele>
        <time>2023-04-30T15:25:13Z</time>
      </trkpt>
      <trkpt lat="48.02596" lon="6.40739">
        <ele>540</ele>
        <time>2023-04-30T15:25:14Z</time>
      </trkpt>
      <trkpt lat="48.02597" lon="6.40749">
        <ele>540.2</ele>
        <time>2023-04-30T15:25:15Z</time>
      </trkpt>
      <trkpt lat="48.02598" lon="6.40759">
        <ele>540.5</ele>
        <time>2023-04-30T15:25:16Z</time>
      </trkpt>
      <trkpt lat="48.026" lon="6.40769">
        <ele>540.7</ele>
        <time>2023-04-30T15:25:17Z</time>
      </trkpt>
      <trkpt lat="48.02602" lon="6.40778">
        <ele>541</ele>
        <time>2023-04-30T15:25:18Z</time>
      </trkpt>
      <trkpt lat="48.02605" lon="6.40786">
        <ele>541.3</ele>
        <time>2023-04-30T15:25:19Z</time>
      </trkpt>
      <trkpt lat="48.02607" lon="6.40794">
        <ele>541.5</ele>
        <time>2023-04-30T15:25:20Z</time>
      </trkpt>
      <trkpt lat="48.02609" lon="6.40801">
        <ele>541.8</ele>
        <time>2023-04-30T15:25:21Z</time>
      </trkpt>
      <trkpt lat="48.02611" lon="6.40809">
        <ele>542.1</ele>
        <time>2023-04-30T15:25:22Z</time>
      </trkpt>
      <trkpt lat="48.02613" lon="6.40817">
        <ele>542.4</ele>
        <time>2023-04-30T15:25:23Z</time>
      </trkpt>
      <trkpt lat="48.02615" lon="6.40824">
        <ele>542.6</ele>
        <time>2023-04-30T15:25:24Z</time>
      </trkpt>
      <trkpt lat="48.02617" lon="6.40831">
        <ele>542.9</ele>
        <time>2023-04-30T15:25:25Z</time>
      </trkpt>
      <trkpt lat="48.02619" lon="6.40838">
        <ele>543.2</ele>
        <time>2023-04-30T15:25:26Z</time>
      </trkpt>
      <trkpt lat="48.02622" lon="6.40845">
        <ele>543.5</ele>
        <time>2023-04-30T15:25:27Z</time>
      </trkpt>
      <trkpt lat="48.02624" lon="6.40851">
        <ele>543.7</ele>
        <time>2023-04-30T15:25:28Z</time>
      </trkpt>
      <trkpt lat="48.02626" lon="6.40857">
        <ele>544</ele>
        <time>2023-04-30T15:25:29Z</time>
      </trkpt>
      <trkpt lat="48.02627" lon="6.40862">
        <ele>544.2</ele>
        <time>2023-04-30T15:25:30Z</time>
      </trkpt>
      <trkpt lat="48.02628" lon="6.40869">
        <ele>544.5</ele>
        <time>2023-04-30T15:25:31Z</time>
      </trkpt>
      <trkpt lat="48.02629" lon="6.40873">
        <ele>544.7</ele>
        <time>2023-04-30T15:25:32Z</time>
      </trkpt>
      <trkpt lat="48.02631" lon="6.40881">
        <ele>545</ele>
        <time>2023-04-30T15:25:33Z</time>
      </trkpt>
      <trkpt lat="48.02632" lon="6.40887">
        <ele>545.2</ele>
        <time>2023-04-30T15:25:34Z</time>
      </trkpt>
      <trkpt lat="48.02634" lon="6.40893">
        <ele>545.5</ele>
        <time>2023-04-30T15:25:35Z</time>
      </trkpt>
      <trkpt lat="48.02635" lon="6.40901">
        <ele>545.8</ele>
        <time>2023-04-30T15:25:36Z</time>
      </trkpt>
      <trkpt lat="48.02638" lon="6.40907">
        <ele>546</ele>
        <time>2023-04-30T15:25:37Z</time>
      </trkpt>
      <trkpt lat="48.0264" lon="6.40912">
        <ele>546.2</ele>
        <time>2023-04-30T15:25:38Z</time>
      </trkpt>
      <trkpt lat="48.02643" lon="6.40919">
        <ele>546.5</ele>
        <time>2023-04-30T15:25:39Z</time>
      </trkpt>
      <trkpt lat="48.02645" lon="6.40925">
        <ele>546.7</ele>
        <time>2023-04-30T15:25:40Z</time>
      </trkpt>
      <trkpt lat="48.02646" lon="6.40932">
        <ele>546.9</ele>
        <time>2023-04-30T15:25:41Z</time>
      </trkpt>
      <trkpt lat="48.02647" lon="6.40941">
        <ele>547.2</ele>
        <time>2023-04-30T15:25:42Z</time>
      </trkpt>
      <trkpt lat="48.02647" lon="6.4095">
        <ele>547.4</ele>
        <time>2023-04-30T15:25:43Z</time>
      </trkpt>
      <trkpt lat="48.02649" lon="6.40956">
        <ele>547.6</ele>
        <time>2023-04-30T15:25:44Z</time>
      </trkpt>
      <trkpt lat="48.0265" lon="6.40962">
        <ele>547.8</ele>
        <time>2023-04-30T15:25:45Z</time>
      </trkpt>
      <trkpt lat="48.0265" lon="6.40967">
        <ele>547.9</ele>
        <time>2023-04-30T15:25:46Z</time>
      </trkpt>
      <trkpt lat="48.0265" lon="6.40974">
        <ele>548</ele>
        <time>2023-04-30T15:25:47Z</time>
      </trkpt>
      <trkpt lat="48.0265" lon="6.40982">
        <ele>548.2</ele>
        <time>2023-04-30T15:25:48Z</time>
      </trkpt>
      <trkpt lat="48.0265" lon="6.40991">
        <ele>548.3</ele>
        <time>2023-04-30T15:25:49Z</time>
      </trkpt>
      <trkpt lat="48.0265" lon="6.40998">
        <ele>548.3</ele>
        <time>2023-04-30T15:25:50Z</time>
      </trkpt>
      <trkpt lat="48.0265" lon="6.41002">
        <ele>548.4</ele>
        <time>2023-04-30T15:25:51Z</time>
      </trkpt>
      <trkpt lat="48.02649" lon="6.41006">
        <ele>548.4</ele>
        <time>2023-04-30T15:25:52Z</time>
      </trkpt>
      <trkpt lat="48.02649" lon="6.41011">
        <ele>548.3</ele>
        <time>2023-04-30T15:25:53Z</time>
      </trkpt>
      <trkpt lat="48.02649" lon="6.4102">
        <ele>548.2</ele>
        <time>2023-04-30T15:25:54Z</time>
      </trkpt>
      <trkpt lat="48.02647" lon="6.4103">
        <ele>548.1</ele>
        <time>2023-04-30T15:25:55Z</time>
      </trkpt>
      <trkpt lat="48.02645" lon="6.41038">
        <ele>547.9</ele>
        <time>2023-04-30T15:25:56Z</time>
      </trkpt>
      <trkpt lat="48.02644" lon="6.41046">
        <ele>547.7</ele>
        <time>2023-04-30T15:25:57Z</time>
      </trkpt>
      <trkpt lat="48.02642" lon="6.41054">
        <ele>547.6</ele>
        <time>2023-04-30T15:25:58Z</time>
      </trkpt>
      <trkpt lat="48.02638" lon="6.41062">
        <ele>547.4</ele>
        <time>2023-04-30T15:25:59Z</time>
      </trkpt>
      <trkpt lat="48.02634" lon="6.41069">
        <ele>547.2</ele>
        <time>2023-04-30T15:26:00Z</time>
      </trkpt>
      <trkpt lat="48.02631" lon="6.41077">
        <ele>547</ele>
        <time>2023-04-30T15:26:01Z</time>
      </trkpt>
      <trkpt lat="48.02628" lon="6.41086">
        <ele>546.8</ele>
        <time>2023-04-30T15:26:02Z</time>
      </trkpt>
      <trkpt lat="48.02625" lon="6.41094">
        <ele>546.6</ele>
        <time>2023-04-30T15:26:03Z</time>
      </trkpt>
      <trkpt lat="48.02622" lon="6.41101">
        <ele>546.4</ele>
        <time>2023-04-30T15:26:04Z</time>
      </trkpt>
      <trkpt lat="48.02618" lon="6.4111">
        <ele>546.3</ele>
        <time>2023-04-30T15:26:05Z</time>
      </trkpt>
      <trkpt lat="48.02615" lon="6.41118">
        <ele>546.1</ele>
        <time>2023-04-30T15:26:06Z</time>
      </trkpt>
      <trkpt lat="48.02612" lon="6.41127">
        <ele>545.9</ele>
        <time>2023-04-30T15:26:07Z</time>
      </trkpt>
      <trkpt lat="48.02609" lon="6.41136">
        <ele>545.8</ele>
        <time>2023-04-30T15:26:08Z</time>
      </trkpt>
      <trkpt lat="48.02606" lon="6.41144">
        <ele>545.6</ele>
        <time>2023-04-30T15:26:09Z</time>
      </trkpt>
      <trkpt lat="48.02603" lon="6.41152">
        <ele>545.4</ele>
        <time>2023-04-30T15:26:10Z</time>
      </trkpt>
      <trkpt lat="48.026" lon="6.4116">
        <ele>545.2</ele>
        <time>2023-04-30T15:26:11Z</time>
      </trkpt>
      <trkpt lat="48.02597" lon="6.41169">
        <ele>545</ele>
        <time>2023-04-30T15:26:12Z</time>
      </trkpt>
      <trkpt lat="48.02593" lon="6.41178">
        <ele>544.7</ele>
        <time>2023-04-30T15:26:13Z</time>
      </trkpt>
      <trkpt lat="48.0259" lon="6.41186">
        <ele>544.5</ele>
        <time>2023-04-30T15:26:14Z</time>
      </trkpt>
      <trkpt lat="48.02586" lon="6.41194">
        <ele>544.3</ele>
        <time>2023-04-30T15:26:15Z</time>
      </trkpt>
      <trkpt lat="48.02583" lon="6.41203">
        <ele>544</ele>
        <time>2023-04-30T15:26:16Z</time>
      </trkpt>
      <trkpt lat="48.02579" lon="6.41211">
        <ele>543.7</ele>
        <time>2023-04-30T15:26:17Z</time>
      </trkpt>
      <trkpt lat="48.02576" lon="6.4122">
        <ele>543.4</ele>
        <time>2023-04-30T15:26:18Z</time>
      </trkpt>
      <trkpt lat="48.02572" lon="6.41229">
        <ele>543.1</ele>
        <time>2023-04-30T15:26:19Z</time>
      </trkpt>
      <trkpt lat="48.02568" lon="6.41237">
        <ele>542.8</ele>
        <time>2023-04-30T15:26:20Z</time>
      </trkpt>
      <trkpt lat="48.02564" lon="6.41246">
        <ele>542.5</ele>
        <time>2023-04-30T15:26:21Z</time>
      </trkpt>
      <trkpt lat="48.0256" lon="6.41255">
        <ele>542.2</ele>
        <time>2023-04-30T15:26:22Z</time>
      </trkpt>
      <trkpt lat="48.02556" lon="6.41265">
        <ele>541.8</ele>
        <time>2023-04-30T15:26:23Z</time>
      </trkpt>
      <trkpt lat="48.02552" lon="6.41274">
        <ele>541.5</ele>
        <time>2023-04-30T15:26:24Z</time>
      </trkpt>
      <trkpt lat="48.02549" lon="6.41283">
        <ele>541.2</ele>
        <time>2023-04-30T15:26:25Z</time>
      </trkpt>
      <trkpt lat="48.02545" lon="6.41293">
        <ele>541</ele>
        <time>2023-04-30T15:26:26Z</time>
      </trkpt>
      <trkpt lat="48.02541" lon="6.41302">
        <ele>540.7</ele>
        <time>2023-04-30T15:26:27Z</time>
      </trkpt>
      <trkpt lat="48.02537" lon="6.41312">
        <ele>540.4</ele>
        <time>2023-04-30T15:26:28Z</time>
      </trkpt>
      <trkpt lat="48.02533" lon="6.41322">
        <ele>540.2</ele>
        <time>2023-04-30T15:26:29Z</time>
      </trkpt>
      <trkpt lat="48.02529" lon="6.41331">
        <ele>540</ele>
        <time>2023-04-30T15:26:30Z</time>
      </trkpt>
      <trkpt lat="48.02525" lon="6.41341">
        <ele>539.7</ele>
        <time>2023-04-30T15:26:31Z</time>
      </trkpt>
      <trkpt lat="48.02522" lon="6.41351">
        <ele>539.5</ele>
        <time>2023-04-30T15:26:32Z</time>
      </trkpt>
      <trkpt lat="48.02518" lon="6.41361">
        <ele>539.2</ele>
        <time>2023-04-30T15:26:33Z</time>
      </trkpt>
      <trkpt lat="48.02515" lon="6.41372">
        <ele>538.9</ele>
        <time>2023-04-30T15:26:34Z</time>
      </trkpt>
      <trkpt lat="48.02513" lon="6.41383">
        <ele>538.7</ele>
        <time>2023-04-30T15:26:35Z</time>
      </trkpt>
      <trkpt lat="48.02513" lon="6.41395">
        <ele>538.4</ele>
        <time>2023-04-30T15:26:36Z</time>
      </trkpt>
      <trkpt lat="48.02512" lon="6.41405">
        <ele>538.2</ele>
        <time>2023-04-30T15:26:37Z</time>
      </trkpt>
      <trkpt lat="48.02511" lon="6.41417">
        <ele>537.9</ele>
        <time>2023-04-30T15:26:38Z</time>
      </trkpt>
      <trkpt lat="48.0251" lon="6.41428">
        <ele>537.6</ele>
        <time>2023-04-30T15:26:39Z</time>
      </trkpt>
      <trkpt lat="48.02509" lon="6.41439">
        <ele>537.3</ele>
        <time>2023-04-30T15:26:40Z</time>
      </trkpt>
      <trkpt lat="48.02509" lon="6.4145">
        <ele>536.9</ele>
        <time>2023-04-30T15:26:41Z</time>
      </trkpt>
      <trkpt lat="48.02508" lon="6.41462">
        <ele>536.6</ele>
        <time>2023-04-30T15:26:42Z</time>
      </trkpt>
      <trkpt lat="48.02506" lon="6.41474">
        <ele>536.2</ele>
        <time>2023-04-30T15:26:43Z</time>
      </trkpt>
      <trkpt lat="48.02504" lon="6.41487">
        <ele>535.8</ele>
        <time>2023-04-30T15:26:44Z</time>
      </trkpt>
      <trkpt lat="48.02502" lon="6.415">
        <ele>535.4</ele>
        <time>2023-04-30T15:26:45Z</time>
      </trkpt>
      <trkpt lat="48.025" lon="6.41514">
        <ele>535</ele>
        <time>2023-04-30T15:26:46Z</time>
      </trkpt>
      <trkpt lat="48.02501" lon="6.41528">
        <ele>534.7</ele>
        <time>2023-04-30T15:26:47Z</time>
      </trkpt>
      <trkpt lat="48.02503" lon="6.41542">
        <ele>534.5</ele>
        <time>2023-04-30T15:26:48Z</time>
      </trkpt>
      <trkpt lat="48.02506" lon="6.41556">
        <ele>534.3</ele>
        <time>2023-04-30T15:26:49Z</time>
      </trkpt>
      <trkpt lat="48.02509" lon="6.41569">
        <ele>534.1</ele>
        <time>2023-04-30T15:26:50Z</time>
      </trkpt>
      <trkpt lat="48.02513" lon="6.41582">
        <ele>533.9</ele>
        <time>2023-04-30T15:26:51Z</time>
      </trkpt>
      <trkpt lat="48.02516" lon="6.41595">
        <ele>533.8</ele>
        <time>2023-04-30T15:26:52Z</time>
      </trkpt>
      <trkpt lat="48.02518" lon="6.41607">
        <ele>533.7</ele>
        <time>2023-04-30T15:26:53Z</time>
      </trkpt>
      <trkpt lat="48.02519" lon="6.41619">
        <ele>533.6</ele>
        <time>2023-04-30T15:26:54Z</time>
      </trkpt>
      <trkpt lat="48.02519" lon="6.41631">
        <ele>533.6</ele>
        <time>2023-04-30T15:26:55Z</time>
      </trkpt>
      <trkpt lat="48.02518" lon="6.41644">
        <ele>533.6</ele>
        <time>2023-04-30T15:26:56Z</time>
      </trkpt>
      <trkpt lat="48.02516" lon="6.41654">
        <ele>533.6</ele>
        <time>2023-04-30T15:26:57Z</time>
      </trkpt>
      <trkpt lat="48.02515" lon="6.41664">
        <ele>533.6</ele>
        <time>2023-04-30T15:26:58Z</time>
      </trkpt>
      <trkpt lat="48.02513" lon="6.41671">
        <ele>533.6</ele>
        <time>2023-04-30T15:26:59Z</time>
      </trkpt>
      <trkpt lat="48.02512" lon="6.41677">
        <ele>533.6</ele>
        <time>2023-04-30T15:27:00Z</time>
      </trkpt>
      <trkpt lat="48.02511" lon="6.41683">
        <ele>533.6</ele>
        <time>2023-04-30T15:27:01Z</time>
      </trkpt>
      <trkpt lat="48.02509" lon="6.41692">
        <ele>533.5</ele>
        <time>2023-04-30T15:27:02Z</time>
      </trkpt>
      <trkpt lat="48.02506" lon="6.41701">
        <ele>533.4</ele>
        <time>2023-04-30T15:27:03Z</time>
      </trkpt>
      <trkpt lat="48.02503" lon="6.41709">
        <ele>533.3</ele>
        <time>2023-04-30T15:27:04Z</time>
      </trkpt>
      <trkpt lat="48.02498" lon="6.41717">
        <ele>533.1</ele>
        <time>2023-04-30T15:27:05Z</time>
      </trkpt>
      <trkpt lat="48.02495" lon="6.41726">
        <ele>533</ele>
        <time>2023-04-30T15:27:06Z</time>
      </trkpt>
      <trkpt lat="48.02491" lon="6.41734">
        <ele>532.9</ele>
        <time>2023-04-30T15:27:07Z</time>
      </trkpt>
      <trkpt lat="48.02487" lon="6.41742">
        <ele>532.7</ele>
        <time>2023-04-30T15:27:08Z</time>
      </trkpt>
      <trkpt lat="48.02483" lon="6.41749">
        <ele>532.6</ele>
        <time>2023-04-30T15:27:09Z</time>
      </trkpt>
      <trkpt lat="48.02479" lon="6.41757">
        <ele>532.5</ele>
        <time>2023-04-30T15:27:10Z</time>
      </trkpt>
      <trkpt lat="48.02474" lon="6.41764">
        <ele>532.3</ele>
        <time>2023-04-30T15:27:11Z</time>
      </trkpt>
      <trkpt lat="48.02469" lon="6.41772">
        <ele>532.1</ele>
        <time>2023-04-30T15:27:12Z</time>
      </trkpt>
      <trkpt lat="48.02464" lon="6.4178">
        <ele>532</ele>
        <time>2023-04-30T15:27:13Z</time>
      </trkpt>
      <trkpt lat="48.0246" lon="6.41788">
        <ele>531.8</ele>
        <time>2023-04-30T15:27:14Z</time>
      </trkpt>
      <trkpt lat="48.02456" lon="6.41796">
        <ele>531.6</ele>
        <time>2023-04-30T15:27:15Z</time>
      </trkpt>
      <trkpt lat="48.02452" lon="6.41804">
        <ele>531.4</ele>
        <time>2023-04-30T15:27:16Z</time>
      </trkpt>
      <trkpt lat="48.02447" lon="6.41812">
        <ele>531.3</ele>
        <time>2023-04-30T15:27:17Z</time>
      </trkpt>
      <trkpt lat="48.02443" lon="6.41821">
        <ele>531.1</ele>
        <time>2023-04-30T15:27:18Z</time>
      </trkpt>
      <trkpt lat="48.0244" lon="6.4183">
        <ele>530.9</ele>
        <time>2023-04-30T15:27:19Z</time>
      </trkpt>
      <trkpt lat="48.02438" lon="6.41837">
        <ele>530.8</ele>
        <time>2023-04-30T15:27:20Z</time>
      </trkpt>
      <trkpt lat="48.02435" lon="6.41844">
        <ele>530.6</ele>
        <time>2023-04-30T15:27:21Z</time>
      </trkpt>
      <trkpt lat="48.02432" lon="6.41852">
        <ele>530.4</ele>
        <time>2023-04-30T15:27:22Z</time>
      </trkpt>
      <trkpt lat="48.02428" lon="6.41861">
        <ele>530.2</ele>
        <time>2023-04-30T15:27:23Z</time>
      </trkpt>
      <trkpt lat="48.02423" lon="6.4187">
        <ele>530</ele>
        <time>2023-04-30T15:27:24Z</time>
      </trkpt>
      <trkpt lat="48.0242" lon="6.41879">
        <ele>529.8</ele>
        <time>2023-04-30T15:27:25Z</time>
      </trkpt>
      <trkpt lat="48.02416" lon="6.41889">
        <ele>529.7</ele>
        <time>2023-04-30T15:27:26Z</time>
      </trkpt>
      <trkpt lat="48.02412" lon="6.41898">
        <ele>529.6</ele>
        <time>2023-04-30T15:27:27Z</time>
      </trkpt>
      <trkpt lat="48.02409" lon="6.41906">
        <ele>529.5</ele>
        <time>2023-04-30T15:27:28Z</time>
      </trkpt>
      <trkpt lat="48.02405" lon="6.41915">
        <ele>529.4</ele>
        <time>2023-04-30T15:27:29Z</time>
      </trkpt>
      <trkpt lat="48.02402" lon="6.41923">
        <ele>529.4</ele>
        <time>2023-04-30T15:27:30Z</time>
      </trkpt>
      <trkpt lat="48.02399" lon="6.41932">
        <ele>529.4</ele>
        <time>2023-04-30T15:27:31Z</time>
      </trkpt>
      <trkpt lat="48.02396" lon="6.4194">
        <ele>529.5</ele>
        <time>2023-04-30T15:27:32Z</time>
      </trkpt>
      <trkpt lat="48.02393" lon="6.41948">
        <ele>529.5</ele>
        <time>2023-04-30T15:27:33Z</time>
      </trkpt>
      <trkpt lat="48.0239" lon="6.41957">
        <ele>529.5</ele>
        <time>2023-04-30T15:27:34Z</time>
      </trkpt>
      <trkpt lat="48.02388" lon="6.41965">
        <ele>529.6</ele>
        <time>2023-04-30T15:27:35Z</time>
      </trkpt>
      <trkpt lat="48.02385" lon="6.41974">
        <ele>529.6</ele>
        <time>2023-04-30T15:27:36Z</time>
      </trkpt>
      <trkpt lat="48.02383" lon="6.41982">
        <ele>529.8</ele>
        <time>2023-04-30T15:27:37Z</time>
      </trkpt>
      <trkpt lat="48.0238" lon="6.4199">
        <ele>529.9</ele>
        <time>2023-04-30T15:27:38Z</time>
      </trkpt>
      <trkpt lat="48.02378" lon="6.41996">
        <ele>530.1</ele>
        <time>2023-04-30T15:27:39Z</time>
      </trkpt>
      <trkpt lat="48.02376" lon="6.42002">
        <ele>530.2</ele>
        <time>2023-04-30T15:27:40Z</time>
      </trkpt>
      <trkpt lat="48.02373" lon="6.42007">
        <ele>530.4</ele>
        <time>2023-04-30T15:27:41Z</time>
      </trkpt>
      <trkpt lat="48.0237" lon="6.4201">
        <ele>530.5</ele>
        <time>2023-04-30T15:27:42Z</time>
      </trkpt>
      <trkpt lat="48.02367" lon="6.42013">
        <ele>530.6</ele>
        <time>2023-04-30T15:27:43Z</time>
      </trkpt>
      <trkpt lat="48.02363" lon="6.42017">
        <ele>530.5</ele>
        <time>2023-04-30T15:27:44Z</time>
      </trkpt>
      <trkpt lat="48.02357" lon="6.4202">
        <ele>530.3</ele>
        <time>2023-04-30T15:27:45Z</time>
      </trkpt>
      <trkpt lat="48.02351" lon="6.42022">
        <ele>530.1</ele>
        <time>2023-04-30T15:27:46Z</time>
      </trkpt>
      <trkpt lat="48.02345" lon="6.42024">
        <ele>529.9</ele>
        <time>2023-04-30T15:27:47Z</time>
      </trkpt>
      <trkpt lat="48.02339" lon="6.42025">
        <ele>529.7</ele>
        <time>2023-04-30T15:27:48Z</time>
      </trkpt>
      <trkpt lat="48.02332" lon="6.42026">
        <ele>529.5</ele>
        <time>2023-04-30T15:27:49Z</time>
      </trkpt>
      <trkpt lat="48.02325" lon="6.42027">
        <ele>529.3</ele>
        <time>2023-04-30T15:27:50Z</time>
      </trkpt>
      <trkpt lat="48.02318" lon="6.42028">
        <ele>529.1</ele>
        <time>2023-04-30T15:27:51Z</time>
      </trkpt>
      <trkpt lat="48.02311" lon="6.42029">
        <ele>528.9</ele>
        <time>2023-04-30T15:27:52Z</time>
      </trkpt>
      <trkpt lat="48.02303" lon="6.4203">
        <ele>528.6</ele>
        <time>2023-04-30T15:27:53Z</time>
      </trkpt>
      <trkpt lat="48.02296" lon="6.4203">
        <ele>528.4</ele>
        <time>2023-04-30T15:27:54Z</time>
      </trkpt>
      <trkpt lat="48.02288" lon="6.42031">
        <ele>528.1</ele>
        <time>2023-04-30T15:27:55Z</time>
      </trkpt>
      <trkpt lat="48.02281" lon="6.42032">
        <ele>527.9</ele>
        <time>2023-04-30T15:27:56Z</time>
      </trkpt>
      <trkpt lat="48.02273" lon="6.42033">
        <ele>527.6</ele>
        <time>2023-04-30T15:27:57Z</time>
      </trkpt>
      <trkpt lat="48.02265" lon="6.42033">
        <ele>527.4</ele>
        <time>2023-04-30T15:27:58Z</time>
      </trkpt>
      <trkpt lat="48.02257" lon="6.42034">
        <ele>527.1</ele>
        <time>2023-04-30T15:27:59Z</time>
      </trkpt>
      <trkpt lat="48.02249" lon="6.42035">
        <ele>526.8</ele>
        <time>2023-04-30T15:28:00Z</time>
      </trkpt>
      <trkpt lat="48.02241" lon="6.42036">
        <ele>526.6</ele>
        <time>2023-04-30T15:28:01Z</time>
      </trkpt>
      <trkpt lat="48.02232" lon="6.42036">
        <ele>526.3</ele>
        <time>2023-04-30T15:28:02Z</time>
      </trkpt>
      <trkpt lat="48.02224" lon="6.42038">
        <ele>526.1</ele>
        <time>2023-04-30T15:28:03Z</time>
      </trkpt>
      <trkpt lat="48.02215" lon="6.42039">
        <ele>526</ele>
        <time>2023-04-30T15:28:04Z</time>
      </trkpt>
      <trkpt lat="48.02206" lon="6.42041">
        <ele>525.9</ele>
        <time>2023-04-30T15:28:05Z</time>
      </trkpt>
      <trkpt lat="48.02197" lon="6.42043">
        <ele>525.8</ele>
        <time>2023-04-30T15:28:06Z</time>
      </trkpt>
      <trkpt lat="48.02188" lon="6.42044">
        <ele>525.7</ele>
        <time>2023-04-30T15:28:07Z</time>
      </trkpt>
      <trkpt lat="48.02179" lon="6.42048">
        <ele>525.6</ele>
        <time>2023-04-30T15:28:08Z</time>
      </trkpt>
      <trkpt lat="48.02171" lon="6.42051">
        <ele>525.5</ele>
        <time>2023-04-30T15:28:09Z</time>
      </trkpt>
      <trkpt lat="48.02163" lon="6.42057">
        <ele>525.5</ele>
        <time>2023-04-30T15:28:10Z</time>
      </trkpt>
      <trkpt lat="48.02155" lon="6.42062">
        <ele>525.4</ele>
        <time>2023-04-30T15:28:11Z</time>
      </trkpt>
      <trkpt lat="48.02148" lon="6.42068">
        <ele>525.3</ele>
        <time>2023-04-30T15:28:12Z</time>
      </trkpt>
      <trkpt lat="48.0214" lon="6.42074">
        <ele>525.3</ele>
        <time>2023-04-30T15:28:13Z</time>
      </trkpt>
      <trkpt lat="48.02134" lon="6.42081">
        <ele>525.2</ele>
        <time>2023-04-30T15:28:14Z</time>
      </trkpt>
      <trkpt lat="48.02127" lon="6.42088">
        <ele>525.2</ele>
        <time>2023-04-30T15:28:15Z</time>
      </trkpt>
      <trkpt lat="48.02121" lon="6.42097">
        <ele>525.1</ele>
        <time>2023-04-30T15:28:16Z</time>
      </trkpt>
      <trkpt lat="48.02115" lon="6.42105">
        <ele>525.1</ele>
        <time>2023-04-30T15:28:17Z</time>
      </trkpt>
      <trkpt lat="48.0211" lon="6.42113">
        <ele>525</ele>
        <time>2023-04-30T15:28:18Z</time>
      </trkpt>
      <trkpt lat="48.02104" lon="6.42121">
        <ele>525</ele>
        <time>2023-04-30T15:28:19Z</time>
      </trkpt>
      <trkpt lat="48.02099" lon="6.4213">
        <ele>525</ele>
        <time>2023-04-30T15:28:20Z</time>
      </trkpt>
      <trkpt lat="48.02093" lon="6.42138">
        <ele>524.9</ele>
        <time>2023-04-30T15:28:21Z</time>
      </trkpt>
      <trkpt lat="48.02088" lon="6.42146">
        <ele>524.9</ele>
        <time>2023-04-30T15:28:22Z</time>
      </trkpt>
      <trkpt lat="48.02082" lon="6.42154">
        <ele>524.9</ele>
        <time>2023-04-30T15:28:23Z</time>
      </trkpt>
      <trkpt lat="48.02076" lon="6.42162">
        <ele>524.9</ele>
        <time>2023-04-30T15:28:24Z</time>
      </trkpt>
      <trkpt lat="48.02071" lon="6.4217">
        <ele>524.8</ele>
        <time>2023-04-30T15:28:25Z</time>
      </trkpt>
      <trkpt lat="48.02065" lon="6.42177">
        <ele>524.8</ele>
        <time>2023-04-30T15:28:26Z</time>
      </trkpt>
      <trkpt lat="48.02058" lon="6.42184">
        <ele>524.8</ele>
        <time>2023-04-30T15:28:27Z</time>
      </trkpt>
      <trkpt lat="48.02052" lon="6.4219">
        <ele>524.7</ele>
        <time>2023-04-30T15:28:28Z</time>
      </trkpt>
      <trkpt lat="48.02045" lon="6.42196">
        <ele>524.7</ele>
        <time>2023-04-30T15:28:29Z</time>
      </trkpt>
      <trkpt lat="48.02038" lon="6.42201">
        <ele>524.6</ele>
        <time>2023-04-30T15:28:30Z</time>
      </trkpt>
      <trkpt lat="48.02031" lon="6.42205">
        <ele>524.6</ele>
        <time>2023-04-30T15:28:31Z</time>
      </trkpt>
      <trkpt lat="48.02024" lon="6.4221">
        <ele>524.5</ele>
        <time>2023-04-30T15:28:32Z</time>
      </trkpt>
      <trkpt lat="48.02017" lon="6.42215">
        <ele>524.5</ele>
        <time>2023-04-30T15:28:33Z</time>
      </trkpt>
      <trkpt lat="48.0201" lon="6.4222">
        <ele>524.4</ele>
        <time>2023-04-30T15:28:34Z</time>
      </trkpt>
      <trkpt lat="48.02003" lon="6.42226">
        <ele>524.4</ele>
        <time>2023-04-30T15:28:35Z</time>
      </trkpt>
      <trkpt lat="48.01996" lon="6.42231">
        <ele>524.3</ele>
        <time>2023-04-30T15:28:36Z</time>
      </trkpt>
      <trkpt lat="48.01989" lon="6.42235">
        <ele>524.3</ele>
        <time>2023-04-30T15:28:37Z</time>
      </trkpt>
      <trkpt lat="48.01982" lon="6.4224">
        <ele>524.2</ele>
        <time>2023-04-30T15:28:38Z</time>
      </trkpt>
      <trkpt lat="48.01975" lon="6.42244">
        <ele>524.1</ele>
        <time>2023-04-30T15:28:39Z</time>
      </trkpt>
      <trkpt lat="48.01968" lon="6.42249">
        <ele>524.1</ele>
        <time>2023-04-30T15:28:40Z</time>
      </trkpt>
      <trkpt lat="48.01961" lon="6.42254">
        <ele>524</ele>
        <time>2023-04-30T15:28:41Z</time>
      </trkpt>
      <trkpt lat="48.01953" lon="6.42259">
        <ele>524</ele>
        <time>2023-04-30T15:28:42Z</time>
      </trkpt>
      <trkpt lat="48.01946" lon="6.42263">
        <ele>523.9</ele>
        <time>2023-04-30T15:28:43Z</time>
      </trkpt>
      <trkpt lat="48.01939" lon="6.42268">
        <ele>523.8</ele>
        <time>2023-04-30T15:28:44Z</time>
      </trkpt>
      <trkpt lat="48.01932" lon="6.42273">
        <ele>523.7</ele>
        <time>2023-04-30T15:28:45Z</time>
      </trkpt>
      <trkpt lat="48.01925" lon="6.42277">
        <ele>523.5</ele>
        <time>2023-04-30T15:28:46Z</time>
      </trkpt>
      <trkpt lat="48.01918" lon="6.42282">
        <ele>523.4</ele>
        <time>2023-04-30T15:28:47Z</time>
      </trkpt>
      <trkpt lat="48.0191" lon="6.42287">
        <ele>523.2</ele>
        <time>2023-04-30T15:28:48Z</time>
      </trkpt>
      <trkpt lat="48.01903" lon="6.42292">
        <ele>523</ele>
        <time>2023-04-30T15:28:49Z</time>
      </trkpt>
      <trkpt lat="48.01896" lon="6.42297">
        <ele>522.7</ele>
        <time>2023-04-30T15:28:50Z</time>
      </trkpt>
      <trkpt lat="48.01888" lon="6.42302">
        <ele>522.5</ele>
        <time>2023-04-30T15:28:51Z</time>
      </trkpt>
      <trkpt lat="48.0188" lon="6.42306">
        <ele>522.2</ele>
        <time>2023-04-30T15:28:52Z</time>
      </trkpt>
      <trkpt lat="48.01873" lon="6.42311">
        <ele>522</ele>
        <time>2023-04-30T15:28:53Z</time>
      </trkpt>
      <trkpt lat="48.01865" lon="6.42317">
        <ele>521.7</ele>
        <time>2023-04-30T15:28:54Z</time>
      </trkpt>
      <trkpt lat="48.01857" lon="6.42322">
        <ele>521.4</ele>
        <time>2023-04-30T15:28:55Z</time>
      </trkpt>
      <trkpt lat="48.01849" lon="6.42327">
        <ele>521</ele>
        <time>2023-04-30T15:28:56Z</time>
      </trkpt>
      <trkpt lat="48.0184" lon="6.42333">
        <ele>520.7</ele>
        <time>2023-04-30T15:28:57Z</time>
      </trkpt>
      <trkpt lat="48.01833" lon="6.42339">
        <ele>520.4</ele>
        <time>2023-04-30T15:28:58Z</time>
      </trkpt>
      <trkpt lat="48.01826" lon="6.42347">
        <ele>520.1</ele>
        <time>2023-04-30T15:28:59Z</time>
      </trkpt>
      <trkpt lat="48.01818" lon="6.42352">
        <ele>519.7</ele>
        <time>2023-04-30T15:29:00Z</time>
      </trkpt>
      <trkpt lat="48.01811" lon="6.42359">
        <ele>519.4</ele>
        <time>2023-04-30T15:29:01Z</time>
      </trkpt>
      <trkpt lat="48.01802" lon="6.42363">
        <ele>519</ele>
        <time>2023-04-30T15:29:02Z</time>
      </trkpt>
      <trkpt lat="48.01794" lon="6.42368">
        <ele>518.6</ele>
        <time>2023-04-30T15:29:03Z</time>
      </trkpt>
      <trkpt lat="48.01786" lon="6.42374">
        <ele>518.2</ele>
        <time>2023-04-30T15:29:04Z</time>
      </trkpt>
      <trkpt lat="48.01778" lon="6.4238">
        <ele>517.9</ele>
        <time>2023-04-30T15:29:05Z</time>
      </trkpt>
      <trkpt lat="48.0177" lon="6.42386">
        <ele>517.5</ele>
        <time>2023-04-30T15:29:06Z</time>
      </trkpt>
      <trkpt lat="48.01763" lon="6.42394">
        <ele>517.2</ele>
        <time>2023-04-30T15:29:07Z</time>
      </trkpt>
      <trkpt lat="48.01757" lon="6.42403">
        <ele>516.8</ele>
        <time>2023-04-30T15:29:08Z</time>
      </trkpt>
      <trkpt lat="48.01752" lon="6.42414">
        <ele>516.7</ele>
        <time>2023-04-30T15:29:09Z</time>
      </trkpt>
      <trkpt lat="48.01748" lon="6.42426">
        <ele>516.6</ele>
        <time>2023-04-30T15:29:10Z</time>
      </trkpt>
      <trkpt lat="48.01742" lon="6.42436">
        <ele>516.4</ele>
        <time>2023-04-30T15:29:11Z</time>
      </trkpt>
      <trkpt lat="48.01736" lon="6.42446">
        <ele>516.3</ele>
        <time>2023-04-30T15:29:12Z</time>
      </trkpt>
      <trkpt lat="48.0173" lon="6.42455">
        <ele>516.2</ele>
        <time>2023-04-30T15:29:13Z</time>
      </trkpt>
      <trkpt lat="48.01723" lon="6.42464">
        <ele>516</ele>
        <time>2023-04-30T15:29:14Z</time>
      </trkpt>
      <trkpt lat="48.01717" lon="6.42473">
        <ele>515.8</ele>
        <time>2023-04-30T15:29:15Z</time>
      </trkpt>
      <trkpt lat="48.01711" lon="6.42482">
        <ele>515.7</ele>
        <time>2023-04-30T15:29:16Z</time>
      </trkpt>
      <trkpt lat="48.01704" lon="6.42491">
        <ele>515.6</ele>
        <time>2023-04-30T15:29:17Z</time>
      </trkpt>
      <trkpt lat="48.01698" lon="6.42501">
        <ele>515.5</ele>
        <time>2023-04-30T15:29:18Z</time>
      </trkpt>
      <trkpt lat="48.01692" lon="6.4251">
        <ele>515.5</ele>
        <time>2023-04-30T15:29:19Z</time>
      </trkpt>
      <trkpt lat="48.01686" lon="6.42519">
        <ele>515.5</ele>
        <time>2023-04-30T15:29:20Z</time>
      </trkpt>
      <trkpt lat="48.0168" lon="6.42528">
        <ele>515.5</ele>
        <time>2023-04-30T15:29:21Z</time>
      </trkpt>
      <trkpt lat="48.01674" lon="6.42536">
        <ele>515.4</ele>
        <time>2023-04-30T15:29:22Z</time>
      </trkpt>
      <trkpt lat="48.01668" lon="6.42546">
        <ele>515.4</ele>
        <time>2023-04-30T15:29:23Z</time>
      </trkpt>
      <trkpt lat="48.01662" lon="6.42555">
        <ele>515.4</ele>
        <time>2023-04-30T15:29:24Z</time>
      </trkpt>
      <trkpt lat="48.01656" lon="6.42564">
        <ele>515.3</ele>
        <time>2023-04-30T15:29:25Z</time>
      </trkpt>
      <trkpt lat="48.0165" lon="6.42573">
        <ele>515.3</ele>
        <time>2023-04-30T15:29:26Z</time>
      </trkpt>
      <trkpt lat="48.01645" lon="6.42581">
        <ele>515.3</ele>
        <time>2023-04-30T15:29:27Z</time>
      </trkpt>
      <trkpt lat="48.01639" lon="6.4259">
        <ele>515.3</ele>
        <time>2023-04-30T15:29:28Z</time>
      </trkpt>
      <trkpt lat="48.01633" lon="6.42599">
        <ele>515.3</ele>
        <time>2023-04-30T15:29:29Z</time>
      </trkpt>
      <trkpt lat="48.01628" lon="6.42607">
        <ele>515.3</ele>
        <time>2023-04-30T15:29:30Z</time>
      </trkpt>
      <trkpt lat="48.01622" lon="6.42616">
        <ele>515.3</ele>
        <time>2023-04-30T15:29:31Z</time>
      </trkpt>
      <trkpt lat="48.01617" lon="6.42624">
        <ele>515.3</ele>
        <time>2023-04-30T15:29:32Z</time>
      </trkpt>
      <trkpt lat="48.01612" lon="6.42634">
        <ele>515.2</ele>
        <time>2023-04-30T15:29:33Z</time>
      </trkpt>
      <trkpt lat="48.01606" lon="6.42642">
        <ele>515.2</ele>
        <time>2023-04-30T15:29:34Z</time>
      </trkpt>
      <trkpt lat="48.01601" lon="6.42651">
        <ele>515.2</ele>
        <time>2023-04-30T15:29:35Z</time>
      </trkpt>
      <trkpt lat="48.01595" lon="6.42659">
        <ele>515.2</ele>
        <time>2023-04-30T15:29:36Z</time>
      </trkpt>
      <trkpt lat="48.0159" lon="6.42666">
        <ele>515.2</ele>
        <time>2023-04-30T15:29:37Z</time>
      </trkpt>
      <trkpt lat="48.01585" lon="6.42675">
        <ele>515.2</ele>
        <time>2023-04-30T15:29:38Z</time>
      </trkpt>
      <trkpt lat="48.0158" lon="6.42684">
        <ele>515.2</ele>
        <time>2023-04-30T15:29:39Z</time>
      </trkpt>
      <trkpt lat="48.01575" lon="6.42692">
        <ele>515.3</ele>
        <time>2023-04-30T15:29:40Z</time>
      </trkpt>
      <trkpt lat="48.01569" lon="6.427">
        <ele>515.3</ele>
        <time>2023-04-30T15:29:41Z</time>
      </trkpt>
      <trkpt lat="48.01564" lon="6.42708">
        <ele>515.3</ele>
        <time>2023-04-30T15:29:42Z</time>
      </trkpt>
      <trkpt lat="48.01559" lon="6.42717">
        <ele>515.2</ele>
        <time>2023-04-30T15:29:43Z</time>
      </trkpt>
      <trkpt lat="48.01554" lon="6.42725">
        <ele>515.2</ele>
        <time>2023-04-30T15:29:44Z</time>
      </trkpt>
      <trkpt lat="48.01548" lon="6.42733">
        <ele>515.2</ele>
        <time>2023-04-30T15:29:45Z</time>
      </trkpt>
      <trkpt lat="48.01543" lon="6.4274">
        <ele>515.2</ele>
        <time>2023-04-30T15:29:46Z</time>
      </trkpt>
      <trkpt lat="48.01538" lon="6.42748">
        <ele>515.2</ele>
        <time>2023-04-30T15:29:47Z</time>
      </trkpt>
      <trkpt lat="48.01533" lon="6.42756">
        <ele>515.1</ele>
        <time>2023-04-30T15:29:48Z</time>
      </trkpt>
      <trkpt lat="48.01529" lon="6.42765">
        <ele>515</ele>
        <time>2023-04-30T15:29:49Z</time>
      </trkpt>
      <trkpt lat="48.01525" lon="6.42773">
        <ele>514.9</ele>
        <time>2023-04-30T15:29:50Z</time>
      </trkpt>
      <trkpt lat="48.01521" lon="6.42782">
        <ele>514.8</ele>
        <time>2023-04-30T15:29:51Z</time>
      </trkpt>
      <trkpt lat="48.01518" lon="6.42792">
        <ele>514.6</ele>
        <time>2023-04-30T15:29:52Z</time>
      </trkpt>
      <trkpt lat="48.01515" lon="6.42802">
        <ele>514.4</ele>
        <time>2023-04-30T15:29:53Z</time>
      </trkpt>
      <trkpt lat="48.01512" lon="6.42812">
        <ele>514.2</ele>
        <time>2023-04-30T15:29:54Z</time>
      </trkpt>
      <trkpt lat="48.01509" lon="6.42823">
        <ele>513.9</ele>
        <time>2023-04-30T15:29:55Z</time>
      </trkpt>
      <trkpt lat="48.01507" lon="6.42834">
        <ele>513.7</ele>
        <time>2023-04-30T15:29:56Z</time>
      </trkpt>
      <trkpt lat="48.01504" lon="6.42846">
        <ele>513.4</ele>
        <time>2023-04-30T15:29:57Z</time>
      </trkpt>
      <trkpt lat="48.01502" lon="6.42858">
        <ele>513.2</ele>
        <time>2023-04-30T15:29:58Z</time>
      </trkpt>
      <trkpt lat="48.015" lon="6.42869">
        <ele>512.9</ele>
        <time>2023-04-30T15:29:59Z</time>
      </trkpt>
      <trkpt lat="48.01498" lon="6.4288">
        <ele>512.7</ele>
        <time>2023-04-30T15:30:00Z</time>
      </trkpt>
      <trkpt lat="48.01496" lon="6.42891">
        <ele>512.6</ele>
        <time>2023-04-30T15:30:01Z</time>
      </trkpt>
      <trkpt lat="48.01493" lon="6.42903">
        <ele>512.5</ele>
        <time>2023-04-30T15:30:02Z</time>
      </trkpt>
      <trkpt lat="48.01491" lon="6.42915">
        <ele>512.4</ele>
        <time>2023-04-30T15:30:03Z</time>
      </trkpt>
      <trkpt lat="48.01489" lon="6.42926">
        <ele>512.4</ele>
        <time>2023-04-30T15:30:04Z</time>
      </trkpt>
      <trkpt lat="48.01487" lon="6.42938">
        <ele>512.5</ele>
        <time>2023-04-30T15:30:05Z</time>
      </trkpt>
      <trkpt lat="48.01485" lon="6.42949">
        <ele>512.6</ele>
        <time>2023-04-30T15:30:06Z</time>
      </trkpt>
      <trkpt lat="48.01483" lon="6.42959">
        <ele>512.7</ele>
        <time>2023-04-30T15:30:07Z</time>
      </trkpt>
      <trkpt lat="48.01481" lon="6.42969">
        <ele>512.8</ele>
        <time>2023-04-30T15:30:08Z</time>
      </trkpt>
      <trkpt lat="48.01479" lon="6.4298">
        <ele>513</ele>
        <time>2023-04-30T15:30:09Z</time>
      </trkpt>
      <trkpt lat="48.01477" lon="6.4299">
        <ele>513.2</ele>
        <time>2023-04-30T15:30:10Z</time>
      </trkpt>
      <trkpt lat="48.01476" lon="6.43">
        <ele>513.3</ele>
        <time>2023-04-30T15:30:11Z</time>
      </trkpt>
      <trkpt lat="48.01474" lon="6.43009">
        <ele>513.5</ele>
        <time>2023-04-30T15:30:12Z</time>
      </trkpt>
      <trkpt lat="48.01473" lon="6.43019">
        <ele>513.8</ele>
        <time>2023-04-30T15:30:13Z</time>
      </trkpt>
      <trkpt lat="48.01472" lon="6.43028">
        <ele>514</ele>
        <time>2023-04-30T15:30:14Z</time>
      </trkpt>
      <trkpt lat="48.01471" lon="6.43037">
        <ele>514.2</ele>
        <time>2023-04-30T15:30:15Z</time>
      </trkpt>
      <trkpt lat="48.0147" lon="6.43046">
        <ele>514.5</ele>
        <time>2023-04-30T15:30:16Z</time>
      </trkpt>
      <trkpt lat="48.0147" lon="6.43055">
        <ele>514.7</ele>
        <time>2023-04-30T15:30:17Z</time>
      </trkpt>
      <trkpt lat="48.0147" lon="6.43064">
        <ele>515</ele>
        <time>2023-04-30T15:30:18Z</time>
      </trkpt>
      <trkpt lat="48.0147" lon="6.43073">
        <ele>515.3</ele>
        <time>2023-04-30T15:30:19Z</time>
      </trkpt>
      <trkpt lat="48.0147" lon="6.43082">
        <ele>515.5</ele>
        <time>2023-04-30T15:30:20Z</time>
      </trkpt>
      <trkpt lat="48.0147" lon="6.43091">
        <ele>515.8</ele>
        <time>2023-04-30T15:30:21Z</time>
      </trkpt>
      <trkpt lat="48.0147" lon="6.431">
        <ele>516.1</ele>
        <time>2023-04-30T15:30:22Z</time>
      </trkpt>
      <trkpt lat="48.0147" lon="6.43108">
        <ele>516.3</ele>
        <time>2023-04-30T15:30:23Z</time>
      </trkpt>
      <trkpt lat="48.01471" lon="6.43117">
        <ele>516.6</ele>
        <time>2023-04-30T15:30:24Z</time>
      </trkpt>
      <trkpt lat="48.01471" lon="6.43124">
        <ele>516.8</ele>
        <time>2023-04-30T15:30:25Z</time>
      </trkpt>
      <trkpt lat="48.01472" lon="6.43133">
        <ele>517.1</ele>
        <time>2023-04-30T15:30:26Z</time>
      </trkpt>
      <trkpt lat="48.01473" lon="6.43141">
        <ele>517.4</ele>
        <time>2023-04-30T15:30:27Z</time>
      </trkpt>
      <trkpt lat="48.01473" lon="6.43148">
        <ele>517.6</ele>
        <time>2023-04-30T15:30:28Z</time>
      </trkpt>
      <trkpt lat="48.01474" lon="6.43156">
        <ele>517.9</ele>
        <time>2023-04-30T15:30:29Z</time>
      </trkpt>
      <trkpt lat="48.01475" lon="6.43163">
        <ele>518.1</ele>
        <time>2023-04-30T15:30:30Z</time>
      </trkpt>
      <trkpt lat="48.01475" lon="6.43171">
        <ele>518.4</ele>
        <time>2023-04-30T15:30:31Z</time>
      </trkpt>
      <trkpt lat="48.01476" lon="6.43179">
        <ele>518.6</ele>
        <time>2023-04-30T15:30:32Z</time>
      </trkpt>
      <trkpt lat="48.01477" lon="6.43186">
        <ele>518.9</ele>
        <time>2023-04-30T15:30:33Z</time>
      </trkpt>
      <trkpt lat="48.01477" lon="6.43193">
        <ele>519.1</ele>
        <time>2023-04-30T15:30:34Z</time>
      </trkpt>
      <trkpt lat="48.01478" lon="6.432">
        <ele>519.3</ele>
        <time>2023-04-30T15:30:35Z</time>
      </trkpt>
      <trkpt lat="48.01479" lon="6.43208">
        <ele>519.5</ele>
        <time>2023-04-30T15:30:36Z</time>
      </trkpt>
      <trkpt lat="48.0148" lon="6.43215">
        <ele>519.7</ele>
        <time>2023-04-30T15:30:37Z</time>
      </trkpt>
      <trkpt lat="48.0148" lon="6.43222">
        <ele>519.9</ele>
        <time>2023-04-30T15:30:38Z</time>
      </trkpt>
      <trkpt lat="48.01481" lon="6.43228">
        <ele>520.1</ele>
        <time>2023-04-30T15:30:39Z</time>
      </trkpt>
      <trkpt lat="48.01482" lon="6.43235">
        <ele>520.3</ele>
        <time>2023-04-30T15:30:40Z</time>
      </trkpt>
      <trkpt lat="48.01482" lon="6.43242">
        <ele>520.6</ele>
        <time>2023-04-30T15:30:41Z</time>
      </trkpt>
      <trkpt lat="48.01483" lon="6.43249">
        <ele>520.8</ele>
        <time>2023-04-30T15:30:42Z</time>
      </trkpt>
      <trkpt lat="48.01483" lon="6.43256">
        <ele>521</ele>
        <time>2023-04-30T15:30:43Z</time>
      </trkpt>
      <trkpt lat="48.01484" lon="6.43262">
        <ele>521.2</ele>
        <time>2023-04-30T15:30:44Z</time>
      </trkpt>
      <trkpt lat="48.01485" lon="6.43269">
        <ele>521.4</ele>
        <time>2023-04-30T15:30:45Z</time>
      </trkpt>
      <trkpt lat="48.01485" lon="6.43276">
        <ele>521.7</ele>
        <time>2023-04-30T15:30:46Z</time>
      </trkpt>
      <trkpt lat="48.01486" lon="6.43283">
        <ele>521.9</ele>
        <time>2023-04-30T15:30:47Z</time>
      </trkpt>
      <trkpt lat="48.01487" lon="6.4329">
        <ele>522.1</ele>
        <time>2023-04-30T15:30:48Z</time>
      </trkpt>
      <trkpt lat="48.01487" lon="6.43297">
        <ele>522.3</ele>
        <time>2023-04-30T15:30:49Z</time>
      </trkpt>
      <trkpt lat="48.01488" lon="6.43303">
        <ele>522.5</ele>
        <time>2023-04-30T15:30:50Z</time>
      </trkpt>
      <trkpt lat="48.01488" lon="6.4331">
        <ele>522.7</ele>
        <time>2023-04-30T15:30:51Z</time>
      </trkpt>
      <trkpt lat="48.01489" lon="6.43317">
        <ele>522.9</ele>
        <time>2023-04-30T15:30:52Z</time>
      </trkpt>
      <trkpt lat="48.01489" lon="6.4332">
        <ele>523</ele>
        <time>2023-04-30T15:30:53Z</time>
      </trkpt>
      <trkpt lat="48.01489" lon="6.43328">
        <ele>523.2</ele>
        <time>2023-04-30T15:30:54Z</time>
      </trkpt>
      <trkpt lat="48.0149" lon="6.43334">
        <ele>523.4</ele>
        <time>2023-04-30T15:30:55Z</time>
      </trkpt>
      <trkpt lat="48.01491" lon="6.4334">
        <ele>523.5</ele>
        <time>2023-04-30T15:30:56Z</time>
      </trkpt>
      <trkpt lat="48.01492" lon="6.43348">
        <ele>523.7</ele>
        <time>2023-04-30T15:30:57Z</time>
      </trkpt>
      <trkpt lat="48.01493" lon="6.43356">
        <ele>523.9</ele>
        <time>2023-04-30T15:30:58Z</time>
      </trkpt>
      <trkpt lat="48.01493" lon="6.43363">
        <ele>524.1</ele>
        <time>2023-04-30T15:30:59Z</time>
      </trkpt>
      <trkpt lat="48.01494" lon="6.43369">
        <ele>524.3</ele>
        <time>2023-04-30T15:31:00Z</time>
      </trkpt>
      <trkpt lat="48.01495" lon="6.43375">
        <ele>524.4</ele>
        <time>2023-04-30T15:31:01Z</time>
      </trkpt>
      <trkpt lat="48.01496" lon="6.43382">
        <ele>524.5</ele>
        <time>2023-04-30T15:31:02Z</time>
      </trkpt>
      <trkpt lat="48.01497" lon="6.43392">
        <ele>524.8</ele>
        <time>2023-04-30T15:31:03Z</time>
      </trkpt>
      <trkpt lat="48.01499" lon="6.43407">
        <ele>525.1</ele>
        <time>2023-04-30T15:31:05Z</time>
      </trkpt>
      <trkpt lat="48.015" lon="6.43414">
        <ele>525.2</ele>
        <time>2023-04-30T15:31:07Z</time>
      </trkpt>
      <trkpt lat="48.015" lon="6.43421">
        <ele>525.4</ele>
        <time>2023-04-30T15:31:08Z</time>
      </trkpt>
      <trkpt lat="48.01501" lon="6.43428">
        <ele>525.5</ele>
        <time>2023-04-30T15:31:09Z</time>
      </trkpt>
      <trkpt lat="48.01502" lon="6.43436">
        <ele>525.7</ele>
        <time>2023-04-30T15:31:10Z</time>
      </trkpt>
      <trkpt lat="48.01504" lon="6.43442">
        <ele>525.8</ele>
        <time>2023-04-30T15:31:11Z</time>
      </trkpt>
      <trkpt lat="48.01504" lon="6.43449">
        <ele>525.9</ele>
        <time>2023-04-30T15:31:12Z</time>
      </trkpt>
      <trkpt lat="48.01505" lon="6.43455">
        <ele>526</ele>
        <time>2023-04-30T15:31:13Z</time>
      </trkpt>
      <trkpt lat="48.01506" lon="6.43462">
        <ele>526.1</ele>
        <time>2023-04-30T15:31:14Z</time>
      </trkpt>
      <trkpt lat="48.01506" lon="6.43469">
        <ele>526.3</ele>
        <time>2023-04-30T15:31:15Z</time>
      </trkpt>
      <trkpt lat="48.01507" lon="6.43476">
        <ele>526.4</ele>
        <time>2023-04-30T15:31:16Z</time>
      </trkpt>
      <trkpt lat="48.01508" lon="6.43484">
        <ele>526.5</ele>
        <time>2023-04-30T15:31:17Z</time>
      </trkpt>
      <trkpt lat="48.01509" lon="6.43491">
        <ele>526.6</ele>
        <time>2023-04-30T15:31:18Z</time>
      </trkpt>
      <trkpt lat="48.0151" lon="6.43497">
        <ele>526.8</ele>
        <time>2023-04-30T15:31:19Z</time>
      </trkpt>
      <trkpt lat="48.01511" lon="6.43504">
        <ele>526.9</ele>
        <time>2023-04-30T15:31:20Z</time>
      </trkpt>
      <trkpt lat="48.01512" lon="6.43511">
        <ele>527</ele>
        <time>2023-04-30T15:31:21Z</time>
      </trkpt>
      <trkpt lat="48.01512" lon="6.43518">
        <ele>527.1</ele>
        <time>2023-04-30T15:31:22Z</time>
      </trkpt>
      <trkpt lat="48.01513" lon="6.43525">
        <ele>527.2</ele>
        <time>2023-04-30T15:31:23Z</time>
      </trkpt>
      <trkpt lat="48.01514" lon="6.43531">
        <ele>527.4</ele>
        <time>2023-04-30T15:31:24Z</time>
      </trkpt>
      <trkpt lat="48.01515" lon="6.43538">
        <ele>527.5</ele>
        <time>2023-04-30T15:31:25Z</time>
      </trkpt>
      <trkpt lat="48.01516" lon="6.43545">
        <ele>527.6</ele>
        <time>2023-04-30T15:31:26Z</time>
      </trkpt>
      <trkpt lat="48.01516" lon="6.43552">
        <ele>527.7</ele>
        <time>2023-04-30T15:31:27Z</time>
      </trkpt>
      <trkpt lat="48.01517" lon="6.43559">
        <ele>527.9</ele>
        <time>2023-04-30T15:31:28Z</time>
      </trkpt>
      <trkpt lat="48.01517" lon="6.43566">
        <ele>528</ele>
        <time>2023-04-30T15:31:29Z</time>
      </trkpt>
      <trkpt lat="48.01519" lon="6.43573">
        <ele>528.2</ele>
        <time>2023-04-30T15:31:30Z</time>
      </trkpt>
      <trkpt lat="48.01519" lon="6.4358">
        <ele>528.3</ele>
        <time>2023-04-30T15:31:31Z</time>
      </trkpt>
      <trkpt lat="48.0152" lon="6.43587">
        <ele>528.4</ele>
        <time>2023-04-30T15:31:32Z</time>
      </trkpt>
      <trkpt lat="48.0152" lon="6.43593">
        <ele>528.6</ele>
        <time>2023-04-30T15:31:33Z</time>
      </trkpt>
      <trkpt lat="48.01521" lon="6.436">
        <ele>528.7</ele>
        <time>2023-04-30T15:31:34Z</time>
      </trkpt>
      <trkpt lat="48.01522" lon="6.43606">
        <ele>528.8</ele>
        <time>2023-04-30T15:31:35Z</time>
      </trkpt>
      <trkpt lat="48.01522" lon="6.43613">
        <ele>528.9</ele>
        <time>2023-04-30T15:31:36Z</time>
      </trkpt>
      <trkpt lat="48.01522" lon="6.43616">
        <ele>529</ele>
        <time>2023-04-30T15:31:37Z</time>
      </trkpt>
      <trkpt lat="48.01522" lon="6.43622">
        <ele>529.1</ele>
        <time>2023-04-30T15:31:38Z</time>
      </trkpt>
      <trkpt lat="48.01522" lon="6.43631">
        <ele>529.2</ele>
        <time>2023-04-30T15:31:39Z</time>
      </trkpt>
      <trkpt lat="48.01522" lon="6.43639">
        <ele>529.4</ele>
        <time>2023-04-30T15:31:40Z</time>
      </trkpt>
      <trkpt lat="48.01522" lon="6.43644">
        <ele>529.5</ele>
        <time>2023-04-30T15:31:41Z</time>
      </trkpt>
      <trkpt lat="48.01522" lon="6.4365">
        <ele>529.6</ele>
        <time>2023-04-30T15:31:42Z</time>
      </trkpt>
      <trkpt lat="48.01521" lon="6.43663">
        <ele>529.9</ele>
        <time>2023-04-30T15:31:44Z</time>
      </trkpt>
      <trkpt lat="48.0152" lon="6.43671">
        <ele>530</ele>
        <time>2023-04-30T15:31:45Z</time>
      </trkpt>
      <trkpt lat="48.0152" lon="6.43678">
        <ele>530.1</ele>
        <time>2023-04-30T15:31:46Z</time>
      </trkpt>
      <trkpt lat="48.01519" lon="6.43685">
        <ele>530.2</ele>
        <time>2023-04-30T15:31:47Z</time>
      </trkpt>
      <trkpt lat="48.01519" lon="6.43691">
        <ele>530.3</ele>
        <time>2023-04-30T15:31:48Z</time>
      </trkpt>
      <trkpt lat="48.01518" lon="6.43698">
        <ele>530.4</ele>
        <time>2023-04-30T15:31:49Z</time>
      </trkpt>
      <trkpt lat="48.01518" lon="6.43705">
        <ele>530.5</ele>
        <time>2023-04-30T15:31:50Z</time>
      </trkpt>
      <trkpt lat="48.01518" lon="6.43712">
        <ele>530.5</ele>
        <time>2023-04-30T15:31:51Z</time>
      </trkpt>
      <trkpt lat="48.01517" lon="6.43719">
        <ele>530.6</ele>
        <time>2023-04-30T15:31:52Z</time>
      </trkpt>
      <trkpt lat="48.01517" lon="6.43725">
        <ele>530.7</ele>
        <time>2023-04-30T15:31:53Z</time>
      </trkpt>
      <trkpt lat="48.01517" lon="6.43732">
        <ele>530.7</ele>
        <time>2023-04-30T15:31:54Z</time>
      </trkpt>
      <trkpt lat="48.01517" lon="6.43739">
        <ele>530.8</ele>
        <time>2023-04-30T15:31:55Z</time>
      </trkpt>
      <trkpt lat="48.01516" lon="6.43745">
        <ele>530.8</ele>
        <time>2023-04-30T15:31:56Z</time>
      </trkpt>
      <trkpt lat="48.01515" lon="6.43753">
        <ele>530.8</ele>
        <time>2023-04-30T15:31:57Z</time>
      </trkpt>
      <trkpt lat="48.01515" lon="6.4376">
        <ele>530.8</ele>
        <time>2023-04-30T15:31:58Z</time>
      </trkpt>
      <trkpt lat="48.01514" lon="6.43767">
        <ele>530.8</ele>
        <time>2023-04-30T15:31:59Z</time>
      </trkpt>
      <trkpt lat="48.01514" lon="6.43774">
        <ele>530.8</ele>
        <time>2023-04-30T15:32:00Z</time>
      </trkpt>
      <trkpt lat="48.01513" lon="6.43781">
        <ele>530.8</ele>
        <time>2023-04-30T15:32:01Z</time>
      </trkpt>
      <trkpt lat="48.01513" lon="6.43788">
        <ele>530.8</ele>
        <time>2023-04-30T15:32:02Z</time>
      </trkpt>
      <trkpt lat="48.01513" lon="6.43795">
        <ele>530.8</ele>
        <time>2023-04-30T15:32:03Z</time>
      </trkpt>
      <trkpt lat="48.01512" lon="6.43803">
        <ele>530.8</ele>
        <time>2023-04-30T15:32:04Z</time>
      </trkpt>
      <trkpt lat="48.01512" lon="6.43811">
        <ele>530.8</ele>
        <time>2023-04-30T15:32:05Z</time>
      </trkpt>
      <trkpt lat="48.01511" lon="6.43818">
        <ele>530.8</ele>
        <time>2023-04-30T15:32:06Z</time>
      </trkpt>
      <trkpt lat="48.01511" lon="6.43826">
        <ele>530.8</ele>
        <time>2023-04-30T15:32:07Z</time>
      </trkpt>
      <trkpt lat="48.01511" lon="6.43834">
        <ele>530.8</ele>
        <time>2023-04-30T15:32:08Z</time>
      </trkpt>
      <trkpt lat="48.01511" lon="6.43842">
        <ele>530.8</ele>
        <time>2023-04-30T15:32:09Z</time>
      </trkpt>
      <trkpt lat="48.01511" lon="6.4385">
        <ele>530.8</ele>
        <time>2023-04-30T15:32:10Z</time>
      </trkpt>
      <trkpt lat="48.0151" lon="6.43858">
        <ele>530.8</ele>
        <time>2023-04-30T15:32:11Z</time>
      </trkpt>
      <trkpt lat="48.0151" lon="6.43865">
        <ele>530.8</ele>
        <time>2023-04-30T15:32:12Z</time>
      </trkpt>
      <trkpt lat="48.0151" lon="6.43873">
        <ele>530.8</ele>
        <time>2023-04-30T15:32:13Z</time>
      </trkpt>
      <trkpt lat="48.01509" lon="6.43881">
        <ele>530.8</ele>
        <time>2023-04-30T15:32:14Z</time>
      </trkpt>
      <trkpt lat="48.01509" lon="6.43889">
        <ele>530.8</ele>
        <time>2023-04-30T15:32:15Z</time>
      </trkpt>
      <trkpt lat="48.01507" lon="6.43896">
        <ele>530.8</ele>
        <time>2023-04-30T15:32:16Z</time>
      </trkpt>
      <trkpt lat="48.01506" lon="6.43903">
        <ele>530.8</ele>
        <time>2023-04-30T15:32:17Z</time>
      </trkpt>
      <trkpt lat="48.01505" lon="6.43911">
        <ele>530.8</ele>
        <time>2023-04-30T15:32:18Z</time>
      </trkpt>
      <trkpt lat="48.01504" lon="6.43918">
        <ele>530.8</ele>
        <time>2023-04-30T15:32:19Z</time>
      </trkpt>
      <trkpt lat="48.01503" lon="6.43925">
        <ele>530.9</ele>
        <time>2023-04-30T15:32:20Z</time>
      </trkpt>
      <trkpt lat="48.01503" lon="6.43933">
        <ele>530.9</ele>
        <time>2023-04-30T15:32:21Z</time>
      </trkpt>
      <trkpt lat="48.01503" lon="6.4394">
        <ele>530.9</ele>
        <time>2023-04-30T15:32:22Z</time>
      </trkpt>
      <trkpt lat="48.01503" lon="6.43948">
        <ele>531</ele>
        <time>2023-04-30T15:32:23Z</time>
      </trkpt>
      <trkpt lat="48.01503" lon="6.43955">
        <ele>531</ele>
        <time>2023-04-30T15:32:24Z</time>
      </trkpt>
      <trkpt lat="48.01502" lon="6.43963">
        <ele>531.1</ele>
        <time>2023-04-30T15:32:25Z</time>
      </trkpt>
      <trkpt lat="48.01501" lon="6.4397">
        <ele>531.1</ele>
        <time>2023-04-30T15:32:26Z</time>
      </trkpt>
      <trkpt lat="48.01501" lon="6.43978">
        <ele>531.2</ele>
        <time>2023-04-30T15:32:27Z</time>
      </trkpt>
      <trkpt lat="48.01501" lon="6.43985">
        <ele>531.3</ele>
        <time>2023-04-30T15:32:28Z</time>
      </trkpt>
      <trkpt lat="48.015" lon="6.43993">
        <ele>531.3</ele>
        <time>2023-04-30T15:32:29Z</time>
      </trkpt>
      <trkpt lat="48.015" lon="6.44">
        <ele>531.3</ele>
        <time>2023-04-30T15:32:30Z</time>
      </trkpt>
      <trkpt lat="48.01499" lon="6.44008">
        <ele>531.4</ele>
        <time>2023-04-30T15:32:31Z</time>
      </trkpt>
      <trkpt lat="48.01499" lon="6.44015">
        <ele>531.4</ele>
        <time>2023-04-30T15:32:32Z</time>
      </trkpt>
      <trkpt lat="48.01498" lon="6.44022">
        <ele>531.4</ele>
        <time>2023-04-30T15:32:33Z</time>
      </trkpt>
      <trkpt lat="48.01498" lon="6.44029">
        <ele>531.4</ele>
        <time>2023-04-30T15:32:34Z</time>
      </trkpt>
      <trkpt lat="48.01498" lon="6.44036">
        <ele>531.4</ele>
        <time>2023-04-30T15:32:35Z</time>
      </trkpt>
      <trkpt lat="48.01498" lon="6.44044">
        <ele>531.4</ele>
        <time>2023-04-30T15:32:36Z</time>
      </trkpt>
      <trkpt lat="48.01497" lon="6.44051">
        <ele>531.4</ele>
        <time>2023-04-30T15:32:37Z</time>
      </trkpt>
      <trkpt lat="48.01497" lon="6.44058">
        <ele>531.4</ele>
        <time>2023-04-30T15:32:38Z</time>
      </trkpt>
      <trkpt lat="48.01496" lon="6.44065">
        <ele>531.4</ele>
        <time>2023-04-30T15:32:39Z</time>
      </trkpt>
      <trkpt lat="48.01496" lon="6.44072">
        <ele>531.4</ele>
        <time>2023-04-30T15:32:40Z</time>
      </trkpt>
      <trkpt lat="48.01495" lon="6.44079">
        <ele>531.5</ele>
        <time>2023-04-30T15:32:41Z</time>
      </trkpt>
      <trkpt lat="48.01495" lon="6.44086">
        <ele>531.5</ele>
        <time>2023-04-30T15:32:42Z</time>
      </trkpt>
      <trkpt lat="48.01495" lon="6.44093">
        <ele>531.5</ele>
        <time>2023-04-30T15:32:43Z</time>
      </trkpt>
      <trkpt lat="48.01494" lon="6.441">
        <ele>531.5</ele>
        <time>2023-04-30T15:32:44Z</time>
      </trkpt>
      <trkpt lat="48.01494" lon="6.44107">
        <ele>531.5</ele>
        <time>2023-04-30T15:32:45Z</time>
      </trkpt>
      <trkpt lat="48.01494" lon="6.44114">
        <ele>531.6</ele>
        <time>2023-04-30T15:32:46Z</time>
      </trkpt>
      <trkpt lat="48.01493" lon="6.4412">
        <ele>531.6</ele>
        <time>2023-04-30T15:32:47Z</time>
      </trkpt>
      <trkpt lat="48.01493" lon="6.44127">
        <ele>531.6</ele>
        <time>2023-04-30T15:32:48Z</time>
      </trkpt>
      <trkpt lat="48.01492" lon="6.44134">
        <ele>531.6</ele>
        <time>2023-04-30T15:32:49Z</time>
      </trkpt>
      <trkpt lat="48.01492" lon="6.44142">
        <ele>531.6</ele>
        <time>2023-04-30T15:32:50Z</time>
      </trkpt>
      <trkpt lat="48.01491" lon="6.44148">
        <ele>531.7</ele>
        <time>2023-04-30T15:32:51Z</time>
      </trkpt>
      <trkpt lat="48.01491" lon="6.44155">
        <ele>531.7</ele>
        <time>2023-04-30T15:32:52Z</time>
      </trkpt>
      <trkpt lat="48.01491" lon="6.44164">
        <ele>531.7</ele>
        <time>2023-04-30T15:32:53Z</time>
      </trkpt>
      <trkpt lat="48.01491" lon="6.44172">
        <ele>531.7</ele>
        <time>2023-04-30T15:32:54Z</time>
      </trkpt>
      <trkpt lat="48.01492" lon="6.44179">
        <ele>531.7</ele>
        <time>2023-04-30T15:32:55Z</time>
      </trkpt>
      <trkpt lat="48.01494" lon="6.44186">
        <ele>531.7</ele>
        <time>2023-04-30T15:32:56Z</time>
      </trkpt>
      <trkpt lat="48.01494" lon="6.44193">
        <ele>531.6</ele>
        <time>2023-04-30T15:32:57Z</time>
      </trkpt>
      <trkpt lat="48.01496" lon="6.44201">
        <ele>531.6</ele>
        <time>2023-04-30T15:32:58Z</time>
      </trkpt>
      <trkpt lat="48.01497" lon="6.44208">
        <ele>531.6</ele>
        <time>2023-04-30T15:32:59Z</time>
      </trkpt>
      <trkpt lat="48.01498" lon="6.44215">
        <ele>531.6</ele>
        <time>2023-04-30T15:33:00Z</time>
      </trkpt>
      <trkpt lat="48.015" lon="6.44223">
        <ele>531.6</ele>
        <time>2023-04-30T15:33:01Z</time>
      </trkpt>
      <trkpt lat="48.01501" lon="6.4423">
        <ele>531.5</ele>
        <time>2023-04-30T15:33:02Z</time>
      </trkpt>
      <trkpt lat="48.01503" lon="6.44237">
        <ele>531.5</ele>
        <time>2023-04-30T15:33:03Z</time>
      </trkpt>
      <trkpt lat="48.01504" lon="6.44244">
        <ele>531.5</ele>
        <time>2023-04-30T15:33:04Z</time>
      </trkpt>
      <trkpt lat="48.01506" lon="6.44252">
        <ele>531.5</ele>
        <time>2023-04-30T15:33:05Z</time>
      </trkpt>
      <trkpt lat="48.01508" lon="6.44259">
        <ele>531.4</ele>
        <time>2023-04-30T15:33:06Z</time>
      </trkpt>
      <trkpt lat="48.0151" lon="6.44266">
        <ele>531.4</ele>
        <time>2023-04-30T15:33:07Z</time>
      </trkpt>
      <trkpt lat="48.01512" lon="6.44272">
        <ele>531.4</ele>
        <time>2023-04-30T15:33:08Z</time>
      </trkpt>
      <trkpt lat="48.01515" lon="6.44279">
        <ele>531.3</ele>
        <time>2023-04-30T15:33:09Z</time>
      </trkpt>
      <trkpt lat="48.01518" lon="6.44286">
        <ele>531.3</ele>
        <time>2023-04-30T15:33:10Z</time>
      </trkpt>
      <trkpt lat="48.0152" lon="6.44293">
        <ele>531.2</ele>
        <time>2023-04-30T15:33:11Z</time>
      </trkpt>
      <trkpt lat="48.01523" lon="6.44301">
        <ele>531.2</ele>
        <time>2023-04-30T15:33:12Z</time>
      </trkpt>
      <trkpt lat="48.01525" lon="6.44308">
        <ele>531.1</ele>
        <time>2023-04-30T15:33:13Z</time>
      </trkpt>
      <trkpt lat="48.01527" lon="6.44316">
        <ele>531.1</ele>
        <time>2023-04-30T15:33:14Z</time>
      </trkpt>
      <trkpt lat="48.01529" lon="6.44323">
        <ele>531.1</ele>
        <time>2023-04-30T15:33:15Z</time>
      </trkpt>
      <trkpt lat="48.0153" lon="6.4433">
        <ele>531</ele>
        <time>2023-04-30T15:33:16Z</time>
      </trkpt>
      <trkpt lat="48.01532" lon="6.44337">
        <ele>531</ele>
        <time>2023-04-30T15:33:17Z</time>
      </trkpt>
      <trkpt lat="48.01534" lon="6.44344">
        <ele>530.9</ele>
        <time>2023-04-30T15:33:18Z</time>
      </trkpt>
      <trkpt lat="48.01537" lon="6.44351">
        <ele>530.9</ele>
        <time>2023-04-30T15:33:19Z</time>
      </trkpt>
      <trkpt lat="48.01539" lon="6.44358">
        <ele>530.8</ele>
        <time>2023-04-30T15:33:20Z</time>
      </trkpt>
      <trkpt lat="48.0154" lon="6.44365">
        <ele>530.8</ele>
        <time>2023-04-30T15:33:21Z</time>
      </trkpt>
      <trkpt lat="48.01542" lon="6.44372">
        <ele>530.7</ele>
        <time>2023-04-30T15:33:22Z</time>
      </trkpt>
      <trkpt lat="48.01544" lon="6.44379">
        <ele>530.7</ele>
        <time>2023-04-30T15:33:23Z</time>
      </trkpt>
      <trkpt lat="48.01546" lon="6.44386">
        <ele>530.6</ele>
        <time>2023-04-30T15:33:24Z</time>
      </trkpt>
      <trkpt lat="48.01548" lon="6.44393">
        <ele>530.5</ele>
        <time>2023-04-30T15:33:25Z</time>
      </trkpt>
      <trkpt lat="48.01552" lon="6.44399">
        <ele>530.4</ele>
        <time>2023-04-30T15:33:26Z</time>
      </trkpt>
      <trkpt lat="48.01555" lon="6.44404">
        <ele>530.3</ele>
        <time>2023-04-30T15:33:27Z</time>
      </trkpt>
      <trkpt lat="48.01558" lon="6.44411">
        <ele>530.2</ele>
        <time>2023-04-30T15:33:28Z</time>
      </trkpt>
      <trkpt lat="48.01561" lon="6.44417">
        <ele>530.1</ele>
        <time>2023-04-30T15:33:29Z</time>
      </trkpt>
      <trkpt lat="48.01563" lon="6.44424">
        <ele>530</ele>
        <time>2023-04-30T15:33:30Z</time>
      </trkpt>
      <trkpt lat="48.01566" lon="6.4443">
        <ele>529.9</ele>
        <time>2023-04-30T15:33:31Z</time>
      </trkpt>
      <trkpt lat="48.01568" lon="6.44437">
        <ele>529.8</ele>
        <time>2023-04-30T15:33:32Z</time>
      </trkpt>
      <trkpt lat="48.01571" lon="6.44444">
        <ele>529.6</ele>
        <time>2023-04-30T15:33:33Z</time>
      </trkpt>
      <trkpt lat="48.01573" lon="6.44452">
        <ele>529.5</ele>
        <time>2023-04-30T15:33:34Z</time>
      </trkpt>
      <trkpt lat="48.01575" lon="6.44459">
        <ele>529.3</ele>
        <time>2023-04-30T15:33:35Z</time>
      </trkpt>
      <trkpt lat="48.01576" lon="6.44468">
        <ele>529.2</ele>
        <time>2023-04-30T15:33:36Z</time>
      </trkpt>
      <trkpt lat="48.01576" lon="6.44476">
        <ele>529</ele>
        <time>2023-04-30T15:33:37Z</time>
      </trkpt>
      <trkpt lat="48.01576" lon="6.44485">
        <ele>528.8</ele>
        <time>2023-04-30T15:33:38Z</time>
      </trkpt>
      <trkpt lat="48.01576" lon="6.44493">
        <ele>528.7</ele>
        <time>2023-04-30T15:33:39Z</time>
      </trkpt>
      <trkpt lat="48.01577" lon="6.44502">
        <ele>528.5</ele>
        <time>2023-04-30T15:33:40Z</time>
      </trkpt>
      <trkpt lat="48.01578" lon="6.44512">
        <ele>528.4</ele>
        <time>2023-04-30T15:33:41Z</time>
      </trkpt>
      <trkpt lat="48.01578" lon="6.44521">
        <ele>528.2</ele>
        <time>2023-04-30T15:33:42Z</time>
      </trkpt>
      <trkpt lat="48.01579" lon="6.4453">
        <ele>528.1</ele>
        <time>2023-04-30T15:33:43Z</time>
      </trkpt>
      <trkpt lat="48.0158" lon="6.4454">
        <ele>527.9</ele>
        <time>2023-04-30T15:33:44Z</time>
      </trkpt>
      <trkpt lat="48.01581" lon="6.44549">
        <ele>527.7</ele>
        <time>2023-04-30T15:33:45Z</time>
      </trkpt>
      <trkpt lat="48.01581" lon="6.4456">
        <ele>527.5</ele>
        <time>2023-04-30T15:33:46Z</time>
      </trkpt>
      <trkpt lat="48.01581" lon="6.4457">
        <ele>527.3</ele>
        <time>2023-04-30T15:33:47Z</time>
      </trkpt>
      <trkpt lat="48.01582" lon="6.4458">
        <ele>527.1</ele>
        <time>2023-04-30T15:33:48Z</time>
      </trkpt>
      <trkpt lat="48.01583" lon="6.4459">
        <ele>526.9</ele>
        <time>2023-04-30T15:33:49Z</time>
      </trkpt>
      <trkpt lat="48.01585" lon="6.44601">
        <ele>526.7</ele>
        <time>2023-04-30T15:33:50Z</time>
      </trkpt>
      <trkpt lat="48.01586" lon="6.44611">
        <ele>526.5</ele>
        <time>2023-04-30T15:33:51Z</time>
      </trkpt>
      <trkpt lat="48.01589" lon="6.44622">
        <ele>526.2</ele>
        <time>2023-04-30T15:33:52Z</time>
      </trkpt>
      <trkpt lat="48.01593" lon="6.44631">
        <ele>526</ele>
        <time>2023-04-30T15:33:53Z</time>
      </trkpt>
      <trkpt lat="48.01597" lon="6.44641">
        <ele>525.8</ele>
        <time>2023-04-30T15:33:54Z</time>
      </trkpt>
      <trkpt lat="48.01602" lon="6.44649">
        <ele>525.6</ele>
        <time>2023-04-30T15:33:55Z</time>
      </trkpt>
      <trkpt lat="48.01607" lon="6.44658">
        <ele>525.4</ele>
        <time>2023-04-30T15:33:56Z</time>
      </trkpt>
      <trkpt lat="48.01612" lon="6.44666">
        <ele>525.3</ele>
        <time>2023-04-30T15:33:57Z</time>
      </trkpt>
      <trkpt lat="48.01616" lon="6.44674">
        <ele>525.3</ele>
        <time>2023-04-30T15:33:58Z</time>
      </trkpt>
      <trkpt lat="48.01621" lon="6.44681">
        <ele>525.2</ele>
        <time>2023-04-30T15:33:59Z</time>
      </trkpt>
      <trkpt lat="48.01626" lon="6.44688">
        <ele>525.2</ele>
        <time>2023-04-30T15:34:00Z</time>
      </trkpt>
      <trkpt lat="48.0163" lon="6.44695">
        <ele>525.2</ele>
        <time>2023-04-30T15:34:01Z</time>
      </trkpt>
      <trkpt lat="48.01635" lon="6.44702">
        <ele>525.2</ele>
        <time>2023-04-30T15:34:02Z</time>
      </trkpt>
      <trkpt lat="48.01641" lon="6.44708">
        <ele>525.3</ele>
        <time>2023-04-30T15:34:03Z</time>
      </trkpt>
      <trkpt lat="48.01646" lon="6.44714">
        <ele>525.3</ele>
        <time>2023-04-30T15:34:04Z</time>
      </trkpt>
      <trkpt lat="48.01652" lon="6.44719">
        <ele>525.3</ele>
        <time>2023-04-30T15:34:05Z</time>
      </trkpt>
      <trkpt lat="48.01657" lon="6.44722">
        <ele>525.3</ele>
        <time>2023-04-30T15:34:06Z</time>
      </trkpt>
      <trkpt lat="48.01663" lon="6.44726">
        <ele>525.3</ele>
        <time>2023-04-30T15:34:07Z</time>
      </trkpt>
      <trkpt lat="48.01668" lon="6.4473">
        <ele>525.4</ele>
        <time>2023-04-30T15:34:08Z</time>
      </trkpt>
      <trkpt lat="48.01673" lon="6.44733">
        <ele>525.4</ele>
        <time>2023-04-30T15:34:09Z</time>
      </trkpt>
      <trkpt lat="48.01679" lon="6.44737">
        <ele>525.5</ele>
        <time>2023-04-30T15:34:10Z</time>
      </trkpt>
      <trkpt lat="48.01684" lon="6.4474">
        <ele>525.5</ele>
        <time>2023-04-30T15:34:11Z</time>
      </trkpt>
      <trkpt lat="48.01689" lon="6.44743">
        <ele>525.6</ele>
        <time>2023-04-30T15:34:12Z</time>
      </trkpt>
      <trkpt lat="48.01694" lon="6.44746">
        <ele>525.7</ele>
        <time>2023-04-30T15:34:13Z</time>
      </trkpt>
      <trkpt lat="48.017" lon="6.44749">
        <ele>525.8</ele>
        <time>2023-04-30T15:34:14Z</time>
      </trkpt>
      <trkpt lat="48.01705" lon="6.44753">
        <ele>525.8</ele>
        <time>2023-04-30T15:34:15Z</time>
      </trkpt>
      <trkpt lat="48.0171" lon="6.44757">
        <ele>525.9</ele>
        <time>2023-04-30T15:34:16Z</time>
      </trkpt>
      <trkpt lat="48.01714" lon="6.44761">
        <ele>526</ele>
        <time>2023-04-30T15:34:17Z</time>
      </trkpt>
      <trkpt lat="48.0172" lon="6.44765">
        <ele>526.1</ele>
        <time>2023-04-30T15:34:18Z</time>
      </trkpt>
      <trkpt lat="48.01725" lon="6.44768">
        <ele>526.2</ele>
        <time>2023-04-30T15:34:19Z</time>
      </trkpt>
      <trkpt lat="48.0173" lon="6.44772">
        <ele>526.3</ele>
        <time>2023-04-30T15:34:20Z</time>
      </trkpt>
      <trkpt lat="48.01735" lon="6.44777">
        <ele>526.4</ele>
        <time>2023-04-30T15:34:21Z</time>
      </trkpt>
      <trkpt lat="48.0174" lon="6.44782">
        <ele>526.5</ele>
        <time>2023-04-30T15:34:22Z</time>
      </trkpt>
      <trkpt lat="48.01745" lon="6.44787">
        <ele>526.6</ele>
        <time>2023-04-30T15:34:23Z</time>
      </trkpt>
      <trkpt lat="48.01749" lon="6.44793">
        <ele>526.7</ele>
        <time>2023-04-30T15:34:24Z</time>
      </trkpt>
      <trkpt lat="48.01752" lon="6.448">
        <ele>526.8</ele>
        <time>2023-04-30T15:34:25Z</time>
      </trkpt>
      <trkpt lat="48.01756" lon="6.44807">
        <ele>526.9</ele>
        <time>2023-04-30T15:34:26Z</time>
      </trkpt>
      <trkpt lat="48.01758" lon="6.44813">
        <ele>527.1</ele>
        <time>2023-04-30T15:34:27Z</time>
      </trkpt>
      <trkpt lat="48.0176" lon="6.44819">
        <ele>527.2</ele>
        <time>2023-04-30T15:34:28Z</time>
      </trkpt>
      <trkpt lat="48.01762" lon="6.44825">
        <ele>527.3</ele>
        <time>2023-04-30T15:34:29Z</time>
      </trkpt>
      <trkpt lat="48.01765" lon="6.44832">
        <ele>527.5</ele>
        <time>2023-04-30T15:34:30Z</time>
      </trkpt>
      <trkpt lat="48.01767" lon="6.44838">
        <ele>527.6</ele>
        <time>2023-04-30T15:34:31Z</time>
      </trkpt>
      <trkpt lat="48.01769" lon="6.44844">
        <ele>527.8</ele>
        <time>2023-04-30T15:34:32Z</time>
      </trkpt>
      <trkpt lat="48.01771" lon="6.4485">
        <ele>528</ele>
        <time>2023-04-30T15:34:33Z</time>
      </trkpt>
      <trkpt lat="48.01773" lon="6.44857">
        <ele>528.1</ele>
        <time>2023-04-30T15:34:34Z</time>
      </trkpt>
      <trkpt lat="48.01775" lon="6.44863">
        <ele>528.3</ele>
        <time>2023-04-30T15:34:35Z</time>
      </trkpt>
      <trkpt lat="48.01777" lon="6.44869">
        <ele>528.5</ele>
        <time>2023-04-30T15:34:36Z</time>
      </trkpt>
      <trkpt lat="48.01778" lon="6.44873">
        <ele>528.6</ele>
        <time>2023-04-30T15:34:37Z</time>
      </trkpt>
      <trkpt lat="48.01779" lon="6.44879">
        <ele>528.8</ele>
        <time>2023-04-30T15:34:38Z</time>
      </trkpt>
      <trkpt lat="48.01781" lon="6.44886">
        <ele>529</ele>
        <time>2023-04-30T15:34:39Z</time>
      </trkpt>
      <trkpt lat="48.01783" lon="6.44891">
        <ele>529.2</ele>
        <time>2023-04-30T15:34:40Z</time>
      </trkpt>
      <trkpt lat="48.01785" lon="6.44895">
        <ele>529.3</ele>
        <time>2023-04-30T15:34:41Z</time>
      </trkpt>
      <trkpt lat="48.01787" lon="6.44902">
        <ele>529.6</ele>
        <time>2023-04-30T15:34:42Z</time>
      </trkpt>
      <trkpt lat="48.01789" lon="6.44911">
        <ele>529.9</ele>
        <time>2023-04-30T15:34:43Z</time>
      </trkpt>
      <trkpt lat="48.01791" lon="6.44915">
        <ele>530.1</ele>
        <time>2023-04-30T15:34:44Z</time>
      </trkpt>
      <trkpt lat="48.01792" lon="6.44923">
        <ele>530.3</ele>
        <time>2023-04-30T15:34:45Z</time>
      </trkpt>
      <trkpt lat="48.01794" lon="6.4493">
        <ele>530.6</ele>
        <time>2023-04-30T15:34:46Z</time>
      </trkpt>
      <trkpt lat="48.01796" lon="6.44936">
        <ele>530.8</ele>
        <time>2023-04-30T15:34:47Z</time>
      </trkpt>
      <trkpt lat="48.01798" lon="6.44943">
        <ele>531.1</ele>
        <time>2023-04-30T15:34:48Z</time>
      </trkpt>
      <trkpt lat="48.018" lon="6.44949">
        <ele>531.3</ele>
        <time>2023-04-30T15:34:49Z</time>
      </trkpt>
      <trkpt lat="48.01802" lon="6.44956">
        <ele>531.6</ele>
        <time>2023-04-30T15:34:51Z</time>
      </trkpt>
      <trkpt lat="48.01804" lon="6.44962">
        <ele>531.8</ele>
        <time>2023-04-30T15:34:52Z</time>
      </trkpt>
      <trkpt lat="48.01806" lon="6.44969">
        <ele>532</ele>
        <time>2023-04-30T15:34:53Z</time>
      </trkpt>
      <trkpt lat="48.01808" lon="6.44975">
        <ele>532.2</ele>
        <time>2023-04-30T15:34:54Z</time>
      </trkpt>
      <trkpt lat="48.0181" lon="6.44981">
        <ele>532.5</ele>
        <time>2023-04-30T15:34:55Z</time>
      </trkpt>
      <trkpt lat="48.01813" lon="6.44988">
        <ele>532.7</ele>
        <time>2023-04-30T15:34:57Z</time>
      </trkpt>
      <trkpt lat="48.01815" lon="6.44993">
        <ele>532.8</ele>
        <time>2023-04-30T15:34:58Z</time>
      </trkpt>
      <trkpt lat="48.01818" lon="6.45001">
        <ele>533.1</ele>
        <time>2023-04-30T15:34:59Z</time>
      </trkpt>
      <trkpt lat="48.01824" lon="6.45015">
        <ele>533.6</ele>
        <time>2023-04-30T15:35:01Z</time>
      </trkpt>
      <trkpt lat="48.01826" lon="6.45021">
        <ele>533.8</ele>
        <time>2023-04-30T15:35:03Z</time>
      </trkpt>
      <trkpt lat="48.01829" lon="6.45028">
        <ele>534</ele>
        <time>2023-04-30T15:35:04Z</time>
      </trkpt>
      <trkpt lat="48.01831" lon="6.45033">
        <ele>534.1</ele>
        <time>2023-04-30T15:35:05Z</time>
      </trkpt>
      <trkpt lat="48.01833" lon="6.45039">
        <ele>534.3</ele>
        <time>2023-04-30T15:35:06Z</time>
      </trkpt>
      <trkpt lat="48.01836" lon="6.45046">
        <ele>534.4</ele>
        <time>2023-04-30T15:35:07Z</time>
      </trkpt>
      <trkpt lat="48.01841" lon="6.45057">
        <ele>534.7</ele>
        <time>2023-04-30T15:35:09Z</time>
      </trkpt>
      <trkpt lat="48.01844" lon="6.45064">
        <ele>534.9</ele>
        <time>2023-04-30T15:35:11Z</time>
      </trkpt>
      <trkpt lat="48.01846" lon="6.4507">
        <ele>535</ele>
        <time>2023-04-30T15:35:12Z</time>
      </trkpt>
      <trkpt lat="48.01849" lon="6.45076">
        <ele>535.1</ele>
        <time>2023-04-30T15:35:13Z</time>
      </trkpt>
      <trkpt lat="48.01852" lon="6.45083">
        <ele>535.2</ele>
        <time>2023-04-30T15:35:14Z</time>
      </trkpt>
      <trkpt lat="48.01855" lon="6.45091">
        <ele>535.4</ele>
        <time>2023-04-30T15:35:16Z</time>
      </trkpt>
      <trkpt lat="48.01857" lon="6.45097">
        <ele>535.5</ele>
        <time>2023-04-30T15:35:17Z</time>
      </trkpt>
      <trkpt lat="48.0186" lon="6.45104">
        <ele>535.6</ele>
        <time>2023-04-30T15:35:18Z</time>
      </trkpt>
      <trkpt lat="48.01862" lon="6.4511">
        <ele>535.7</ele>
        <time>2023-04-30T15:35:19Z</time>
      </trkpt>
      <trkpt lat="48.01865" lon="6.45116">
        <ele>535.8</ele>
        <time>2023-04-30T15:35:20Z</time>
      </trkpt>
      <trkpt lat="48.01867" lon="6.45122">
        <ele>536</ele>
        <time>2023-04-30T15:35:21Z</time>
      </trkpt>
      <trkpt lat="48.01869" lon="6.45128">
        <ele>536.1</ele>
        <time>2023-04-30T15:35:22Z</time>
      </trkpt>
      <trkpt lat="48.01872" lon="6.45134">
        <ele>536.2</ele>
        <time>2023-04-30T15:35:23Z</time>
      </trkpt>
      <trkpt lat="48.01874" lon="6.4514">
        <ele>536.4</ele>
        <time>2023-04-30T15:35:24Z</time>
      </trkpt>
      <trkpt lat="48.01877" lon="6.45146">
        <ele>536.5</ele>
        <time>2023-04-30T15:35:25Z</time>
      </trkpt>
      <trkpt lat="48.01879" lon="6.45152">
        <ele>536.6</ele>
        <time>2023-04-30T15:35:26Z</time>
      </trkpt>
      <trkpt lat="48.01882" lon="6.45158">
        <ele>536.8</ele>
        <time>2023-04-30T15:35:27Z</time>
      </trkpt>
      <trkpt lat="48.01884" lon="6.45164">
        <ele>536.9</ele>
        <time>2023-04-30T15:35:28Z</time>
      </trkpt>
      <trkpt lat="48.01887" lon="6.4517">
        <ele>537</ele>
        <time>2023-04-30T15:35:29Z</time>
      </trkpt>
      <trkpt lat="48.01889" lon="6.45175">
        <ele>537.1</ele>
        <time>2023-04-30T15:35:30Z</time>
      </trkpt>
      <trkpt lat="48.01891" lon="6.45181">
        <ele>537.2</ele>
        <time>2023-04-30T15:35:31Z</time>
      </trkpt>
      <trkpt lat="48.01894" lon="6.45187">
        <ele>537.3</ele>
        <time>2023-04-30T15:35:32Z</time>
      </trkpt>
      <trkpt lat="48.01897" lon="6.45193">
        <ele>537.4</ele>
        <time>2023-04-30T15:35:33Z</time>
      </trkpt>
      <trkpt lat="48.01899" lon="6.45199">
        <ele>537.5</ele>
        <time>2023-04-30T15:35:34Z</time>
      </trkpt>
      <trkpt lat="48.01902" lon="6.45205">
        <ele>537.6</ele>
        <time>2023-04-30T15:35:35Z</time>
      </trkpt>
      <trkpt lat="48.01904" lon="6.45211">
        <ele>537.8</ele>
        <time>2023-04-30T15:35:36Z</time>
      </trkpt>
      <trkpt lat="48.01906" lon="6.45217">
        <ele>537.9</ele>
        <time>2023-04-30T15:35:37Z</time>
      </trkpt>
      <trkpt lat="48.01908" lon="6.45223">
        <ele>538</ele>
        <time>2023-04-30T15:35:38Z</time>
      </trkpt>
      <trkpt lat="48.01911" lon="6.45229">
        <ele>538.1</ele>
        <time>2023-04-30T15:35:39Z</time>
      </trkpt>
      <trkpt lat="48.01913" lon="6.45235">
        <ele>538.2</ele>
        <time>2023-04-30T15:35:40Z</time>
      </trkpt>
      <trkpt lat="48.01916" lon="6.45241">
        <ele>538.3</ele>
        <time>2023-04-30T15:35:41Z</time>
      </trkpt>
      <trkpt lat="48.01918" lon="6.45247">
        <ele>538.3</ele>
        <time>2023-04-30T15:35:42Z</time>
      </trkpt>
      <trkpt lat="48.01921" lon="6.45253">
        <ele>538.4</ele>
        <time>2023-04-30T15:35:43Z</time>
      </trkpt>
      <trkpt lat="48.01923" lon="6.45259">
        <ele>538.4</ele>
        <time>2023-04-30T15:35:44Z</time>
      </trkpt>
      <trkpt lat="48.01925" lon="6.45265">
        <ele>538.5</ele>
        <time>2023-04-30T15:35:45Z</time>
      </trkpt>
      <trkpt lat="48.01928" lon="6.45271">
        <ele>538.5</ele>
        <time>2023-04-30T15:35:46Z</time>
      </trkpt>
      <trkpt lat="48.0193" lon="6.45277">
        <ele>538.6</ele>
        <time>2023-04-30T15:35:47Z</time>
      </trkpt>
      <trkpt lat="48.01933" lon="6.45283">
        <ele>538.6</ele>
        <time>2023-04-30T15:35:48Z</time>
      </trkpt>
      <trkpt lat="48.01935" lon="6.4529">
        <ele>538.6</ele>
        <time>2023-04-30T15:35:49Z</time>
      </trkpt>
      <trkpt lat="48.01938" lon="6.45296">
        <ele>538.6</ele>
        <time>2023-04-30T15:35:50Z</time>
      </trkpt>
      <trkpt lat="48.0194" lon="6.45302">
        <ele>538.6</ele>
        <time>2023-04-30T15:35:51Z</time>
      </trkpt>
      <trkpt lat="48.01942" lon="6.45308">
        <ele>538.6</ele>
        <time>2023-04-30T15:35:52Z</time>
      </trkpt>
      <trkpt lat="48.01945" lon="6.45315">
        <ele>538.6</ele>
        <time>2023-04-30T15:35:53Z</time>
      </trkpt>
      <trkpt lat="48.01948" lon="6.45322">
        <ele>538.6</ele>
        <time>2023-04-30T15:35:54Z</time>
      </trkpt>
      <trkpt lat="48.0195" lon="6.45328">
        <ele>538.6</ele>
        <time>2023-04-30T15:35:55Z</time>
      </trkpt>
      <trkpt lat="48.01953" lon="6.45335">
        <ele>538.6</ele>
        <time>2023-04-30T15:35:56Z</time>
      </trkpt>
      <trkpt lat="48.01956" lon="6.45341">
        <ele>538.6</ele>
        <time>2023-04-30T15:35:57Z</time>
      </trkpt>
      <trkpt lat="48.01958" lon="6.45347">
        <ele>538.6</ele>
        <time>2023-04-30T15:35:58Z</time>
      </trkpt>
      <trkpt lat="48.01961" lon="6.45354">
        <ele>538.6</ele>
        <time>2023-04-30T15:35:59Z</time>
      </trkpt>
      <trkpt lat="48.01964" lon="6.45361">
        <ele>538.6</ele>
        <time>2023-04-30T15:36:00Z</time>
      </trkpt>
      <trkpt lat="48.01967" lon="6.45368">
        <ele>538.6</ele>
        <time>2023-04-30T15:36:01Z</time>
      </trkpt>
      <trkpt lat="48.01969" lon="6.45375">
        <ele>538.6</ele>
        <time>2023-04-30T15:36:02Z</time>
      </trkpt>
      <trkpt lat="48.01972" lon="6.45381">
        <ele>538.6</ele>
        <time>2023-04-30T15:36:03Z</time>
      </trkpt>
      <trkpt lat="48.01975" lon="6.45388">
        <ele>538.6</ele>
        <time>2023-04-30T15:36:04Z</time>
      </trkpt>
      <trkpt lat="48.01977" lon="6.45395">
        <ele>538.7</ele>
        <time>2023-04-30T15:36:05Z</time>
      </trkpt>
      <trkpt lat="48.0198" lon="6.45402">
        <ele>538.7</ele>
        <time>2023-04-30T15:36:06Z</time>
      </trkpt>
      <trkpt lat="48.01983" lon="6.45409">
        <ele>538.7</ele>
        <time>2023-04-30T15:36:07Z</time>
      </trkpt>
      <trkpt lat="48.01986" lon="6.45416">
        <ele>538.7</ele>
        <time>2023-04-30T15:36:08Z</time>
      </trkpt>
      <trkpt lat="48.01989" lon="6.45423">
        <ele>538.8</ele>
        <time>2023-04-30T15:36:09Z</time>
      </trkpt>
      <trkpt lat="48.01991" lon="6.45431">
        <ele>538.8</ele>
        <time>2023-04-30T15:36:10Z</time>
      </trkpt>
      <trkpt lat="48.01994" lon="6.45438">
        <ele>538.8</ele>
        <time>2023-04-30T15:36:11Z</time>
      </trkpt>
      <trkpt lat="48.01997" lon="6.45445">
        <ele>538.9</ele>
        <time>2023-04-30T15:36:12Z</time>
      </trkpt>
      <trkpt lat="48.01999" lon="6.45452">
        <ele>538.9</ele>
        <time>2023-04-30T15:36:13Z</time>
      </trkpt>
      <trkpt lat="48.02002" lon="6.45459">
        <ele>538.9</ele>
        <time>2023-04-30T15:36:14Z</time>
      </trkpt>
      <trkpt lat="48.02005" lon="6.45465">
        <ele>539</ele>
        <time>2023-04-30T15:36:15Z</time>
      </trkpt>
      <trkpt lat="48.02008" lon="6.45472">
        <ele>539</ele>
        <time>2023-04-30T15:36:16Z</time>
      </trkpt>
      <trkpt lat="48.0201" lon="6.45479">
        <ele>539.1</ele>
        <time>2023-04-30T15:36:17Z</time>
      </trkpt>
      <trkpt lat="48.02013" lon="6.45486">
        <ele>539.1</ele>
        <time>2023-04-30T15:36:18Z</time>
      </trkpt>
      <trkpt lat="48.02016" lon="6.45493">
        <ele>539.1</ele>
        <time>2023-04-30T15:36:19Z</time>
      </trkpt>
      <trkpt lat="48.02019" lon="6.45499">
        <ele>539.2</ele>
        <time>2023-04-30T15:36:20Z</time>
      </trkpt>
      <trkpt lat="48.02021" lon="6.45506">
        <ele>539.2</ele>
        <time>2023-04-30T15:36:21Z</time>
      </trkpt>
      <trkpt lat="48.02024" lon="6.45513">
        <ele>539.3</ele>
        <time>2023-04-30T15:36:22Z</time>
      </trkpt>
      <trkpt lat="48.02026" lon="6.4552">
        <ele>539.4</ele>
        <time>2023-04-30T15:36:23Z</time>
      </trkpt>
      <trkpt lat="48.02029" lon="6.45528">
        <ele>539.4</ele>
        <time>2023-04-30T15:36:24Z</time>
      </trkpt>
      <trkpt lat="48.02032" lon="6.45534">
        <ele>539.4</ele>
        <time>2023-04-30T15:36:25Z</time>
      </trkpt>
      <trkpt lat="48.02035" lon="6.45542">
        <ele>539.5</ele>
        <time>2023-04-30T15:36:26Z</time>
      </trkpt>
      <trkpt lat="48.02038" lon="6.45549">
        <ele>539.5</ele>
        <time>2023-04-30T15:36:27Z</time>
      </trkpt>
      <trkpt lat="48.0204" lon="6.45555">
        <ele>539.5</ele>
        <time>2023-04-30T15:36:28Z</time>
      </trkpt>
      <trkpt lat="48.02043" lon="6.45562">
        <ele>539.5</ele>
        <time>2023-04-30T15:36:29Z</time>
      </trkpt>
      <trkpt lat="48.02045" lon="6.45569">
        <ele>539.5</ele>
        <time>2023-04-30T15:36:30Z</time>
      </trkpt>
      <trkpt lat="48.02047" lon="6.45577">
        <ele>539.4</ele>
        <time>2023-04-30T15:36:31Z</time>
      </trkpt>
      <trkpt lat="48.0205" lon="6.45584">
        <ele>539.4</ele>
        <time>2023-04-30T15:36:32Z</time>
      </trkpt>
      <trkpt lat="48.02052" lon="6.45592">
        <ele>539.4</ele>
        <time>2023-04-30T15:36:33Z</time>
      </trkpt>
      <trkpt lat="48.02054" lon="6.456">
        <ele>539.3</ele>
        <time>2023-04-30T15:36:34Z</time>
      </trkpt>
      <trkpt lat="48.02056" lon="6.45608">
        <ele>539.3</ele>
        <time>2023-04-30T15:36:35Z</time>
      </trkpt>
      <trkpt lat="48.02058" lon="6.45616">
        <ele>539.2</ele>
        <time>2023-04-30T15:36:36Z</time>
      </trkpt>
      <trkpt lat="48.02059" lon="6.45624">
        <ele>539.1</ele>
        <time>2023-04-30T15:36:37Z</time>
      </trkpt>
      <trkpt lat="48.02061" lon="6.45632">
        <ele>539.1</ele>
        <time>2023-04-30T15:36:38Z</time>
      </trkpt>
      <trkpt lat="48.02062" lon="6.4564">
        <ele>539</ele>
        <time>2023-04-30T15:36:39Z</time>
      </trkpt>
      <trkpt lat="48.02064" lon="6.45648">
        <ele>538.9</ele>
        <time>2023-04-30T15:36:40Z</time>
      </trkpt>
      <trkpt lat="48.02066" lon="6.45657">
        <ele>538.8</ele>
        <time>2023-04-30T15:36:41Z</time>
      </trkpt>
      <trkpt lat="48.02067" lon="6.45665">
        <ele>538.8</ele>
        <time>2023-04-30T15:36:42Z</time>
      </trkpt>
      <trkpt lat="48.02069" lon="6.45673">
        <ele>538.8</ele>
        <time>2023-04-30T15:36:43Z</time>
      </trkpt>
      <trkpt lat="48.02071" lon="6.45681">
        <ele>538.8</ele>
        <time>2023-04-30T15:36:44Z</time>
      </trkpt>
      <trkpt lat="48.02073" lon="6.4569">
        <ele>538.8</ele>
        <time>2023-04-30T15:36:45Z</time>
      </trkpt>
      <trkpt lat="48.02075" lon="6.45698">
        <ele>538.8</ele>
        <time>2023-04-30T15:36:46Z</time>
      </trkpt>
      <trkpt lat="48.02076" lon="6.45706">
        <ele>538.8</ele>
        <time>2023-04-30T15:36:47Z</time>
      </trkpt>
      <trkpt lat="48.02078" lon="6.45715">
        <ele>538.9</ele>
        <time>2023-04-30T15:36:48Z</time>
      </trkpt>
      <trkpt lat="48.0208" lon="6.45723">
        <ele>538.9</ele>
        <time>2023-04-30T15:36:49Z</time>
      </trkpt>
      <trkpt lat="48.02081" lon="6.45731">
        <ele>538.9</ele>
        <time>2023-04-30T15:36:50Z</time>
      </trkpt>
      <trkpt lat="48.02083" lon="6.4574">
        <ele>539</ele>
        <time>2023-04-30T15:36:51Z</time>
      </trkpt>
      <trkpt lat="48.02085" lon="6.45748">
        <ele>539</ele>
        <time>2023-04-30T15:36:52Z</time>
      </trkpt>
      <trkpt lat="48.02086" lon="6.45756">
        <ele>539.1</ele>
        <time>2023-04-30T15:36:53Z</time>
      </trkpt>
      <trkpt lat="48.02088" lon="6.45764">
        <ele>539.1</ele>
        <time>2023-04-30T15:36:54Z</time>
      </trkpt>
      <trkpt lat="48.0209" lon="6.45773">
        <ele>539.1</ele>
        <time>2023-04-30T15:36:55Z</time>
      </trkpt>
      <trkpt lat="48.02092" lon="6.45781">
        <ele>539.2</ele>
        <time>2023-04-30T15:36:56Z</time>
      </trkpt>
      <trkpt lat="48.02093" lon="6.45789">
        <ele>539.2</ele>
        <time>2023-04-30T15:36:57Z</time>
      </trkpt>
      <trkpt lat="48.02095" lon="6.45798">
        <ele>539.3</ele>
        <time>2023-04-30T15:36:58Z</time>
      </trkpt>
      <trkpt lat="48.02096" lon="6.45806">
        <ele>539.3</ele>
        <time>2023-04-30T15:36:59Z</time>
      </trkpt>
      <trkpt lat="48.02098" lon="6.45815">
        <ele>539.3</ele>
        <time>2023-04-30T15:37:00Z</time>
      </trkpt>
      <trkpt lat="48.021" lon="6.45823">
        <ele>539.4</ele>
        <time>2023-04-30T15:37:01Z</time>
      </trkpt>
      <trkpt lat="48.02102" lon="6.45832">
        <ele>539.4</ele>
        <time>2023-04-30T15:37:02Z</time>
      </trkpt>
      <trkpt lat="48.02103" lon="6.45841">
        <ele>539.4</ele>
        <time>2023-04-30T15:37:03Z</time>
      </trkpt>
      <trkpt lat="48.02104" lon="6.45849">
        <ele>539.5</ele>
        <time>2023-04-30T15:37:04Z</time>
      </trkpt>
      <trkpt lat="48.02105" lon="6.45858">
        <ele>539.5</ele>
        <time>2023-04-30T15:37:05Z</time>
      </trkpt>
      <trkpt lat="48.02106" lon="6.45867">
        <ele>539.6</ele>
        <time>2023-04-30T15:37:06Z</time>
      </trkpt>
      <trkpt lat="48.02106" lon="6.45875">
        <ele>539.7</ele>
        <time>2023-04-30T15:37:07Z</time>
      </trkpt>
      <trkpt lat="48.02107" lon="6.45884">
        <ele>539.7</ele>
        <time>2023-04-30T15:37:08Z</time>
      </trkpt>
      <trkpt lat="48.02107" lon="6.45893">
        <ele>539.8</ele>
        <time>2023-04-30T15:37:09Z</time>
      </trkpt>
      <trkpt lat="48.02108" lon="6.45901">
        <ele>539.8</ele>
        <time>2023-04-30T15:37:10Z</time>
      </trkpt>
      <trkpt lat="48.02108" lon="6.4591">
        <ele>539.9</ele>
        <time>2023-04-30T15:37:11Z</time>
      </trkpt>
      <trkpt lat="48.02108" lon="6.45919">
        <ele>540</ele>
        <time>2023-04-30T15:37:12Z</time>
      </trkpt>
      <trkpt lat="48.02108" lon="6.45928">
        <ele>540.1</ele>
        <time>2023-04-30T15:37:13Z</time>
      </trkpt>
      <trkpt lat="48.02109" lon="6.45937">
        <ele>540.2</ele>
        <time>2023-04-30T15:37:14Z</time>
      </trkpt>
      <trkpt lat="48.02109" lon="6.45945">
        <ele>540.3</ele>
        <time>2023-04-30T15:37:15Z</time>
      </trkpt>
      <trkpt lat="48.02109" lon="6.45954">
        <ele>540.4</ele>
        <time>2023-04-30T15:37:16Z</time>
      </trkpt>
      <trkpt lat="48.02109" lon="6.45962">
        <ele>540.5</ele>
        <time>2023-04-30T15:37:17Z</time>
      </trkpt>
      <trkpt lat="48.02109" lon="6.4597">
        <ele>540.6</ele>
        <time>2023-04-30T15:37:18Z</time>
      </trkpt>
      <trkpt lat="48.02109" lon="6.45979">
        <ele>540.7</ele>
        <time>2023-04-30T15:37:19Z</time>
      </trkpt>
      <trkpt lat="48.02108" lon="6.45987">
        <ele>540.8</ele>
        <time>2023-04-30T15:37:20Z</time>
      </trkpt>
      <trkpt lat="48.02108" lon="6.45995">
        <ele>540.9</ele>
        <time>2023-04-30T15:37:21Z</time>
      </trkpt>
      <trkpt lat="48.02107" lon="6.46003">
        <ele>541</ele>
        <time>2023-04-30T15:37:22Z</time>
      </trkpt>
      <trkpt lat="48.02106" lon="6.46011">
        <ele>541</ele>
        <time>2023-04-30T15:37:23Z</time>
      </trkpt>
      <trkpt lat="48.02104" lon="6.46019">
        <ele>541.1</ele>
        <time>2023-04-30T15:37:24Z</time>
      </trkpt>
      <trkpt lat="48.02102" lon="6.46027">
        <ele>541.2</ele>
        <time>2023-04-30T15:37:25Z</time>
      </trkpt>
      <trkpt lat="48.02101" lon="6.46034">
        <ele>541.2</ele>
        <time>2023-04-30T15:37:26Z</time>
      </trkpt>
      <trkpt lat="48.02099" lon="6.46041">
        <ele>541.3</ele>
        <time>2023-04-30T15:37:27Z</time>
      </trkpt>
      <trkpt lat="48.02098" lon="6.46047">
        <ele>541.4</ele>
        <time>2023-04-30T15:37:28Z</time>
      </trkpt>
      <trkpt lat="48.02096" lon="6.46054">
        <ele>541.4</ele>
        <time>2023-04-30T15:37:29Z</time>
      </trkpt>
      <trkpt lat="48.02095" lon="6.46062">
        <ele>541.4</ele>
        <time>2023-04-30T15:37:30Z</time>
      </trkpt>
      <trkpt lat="48.02093" lon="6.4607">
        <ele>541.4</ele>
        <time>2023-04-30T15:37:31Z</time>
      </trkpt>
      <trkpt lat="48.02091" lon="6.46076">
        <ele>541.4</ele>
        <time>2023-04-30T15:37:32Z</time>
      </trkpt>
      <trkpt lat="48.02089" lon="6.46084">
        <ele>541.4</ele>
        <time>2023-04-30T15:37:33Z</time>
      </trkpt>
      <trkpt lat="48.02088" lon="6.46093">
        <ele>541.3</ele>
        <time>2023-04-30T15:37:34Z</time>
      </trkpt>
      <trkpt lat="48.02087" lon="6.46103">
        <ele>541.3</ele>
        <time>2023-04-30T15:37:35Z</time>
      </trkpt>
      <trkpt lat="48.02086" lon="6.46112">
        <ele>541.2</ele>
        <time>2023-04-30T15:37:36Z</time>
      </trkpt>
      <trkpt lat="48.02086" lon="6.46121">
        <ele>541.2</ele>
        <time>2023-04-30T15:37:37Z</time>
      </trkpt>
      <trkpt lat="48.02086" lon="6.4613">
        <ele>541.1</ele>
        <time>2023-04-30T15:37:38Z</time>
      </trkpt>
      <trkpt lat="48.02086" lon="6.46139">
        <ele>541</ele>
        <time>2023-04-30T15:37:39Z</time>
      </trkpt>
      <trkpt lat="48.02087" lon="6.46149">
        <ele>541</ele>
        <time>2023-04-30T15:37:40Z</time>
      </trkpt>
      <trkpt lat="48.02088" lon="6.46161">
        <ele>540.9</ele>
        <time>2023-04-30T15:37:41Z</time>
      </trkpt>
      <trkpt lat="48.02089" lon="6.46171">
        <ele>540.8</ele>
        <time>2023-04-30T15:37:42Z</time>
      </trkpt>
      <trkpt lat="48.0209" lon="6.46181">
        <ele>540.7</ele>
        <time>2023-04-30T15:37:43Z</time>
      </trkpt>
      <trkpt lat="48.02091" lon="6.46191">
        <ele>540.7</ele>
        <time>2023-04-30T15:37:44Z</time>
      </trkpt>
      <trkpt lat="48.02091" lon="6.46201">
        <ele>540.7</ele>
        <time>2023-04-30T15:37:45Z</time>
      </trkpt>
      <trkpt lat="48.02092" lon="6.4621">
        <ele>540.7</ele>
        <time>2023-04-30T15:37:46Z</time>
      </trkpt>
      <trkpt lat="48.02093" lon="6.4622">
        <ele>540.7</ele>
        <time>2023-04-30T15:37:47Z</time>
      </trkpt>
      <trkpt lat="48.02094" lon="6.4623">
        <ele>540.8</ele>
        <time>2023-04-30T15:37:48Z</time>
      </trkpt>
      <trkpt lat="48.02096" lon="6.46239">
        <ele>540.9</ele>
        <time>2023-04-30T15:37:49Z</time>
      </trkpt>
      <trkpt lat="48.02097" lon="6.46248">
        <ele>541</ele>
        <time>2023-04-30T15:37:50Z</time>
      </trkpt>
      <trkpt lat="48.02098" lon="6.46257">
        <ele>541.1</ele>
        <time>2023-04-30T15:37:51Z</time>
      </trkpt>
      <trkpt lat="48.02101" lon="6.46266">
        <ele>541.3</ele>
        <time>2023-04-30T15:37:52Z</time>
      </trkpt>
      <trkpt lat="48.02103" lon="6.46273">
        <ele>541.4</ele>
        <time>2023-04-30T15:37:53Z</time>
      </trkpt>
      <trkpt lat="48.02107" lon="6.46281">
        <ele>541.5</ele>
        <time>2023-04-30T15:37:54Z</time>
      </trkpt>
      <trkpt lat="48.0211" lon="6.46287">
        <ele>541.7</ele>
        <time>2023-04-30T15:37:55Z</time>
      </trkpt>
      <trkpt lat="48.02113" lon="6.46294">
        <ele>541.8</ele>
        <time>2023-04-30T15:37:56Z</time>
      </trkpt>
      <trkpt lat="48.02117" lon="6.46301">
        <ele>542</ele>
        <time>2023-04-30T15:37:57Z</time>
      </trkpt>
      <trkpt lat="48.0212" lon="6.46307">
        <ele>542.1</ele>
        <time>2023-04-30T15:37:58Z</time>
      </trkpt>
      <trkpt lat="48.02123" lon="6.46314">
        <ele>542.3</ele>
        <time>2023-04-30T15:37:59Z</time>
      </trkpt>
      <trkpt lat="48.02126" lon="6.4632">
        <ele>542.4</ele>
        <time>2023-04-30T15:38:00Z</time>
      </trkpt>
      <trkpt lat="48.02129" lon="6.46327">
        <ele>542.6</ele>
        <time>2023-04-30T15:38:01Z</time>
      </trkpt>
      <trkpt lat="48.02133" lon="6.46333">
        <ele>542.8</ele>
        <time>2023-04-30T15:38:02Z</time>
      </trkpt>
      <trkpt lat="48.02136" lon="6.46339">
        <ele>542.9</ele>
        <time>2023-04-30T15:38:03Z</time>
      </trkpt>
      <trkpt lat="48.02139" lon="6.46345">
        <ele>543.1</ele>
        <time>2023-04-30T15:38:04Z</time>
      </trkpt>
      <trkpt lat="48.02142" lon="6.46352">
        <ele>543.3</ele>
        <time>2023-04-30T15:38:05Z</time>
      </trkpt>
      <trkpt lat="48.02144" lon="6.46358">
        <ele>543.5</ele>
        <time>2023-04-30T15:38:06Z</time>
      </trkpt>
      <trkpt lat="48.02148" lon="6.46363">
        <ele>543.7</ele>
        <time>2023-04-30T15:38:07Z</time>
      </trkpt>
      <trkpt lat="48.0215" lon="6.46368">
        <ele>543.9</ele>
        <time>2023-04-30T15:38:08Z</time>
      </trkpt>
      <trkpt lat="48.02154" lon="6.46374">
        <ele>544.1</ele>
        <time>2023-04-30T15:38:09Z</time>
      </trkpt>
      <trkpt lat="48.02157" lon="6.46379">
        <ele>544.3</ele>
        <time>2023-04-30T15:38:10Z</time>
      </trkpt>
      <trkpt lat="48.0216" lon="6.46384">
        <ele>544.4</ele>
        <time>2023-04-30T15:38:11Z</time>
      </trkpt>
      <trkpt lat="48.02162" lon="6.46387">
        <ele>544.6</ele>
        <time>2023-04-30T15:38:12Z</time>
      </trkpt>
      <trkpt lat="48.02165" lon="6.46393">
        <ele>544.8</ele>
        <time>2023-04-30T15:38:13Z</time>
      </trkpt>
      <trkpt lat="48.02168" lon="6.46399">
        <ele>545</ele>
        <time>2023-04-30T15:38:14Z</time>
      </trkpt>
      <trkpt lat="48.02171" lon="6.46405">
        <ele>545.2</ele>
        <time>2023-04-30T15:38:15Z</time>
      </trkpt>
      <trkpt lat="48.02173" lon="6.46409">
        <ele>545.3</ele>
        <time>2023-04-30T15:38:16Z</time>
      </trkpt>
      <trkpt lat="48.02176" lon="6.46414">
        <ele>545.5</ele>
        <time>2023-04-30T15:38:17Z</time>
      </trkpt>
      <trkpt lat="48.02179" lon="6.46423">
        <ele>545.8</ele>
        <time>2023-04-30T15:38:18Z</time>
      </trkpt>
      <trkpt lat="48.02182" lon="6.46427">
        <ele>546</ele>
        <time>2023-04-30T15:38:19Z</time>
      </trkpt>
      <trkpt lat="48.02187" lon="6.46436">
        <ele>546.3</ele>
        <time>2023-04-30T15:38:21Z</time>
      </trkpt>
      <trkpt lat="48.02189" lon="6.4644">
        <ele>546.4</ele>
        <time>2023-04-30T15:38:22Z</time>
      </trkpt>
      <trkpt lat="48.02194" lon="6.46446">
        <ele>546.7</ele>
        <time>2023-04-30T15:38:23Z</time>
      </trkpt>
      <trkpt lat="48.02201" lon="6.46455">
        <ele>547</ele>
        <time>2023-04-30T15:38:25Z</time>
      </trkpt>
      <trkpt lat="48.02205" lon="6.46461">
        <ele>547.2</ele>
        <time>2023-04-30T15:38:26Z</time>
      </trkpt>
      <trkpt lat="48.02208" lon="6.46467">
        <ele>547.4</ele>
        <time>2023-04-30T15:38:27Z</time>
      </trkpt>
      <trkpt lat="48.02212" lon="6.46471">
        <ele>547.5</ele>
        <time>2023-04-30T15:38:28Z</time>
      </trkpt>
      <trkpt lat="48.02216" lon="6.46476">
        <ele>547.7</ele>
        <time>2023-04-30T15:38:29Z</time>
      </trkpt>
      <trkpt lat="48.0222" lon="6.4648">
        <ele>547.7</ele>
        <time>2023-04-30T15:38:30Z</time>
      </trkpt>
      <trkpt lat="48.02222" lon="6.46482">
        <ele>547.7</ele>
        <time>2023-04-30T15:38:31Z</time>
      </trkpt>
      <trkpt lat="48.02233" lon="6.46488">
        <ele>546.1</ele>
        <time>2023-04-30T15:38:33Z</time>
      </trkpt>
      <trkpt lat="48.02238" lon="6.46489">
        <ele>545.4</ele>
        <time>2023-04-30T15:38:34Z</time>
      </trkpt>
      <trkpt lat="48.02244" lon="6.46489">
        <ele>544.8</ele>
        <time>2023-04-30T15:38:35Z</time>
      </trkpt>
      <trkpt lat="48.0225" lon="6.46489">
        <ele>544.1</ele>
        <time>2023-04-30T15:38:36Z</time>
      </trkpt>
      <trkpt lat="48.02257" lon="6.4649">
        <ele>543.4</ele>
        <time>2023-04-30T15:38:37Z</time>
      </trkpt>
      <trkpt lat="48.02263" lon="6.46489">
        <ele>542.7</ele>
        <time>2023-04-30T15:38:38Z</time>
      </trkpt>
      <trkpt lat="48.02271" lon="6.46488">
        <ele>542</ele>
        <time>2023-04-30T15:38:39Z</time>
      </trkpt>
      <trkpt lat="48.02278" lon="6.46486">
        <ele>541.2</ele>
        <time>2023-04-30T15:38:40Z</time>
      </trkpt>
      <trkpt lat="48.02285" lon="6.46482">
        <ele>540.6</ele>
        <time>2023-04-30T15:38:41Z</time>
      </trkpt>
      <trkpt lat="48.02293" lon="6.46477">
        <ele>540</ele>
        <time>2023-04-30T15:38:42Z</time>
      </trkpt>
      <trkpt lat="48.023" lon="6.46471">
        <ele>539.4</ele>
        <time>2023-04-30T15:38:43Z</time>
      </trkpt>
      <trkpt lat="48.02308" lon="6.46464">
        <ele>539</ele>
        <time>2023-04-30T15:38:44Z</time>
      </trkpt>
      <trkpt lat="48.02315" lon="6.46457">
        <ele>538.7</ele>
        <time>2023-04-30T15:38:45Z</time>
      </trkpt>
      <trkpt lat="48.02323" lon="6.4645">
        <ele>538.6</ele>
        <time>2023-04-30T15:38:46Z</time>
      </trkpt>
      <trkpt lat="48.02329" lon="6.46444">
        <ele>538.5</ele>
        <time>2023-04-30T15:38:47Z</time>
      </trkpt>
      <trkpt lat="48.02336" lon="6.46438">
        <ele>538.7</ele>
        <time>2023-04-30T15:38:48Z</time>
      </trkpt>
      <trkpt lat="48.02343" lon="6.46434">
        <ele>538.8</ele>
        <time>2023-04-30T15:38:49Z</time>
      </trkpt>
      <trkpt lat="48.02351" lon="6.4643">
        <ele>539.1</ele>
        <time>2023-04-30T15:38:50Z</time>
      </trkpt>
      <trkpt lat="48.0236" lon="6.46429">
        <ele>539.4</ele>
        <time>2023-04-30T15:38:51Z</time>
      </trkpt>
      <trkpt lat="48.02368" lon="6.4643">
        <ele>539.9</ele>
        <time>2023-04-30T15:38:52Z</time>
      </trkpt>
      <trkpt lat="48.02375" lon="6.46432">
        <ele>540.3</ele>
        <time>2023-04-30T15:38:53Z</time>
      </trkpt>
      <trkpt lat="48.02381" lon="6.46436">
        <ele>540.8</ele>
        <time>2023-04-30T15:38:54Z</time>
      </trkpt>
      <trkpt lat="48.02386" lon="6.46439">
        <ele>541.2</ele>
        <time>2023-04-30T15:38:55Z</time>
      </trkpt>
      <trkpt lat="48.02391" lon="6.46443">
        <ele>541.7</ele>
        <time>2023-04-30T15:38:56Z</time>
      </trkpt>
      <trkpt lat="48.02396" lon="6.46446">
        <ele>542.1</ele>
        <time>2023-04-30T15:38:57Z</time>
      </trkpt>
      <trkpt lat="48.024" lon="6.46449">
        <ele>542.6</ele>
        <time>2023-04-30T15:38:58Z</time>
      </trkpt>
      <trkpt lat="48.02405" lon="6.46452">
        <ele>543.1</ele>
        <time>2023-04-30T15:38:59Z</time>
      </trkpt>
      <trkpt lat="48.02408" lon="6.46455">
        <ele>543.6</ele>
        <time>2023-04-30T15:39:00Z</time>
      </trkpt>
      <trkpt lat="48.02411" lon="6.46457">
        <ele>544</ele>
        <time>2023-04-30T15:39:01Z</time>
      </trkpt>
      <trkpt lat="48.02414" lon="6.46459">
        <ele>544.4</ele>
        <time>2023-04-30T15:39:02Z</time>
      </trkpt>
      <trkpt lat="48.02417" lon="6.46462">
        <ele>544.8</ele>
        <time>2023-04-30T15:39:03Z</time>
      </trkpt>
      <trkpt lat="48.0242" lon="6.46464">
        <ele>545.2</ele>
        <time>2023-04-30T15:39:04Z</time>
      </trkpt>
      <trkpt lat="48.02423" lon="6.46467">
        <ele>545.6</ele>
        <time>2023-04-30T15:39:05Z</time>
      </trkpt>
      <trkpt lat="48.02426" lon="6.46469">
        <ele>546</ele>
        <time>2023-04-30T15:39:06Z</time>
      </trkpt>
      <trkpt lat="48.02428" lon="6.46471">
        <ele>546.3</ele>
        <time>2023-04-30T15:39:07Z</time>
      </trkpt>
      <trkpt lat="48.02433" lon="6.46474">
        <ele>546.8</ele>
        <time>2023-04-30T15:39:08Z</time>
      </trkpt>
      <trkpt lat="48.02435" lon="6.46478">
        <ele>547.2</ele>
        <time>2023-04-30T15:39:09Z</time>
      </trkpt>
      <trkpt lat="48.02436" lon="6.46483">
        <ele>547.6</ele>
        <time>2023-04-30T15:39:10Z</time>
      </trkpt>
      <trkpt lat="48.02439" lon="6.46488">
        <ele>547.9</ele>
        <time>2023-04-30T15:39:11Z</time>
      </trkpt>
      <trkpt lat="48.02441" lon="6.46493">
        <ele>548.2</ele>
        <time>2023-04-30T15:39:12Z</time>
      </trkpt>
      <trkpt lat="48.02442" lon="6.46497">
        <ele>548.4</ele>
        <time>2023-04-30T15:39:13Z</time>
      </trkpt>
      <trkpt lat="48.02445" lon="6.46501">
        <ele>548.6</ele>
        <time>2023-04-30T15:39:15Z</time>
      </trkpt>
      <trkpt lat="48.02448" lon="6.46507">
        <ele>548.9</ele>
        <time>2023-04-30T15:39:16Z</time>
      </trkpt>
      <trkpt lat="48.0245" lon="6.46512">
        <ele>549.2</ele>
        <time>2023-04-30T15:39:17Z</time>
      </trkpt>
      <trkpt lat="48.02452" lon="6.46515">
        <ele>549.4</ele>
        <time>2023-04-30T15:39:18Z</time>
      </trkpt>
      <trkpt lat="48.02454" lon="6.46519">
        <ele>549.6</ele>
        <time>2023-04-30T15:39:19Z</time>
      </trkpt>
      <trkpt lat="48.02457" lon="6.46525">
        <ele>550</ele>
        <time>2023-04-30T15:39:21Z</time>
      </trkpt>
      <trkpt lat="48.0246" lon="6.4653">
        <ele>550.2</ele>
        <time>2023-04-30T15:39:22Z</time>
      </trkpt>
      <trkpt lat="48.02463" lon="6.46534">
        <ele>550.5</ele>
        <time>2023-04-30T15:39:23Z</time>
      </trkpt>
      <trkpt lat="48.02465" lon="6.46538">
        <ele>550.7</ele>
        <time>2023-04-30T15:39:24Z</time>
      </trkpt>
      <trkpt lat="48.02467" lon="6.46544">
        <ele>551</ele>
        <time>2023-04-30T15:39:25Z</time>
      </trkpt>
      <trkpt lat="48.02469" lon="6.46548">
        <ele>551.1</ele>
        <time>2023-04-30T15:39:26Z</time>
      </trkpt>
      <trkpt lat="48.02471" lon="6.46552">
        <ele>551.3</ele>
        <time>2023-04-30T15:39:27Z</time>
      </trkpt>
      <trkpt lat="48.02472" lon="6.46557">
        <ele>551.5</ele>
        <time>2023-04-30T15:39:29Z</time>
      </trkpt>
      <trkpt lat="48.02475" lon="6.46563">
        <ele>551.7</ele>
        <time>2023-04-30T15:39:30Z</time>
      </trkpt>
      <trkpt lat="48.02476" lon="6.46567">
        <ele>551.8</ele>
        <time>2023-04-30T15:39:31Z</time>
      </trkpt>
      <trkpt lat="48.02478" lon="6.46572">
        <ele>552</ele>
        <time>2023-04-30T15:39:32Z</time>
      </trkpt>
      <trkpt lat="48.02481" lon="6.46576">
        <ele>552.1</ele>
        <time>2023-04-30T15:39:33Z</time>
      </trkpt>
      <trkpt lat="48.02483" lon="6.46582">
        <ele>552.2</ele>
        <time>2023-04-30T15:39:35Z</time>
      </trkpt>
      <trkpt lat="48.02485" lon="6.46587">
        <ele>552.3</ele>
        <time>2023-04-30T15:39:36Z</time>
      </trkpt>
      <trkpt lat="48.02488" lon="6.46593">
        <ele>552.4</ele>
        <time>2023-04-30T15:39:37Z</time>
      </trkpt>
      <trkpt lat="48.02491" lon="6.46599">
        <ele>552.5</ele>
        <time>2023-04-30T15:39:38Z</time>
      </trkpt>
      <trkpt lat="48.02493" lon="6.46605">
        <ele>552.5</ele>
        <time>2023-04-30T15:39:39Z</time>
      </trkpt>
      <trkpt lat="48.02495" lon="6.4661">
        <ele>552.5</ele>
        <time>2023-04-30T15:39:41Z</time>
      </trkpt>
      <trkpt lat="48.02497" lon="6.46615">
        <ele>552.5</ele>
        <time>2023-04-30T15:39:42Z</time>
      </trkpt>
      <trkpt lat="48.02499" lon="6.46621">
        <ele>552.5</ele>
        <time>2023-04-30T15:39:43Z</time>
      </trkpt>
      <trkpt lat="48.02501" lon="6.46626">
        <ele>552.5</ele>
        <time>2023-04-30T15:39:44Z</time>
      </trkpt>
      <trkpt lat="48.02503" lon="6.46632">
        <ele>552.5</ele>
        <time>2023-04-30T15:39:45Z</time>
      </trkpt>
      <trkpt lat="48.02505" lon="6.46637">
        <ele>552.5</ele>
        <time>2023-04-30T15:39:46Z</time>
      </trkpt>
      <trkpt lat="48.02508" lon="6.46643">
        <ele>552.5</ele>
        <time>2023-04-30T15:39:47Z</time>
      </trkpt>
      <trkpt lat="48.02511" lon="6.46649">
        <ele>552.5</ele>
        <time>2023-04-30T15:39:48Z</time>
      </trkpt>
      <trkpt lat="48.02514" lon="6.46655">
        <ele>552.5</ele>
        <time>2023-04-30T15:39:50Z</time>
      </trkpt>
      <trkpt lat="48.02516" lon="6.46661">
        <ele>552.4</ele>
        <time>2023-04-30T15:39:51Z</time>
      </trkpt>
      <trkpt lat="48.0252" lon="6.46668">
        <ele>552.4</ele>
        <time>2023-04-30T15:39:52Z</time>
      </trkpt>
      <trkpt lat="48.02523" lon="6.46674">
        <ele>552.4</ele>
        <time>2023-04-30T15:39:53Z</time>
      </trkpt>
      <trkpt lat="48.02526" lon="6.46679">
        <ele>552.4</ele>
        <time>2023-04-30T15:39:55Z</time>
      </trkpt>
      <trkpt lat="48.0253" lon="6.46686">
        <ele>552.4</ele>
        <time>2023-04-30T15:39:56Z</time>
      </trkpt>
      <trkpt lat="48.02533" lon="6.46693">
        <ele>552.4</ele>
        <time>2023-04-30T15:39:57Z</time>
      </trkpt>
      <trkpt lat="48.02536" lon="6.46699">
        <ele>552.4</ele>
        <time>2023-04-30T15:39:58Z</time>
      </trkpt>
      <trkpt lat="48.02539" lon="6.46705">
        <ele>552.4</ele>
        <time>2023-04-30T15:39:59Z</time>
      </trkpt>
      <trkpt lat="48.02542" lon="6.46712">
        <ele>552.4</ele>
        <time>2023-04-30T15:40:00Z</time>
      </trkpt>
      <trkpt lat="48.02544" lon="6.46718">
        <ele>552.5</ele>
        <time>2023-04-30T15:40:01Z</time>
      </trkpt>
      <trkpt lat="48.02547" lon="6.46724">
        <ele>552.6</ele>
        <time>2023-04-30T15:40:02Z</time>
      </trkpt>
      <trkpt lat="48.0255" lon="6.4673">
        <ele>552.6</ele>
        <time>2023-04-30T15:40:03Z</time>
      </trkpt>
      <trkpt lat="48.02552" lon="6.46735">
        <ele>552.7</ele>
        <time>2023-04-30T15:40:04Z</time>
      </trkpt>
      <trkpt lat="48.02555" lon="6.46741">
        <ele>552.8</ele>
        <time>2023-04-30T15:40:05Z</time>
      </trkpt>
      <trkpt lat="48.02558" lon="6.46746">
        <ele>552.9</ele>
        <time>2023-04-30T15:40:06Z</time>
      </trkpt>
      <trkpt lat="48.02561" lon="6.46752">
        <ele>553</ele>
        <time>2023-04-30T15:40:07Z</time>
      </trkpt>
      <trkpt lat="48.02563" lon="6.46758">
        <ele>553.2</ele>
        <time>2023-04-30T15:40:08Z</time>
      </trkpt>
      <trkpt lat="48.02566" lon="6.46764">
        <ele>553.3</ele>
        <time>2023-04-30T15:40:09Z</time>
      </trkpt>
      <trkpt lat="48.02568" lon="6.4677">
        <ele>553.5</ele>
        <time>2023-04-30T15:40:10Z</time>
      </trkpt>
      <trkpt lat="48.0257" lon="6.46775">
        <ele>553.7</ele>
        <time>2023-04-30T15:40:11Z</time>
      </trkpt>
      <trkpt lat="48.02572" lon="6.46779">
        <ele>553.8</ele>
        <time>2023-04-30T15:40:12Z</time>
      </trkpt>
      <trkpt lat="48.02573" lon="6.46785">
        <ele>553.9</ele>
        <time>2023-04-30T15:40:13Z</time>
      </trkpt>
      <trkpt lat="48.02575" lon="6.46791">
        <ele>554.1</ele>
        <time>2023-04-30T15:40:14Z</time>
      </trkpt>
      <trkpt lat="48.02577" lon="6.46797">
        <ele>554.3</ele>
        <time>2023-04-30T15:40:15Z</time>
      </trkpt>
      <trkpt lat="48.02579" lon="6.46802">
        <ele>554.5</ele>
        <time>2023-04-30T15:40:16Z</time>
      </trkpt>
      <trkpt lat="48.02581" lon="6.46808">
        <ele>554.6</ele>
        <time>2023-04-30T15:40:17Z</time>
      </trkpt>
      <trkpt lat="48.02583" lon="6.4681">
        <ele>554.7</ele>
        <time>2023-04-30T15:40:18Z</time>
      </trkpt>
      <trkpt lat="48.02586" lon="6.46819">
        <ele>554.9</ele>
        <time>2023-04-30T15:40:19Z</time>
      </trkpt>
      <trkpt lat="48.02588" lon="6.46828">
        <ele>555.1</ele>
        <time>2023-04-30T15:40:20Z</time>
      </trkpt>
      <trkpt lat="48.02589" lon="6.46836">
        <ele>555.3</ele>
        <time>2023-04-30T15:40:22Z</time>
      </trkpt>
      <trkpt lat="48.02591" lon="6.46842">
        <ele>555.5</ele>
        <time>2023-04-30T15:40:23Z</time>
      </trkpt>
      <trkpt lat="48.02593" lon="6.46852">
        <ele>555.7</ele>
        <time>2023-04-30T15:40:24Z</time>
      </trkpt>
      <trkpt lat="48.02596" lon="6.46864">
        <ele>555.9</ele>
        <time>2023-04-30T15:40:26Z</time>
      </trkpt>
      <trkpt lat="48.02598" lon="6.46871">
        <ele>556.1</ele>
        <time>2023-04-30T15:40:27Z</time>
      </trkpt>
      <trkpt lat="48.026" lon="6.46878">
        <ele>556.2</ele>
        <time>2023-04-30T15:40:28Z</time>
      </trkpt>
      <trkpt lat="48.02602" lon="6.4689">
        <ele>556.5</ele>
        <time>2023-04-30T15:40:30Z</time>
      </trkpt>
      <trkpt lat="48.02604" lon="6.46897">
        <ele>556.7</ele>
        <time>2023-04-30T15:40:31Z</time>
      </trkpt>
      <trkpt lat="48.02607" lon="6.4691">
        <ele>557</ele>
        <time>2023-04-30T15:40:33Z</time>
      </trkpt>
      <trkpt lat="48.02608" lon="6.46917">
        <ele>557.2</ele>
        <time>2023-04-30T15:40:34Z</time>
      </trkpt>
      <trkpt lat="48.02609" lon="6.46923">
        <ele>557.4</ele>
        <time>2023-04-30T15:40:35Z</time>
      </trkpt>
      <trkpt lat="48.02611" lon="6.46929">
        <ele>557.6</ele>
        <time>2023-04-30T15:40:36Z</time>
      </trkpt>
      <trkpt lat="48.02612" lon="6.46933">
        <ele>557.7</ele>
        <time>2023-04-30T15:40:37Z</time>
      </trkpt>
      <trkpt lat="48.02614" lon="6.46944">
        <ele>558.1</ele>
        <time>2023-04-30T15:40:39Z</time>
      </trkpt>
      <trkpt lat="48.02616" lon="6.46952">
        <ele>558.3</ele>
        <time>2023-04-30T15:40:40Z</time>
      </trkpt>
      <trkpt lat="48.02618" lon="6.46961">
        <ele>558.5</ele>
        <time>2023-04-30T15:40:41Z</time>
      </trkpt>
      <trkpt lat="48.02619" lon="6.46968">
        <ele>558.6</ele>
        <time>2023-04-30T15:40:42Z</time>
      </trkpt>
      <trkpt lat="48.02621" lon="6.46974">
        <ele>558.8</ele>
        <time>2023-04-30T15:40:43Z</time>
      </trkpt>
      <trkpt lat="48.02623" lon="6.46981">
        <ele>558.9</ele>
        <time>2023-04-30T15:40:45Z</time>
      </trkpt>
      <trkpt lat="48.02627" lon="6.46992">
        <ele>559.1</ele>
        <time>2023-04-30T15:40:46Z</time>
      </trkpt>
      <trkpt lat="48.02629" lon="6.46999">
        <ele>559.2</ele>
        <time>2023-04-30T15:40:48Z</time>
      </trkpt>
      <trkpt lat="48.02633" lon="6.47005">
        <ele>559.3</ele>
        <time>2023-04-30T15:40:49Z</time>
      </trkpt>
      <trkpt lat="48.02636" lon="6.47012">
        <ele>559.3</ele>
        <time>2023-04-30T15:40:50Z</time>
      </trkpt>
      <trkpt lat="48.02639" lon="6.47017">
        <ele>559.4</ele>
        <time>2023-04-30T15:40:51Z</time>
      </trkpt>
      <trkpt lat="48.02642" lon="6.47023">
        <ele>559.5</ele>
        <time>2023-04-30T15:40:53Z</time>
      </trkpt>
      <trkpt lat="48.02646" lon="6.47029">
        <ele>559.6</ele>
        <time>2023-04-30T15:40:54Z</time>
      </trkpt>
      <trkpt lat="48.0265" lon="6.47038">
        <ele>559.8</ele>
        <time>2023-04-30T15:40:55Z</time>
      </trkpt>
      <trkpt lat="48.02653" lon="6.47043">
        <ele>559.9</ele>
        <time>2023-04-30T15:40:57Z</time>
      </trkpt>
      <trkpt lat="48.02658" lon="6.47051">
        <ele>560.1</ele>
        <time>2023-04-30T15:40:58Z</time>
      </trkpt>
      <trkpt lat="48.0266" lon="6.47056">
        <ele>560.3</ele>
        <time>2023-04-30T15:40:59Z</time>
      </trkpt>
      <trkpt lat="48.02663" lon="6.47061">
        <ele>560.4</ele>
        <time>2023-04-30T15:41:01Z</time>
      </trkpt>
      <trkpt lat="48.02667" lon="6.47066">
        <ele>560.6</ele>
        <time>2023-04-30T15:41:02Z</time>
      </trkpt>
      <trkpt lat="48.02671" lon="6.47072">
        <ele>560.7</ele>
        <time>2023-04-30T15:41:03Z</time>
      </trkpt>
      <trkpt lat="48.02673" lon="6.47077">
        <ele>560.9</ele>
        <time>2023-04-30T15:41:04Z</time>
      </trkpt>
      <trkpt lat="48.02677" lon="6.47083">
        <ele>561</ele>
        <time>2023-04-30T15:41:05Z</time>
      </trkpt>
      <trkpt lat="48.02679" lon="6.47088">
        <ele>561.1</ele>
        <time>2023-04-30T15:41:06Z</time>
      </trkpt>
      <trkpt lat="48.02683" lon="6.47094">
        <ele>561.3</ele>
        <time>2023-04-30T15:41:08Z</time>
      </trkpt>
      <trkpt lat="48.02689" lon="6.47103">
        <ele>561.6</ele>
        <time>2023-04-30T15:41:09Z</time>
      </trkpt>
      <trkpt lat="48.02694" lon="6.47111">
        <ele>561.9</ele>
        <time>2023-04-30T15:41:12Z</time>
      </trkpt>
      <trkpt lat="48.02696" lon="6.47116">
        <ele>562.1</ele>
        <time>2023-04-30T15:41:13Z</time>
      </trkpt>
      <trkpt lat="48.02699" lon="6.4712">
        <ele>562.2</ele>
        <time>2023-04-30T15:41:14Z</time>
      </trkpt>
      <trkpt lat="48.02704" lon="6.47128">
        <ele>562.5</ele>
        <time>2023-04-30T15:41:15Z</time>
      </trkpt>
      <trkpt lat="48.02706" lon="6.47132">
        <ele>562.7</ele>
        <time>2023-04-30T15:41:17Z</time>
      </trkpt>
      <trkpt lat="48.02708" lon="6.47137">
        <ele>562.8</ele>
        <time>2023-04-30T15:41:18Z</time>
      </trkpt>
      <trkpt lat="48.02711" lon="6.47143">
        <ele>563</ele>
        <time>2023-04-30T15:41:19Z</time>
      </trkpt>
      <trkpt lat="48.02713" lon="6.47147">
        <ele>563.2</ele>
        <time>2023-04-30T15:41:20Z</time>
      </trkpt>
      <trkpt lat="48.02716" lon="6.47152">
        <ele>563.4</ele>
        <time>2023-04-30T15:41:21Z</time>
      </trkpt>
      <trkpt lat="48.02719" lon="6.47157">
        <ele>563.6</ele>
        <time>2023-04-30T15:41:22Z</time>
      </trkpt>
      <trkpt lat="48.02722" lon="6.47162">
        <ele>563.8</ele>
        <time>2023-04-30T15:41:24Z</time>
      </trkpt>
      <trkpt lat="48.02724" lon="6.47167">
        <ele>564</ele>
        <time>2023-04-30T15:41:25Z</time>
      </trkpt>
      <trkpt lat="48.02728" lon="6.47173">
        <ele>564.2</ele>
        <time>2023-04-30T15:41:26Z</time>
      </trkpt>
      <trkpt lat="48.02731" lon="6.47179">
        <ele>564.4</ele>
        <time>2023-04-30T15:41:28Z</time>
      </trkpt>
      <trkpt lat="48.02733" lon="6.47184">
        <ele>564.6</ele>
        <time>2023-04-30T15:41:29Z</time>
      </trkpt>
      <trkpt lat="48.02736" lon="6.47189">
        <ele>564.8</ele>
        <time>2023-04-30T15:41:30Z</time>
      </trkpt>
      <trkpt lat="48.02739" lon="6.47195">
        <ele>565</ele>
        <time>2023-04-30T15:41:31Z</time>
      </trkpt>
      <trkpt lat="48.02743" lon="6.47201">
        <ele>565.2</ele>
        <time>2023-04-30T15:41:33Z</time>
      </trkpt>
      <trkpt lat="48.02746" lon="6.47205">
        <ele>565.4</ele>
        <time>2023-04-30T15:41:34Z</time>
      </trkpt>
      <trkpt lat="48.02749" lon="6.47212">
        <ele>565.6</ele>
        <time>2023-04-30T15:41:35Z</time>
      </trkpt>
      <trkpt lat="48.02752" lon="6.47218">
        <ele>565.8</ele>
        <time>2023-04-30T15:41:36Z</time>
      </trkpt>
      <trkpt lat="48.02755" lon="6.47224">
        <ele>566.1</ele>
        <time>2023-04-30T15:41:37Z</time>
      </trkpt>
      <trkpt lat="48.02758" lon="6.47228">
        <ele>566.3</ele>
        <time>2023-04-30T15:41:38Z</time>
      </trkpt>
      <trkpt lat="48.0276" lon="6.47233">
        <ele>566.4</ele>
        <time>2023-04-30T15:41:40Z</time>
      </trkpt>
      <trkpt lat="48.02765" lon="6.47241">
        <ele>566.8</ele>
        <time>2023-04-30T15:41:42Z</time>
      </trkpt>
      <trkpt lat="48.02768" lon="6.47246">
        <ele>567</ele>
        <time>2023-04-30T15:41:43Z</time>
      </trkpt>
      <trkpt lat="48.02771" lon="6.4725">
        <ele>567.2</ele>
        <time>2023-04-30T15:41:44Z</time>
      </trkpt>
      <trkpt lat="48.02775" lon="6.47257">
        <ele>567.5</ele>
        <time>2023-04-30T15:41:45Z</time>
      </trkpt>
      <trkpt lat="48.02778" lon="6.47262">
        <ele>567.6</ele>
        <time>2023-04-30T15:41:46Z</time>
      </trkpt>
      <trkpt lat="48.02782" lon="6.47268">
        <ele>567.9</ele>
        <time>2023-04-30T15:41:47Z</time>
      </trkpt>
      <trkpt lat="48.02784" lon="6.47273">
        <ele>568.1</ele>
        <time>2023-04-30T15:41:49Z</time>
      </trkpt>
      <trkpt lat="48.02787" lon="6.47277">
        <ele>568.2</ele>
        <time>2023-04-30T15:41:50Z</time>
      </trkpt>
      <trkpt lat="48.02789" lon="6.47282">
        <ele>568.4</ele>
        <time>2023-04-30T15:41:51Z</time>
      </trkpt>
      <trkpt lat="48.02793" lon="6.47289">
        <ele>568.7</ele>
        <time>2023-04-30T15:41:52Z</time>
      </trkpt>
      <trkpt lat="48.02797" lon="6.47296">
        <ele>568.9</ele>
        <time>2023-04-30T15:41:54Z</time>
      </trkpt>
      <trkpt lat="48.02801" lon="6.47302">
        <ele>569.2</ele>
        <time>2023-04-30T15:41:55Z</time>
      </trkpt>
      <trkpt lat="48.02804" lon="6.47307">
        <ele>569.4</ele>
        <time>2023-04-30T15:41:56Z</time>
      </trkpt>
      <trkpt lat="48.02808" lon="6.47311">
        <ele>569.6</ele>
        <time>2023-04-30T15:41:57Z</time>
      </trkpt>
      <trkpt lat="48.02814" lon="6.47322">
        <ele>570</ele>
        <time>2023-04-30T15:41:59Z</time>
      </trkpt>
      <trkpt lat="48.02817" lon="6.47327">
        <ele>570.2</ele>
        <time>2023-04-30T15:42:01Z</time>
      </trkpt>
      <trkpt lat="48.0282" lon="6.47333">
        <ele>570.4</ele>
        <time>2023-04-30T15:42:02Z</time>
      </trkpt>
      <trkpt lat="48.02823" lon="6.47337">
        <ele>570.6</ele>
        <time>2023-04-30T15:42:03Z</time>
      </trkpt>
      <trkpt lat="48.02827" lon="6.47343">
        <ele>570.8</ele>
        <time>2023-04-30T15:42:04Z</time>
      </trkpt>
      <trkpt lat="48.0283" lon="6.47348">
        <ele>571</ele>
        <time>2023-04-30T15:42:06Z</time>
      </trkpt>
      <trkpt lat="48.02833" lon="6.47353">
        <ele>571.1</ele>
        <time>2023-04-30T15:42:07Z</time>
      </trkpt>
      <trkpt lat="48.02836" lon="6.47358">
        <ele>571.3</ele>
        <time>2023-04-30T15:42:08Z</time>
      </trkpt>
      <trkpt lat="48.0284" lon="6.47364">
        <ele>571.6</ele>
        <time>2023-04-30T15:42:09Z</time>
      </trkpt>
      <trkpt lat="48.02843" lon="6.4737">
        <ele>571.8</ele>
        <time>2023-04-30T15:42:10Z</time>
      </trkpt>
      <trkpt lat="48.02847" lon="6.47375">
        <ele>572.1</ele>
        <time>2023-04-30T15:42:11Z</time>
      </trkpt>
      <trkpt lat="48.02849" lon="6.47378">
        <ele>572.2</ele>
        <time>2023-04-30T15:42:12Z</time>
      </trkpt>
      <trkpt lat="48.02852" lon="6.47382">
        <ele>572.4</ele>
        <time>2023-04-30T15:42:13Z</time>
      </trkpt>
      <trkpt lat="48.02856" lon="6.47387">
        <ele>572.7</ele>
        <time>2023-04-30T15:42:15Z</time>
      </trkpt>
      <trkpt lat="48.0286" lon="6.47392">
        <ele>572.9</ele>
        <time>2023-04-30T15:42:16Z</time>
      </trkpt>
      <trkpt lat="48.02865" lon="6.474">
        <ele>573.2</ele>
        <time>2023-04-30T15:42:17Z</time>
      </trkpt>
      <trkpt lat="48.02869" lon="6.47405">
        <ele>573.5</ele>
        <time>2023-04-30T15:42:19Z</time>
      </trkpt>
      <trkpt lat="48.02873" lon="6.47411">
        <ele>573.8</ele>
        <time>2023-04-30T15:42:20Z</time>
      </trkpt>
      <trkpt lat="48.02877" lon="6.47416">
        <ele>574</ele>
        <time>2023-04-30T15:42:21Z</time>
      </trkpt>
      <trkpt lat="48.0288" lon="6.47421">
        <ele>574.2</ele>
        <time>2023-04-30T15:42:23Z</time>
      </trkpt>
      <trkpt lat="48.02884" lon="6.47427">
        <ele>574.5</ele>
        <time>2023-04-30T15:42:24Z</time>
      </trkpt>
      <trkpt lat="48.02887" lon="6.47432">
        <ele>574.7</ele>
        <time>2023-04-30T15:42:25Z</time>
      </trkpt>
      <trkpt lat="48.02891" lon="6.47436">
        <ele>575</ele>
        <time>2023-04-30T15:42:26Z</time>
      </trkpt>
      <trkpt lat="48.02895" lon="6.47441">
        <ele>575.2</ele>
        <time>2023-04-30T15:42:27Z</time>
      </trkpt>
      <trkpt lat="48.02898" lon="6.47445">
        <ele>575.4</ele>
        <time>2023-04-30T15:42:28Z</time>
      </trkpt>
      <trkpt lat="48.02902" lon="6.4745">
        <ele>575.6</ele>
        <time>2023-04-30T15:42:29Z</time>
      </trkpt>
      <trkpt lat="48.02905" lon="6.47454">
        <ele>575.8</ele>
        <time>2023-04-30T15:42:31Z</time>
      </trkpt>
      <trkpt lat="48.0291" lon="6.4746">
        <ele>576.1</ele>
        <time>2023-04-30T15:42:32Z</time>
      </trkpt>
      <trkpt lat="48.02914" lon="6.47463">
        <ele>576.3</ele>
        <time>2023-04-30T15:42:33Z</time>
      </trkpt>
      <trkpt lat="48.02918" lon="6.47468">
        <ele>576.6</ele>
        <time>2023-04-30T15:42:34Z</time>
      </trkpt>
      <trkpt lat="48.02924" lon="6.47474">
        <ele>576.9</ele>
        <time>2023-04-30T15:42:36Z</time>
      </trkpt>
      <trkpt lat="48.02928" lon="6.47477">
        <ele>577.1</ele>
        <time>2023-04-30T15:42:37Z</time>
      </trkpt>
      <trkpt lat="48.02931" lon="6.4748">
        <ele>577.2</ele>
        <time>2023-04-30T15:42:38Z</time>
      </trkpt>
      <trkpt lat="48.02935" lon="6.47484">
        <ele>577.5</ele>
        <time>2023-04-30T15:42:39Z</time>
      </trkpt>
      <trkpt lat="48.0294" lon="6.47488">
        <ele>577.7</ele>
        <time>2023-04-30T15:42:41Z</time>
      </trkpt>
      <trkpt lat="48.02944" lon="6.47491">
        <ele>577.9</ele>
        <time>2023-04-30T15:42:42Z</time>
      </trkpt>
      <trkpt lat="48.02949" lon="6.47497">
        <ele>578.3</ele>
        <time>2023-04-30T15:42:43Z</time>
      </trkpt>
      <trkpt lat="48.02952" lon="6.47499">
        <ele>578.4</ele>
        <time>2023-04-30T15:42:44Z</time>
      </trkpt>
      <trkpt lat="48.02957" lon="6.47503">
        <ele>578.6</ele>
        <time>2023-04-30T15:42:45Z</time>
      </trkpt>
      <trkpt lat="48.02962" lon="6.47507">
        <ele>578.9</ele>
        <time>2023-04-30T15:42:47Z</time>
      </trkpt>
      <trkpt lat="48.02967" lon="6.47511">
        <ele>579.1</ele>
        <time>2023-04-30T15:42:48Z</time>
      </trkpt>
      <trkpt lat="48.02971" lon="6.47515">
        <ele>579.3</ele>
        <time>2023-04-30T15:42:49Z</time>
      </trkpt>
      <trkpt lat="48.02976" lon="6.4752">
        <ele>579.5</ele>
        <time>2023-04-30T15:42:50Z</time>
      </trkpt>
      <trkpt lat="48.0298" lon="6.47523">
        <ele>579.7</ele>
        <time>2023-04-30T15:42:51Z</time>
      </trkpt>
      <trkpt lat="48.02985" lon="6.47527">
        <ele>579.9</ele>
        <time>2023-04-30T15:42:53Z</time>
      </trkpt>
      <trkpt lat="48.02988" lon="6.4753">
        <ele>580</ele>
        <time>2023-04-30T15:42:54Z</time>
      </trkpt>
      <trkpt lat="48.02992" lon="6.47533">
        <ele>580.2</ele>
        <time>2023-04-30T15:42:55Z</time>
      </trkpt>
      <trkpt lat="48.02997" lon="6.47536">
        <ele>580.3</ele>
        <time>2023-04-30T15:42:56Z</time>
      </trkpt>
      <trkpt lat="48.03003" lon="6.47539">
        <ele>580.5</ele>
        <time>2023-04-30T15:42:57Z</time>
      </trkpt>
      <trkpt lat="48.0301" lon="6.47543">
        <ele>580.8</ele>
        <time>2023-04-30T15:42:59Z</time>
      </trkpt>
      <trkpt lat="48.03012" lon="6.47545">
        <ele>580.8</ele>
        <time>2023-04-30T15:43:00Z</time>
      </trkpt>
      <trkpt lat="48.03022" lon="6.4755">
        <ele>581.1</ele>
        <time>2023-04-30T15:43:02Z</time>
      </trkpt>
      <trkpt lat="48.03027" lon="6.47553">
        <ele>581.2</ele>
        <time>2023-04-30T15:43:03Z</time>
      </trkpt>
      <trkpt lat="48.03032" lon="6.47556">
        <ele>581.3</ele>
        <time>2023-04-30T15:43:04Z</time>
      </trkpt>
      <trkpt lat="48.03036" lon="6.47558">
        <ele>581.4</ele>
        <time>2023-04-30T15:43:05Z</time>
      </trkpt>
      <trkpt lat="48.0304" lon="6.4756">
        <ele>581.4</ele>
        <time>2023-04-30T15:43:06Z</time>
      </trkpt>
      <trkpt lat="48.03045" lon="6.47563">
        <ele>581.5</ele>
        <time>2023-04-30T15:43:07Z</time>
      </trkpt>
      <trkpt lat="48.03049" lon="6.47565">
        <ele>581.5</ele>
        <time>2023-04-30T15:43:08Z</time>
      </trkpt>
      <trkpt lat="48.03054" lon="6.47568">
        <ele>581.6</ele>
        <time>2023-04-30T15:43:09Z</time>
      </trkpt>
      <trkpt lat="48.03058" lon="6.4757">
        <ele>581.6</ele>
        <time>2023-04-30T15:43:10Z</time>
      </trkpt>
      <trkpt lat="48.03063" lon="6.47573">
        <ele>581.7</ele>
        <time>2023-04-30T15:43:11Z</time>
      </trkpt>
      <trkpt lat="48.03067" lon="6.47575">
        <ele>581.7</ele>
        <time>2023-04-30T15:43:12Z</time>
      </trkpt>
      <trkpt lat="48.03071" lon="6.47578">
        <ele>581.7</ele>
        <time>2023-04-30T15:43:13Z</time>
      </trkpt>
      <trkpt lat="48.03074" lon="6.47579">
        <ele>581.8</ele>
        <time>2023-04-30T15:43:14Z</time>
      </trkpt>
      <trkpt lat="48.03078" lon="6.47582">
        <ele>581.8</ele>
        <time>2023-04-30T15:43:15Z</time>
      </trkpt>
      <trkpt lat="48.03082" lon="6.47585">
        <ele>581.8</ele>
        <time>2023-04-30T15:43:16Z</time>
      </trkpt>
      <trkpt lat="48.03086" lon="6.47588">
        <ele>581.8</ele>
        <time>2023-04-30T15:43:17Z</time>
      </trkpt>
      <trkpt lat="48.03091" lon="6.47589">
        <ele>581.8</ele>
        <time>2023-04-30T15:43:18Z</time>
      </trkpt>
      <trkpt lat="48.03094" lon="6.47591">
        <ele>581.9</ele>
        <time>2023-04-30T15:43:19Z</time>
      </trkpt>
      <trkpt lat="48.03101" lon="6.4759">
        <ele>581.9</ele>
        <time>2023-04-30T15:43:20Z</time>
      </trkpt>
      <trkpt lat="48.03104" lon="6.47593">
        <ele>581.8</ele>
        <time>2023-04-30T15:43:21Z</time>
      </trkpt>
      <trkpt lat="48.03109" lon="6.47598">
        <ele>581.8</ele>
        <time>2023-04-30T15:43:22Z</time>
      </trkpt>
      <trkpt lat="48.03113" lon="6.47602">
        <ele>581.8</ele>
        <time>2023-04-30T15:43:23Z</time>
      </trkpt>
      <trkpt lat="48.03118" lon="6.47605">
        <ele>581.8</ele>
        <time>2023-04-30T15:43:25Z</time>
      </trkpt>
      <trkpt lat="48.03122" lon="6.47608">
        <ele>581.7</ele>
        <time>2023-04-30T15:43:26Z</time>
      </trkpt>
      <trkpt lat="48.03128" lon="6.47613">
        <ele>581.6</ele>
        <time>2023-04-30T15:43:27Z</time>
      </trkpt>
      <trkpt lat="48.03132" lon="6.47616">
        <ele>581.6</ele>
        <time>2023-04-30T15:43:29Z</time>
      </trkpt>
      <trkpt lat="48.03137" lon="6.47619">
        <ele>581.5</ele>
        <time>2023-04-30T15:43:30Z</time>
      </trkpt>
      <trkpt lat="48.03142" lon="6.47622">
        <ele>581.3</ele>
        <time>2023-04-30T15:43:31Z</time>
      </trkpt>
      <trkpt lat="48.03146" lon="6.47624">
        <ele>581.2</ele>
        <time>2023-04-30T15:43:32Z</time>
      </trkpt>
      <trkpt lat="48.03153" lon="6.47628">
        <ele>581</ele>
        <time>2023-04-30T15:43:34Z</time>
      </trkpt>
      <trkpt lat="48.03159" lon="6.47629">
        <ele>580.8</ele>
        <time>2023-04-30T15:43:35Z</time>
      </trkpt>
      <trkpt lat="48.03164" lon="6.47631">
        <ele>580.6</ele>
        <time>2023-04-30T15:43:36Z</time>
      </trkpt>
      <trkpt lat="48.03169" lon="6.47633">
        <ele>580.5</ele>
        <time>2023-04-30T15:43:37Z</time>
      </trkpt>
      <trkpt lat="48.03174" lon="6.47634">
        <ele>580.3</ele>
        <time>2023-04-30T15:43:38Z</time>
      </trkpt>
      <trkpt lat="48.03179" lon="6.47636">
        <ele>580.1</ele>
        <time>2023-04-30T15:43:39Z</time>
      </trkpt>
      <trkpt lat="48.03185" lon="6.47637">
        <ele>579.9</ele>
        <time>2023-04-30T15:43:40Z</time>
      </trkpt>
      <trkpt lat="48.0319" lon="6.47638">
        <ele>579.8</ele>
        <time>2023-04-30T15:43:41Z</time>
      </trkpt>
      <trkpt lat="48.03195" lon="6.47639">
        <ele>579.6</ele>
        <time>2023-04-30T15:43:42Z</time>
      </trkpt>
      <trkpt lat="48.03201" lon="6.47639">
        <ele>579.4</ele>
        <time>2023-04-30T15:43:43Z</time>
      </trkpt>
      <trkpt lat="48.03207" lon="6.47639">
        <ele>579.2</ele>
        <time>2023-04-30T15:43:44Z</time>
      </trkpt>
      <trkpt lat="48.03213" lon="6.47639">
        <ele>579</ele>
        <time>2023-04-30T15:43:45Z</time>
      </trkpt>
      <trkpt lat="48.03219" lon="6.47639">
        <ele>578.8</ele>
        <time>2023-04-30T15:43:46Z</time>
      </trkpt>
      <trkpt lat="48.03224" lon="6.47638">
        <ele>578.6</ele>
        <time>2023-04-30T15:43:47Z</time>
      </trkpt>
      <trkpt lat="48.0323" lon="6.47636">
        <ele>578.4</ele>
        <time>2023-04-30T15:43:48Z</time>
      </trkpt>
      <trkpt lat="48.03236" lon="6.47635">
        <ele>578.2</ele>
        <time>2023-04-30T15:43:49Z</time>
      </trkpt>
      <trkpt lat="48.03242" lon="6.47632">
        <ele>578</ele>
        <time>2023-04-30T15:43:50Z</time>
      </trkpt>
      <trkpt lat="48.03248" lon="6.47631">
        <ele>577.8</ele>
        <time>2023-04-30T15:43:51Z</time>
      </trkpt>
      <trkpt lat="48.03254" lon="6.47628">
        <ele>577.6</ele>
        <time>2023-04-30T15:43:52Z</time>
      </trkpt>
      <trkpt lat="48.0326" lon="6.47626">
        <ele>577.5</ele>
        <time>2023-04-30T15:43:53Z</time>
      </trkpt>
      <trkpt lat="48.03266" lon="6.47624">
        <ele>577.3</ele>
        <time>2023-04-30T15:43:54Z</time>
      </trkpt>
      <trkpt lat="48.03272" lon="6.47621">
        <ele>577.1</ele>
        <time>2023-04-30T15:43:55Z</time>
      </trkpt>
      <trkpt lat="48.03278" lon="6.47618">
        <ele>576.8</ele>
        <time>2023-04-30T15:43:56Z</time>
      </trkpt>
      <trkpt lat="48.03284" lon="6.47616">
        <ele>576.6</ele>
        <time>2023-04-30T15:43:57Z</time>
      </trkpt>
      <trkpt lat="48.0329" lon="6.47613">
        <ele>576.3</ele>
        <time>2023-04-30T15:43:58Z</time>
      </trkpt>
      <trkpt lat="48.03296" lon="6.47611">
        <ele>576</ele>
        <time>2023-04-30T15:43:59Z</time>
      </trkpt>
      <trkpt lat="48.03303" lon="6.47608">
        <ele>575.7</ele>
        <time>2023-04-30T15:44:00Z</time>
      </trkpt>
      <trkpt lat="48.03309" lon="6.47605">
        <ele>575.3</ele>
        <time>2023-04-30T15:44:01Z</time>
      </trkpt>
      <trkpt lat="48.03316" lon="6.47601">
        <ele>574.8</ele>
        <time>2023-04-30T15:44:02Z</time>
      </trkpt>
      <trkpt lat="48.03322" lon="6.47598">
        <ele>574.4</ele>
        <time>2023-04-30T15:44:03Z</time>
      </trkpt>
      <trkpt lat="48.0333" lon="6.47593">
        <ele>573.9</ele>
        <time>2023-04-30T15:44:04Z</time>
      </trkpt>
      <trkpt lat="48.03337" lon="6.47589">
        <ele>573.3</ele>
        <time>2023-04-30T15:44:05Z</time>
      </trkpt>
      <trkpt lat="48.03345" lon="6.47584">
        <ele>572.8</ele>
        <time>2023-04-30T15:44:06Z</time>
      </trkpt>
      <trkpt lat="48.03352" lon="6.4758">
        <ele>572.2</ele>
        <time>2023-04-30T15:44:07Z</time>
      </trkpt>
      <trkpt lat="48.0336" lon="6.47575">
        <ele>571.6</ele>
        <time>2023-04-30T15:44:08Z</time>
      </trkpt>
      <trkpt lat="48.03368" lon="6.4757">
        <ele>571</ele>
        <time>2023-04-30T15:44:09Z</time>
      </trkpt>
      <trkpt lat="48.03376" lon="6.47565">
        <ele>570.3</ele>
        <time>2023-04-30T15:44:10Z</time>
      </trkpt>
      <trkpt lat="48.03384" lon="6.47559">
        <ele>569.6</ele>
        <time>2023-04-30T15:44:11Z</time>
      </trkpt>
      <trkpt lat="48.03392" lon="6.47554">
        <ele>568.9</ele>
        <time>2023-04-30T15:44:12Z</time>
      </trkpt>
      <trkpt lat="48.034" lon="6.47549">
        <ele>568.1</ele>
        <time>2023-04-30T15:44:13Z</time>
      </trkpt>
      <trkpt lat="48.03409" lon="6.47544">
        <ele>567.4</ele>
        <time>2023-04-30T15:44:14Z</time>
      </trkpt>
      <trkpt lat="48.03418" lon="6.47538">
        <ele>566.6</ele>
        <time>2023-04-30T15:44:15Z</time>
      </trkpt>
      <trkpt lat="48.03427" lon="6.47533">
        <ele>565.9</ele>
        <time>2023-04-30T15:44:16Z</time>
      </trkpt>
      <trkpt lat="48.03436" lon="6.47527">
        <ele>565.1</ele>
        <time>2023-04-30T15:44:17Z</time>
      </trkpt>
      <trkpt lat="48.03446" lon="6.47523">
        <ele>564.5</ele>
        <time>2023-04-30T15:44:18Z</time>
      </trkpt>
      <trkpt lat="48.03456" lon="6.47521">
        <ele>563.9</ele>
        <time>2023-04-30T15:44:19Z</time>
      </trkpt>
      <trkpt lat="48.03465" lon="6.4752">
        <ele>563.5</ele>
        <time>2023-04-30T15:44:20Z</time>
      </trkpt>
      <trkpt lat="48.03474" lon="6.47521">
        <ele>563.1</ele>
        <time>2023-04-30T15:44:21Z</time>
      </trkpt>
      <trkpt lat="48.03483" lon="6.47523">
        <ele>562.8</ele>
        <time>2023-04-30T15:44:22Z</time>
      </trkpt>
      <trkpt lat="48.03492" lon="6.47527">
        <ele>562.8</ele>
        <time>2023-04-30T15:44:23Z</time>
      </trkpt>
      <trkpt lat="48.035" lon="6.47533">
        <ele>562.5</ele>
        <time>2023-04-30T15:44:24Z</time>
      </trkpt>
      <trkpt lat="48.03508" lon="6.4754">
        <ele>561.9</ele>
        <time>2023-04-30T15:44:25Z</time>
      </trkpt>
      <trkpt lat="48.03516" lon="6.47547">
        <ele>561.3</ele>
        <time>2023-04-30T15:44:26Z</time>
      </trkpt>
      <trkpt lat="48.03524" lon="6.47555">
        <ele>560.7</ele>
        <time>2023-04-30T15:44:27Z</time>
      </trkpt>
      <trkpt lat="48.03532" lon="6.47562">
        <ele>560.1</ele>
        <time>2023-04-30T15:44:28Z</time>
      </trkpt>
      <trkpt lat="48.0354" lon="6.47569">
        <ele>559.5</ele>
        <time>2023-04-30T15:44:29Z</time>
      </trkpt>
      <trkpt lat="48.03548" lon="6.47577">
        <ele>558.7</ele>
        <time>2023-04-30T15:44:30Z</time>
      </trkpt>
      <trkpt lat="48.03556" lon="6.47583">
        <ele>558</ele>
        <time>2023-04-30T15:44:31Z</time>
      </trkpt>
      <trkpt lat="48.03565" lon="6.47588">
        <ele>557.1</ele>
        <time>2023-04-30T15:44:32Z</time>
      </trkpt>
      <trkpt lat="48.03574" lon="6.4759">
        <ele>556.2</ele>
        <time>2023-04-30T15:44:33Z</time>
      </trkpt>
      <trkpt lat="48.03584" lon="6.4759">
        <ele>555.1</ele>
        <time>2023-04-30T15:44:34Z</time>
      </trkpt>
      <trkpt lat="48.03594" lon="6.47587">
        <ele>554</ele>
        <time>2023-04-30T15:44:35Z</time>
      </trkpt>
      <trkpt lat="48.03604" lon="6.47583">
        <ele>552.9</ele>
        <time>2023-04-30T15:44:36Z</time>
      </trkpt>
      <trkpt lat="48.03614" lon="6.47578">
        <ele>552</ele>
        <time>2023-04-30T15:44:37Z</time>
      </trkpt>
      <trkpt lat="48.03624" lon="6.47572">
        <ele>551.1</ele>
        <time>2023-04-30T15:44:38Z</time>
      </trkpt>
      <trkpt lat="48.03634" lon="6.47567">
        <ele>550.6</ele>
        <time>2023-04-30T15:44:39Z</time>
      </trkpt>
      <trkpt lat="48.03643" lon="6.47562">
        <ele>550.1</ele>
        <time>2023-04-30T15:44:40Z</time>
      </trkpt>
      <trkpt lat="48.03652" lon="6.47555">
        <ele>549.6</ele>
        <time>2023-04-30T15:44:41Z</time>
      </trkpt>
      <trkpt lat="48.03661" lon="6.47548">
        <ele>549.1</ele>
        <time>2023-04-30T15:44:42Z</time>
      </trkpt>
      <trkpt lat="48.03669" lon="6.47542">
        <ele>548.6</ele>
        <time>2023-04-30T15:44:43Z</time>
      </trkpt>
      <trkpt lat="48.03678" lon="6.47534">
        <ele>548.1</ele>
        <time>2023-04-30T15:44:44Z</time>
      </trkpt>
      <trkpt lat="48.03686" lon="6.47526">
        <ele>547.6</ele>
        <time>2023-04-30T15:44:45Z</time>
      </trkpt>
      <trkpt lat="48.03694" lon="6.47517">
        <ele>547.1</ele>
        <time>2023-04-30T15:44:46Z</time>
      </trkpt>
      <trkpt lat="48.03701" lon="6.47508">
        <ele>546.5</ele>
        <time>2023-04-30T15:44:47Z</time>
      </trkpt>
      <trkpt lat="48.03708" lon="6.47498">
        <ele>546</ele>
        <time>2023-04-30T15:44:48Z</time>
      </trkpt>
      <trkpt lat="48.03715" lon="6.47488">
        <ele>545.4</ele>
        <time>2023-04-30T15:44:49Z</time>
      </trkpt>
      <trkpt lat="48.03722" lon="6.47479">
        <ele>544.8</ele>
        <time>2023-04-30T15:44:50Z</time>
      </trkpt>
      <trkpt lat="48.03729" lon="6.47469">
        <ele>544.1</ele>
        <time>2023-04-30T15:44:51Z</time>
      </trkpt>
      <trkpt lat="48.03737" lon="6.47459">
        <ele>543.3</ele>
        <time>2023-04-30T15:44:52Z</time>
      </trkpt>
      <trkpt lat="48.03744" lon="6.47448">
        <ele>542.4</ele>
        <time>2023-04-30T15:44:53Z</time>
      </trkpt>
      <trkpt lat="48.03752" lon="6.47437">
        <ele>541.3</ele>
        <time>2023-04-30T15:44:54Z</time>
      </trkpt>
      <trkpt lat="48.0376" lon="6.47426">
        <ele>540.2</ele>
        <time>2023-04-30T15:44:55Z</time>
      </trkpt>
      <trkpt lat="48.03768" lon="6.47414">
        <ele>539</ele>
        <time>2023-04-30T15:44:56Z</time>
      </trkpt>
      <trkpt lat="48.03776" lon="6.47401">
        <ele>537.8</ele>
        <time>2023-04-30T15:44:57Z</time>
      </trkpt>
      <trkpt lat="48.03785" lon="6.47388">
        <ele>536.5</ele>
        <time>2023-04-30T15:44:58Z</time>
      </trkpt>
      <trkpt lat="48.03793" lon="6.47375">
        <ele>535</ele>
        <time>2023-04-30T15:44:59Z</time>
      </trkpt>
      <trkpt lat="48.03802" lon="6.47362">
        <ele>533.5</ele>
        <time>2023-04-30T15:45:00Z</time>
      </trkpt>
      <trkpt lat="48.03811" lon="6.47349">
        <ele>531.9</ele>
        <time>2023-04-30T15:45:01Z</time>
      </trkpt>
      <trkpt lat="48.03821" lon="6.47335">
        <ele>530.4</ele>
        <time>2023-04-30T15:45:02Z</time>
      </trkpt>
      <trkpt lat="48.03831" lon="6.47322">
        <ele>529.3</ele>
        <time>2023-04-30T15:45:03Z</time>
      </trkpt>
      <trkpt lat="48.03841" lon="6.47308">
        <ele>528.3</ele>
        <time>2023-04-30T15:45:04Z</time>
      </trkpt>
      <trkpt lat="48.03852" lon="6.47297">
        <ele>527.5</ele>
        <time>2023-04-30T15:45:05Z</time>
      </trkpt>
      <trkpt lat="48.03864" lon="6.47287">
        <ele>527</ele>
        <time>2023-04-30T15:45:06Z</time>
      </trkpt>
      <trkpt lat="48.03875" lon="6.47278">
        <ele>526.5</ele>
        <time>2023-04-30T15:45:07Z</time>
      </trkpt>
      <trkpt lat="48.03885" lon="6.4727">
        <ele>526.2</ele>
        <time>2023-04-30T15:45:08Z</time>
      </trkpt>
      <trkpt lat="48.03894" lon="6.47262">
        <ele>526</ele>
        <time>2023-04-30T15:45:09Z</time>
      </trkpt>
      <trkpt lat="48.03903" lon="6.47254">
        <ele>525.9</ele>
        <time>2023-04-30T15:45:10Z</time>
      </trkpt>
      <trkpt lat="48.03911" lon="6.47245">
        <ele>525.9</ele>
        <time>2023-04-30T15:45:11Z</time>
      </trkpt>
      <trkpt lat="48.03919" lon="6.47237">
        <ele>526</ele>
        <time>2023-04-30T15:45:12Z</time>
      </trkpt>
      <trkpt lat="48.03926" lon="6.47229">
        <ele>526.2</ele>
        <time>2023-04-30T15:45:13Z</time>
      </trkpt>
      <trkpt lat="48.03932" lon="6.47221">
        <ele>526.4</ele>
        <time>2023-04-30T15:45:14Z</time>
      </trkpt>
      <trkpt lat="48.03938" lon="6.47213">
        <ele>526.7</ele>
        <time>2023-04-30T15:45:15Z</time>
      </trkpt>
      <trkpt lat="48.03944" lon="6.47206">
        <ele>527.1</ele>
        <time>2023-04-30T15:45:16Z</time>
      </trkpt>
      <trkpt lat="48.03949" lon="6.47199">
        <ele>527.4</ele>
        <time>2023-04-30T15:45:17Z</time>
      </trkpt>
      <trkpt lat="48.03955" lon="6.47191">
        <ele>527.8</ele>
        <time>2023-04-30T15:45:18Z</time>
      </trkpt>
      <trkpt lat="48.0396" lon="6.47185">
        <ele>528.1</ele>
        <time>2023-04-30T15:45:19Z</time>
      </trkpt>
      <trkpt lat="48.03964" lon="6.47179">
        <ele>528.4</ele>
        <time>2023-04-30T15:45:20Z</time>
      </trkpt>
      <trkpt lat="48.03968" lon="6.47174">
        <ele>528.7</ele>
        <time>2023-04-30T15:45:21Z</time>
      </trkpt>
      <trkpt lat="48.03972" lon="6.47169">
        <ele>529</ele>
        <time>2023-04-30T15:45:22Z</time>
      </trkpt>
      <trkpt lat="48.03976" lon="6.47164">
        <ele>529.3</ele>
        <time>2023-04-30T15:45:23Z</time>
      </trkpt>
      <trkpt lat="48.0398" lon="6.47159">
        <ele>529.6</ele>
        <time>2023-04-30T15:45:24Z</time>
      </trkpt>
      <trkpt lat="48.03984" lon="6.47154">
        <ele>529.9</ele>
        <time>2023-04-30T15:45:25Z</time>
      </trkpt>
      <trkpt lat="48.03987" lon="6.4715">
        <ele>530.2</ele>
        <time>2023-04-30T15:45:26Z</time>
      </trkpt>
      <trkpt lat="48.03991" lon="6.47147">
        <ele>530.4</ele>
        <time>2023-04-30T15:45:27Z</time>
      </trkpt>
      <trkpt lat="48.03993" lon="6.47144">
        <ele>530.5</ele>
        <time>2023-04-30T15:45:28Z</time>
      </trkpt>
      <trkpt lat="48.03997" lon="6.4714">
        <ele>530.8</ele>
        <time>2023-04-30T15:45:29Z</time>
      </trkpt>
      <trkpt lat="48.04002" lon="6.47135">
        <ele>531.1</ele>
        <time>2023-04-30T15:45:30Z</time>
      </trkpt>
      <trkpt lat="48.04006" lon="6.47131">
        <ele>531.4</ele>
        <time>2023-04-30T15:45:31Z</time>
      </trkpt>
      <trkpt lat="48.0401" lon="6.47128">
        <ele>531.7</ele>
        <time>2023-04-30T15:45:32Z</time>
      </trkpt>
      <trkpt lat="48.04013" lon="6.47125">
        <ele>531.9</ele>
        <time>2023-04-30T15:45:33Z</time>
      </trkpt>
      <trkpt lat="48.04016" lon="6.47123">
        <ele>532.1</ele>
        <time>2023-04-30T15:45:34Z</time>
      </trkpt>
      <trkpt lat="48.04019" lon="6.4712">
        <ele>532.4</ele>
        <time>2023-04-30T15:45:35Z</time>
      </trkpt>
      <trkpt lat="48.04023" lon="6.47117">
        <ele>532.7</ele>
        <time>2023-04-30T15:45:36Z</time>
      </trkpt>
      <trkpt lat="48.04026" lon="6.47115">
        <ele>532.9</ele>
        <time>2023-04-30T15:45:37Z</time>
      </trkpt>
      <trkpt lat="48.0403" lon="6.47113">
        <ele>533.2</ele>
        <time>2023-04-30T15:45:38Z</time>
      </trkpt>
      <trkpt lat="48.04032" lon="6.47111">
        <ele>533.4</ele>
        <time>2023-04-30T15:45:39Z</time>
      </trkpt>
      <trkpt lat="48.04036" lon="6.47108">
        <ele>533.8</ele>
        <time>2023-04-30T15:45:40Z</time>
      </trkpt>
      <trkpt lat="48.04039" lon="6.47106">
        <ele>534</ele>
        <time>2023-04-30T15:45:41Z</time>
      </trkpt>
      <trkpt lat="48.04042" lon="6.47103">
        <ele>534.3</ele>
        <time>2023-04-30T15:45:42Z</time>
      </trkpt>
      <trkpt lat="48.04045" lon="6.47101">
        <ele>534.6</ele>
        <time>2023-04-30T15:45:43Z</time>
      </trkpt>
      <trkpt lat="48.04049" lon="6.47099">
        <ele>534.9</ele>
        <time>2023-04-30T15:45:44Z</time>
      </trkpt>
      <trkpt lat="48.04053" lon="6.47096">
        <ele>535.2</ele>
        <time>2023-04-30T15:45:45Z</time>
      </trkpt>
      <trkpt lat="48.04054" lon="6.47096">
        <ele>535.4</ele>
        <time>2023-04-30T15:45:46Z</time>
      </trkpt>
      <trkpt lat="48.04057" lon="6.47094">
        <ele>535.6</ele>
        <time>2023-04-30T15:45:47Z</time>
      </trkpt>
      <trkpt lat="48.0406" lon="6.47092">
        <ele>535.9</ele>
        <time>2023-04-30T15:45:48Z</time>
      </trkpt>
      <trkpt lat="48.04063" lon="6.4709">
        <ele>536.1</ele>
        <time>2023-04-30T15:45:49Z</time>
      </trkpt>
      <trkpt lat="48.04066" lon="6.47088">
        <ele>536.4</ele>
        <time>2023-04-30T15:45:50Z</time>
      </trkpt>
      <trkpt lat="48.0407" lon="6.47085">
        <ele>536.7</ele>
        <time>2023-04-30T15:45:51Z</time>
      </trkpt>
      <trkpt lat="48.04071" lon="6.47084">
        <ele>536.9</ele>
        <time>2023-04-30T15:45:52Z</time>
      </trkpt>
      <trkpt lat="48.04072" lon="6.47082">
        <ele>537</ele>
        <time>2023-04-30T15:45:53Z</time>
      </trkpt>
      <trkpt lat="48.04073" lon="6.4708">
        <ele>537.1</ele>
        <time>2023-04-30T15:45:54Z</time>
      </trkpt>
      <trkpt lat="48.04074" lon="6.47079">
        <ele>537.2</ele>
        <time>2023-04-30T15:45:55Z</time>
      </trkpt>
      <trkpt lat="48.04074" lon="6.47078">
        <ele>537.3</ele>
        <time>2023-04-30T15:45:56Z</time>
      </trkpt>
      <trkpt lat="48.04076" lon="6.4708">
        <ele>537.4</ele>
        <time>2023-04-30T15:45:57Z</time>
      </trkpt>
      <trkpt lat="48.04077" lon="6.47082">
        <ele>537.5</ele>
        <time>2023-04-30T15:45:58Z</time>
      </trkpt>
      <trkpt lat="48.04078" lon="6.47085">
        <ele>537.8</ele>
        <time>2023-04-30T15:45:59Z</time>
      </trkpt>
      <trkpt lat="48.04079" lon="6.47087">
        <ele>537.8</ele>
        <time>2023-04-30T15:46:00Z</time>
      </trkpt>
      <trkpt lat="48.04081" lon="6.47093">
        <ele>537.6</ele>
        <time>2023-04-30T15:46:01Z</time>
      </trkpt>
      <trkpt lat="48.04081" lon="6.47095">
        <ele>537.6</ele>
        <time>2023-04-30T15:46:02Z</time>
      </trkpt>
      <trkpt lat="48.04083" lon="6.47101">
        <ele>537.4</ele>
        <time>2023-04-30T15:46:03Z</time>
      </trkpt>
      <trkpt lat="48.04086" lon="6.47107">
        <ele>537.3</ele>
        <time>2023-04-30T15:46:04Z</time>
      </trkpt>
      <trkpt lat="48.04089" lon="6.47113">
        <ele>537.1</ele>
        <time>2023-04-30T15:46:05Z</time>
      </trkpt>
      <trkpt lat="48.04092" lon="6.4712">
        <ele>536.9</ele>
        <time>2023-04-30T15:46:06Z</time>
      </trkpt>
      <trkpt lat="48.04094" lon="6.47126">
        <ele>536.7</ele>
        <time>2023-04-30T15:46:07Z</time>
      </trkpt>
      <trkpt lat="48.04097" lon="6.47135">
        <ele>536.5</ele>
        <time>2023-04-30T15:46:08Z</time>
      </trkpt>
      <trkpt lat="48.04102" lon="6.47146">
        <ele>536.2</ele>
        <time>2023-04-30T15:46:10Z</time>
      </trkpt>
      <trkpt lat="48.04104" lon="6.47153">
        <ele>536</ele>
        <time>2023-04-30T15:46:11Z</time>
      </trkpt>
      <trkpt lat="48.04107" lon="6.4716">
        <ele>535.8</ele>
        <time>2023-04-30T15:46:12Z</time>
      </trkpt>
      <trkpt lat="48.0411" lon="6.47167">
        <ele>535.5</ele>
        <time>2023-04-30T15:46:13Z</time>
      </trkpt>
      <trkpt lat="48.04113" lon="6.47175">
        <ele>535.3</ele>
        <time>2023-04-30T15:46:14Z</time>
      </trkpt>
      <trkpt lat="48.04116" lon="6.47183">
        <ele>535.2</ele>
        <time>2023-04-30T15:46:15Z</time>
      </trkpt>
      <trkpt lat="48.04119" lon="6.47191">
        <ele>535</ele>
        <time>2023-04-30T15:46:16Z</time>
      </trkpt>
      <trkpt lat="48.04122" lon="6.472">
        <ele>534.8</ele>
        <time>2023-04-30T15:46:17Z</time>
      </trkpt>
      <trkpt lat="48.04125" lon="6.47208">
        <ele>534.6</ele>
        <time>2023-04-30T15:46:18Z</time>
      </trkpt>
      <trkpt lat="48.04128" lon="6.47217">
        <ele>534.4</ele>
        <time>2023-04-30T15:46:19Z</time>
      </trkpt>
      <trkpt lat="48.0413" lon="6.47225">
        <ele>534.3</ele>
        <time>2023-04-30T15:46:20Z</time>
      </trkpt>
      <trkpt lat="48.04132" lon="6.47234">
        <ele>534.1</ele>
        <time>2023-04-30T15:46:21Z</time>
      </trkpt>
      <trkpt lat="48.04134" lon="6.47243">
        <ele>534</ele>
        <time>2023-04-30T15:46:22Z</time>
      </trkpt>
      <trkpt lat="48.04136" lon="6.47252">
        <ele>533.9</ele>
        <time>2023-04-30T15:46:23Z</time>
      </trkpt>
      <trkpt lat="48.04138" lon="6.47261">
        <ele>533.9</ele>
        <time>2023-04-30T15:46:24Z</time>
      </trkpt>
      <trkpt lat="48.04138" lon="6.4727">
        <ele>533.8</ele>
        <time>2023-04-30T15:46:25Z</time>
      </trkpt>
      <trkpt lat="48.04138" lon="6.47279">
        <ele>533.8</ele>
        <time>2023-04-30T15:46:26Z</time>
      </trkpt>
      <trkpt lat="48.04138" lon="6.47287">
        <ele>533.7</ele>
        <time>2023-04-30T15:46:27Z</time>
      </trkpt>
      <trkpt lat="48.04138" lon="6.47295">
        <ele>533.7</ele>
        <time>2023-04-30T15:46:28Z</time>
      </trkpt>
      <trkpt lat="48.04138" lon="6.47303">
        <ele>533.7</ele>
        <time>2023-04-30T15:46:29Z</time>
      </trkpt>
      <trkpt lat="48.04138" lon="6.4731">
        <ele>533.7</ele>
        <time>2023-04-30T15:46:30Z</time>
      </trkpt>
      <trkpt lat="48.04138" lon="6.47318">
        <ele>533.7</ele>
        <time>2023-04-30T15:46:31Z</time>
      </trkpt>
      <trkpt lat="48.04138" lon="6.47325">
        <ele>533.7</ele>
        <time>2023-04-30T15:46:32Z</time>
      </trkpt>
      <trkpt lat="48.04138" lon="6.47333">
        <ele>533.7</ele>
        <time>2023-04-30T15:46:33Z</time>
      </trkpt>
      <trkpt lat="48.04139" lon="6.4734">
        <ele>533.7</ele>
        <time>2023-04-30T15:46:34Z</time>
      </trkpt>
      <trkpt lat="48.04139" lon="6.47348">
        <ele>533.7</ele>
        <time>2023-04-30T15:46:35Z</time>
      </trkpt>
      <trkpt lat="48.04139" lon="6.47356">
        <ele>533.7</ele>
        <time>2023-04-30T15:46:36Z</time>
      </trkpt>
      <trkpt lat="48.04139" lon="6.47364">
        <ele>533.8</ele>
        <time>2023-04-30T15:46:37Z</time>
      </trkpt>
      <trkpt lat="48.04139" lon="6.47372">
        <ele>533.8</ele>
        <time>2023-04-30T15:46:38Z</time>
      </trkpt>
      <trkpt lat="48.0414" lon="6.4738">
        <ele>533.8</ele>
        <time>2023-04-30T15:46:39Z</time>
      </trkpt>
      <trkpt lat="48.0414" lon="6.47388">
        <ele>533.9</ele>
        <time>2023-04-30T15:46:40Z</time>
      </trkpt>
      <trkpt lat="48.04141" lon="6.47396">
        <ele>533.9</ele>
        <time>2023-04-30T15:46:41Z</time>
      </trkpt>
      <trkpt lat="48.04141" lon="6.47404">
        <ele>533.9</ele>
        <time>2023-04-30T15:46:42Z</time>
      </trkpt>
      <trkpt lat="48.04142" lon="6.47413">
        <ele>534</ele>
        <time>2023-04-30T15:46:43Z</time>
      </trkpt>
      <trkpt lat="48.04143" lon="6.47421">
        <ele>534</ele>
        <time>2023-04-30T15:46:44Z</time>
      </trkpt>
      <trkpt lat="48.04145" lon="6.47429">
        <ele>534</ele>
        <time>2023-04-30T15:46:45Z</time>
      </trkpt>
      <trkpt lat="48.04146" lon="6.47438">
        <ele>534</ele>
        <time>2023-04-30T15:46:46Z</time>
      </trkpt>
      <trkpt lat="48.04147" lon="6.47446">
        <ele>534</ele>
        <time>2023-04-30T15:46:47Z</time>
      </trkpt>
      <trkpt lat="48.04149" lon="6.47455">
        <ele>534</ele>
        <time>2023-04-30T15:46:48Z</time>
      </trkpt>
      <trkpt lat="48.0415" lon="6.47462">
        <ele>534</ele>
        <time>2023-04-30T15:46:49Z</time>
      </trkpt>
      <trkpt lat="48.04152" lon="6.47471">
        <ele>534</ele>
        <time>2023-04-30T15:46:50Z</time>
      </trkpt>
      <trkpt lat="48.04154" lon="6.47478">
        <ele>534</ele>
        <time>2023-04-30T15:46:51Z</time>
      </trkpt>
      <trkpt lat="48.04155" lon="6.47487">
        <ele>533.9</ele>
        <time>2023-04-30T15:46:52Z</time>
      </trkpt>
      <trkpt lat="48.04158" lon="6.47495">
        <ele>533.9</ele>
        <time>2023-04-30T15:46:53Z</time>
      </trkpt>
      <trkpt lat="48.0416" lon="6.47503">
        <ele>533.8</ele>
        <time>2023-04-30T15:46:54Z</time>
      </trkpt>
      <trkpt lat="48.04162" lon="6.47511">
        <ele>533.7</ele>
        <time>2023-04-30T15:46:55Z</time>
      </trkpt>
      <trkpt lat="48.04165" lon="6.47519">
        <ele>533.6</ele>
        <time>2023-04-30T15:46:56Z</time>
      </trkpt>
      <trkpt lat="48.04167" lon="6.47528">
        <ele>533.4</ele>
        <time>2023-04-30T15:46:57Z</time>
      </trkpt>
      <trkpt lat="48.04169" lon="6.47536">
        <ele>533.3</ele>
        <time>2023-04-30T15:46:58Z</time>
      </trkpt>
      <trkpt lat="48.04172" lon="6.47543">
        <ele>533.2</ele>
        <time>2023-04-30T15:46:59Z</time>
      </trkpt>
      <trkpt lat="48.04174" lon="6.47552">
        <ele>533</ele>
        <time>2023-04-30T15:47:00Z</time>
      </trkpt>
      <trkpt lat="48.04177" lon="6.4756">
        <ele>532.9</ele>
        <time>2023-04-30T15:47:01Z</time>
      </trkpt>
      <trkpt lat="48.0418" lon="6.47567">
        <ele>532.8</ele>
        <time>2023-04-30T15:47:02Z</time>
      </trkpt>
      <trkpt lat="48.04182" lon="6.47574">
        <ele>532.6</ele>
        <time>2023-04-30T15:47:03Z</time>
      </trkpt>
      <trkpt lat="48.04184" lon="6.47581">
        <ele>532.5</ele>
        <time>2023-04-30T15:47:04Z</time>
      </trkpt>
      <trkpt lat="48.04187" lon="6.47588">
        <ele>532.4</ele>
        <time>2023-04-30T15:47:05Z</time>
      </trkpt>
      <trkpt lat="48.04189" lon="6.47596">
        <ele>532.2</ele>
        <time>2023-04-30T15:47:06Z</time>
      </trkpt>
      <trkpt lat="48.04192" lon="6.47605">
        <ele>532.1</ele>
        <time>2023-04-30T15:47:07Z</time>
      </trkpt>
      <trkpt lat="48.04195" lon="6.47614">
        <ele>532</ele>
        <time>2023-04-30T15:47:08Z</time>
      </trkpt>
      <trkpt lat="48.04198" lon="6.47622">
        <ele>531.9</ele>
        <time>2023-04-30T15:47:09Z</time>
      </trkpt>
      <trkpt lat="48.04201" lon="6.47631">
        <ele>531.8</ele>
        <time>2023-04-30T15:47:10Z</time>
      </trkpt>
      <trkpt lat="48.04204" lon="6.47639">
        <ele>531.7</ele>
        <time>2023-04-30T15:47:11Z</time>
      </trkpt>
      <trkpt lat="48.04207" lon="6.47647">
        <ele>531.6</ele>
        <time>2023-04-30T15:47:12Z</time>
      </trkpt>
      <trkpt lat="48.04209" lon="6.47655">
        <ele>531.5</ele>
        <time>2023-04-30T15:47:13Z</time>
      </trkpt>
      <trkpt lat="48.04212" lon="6.47663">
        <ele>531.5</ele>
        <time>2023-04-30T15:47:14Z</time>
      </trkpt>
      <trkpt lat="48.04215" lon="6.47671">
        <ele>531.4</ele>
        <time>2023-04-30T15:47:15Z</time>
      </trkpt>
      <trkpt lat="48.04217" lon="6.47679">
        <ele>531.4</ele>
        <time>2023-04-30T15:47:16Z</time>
      </trkpt>
      <trkpt lat="48.0422" lon="6.47687">
        <ele>531.4</ele>
        <time>2023-04-30T15:47:17Z</time>
      </trkpt>
      <trkpt lat="48.04223" lon="6.47694">
        <ele>531.4</ele>
        <time>2023-04-30T15:47:18Z</time>
      </trkpt>
      <trkpt lat="48.04226" lon="6.47702">
        <ele>531.4</ele>
        <time>2023-04-30T15:47:19Z</time>
      </trkpt>
      <trkpt lat="48.04228" lon="6.4771">
        <ele>531.4</ele>
        <time>2023-04-30T15:47:20Z</time>
      </trkpt>
      <trkpt lat="48.04231" lon="6.47718">
        <ele>531.4</ele>
        <time>2023-04-30T15:47:21Z</time>
      </trkpt>
      <trkpt lat="48.04233" lon="6.47725">
        <ele>531.4</ele>
        <time>2023-04-30T15:47:22Z</time>
      </trkpt>
      <trkpt lat="48.04235" lon="6.47733">
        <ele>531.4</ele>
        <time>2023-04-30T15:47:23Z</time>
      </trkpt>
      <trkpt lat="48.04238" lon="6.4774">
        <ele>531.4</ele>
        <time>2023-04-30T15:47:24Z</time>
      </trkpt>
      <trkpt lat="48.0424" lon="6.47747">
        <ele>531.4</ele>
        <time>2023-04-30T15:47:25Z</time>
      </trkpt>
      <trkpt lat="48.04243" lon="6.47753">
        <ele>531.4</ele>
        <time>2023-04-30T15:47:26Z</time>
      </trkpt>
      <trkpt lat="48.04245" lon="6.47761">
        <ele>531.4</ele>
        <time>2023-04-30T15:47:27Z</time>
      </trkpt>
      <trkpt lat="48.04248" lon="6.47769">
        <ele>531.4</ele>
        <time>2023-04-30T15:47:28Z</time>
      </trkpt>
      <trkpt lat="48.0425" lon="6.47776">
        <ele>531.4</ele>
        <time>2023-04-30T15:47:29Z</time>
      </trkpt>
      <trkpt lat="48.04253" lon="6.47783">
        <ele>531.3</ele>
        <time>2023-04-30T15:47:30Z</time>
      </trkpt>
      <trkpt lat="48.04256" lon="6.47791">
        <ele>531.3</ele>
        <time>2023-04-30T15:47:31Z</time>
      </trkpt>
      <trkpt lat="48.04258" lon="6.47797">
        <ele>531.2</ele>
        <time>2023-04-30T15:47:32Z</time>
      </trkpt>
      <trkpt lat="48.04259" lon="6.47801">
        <ele>531.2</ele>
        <time>2023-04-30T15:47:33Z</time>
      </trkpt>
      <trkpt lat="48.0426" lon="6.47804">
        <ele>531.2</ele>
        <time>2023-04-30T15:47:34Z</time>
      </trkpt>
      <trkpt lat="48.0426" lon="6.47805">
        <ele>531.2</ele>
        <time>2023-04-30T15:47:35Z</time>
      </trkpt>
      <trkpt lat="48.04261" lon="6.47805">
        <ele>531.2</ele>
        <time>2023-04-30T15:47:36Z</time>
      </trkpt>
      <trkpt lat="48.04261" lon="6.47805">
        <ele>531.2</ele>
        <time>2023-04-30T15:47:37Z</time>
      </trkpt>
      <trkpt lat="48.04261" lon="6.47805">
        <ele>531.2</ele>
        <time>2023-04-30T15:47:38Z</time>
      </trkpt>
      <trkpt lat="48.04261" lon="6.47805">
        <ele>531.2</ele>
        <time>2023-04-30T15:47:39Z</time>
      </trkpt>
      <trkpt lat="48.04262" lon="6.47804">
        <ele>531.2</ele>
        <time>2023-04-30T15:47:41Z</time>
      </trkpt>
      <trkpt lat="48.04262" lon="6.47804">
        <ele>531.2</ele>
        <time>2023-04-30T15:47:42Z</time>
      </trkpt>
      <trkpt lat="48.04262" lon="6.47804">
        <ele>531.2</ele>
        <time>2023-04-30T15:47:43Z</time>
      </trkpt>
      <trkpt lat="48.04262" lon="6.47804">
        <ele>531.2</ele>
        <time>2023-04-30T15:47:44Z</time>
      </trkpt>
      <trkpt lat="48.04262" lon="6.47804">
        <ele>531.2</ele>
        <time>2023-04-30T15:47:46Z</time>
      </trkpt>
      <trkpt lat="48.04262" lon="6.47805">
        <ele>531.2</ele>
        <time>2023-04-30T15:47:47Z</time>
      </trkpt>
      <trkpt lat="48.04263" lon="6.47805">
        <ele>531.2</ele>
        <time>2023-04-30T15:47:49Z</time>
      </trkpt>
      <trkpt lat="48.04263" lon="6.47805">
        <ele>531.2</ele>
        <time>2023-04-30T15:47:50Z</time>
      </trkpt>
      <trkpt lat="48.04263" lon="6.47804">
        <ele>531.2</ele>
        <time>2023-04-30T15:47:52Z</time>
      </trkpt>
      <trkpt lat="48.04264" lon="6.47808">
        <ele>531.2</ele>
        <time>2023-04-30T15:49:30Z</time>
      </trkpt>
      <trkpt lat="48.04266" lon="6.47811">
        <ele>531.1</ele>
        <time>2023-04-30T15:49:32Z</time>
      </trkpt>
      <trkpt lat="48.04268" lon="6.47815">
        <ele>531.1</ele>
        <time>2023-04-30T15:49:33Z</time>
      </trkpt>
      <trkpt lat="48.04269" lon="6.47819">
        <ele>531.1</ele>
        <time>2023-04-30T15:49:34Z</time>
      </trkpt>
      <trkpt lat="48.04271" lon="6.47824">
        <ele>531.1</ele>
        <time>2023-04-30T15:49:35Z</time>
      </trkpt>
      <trkpt lat="48.04272" lon="6.47828">
        <ele>531</ele>
        <time>2023-04-30T15:49:36Z</time>
      </trkpt>
      <trkpt lat="48.04273" lon="6.47834">
        <ele>531</ele>
        <time>2023-04-30T15:49:37Z</time>
      </trkpt>
      <trkpt lat="48.04275" lon="6.4784">
        <ele>530.9</ele>
        <time>2023-04-30T15:49:38Z</time>
      </trkpt>
      <trkpt lat="48.04276" lon="6.47846">
        <ele>530.9</ele>
        <time>2023-04-30T15:49:40Z</time>
      </trkpt>
      <trkpt lat="48.04279" lon="6.47852">
        <ele>530.8</ele>
        <time>2023-04-30T15:49:41Z</time>
      </trkpt>
      <trkpt lat="48.04282" lon="6.47859">
        <ele>530.7</ele>
        <time>2023-04-30T15:49:42Z</time>
      </trkpt>
      <trkpt lat="48.04283" lon="6.47866">
        <ele>530.6</ele>
        <time>2023-04-30T15:49:43Z</time>
      </trkpt>
      <trkpt lat="48.04285" lon="6.47872">
        <ele>530.5</ele>
        <time>2023-04-30T15:49:45Z</time>
      </trkpt>
      <trkpt lat="48.04287" lon="6.4788">
        <ele>530.4</ele>
        <time>2023-04-30T15:49:46Z</time>
      </trkpt>
      <trkpt lat="48.04289" lon="6.47886">
        <ele>530.3</ele>
        <time>2023-04-30T15:49:47Z</time>
      </trkpt>
      <trkpt lat="48.04291" lon="6.47893">
        <ele>530.2</ele>
        <time>2023-04-30T15:49:48Z</time>
      </trkpt>
      <trkpt lat="48.04293" lon="6.47899">
        <ele>530.1</ele>
        <time>2023-04-30T15:49:49Z</time>
      </trkpt>
      <trkpt lat="48.04295" lon="6.47906">
        <ele>530</ele>
        <time>2023-04-30T15:49:50Z</time>
      </trkpt>
      <trkpt lat="48.04298" lon="6.47913">
        <ele>529.9</ele>
        <time>2023-04-30T15:49:52Z</time>
      </trkpt>
      <trkpt lat="48.04299" lon="6.47919">
        <ele>529.7</ele>
        <time>2023-04-30T15:49:53Z</time>
      </trkpt>
      <trkpt lat="48.04301" lon="6.47925">
        <ele>529.6</ele>
        <time>2023-04-30T15:49:54Z</time>
      </trkpt>
      <trkpt lat="48.04305" lon="6.47936">
        <ele>529.4</ele>
        <time>2023-04-30T15:49:55Z</time>
      </trkpt>
      <trkpt lat="48.04307" lon="6.47943">
        <ele>529.2</ele>
        <time>2023-04-30T15:49:56Z</time>
      </trkpt>
      <trkpt lat="48.0431" lon="6.47951">
        <ele>529.1</ele>
        <time>2023-04-30T15:49:58Z</time>
      </trkpt>
      <trkpt lat="48.04312" lon="6.47957">
        <ele>528.9</ele>
        <time>2023-04-30T15:49:59Z</time>
      </trkpt>
      <trkpt lat="48.04314" lon="6.47963">
        <ele>528.8</ele>
        <time>2023-04-30T15:50:00Z</time>
      </trkpt>
      <trkpt lat="48.04316" lon="6.4797">
        <ele>528.6</ele>
        <time>2023-04-30T15:50:01Z</time>
      </trkpt>
      <trkpt lat="48.04319" lon="6.47976">
        <ele>528.4</ele>
        <time>2023-04-30T15:50:02Z</time>
      </trkpt>
      <trkpt lat="48.04322" lon="6.47982">
        <ele>528.2</ele>
        <time>2023-04-30T15:50:03Z</time>
      </trkpt>
      <trkpt lat="48.04326" lon="6.47987">
        <ele>527.9</ele>
        <time>2023-04-30T15:50:04Z</time>
      </trkpt>
      <trkpt lat="48.0433" lon="6.47993">
        <ele>527.6</ele>
        <time>2023-04-30T15:50:05Z</time>
      </trkpt>
      <trkpt lat="48.04334" lon="6.47998">
        <ele>527.3</ele>
        <time>2023-04-30T15:50:06Z</time>
      </trkpt>
      <trkpt lat="48.04338" lon="6.48004">
        <ele>527</ele>
        <time>2023-04-30T15:50:07Z</time>
      </trkpt>
      <trkpt lat="48.04343" lon="6.4801">
        <ele>526.7</ele>
        <time>2023-04-30T15:50:08Z</time>
      </trkpt>
      <trkpt lat="48.04347" lon="6.48016">
        <ele>526.4</ele>
        <time>2023-04-30T15:50:09Z</time>
      </trkpt>
      <trkpt lat="48.04353" lon="6.48021">
        <ele>526</ele>
        <time>2023-04-30T15:50:10Z</time>
      </trkpt>
      <trkpt lat="48.04358" lon="6.48027">
        <ele>525.7</ele>
        <time>2023-04-30T15:50:11Z</time>
      </trkpt>
      <trkpt lat="48.04364" lon="6.48034">
        <ele>525.4</ele>
        <time>2023-04-30T15:50:12Z</time>
      </trkpt>
      <trkpt lat="48.04369" lon="6.4804">
        <ele>525.1</ele>
        <time>2023-04-30T15:50:13Z</time>
      </trkpt>
      <trkpt lat="48.04375" lon="6.48046">
        <ele>524.8</ele>
        <time>2023-04-30T15:50:14Z</time>
      </trkpt>
      <trkpt lat="48.04381" lon="6.48052">
        <ele>524.5</ele>
        <time>2023-04-30T15:50:15Z</time>
      </trkpt>
      <trkpt lat="48.04386" lon="6.48057">
        <ele>524.2</ele>
        <time>2023-04-30T15:50:16Z</time>
      </trkpt>
      <trkpt lat="48.04392" lon="6.48062">
        <ele>523.9</ele>
        <time>2023-04-30T15:50:17Z</time>
      </trkpt>
      <trkpt lat="48.04399" lon="6.48064">
        <ele>523.6</ele>
        <time>2023-04-30T15:50:18Z</time>
      </trkpt>
      <trkpt lat="48.04407" lon="6.48066">
        <ele>523.2</ele>
        <time>2023-04-30T15:50:19Z</time>
      </trkpt>
      <trkpt lat="48.04414" lon="6.48068">
        <ele>522.9</ele>
        <time>2023-04-30T15:50:20Z</time>
      </trkpt>
      <trkpt lat="48.04422" lon="6.48069">
        <ele>522.6</ele>
        <time>2023-04-30T15:50:21Z</time>
      </trkpt>
      <trkpt lat="48.04429" lon="6.48071">
        <ele>522.4</ele>
        <time>2023-04-30T15:50:22Z</time>
      </trkpt>
      <trkpt lat="48.04436" lon="6.48073">
        <ele>522.2</ele>
        <time>2023-04-30T15:50:23Z</time>
      </trkpt>
      <trkpt lat="48.04443" lon="6.48078">
        <ele>522.1</ele>
        <time>2023-04-30T15:50:24Z</time>
      </trkpt>
      <trkpt lat="48.0445" lon="6.48085">
        <ele>522</ele>
        <time>2023-04-30T15:50:25Z</time>
      </trkpt>
      <trkpt lat="48.04455" lon="6.48094">
        <ele>522</ele>
        <time>2023-04-30T15:50:26Z</time>
      </trkpt>
      <trkpt lat="48.04458" lon="6.48104">
        <ele>522.1</ele>
        <time>2023-04-30T15:50:27Z</time>
      </trkpt>
      <trkpt lat="48.0446" lon="6.48114">
        <ele>522.2</ele>
        <time>2023-04-30T15:50:28Z</time>
      </trkpt>
      <trkpt lat="48.04461" lon="6.48124">
        <ele>522.3</ele>
        <time>2023-04-30T15:50:29Z</time>
      </trkpt>
      <trkpt lat="48.04462" lon="6.48133">
        <ele>522.5</ele>
        <time>2023-04-30T15:50:30Z</time>
      </trkpt>
      <trkpt lat="48.04462" lon="6.48142">
        <ele>522.7</ele>
        <time>2023-04-30T15:50:31Z</time>
      </trkpt>
      <trkpt lat="48.04463" lon="6.4815">
        <ele>522.9</ele>
        <time>2023-04-30T15:50:32Z</time>
      </trkpt>
      <trkpt lat="48.04463" lon="6.48157">
        <ele>523</ele>
        <time>2023-04-30T15:50:33Z</time>
      </trkpt>
      <trkpt lat="48.04464" lon="6.48164">
        <ele>523.1</ele>
        <time>2023-04-30T15:50:34Z</time>
      </trkpt>
      <trkpt lat="48.04465" lon="6.48172">
        <ele>523.3</ele>
        <time>2023-04-30T15:50:35Z</time>
      </trkpt>
      <trkpt lat="48.04465" lon="6.48178">
        <ele>523.4</ele>
        <time>2023-04-30T15:50:36Z</time>
      </trkpt>
      <trkpt lat="48.04465" lon="6.48183">
        <ele>523.5</ele>
        <time>2023-04-30T15:50:37Z</time>
      </trkpt>
      <trkpt lat="48.04466" lon="6.48187">
        <ele>523.5</ele>
        <time>2023-04-30T15:50:38Z</time>
      </trkpt>
      <trkpt lat="48.04466" lon="6.48196">
        <ele>523.6</ele>
        <time>2023-04-30T15:50:39Z</time>
      </trkpt>
      <trkpt lat="48.04468" lon="6.48205">
        <ele>523.7</ele>
        <time>2023-04-30T15:50:40Z</time>
      </trkpt>
      <trkpt lat="48.04469" lon="6.48212">
        <ele>523.8</ele>
        <time>2023-04-30T15:50:41Z</time>
      </trkpt>
      <trkpt lat="48.04472" lon="6.48219">
        <ele>523.9</ele>
        <time>2023-04-30T15:50:42Z</time>
      </trkpt>
      <trkpt lat="48.04474" lon="6.48227">
        <ele>523.9</ele>
        <time>2023-04-30T15:50:43Z</time>
      </trkpt>
      <trkpt lat="48.04477" lon="6.48233">
        <ele>524</ele>
        <time>2023-04-30T15:50:44Z</time>
      </trkpt>
      <trkpt lat="48.0448" lon="6.48236">
        <ele>524</ele>
        <time>2023-04-30T15:50:45Z</time>
      </trkpt>
      <trkpt lat="48.04484" lon="6.48242">
        <ele>523.9</ele>
        <time>2023-04-30T15:50:46Z</time>
      </trkpt>
      <trkpt lat="48.04486" lon="6.48247">
        <ele>523.9</ele>
        <time>2023-04-30T15:50:47Z</time>
      </trkpt>
      <trkpt lat="48.04488" lon="6.48252">
        <ele>523.8</ele>
        <time>2023-04-30T15:50:48Z</time>
      </trkpt>
      <trkpt lat="48.04494" lon="6.48255">
        <ele>523.7</ele>
        <time>2023-04-30T15:50:49Z</time>
      </trkpt>
      <trkpt lat="48.04503" lon="6.48254">
        <ele>523.6</ele>
        <time>2023-04-30T15:50:51Z</time>
      </trkpt>
      <trkpt lat="48.04509" lon="6.48255">
        <ele>523.4</ele>
        <time>2023-04-30T15:50:52Z</time>
      </trkpt>
      <trkpt lat="48.04515" lon="6.48254">
        <ele>523.2</ele>
        <time>2023-04-30T15:50:53Z</time>
      </trkpt>
      <trkpt lat="48.04521" lon="6.4825">
        <ele>523</ele>
        <time>2023-04-30T15:50:54Z</time>
      </trkpt>
      <trkpt lat="48.04526" lon="6.48246">
        <ele>522.7</ele>
        <time>2023-04-30T15:50:55Z</time>
      </trkpt>
      <trkpt lat="48.04532" lon="6.48241">
        <ele>522.5</ele>
        <time>2023-04-30T15:50:56Z</time>
      </trkpt>
      <trkpt lat="48.04538" lon="6.48236">
        <ele>522.1</ele>
        <time>2023-04-30T15:50:57Z</time>
      </trkpt>
      <trkpt lat="48.04544" lon="6.48229">
        <ele>521.7</ele>
        <time>2023-04-30T15:50:58Z</time>
      </trkpt>
      <trkpt lat="48.0455" lon="6.48223">
        <ele>521.4</ele>
        <time>2023-04-30T15:50:59Z</time>
      </trkpt>
      <trkpt lat="48.04555" lon="6.48218">
        <ele>521</ele>
        <time>2023-04-30T15:51:00Z</time>
      </trkpt>
      <trkpt lat="48.04561" lon="6.48213">
        <ele>520.5</ele>
        <time>2023-04-30T15:51:01Z</time>
      </trkpt>
      <trkpt lat="48.04568" lon="6.48207">
        <ele>520.1</ele>
        <time>2023-04-30T15:51:02Z</time>
      </trkpt>
      <trkpt lat="48.04576" lon="6.48204">
        <ele>519.5</ele>
        <time>2023-04-30T15:51:03Z</time>
      </trkpt>
      <trkpt lat="48.04583" lon="6.48205">
        <ele>519</ele>
        <time>2023-04-30T15:51:04Z</time>
      </trkpt>
      <trkpt lat="48.04589" lon="6.48206">
        <ele>518.6</ele>
        <time>2023-04-30T15:51:05Z</time>
      </trkpt>
      <trkpt lat="48.04593" lon="6.48209">
        <ele>518.3</ele>
        <time>2023-04-30T15:51:06Z</time>
      </trkpt>
      <trkpt lat="48.04595" lon="6.48211">
        <ele>518</ele>
        <time>2023-04-30T15:51:07Z</time>
      </trkpt>
      <trkpt lat="48.04601" lon="6.48218">
        <ele>517.5</ele>
        <time>2023-04-30T15:51:08Z</time>
      </trkpt>
      <trkpt lat="48.04606" lon="6.48227">
        <ele>517</ele>
        <time>2023-04-30T15:51:09Z</time>
      </trkpt>
      <trkpt lat="48.0461" lon="6.48234">
        <ele>516.6</ele>
        <time>2023-04-30T15:51:10Z</time>
      </trkpt>
      <trkpt lat="48.04613" lon="6.48242">
        <ele>516.3</ele>
        <time>2023-04-30T15:51:11Z</time>
      </trkpt>
      <trkpt lat="48.04614" lon="6.48246">
        <ele>516.1</ele>
        <time>2023-04-30T15:51:12Z</time>
      </trkpt>
      <trkpt lat="48.04617" lon="6.4825">
        <ele>515.9</ele>
        <time>2023-04-30T15:51:13Z</time>
      </trkpt>
      <trkpt lat="48.04617" lon="6.48252">
        <ele>515.8</ele>
        <time>2023-04-30T15:51:14Z</time>
      </trkpt>
      <trkpt lat="48.04618" lon="6.48259">
        <ele>515.5</ele>
        <time>2023-04-30T15:51:15Z</time>
      </trkpt>
      <trkpt lat="48.04616" lon="6.4827">
        <ele>515</ele>
        <time>2023-04-30T15:51:16Z</time>
      </trkpt>
      <trkpt lat="48.04613" lon="6.48283">
        <ele>513.6</ele>
        <time>2023-04-30T15:51:17Z</time>
      </trkpt>
      <trkpt lat="48.04609" lon="6.48295">
        <ele>513.1</ele>
        <time>2023-04-30T15:51:18Z</time>
      </trkpt>
      <trkpt lat="48.04605" lon="6.48305">
        <ele>512.6</ele>
        <time>2023-04-30T15:51:19Z</time>
      </trkpt>
      <trkpt lat="48.04601" lon="6.48316">
        <ele>512.1</ele>
        <time>2023-04-30T15:51:20Z</time>
      </trkpt>
      <trkpt lat="48.04598" lon="6.48326">
        <ele>511.7</ele>
        <time>2023-04-30T15:51:21Z</time>
      </trkpt>
      <trkpt lat="48.04594" lon="6.48337">
        <ele>511.2</ele>
        <time>2023-04-30T15:51:22Z</time>
      </trkpt>
      <trkpt lat="48.04591" lon="6.48348">
        <ele>510.8</ele>
        <time>2023-04-30T15:51:23Z</time>
      </trkpt>
      <trkpt lat="48.04588" lon="6.4836">
        <ele>510.3</ele>
        <time>2023-04-30T15:51:24Z</time>
      </trkpt>
      <trkpt lat="48.04586" lon="6.48372">
        <ele>509.8</ele>
        <time>2023-04-30T15:51:25Z</time>
      </trkpt>
      <trkpt lat="48.04583" lon="6.48385">
        <ele>509.3</ele>
        <time>2023-04-30T15:51:26Z</time>
      </trkpt>
      <trkpt lat="48.04581" lon="6.48396">
        <ele>508.9</ele>
        <time>2023-04-30T15:51:27Z</time>
      </trkpt>
      <trkpt lat="48.04577" lon="6.48411">
        <ele>508.4</ele>
        <time>2023-04-30T15:51:28Z</time>
      </trkpt>
      <trkpt lat="48.04574" lon="6.48424">
        <ele>507.9</ele>
        <time>2023-04-30T15:51:29Z</time>
      </trkpt>
      <trkpt lat="48.04572" lon="6.48436">
        <ele>507.5</ele>
        <time>2023-04-30T15:51:30Z</time>
      </trkpt>
      <trkpt lat="48.04569" lon="6.48449">
        <ele>507</ele>
        <time>2023-04-30T15:51:31Z</time>
      </trkpt>
      <trkpt lat="48.04566" lon="6.48463">
        <ele>506.6</ele>
        <time>2023-04-30T15:51:32Z</time>
      </trkpt>
      <trkpt lat="48.04563" lon="6.48476">
        <ele>506.1</ele>
        <time>2023-04-30T15:51:33Z</time>
      </trkpt>
      <trkpt lat="48.0456" lon="6.48489">
        <ele>505.7</ele>
        <time>2023-04-30T15:51:34Z</time>
      </trkpt>
      <trkpt lat="48.04557" lon="6.48502">
        <ele>505.3</ele>
        <time>2023-04-30T15:51:35Z</time>
      </trkpt>
      <trkpt lat="48.04553" lon="6.48515">
        <ele>504.9</ele>
        <time>2023-04-30T15:51:36Z</time>
      </trkpt>
      <trkpt lat="48.04549" lon="6.48527">
        <ele>504.6</ele>
        <time>2023-04-30T15:51:37Z</time>
      </trkpt>
      <trkpt lat="48.04545" lon="6.4854">
        <ele>504.3</ele>
        <time>2023-04-30T15:51:38Z</time>
      </trkpt>
      <trkpt lat="48.04541" lon="6.48552">
        <ele>504</ele>
        <time>2023-04-30T15:51:39Z</time>
      </trkpt>
      <trkpt lat="48.04537" lon="6.48564">
        <ele>503.7</ele>
        <time>2023-04-30T15:51:40Z</time>
      </trkpt>
      <trkpt lat="48.04533" lon="6.48576">
        <ele>503.4</ele>
        <time>2023-04-30T15:51:41Z</time>
      </trkpt>
      <trkpt lat="48.04529" lon="6.48588">
        <ele>503.1</ele>
        <time>2023-04-30T15:51:42Z</time>
      </trkpt>
      <trkpt lat="48.04526" lon="6.486">
        <ele>502.7</ele>
        <time>2023-04-30T15:51:43Z</time>
      </trkpt>
      <trkpt lat="48.04523" lon="6.48613">
        <ele>502.3</ele>
        <time>2023-04-30T15:51:44Z</time>
      </trkpt>
      <trkpt lat="48.04519" lon="6.48626">
        <ele>501.7</ele>
        <time>2023-04-30T15:51:45Z</time>
      </trkpt>
      <trkpt lat="48.04516" lon="6.48638">
        <ele>501.1</ele>
        <time>2023-04-30T15:51:46Z</time>
      </trkpt>
      <trkpt lat="48.04511" lon="6.4865">
        <ele>500.5</ele>
        <time>2023-04-30T15:51:47Z</time>
      </trkpt>
      <trkpt lat="48.04507" lon="6.48663">
        <ele>499.8</ele>
        <time>2023-04-30T15:51:48Z</time>
      </trkpt>
      <trkpt lat="48.04501" lon="6.48676">
        <ele>499.1</ele>
        <time>2023-04-30T15:51:49Z</time>
      </trkpt>
      <trkpt lat="48.04496" lon="6.48689">
        <ele>498.4</ele>
        <time>2023-04-30T15:51:50Z</time>
      </trkpt>
      <trkpt lat="48.0449" lon="6.48703">
        <ele>497.8</ele>
        <time>2023-04-30T15:51:51Z</time>
      </trkpt>
      <trkpt lat="48.04485" lon="6.48716">
        <ele>497.2</ele>
        <time>2023-04-30T15:51:52Z</time>
      </trkpt>
      <trkpt lat="48.0448" lon="6.48729">
        <ele>496.7</ele>
        <time>2023-04-30T15:51:53Z</time>
      </trkpt>
      <trkpt lat="48.04476" lon="6.48741">
        <ele>496.2</ele>
        <time>2023-04-30T15:51:54Z</time>
      </trkpt>
      <trkpt lat="48.04471" lon="6.48753">
        <ele>495.7</ele>
        <time>2023-04-30T15:51:55Z</time>
      </trkpt>
      <trkpt lat="48.04467" lon="6.48765">
        <ele>495.3</ele>
        <time>2023-04-30T15:51:56Z</time>
      </trkpt>
      <trkpt lat="48.04463" lon="6.48777">
        <ele>494.8</ele>
        <time>2023-04-30T15:51:57Z</time>
      </trkpt>
      <trkpt lat="48.04459" lon="6.48787">
        <ele>494.4</ele>
        <time>2023-04-30T15:51:58Z</time>
      </trkpt>
      <trkpt lat="48.04454" lon="6.48799">
        <ele>494</ele>
        <time>2023-04-30T15:51:59Z</time>
      </trkpt>
      <trkpt lat="48.0445" lon="6.48811">
        <ele>493.5</ele>
        <time>2023-04-30T15:52:00Z</time>
      </trkpt>
      <trkpt lat="48.04446" lon="6.48824">
        <ele>493.1</ele>
        <time>2023-04-30T15:52:01Z</time>
      </trkpt>
      <trkpt lat="48.04443" lon="6.48836">
        <ele>492.7</ele>
        <time>2023-04-30T15:52:02Z</time>
      </trkpt>
      <trkpt lat="48.0444" lon="6.48848">
        <ele>492.4</ele>
        <time>2023-04-30T15:52:03Z</time>
      </trkpt>
      <trkpt lat="48.04437" lon="6.4886">
        <ele>492.1</ele>
        <time>2023-04-30T15:52:04Z</time>
      </trkpt>
      <trkpt lat="48.04435" lon="6.48873">
        <ele>491.8</ele>
        <time>2023-04-30T15:52:05Z</time>
      </trkpt>
      <trkpt lat="48.04433" lon="6.48888">
        <ele>491.5</ele>
        <time>2023-04-30T15:52:06Z</time>
      </trkpt>
      <trkpt lat="48.04432" lon="6.48903">
        <ele>491.2</ele>
        <time>2023-04-30T15:52:07Z</time>
      </trkpt>
      <trkpt lat="48.04431" lon="6.48918">
        <ele>490.9</ele>
        <time>2023-04-30T15:52:08Z</time>
      </trkpt>
      <trkpt lat="48.04431" lon="6.48932">
        <ele>490.6</ele>
        <time>2023-04-30T15:52:09Z</time>
      </trkpt>
      <trkpt lat="48.04431" lon="6.48944">
        <ele>490.4</ele>
        <time>2023-04-30T15:52:10Z</time>
      </trkpt>
      <trkpt lat="48.04432" lon="6.48956">
        <ele>490.2</ele>
        <time>2023-04-30T15:52:11Z</time>
      </trkpt>
      <trkpt lat="48.04432" lon="6.48967">
        <ele>490</ele>
        <time>2023-04-30T15:52:12Z</time>
      </trkpt>
      <trkpt lat="48.04433" lon="6.48979">
        <ele>489.8</ele>
        <time>2023-04-30T15:52:13Z</time>
      </trkpt>
      <trkpt lat="48.04433" lon="6.4899">
        <ele>489.5</ele>
        <time>2023-04-30T15:52:14Z</time>
      </trkpt>
      <trkpt lat="48.04434" lon="6.49">
        <ele>489.3</ele>
        <time>2023-04-30T15:52:15Z</time>
      </trkpt>
      <trkpt lat="48.04435" lon="6.49011">
        <ele>489.1</ele>
        <time>2023-04-30T15:52:16Z</time>
      </trkpt>
      <trkpt lat="48.04437" lon="6.49023">
        <ele>488.9</ele>
        <time>2023-04-30T15:52:17Z</time>
      </trkpt>
      <trkpt lat="48.04441" lon="6.49035">
        <ele>488.8</ele>
        <time>2023-04-30T15:52:18Z</time>
      </trkpt>
      <trkpt lat="48.04446" lon="6.49046">
        <ele>488.8</ele>
        <time>2023-04-30T15:52:19Z</time>
      </trkpt>
      <trkpt lat="48.04451" lon="6.49057">
        <ele>488.9</ele>
        <time>2023-04-30T15:52:20Z</time>
      </trkpt>
      <trkpt lat="48.04456" lon="6.49067">
        <ele>488.9</ele>
        <time>2023-04-30T15:52:21Z</time>
      </trkpt>
      <trkpt lat="48.0446" lon="6.49077">
        <ele>488.8</ele>
        <time>2023-04-30T15:52:22Z</time>
      </trkpt>
      <trkpt lat="48.04464" lon="6.49088">
        <ele>488.7</ele>
        <time>2023-04-30T15:52:23Z</time>
      </trkpt>
      <trkpt lat="48.04466" lon="6.49099">
        <ele>488.6</ele>
        <time>2023-04-30T15:52:24Z</time>
      </trkpt>
      <trkpt lat="48.04469" lon="6.49111">
        <ele>488.4</ele>
        <time>2023-04-30T15:52:25Z</time>
      </trkpt>
      <trkpt lat="48.04471" lon="6.49123">
        <ele>488.3</ele>
        <time>2023-04-30T15:52:26Z</time>
      </trkpt>
      <trkpt lat="48.04473" lon="6.49135">
        <ele>488.2</ele>
        <time>2023-04-30T15:52:27Z</time>
      </trkpt>
      <trkpt lat="48.04476" lon="6.49146">
        <ele>488.1</ele>
        <time>2023-04-30T15:52:28Z</time>
      </trkpt>
      <trkpt lat="48.04479" lon="6.49156">
        <ele>488</ele>
        <time>2023-04-30T15:52:29Z</time>
      </trkpt>
      <trkpt lat="48.04482" lon="6.49167">
        <ele>487.9</ele>
        <time>2023-04-30T15:52:30Z</time>
      </trkpt>
      <trkpt lat="48.04485" lon="6.49178">
        <ele>487.8</ele>
        <time>2023-04-30T15:52:31Z</time>
      </trkpt>
      <trkpt lat="48.04489" lon="6.49189">
        <ele>487.7</ele>
        <time>2023-04-30T15:52:32Z</time>
      </trkpt>
      <trkpt lat="48.04494" lon="6.49199">
        <ele>487.5</ele>
        <time>2023-04-30T15:52:33Z</time>
      </trkpt>
      <trkpt lat="48.04498" lon="6.49209">
        <ele>487.4</ele>
        <time>2023-04-30T15:52:34Z</time>
      </trkpt>
      <trkpt lat="48.04501" lon="6.4922">
        <ele>487.3</ele>
        <time>2023-04-30T15:52:35Z</time>
      </trkpt>
      <trkpt lat="48.04505" lon="6.49231">
        <ele>487.2</ele>
        <time>2023-04-30T15:52:36Z</time>
      </trkpt>
      <trkpt lat="48.04508" lon="6.49239">
        <ele>487.1</ele>
        <time>2023-04-30T15:52:37Z</time>
      </trkpt>
      <trkpt lat="48.04512" lon="6.49248">
        <ele>487</ele>
        <time>2023-04-30T15:52:38Z</time>
      </trkpt>
      <trkpt lat="48.04517" lon="6.49256">
        <ele>486.9</ele>
        <time>2023-04-30T15:52:39Z</time>
      </trkpt>
      <trkpt lat="48.04521" lon="6.49263">
        <ele>486.8</ele>
        <time>2023-04-30T15:52:40Z</time>
      </trkpt>
      <trkpt lat="48.04525" lon="6.49269">
        <ele>486.8</ele>
        <time>2023-04-30T15:52:41Z</time>
      </trkpt>
      <trkpt lat="48.0453" lon="6.49276">
        <ele>486.7</ele>
        <time>2023-04-30T15:52:42Z</time>
      </trkpt>
      <trkpt lat="48.04535" lon="6.49282">
        <ele>486.5</ele>
        <time>2023-04-30T15:52:43Z</time>
      </trkpt>
      <trkpt lat="48.04541" lon="6.49288">
        <ele>486.4</ele>
        <time>2023-04-30T15:52:44Z</time>
      </trkpt>
      <trkpt lat="48.04547" lon="6.49299">
        <ele>486.2</ele>
        <time>2023-04-30T15:52:45Z</time>
      </trkpt>
      <trkpt lat="48.04552" lon="6.49308">
        <ele>486.1</ele>
        <time>2023-04-30T15:52:46Z</time>
      </trkpt>
      <trkpt lat="48.04557" lon="6.49318">
        <ele>486</ele>
        <time>2023-04-30T15:52:47Z</time>
      </trkpt>
      <trkpt lat="48.04561" lon="6.49328">
        <ele>485.9</ele>
        <time>2023-04-30T15:52:48Z</time>
      </trkpt>
      <trkpt lat="48.04564" lon="6.49337">
        <ele>485.8</ele>
        <time>2023-04-30T15:52:49Z</time>
      </trkpt>
      <trkpt lat="48.04569" lon="6.49347">
        <ele>485.7</ele>
        <time>2023-04-30T15:52:50Z</time>
      </trkpt>
      <trkpt lat="48.04573" lon="6.49357">
        <ele>485.6</ele>
        <time>2023-04-30T15:52:51Z</time>
      </trkpt>
      <trkpt lat="48.04578" lon="6.49366">
        <ele>485.5</ele>
        <time>2023-04-30T15:52:52Z</time>
      </trkpt>
      <trkpt lat="48.04583" lon="6.49375">
        <ele>485.4</ele>
        <time>2023-04-30T15:52:53Z</time>
      </trkpt>
      <trkpt lat="48.04588" lon="6.49383">
        <ele>485.3</ele>
        <time>2023-04-30T15:52:54Z</time>
      </trkpt>
      <trkpt lat="48.04592" lon="6.49393">
        <ele>485.2</ele>
        <time>2023-04-30T15:52:55Z</time>
      </trkpt>
      <trkpt lat="48.04596" lon="6.49403">
        <ele>485.1</ele>
        <time>2023-04-30T15:52:56Z</time>
      </trkpt>
      <trkpt lat="48.046" lon="6.49412">
        <ele>485</ele>
        <time>2023-04-30T15:52:57Z</time>
      </trkpt>
      <trkpt lat="48.04603" lon="6.49421">
        <ele>484.9</ele>
        <time>2023-04-30T15:52:58Z</time>
      </trkpt>
      <trkpt lat="48.04606" lon="6.49429">
        <ele>484.8</ele>
        <time>2023-04-30T15:52:59Z</time>
      </trkpt>
      <trkpt lat="48.0461" lon="6.49439">
        <ele>484.6</ele>
        <time>2023-04-30T15:53:00Z</time>
      </trkpt>
      <trkpt lat="48.04613" lon="6.49449">
        <ele>484.5</ele>
        <time>2023-04-30T15:53:01Z</time>
      </trkpt>
      <trkpt lat="48.04616" lon="6.49458">
        <ele>484.3</ele>
        <time>2023-04-30T15:53:02Z</time>
      </trkpt>
      <trkpt lat="48.0462" lon="6.49469">
        <ele>484.2</ele>
        <time>2023-04-30T15:53:03Z</time>
      </trkpt>
      <trkpt lat="48.04624" lon="6.49478">
        <ele>484</ele>
        <time>2023-04-30T15:53:04Z</time>
      </trkpt>
      <trkpt lat="48.04628" lon="6.49488">
        <ele>483.8</ele>
        <time>2023-04-30T15:53:05Z</time>
      </trkpt>
      <trkpt lat="48.04632" lon="6.49498">
        <ele>483.6</ele>
        <time>2023-04-30T15:53:06Z</time>
      </trkpt>
      <trkpt lat="48.04637" lon="6.49507">
        <ele>483.3</ele>
        <time>2023-04-30T15:53:07Z</time>
      </trkpt>
      <trkpt lat="48.04643" lon="6.49514">
        <ele>483.1</ele>
        <time>2023-04-30T15:53:08Z</time>
      </trkpt>
      <trkpt lat="48.04648" lon="6.49521">
        <ele>482.8</ele>
        <time>2023-04-30T15:53:09Z</time>
      </trkpt>
      <trkpt lat="48.04655" lon="6.49527">
        <ele>482.5</ele>
        <time>2023-04-30T15:53:10Z</time>
      </trkpt>
      <trkpt lat="48.04662" lon="6.49533">
        <ele>482.3</ele>
        <time>2023-04-30T15:53:11Z</time>
      </trkpt>
      <trkpt lat="48.04669" lon="6.49538">
        <ele>482</ele>
        <time>2023-04-30T15:53:12Z</time>
      </trkpt>
      <trkpt lat="48.04676" lon="6.49545">
        <ele>481.7</ele>
        <time>2023-04-30T15:53:13Z</time>
      </trkpt>
      <trkpt lat="48.04683" lon="6.4955">
        <ele>481.4</ele>
        <time>2023-04-30T15:53:14Z</time>
      </trkpt>
      <trkpt lat="48.04691" lon="6.49554">
        <ele>481.1</ele>
        <time>2023-04-30T15:53:15Z</time>
      </trkpt>
      <trkpt lat="48.047" lon="6.49557">
        <ele>480.8</ele>
        <time>2023-04-30T15:53:16Z</time>
      </trkpt>
      <trkpt lat="48.04709" lon="6.49558">
        <ele>480.4</ele>
        <time>2023-04-30T15:53:17Z</time>
      </trkpt>
      <trkpt lat="48.04718" lon="6.49558">
        <ele>480.1</ele>
        <time>2023-04-30T15:53:18Z</time>
      </trkpt>
      <trkpt lat="48.04727" lon="6.49557">
        <ele>479.9</ele>
        <time>2023-04-30T15:53:19Z</time>
      </trkpt>
      <trkpt lat="48.04736" lon="6.49556">
        <ele>479.5</ele>
        <time>2023-04-30T15:53:20Z</time>
      </trkpt>
      <trkpt lat="48.04745" lon="6.49556">
        <ele>479.3</ele>
        <time>2023-04-30T15:53:21Z</time>
      </trkpt>
      <trkpt lat="48.04753" lon="6.49556">
        <ele>479</ele>
        <time>2023-04-30T15:53:22Z</time>
      </trkpt>
      <trkpt lat="48.04762" lon="6.49557">
        <ele>478.8</ele>
        <time>2023-04-30T15:53:23Z</time>
      </trkpt>
      <trkpt lat="48.0477" lon="6.49558">
        <ele>478.5</ele>
        <time>2023-04-30T15:53:24Z</time>
      </trkpt>
      <trkpt lat="48.04779" lon="6.49561">
        <ele>478.4</ele>
        <time>2023-04-30T15:53:25Z</time>
      </trkpt>
      <trkpt lat="48.04787" lon="6.49565">
        <ele>478.2</ele>
        <time>2023-04-30T15:53:26Z</time>
      </trkpt>
      <trkpt lat="48.04794" lon="6.49569">
        <ele>478.2</ele>
        <time>2023-04-30T15:53:27Z</time>
      </trkpt>
      <trkpt lat="48.04801" lon="6.49574">
        <ele>478.2</ele>
        <time>2023-04-30T15:53:28Z</time>
      </trkpt>
      <trkpt lat="48.04808" lon="6.49579">
        <ele>478.1</ele>
        <time>2023-04-30T15:53:29Z</time>
      </trkpt>
      <trkpt lat="48.04814" lon="6.49585">
        <ele>478.1</ele>
        <time>2023-04-30T15:53:30Z</time>
      </trkpt>
      <trkpt lat="48.0482" lon="6.49592">
        <ele>478.1</ele>
        <time>2023-04-30T15:53:31Z</time>
      </trkpt>
      <trkpt lat="48.04824" lon="6.496">
        <ele>478</ele>
        <time>2023-04-30T15:53:32Z</time>
      </trkpt>
      <trkpt lat="48.04826" lon="6.49609">
        <ele>478</ele>
        <time>2023-04-30T15:53:33Z</time>
      </trkpt>
      <trkpt lat="48.04828" lon="6.49619">
        <ele>478</ele>
        <time>2023-04-30T15:53:34Z</time>
      </trkpt>
      <trkpt lat="48.04828" lon="6.4963">
        <ele>478</ele>
        <time>2023-04-30T15:53:35Z</time>
      </trkpt>
      <trkpt lat="48.04828" lon="6.49641">
        <ele>477.9</ele>
        <time>2023-04-30T15:53:36Z</time>
      </trkpt>
      <trkpt lat="48.04826" lon="6.49651">
        <ele>477.8</ele>
        <time>2023-04-30T15:53:37Z</time>
      </trkpt>
      <trkpt lat="48.04824" lon="6.4966">
        <ele>477.7</ele>
        <time>2023-04-30T15:53:38Z</time>
      </trkpt>
      <trkpt lat="48.04821" lon="6.49668">
        <ele>477.5</ele>
        <time>2023-04-30T15:53:39Z</time>
      </trkpt>
      <trkpt lat="48.04818" lon="6.49675">
        <ele>477.3</ele>
        <time>2023-04-30T15:53:40Z</time>
      </trkpt>
      <trkpt lat="48.04816" lon="6.49679">
        <ele>477.1</ele>
        <time>2023-04-30T15:53:41Z</time>
      </trkpt>
      <trkpt lat="48.04814" lon="6.49681">
        <ele>477</ele>
        <time>2023-04-30T15:53:42Z</time>
      </trkpt>
      <trkpt lat="48.04813" lon="6.49682">
        <ele>476.9</ele>
        <time>2023-04-30T15:53:43Z</time>
      </trkpt>
      <trkpt lat="48.04811" lon="6.49687">
        <ele>476.7</ele>
        <time>2023-04-30T15:53:44Z</time>
      </trkpt>
      <trkpt lat="48.04805" lon="6.49695">
        <ele>476.3</ele>
        <time>2023-04-30T15:53:45Z</time>
      </trkpt>
      <trkpt lat="48.04799" lon="6.49706">
        <ele>475.8</ele>
        <time>2023-04-30T15:53:46Z</time>
      </trkpt>
      <trkpt lat="48.04793" lon="6.49716">
        <ele>475.3</ele>
        <time>2023-04-30T15:53:47Z</time>
      </trkpt>
      <trkpt lat="48.04789" lon="6.49728">
        <ele>474.9</ele>
        <time>2023-04-30T15:53:48Z</time>
      </trkpt>
      <trkpt lat="48.04787" lon="6.49742">
        <ele>474.6</ele>
        <time>2023-04-30T15:53:49Z</time>
      </trkpt>
      <trkpt lat="48.04788" lon="6.49758">
        <ele>474.2</ele>
        <time>2023-04-30T15:53:50Z</time>
      </trkpt>
      <trkpt lat="48.04791" lon="6.49772">
        <ele>473.9</ele>
        <time>2023-04-30T15:53:51Z</time>
      </trkpt>
      <trkpt lat="48.04796" lon="6.49786">
        <ele>473.5</ele>
        <time>2023-04-30T15:53:52Z</time>
      </trkpt>
      <trkpt lat="48.048" lon="6.49799">
        <ele>473.1</ele>
        <time>2023-04-30T15:53:53Z</time>
      </trkpt>
      <trkpt lat="48.04801" lon="6.49814">
        <ele>472.7</ele>
        <time>2023-04-30T15:53:54Z</time>
      </trkpt>
      <trkpt lat="48.04801" lon="6.4983">
        <ele>472.4</ele>
        <time>2023-04-30T15:53:55Z</time>
      </trkpt>
      <trkpt lat="48.04801" lon="6.49845">
        <ele>472.2</ele>
        <time>2023-04-30T15:53:56Z</time>
      </trkpt>
      <trkpt lat="48.04801" lon="6.49858">
        <ele>472.2</ele>
        <time>2023-04-30T15:53:57Z</time>
      </trkpt>
      <trkpt lat="48.04799" lon="6.4987">
        <ele>472.3</ele>
        <time>2023-04-30T15:53:58Z</time>
      </trkpt>
      <trkpt lat="48.04797" lon="6.49881">
        <ele>472.5</ele>
        <time>2023-04-30T15:53:59Z</time>
      </trkpt>
      <trkpt lat="48.04795" lon="6.49891">
        <ele>472.8</ele>
        <time>2023-04-30T15:54:00Z</time>
      </trkpt>
      <trkpt lat="48.04793" lon="6.499">
        <ele>473.1</ele>
        <time>2023-04-30T15:54:01Z</time>
      </trkpt>
      <trkpt lat="48.04791" lon="6.49909">
        <ele>473.4</ele>
        <time>2023-04-30T15:54:02Z</time>
      </trkpt>
      <trkpt lat="48.04789" lon="6.49916">
        <ele>473.6</ele>
        <time>2023-04-30T15:54:03Z</time>
      </trkpt>
      <trkpt lat="48.04786" lon="6.49923">
        <ele>474</ele>
        <time>2023-04-30T15:54:04Z</time>
      </trkpt>
      <trkpt lat="48.04784" lon="6.49929">
        <ele>474.2</ele>
        <time>2023-04-30T15:54:05Z</time>
      </trkpt>
      <trkpt lat="48.04782" lon="6.49932">
        <ele>474.3</ele>
        <time>2023-04-30T15:54:06Z</time>
      </trkpt>
      <trkpt lat="48.04782" lon="6.49933">
        <ele>474.4</ele>
        <time>2023-04-30T15:54:07Z</time>
      </trkpt>
      <trkpt lat="48.04781" lon="6.49938">
        <ele>474.6</ele>
        <time>2023-04-30T15:54:08Z</time>
      </trkpt>
      <trkpt lat="48.04779" lon="6.49943">
        <ele>474.8</ele>
        <time>2023-04-30T15:54:09Z</time>
      </trkpt>
      <trkpt lat="48.04778" lon="6.49945">
        <ele>474.9</ele>
        <time>2023-04-30T15:54:10Z</time>
      </trkpt>
      <trkpt lat="48.04777" lon="6.49947">
        <ele>475</ele>
        <time>2023-04-30T15:54:11Z</time>
      </trkpt>
      <trkpt lat="48.04779" lon="6.4995">
        <ele>475.2</ele>
        <time>2023-04-30T15:54:12Z</time>
      </trkpt>
      <trkpt lat="48.04779" lon="6.4996">
        <ele>475.5</ele>
        <time>2023-04-30T15:54:13Z</time>
      </trkpt>
      <trkpt lat="48.0478" lon="6.49981">
        <ele>475.7</ele>
        <time>2023-04-30T15:54:15Z</time>
      </trkpt>
      <trkpt lat="48.0478" lon="6.49987">
        <ele>475.7</ele>
        <time>2023-04-30T15:54:16Z</time>
      </trkpt>
      <trkpt lat="48.04779" lon="6.49997">
        <ele>475.8</ele>
        <time>2023-04-30T15:54:18Z</time>
      </trkpt>
      <trkpt lat="48.04779" lon="6.50003">
        <ele>475.9</ele>
        <time>2023-04-30T15:54:19Z</time>
      </trkpt>
      <trkpt lat="48.04779" lon="6.50011">
        <ele>476</ele>
        <time>2023-04-30T15:54:20Z</time>
      </trkpt>
      <trkpt lat="48.04779" lon="6.50019">
        <ele>476.1</ele>
        <time>2023-04-30T15:54:21Z</time>
      </trkpt>
      <trkpt lat="48.04778" lon="6.50023">
        <ele>476.1</ele>
        <time>2023-04-30T15:54:22Z</time>
      </trkpt>
      <trkpt lat="48.04779" lon="6.50032">
        <ele>476.2</ele>
        <time>2023-04-30T15:54:23Z</time>
      </trkpt>
      <trkpt lat="48.04778" lon="6.50045">
        <ele>476.4</ele>
        <time>2023-04-30T15:54:25Z</time>
      </trkpt>
      <trkpt lat="48.04778" lon="6.50056">
        <ele>476.6</ele>
        <time>2023-04-30T15:54:27Z</time>
      </trkpt>
      <trkpt lat="48.04778" lon="6.50065">
        <ele>476.7</ele>
        <time>2023-04-30T15:54:28Z</time>
      </trkpt>
      <trkpt lat="48.04779" lon="6.50074">
        <ele>476.8</ele>
        <time>2023-04-30T15:54:29Z</time>
      </trkpt>
      <trkpt lat="48.0478" lon="6.50082">
        <ele>476.9</ele>
        <time>2023-04-30T15:54:30Z</time>
      </trkpt>
      <trkpt lat="48.04781" lon="6.50089">
        <ele>477</ele>
        <time>2023-04-30T15:54:31Z</time>
      </trkpt>
      <trkpt lat="48.04781" lon="6.50096">
        <ele>477.2</ele>
        <time>2023-04-30T15:54:32Z</time>
      </trkpt>
      <trkpt lat="48.0478" lon="6.50103">
        <ele>477.3</ele>
        <time>2023-04-30T15:54:33Z</time>
      </trkpt>
      <trkpt lat="48.0478" lon="6.50109">
        <ele>477.4</ele>
        <time>2023-04-30T15:54:34Z</time>
      </trkpt>
      <trkpt lat="48.04781" lon="6.50114">
        <ele>477.5</ele>
        <time>2023-04-30T15:54:35Z</time>
      </trkpt>
      <trkpt lat="48.04781" lon="6.50122">
        <ele>477.6</ele>
        <time>2023-04-30T15:54:36Z</time>
      </trkpt>
      <trkpt lat="48.04782" lon="6.50127">
        <ele>477.7</ele>
        <time>2023-04-30T15:54:37Z</time>
      </trkpt>
      <trkpt lat="48.04783" lon="6.50134">
        <ele>477.9</ele>
        <time>2023-04-30T15:54:39Z</time>
      </trkpt>
      <trkpt lat="48.04784" lon="6.50138">
        <ele>478</ele>
        <time>2023-04-30T15:54:40Z</time>
      </trkpt>
      <trkpt lat="48.04785" lon="6.50152">
        <ele>478.2</ele>
        <time>2023-04-30T15:54:42Z</time>
      </trkpt>
      <trkpt lat="48.04787" lon="6.5016">
        <ele>478.3</ele>
        <time>2023-04-30T15:54:43Z</time>
      </trkpt>
      <trkpt lat="48.04789" lon="6.50169">
        <ele>478.4</ele>
        <time>2023-04-30T15:54:45Z</time>
      </trkpt>
      <trkpt lat="48.04791" lon="6.5018">
        <ele>478.6</ele>
        <time>2023-04-30T15:54:46Z</time>
      </trkpt>
      <trkpt lat="48.04795" lon="6.50195">
        <ele>478.8</ele>
        <time>2023-04-30T15:54:48Z</time>
      </trkpt>
      <trkpt lat="48.04798" lon="6.50205">
        <ele>479</ele>
        <time>2023-04-30T15:54:49Z</time>
      </trkpt>
      <trkpt lat="48.04801" lon="6.50214">
        <ele>479.2</ele>
        <time>2023-04-30T15:54:50Z</time>
      </trkpt>
      <trkpt lat="48.04804" lon="6.50223">
        <ele>479.3</ele>
        <time>2023-04-30T15:54:51Z</time>
      </trkpt>
      <trkpt lat="48.04807" lon="6.50231">
        <ele>479.5</ele>
        <time>2023-04-30T15:54:52Z</time>
      </trkpt>
      <trkpt lat="48.0481" lon="6.50237">
        <ele>479.6</ele>
        <time>2023-04-30T15:54:53Z</time>
      </trkpt>
      <trkpt lat="48.04812" lon="6.50245">
        <ele>479.8</ele>
        <time>2023-04-30T15:54:54Z</time>
      </trkpt>
      <trkpt lat="48.04815" lon="6.50253">
        <ele>479.9</ele>
        <time>2023-04-30T15:54:55Z</time>
      </trkpt>
      <trkpt lat="48.04818" lon="6.5026">
        <ele>480</ele>
        <time>2023-04-30T15:54:56Z</time>
      </trkpt>
      <trkpt lat="48.04822" lon="6.50267">
        <ele>480.2</ele>
        <time>2023-04-30T15:54:57Z</time>
      </trkpt>
      <trkpt lat="48.04825" lon="6.50273">
        <ele>480.3</ele>
        <time>2023-04-30T15:54:58Z</time>
      </trkpt>
      <trkpt lat="48.04829" lon="6.50283">
        <ele>480.4</ele>
        <time>2023-04-30T15:55:00Z</time>
      </trkpt>
      <trkpt lat="48.04833" lon="6.50291">
        <ele>480.5</ele>
        <time>2023-04-30T15:55:01Z</time>
      </trkpt>
      <trkpt lat="48.04837" lon="6.50299">
        <ele>480.6</ele>
        <time>2023-04-30T15:55:02Z</time>
      </trkpt>
      <trkpt lat="48.04842" lon="6.50306">
        <ele>480.6</ele>
        <time>2023-04-30T15:55:03Z</time>
      </trkpt>
      <trkpt lat="48.04845" lon="6.50313">
        <ele>480.7</ele>
        <time>2023-04-30T15:55:04Z</time>
      </trkpt>
      <trkpt lat="48.04849" lon="6.5032">
        <ele>480.7</ele>
        <time>2023-04-30T15:55:05Z</time>
      </trkpt>
      <trkpt lat="48.04853" lon="6.50326">
        <ele>480.8</ele>
        <time>2023-04-30T15:55:06Z</time>
      </trkpt>
      <trkpt lat="48.04856" lon="6.50333">
        <ele>480.9</ele>
        <time>2023-04-30T15:55:07Z</time>
      </trkpt>
      <trkpt lat="48.04859" lon="6.50339">
        <ele>480.9</ele>
        <time>2023-04-30T15:55:08Z</time>
      </trkpt>
      <trkpt lat="48.04863" lon="6.50345">
        <ele>481</ele>
        <time>2023-04-30T15:55:09Z</time>
      </trkpt>
      <trkpt lat="48.04867" lon="6.5035">
        <ele>481.1</ele>
        <time>2023-04-30T15:55:10Z</time>
      </trkpt>
      <trkpt lat="48.04871" lon="6.50356">
        <ele>481.1</ele>
        <time>2023-04-30T15:55:11Z</time>
      </trkpt>
      <trkpt lat="48.04875" lon="6.50361">
        <ele>481.2</ele>
        <time>2023-04-30T15:55:12Z</time>
      </trkpt>
      <trkpt lat="48.0488" lon="6.50366">
        <ele>481.2</ele>
        <time>2023-04-30T15:55:13Z</time>
      </trkpt>
      <trkpt lat="48.04885" lon="6.50368">
        <ele>481.2</ele>
        <time>2023-04-30T15:55:14Z</time>
      </trkpt>
      <trkpt lat="48.04891" lon="6.5037">
        <ele>481.2</ele>
        <time>2023-04-30T15:55:15Z</time>
      </trkpt>
      <trkpt lat="48.04897" lon="6.50371">
        <ele>481.2</ele>
        <time>2023-04-30T15:55:16Z</time>
      </trkpt>
      <trkpt lat="48.04902" lon="6.50372">
        <ele>481.2</ele>
        <time>2023-04-30T15:55:17Z</time>
      </trkpt>
      <trkpt lat="48.04905" lon="6.50374">
        <ele>481.1</ele>
        <time>2023-04-30T15:55:18Z</time>
      </trkpt>
      <trkpt lat="48.04908" lon="6.50375">
        <ele>481.1</ele>
        <time>2023-04-30T15:55:19Z</time>
      </trkpt>
      <trkpt lat="48.04913" lon="6.50375">
        <ele>481</ele>
        <time>2023-04-30T15:55:20Z</time>
      </trkpt>
      <trkpt lat="48.04919" lon="6.50374">
        <ele>480.8</ele>
        <time>2023-04-30T15:55:21Z</time>
      </trkpt>
      <trkpt lat="48.04924" lon="6.50374">
        <ele>480.7</ele>
        <time>2023-04-30T15:55:22Z</time>
      </trkpt>
      <trkpt lat="48.04929" lon="6.50374">
        <ele>480.6</ele>
        <time>2023-04-30T15:55:23Z</time>
      </trkpt>
      <trkpt lat="48.04931" lon="6.50376">
        <ele>480.5</ele>
        <time>2023-04-30T15:55:24Z</time>
      </trkpt>
      <trkpt lat="48.04932" lon="6.50378">
        <ele>480.5</ele>
        <time>2023-04-30T15:55:25Z</time>
      </trkpt>
      <trkpt lat="48.04939" lon="6.50377">
        <ele>480.2</ele>
        <time>2023-04-30T15:55:26Z</time>
      </trkpt>
      <trkpt lat="48.0495" lon="6.50374">
        <ele>479.9</ele>
        <time>2023-04-30T15:55:28Z</time>
      </trkpt>
      <trkpt lat="48.04957" lon="6.50374">
        <ele>479.6</ele>
        <time>2023-04-30T15:55:29Z</time>
      </trkpt>
      <trkpt lat="48.04964" lon="6.50373">
        <ele>479.4</ele>
        <time>2023-04-30T15:55:30Z</time>
      </trkpt>
      <trkpt lat="48.04971" lon="6.50373">
        <ele>479.2</ele>
        <time>2023-04-30T15:55:31Z</time>
      </trkpt>
      <trkpt lat="48.04976" lon="6.50373">
        <ele>479</ele>
        <time>2023-04-30T15:55:32Z</time>
      </trkpt>
      <trkpt lat="48.04983" lon="6.50373">
        <ele>478.9</ele>
        <time>2023-04-30T15:55:33Z</time>
      </trkpt>
      <trkpt lat="48.0499" lon="6.50374">
        <ele>478.6</ele>
        <time>2023-04-30T15:55:34Z</time>
      </trkpt>
      <trkpt lat="48.04999" lon="6.50376">
        <ele>478.4</ele>
        <time>2023-04-30T15:55:35Z</time>
      </trkpt>
      <trkpt lat="48.05007" lon="6.50378">
        <ele>478.2</ele>
        <time>2023-04-30T15:55:36Z</time>
      </trkpt>
      <trkpt lat="48.05017" lon="6.50378">
        <ele>477.8</ele>
        <time>2023-04-30T15:55:37Z</time>
      </trkpt>
      <trkpt lat="48.05025" lon="6.5038">
        <ele>477.6</ele>
        <time>2023-04-30T15:55:38Z</time>
      </trkpt>
      <trkpt lat="48.05033" lon="6.50382">
        <ele>477.4</ele>
        <time>2023-04-30T15:55:39Z</time>
      </trkpt>
      <trkpt lat="48.0504" lon="6.50385">
        <ele>477.2</ele>
        <time>2023-04-30T15:55:40Z</time>
      </trkpt>
      <trkpt lat="48.05048" lon="6.50389">
        <ele>477.1</ele>
        <time>2023-04-30T15:55:41Z</time>
      </trkpt>
      <trkpt lat="48.05054" lon="6.50394">
        <ele>476.9</ele>
        <time>2023-04-30T15:55:42Z</time>
      </trkpt>
      <trkpt lat="48.0506" lon="6.50399">
        <ele>476.8</ele>
        <time>2023-04-30T15:55:43Z</time>
      </trkpt>
      <trkpt lat="48.05066" lon="6.50404">
        <ele>476.6</ele>
        <time>2023-04-30T15:55:44Z</time>
      </trkpt>
      <trkpt lat="48.05073" lon="6.50408">
        <ele>476.5</ele>
        <time>2023-04-30T15:55:45Z</time>
      </trkpt>
      <trkpt lat="48.05079" lon="6.50413">
        <ele>476.3</ele>
        <time>2023-04-30T15:55:46Z</time>
      </trkpt>
      <trkpt lat="48.05084" lon="6.50418">
        <ele>476.2</ele>
        <time>2023-04-30T15:55:47Z</time>
      </trkpt>
      <trkpt lat="48.0509" lon="6.50422">
        <ele>476.1</ele>
        <time>2023-04-30T15:55:48Z</time>
      </trkpt>
      <trkpt lat="48.05096" lon="6.50426">
        <ele>475.9</ele>
        <time>2023-04-30T15:55:49Z</time>
      </trkpt>
      <trkpt lat="48.05101" lon="6.50429">
        <ele>475.8</ele>
        <time>2023-04-30T15:55:50Z</time>
      </trkpt>
      <trkpt lat="48.05108" lon="6.50432">
        <ele>475.7</ele>
        <time>2023-04-30T15:55:51Z</time>
      </trkpt>
      <trkpt lat="48.05115" lon="6.50434">
        <ele>475.5</ele>
        <time>2023-04-30T15:55:52Z</time>
      </trkpt>
      <trkpt lat="48.05121" lon="6.50436">
        <ele>475.4</ele>
        <time>2023-04-30T15:55:53Z</time>
      </trkpt>
      <trkpt lat="48.05128" lon="6.50437">
        <ele>475.2</ele>
        <time>2023-04-30T15:55:54Z</time>
      </trkpt>
      <trkpt lat="48.05135" lon="6.50438">
        <ele>475</ele>
        <time>2023-04-30T15:55:55Z</time>
      </trkpt>
      <trkpt lat="48.05142" lon="6.50439">
        <ele>474.8</ele>
        <time>2023-04-30T15:55:56Z</time>
      </trkpt>
      <trkpt lat="48.05148" lon="6.50439">
        <ele>474.6</ele>
        <time>2023-04-30T15:55:57Z</time>
      </trkpt>
      <trkpt lat="48.05155" lon="6.5044">
        <ele>474.5</ele>
        <time>2023-04-30T15:55:58Z</time>
      </trkpt>
      <trkpt lat="48.05162" lon="6.5044">
        <ele>474.3</ele>
        <time>2023-04-30T15:55:59Z</time>
      </trkpt>
      <trkpt lat="48.05169" lon="6.50441">
        <ele>474.1</ele>
        <time>2023-04-30T15:56:00Z</time>
      </trkpt>
      <trkpt lat="48.05176" lon="6.50441">
        <ele>473.8</ele>
        <time>2023-04-30T15:56:01Z</time>
      </trkpt>
      <trkpt lat="48.05184" lon="6.50442">
        <ele>473.6</ele>
        <time>2023-04-30T15:56:02Z</time>
      </trkpt>
      <trkpt lat="48.05191" lon="6.50442">
        <ele>473.4</ele>
        <time>2023-04-30T15:56:03Z</time>
      </trkpt>
      <trkpt lat="48.05199" lon="6.50442">
        <ele>473.2</ele>
        <time>2023-04-30T15:56:04Z</time>
      </trkpt>
      <trkpt lat="48.05206" lon="6.50443">
        <ele>473</ele>
        <time>2023-04-30T15:56:05Z</time>
      </trkpt>
      <trkpt lat="48.05214" lon="6.50443">
        <ele>472.7</ele>
        <time>2023-04-30T15:56:06Z</time>
      </trkpt>
      <trkpt lat="48.05221" lon="6.50443">
        <ele>472.5</ele>
        <time>2023-04-30T15:56:07Z</time>
      </trkpt>
      <trkpt lat="48.05228" lon="6.50444">
        <ele>472.3</ele>
        <time>2023-04-30T15:56:08Z</time>
      </trkpt>
      <trkpt lat="48.05236" lon="6.50444">
        <ele>472.1</ele>
        <time>2023-04-30T15:56:09Z</time>
      </trkpt>
      <trkpt lat="48.05244" lon="6.50444">
        <ele>471.8</ele>
        <time>2023-04-30T15:56:10Z</time>
      </trkpt>
      <trkpt lat="48.05251" lon="6.50443">
        <ele>471.6</ele>
        <time>2023-04-30T15:56:11Z</time>
      </trkpt>
      <trkpt lat="48.05259" lon="6.50442">
        <ele>471.4</ele>
        <time>2023-04-30T15:56:12Z</time>
      </trkpt>
      <trkpt lat="48.05266" lon="6.5044">
        <ele>471.2</ele>
        <time>2023-04-30T15:56:13Z</time>
      </trkpt>
      <trkpt lat="48.05273" lon="6.50436">
        <ele>471.1</ele>
        <time>2023-04-30T15:56:14Z</time>
      </trkpt>
      <trkpt lat="48.0528" lon="6.50434">
        <ele>471</ele>
        <time>2023-04-30T15:56:15Z</time>
      </trkpt>
      <trkpt lat="48.05285" lon="6.50433">
        <ele>470.9</ele>
        <time>2023-04-30T15:56:16Z</time>
      </trkpt>
      <trkpt lat="48.05291" lon="6.5043">
        <ele>470.8</ele>
        <time>2023-04-30T15:56:17Z</time>
      </trkpt>
      <trkpt lat="48.05298" lon="6.50428">
        <ele>470.7</ele>
        <time>2023-04-30T15:56:18Z</time>
      </trkpt>
      <trkpt lat="48.05304" lon="6.50427">
        <ele>470.6</ele>
        <time>2023-04-30T15:56:19Z</time>
      </trkpt>
      <trkpt lat="48.05311" lon="6.50424">
        <ele>470.4</ele>
        <time>2023-04-30T15:56:20Z</time>
      </trkpt>
      <trkpt lat="48.05317" lon="6.50422">
        <ele>470.3</ele>
        <time>2023-04-30T15:56:21Z</time>
      </trkpt>
      <trkpt lat="48.05324" lon="6.50419">
        <ele>470.2</ele>
        <time>2023-04-30T15:56:22Z</time>
      </trkpt>
      <trkpt lat="48.0533" lon="6.50416">
        <ele>470</ele>
        <time>2023-04-30T15:56:23Z</time>
      </trkpt>
      <trkpt lat="48.05337" lon="6.50413">
        <ele>469.9</ele>
        <time>2023-04-30T15:56:24Z</time>
      </trkpt>
      <trkpt lat="48.05344" lon="6.5041">
        <ele>469.8</ele>
        <time>2023-04-30T15:56:25Z</time>
      </trkpt>
      <trkpt lat="48.0535" lon="6.50407">
        <ele>469.6</ele>
        <time>2023-04-30T15:56:26Z</time>
      </trkpt>
      <trkpt lat="48.05357" lon="6.50405">
        <ele>469.5</ele>
        <time>2023-04-30T15:56:27Z</time>
      </trkpt>
      <trkpt lat="48.05364" lon="6.50402">
        <ele>469.4</ele>
        <time>2023-04-30T15:56:28Z</time>
      </trkpt>
      <trkpt lat="48.05371" lon="6.50398">
        <ele>469.2</ele>
        <time>2023-04-30T15:56:29Z</time>
      </trkpt>
      <trkpt lat="48.05378" lon="6.50395">
        <ele>469.1</ele>
        <time>2023-04-30T15:56:30Z</time>
      </trkpt>
      <trkpt lat="48.05385" lon="6.50391">
        <ele>468.9</ele>
        <time>2023-04-30T15:56:31Z</time>
      </trkpt>
      <trkpt lat="48.05393" lon="6.50386">
        <ele>468.8</ele>
        <time>2023-04-30T15:56:32Z</time>
      </trkpt>
      <trkpt lat="48.054" lon="6.50381">
        <ele>468.6</ele>
        <time>2023-04-30T15:56:33Z</time>
      </trkpt>
      <trkpt lat="48.05408" lon="6.50375">
        <ele>468.5</ele>
        <time>2023-04-30T15:56:34Z</time>
      </trkpt>
      <trkpt lat="48.05415" lon="6.50369">
        <ele>468.3</ele>
        <time>2023-04-30T15:56:35Z</time>
      </trkpt>
      <trkpt lat="48.05421" lon="6.50363">
        <ele>468.1</ele>
        <time>2023-04-30T15:56:36Z</time>
      </trkpt>
      <trkpt lat="48.05428" lon="6.50355">
        <ele>467.8</ele>
        <time>2023-04-30T15:56:37Z</time>
      </trkpt>
      <trkpt lat="48.05434" lon="6.50348">
        <ele>467.6</ele>
        <time>2023-04-30T15:56:38Z</time>
      </trkpt>
      <trkpt lat="48.05441" lon="6.5034">
        <ele>467.3</ele>
        <time>2023-04-30T15:56:39Z</time>
      </trkpt>
      <trkpt lat="48.05448" lon="6.50332">
        <ele>467.1</ele>
        <time>2023-04-30T15:56:40Z</time>
      </trkpt>
      <trkpt lat="48.05454" lon="6.50325">
        <ele>466.9</ele>
        <time>2023-04-30T15:56:41Z</time>
      </trkpt>
      <trkpt lat="48.0546" lon="6.50318">
        <ele>466.6</ele>
        <time>2023-04-30T15:56:42Z</time>
      </trkpt>
      <trkpt lat="48.05466" lon="6.50314">
        <ele>466.5</ele>
        <time>2023-04-30T15:56:43Z</time>
      </trkpt>
      <trkpt lat="48.05471" lon="6.50309">
        <ele>466.3</ele>
        <time>2023-04-30T15:56:44Z</time>
      </trkpt>
      <trkpt lat="48.05477" lon="6.50304">
        <ele>466.1</ele>
        <time>2023-04-30T15:56:45Z</time>
      </trkpt>
      <trkpt lat="48.05483" lon="6.50299">
        <ele>465.9</ele>
        <time>2023-04-30T15:56:46Z</time>
      </trkpt>
      <trkpt lat="48.0549" lon="6.50293">
        <ele>465.7</ele>
        <time>2023-04-30T15:56:47Z</time>
      </trkpt>
      <trkpt lat="48.05497" lon="6.50285">
        <ele>465.4</ele>
        <time>2023-04-30T15:56:48Z</time>
      </trkpt>
      <trkpt lat="48.05505" lon="6.50279">
        <ele>465.2</ele>
        <time>2023-04-30T15:56:49Z</time>
      </trkpt>
      <trkpt lat="48.05512" lon="6.50273">
        <ele>464.9</ele>
        <time>2023-04-30T15:56:50Z</time>
      </trkpt>
      <trkpt lat="48.0552" lon="6.50268">
        <ele>464.7</ele>
        <time>2023-04-30T15:56:51Z</time>
      </trkpt>
      <trkpt lat="48.05528" lon="6.50263">
        <ele>464.5</ele>
        <time>2023-04-30T15:56:52Z</time>
      </trkpt>
      <trkpt lat="48.05534" lon="6.50262">
        <ele>464.3</ele>
        <time>2023-04-30T15:56:53Z</time>
      </trkpt>
      <trkpt lat="48.05539" lon="6.50263">
        <ele>464.1</ele>
        <time>2023-04-30T15:56:54Z</time>
      </trkpt>
      <trkpt lat="48.05543" lon="6.50265">
        <ele>464</ele>
        <time>2023-04-30T15:56:55Z</time>
      </trkpt>
      <trkpt lat="48.05546" lon="6.50268">
        <ele>463.9</ele>
        <time>2023-04-30T15:56:56Z</time>
      </trkpt>
      <trkpt lat="48.05549" lon="6.5027">
        <ele>463.8</ele>
        <time>2023-04-30T15:56:57Z</time>
      </trkpt>
      <trkpt lat="48.0555" lon="6.50271">
        <ele>463.8</ele>
        <time>2023-04-30T15:56:58Z</time>
      </trkpt>
      <trkpt lat="48.05552" lon="6.50273">
        <ele>463.8</ele>
        <time>2023-04-30T15:56:59Z</time>
      </trkpt>
      <trkpt lat="48.05557" lon="6.50274">
        <ele>463.7</ele>
        <time>2023-04-30T15:57:00Z</time>
      </trkpt>
      <trkpt lat="48.05564" lon="6.50279">
        <ele>463.5</ele>
        <time>2023-04-30T15:57:01Z</time>
      </trkpt>
      <trkpt lat="48.05573" lon="6.50285">
        <ele>463.3</ele>
        <time>2023-04-30T15:57:02Z</time>
      </trkpt>
      <trkpt lat="48.05582" lon="6.50293">
        <ele>463</ele>
        <time>2023-04-30T15:57:03Z</time>
      </trkpt>
      <trkpt lat="48.05592" lon="6.503">
        <ele>462.7</ele>
        <time>2023-04-30T15:57:04Z</time>
      </trkpt>
      <trkpt lat="48.05605" lon="6.50306">
        <ele>462.2</ele>
        <time>2023-04-30T15:57:05Z</time>
      </trkpt>
      <trkpt lat="48.05615" lon="6.50312">
        <ele>461.9</ele>
        <time>2023-04-30T15:57:06Z</time>
      </trkpt>
      <trkpt lat="48.05624" lon="6.50315">
        <ele>461.6</ele>
        <time>2023-04-30T15:57:07Z</time>
      </trkpt>
      <trkpt lat="48.05633" lon="6.50316">
        <ele>461.3</ele>
        <time>2023-04-30T15:57:08Z</time>
      </trkpt>
      <trkpt lat="48.05642" lon="6.50318">
        <ele>461.1</ele>
        <time>2023-04-30T15:57:09Z</time>
      </trkpt>
      <trkpt lat="48.0565" lon="6.50319">
        <ele>460.8</ele>
        <time>2023-04-30T15:57:10Z</time>
      </trkpt>
      <trkpt lat="48.0566" lon="6.50319">
        <ele>460.6</ele>
        <time>2023-04-30T15:57:11Z</time>
      </trkpt>
      <trkpt lat="48.05668" lon="6.50319">
        <ele>460.4</ele>
        <time>2023-04-30T15:57:12Z</time>
      </trkpt>
      <trkpt lat="48.05677" lon="6.50321">
        <ele>460.2</ele>
        <time>2023-04-30T15:57:13Z</time>
      </trkpt>
      <trkpt lat="48.05686" lon="6.50321">
        <ele>459.9</ele>
        <time>2023-04-30T15:57:14Z</time>
      </trkpt>
      <trkpt lat="48.05695" lon="6.50324">
        <ele>459.7</ele>
        <time>2023-04-30T15:57:15Z</time>
      </trkpt>
      <trkpt lat="48.05704" lon="6.50327">
        <ele>459.4</ele>
        <time>2023-04-30T15:57:16Z</time>
      </trkpt>
      <trkpt lat="48.05713" lon="6.50329">
        <ele>459.2</ele>
        <time>2023-04-30T15:57:17Z</time>
      </trkpt>
      <trkpt lat="48.05721" lon="6.50333">
        <ele>459</ele>
        <time>2023-04-30T15:57:18Z</time>
      </trkpt>
      <trkpt lat="48.05728" lon="6.50337">
        <ele>458.8</ele>
        <time>2023-04-30T15:57:19Z</time>
      </trkpt>
      <trkpt lat="48.05736" lon="6.50342">
        <ele>458.6</ele>
        <time>2023-04-30T15:57:20Z</time>
      </trkpt>
      <trkpt lat="48.05743" lon="6.50347">
        <ele>458.4</ele>
        <time>2023-04-30T15:57:21Z</time>
      </trkpt>
      <trkpt lat="48.0575" lon="6.50353">
        <ele>458.1</ele>
        <time>2023-04-30T15:57:22Z</time>
      </trkpt>
      <trkpt lat="48.05757" lon="6.50358">
        <ele>457.9</ele>
        <time>2023-04-30T15:57:23Z</time>
      </trkpt>
      <trkpt lat="48.05763" lon="6.50365">
        <ele>457.7</ele>
        <time>2023-04-30T15:57:24Z</time>
      </trkpt>
      <trkpt lat="48.05769" lon="6.5037">
        <ele>457.5</ele>
        <time>2023-04-30T15:57:25Z</time>
      </trkpt>
      <trkpt lat="48.05775" lon="6.50376">
        <ele>457.3</ele>
        <time>2023-04-30T15:57:26Z</time>
      </trkpt>
      <trkpt lat="48.05783" lon="6.50384">
        <ele>457</ele>
        <time>2023-04-30T15:57:27Z</time>
      </trkpt>
      <trkpt lat="48.05792" lon="6.50391">
        <ele>456.7</ele>
        <time>2023-04-30T15:57:28Z</time>
      </trkpt>
      <trkpt lat="48.05801" lon="6.50396">
        <ele>456.4</ele>
        <time>2023-04-30T15:57:29Z</time>
      </trkpt>
      <trkpt lat="48.0581" lon="6.504">
        <ele>456.2</ele>
        <time>2023-04-30T15:57:30Z</time>
      </trkpt>
      <trkpt lat="48.05818" lon="6.50404">
        <ele>455.9</ele>
        <time>2023-04-30T15:57:31Z</time>
      </trkpt>
      <trkpt lat="48.05826" lon="6.50407">
        <ele>455.7</ele>
        <time>2023-04-30T15:57:32Z</time>
      </trkpt>
      <trkpt lat="48.05835" lon="6.50409">
        <ele>455.5</ele>
        <time>2023-04-30T15:57:33Z</time>
      </trkpt>
      <trkpt lat="48.05843" lon="6.50412">
        <ele>455.3</ele>
        <time>2023-04-30T15:57:34Z</time>
      </trkpt>
      <trkpt lat="48.05852" lon="6.50413">
        <ele>455</ele>
        <time>2023-04-30T15:57:35Z</time>
      </trkpt>
      <trkpt lat="48.0586" lon="6.50413">
        <ele>454.8</ele>
        <time>2023-04-30T15:57:36Z</time>
      </trkpt>
      <trkpt lat="48.05868" lon="6.50411">
        <ele>454.6</ele>
        <time>2023-04-30T15:57:37Z</time>
      </trkpt>
      <trkpt lat="48.05876" lon="6.50406">
        <ele>454.4</ele>
        <time>2023-04-30T15:57:38Z</time>
      </trkpt>
      <trkpt lat="48.05883" lon="6.504">
        <ele>454.1</ele>
        <time>2023-04-30T15:57:39Z</time>
      </trkpt>
      <trkpt lat="48.0589" lon="6.50392">
        <ele>453.8</ele>
        <time>2023-04-30T15:57:40Z</time>
      </trkpt>
      <trkpt lat="48.05895" lon="6.50383">
        <ele>453.6</ele>
        <time>2023-04-30T15:57:41Z</time>
      </trkpt>
      <trkpt lat="48.059" lon="6.50373">
        <ele>453.3</ele>
        <time>2023-04-30T15:57:42Z</time>
      </trkpt>
      <trkpt lat="48.05905" lon="6.50363">
        <ele>453.1</ele>
        <time>2023-04-30T15:57:43Z</time>
      </trkpt>
      <trkpt lat="48.05909" lon="6.50354">
        <ele>452.8</ele>
        <time>2023-04-30T15:57:44Z</time>
      </trkpt>
      <trkpt lat="48.05913" lon="6.50344">
        <ele>452.6</ele>
        <time>2023-04-30T15:57:45Z</time>
      </trkpt>
      <trkpt lat="48.05918" lon="6.50334">
        <ele>452.4</ele>
        <time>2023-04-30T15:57:46Z</time>
      </trkpt>
      <trkpt lat="48.05922" lon="6.50323">
        <ele>452.2</ele>
        <time>2023-04-30T15:57:47Z</time>
      </trkpt>
      <trkpt lat="48.05926" lon="6.50313">
        <ele>452</ele>
        <time>2023-04-30T15:57:48Z</time>
      </trkpt>
      <trkpt lat="48.05931" lon="6.50303">
        <ele>451.8</ele>
        <time>2023-04-30T15:57:49Z</time>
      </trkpt>
      <trkpt lat="48.05935" lon="6.50293">
        <ele>451.6</ele>
        <time>2023-04-30T15:57:50Z</time>
      </trkpt>
      <trkpt lat="48.05939" lon="6.50283">
        <ele>451.4</ele>
        <time>2023-04-30T15:57:51Z</time>
      </trkpt>
      <trkpt lat="48.05943" lon="6.50272">
        <ele>451.1</ele>
        <time>2023-04-30T15:57:52Z</time>
      </trkpt>
      <trkpt lat="48.05947" lon="6.50262">
        <ele>450.9</ele>
        <time>2023-04-30T15:57:53Z</time>
      </trkpt>
      <trkpt lat="48.05951" lon="6.50251">
        <ele>450.7</ele>
        <time>2023-04-30T15:57:54Z</time>
      </trkpt>
      <trkpt lat="48.05955" lon="6.5024">
        <ele>450.5</ele>
        <time>2023-04-30T15:57:55Z</time>
      </trkpt>
      <trkpt lat="48.05957" lon="6.50229">
        <ele>450.3</ele>
        <time>2023-04-30T15:57:56Z</time>
      </trkpt>
      <trkpt lat="48.05959" lon="6.50217">
        <ele>450.1</ele>
        <time>2023-04-30T15:57:57Z</time>
      </trkpt>
      <trkpt lat="48.05959" lon="6.50205">
        <ele>450</ele>
        <time>2023-04-30T15:57:58Z</time>
      </trkpt>
      <trkpt lat="48.05958" lon="6.50193">
        <ele>449.8</ele>
        <time>2023-04-30T15:57:59Z</time>
      </trkpt>
      <trkpt lat="48.05957" lon="6.50181">
        <ele>449.6</ele>
        <time>2023-04-30T15:58:00Z</time>
      </trkpt>
      <trkpt lat="48.05956" lon="6.5017">
        <ele>449.4</ele>
        <time>2023-04-30T15:58:01Z</time>
      </trkpt>
      <trkpt lat="48.05954" lon="6.50158">
        <ele>449.2</ele>
        <time>2023-04-30T15:58:02Z</time>
      </trkpt>
      <trkpt lat="48.05953" lon="6.50147">
        <ele>449</ele>
        <time>2023-04-30T15:58:03Z</time>
      </trkpt>
      <trkpt lat="48.05951" lon="6.50135">
        <ele>448.8</ele>
        <time>2023-04-30T15:58:04Z</time>
      </trkpt>
      <trkpt lat="48.0595" lon="6.50124">
        <ele>448.6</ele>
        <time>2023-04-30T15:58:05Z</time>
      </trkpt>
      <trkpt lat="48.05948" lon="6.50112">
        <ele>448.3</ele>
        <time>2023-04-30T15:58:06Z</time>
      </trkpt>
      <trkpt lat="48.05947" lon="6.501">
        <ele>448.1</ele>
        <time>2023-04-30T15:58:07Z</time>
      </trkpt>
      <trkpt lat="48.05945" lon="6.50089">
        <ele>447.9</ele>
        <time>2023-04-30T15:58:08Z</time>
      </trkpt>
      <trkpt lat="48.05943" lon="6.50077">
        <ele>447.6</ele>
        <time>2023-04-30T15:58:09Z</time>
      </trkpt>
      <trkpt lat="48.05941" lon="6.50065">
        <ele>447.4</ele>
        <time>2023-04-30T15:58:10Z</time>
      </trkpt>
      <trkpt lat="48.05939" lon="6.50053">
        <ele>447.2</ele>
        <time>2023-04-30T15:58:11Z</time>
      </trkpt>
      <trkpt lat="48.05939" lon="6.50041">
        <ele>447.1</ele>
        <time>2023-04-30T15:58:12Z</time>
      </trkpt>
      <trkpt lat="48.05939" lon="6.50029">
        <ele>447</ele>
        <time>2023-04-30T15:58:13Z</time>
      </trkpt>
      <trkpt lat="48.05941" lon="6.50017">
        <ele>446.9</ele>
        <time>2023-04-30T15:58:14Z</time>
      </trkpt>
      <trkpt lat="48.05943" lon="6.50006">
        <ele>446.8</ele>
        <time>2023-04-30T15:58:15Z</time>
      </trkpt>
      <trkpt lat="48.05947" lon="6.49996">
        <ele>446.7</ele>
        <time>2023-04-30T15:58:16Z</time>
      </trkpt>
      <trkpt lat="48.05951" lon="6.49986">
        <ele>446.6</ele>
        <time>2023-04-30T15:58:17Z</time>
      </trkpt>
      <trkpt lat="48.05955" lon="6.49977">
        <ele>446.5</ele>
        <time>2023-04-30T15:58:18Z</time>
      </trkpt>
      <trkpt lat="48.0596" lon="6.49968">
        <ele>446.4</ele>
        <time>2023-04-30T15:58:19Z</time>
      </trkpt>
      <trkpt lat="48.05964" lon="6.49959">
        <ele>446.3</ele>
        <time>2023-04-30T15:58:20Z</time>
      </trkpt>
      <trkpt lat="48.05967" lon="6.4995">
        <ele>446.2</ele>
        <time>2023-04-30T15:58:21Z</time>
      </trkpt>
      <trkpt lat="48.05971" lon="6.49941">
        <ele>446.1</ele>
        <time>2023-04-30T15:58:22Z</time>
      </trkpt>
      <trkpt lat="48.05975" lon="6.49932">
        <ele>446.1</ele>
        <time>2023-04-30T15:58:23Z</time>
      </trkpt>
      <trkpt lat="48.05979" lon="6.49923">
        <ele>446</ele>
        <time>2023-04-30T15:58:24Z</time>
      </trkpt>
      <trkpt lat="48.05983" lon="6.49914">
        <ele>445.9</ele>
        <time>2023-04-30T15:58:25Z</time>
      </trkpt>
      <trkpt lat="48.05987" lon="6.49905">
        <ele>445.9</ele>
        <time>2023-04-30T15:58:26Z</time>
      </trkpt>
      <trkpt lat="48.05991" lon="6.49896">
        <ele>445.8</ele>
        <time>2023-04-30T15:58:27Z</time>
      </trkpt>
      <trkpt lat="48.05994" lon="6.49887">
        <ele>445.7</ele>
        <time>2023-04-30T15:58:28Z</time>
      </trkpt>
      <trkpt lat="48.05998" lon="6.49878">
        <ele>445.7</ele>
        <time>2023-04-30T15:58:29Z</time>
      </trkpt>
      <trkpt lat="48.06002" lon="6.49869">
        <ele>445.7</ele>
        <time>2023-04-30T15:58:30Z</time>
      </trkpt>
      <trkpt lat="48.06005" lon="6.49859">
        <ele>445.6</ele>
        <time>2023-04-30T15:58:31Z</time>
      </trkpt>
      <trkpt lat="48.06008" lon="6.49849">
        <ele>445.6</ele>
        <time>2023-04-30T15:58:32Z</time>
      </trkpt>
      <trkpt lat="48.06009" lon="6.49839">
        <ele>445.6</ele>
        <time>2023-04-30T15:58:33Z</time>
      </trkpt>
      <trkpt lat="48.0601" lon="6.49828">
        <ele>445.6</ele>
        <time>2023-04-30T15:58:34Z</time>
      </trkpt>
      <trkpt lat="48.0601" lon="6.49817">
        <ele>445.6</ele>
        <time>2023-04-30T15:58:35Z</time>
      </trkpt>
      <trkpt lat="48.06009" lon="6.49807">
        <ele>445.6</ele>
        <time>2023-04-30T15:58:36Z</time>
      </trkpt>
      <trkpt lat="48.06008" lon="6.49796">
        <ele>445.5</ele>
        <time>2023-04-30T15:58:37Z</time>
      </trkpt>
      <trkpt lat="48.06007" lon="6.49786">
        <ele>445.5</ele>
        <time>2023-04-30T15:58:38Z</time>
      </trkpt>
      <trkpt lat="48.06005" lon="6.49776">
        <ele>445.4</ele>
        <time>2023-04-30T15:58:39Z</time>
      </trkpt>
      <trkpt lat="48.06003" lon="6.49767">
        <ele>445.4</ele>
        <time>2023-04-30T15:58:40Z</time>
      </trkpt>
      <trkpt lat="48.06001" lon="6.49757">
        <ele>445.4</ele>
        <time>2023-04-30T15:58:41Z</time>
      </trkpt>
      <trkpt lat="48.05999" lon="6.49747">
        <ele>445.3</ele>
        <time>2023-04-30T15:58:42Z</time>
      </trkpt>
      <trkpt lat="48.05996" lon="6.49738">
        <ele>445.3</ele>
        <time>2023-04-30T15:58:43Z</time>
      </trkpt>
      <trkpt lat="48.05994" lon="6.49728">
        <ele>445.2</ele>
        <time>2023-04-30T15:58:44Z</time>
      </trkpt>
      <trkpt lat="48.05992" lon="6.49719">
        <ele>445.2</ele>
        <time>2023-04-30T15:58:45Z</time>
      </trkpt>
      <trkpt lat="48.0599" lon="6.49709">
        <ele>445.1</ele>
        <time>2023-04-30T15:58:46Z</time>
      </trkpt>
      <trkpt lat="48.05988" lon="6.497">
        <ele>445.1</ele>
        <time>2023-04-30T15:58:47Z</time>
      </trkpt>
      <trkpt lat="48.05985" lon="6.4969">
        <ele>445</ele>
        <time>2023-04-30T15:58:48Z</time>
      </trkpt>
      <trkpt lat="48.05984" lon="6.49681">
        <ele>445</ele>
        <time>2023-04-30T15:58:49Z</time>
      </trkpt>
      <trkpt lat="48.05982" lon="6.49671">
        <ele>444.9</ele>
        <time>2023-04-30T15:58:50Z</time>
      </trkpt>
      <trkpt lat="48.05981" lon="6.49661">
        <ele>444.7</ele>
        <time>2023-04-30T15:58:51Z</time>
      </trkpt>
      <trkpt lat="48.05982" lon="6.49651">
        <ele>444.6</ele>
        <time>2023-04-30T15:58:52Z</time>
      </trkpt>
      <trkpt lat="48.05982" lon="6.49641">
        <ele>444.5</ele>
        <time>2023-04-30T15:58:53Z</time>
      </trkpt>
      <trkpt lat="48.05984" lon="6.4963">
        <ele>444.4</ele>
        <time>2023-04-30T15:58:54Z</time>
      </trkpt>
      <trkpt lat="48.05986" lon="6.49621">
        <ele>444.2</ele>
        <time>2023-04-30T15:58:55Z</time>
      </trkpt>
      <trkpt lat="48.05988" lon="6.4961">
        <ele>444.1</ele>
        <time>2023-04-30T15:58:56Z</time>
      </trkpt>
      <trkpt lat="48.0599" lon="6.49599">
        <ele>443.9</ele>
        <time>2023-04-30T15:58:57Z</time>
      </trkpt>
      <trkpt lat="48.05992" lon="6.49587">
        <ele>443.7</ele>
        <time>2023-04-30T15:58:58Z</time>
      </trkpt>
      <trkpt lat="48.05993" lon="6.49576">
        <ele>443.5</ele>
        <time>2023-04-30T15:58:59Z</time>
      </trkpt>
      <trkpt lat="48.05995" lon="6.49565">
        <ele>443.4</ele>
        <time>2023-04-30T15:59:00Z</time>
      </trkpt>
      <trkpt lat="48.05997" lon="6.49553">
        <ele>443.2</ele>
        <time>2023-04-30T15:59:01Z</time>
      </trkpt>
      <trkpt lat="48.05999" lon="6.49541">
        <ele>443.2</ele>
        <time>2023-04-30T15:59:02Z</time>
      </trkpt>
      <trkpt lat="48.06003" lon="6.49531">
        <ele>443.1</ele>
        <time>2023-04-30T15:59:03Z</time>
      </trkpt>
      <trkpt lat="48.06007" lon="6.49523">
        <ele>443</ele>
        <time>2023-04-30T15:59:04Z</time>
      </trkpt>
      <trkpt lat="48.06013" lon="6.49516">
        <ele>443</ele>
        <time>2023-04-30T15:59:05Z</time>
      </trkpt>
      <trkpt lat="48.0602" lon="6.4951">
        <ele>442.8</ele>
        <time>2023-04-30T15:59:06Z</time>
      </trkpt>
      <trkpt lat="48.06026" lon="6.49508">
        <ele>442.7</ele>
        <time>2023-04-30T15:59:07Z</time>
      </trkpt>
      <trkpt lat="48.06033" lon="6.49508">
        <ele>442.7</ele>
        <time>2023-04-30T15:59:08Z</time>
      </trkpt>
      <trkpt lat="48.0604" lon="6.49508">
        <ele>442.7</ele>
        <time>2023-04-30T15:59:09Z</time>
      </trkpt>
      <trkpt lat="48.06046" lon="6.4951">
        <ele>442.7</ele>
        <time>2023-04-30T15:59:10Z</time>
      </trkpt>
      <trkpt lat="48.06052" lon="6.49513">
        <ele>442.7</ele>
        <time>2023-04-30T15:59:11Z</time>
      </trkpt>
      <trkpt lat="48.06058" lon="6.49516">
        <ele>442.7</ele>
        <time>2023-04-30T15:59:12Z</time>
      </trkpt>
      <trkpt lat="48.06063" lon="6.49522">
        <ele>442.7</ele>
        <time>2023-04-30T15:59:13Z</time>
      </trkpt>
      <trkpt lat="48.06068" lon="6.49527">
        <ele>442.8</ele>
        <time>2023-04-30T15:59:14Z</time>
      </trkpt>
      <trkpt lat="48.06073" lon="6.49533">
        <ele>442.8</ele>
        <time>2023-04-30T15:59:15Z</time>
      </trkpt>
      <trkpt lat="48.06077" lon="6.49539">
        <ele>442.9</ele>
        <time>2023-04-30T15:59:16Z</time>
      </trkpt>
      <trkpt lat="48.06081" lon="6.49544">
        <ele>442.9</ele>
        <time>2023-04-30T15:59:17Z</time>
      </trkpt>
      <trkpt lat="48.06085" lon="6.49549">
        <ele>443</ele>
        <time>2023-04-30T15:59:18Z</time>
      </trkpt>
      <trkpt lat="48.0609" lon="6.49555">
        <ele>443</ele>
        <time>2023-04-30T15:59:19Z</time>
      </trkpt>
      <trkpt lat="48.06095" lon="6.49559">
        <ele>443.1</ele>
        <time>2023-04-30T15:59:20Z</time>
      </trkpt>
      <trkpt lat="48.061" lon="6.49563">
        <ele>443.1</ele>
        <time>2023-04-30T15:59:21Z</time>
      </trkpt>
      <trkpt lat="48.06105" lon="6.49566">
        <ele>443.2</ele>
        <time>2023-04-30T15:59:22Z</time>
      </trkpt>
      <trkpt lat="48.0611" lon="6.49569">
        <ele>443.2</ele>
        <time>2023-04-30T15:59:23Z</time>
      </trkpt>
      <trkpt lat="48.06115" lon="6.49571">
        <ele>443.2</ele>
        <time>2023-04-30T15:59:24Z</time>
      </trkpt>
      <trkpt lat="48.06119" lon="6.49574">
        <ele>443.2</ele>
        <time>2023-04-30T15:59:25Z</time>
      </trkpt>
      <trkpt lat="48.06123" lon="6.49575">
        <ele>443.2</ele>
        <time>2023-04-30T15:59:26Z</time>
      </trkpt>
      <trkpt lat="48.06128" lon="6.49577">
        <ele>443.1</ele>
        <time>2023-04-30T15:59:27Z</time>
      </trkpt>
      <trkpt lat="48.06132" lon="6.49578">
        <ele>443.1</ele>
        <time>2023-04-30T15:59:28Z</time>
      </trkpt>
      <trkpt lat="48.06136" lon="6.49577">
        <ele>443</ele>
        <time>2023-04-30T15:59:29Z</time>
      </trkpt>
      <trkpt lat="48.0614" lon="6.49575">
        <ele>443</ele>
        <time>2023-04-30T15:59:30Z</time>
      </trkpt>
      <trkpt lat="48.06145" lon="6.4957">
        <ele>442.9</ele>
        <time>2023-04-30T15:59:31Z</time>
      </trkpt>
      <trkpt lat="48.06148" lon="6.49564">
        <ele>443</ele>
        <time>2023-04-30T15:59:32Z</time>
      </trkpt>
      <trkpt lat="48.06153" lon="6.49559">
        <ele>443.1</ele>
        <time>2023-04-30T15:59:33Z</time>
      </trkpt>
      <trkpt lat="48.06157" lon="6.49555">
        <ele>443.1</ele>
        <time>2023-04-30T15:59:34Z</time>
      </trkpt>
      <trkpt lat="48.06161" lon="6.4955">
        <ele>443.2</ele>
        <time>2023-04-30T15:59:35Z</time>
      </trkpt>
      <trkpt lat="48.06166" lon="6.49545">
        <ele>443.2</ele>
        <time>2023-04-30T15:59:36Z</time>
      </trkpt>
      <trkpt lat="48.0617" lon="6.4954">
        <ele>443.2</ele>
        <time>2023-04-30T15:59:37Z</time>
      </trkpt>
      <trkpt lat="48.06175" lon="6.49535">
        <ele>443.2</ele>
        <time>2023-04-30T15:59:38Z</time>
      </trkpt>
      <trkpt lat="48.06179" lon="6.49529">
        <ele>443.2</ele>
        <time>2023-04-30T15:59:39Z</time>
      </trkpt>
      <trkpt lat="48.06184" lon="6.49524">
        <ele>443.3</ele>
        <time>2023-04-30T15:59:40Z</time>
      </trkpt>
      <trkpt lat="48.06189" lon="6.49519">
        <ele>443.3</ele>
        <time>2023-04-30T15:59:41Z</time>
      </trkpt>
      <trkpt lat="48.06193" lon="6.49514">
        <ele>443.3</ele>
        <time>2023-04-30T15:59:42Z</time>
      </trkpt>
      <trkpt lat="48.06198" lon="6.49509">
        <ele>443.3</ele>
        <time>2023-04-30T15:59:43Z</time>
      </trkpt>
      <trkpt lat="48.06203" lon="6.49504">
        <ele>443.3</ele>
        <time>2023-04-30T15:59:44Z</time>
      </trkpt>
      <trkpt lat="48.06207" lon="6.49498">
        <ele>443.3</ele>
        <time>2023-04-30T15:59:45Z</time>
      </trkpt>
      <trkpt lat="48.06212" lon="6.49493">
        <ele>443.3</ele>
        <time>2023-04-30T15:59:46Z</time>
      </trkpt>
      <trkpt lat="48.06217" lon="6.49488">
        <ele>443.3</ele>
        <time>2023-04-30T15:59:47Z</time>
      </trkpt>
      <trkpt lat="48.06221" lon="6.49483">
        <ele>443.3</ele>
        <time>2023-04-30T15:59:48Z</time>
      </trkpt>
      <trkpt lat="48.06226" lon="6.49477">
        <ele>443.3</ele>
        <time>2023-04-30T15:59:49Z</time>
      </trkpt>
      <trkpt lat="48.0623" lon="6.49472">
        <ele>443.2</ele>
        <time>2023-04-30T15:59:50Z</time>
      </trkpt>
      <trkpt lat="48.06235" lon="6.49467">
        <ele>443.2</ele>
        <time>2023-04-30T15:59:51Z</time>
      </trkpt>
      <trkpt lat="48.0624" lon="6.49462">
        <ele>443.2</ele>
        <time>2023-04-30T15:59:52Z</time>
      </trkpt>
      <trkpt lat="48.06244" lon="6.49457">
        <ele>443.1</ele>
        <time>2023-04-30T15:59:53Z</time>
      </trkpt>
      <trkpt lat="48.06249" lon="6.49451">
        <ele>443.1</ele>
        <time>2023-04-30T15:59:54Z</time>
      </trkpt>
      <trkpt lat="48.06253" lon="6.49446">
        <ele>443.1</ele>
        <time>2023-04-30T15:59:55Z</time>
      </trkpt>
      <trkpt lat="48.06258" lon="6.4944">
        <ele>443.1</ele>
        <time>2023-04-30T15:59:56Z</time>
      </trkpt>
      <trkpt lat="48.06263" lon="6.49435">
        <ele>443.1</ele>
        <time>2023-04-30T15:59:57Z</time>
      </trkpt>
      <trkpt lat="48.06267" lon="6.4943">
        <ele>443</ele>
        <time>2023-04-30T15:59:58Z</time>
      </trkpt>
      <trkpt lat="48.06272" lon="6.49425">
        <ele>443</ele>
        <time>2023-04-30T15:59:59Z</time>
      </trkpt>
      <trkpt lat="48.06276" lon="6.4942">
        <ele>443</ele>
        <time>2023-04-30T16:00:00Z</time>
      </trkpt>
      <trkpt lat="48.06281" lon="6.49415">
        <ele>443</ele>
        <time>2023-04-30T16:00:01Z</time>
      </trkpt>
      <trkpt lat="48.06285" lon="6.4941">
        <ele>443</ele>
        <time>2023-04-30T16:00:02Z</time>
      </trkpt>
      <trkpt lat="48.0629" lon="6.49405">
        <ele>442.9</ele>
        <time>2023-04-30T16:00:03Z</time>
      </trkpt>
      <trkpt lat="48.06295" lon="6.49399">
        <ele>442.9</ele>
        <time>2023-04-30T16:00:04Z</time>
      </trkpt>
      <trkpt lat="48.06299" lon="6.49394">
        <ele>442.9</ele>
        <time>2023-04-30T16:00:05Z</time>
      </trkpt>
      <trkpt lat="48.06304" lon="6.49389">
        <ele>442.9</ele>
        <time>2023-04-30T16:00:06Z</time>
      </trkpt>
      <trkpt lat="48.06308" lon="6.49383">
        <ele>442.8</ele>
        <time>2023-04-30T16:00:07Z</time>
      </trkpt>
      <trkpt lat="48.06313" lon="6.49378">
        <ele>442.8</ele>
        <time>2023-04-30T16:00:08Z</time>
      </trkpt>
      <trkpt lat="48.06318" lon="6.49373">
        <ele>442.8</ele>
        <time>2023-04-30T16:00:09Z</time>
      </trkpt>
      <trkpt lat="48.06323" lon="6.49367">
        <ele>442.7</ele>
        <time>2023-04-30T16:00:10Z</time>
      </trkpt>
      <trkpt lat="48.06327" lon="6.49362">
        <ele>442.7</ele>
        <time>2023-04-30T16:00:11Z</time>
      </trkpt>
      <trkpt lat="48.06332" lon="6.49356">
        <ele>442.7</ele>
        <time>2023-04-30T16:00:12Z</time>
      </trkpt>
      <trkpt lat="48.06337" lon="6.4935">
        <ele>442.6</ele>
        <time>2023-04-30T16:00:13Z</time>
      </trkpt>
      <trkpt lat="48.06341" lon="6.49345">
        <ele>442.6</ele>
        <time>2023-04-30T16:00:14Z</time>
      </trkpt>
      <trkpt lat="48.06345" lon="6.49339">
        <ele>442.6</ele>
        <time>2023-04-30T16:00:15Z</time>
      </trkpt>
      <trkpt lat="48.0635" lon="6.49333">
        <ele>442.5</ele>
        <time>2023-04-30T16:00:16Z</time>
      </trkpt>
      <trkpt lat="48.06354" lon="6.49327">
        <ele>442.5</ele>
        <time>2023-04-30T16:00:17Z</time>
      </trkpt>
      <trkpt lat="48.06358" lon="6.49321">
        <ele>442.4</ele>
        <time>2023-04-30T16:00:18Z</time>
      </trkpt>
      <trkpt lat="48.06362" lon="6.49315">
        <ele>442.4</ele>
        <time>2023-04-30T16:00:19Z</time>
      </trkpt>
      <trkpt lat="48.06367" lon="6.49308">
        <ele>442.3</ele>
        <time>2023-04-30T16:00:20Z</time>
      </trkpt>
      <trkpt lat="48.06371" lon="6.49301">
        <ele>442.3</ele>
        <time>2023-04-30T16:00:21Z</time>
      </trkpt>
      <trkpt lat="48.06376" lon="6.49295">
        <ele>442.2</ele>
        <time>2023-04-30T16:00:22Z</time>
      </trkpt>
      <trkpt lat="48.0638" lon="6.49289">
        <ele>442.2</ele>
        <time>2023-04-30T16:00:23Z</time>
      </trkpt>
      <trkpt lat="48.06384" lon="6.49283">
        <ele>442.1</ele>
        <time>2023-04-30T16:00:24Z</time>
      </trkpt>
      <trkpt lat="48.06388" lon="6.49276">
        <ele>442.1</ele>
        <time>2023-04-30T16:00:25Z</time>
      </trkpt>
      <trkpt lat="48.06393" lon="6.49269">
        <ele>442</ele>
        <time>2023-04-30T16:00:26Z</time>
      </trkpt>
      <trkpt lat="48.06397" lon="6.49262">
        <ele>441.9</ele>
        <time>2023-04-30T16:00:27Z</time>
      </trkpt>
      <trkpt lat="48.06401" lon="6.49256">
        <ele>441.8</ele>
        <time>2023-04-30T16:00:28Z</time>
      </trkpt>
      <trkpt lat="48.06406" lon="6.49249">
        <ele>441.7</ele>
        <time>2023-04-30T16:00:29Z</time>
      </trkpt>
      <trkpt lat="48.0641" lon="6.49243">
        <ele>441.6</ele>
        <time>2023-04-30T16:00:30Z</time>
      </trkpt>
      <trkpt lat="48.06414" lon="6.49236">
        <ele>441.5</ele>
        <time>2023-04-30T16:00:31Z</time>
      </trkpt>
      <trkpt lat="48.06419" lon="6.4923">
        <ele>441.4</ele>
        <time>2023-04-30T16:00:32Z</time>
      </trkpt>
      <trkpt lat="48.06423" lon="6.49223">
        <ele>441.4</ele>
        <time>2023-04-30T16:00:33Z</time>
      </trkpt>
      <trkpt lat="48.06427" lon="6.49216">
        <ele>441.3</ele>
        <time>2023-04-30T16:00:34Z</time>
      </trkpt>
      <trkpt lat="48.06432" lon="6.4921">
        <ele>441.2</ele>
        <time>2023-04-30T16:00:35Z</time>
      </trkpt>
      <trkpt lat="48.06436" lon="6.49203">
        <ele>441.1</ele>
        <time>2023-04-30T16:00:36Z</time>
      </trkpt>
      <trkpt lat="48.0644" lon="6.49197">
        <ele>441</ele>
        <time>2023-04-30T16:00:37Z</time>
      </trkpt>
      <trkpt lat="48.06445" lon="6.4919">
        <ele>441</ele>
        <time>2023-04-30T16:00:38Z</time>
      </trkpt>
      <trkpt lat="48.06449" lon="6.49183">
        <ele>440.9</ele>
        <time>2023-04-30T16:00:39Z</time>
      </trkpt>
      <trkpt lat="48.06453" lon="6.49177">
        <ele>440.9</ele>
        <time>2023-04-30T16:00:40Z</time>
      </trkpt>
      <trkpt lat="48.06458" lon="6.4917">
        <ele>440.8</ele>
        <time>2023-04-30T16:00:41Z</time>
      </trkpt>
      <trkpt lat="48.06462" lon="6.49163">
        <ele>440.8</ele>
        <time>2023-04-30T16:00:42Z</time>
      </trkpt>
      <trkpt lat="48.06466" lon="6.49157">
        <ele>440.7</ele>
        <time>2023-04-30T16:00:43Z</time>
      </trkpt>
      <trkpt lat="48.06471" lon="6.4915">
        <ele>440.7</ele>
        <time>2023-04-30T16:00:44Z</time>
      </trkpt>
      <trkpt lat="48.06475" lon="6.49144">
        <ele>440.6</ele>
        <time>2023-04-30T16:00:45Z</time>
      </trkpt>
      <trkpt lat="48.0648" lon="6.49137">
        <ele>440.6</ele>
        <time>2023-04-30T16:00:46Z</time>
      </trkpt>
      <trkpt lat="48.06484" lon="6.49131">
        <ele>440.5</ele>
        <time>2023-04-30T16:00:47Z</time>
      </trkpt>
      <trkpt lat="48.06489" lon="6.49124">
        <ele>440.5</ele>
        <time>2023-04-30T16:00:48Z</time>
      </trkpt>
      <trkpt lat="48.06493" lon="6.49117">
        <ele>440.4</ele>
        <time>2023-04-30T16:00:49Z</time>
      </trkpt>
      <trkpt lat="48.06497" lon="6.4911">
        <ele>440.4</ele>
        <time>2023-04-30T16:00:50Z</time>
      </trkpt>
      <trkpt lat="48.06502" lon="6.49104">
        <ele>440.3</ele>
        <time>2023-04-30T16:00:51Z</time>
      </trkpt>
      <trkpt lat="48.06506" lon="6.49098">
        <ele>440.2</ele>
        <time>2023-04-30T16:00:52Z</time>
      </trkpt>
      <trkpt lat="48.06511" lon="6.49091">
        <ele>440.2</ele>
        <time>2023-04-30T16:00:53Z</time>
      </trkpt>
      <trkpt lat="48.06514" lon="6.49085">
        <ele>440.1</ele>
        <time>2023-04-30T16:00:54Z</time>
      </trkpt>
      <trkpt lat="48.06518" lon="6.49078">
        <ele>440</ele>
        <time>2023-04-30T16:00:55Z</time>
      </trkpt>
      <trkpt lat="48.06523" lon="6.49071">
        <ele>440</ele>
        <time>2023-04-30T16:00:56Z</time>
      </trkpt>
      <trkpt lat="48.06526" lon="6.49064">
        <ele>439.9</ele>
        <time>2023-04-30T16:00:57Z</time>
      </trkpt>
      <trkpt lat="48.0653" lon="6.49057">
        <ele>439.9</ele>
        <time>2023-04-30T16:00:58Z</time>
      </trkpt>
      <trkpt lat="48.06535" lon="6.4905">
        <ele>439.8</ele>
        <time>2023-04-30T16:00:59Z</time>
      </trkpt>
      <trkpt lat="48.0654" lon="6.49042">
        <ele>439.7</ele>
        <time>2023-04-30T16:01:00Z</time>
      </trkpt>
      <trkpt lat="48.06545" lon="6.49033">
        <ele>439.7</ele>
        <time>2023-04-30T16:01:01Z</time>
      </trkpt>
      <trkpt lat="48.06549" lon="6.49025">
        <ele>439.6</ele>
        <time>2023-04-30T16:01:02Z</time>
      </trkpt>
      <trkpt lat="48.06553" lon="6.49017">
        <ele>439.5</ele>
        <time>2023-04-30T16:01:03Z</time>
      </trkpt>
      <trkpt lat="48.06556" lon="6.49008">
        <ele>439.5</ele>
        <time>2023-04-30T16:01:04Z</time>
      </trkpt>
      <trkpt lat="48.06559" lon="6.49">
        <ele>439.4</ele>
        <time>2023-04-30T16:01:05Z</time>
      </trkpt>
      <trkpt lat="48.06562" lon="6.48991">
        <ele>439.4</ele>
        <time>2023-04-30T16:01:06Z</time>
      </trkpt>
      <trkpt lat="48.06565" lon="6.48981">
        <ele>439.3</ele>
        <time>2023-04-30T16:01:07Z</time>
      </trkpt>
      <trkpt lat="48.06567" lon="6.48972">
        <ele>439.2</ele>
        <time>2023-04-30T16:01:08Z</time>
      </trkpt>
      <trkpt lat="48.0657" lon="6.48963">
        <ele>439.1</ele>
        <time>2023-04-30T16:01:09Z</time>
      </trkpt>
      <trkpt lat="48.06572" lon="6.48953">
        <ele>439</ele>
        <time>2023-04-30T16:01:10Z</time>
      </trkpt>
      <trkpt lat="48.06575" lon="6.48943">
        <ele>438.9</ele>
        <time>2023-04-30T16:01:11Z</time>
      </trkpt>
      <trkpt lat="48.06577" lon="6.48934">
        <ele>438.8</ele>
        <time>2023-04-30T16:01:12Z</time>
      </trkpt>
      <trkpt lat="48.06579" lon="6.48924">
        <ele>438.6</ele>
        <time>2023-04-30T16:01:13Z</time>
      </trkpt>
      <trkpt lat="48.06582" lon="6.48914">
        <ele>438.5</ele>
        <time>2023-04-30T16:01:14Z</time>
      </trkpt>
      <trkpt lat="48.06585" lon="6.48903">
        <ele>438.4</ele>
        <time>2023-04-30T16:01:15Z</time>
      </trkpt>
      <trkpt lat="48.06587" lon="6.48893">
        <ele>438.3</ele>
        <time>2023-04-30T16:01:16Z</time>
      </trkpt>
      <trkpt lat="48.06589" lon="6.48883">
        <ele>438.1</ele>
        <time>2023-04-30T16:01:17Z</time>
      </trkpt>
      <trkpt lat="48.06592" lon="6.48872">
        <ele>437.9</ele>
        <time>2023-04-30T16:01:18Z</time>
      </trkpt>
      <trkpt lat="48.06594" lon="6.48862">
        <ele>437.8</ele>
        <time>2023-04-30T16:01:19Z</time>
      </trkpt>
      <trkpt lat="48.06596" lon="6.48851">
        <ele>437.7</ele>
        <time>2023-04-30T16:01:20Z</time>
      </trkpt>
      <trkpt lat="48.06599" lon="6.48841">
        <ele>437.6</ele>
        <time>2023-04-30T16:01:21Z</time>
      </trkpt>
      <trkpt lat="48.06602" lon="6.48831">
        <ele>437.5</ele>
        <time>2023-04-30T16:01:22Z</time>
      </trkpt>
      <trkpt lat="48.06604" lon="6.48821">
        <ele>437.3</ele>
        <time>2023-04-30T16:01:23Z</time>
      </trkpt>
      <trkpt lat="48.06606" lon="6.48812">
        <ele>437.2</ele>
        <time>2023-04-30T16:01:24Z</time>
      </trkpt>
      <trkpt lat="48.06608" lon="6.48802">
        <ele>437.1</ele>
        <time>2023-04-30T16:01:25Z</time>
      </trkpt>
      <trkpt lat="48.0661" lon="6.48792">
        <ele>436.9</ele>
        <time>2023-04-30T16:01:26Z</time>
      </trkpt>
      <trkpt lat="48.06612" lon="6.48781">
        <ele>436.8</ele>
        <time>2023-04-30T16:01:27Z</time>
      </trkpt>
      <trkpt lat="48.06613" lon="6.4877">
        <ele>436.6</ele>
        <time>2023-04-30T16:01:28Z</time>
      </trkpt>
      <trkpt lat="48.06614" lon="6.48759">
        <ele>436.5</ele>
        <time>2023-04-30T16:01:29Z</time>
      </trkpt>
      <trkpt lat="48.06615" lon="6.48749">
        <ele>436.4</ele>
        <time>2023-04-30T16:01:30Z</time>
      </trkpt>
      <trkpt lat="48.06616" lon="6.48738">
        <ele>436.2</ele>
        <time>2023-04-30T16:01:31Z</time>
      </trkpt>
      <trkpt lat="48.06619" lon="6.48727">
        <ele>436.1</ele>
        <time>2023-04-30T16:01:32Z</time>
      </trkpt>
      <trkpt lat="48.06621" lon="6.48716">
        <ele>435.9</ele>
        <time>2023-04-30T16:01:33Z</time>
      </trkpt>
      <trkpt lat="48.06624" lon="6.48707">
        <ele>435.8</ele>
        <time>2023-04-30T16:01:34Z</time>
      </trkpt>
      <trkpt lat="48.06626" lon="6.48697">
        <ele>435.6</ele>
        <time>2023-04-30T16:01:35Z</time>
      </trkpt>
      <trkpt lat="48.0663" lon="6.48688">
        <ele>435.5</ele>
        <time>2023-04-30T16:01:36Z</time>
      </trkpt>
      <trkpt lat="48.06633" lon="6.48679">
        <ele>435.4</ele>
        <time>2023-04-30T16:01:37Z</time>
      </trkpt>
      <trkpt lat="48.06635" lon="6.4867">
        <ele>435.4</ele>
        <time>2023-04-30T16:01:38Z</time>
      </trkpt>
      <trkpt lat="48.06638" lon="6.4866">
        <ele>435.3</ele>
        <time>2023-04-30T16:01:39Z</time>
      </trkpt>
      <trkpt lat="48.06641" lon="6.4865">
        <ele>435.2</ele>
        <time>2023-04-30T16:01:40Z</time>
      </trkpt>
      <trkpt lat="48.06644" lon="6.48644">
        <ele>435.1</ele>
        <time>2023-04-30T16:01:41Z</time>
      </trkpt>
      <trkpt lat="48.06647" lon="6.48638">
        <ele>435</ele>
        <time>2023-04-30T16:01:42Z</time>
      </trkpt>
      <trkpt lat="48.06651" lon="6.48629">
        <ele>434.9</ele>
        <time>2023-04-30T16:01:43Z</time>
      </trkpt>
      <trkpt lat="48.06653" lon="6.48619">
        <ele>434.8</ele>
        <time>2023-04-30T16:01:44Z</time>
      </trkpt>
      <trkpt lat="48.06657" lon="6.4861">
        <ele>434.7</ele>
        <time>2023-04-30T16:01:45Z</time>
      </trkpt>
      <trkpt lat="48.0666" lon="6.486">
        <ele>434.6</ele>
        <time>2023-04-30T16:01:46Z</time>
      </trkpt>
      <trkpt lat="48.06662" lon="6.48591">
        <ele>434.5</ele>
        <time>2023-04-30T16:01:47Z</time>
      </trkpt>
      <trkpt lat="48.06665" lon="6.48581">
        <ele>434.5</ele>
        <time>2023-04-30T16:01:48Z</time>
      </trkpt>
      <trkpt lat="48.06668" lon="6.4857">
        <ele>434.4</ele>
        <time>2023-04-30T16:01:49Z</time>
      </trkpt>
      <trkpt lat="48.06672" lon="6.4856">
        <ele>434.3</ele>
        <time>2023-04-30T16:01:50Z</time>
      </trkpt>
      <trkpt lat="48.06675" lon="6.4855">
        <ele>434.2</ele>
        <time>2023-04-30T16:01:51Z</time>
      </trkpt>
      <trkpt lat="48.06678" lon="6.48539">
        <ele>434.1</ele>
        <time>2023-04-30T16:01:52Z</time>
      </trkpt>
      <trkpt lat="48.06682" lon="6.4853">
        <ele>434</ele>
        <time>2023-04-30T16:01:53Z</time>
      </trkpt>
      <trkpt lat="48.06686" lon="6.48521">
        <ele>433.9</ele>
        <time>2023-04-30T16:01:54Z</time>
      </trkpt>
      <trkpt lat="48.06691" lon="6.48512">
        <ele>433.8</ele>
        <time>2023-04-30T16:01:55Z</time>
      </trkpt>
      <trkpt lat="48.06696" lon="6.48502">
        <ele>433.7</ele>
        <time>2023-04-30T16:01:56Z</time>
      </trkpt>
      <trkpt lat="48.06702" lon="6.48493">
        <ele>433.6</ele>
        <time>2023-04-30T16:01:57Z</time>
      </trkpt>
      <trkpt lat="48.06707" lon="6.48485">
        <ele>433.5</ele>
        <time>2023-04-30T16:01:58Z</time>
      </trkpt>
      <trkpt lat="48.06713" lon="6.48477">
        <ele>433.4</ele>
        <time>2023-04-30T16:01:59Z</time>
      </trkpt>
      <trkpt lat="48.06719" lon="6.4847">
        <ele>433.3</ele>
        <time>2023-04-30T16:02:00Z</time>
      </trkpt>
      <trkpt lat="48.06725" lon="6.48462">
        <ele>433.2</ele>
        <time>2023-04-30T16:02:01Z</time>
      </trkpt>
      <trkpt lat="48.06731" lon="6.48455">
        <ele>433.1</ele>
        <time>2023-04-30T16:02:02Z</time>
      </trkpt>
      <trkpt lat="48.06738" lon="6.48447">
        <ele>432.9</ele>
        <time>2023-04-30T16:02:03Z</time>
      </trkpt>
      <trkpt lat="48.06744" lon="6.4844">
        <ele>432.7</ele>
        <time>2023-04-30T16:02:04Z</time>
      </trkpt>
      <trkpt lat="48.0675" lon="6.48434">
        <ele>432.5</ele>
        <time>2023-04-30T16:02:05Z</time>
      </trkpt>
      <trkpt lat="48.06756" lon="6.48427">
        <ele>432.3</ele>
        <time>2023-04-30T16:02:06Z</time>
      </trkpt>
      <trkpt lat="48.06762" lon="6.4842">
        <ele>432.1</ele>
        <time>2023-04-30T16:02:07Z</time>
      </trkpt>
      <trkpt lat="48.06768" lon="6.48413">
        <ele>431.9</ele>
        <time>2023-04-30T16:02:08Z</time>
      </trkpt>
      <trkpt lat="48.06775" lon="6.48406">
        <ele>431.7</ele>
        <time>2023-04-30T16:02:09Z</time>
      </trkpt>
      <trkpt lat="48.06781" lon="6.48399">
        <ele>431.5</ele>
        <time>2023-04-30T16:02:10Z</time>
      </trkpt>
      <trkpt lat="48.06787" lon="6.48392">
        <ele>431.4</ele>
        <time>2023-04-30T16:02:11Z</time>
      </trkpt>
      <trkpt lat="48.06793" lon="6.48386">
        <ele>431.2</ele>
        <time>2023-04-30T16:02:12Z</time>
      </trkpt>
      <trkpt lat="48.06799" lon="6.48379">
        <ele>431.1</ele>
        <time>2023-04-30T16:02:13Z</time>
      </trkpt>
      <trkpt lat="48.06804" lon="6.48372">
        <ele>430.9</ele>
        <time>2023-04-30T16:02:14Z</time>
      </trkpt>
      <trkpt lat="48.06811" lon="6.48365">
        <ele>430.8</ele>
        <time>2023-04-30T16:02:15Z</time>
      </trkpt>
      <trkpt lat="48.06817" lon="6.48358">
        <ele>430.6</ele>
        <time>2023-04-30T16:02:16Z</time>
      </trkpt>
      <trkpt lat="48.06823" lon="6.48351">
        <ele>430.5</ele>
        <time>2023-04-30T16:02:17Z</time>
      </trkpt>
      <trkpt lat="48.06828" lon="6.48346">
        <ele>430.4</ele>
        <time>2023-04-30T16:02:18Z</time>
      </trkpt>
      <trkpt lat="48.06834" lon="6.48341">
        <ele>430.3</ele>
        <time>2023-04-30T16:02:19Z</time>
      </trkpt>
      <trkpt lat="48.06839" lon="6.48337">
        <ele>430.2</ele>
        <time>2023-04-30T16:02:20Z</time>
      </trkpt>
      <trkpt lat="48.06844" lon="6.48332">
        <ele>430.1</ele>
        <time>2023-04-30T16:02:21Z</time>
      </trkpt>
      <trkpt lat="48.06851" lon="6.48325">
        <ele>430</ele>
        <time>2023-04-30T16:02:22Z</time>
      </trkpt>
      <trkpt lat="48.06857" lon="6.48318">
        <ele>429.9</ele>
        <time>2023-04-30T16:02:23Z</time>
      </trkpt>
      <trkpt lat="48.06863" lon="6.48311">
        <ele>429.8</ele>
        <time>2023-04-30T16:02:24Z</time>
      </trkpt>
      <trkpt lat="48.06869" lon="6.48304">
        <ele>429.6</ele>
        <time>2023-04-30T16:02:25Z</time>
      </trkpt>
      <trkpt lat="48.06876" lon="6.48297">
        <ele>429.4</ele>
        <time>2023-04-30T16:02:26Z</time>
      </trkpt>
      <trkpt lat="48.06882" lon="6.4829">
        <ele>429.2</ele>
        <time>2023-04-30T16:02:27Z</time>
      </trkpt>
      <trkpt lat="48.06889" lon="6.48282">
        <ele>428.9</ele>
        <time>2023-04-30T16:02:28Z</time>
      </trkpt>
      <trkpt lat="48.06895" lon="6.48274">
        <ele>428.6</ele>
        <time>2023-04-30T16:02:29Z</time>
      </trkpt>
      <trkpt lat="48.06902" lon="6.48267">
        <ele>428.2</ele>
        <time>2023-04-30T16:02:30Z</time>
      </trkpt>
      <trkpt lat="48.06908" lon="6.48259">
        <ele>427.9</ele>
        <time>2023-04-30T16:02:31Z</time>
      </trkpt>
      <trkpt lat="48.06915" lon="6.48252">
        <ele>427.6</ele>
        <time>2023-04-30T16:02:32Z</time>
      </trkpt>
      <trkpt lat="48.06921" lon="6.48244">
        <ele>427.3</ele>
        <time>2023-04-30T16:02:33Z</time>
      </trkpt>
      <trkpt lat="48.06927" lon="6.48237">
        <ele>426.9</ele>
        <time>2023-04-30T16:02:34Z</time>
      </trkpt>
      <trkpt lat="48.06934" lon="6.4823">
        <ele>426.6</ele>
        <time>2023-04-30T16:02:35Z</time>
      </trkpt>
      <trkpt lat="48.0694" lon="6.48223">
        <ele>426.3</ele>
        <time>2023-04-30T16:02:36Z</time>
      </trkpt>
      <trkpt lat="48.06947" lon="6.48216">
        <ele>425.9</ele>
        <time>2023-04-30T16:02:37Z</time>
      </trkpt>
      <trkpt lat="48.06954" lon="6.48209">
        <ele>425.5</ele>
        <time>2023-04-30T16:02:38Z</time>
      </trkpt>
      <trkpt lat="48.06961" lon="6.48202">
        <ele>425.1</ele>
        <time>2023-04-30T16:02:39Z</time>
      </trkpt>
      <trkpt lat="48.06968" lon="6.48195">
        <ele>424.7</ele>
        <time>2023-04-30T16:02:40Z</time>
      </trkpt>
      <trkpt lat="48.06974" lon="6.4819">
        <ele>424.3</ele>
        <time>2023-04-30T16:02:41Z</time>
      </trkpt>
      <trkpt lat="48.06981" lon="6.48184">
        <ele>424</ele>
        <time>2023-04-30T16:02:42Z</time>
      </trkpt>
      <trkpt lat="48.06988" lon="6.48179">
        <ele>423.5</ele>
        <time>2023-04-30T16:02:43Z</time>
      </trkpt>
      <trkpt lat="48.06996" lon="6.48174">
        <ele>423.1</ele>
        <time>2023-04-30T16:02:44Z</time>
      </trkpt>
      <trkpt lat="48.07004" lon="6.4817">
        <ele>422.7</ele>
        <time>2023-04-30T16:02:45Z</time>
      </trkpt>
      <trkpt lat="48.07012" lon="6.48164">
        <ele>422.3</ele>
        <time>2023-04-30T16:02:46Z</time>
      </trkpt>
      <trkpt lat="48.0702" lon="6.48159">
        <ele>421.9</ele>
        <time>2023-04-30T16:02:47Z</time>
      </trkpt>
      <trkpt lat="48.07028" lon="6.48154">
        <ele>421.6</ele>
        <time>2023-04-30T16:02:48Z</time>
      </trkpt>
      <trkpt lat="48.07035" lon="6.48149">
        <ele>421.2</ele>
        <time>2023-04-30T16:02:49Z</time>
      </trkpt>
      <trkpt lat="48.07043" lon="6.48145">
        <ele>420.9</ele>
        <time>2023-04-30T16:02:50Z</time>
      </trkpt>
      <trkpt lat="48.0705" lon="6.4814">
        <ele>420.6</ele>
        <time>2023-04-30T16:02:51Z</time>
      </trkpt>
      <trkpt lat="48.07057" lon="6.48135">
        <ele>420.3</ele>
        <time>2023-04-30T16:02:52Z</time>
      </trkpt>
      <trkpt lat="48.07064" lon="6.4813">
        <ele>420</ele>
        <time>2023-04-30T16:02:53Z</time>
      </trkpt>
      <trkpt lat="48.07071" lon="6.48125">
        <ele>419.6</ele>
        <time>2023-04-30T16:02:54Z</time>
      </trkpt>
      <trkpt lat="48.07078" lon="6.48119">
        <ele>419.3</ele>
        <time>2023-04-30T16:02:55Z</time>
      </trkpt>
      <trkpt lat="48.07086" lon="6.48114">
        <ele>419</ele>
        <time>2023-04-30T16:02:56Z</time>
      </trkpt>
      <trkpt lat="48.07093" lon="6.4811">
        <ele>418.7</ele>
        <time>2023-04-30T16:02:57Z</time>
      </trkpt>
      <trkpt lat="48.071" lon="6.48106">
        <ele>418.4</ele>
        <time>2023-04-30T16:02:58Z</time>
      </trkpt>
      <trkpt lat="48.07108" lon="6.48102">
        <ele>418.1</ele>
        <time>2023-04-30T16:02:59Z</time>
      </trkpt>
      <trkpt lat="48.07115" lon="6.48098">
        <ele>417.8</ele>
        <time>2023-04-30T16:03:00Z</time>
      </trkpt>
      <trkpt lat="48.07121" lon="6.48094">
        <ele>417.4</ele>
        <time>2023-04-30T16:03:01Z</time>
      </trkpt>
      <trkpt lat="48.07128" lon="6.4809">
        <ele>417.1</ele>
        <time>2023-04-30T16:03:02Z</time>
      </trkpt>
      <trkpt lat="48.07135" lon="6.48086">
        <ele>416.8</ele>
        <time>2023-04-30T16:03:03Z</time>
      </trkpt>
      <trkpt lat="48.07142" lon="6.48081">
        <ele>416.5</ele>
        <time>2023-04-30T16:03:04Z</time>
      </trkpt>
      <trkpt lat="48.0715" lon="6.48076">
        <ele>416.2</ele>
        <time>2023-04-30T16:03:05Z</time>
      </trkpt>
      <trkpt lat="48.07157" lon="6.48072">
        <ele>415.9</ele>
        <time>2023-04-30T16:03:06Z</time>
      </trkpt>
      <trkpt lat="48.07164" lon="6.48067">
        <ele>415.6</ele>
        <time>2023-04-30T16:03:07Z</time>
      </trkpt>
      <trkpt lat="48.07172" lon="6.48062">
        <ele>415.3</ele>
        <time>2023-04-30T16:03:08Z</time>
      </trkpt>
      <trkpt lat="48.0718" lon="6.48057">
        <ele>415</ele>
        <time>2023-04-30T16:03:09Z</time>
      </trkpt>
      <trkpt lat="48.07187" lon="6.48052">
        <ele>414.7</ele>
        <time>2023-04-30T16:03:10Z</time>
      </trkpt>
      <trkpt lat="48.07196" lon="6.48048">
        <ele>414.4</ele>
        <time>2023-04-30T16:03:11Z</time>
      </trkpt>
      <trkpt lat="48.07204" lon="6.48044">
        <ele>414.1</ele>
        <time>2023-04-30T16:03:12Z</time>
      </trkpt>
      <trkpt lat="48.07212" lon="6.4804">
        <ele>413.7</ele>
        <time>2023-04-30T16:03:13Z</time>
      </trkpt>
      <trkpt lat="48.07221" lon="6.48037">
        <ele>413.4</ele>
        <time>2023-04-30T16:03:14Z</time>
      </trkpt>
      <trkpt lat="48.07229" lon="6.48035">
        <ele>413.1</ele>
        <time>2023-04-30T16:03:15Z</time>
      </trkpt>
      <trkpt lat="48.07238" lon="6.48034">
        <ele>412.8</ele>
        <time>2023-04-30T16:03:16Z</time>
      </trkpt>
      <trkpt lat="48.07247" lon="6.48032">
        <ele>412.5</ele>
        <time>2023-04-30T16:03:17Z</time>
      </trkpt>
      <trkpt lat="48.07255" lon="6.48032">
        <ele>412.3</ele>
        <time>2023-04-30T16:03:18Z</time>
      </trkpt>
      <trkpt lat="48.07264" lon="6.48031">
        <ele>412.1</ele>
        <time>2023-04-30T16:03:19Z</time>
      </trkpt>
      <trkpt lat="48.07273" lon="6.48029">
        <ele>411.9</ele>
        <time>2023-04-30T16:03:20Z</time>
      </trkpt>
      <trkpt lat="48.07283" lon="6.48027">
        <ele>411.5</ele>
        <time>2023-04-30T16:03:21Z</time>
      </trkpt>
      <trkpt lat="48.07292" lon="6.48025">
        <ele>411.1</ele>
        <time>2023-04-30T16:03:22Z</time>
      </trkpt>
      <trkpt lat="48.07301" lon="6.48023">
        <ele>410.8</ele>
        <time>2023-04-30T16:03:23Z</time>
      </trkpt>
      <trkpt lat="48.0731" lon="6.48022">
        <ele>410.5</ele>
        <time>2023-04-30T16:03:24Z</time>
      </trkpt>
      <trkpt lat="48.07319" lon="6.4802">
        <ele>410.3</ele>
        <time>2023-04-30T16:03:25Z</time>
      </trkpt>
      <trkpt lat="48.07327" lon="6.4802">
        <ele>410.1</ele>
        <time>2023-04-30T16:03:26Z</time>
      </trkpt>
      <trkpt lat="48.07335" lon="6.48018">
        <ele>409.9</ele>
        <time>2023-04-30T16:03:27Z</time>
      </trkpt>
      <trkpt lat="48.07343" lon="6.48017">
        <ele>409.8</ele>
        <time>2023-04-30T16:03:28Z</time>
      </trkpt>
      <trkpt lat="48.07351" lon="6.48016">
        <ele>409.8</ele>
        <time>2023-04-30T16:03:29Z</time>
      </trkpt>
      <trkpt lat="48.07359" lon="6.48014">
        <ele>409.7</ele>
        <time>2023-04-30T16:03:30Z</time>
      </trkpt>
      <trkpt lat="48.07367" lon="6.48013">
        <ele>409.7</ele>
        <time>2023-04-30T16:03:31Z</time>
      </trkpt>
      <trkpt lat="48.07375" lon="6.48012">
        <ele>409.6</ele>
        <time>2023-04-30T16:03:32Z</time>
      </trkpt>
      <trkpt lat="48.07383" lon="6.48011">
        <ele>409.6</ele>
        <time>2023-04-30T16:03:33Z</time>
      </trkpt>
      <trkpt lat="48.0739" lon="6.48009">
        <ele>409.6</ele>
        <time>2023-04-30T16:03:34Z</time>
      </trkpt>
      <trkpt lat="48.07398" lon="6.48009">
        <ele>409.6</ele>
        <time>2023-04-30T16:03:35Z</time>
      </trkpt>
      <trkpt lat="48.07404" lon="6.48007">
        <ele>409.6</ele>
        <time>2023-04-30T16:03:36Z</time>
      </trkpt>
      <trkpt lat="48.07411" lon="6.48006">
        <ele>409.6</ele>
        <time>2023-04-30T16:03:37Z</time>
      </trkpt>
      <trkpt lat="48.07418" lon="6.48006">
        <ele>409.6</ele>
        <time>2023-04-30T16:03:38Z</time>
      </trkpt>
      <trkpt lat="48.07425" lon="6.48005">
        <ele>409.6</ele>
        <time>2023-04-30T16:03:39Z</time>
      </trkpt>
      <trkpt lat="48.07432" lon="6.48004">
        <ele>409.6</ele>
        <time>2023-04-30T16:03:40Z</time>
      </trkpt>
      <trkpt lat="48.07439" lon="6.48003">
        <ele>409.6</ele>
        <time>2023-04-30T16:03:41Z</time>
      </trkpt>
      <trkpt lat="48.07446" lon="6.48002">
        <ele>409.6</ele>
        <time>2023-04-30T16:03:42Z</time>
      </trkpt>
      <trkpt lat="48.07452" lon="6.48">
        <ele>409.6</ele>
        <time>2023-04-30T16:03:43Z</time>
      </trkpt>
      <trkpt lat="48.07459" lon="6.47999">
        <ele>409.6</ele>
        <time>2023-04-30T16:03:44Z</time>
      </trkpt>
      <trkpt lat="48.07466" lon="6.47999">
        <ele>409.6</ele>
        <time>2023-04-30T16:03:45Z</time>
      </trkpt>
      <trkpt lat="48.07472" lon="6.47998">
        <ele>409.6</ele>
        <time>2023-04-30T16:03:46Z</time>
      </trkpt>
      <trkpt lat="48.07479" lon="6.47997">
        <ele>409.5</ele>
        <time>2023-04-30T16:03:47Z</time>
      </trkpt>
      <trkpt lat="48.07486" lon="6.47995">
        <ele>409.5</ele>
        <time>2023-04-30T16:03:48Z</time>
      </trkpt>
      <trkpt lat="48.07492" lon="6.47994">
        <ele>409.5</ele>
        <time>2023-04-30T16:03:49Z</time>
      </trkpt>
      <trkpt lat="48.07499" lon="6.47994">
        <ele>409.4</ele>
        <time>2023-04-30T16:03:50Z</time>
      </trkpt>
      <trkpt lat="48.07505" lon="6.47993">
        <ele>409.4</ele>
        <time>2023-04-30T16:03:51Z</time>
      </trkpt>
      <trkpt lat="48.07512" lon="6.47992">
        <ele>409.3</ele>
        <time>2023-04-30T16:03:52Z</time>
      </trkpt>
      <trkpt lat="48.07518" lon="6.47991">
        <ele>409.2</ele>
        <time>2023-04-30T16:03:53Z</time>
      </trkpt>
      <trkpt lat="48.07525" lon="6.4799">
        <ele>409.2</ele>
        <time>2023-04-30T16:03:54Z</time>
      </trkpt>
      <trkpt lat="48.07531" lon="6.4799">
        <ele>409.1</ele>
        <time>2023-04-30T16:03:55Z</time>
      </trkpt>
      <trkpt lat="48.07538" lon="6.47988">
        <ele>409.1</ele>
        <time>2023-04-30T16:03:56Z</time>
      </trkpt>
      <trkpt lat="48.07544" lon="6.47988">
        <ele>409</ele>
        <time>2023-04-30T16:03:57Z</time>
      </trkpt>
      <trkpt lat="48.07551" lon="6.47987">
        <ele>408.9</ele>
        <time>2023-04-30T16:03:58Z</time>
      </trkpt>
      <trkpt lat="48.07558" lon="6.47986">
        <ele>408.7</ele>
        <time>2023-04-30T16:03:59Z</time>
      </trkpt>
      <trkpt lat="48.07564" lon="6.47986">
        <ele>408.6</ele>
        <time>2023-04-30T16:04:00Z</time>
      </trkpt>
      <trkpt lat="48.07571" lon="6.47986">
        <ele>408.4</ele>
        <time>2023-04-30T16:04:01Z</time>
      </trkpt>
      <trkpt lat="48.07579" lon="6.47986">
        <ele>408.1</ele>
        <time>2023-04-30T16:04:02Z</time>
      </trkpt>
      <trkpt lat="48.07586" lon="6.47985">
        <ele>407.8</ele>
        <time>2023-04-30T16:04:03Z</time>
      </trkpt>
      <trkpt lat="48.07593" lon="6.47985">
        <ele>407.5</ele>
        <time>2023-04-30T16:04:04Z</time>
      </trkpt>
      <trkpt lat="48.076" lon="6.47986">
        <ele>407.2</ele>
        <time>2023-04-30T16:04:05Z</time>
      </trkpt>
      <trkpt lat="48.07608" lon="6.47986">
        <ele>406.9</ele>
        <time>2023-04-30T16:04:06Z</time>
      </trkpt>
      <trkpt lat="48.07615" lon="6.47988">
        <ele>406.6</ele>
        <time>2023-04-30T16:04:07Z</time>
      </trkpt>
      <trkpt lat="48.07623" lon="6.4799">
        <ele>406.3</ele>
        <time>2023-04-30T16:04:08Z</time>
      </trkpt>
      <trkpt lat="48.0763" lon="6.47992">
        <ele>405.9</ele>
        <time>2023-04-30T16:04:09Z</time>
      </trkpt>
      <trkpt lat="48.07638" lon="6.47994">
        <ele>405.6</ele>
        <time>2023-04-30T16:04:10Z</time>
      </trkpt>
      <trkpt lat="48.07646" lon="6.47996">
        <ele>405.2</ele>
        <time>2023-04-30T16:04:11Z</time>
      </trkpt>
      <trkpt lat="48.07654" lon="6.47999">
        <ele>404.9</ele>
        <time>2023-04-30T16:04:12Z</time>
      </trkpt>
      <trkpt lat="48.07662" lon="6.48001">
        <ele>404.5</ele>
        <time>2023-04-30T16:04:13Z</time>
      </trkpt>
      <trkpt lat="48.07671" lon="6.48003">
        <ele>404.1</ele>
        <time>2023-04-30T16:04:14Z</time>
      </trkpt>
      <trkpt lat="48.07679" lon="6.48006">
        <ele>403.7</ele>
        <time>2023-04-30T16:04:15Z</time>
      </trkpt>
      <trkpt lat="48.07688" lon="6.48008">
        <ele>403.4</ele>
        <time>2023-04-30T16:04:16Z</time>
      </trkpt>
      <trkpt lat="48.07697" lon="6.48011">
        <ele>403</ele>
        <time>2023-04-30T16:04:17Z</time>
      </trkpt>
      <trkpt lat="48.07706" lon="6.48013">
        <ele>402.6</ele>
        <time>2023-04-30T16:04:18Z</time>
      </trkpt>
      <trkpt lat="48.07715" lon="6.48015">
        <ele>402.3</ele>
        <time>2023-04-30T16:04:19Z</time>
      </trkpt>
      <trkpt lat="48.07723" lon="6.48018">
        <ele>401.9</ele>
        <time>2023-04-30T16:04:20Z</time>
      </trkpt>
      <trkpt lat="48.07732" lon="6.48021">
        <ele>401.6</ele>
        <time>2023-04-30T16:04:21Z</time>
      </trkpt>
      <trkpt lat="48.0774" lon="6.48024">
        <ele>401.3</ele>
        <time>2023-04-30T16:04:22Z</time>
      </trkpt>
      <trkpt lat="48.07749" lon="6.48027">
        <ele>401</ele>
        <time>2023-04-30T16:04:23Z</time>
      </trkpt>
      <trkpt lat="48.07757" lon="6.48029">
        <ele>400.8</ele>
        <time>2023-04-30T16:04:24Z</time>
      </trkpt>
      <trkpt lat="48.07765" lon="6.48032">
        <ele>400.6</ele>
        <time>2023-04-30T16:04:25Z</time>
      </trkpt>
      <trkpt lat="48.07774" lon="6.48034">
        <ele>400.4</ele>
        <time>2023-04-30T16:04:26Z</time>
      </trkpt>
      <trkpt lat="48.07782" lon="6.48037">
        <ele>400.2</ele>
        <time>2023-04-30T16:04:27Z</time>
      </trkpt>
      <trkpt lat="48.0779" lon="6.48039">
        <ele>400.1</ele>
        <time>2023-04-30T16:04:28Z</time>
      </trkpt>
      <trkpt lat="48.07798" lon="6.48042">
        <ele>400</ele>
        <time>2023-04-30T16:04:29Z</time>
      </trkpt>
      <trkpt lat="48.07806" lon="6.48045">
        <ele>400</ele>
        <time>2023-04-30T16:04:30Z</time>
      </trkpt>
      <trkpt lat="48.07814" lon="6.48047">
        <ele>400.1</ele>
        <time>2023-04-30T16:04:31Z</time>
      </trkpt>
      <trkpt lat="48.07821" lon="6.48049">
        <ele>400.1</ele>
        <time>2023-04-30T16:04:32Z</time>
      </trkpt>
      <trkpt lat="48.07828" lon="6.48051">
        <ele>400.2</ele>
        <time>2023-04-30T16:04:33Z</time>
      </trkpt>
      <trkpt lat="48.07834" lon="6.48053">
        <ele>400.3</ele>
        <time>2023-04-30T16:04:34Z</time>
      </trkpt>
      <trkpt lat="48.0784" lon="6.48055">
        <ele>400.4</ele>
        <time>2023-04-30T16:04:35Z</time>
      </trkpt>
      <trkpt lat="48.07846" lon="6.48057">
        <ele>400.4</ele>
        <time>2023-04-30T16:04:36Z</time>
      </trkpt>
      <trkpt lat="48.07853" lon="6.48059">
        <ele>400.4</ele>
        <time>2023-04-30T16:04:37Z</time>
      </trkpt>
      <trkpt lat="48.07859" lon="6.4806">
        <ele>400.5</ele>
        <time>2023-04-30T16:04:38Z</time>
      </trkpt>
      <trkpt lat="48.07865" lon="6.48063">
        <ele>400.5</ele>
        <time>2023-04-30T16:04:39Z</time>
      </trkpt>
      <trkpt lat="48.07871" lon="6.48064">
        <ele>400.6</ele>
        <time>2023-04-30T16:04:40Z</time>
      </trkpt>
      <trkpt lat="48.07877" lon="6.48066">
        <ele>400.6</ele>
        <time>2023-04-30T16:04:41Z</time>
      </trkpt>
      <trkpt lat="48.07883" lon="6.48068">
        <ele>400.7</ele>
        <time>2023-04-30T16:04:42Z</time>
      </trkpt>
      <trkpt lat="48.07889" lon="6.4807">
        <ele>400.8</ele>
        <time>2023-04-30T16:04:43Z</time>
      </trkpt>
      <trkpt lat="48.07895" lon="6.48072">
        <ele>400.8</ele>
        <time>2023-04-30T16:04:44Z</time>
      </trkpt>
      <trkpt lat="48.07901" lon="6.48074">
        <ele>400.9</ele>
        <time>2023-04-30T16:04:45Z</time>
      </trkpt>
      <trkpt lat="48.07907" lon="6.48076">
        <ele>400.9</ele>
        <time>2023-04-30T16:04:46Z</time>
      </trkpt>
      <trkpt lat="48.07913" lon="6.48078">
        <ele>401</ele>
        <time>2023-04-30T16:04:47Z</time>
      </trkpt>
      <trkpt lat="48.07919" lon="6.48079">
        <ele>401</ele>
        <time>2023-04-30T16:04:48Z</time>
      </trkpt>
      <trkpt lat="48.07925" lon="6.48081">
        <ele>401.1</ele>
        <time>2023-04-30T16:04:49Z</time>
      </trkpt>
      <trkpt lat="48.07931" lon="6.48084">
        <ele>401.1</ele>
        <time>2023-04-30T16:04:50Z</time>
      </trkpt>
      <trkpt lat="48.07937" lon="6.48086">
        <ele>401.2</ele>
        <time>2023-04-30T16:04:51Z</time>
      </trkpt>
      <trkpt lat="48.07943" lon="6.48088">
        <ele>401.3</ele>
        <time>2023-04-30T16:04:52Z</time>
      </trkpt>
      <trkpt lat="48.0795" lon="6.4809">
        <ele>401.4</ele>
        <time>2023-04-30T16:04:53Z</time>
      </trkpt>
      <trkpt lat="48.07956" lon="6.48091">
        <ele>401.5</ele>
        <time>2023-04-30T16:04:54Z</time>
      </trkpt>
      <trkpt lat="48.07961" lon="6.48093">
        <ele>401.5</ele>
        <time>2023-04-30T16:04:55Z</time>
      </trkpt>
      <trkpt lat="48.07967" lon="6.48095">
        <ele>401.6</ele>
        <time>2023-04-30T16:04:56Z</time>
      </trkpt>
      <trkpt lat="48.07972" lon="6.48097">
        <ele>401.7</ele>
        <time>2023-04-30T16:04:57Z</time>
      </trkpt>
      <trkpt lat="48.07977" lon="6.48099">
        <ele>401.8</ele>
        <time>2023-04-30T16:04:58Z</time>
      </trkpt>
      <trkpt lat="48.07984" lon="6.481">
        <ele>401.9</ele>
        <time>2023-04-30T16:04:59Z</time>
      </trkpt>
      <trkpt lat="48.0799" lon="6.48102">
        <ele>402</ele>
        <time>2023-04-30T16:05:00Z</time>
      </trkpt>
      <trkpt lat="48.07996" lon="6.48102">
        <ele>402.1</ele>
        <time>2023-04-30T16:05:01Z</time>
      </trkpt>
      <trkpt lat="48.08002" lon="6.48102">
        <ele>402.2</ele>
        <time>2023-04-30T16:05:02Z</time>
      </trkpt>
      <trkpt lat="48.08008" lon="6.48101">
        <ele>402.3</ele>
        <time>2023-04-30T16:05:03Z</time>
      </trkpt>
      <trkpt lat="48.08014" lon="6.48099">
        <ele>402.4</ele>
        <time>2023-04-30T16:05:04Z</time>
      </trkpt>
      <trkpt lat="48.08019" lon="6.48096">
        <ele>402.5</ele>
        <time>2023-04-30T16:05:05Z</time>
      </trkpt>
      <trkpt lat="48.08024" lon="6.48093">
        <ele>402.6</ele>
        <time>2023-04-30T16:05:06Z</time>
      </trkpt>
      <trkpt lat="48.0803" lon="6.48089">
        <ele>402.7</ele>
        <time>2023-04-30T16:05:07Z</time>
      </trkpt>
      <trkpt lat="48.08035" lon="6.48086">
        <ele>402.8</ele>
        <time>2023-04-30T16:05:08Z</time>
      </trkpt>
      <trkpt lat="48.0804" lon="6.48082">
        <ele>403</ele>
        <time>2023-04-30T16:05:09Z</time>
      </trkpt>
      <trkpt lat="48.08044" lon="6.48078">
        <ele>403.1</ele>
        <time>2023-04-30T16:05:10Z</time>
      </trkpt>
      <trkpt lat="48.08049" lon="6.48074">
        <ele>403.3</ele>
        <time>2023-04-30T16:05:11Z</time>
      </trkpt>
      <trkpt lat="48.08054" lon="6.4807">
        <ele>403.4</ele>
        <time>2023-04-30T16:05:12Z</time>
      </trkpt>
      <trkpt lat="48.08058" lon="6.48068">
        <ele>403.5</ele>
        <time>2023-04-30T16:05:13Z</time>
      </trkpt>
      <trkpt lat="48.08063" lon="6.48065">
        <ele>403.6</ele>
        <time>2023-04-30T16:05:14Z</time>
      </trkpt>
      <trkpt lat="48.08067" lon="6.48061">
        <ele>403.8</ele>
        <time>2023-04-30T16:05:15Z</time>
      </trkpt>
      <trkpt lat="48.08072" lon="6.48057">
        <ele>403.9</ele>
        <time>2023-04-30T16:05:16Z</time>
      </trkpt>
      <trkpt lat="48.08077" lon="6.48055">
        <ele>404</ele>
        <time>2023-04-30T16:05:17Z</time>
      </trkpt>
      <trkpt lat="48.08081" lon="6.48052">
        <ele>404.1</ele>
        <time>2023-04-30T16:05:18Z</time>
      </trkpt>
      <trkpt lat="48.08086" lon="6.48048">
        <ele>404.2</ele>
        <time>2023-04-30T16:05:19Z</time>
      </trkpt>
      <trkpt lat="48.08091" lon="6.48044">
        <ele>404.3</ele>
        <time>2023-04-30T16:05:20Z</time>
      </trkpt>
      <trkpt lat="48.08095" lon="6.4804">
        <ele>404.4</ele>
        <time>2023-04-30T16:05:21Z</time>
      </trkpt>
      <trkpt lat="48.081" lon="6.48036">
        <ele>404.4</ele>
        <time>2023-04-30T16:05:22Z</time>
      </trkpt>
      <trkpt lat="48.08104" lon="6.48033">
        <ele>404.5</ele>
        <time>2023-04-30T16:05:23Z</time>
      </trkpt>
      <trkpt lat="48.08109" lon="6.48028">
        <ele>404.5</ele>
        <time>2023-04-30T16:05:24Z</time>
      </trkpt>
      <trkpt lat="48.08113" lon="6.48023">
        <ele>404.6</ele>
        <time>2023-04-30T16:05:25Z</time>
      </trkpt>
      <trkpt lat="48.08117" lon="6.48018">
        <ele>404.6</ele>
        <time>2023-04-30T16:05:26Z</time>
      </trkpt>
      <trkpt lat="48.08122" lon="6.48014">
        <ele>404.6</ele>
        <time>2023-04-30T16:05:27Z</time>
      </trkpt>
      <trkpt lat="48.08126" lon="6.4801">
        <ele>404.6</ele>
        <time>2023-04-30T16:05:28Z</time>
      </trkpt>
      <trkpt lat="48.0813" lon="6.48005">
        <ele>404.5</ele>
        <time>2023-04-30T16:05:29Z</time>
      </trkpt>
      <trkpt lat="48.08134" lon="6.48">
        <ele>404.5</ele>
        <time>2023-04-30T16:05:30Z</time>
      </trkpt>
      <trkpt lat="48.08138" lon="6.47995">
        <ele>404.3</ele>
        <time>2023-04-30T16:05:31Z</time>
      </trkpt>
      <trkpt lat="48.08143" lon="6.4799">
        <ele>404.2</ele>
        <time>2023-04-30T16:05:32Z</time>
      </trkpt>
      <trkpt lat="48.08147" lon="6.47984">
        <ele>404</ele>
        <time>2023-04-30T16:05:33Z</time>
      </trkpt>
      <trkpt lat="48.08153" lon="6.47979">
        <ele>403.7</ele>
        <time>2023-04-30T16:05:34Z</time>
      </trkpt>
      <trkpt lat="48.08158" lon="6.47973">
        <ele>403.4</ele>
        <time>2023-04-30T16:05:35Z</time>
      </trkpt>
      <trkpt lat="48.08164" lon="6.47967">
        <ele>403.1</ele>
        <time>2023-04-30T16:05:36Z</time>
      </trkpt>
      <trkpt lat="48.08169" lon="6.47961">
        <ele>402.8</ele>
        <time>2023-04-30T16:05:37Z</time>
      </trkpt>
      <trkpt lat="48.08175" lon="6.47954">
        <ele>402.4</ele>
        <time>2023-04-30T16:05:38Z</time>
      </trkpt>
      <trkpt lat="48.08181" lon="6.47946">
        <ele>402</ele>
        <time>2023-04-30T16:05:39Z</time>
      </trkpt>
      <trkpt lat="48.08187" lon="6.47939">
        <ele>401.6</ele>
        <time>2023-04-30T16:05:40Z</time>
      </trkpt>
      <trkpt lat="48.08195" lon="6.47933">
        <ele>401.2</ele>
        <time>2023-04-30T16:05:41Z</time>
      </trkpt>
      <trkpt lat="48.08202" lon="6.4793">
        <ele>400.8</ele>
        <time>2023-04-30T16:05:42Z</time>
      </trkpt>
      <trkpt lat="48.08209" lon="6.47928">
        <ele>400.5</ele>
        <time>2023-04-30T16:05:43Z</time>
      </trkpt>
      <trkpt lat="48.08217" lon="6.47926">
        <ele>400.1</ele>
        <time>2023-04-30T16:05:44Z</time>
      </trkpt>
      <trkpt lat="48.08225" lon="6.47924">
        <ele>399.7</ele>
        <time>2023-04-30T16:05:45Z</time>
      </trkpt>
      <trkpt lat="48.08233" lon="6.47922">
        <ele>399.4</ele>
        <time>2023-04-30T16:05:46Z</time>
      </trkpt>
      <trkpt lat="48.0824" lon="6.4792">
        <ele>399.2</ele>
        <time>2023-04-30T16:05:47Z</time>
      </trkpt>
      <trkpt lat="48.08248" lon="6.47918">
        <ele>399</ele>
        <time>2023-04-30T16:05:48Z</time>
      </trkpt>
      <trkpt lat="48.08256" lon="6.47917">
        <ele>398.9</ele>
        <time>2023-04-30T16:05:49Z</time>
      </trkpt>
      <trkpt lat="48.08264" lon="6.47915">
        <ele>398.8</ele>
        <time>2023-04-30T16:05:50Z</time>
      </trkpt>
      <trkpt lat="48.08272" lon="6.47914">
        <ele>398.8</ele>
        <time>2023-04-30T16:05:51Z</time>
      </trkpt>
      <trkpt lat="48.0828" lon="6.47913">
        <ele>398.9</ele>
        <time>2023-04-30T16:05:52Z</time>
      </trkpt>
      <trkpt lat="48.08287" lon="6.47914">
        <ele>399</ele>
        <time>2023-04-30T16:05:53Z</time>
      </trkpt>
      <trkpt lat="48.08295" lon="6.47915">
        <ele>399.2</ele>
        <time>2023-04-30T16:05:54Z</time>
      </trkpt>
      <trkpt lat="48.08302" lon="6.47916">
        <ele>399.4</ele>
        <time>2023-04-30T16:05:55Z</time>
      </trkpt>
      <trkpt lat="48.08309" lon="6.47917">
        <ele>399.7</ele>
        <time>2023-04-30T16:05:56Z</time>
      </trkpt>
      <trkpt lat="48.08315" lon="6.4792">
        <ele>400</ele>
        <time>2023-04-30T16:05:57Z</time>
      </trkpt>
      <trkpt lat="48.08322" lon="6.47922">
        <ele>400.3</ele>
        <time>2023-04-30T16:05:58Z</time>
      </trkpt>
      <trkpt lat="48.08328" lon="6.47923">
        <ele>400.6</ele>
        <time>2023-04-30T16:05:59Z</time>
      </trkpt>
      <trkpt lat="48.08333" lon="6.47925">
        <ele>400.9</ele>
        <time>2023-04-30T16:06:00Z</time>
      </trkpt>
      <trkpt lat="48.08339" lon="6.47928">
        <ele>401.3</ele>
        <time>2023-04-30T16:06:01Z</time>
      </trkpt>
      <trkpt lat="48.08345" lon="6.47929">
        <ele>401.7</ele>
        <time>2023-04-30T16:06:02Z</time>
      </trkpt>
      <trkpt lat="48.0835" lon="6.47931">
        <ele>402</ele>
        <time>2023-04-30T16:06:03Z</time>
      </trkpt>
      <trkpt lat="48.08356" lon="6.47932">
        <ele>402.4</ele>
        <time>2023-04-30T16:06:04Z</time>
      </trkpt>
      <trkpt lat="48.08362" lon="6.47931">
        <ele>402.8</ele>
        <time>2023-04-30T16:06:05Z</time>
      </trkpt>
      <trkpt lat="48.08367" lon="6.47932">
        <ele>403.2</ele>
        <time>2023-04-30T16:06:06Z</time>
      </trkpt>
      <trkpt lat="48.08374" lon="6.47932">
        <ele>403.7</ele>
        <time>2023-04-30T16:06:07Z</time>
      </trkpt>
      <trkpt lat="48.0838" lon="6.47932">
        <ele>404.1</ele>
        <time>2023-04-30T16:06:08Z</time>
      </trkpt>
      <trkpt lat="48.08385" lon="6.47932">
        <ele>404.5</ele>
        <time>2023-04-30T16:06:09Z</time>
      </trkpt>
      <trkpt lat="48.08391" lon="6.47931">
        <ele>404.9</ele>
        <time>2023-04-30T16:06:10Z</time>
      </trkpt>
      <trkpt lat="48.08397" lon="6.47932">
        <ele>405.3</ele>
        <time>2023-04-30T16:06:11Z</time>
      </trkpt>
      <trkpt lat="48.08403" lon="6.47933">
        <ele>405.7</ele>
        <time>2023-04-30T16:06:12Z</time>
      </trkpt>
      <trkpt lat="48.08409" lon="6.47934">
        <ele>406.1</ele>
        <time>2023-04-30T16:06:13Z</time>
      </trkpt>
      <trkpt lat="48.08415" lon="6.47934">
        <ele>406.6</ele>
        <time>2023-04-30T16:06:14Z</time>
      </trkpt>
      <trkpt lat="48.08421" lon="6.47934">
        <ele>407</ele>
        <time>2023-04-30T16:06:15Z</time>
      </trkpt>
      <trkpt lat="48.08427" lon="6.47934">
        <ele>407.4</ele>
        <time>2023-04-30T16:06:16Z</time>
      </trkpt>
      <trkpt lat="48.08433" lon="6.47934">
        <ele>407.9</ele>
        <time>2023-04-30T16:06:17Z</time>
      </trkpt>
      <trkpt lat="48.08439" lon="6.47934">
        <ele>408.3</ele>
        <time>2023-04-30T16:06:18Z</time>
      </trkpt>
      <trkpt lat="48.08445" lon="6.47934">
        <ele>408.7</ele>
        <time>2023-04-30T16:06:19Z</time>
      </trkpt>
      <trkpt lat="48.08451" lon="6.47935">
        <ele>409.1</ele>
        <time>2023-04-30T16:06:20Z</time>
      </trkpt>
      <trkpt lat="48.08456" lon="6.47935">
        <ele>409.5</ele>
        <time>2023-04-30T16:06:21Z</time>
      </trkpt>
      <trkpt lat="48.08462" lon="6.47935">
        <ele>409.8</ele>
        <time>2023-04-30T16:06:22Z</time>
      </trkpt>
      <trkpt lat="48.08468" lon="6.47934">
        <ele>410.2</ele>
        <time>2023-04-30T16:06:23Z</time>
      </trkpt>
      <trkpt lat="48.08474" lon="6.47933">
        <ele>410.6</ele>
        <time>2023-04-30T16:06:24Z</time>
      </trkpt>
      <trkpt lat="48.0848" lon="6.47931">
        <ele>410.9</ele>
        <time>2023-04-30T16:06:25Z</time>
      </trkpt>
      <trkpt lat="48.08486" lon="6.47928">
        <ele>411.2</ele>
        <time>2023-04-30T16:06:26Z</time>
      </trkpt>
      <trkpt lat="48.08491" lon="6.47925">
        <ele>411.6</ele>
        <time>2023-04-30T16:06:27Z</time>
      </trkpt>
      <trkpt lat="48.08497" lon="6.47923">
        <ele>411.8</ele>
        <time>2023-04-30T16:06:28Z</time>
      </trkpt>
      <trkpt lat="48.08502" lon="6.4792">
        <ele>412</ele>
        <time>2023-04-30T16:06:29Z</time>
      </trkpt>
      <trkpt lat="48.08506" lon="6.47917">
        <ele>412.2</ele>
        <time>2023-04-30T16:06:30Z</time>
      </trkpt>
      <trkpt lat="48.0851" lon="6.47912">
        <ele>412.5</ele>
        <time>2023-04-30T16:06:31Z</time>
      </trkpt>
      <trkpt lat="48.08514" lon="6.47908">
        <ele>412.7</ele>
        <time>2023-04-30T16:06:32Z</time>
      </trkpt>
      <trkpt lat="48.08518" lon="6.47904">
        <ele>412.8</ele>
        <time>2023-04-30T16:06:33Z</time>
      </trkpt>
      <trkpt lat="48.08522" lon="6.479">
        <ele>413</ele>
        <time>2023-04-30T16:06:34Z</time>
      </trkpt>
      <trkpt lat="48.08526" lon="6.47895">
        <ele>413.2</ele>
        <time>2023-04-30T16:06:35Z</time>
      </trkpt>
      <trkpt lat="48.0853" lon="6.47891">
        <ele>413.3</ele>
        <time>2023-04-30T16:06:36Z</time>
      </trkpt>
      <trkpt lat="48.08534" lon="6.47887">
        <ele>413.4</ele>
        <time>2023-04-30T16:06:37Z</time>
      </trkpt>
      <trkpt lat="48.08538" lon="6.47882">
        <ele>413.5</ele>
        <time>2023-04-30T16:06:38Z</time>
      </trkpt>
      <trkpt lat="48.08541" lon="6.47878">
        <ele>413.6</ele>
        <time>2023-04-30T16:06:39Z</time>
      </trkpt>
      <trkpt lat="48.08545" lon="6.47873">
        <ele>413.7</ele>
        <time>2023-04-30T16:06:40Z</time>
      </trkpt>
      <trkpt lat="48.08549" lon="6.47869">
        <ele>413.7</ele>
        <time>2023-04-30T16:06:41Z</time>
      </trkpt>
      <trkpt lat="48.08552" lon="6.47864">
        <ele>413.7</ele>
        <time>2023-04-30T16:06:42Z</time>
      </trkpt>
      <trkpt lat="48.08556" lon="6.4786">
        <ele>413.7</ele>
        <time>2023-04-30T16:06:43Z</time>
      </trkpt>
      <trkpt lat="48.0856" lon="6.47855">
        <ele>413.7</ele>
        <time>2023-04-30T16:06:44Z</time>
      </trkpt>
      <trkpt lat="48.08563" lon="6.4785">
        <ele>413.7</ele>
        <time>2023-04-30T16:06:45Z</time>
      </trkpt>
      <trkpt lat="48.08567" lon="6.47845">
        <ele>413.7</ele>
        <time>2023-04-30T16:06:46Z</time>
      </trkpt>
      <trkpt lat="48.0857" lon="6.4784">
        <ele>413.6</ele>
        <time>2023-04-30T16:06:47Z</time>
      </trkpt>
      <trkpt lat="48.08574" lon="6.47836">
        <ele>413.6</ele>
        <time>2023-04-30T16:06:48Z</time>
      </trkpt>
      <trkpt lat="48.08577" lon="6.47831">
        <ele>413.6</ele>
        <time>2023-04-30T16:06:49Z</time>
      </trkpt>
      <trkpt lat="48.0858" lon="6.47826">
        <ele>413.5</ele>
        <time>2023-04-30T16:06:50Z</time>
      </trkpt>
      <trkpt lat="48.08584" lon="6.47822">
        <ele>413.5</ele>
        <time>2023-04-30T16:06:51Z</time>
      </trkpt>
      <trkpt lat="48.08587" lon="6.47817">
        <ele>413.4</ele>
        <time>2023-04-30T16:06:52Z</time>
      </trkpt>
      <trkpt lat="48.08591" lon="6.47812">
        <ele>413.3</ele>
        <time>2023-04-30T16:06:53Z</time>
      </trkpt>
      <trkpt lat="48.08595" lon="6.47807">
        <ele>413.2</ele>
        <time>2023-04-30T16:06:54Z</time>
      </trkpt>
      <trkpt lat="48.08599" lon="6.47802">
        <ele>413.1</ele>
        <time>2023-04-30T16:06:55Z</time>
      </trkpt>
      <trkpt lat="48.08602" lon="6.47796">
        <ele>413.1</ele>
        <time>2023-04-30T16:06:56Z</time>
      </trkpt>
      <trkpt lat="48.08606" lon="6.47791">
        <ele>413</ele>
        <time>2023-04-30T16:06:57Z</time>
      </trkpt>
      <trkpt lat="48.0861" lon="6.47786">
        <ele>412.9</ele>
        <time>2023-04-30T16:06:58Z</time>
      </trkpt>
      <trkpt lat="48.08614" lon="6.47781">
        <ele>412.8</ele>
        <time>2023-04-30T16:06:59Z</time>
      </trkpt>
      <trkpt lat="48.08618" lon="6.47777">
        <ele>412.8</ele>
        <time>2023-04-30T16:07:00Z</time>
      </trkpt>
      <trkpt lat="48.08622" lon="6.47771">
        <ele>412.7</ele>
        <time>2023-04-30T16:07:01Z</time>
      </trkpt>
      <trkpt lat="48.08626" lon="6.47766">
        <ele>412.6</ele>
        <time>2023-04-30T16:07:02Z</time>
      </trkpt>
      <trkpt lat="48.0863" lon="6.47761">
        <ele>412.6</ele>
        <time>2023-04-30T16:07:03Z</time>
      </trkpt>
      <trkpt lat="48.08633" lon="6.47756">
        <ele>412.5</ele>
        <time>2023-04-30T16:07:04Z</time>
      </trkpt>
      <trkpt lat="48.08637" lon="6.4775">
        <ele>412.5</ele>
        <time>2023-04-30T16:07:05Z</time>
      </trkpt>
      <trkpt lat="48.08641" lon="6.47745">
        <ele>412.4</ele>
        <time>2023-04-30T16:07:06Z</time>
      </trkpt>
      <trkpt lat="48.08645" lon="6.4774">
        <ele>412.4</ele>
        <time>2023-04-30T16:07:07Z</time>
      </trkpt>
      <trkpt lat="48.08648" lon="6.47734">
        <ele>412.4</ele>
        <time>2023-04-30T16:07:08Z</time>
      </trkpt>
      <trkpt lat="48.08652" lon="6.47729">
        <ele>412.4</ele>
        <time>2023-04-30T16:07:09Z</time>
      </trkpt>
      <trkpt lat="48.08656" lon="6.47724">
        <ele>412.4</ele>
        <time>2023-04-30T16:07:10Z</time>
      </trkpt>
      <trkpt lat="48.0866" lon="6.47718">
        <ele>412.4</ele>
        <time>2023-04-30T16:07:11Z</time>
      </trkpt>
      <trkpt lat="48.08664" lon="6.47713">
        <ele>412.5</ele>
        <time>2023-04-30T16:07:12Z</time>
      </trkpt>
      <trkpt lat="48.08668" lon="6.47708">
        <ele>412.5</ele>
        <time>2023-04-30T16:07:13Z</time>
      </trkpt>
      <trkpt lat="48.08671" lon="6.47702">
        <ele>412.5</ele>
        <time>2023-04-30T16:07:14Z</time>
      </trkpt>
      <trkpt lat="48.08675" lon="6.47697">
        <ele>412.5</ele>
        <time>2023-04-30T16:07:15Z</time>
      </trkpt>
      <trkpt lat="48.08679" lon="6.47691">
        <ele>412.5</ele>
        <time>2023-04-30T16:07:16Z</time>
      </trkpt>
      <trkpt lat="48.08683" lon="6.47685">
        <ele>412.5</ele>
        <time>2023-04-30T16:07:17Z</time>
      </trkpt>
      <trkpt lat="48.08687" lon="6.4768">
        <ele>412.5</ele>
        <time>2023-04-30T16:07:18Z</time>
      </trkpt>
      <trkpt lat="48.08691" lon="6.47675">
        <ele>412.5</ele>
        <time>2023-04-30T16:07:19Z</time>
      </trkpt>
      <trkpt lat="48.08695" lon="6.4767">
        <ele>412.6</ele>
        <time>2023-04-30T16:07:20Z</time>
      </trkpt>
      <trkpt lat="48.08699" lon="6.47667">
        <ele>412.6</ele>
        <time>2023-04-30T16:07:21Z</time>
      </trkpt>
      <trkpt lat="48.08702" lon="6.47662">
        <ele>412.6</ele>
        <time>2023-04-30T16:07:22Z</time>
      </trkpt>
      <trkpt lat="48.08706" lon="6.47658">
        <ele>412.6</ele>
        <time>2023-04-30T16:07:23Z</time>
      </trkpt>
      <trkpt lat="48.0871" lon="6.47653">
        <ele>412.6</ele>
        <time>2023-04-30T16:07:24Z</time>
      </trkpt>
      <trkpt lat="48.08714" lon="6.47648">
        <ele>412.7</ele>
        <time>2023-04-30T16:07:25Z</time>
      </trkpt>
      <trkpt lat="48.08718" lon="6.47643">
        <ele>412.7</ele>
        <time>2023-04-30T16:07:26Z</time>
      </trkpt>
      <trkpt lat="48.08723" lon="6.47639">
        <ele>412.8</ele>
        <time>2023-04-30T16:07:27Z</time>
      </trkpt>
      <trkpt lat="48.08727" lon="6.47634">
        <ele>412.8</ele>
        <time>2023-04-30T16:07:28Z</time>
      </trkpt>
      <trkpt lat="48.08731" lon="6.4763">
        <ele>412.9</ele>
        <time>2023-04-30T16:07:29Z</time>
      </trkpt>
      <trkpt lat="48.08735" lon="6.47625">
        <ele>412.9</ele>
        <time>2023-04-30T16:07:30Z</time>
      </trkpt>
      <trkpt lat="48.08738" lon="6.47621">
        <ele>412.9</ele>
        <time>2023-04-30T16:07:31Z</time>
      </trkpt>
      <trkpt lat="48.08742" lon="6.47617">
        <ele>412.9</ele>
        <time>2023-04-30T16:07:32Z</time>
      </trkpt>
      <trkpt lat="48.08746" lon="6.47612">
        <ele>412.9</ele>
        <time>2023-04-30T16:07:33Z</time>
      </trkpt>
      <trkpt lat="48.0875" lon="6.47607">
        <ele>413</ele>
        <time>2023-04-30T16:07:34Z</time>
      </trkpt>
      <trkpt lat="48.08753" lon="6.47603">
        <ele>413</ele>
        <time>2023-04-30T16:07:35Z</time>
      </trkpt>
      <trkpt lat="48.08757" lon="6.47598">
        <ele>412.9</ele>
        <time>2023-04-30T16:07:36Z</time>
      </trkpt>
      <trkpt lat="48.08761" lon="6.47593">
        <ele>412.9</ele>
        <time>2023-04-30T16:07:37Z</time>
      </trkpt>
      <trkpt lat="48.08765" lon="6.47589">
        <ele>412.9</ele>
        <time>2023-04-30T16:07:38Z</time>
      </trkpt>
      <trkpt lat="48.08769" lon="6.47584">
        <ele>412.8</ele>
        <time>2023-04-30T16:07:39Z</time>
      </trkpt>
      <trkpt lat="48.08772" lon="6.47579">
        <ele>412.7</ele>
        <time>2023-04-30T16:07:40Z</time>
      </trkpt>
      <trkpt lat="48.08775" lon="6.47573">
        <ele>412.6</ele>
        <time>2023-04-30T16:07:41Z</time>
      </trkpt>
      <trkpt lat="48.08779" lon="6.47568">
        <ele>412.4</ele>
        <time>2023-04-30T16:07:42Z</time>
      </trkpt>
      <trkpt lat="48.08782" lon="6.47563">
        <ele>412.3</ele>
        <time>2023-04-30T16:07:43Z</time>
      </trkpt>
      <trkpt lat="48.08786" lon="6.47557">
        <ele>412.1</ele>
        <time>2023-04-30T16:07:44Z</time>
      </trkpt>
      <trkpt lat="48.0879" lon="6.47552">
        <ele>411.9</ele>
        <time>2023-04-30T16:07:45Z</time>
      </trkpt>
      <trkpt lat="48.08793" lon="6.47546">
        <ele>411.7</ele>
        <time>2023-04-30T16:07:46Z</time>
      </trkpt>
      <trkpt lat="48.08798" lon="6.4754">
        <ele>411.5</ele>
        <time>2023-04-30T16:07:47Z</time>
      </trkpt>
      <trkpt lat="48.08801" lon="6.47535">
        <ele>411.2</ele>
        <time>2023-04-30T16:07:48Z</time>
      </trkpt>
      <trkpt lat="48.08805" lon="6.47529">
        <ele>411</ele>
        <time>2023-04-30T16:07:49Z</time>
      </trkpt>
      <trkpt lat="48.08809" lon="6.47523">
        <ele>410.7</ele>
        <time>2023-04-30T16:07:50Z</time>
      </trkpt>
      <trkpt lat="48.08813" lon="6.47517">
        <ele>410.5</ele>
        <time>2023-04-30T16:07:51Z</time>
      </trkpt>
      <trkpt lat="48.08817" lon="6.47512">
        <ele>410.2</ele>
        <time>2023-04-30T16:07:52Z</time>
      </trkpt>
      <trkpt lat="48.08822" lon="6.47509">
        <ele>410</ele>
        <time>2023-04-30T16:07:53Z</time>
      </trkpt>
      <trkpt lat="48.08825" lon="6.47507">
        <ele>409.8</ele>
        <time>2023-04-30T16:07:54Z</time>
      </trkpt>
      <trkpt lat="48.08828" lon="6.47506">
        <ele>409.7</ele>
        <time>2023-04-30T16:07:55Z</time>
      </trkpt>
      <trkpt lat="48.08829" lon="6.47506">
        <ele>409.6</ele>
        <time>2023-04-30T16:07:56Z</time>
      </trkpt>
      <trkpt lat="48.0883" lon="6.47505">
        <ele>409.5</ele>
        <time>2023-04-30T16:07:57Z</time>
      </trkpt>
      <trkpt lat="48.08831" lon="6.47505">
        <ele>409.5</ele>
        <time>2023-04-30T16:07:58Z</time>
      </trkpt>
      <trkpt lat="48.08831" lon="6.47504">
        <ele>409.5</ele>
        <time>2023-04-30T16:07:59Z</time>
      </trkpt>
      <trkpt lat="48.08831" lon="6.47504">
        <ele>409.5</ele>
        <time>2023-04-30T16:08:00Z</time>
      </trkpt>
      <trkpt lat="48.08831" lon="6.47503">
        <ele>409.4</ele>
        <time>2023-04-30T16:08:01Z</time>
      </trkpt>
      <trkpt lat="48.08832" lon="6.47503">
        <ele>409.4</ele>
        <time>2023-04-30T16:08:02Z</time>
      </trkpt>
      <trkpt lat="48.08832" lon="6.47503">
        <ele>409.4</ele>
        <time>2023-04-30T16:08:03Z</time>
      </trkpt>
      <trkpt lat="48.08832" lon="6.47502">
        <ele>409.4</ele>
        <time>2023-04-30T16:08:04Z</time>
      </trkpt>
      <trkpt lat="48.08833" lon="6.47502">
        <ele>409.4</ele>
        <time>2023-04-30T16:08:05Z</time>
      </trkpt>
      <trkpt lat="48.08833" lon="6.47501">
        <ele>409.3</ele>
        <time>2023-04-30T16:08:06Z</time>
      </trkpt>
      <trkpt lat="48.08833" lon="6.47501">
        <ele>409.3</ele>
        <time>2023-04-30T16:08:07Z</time>
      </trkpt>
      <trkpt lat="48.08833" lon="6.475">
        <ele>409.3</ele>
        <time>2023-04-30T16:08:08Z</time>
      </trkpt>
      <trkpt lat="48.08834" lon="6.475">
        <ele>409.3</ele>
        <time>2023-04-30T16:08:09Z</time>
      </trkpt>
      <trkpt lat="48.08834" lon="6.47499">
        <ele>409.2</ele>
        <time>2023-04-30T16:14:01Z</time>
      </trkpt>
      <trkpt lat="48.08834" lon="6.47499">
        <ele>409.2</ele>
        <time>2023-04-30T16:14:02Z</time>
      </trkpt>
      <trkpt lat="48.08835" lon="6.47499">
        <ele>409.2</ele>
        <time>2023-04-30T16:14:03Z</time>
      </trkpt>
      <trkpt lat="48.08834" lon="6.47488">
        <ele>408.7</ele>
        <time>2023-04-30T16:14:05Z</time>
      </trkpt>
      <trkpt lat="48.08837" lon="6.47482">
        <ele>408.4</ele>
        <time>2023-04-30T16:14:07Z</time>
      </trkpt>
      <trkpt lat="48.08838" lon="6.47476">
        <ele>408</ele>
        <time>2023-04-30T16:14:08Z</time>
      </trkpt>
      <trkpt lat="48.0884" lon="6.47469">
        <ele>407.7</ele>
        <time>2023-04-30T16:14:09Z</time>
      </trkpt>
      <trkpt lat="48.08843" lon="6.47461">
        <ele>407.3</ele>
        <time>2023-04-30T16:14:10Z</time>
      </trkpt>
      <trkpt lat="48.08846" lon="6.47453">
        <ele>406.9</ele>
        <time>2023-04-30T16:14:11Z</time>
      </trkpt>
      <trkpt lat="48.0885" lon="6.47445">
        <ele>406.5</ele>
        <time>2023-04-30T16:14:12Z</time>
      </trkpt>
      <trkpt lat="48.08854" lon="6.47437">
        <ele>406.1</ele>
        <time>2023-04-30T16:14:13Z</time>
      </trkpt>
      <trkpt lat="48.08858" lon="6.47429">
        <ele>405.7</ele>
        <time>2023-04-30T16:14:14Z</time>
      </trkpt>
      <trkpt lat="48.08862" lon="6.4742">
        <ele>405.3</ele>
        <time>2023-04-30T16:14:15Z</time>
      </trkpt>
      <trkpt lat="48.08867" lon="6.47411">
        <ele>404.9</ele>
        <time>2023-04-30T16:14:16Z</time>
      </trkpt>
      <trkpt lat="48.08871" lon="6.47402">
        <ele>404.5</ele>
        <time>2023-04-30T16:14:17Z</time>
      </trkpt>
      <trkpt lat="48.08875" lon="6.47393">
        <ele>404.2</ele>
        <time>2023-04-30T16:14:18Z</time>
      </trkpt>
      <trkpt lat="48.0888" lon="6.47384">
        <ele>403.9</ele>
        <time>2023-04-30T16:14:19Z</time>
      </trkpt>
      <trkpt lat="48.08885" lon="6.47374">
        <ele>403.6</ele>
        <time>2023-04-30T16:14:20Z</time>
      </trkpt>
      <trkpt lat="48.0889" lon="6.47364">
        <ele>403.3</ele>
        <time>2023-04-30T16:14:21Z</time>
      </trkpt>
      <trkpt lat="48.08894" lon="6.47355">
        <ele>403.1</ele>
        <time>2023-04-30T16:14:22Z</time>
      </trkpt>
      <trkpt lat="48.08899" lon="6.47346">
        <ele>402.9</ele>
        <time>2023-04-30T16:14:23Z</time>
      </trkpt>
      <trkpt lat="48.08905" lon="6.47338">
        <ele>402.7</ele>
        <time>2023-04-30T16:14:24Z</time>
      </trkpt>
      <trkpt lat="48.0891" lon="6.47329">
        <ele>402.6</ele>
        <time>2023-04-30T16:14:25Z</time>
      </trkpt>
      <trkpt lat="48.08916" lon="6.47321">
        <ele>402.5</ele>
        <time>2023-04-30T16:14:26Z</time>
      </trkpt>
      <trkpt lat="48.08922" lon="6.47313">
        <ele>402.4</ele>
        <time>2023-04-30T16:14:27Z</time>
      </trkpt>
      <trkpt lat="48.08928" lon="6.47306">
        <ele>402.3</ele>
        <time>2023-04-30T16:14:28Z</time>
      </trkpt>
      <trkpt lat="48.08934" lon="6.47298">
        <ele>402.2</ele>
        <time>2023-04-30T16:14:29Z</time>
      </trkpt>
      <trkpt lat="48.08939" lon="6.4729">
        <ele>402.1</ele>
        <time>2023-04-30T16:14:30Z</time>
      </trkpt>
      <trkpt lat="48.08945" lon="6.47283">
        <ele>402</ele>
        <time>2023-04-30T16:14:31Z</time>
      </trkpt>
      <trkpt lat="48.08951" lon="6.47276">
        <ele>401.9</ele>
        <time>2023-04-30T16:14:32Z</time>
      </trkpt>
      <trkpt lat="48.08956" lon="6.47269">
        <ele>401.9</ele>
        <time>2023-04-30T16:14:33Z</time>
      </trkpt>
      <trkpt lat="48.08962" lon="6.47262">
        <ele>401.9</ele>
        <time>2023-04-30T16:14:34Z</time>
      </trkpt>
      <trkpt lat="48.08968" lon="6.47255">
        <ele>401.9</ele>
        <time>2023-04-30T16:14:35Z</time>
      </trkpt>
      <trkpt lat="48.08974" lon="6.47248">
        <ele>401.9</ele>
        <time>2023-04-30T16:14:36Z</time>
      </trkpt>
      <trkpt lat="48.0898" lon="6.47241">
        <ele>401.9</ele>
        <time>2023-04-30T16:14:37Z</time>
      </trkpt>
      <trkpt lat="48.08985" lon="6.47234">
        <ele>401.9</ele>
        <time>2023-04-30T16:14:38Z</time>
      </trkpt>
      <trkpt lat="48.08991" lon="6.47227">
        <ele>401.9</ele>
        <time>2023-04-30T16:14:39Z</time>
      </trkpt>
      <trkpt lat="48.08996" lon="6.47222">
        <ele>402</ele>
        <time>2023-04-30T16:14:40Z</time>
      </trkpt>
      <trkpt lat="48.09002" lon="6.47215">
        <ele>402.1</ele>
        <time>2023-04-30T16:14:41Z</time>
      </trkpt>
      <trkpt lat="48.09007" lon="6.47208">
        <ele>402.2</ele>
        <time>2023-04-30T16:14:42Z</time>
      </trkpt>
      <trkpt lat="48.09013" lon="6.47201">
        <ele>402.4</ele>
        <time>2023-04-30T16:14:43Z</time>
      </trkpt>
      <trkpt lat="48.09018" lon="6.47194">
        <ele>402.5</ele>
        <time>2023-04-30T16:14:44Z</time>
      </trkpt>
      <trkpt lat="48.09023" lon="6.47187">
        <ele>402.7</ele>
        <time>2023-04-30T16:14:45Z</time>
      </trkpt>
      <trkpt lat="48.09028" lon="6.47181">
        <ele>402.9</ele>
        <time>2023-04-30T16:14:46Z</time>
      </trkpt>
      <trkpt lat="48.09032" lon="6.47174">
        <ele>403.1</ele>
        <time>2023-04-30T16:14:47Z</time>
      </trkpt>
      <trkpt lat="48.09036" lon="6.47167">
        <ele>403.4</ele>
        <time>2023-04-30T16:14:48Z</time>
      </trkpt>
      <trkpt lat="48.09039" lon="6.4716">
        <ele>403.6</ele>
        <time>2023-04-30T16:14:49Z</time>
      </trkpt>
      <trkpt lat="48.09043" lon="6.47153">
        <ele>403.8</ele>
        <time>2023-04-30T16:14:50Z</time>
      </trkpt>
      <trkpt lat="48.09046" lon="6.47146">
        <ele>404.1</ele>
        <time>2023-04-30T16:14:51Z</time>
      </trkpt>
      <trkpt lat="48.09049" lon="6.4714">
        <ele>404.3</ele>
        <time>2023-04-30T16:14:52Z</time>
      </trkpt>
      <trkpt lat="48.09051" lon="6.47133">
        <ele>404.5</ele>
        <time>2023-04-30T16:14:53Z</time>
      </trkpt>
      <trkpt lat="48.09053" lon="6.47125">
        <ele>404.6</ele>
        <time>2023-04-30T16:14:54Z</time>
      </trkpt>
      <trkpt lat="48.09055" lon="6.47118">
        <ele>404.8</ele>
        <time>2023-04-30T16:14:55Z</time>
      </trkpt>
      <trkpt lat="48.09057" lon="6.47111">
        <ele>404.9</ele>
        <time>2023-04-30T16:14:56Z</time>
      </trkpt>
      <trkpt lat="48.0906" lon="6.47104">
        <ele>405</ele>
        <time>2023-04-30T16:14:57Z</time>
      </trkpt>
      <trkpt lat="48.09062" lon="6.47097">
        <ele>405.1</ele>
        <time>2023-04-30T16:14:58Z</time>
      </trkpt>
      <trkpt lat="48.09064" lon="6.47089">
        <ele>405.2</ele>
        <time>2023-04-30T16:14:59Z</time>
      </trkpt>
      <trkpt lat="48.09066" lon="6.47082">
        <ele>405.2</ele>
        <time>2023-04-30T16:15:00Z</time>
      </trkpt>
      <trkpt lat="48.09069" lon="6.47074">
        <ele>405.3</ele>
        <time>2023-04-30T16:15:01Z</time>
      </trkpt>
      <trkpt lat="48.09071" lon="6.47067">
        <ele>405.3</ele>
        <time>2023-04-30T16:15:02Z</time>
      </trkpt>
      <trkpt lat="48.09074" lon="6.4706">
        <ele>405.3</ele>
        <time>2023-04-30T16:15:03Z</time>
      </trkpt>
      <trkpt lat="48.09078" lon="6.47055">
        <ele>405.2</ele>
        <time>2023-04-30T16:15:04Z</time>
      </trkpt>
      <trkpt lat="48.09083" lon="6.47052">
        <ele>405.1</ele>
        <time>2023-04-30T16:15:05Z</time>
      </trkpt>
      <trkpt lat="48.09088" lon="6.47052">
        <ele>405</ele>
        <time>2023-04-30T16:15:06Z</time>
      </trkpt>
      <trkpt lat="48.09091" lon="6.47052">
        <ele>404.9</ele>
        <time>2023-04-30T16:15:07Z</time>
      </trkpt>
      <trkpt lat="48.09092" lon="6.47052">
        <ele>404.9</ele>
        <time>2023-04-30T16:15:08Z</time>
      </trkpt>
      <trkpt lat="48.09093" lon="6.4705">
        <ele>404.9</ele>
        <time>2023-04-30T16:15:09Z</time>
      </trkpt>
      <trkpt lat="48.09093" lon="6.47049">
        <ele>404.8</ele>
        <time>2023-04-30T16:15:10Z</time>
      </trkpt>
      <trkpt lat="48.09094" lon="6.47048">
        <ele>404.8</ele>
        <time>2023-04-30T16:15:11Z</time>
      </trkpt>
      <trkpt lat="48.09095" lon="6.47048">
        <ele>404.8</ele>
        <time>2023-04-30T16:15:12Z</time>
      </trkpt>
      <trkpt lat="48.09096" lon="6.47047">
        <ele>404.7</ele>
        <time>2023-04-30T16:15:13Z</time>
      </trkpt>
      <trkpt lat="48.09098" lon="6.47044">
        <ele>404.8</ele>
        <time>2023-04-30T16:15:14Z</time>
      </trkpt>
      <trkpt lat="48.09099" lon="6.47043">
        <ele>404.8</ele>
        <time>2023-04-30T16:15:15Z</time>
      </trkpt>
      <trkpt lat="48.09098" lon="6.47038">
        <ele>404.9</ele>
        <time>2023-04-30T16:15:16Z</time>
      </trkpt>
      <trkpt lat="48.09096" lon="6.4703">
        <ele>405</ele>
        <time>2023-04-30T16:15:17Z</time>
      </trkpt>
      <trkpt lat="48.09095" lon="6.47023">
        <ele>405.1</ele>
        <time>2023-04-30T16:15:18Z</time>
      </trkpt>
      <trkpt lat="48.09096" lon="6.47014">
        <ele>405.1</ele>
        <time>2023-04-30T16:15:20Z</time>
      </trkpt>
      <trkpt lat="48.09096" lon="6.47007">
        <ele>405.1</ele>
        <time>2023-04-30T16:15:21Z</time>
      </trkpt>
      <trkpt lat="48.09097" lon="6.46998">
        <ele>405.2</ele>
        <time>2023-04-30T16:15:22Z</time>
      </trkpt>
      <trkpt lat="48.09096" lon="6.4699">
        <ele>405.2</ele>
        <time>2023-04-30T16:15:23Z</time>
      </trkpt>
      <trkpt lat="48.09096" lon="6.46983">
        <ele>405.2</ele>
        <time>2023-04-30T16:15:24Z</time>
      </trkpt>
      <trkpt lat="48.09095" lon="6.46976">
        <ele>405.2</ele>
        <time>2023-04-30T16:15:25Z</time>
      </trkpt>
      <trkpt lat="48.09094" lon="6.46968">
        <ele>405.2</ele>
        <time>2023-04-30T16:15:26Z</time>
      </trkpt>
      <trkpt lat="48.09094" lon="6.46961">
        <ele>405.2</ele>
        <time>2023-04-30T16:15:27Z</time>
      </trkpt>
      <trkpt lat="48.09095" lon="6.46953">
        <ele>405.1</ele>
        <time>2023-04-30T16:15:28Z</time>
      </trkpt>
      <trkpt lat="48.09097" lon="6.46946">
        <ele>405.1</ele>
        <time>2023-04-30T16:15:29Z</time>
      </trkpt>
      <trkpt lat="48.091" lon="6.46939">
        <ele>405</ele>
        <time>2023-04-30T16:15:30Z</time>
      </trkpt>
      <trkpt lat="48.09104" lon="6.46934">
        <ele>404.9</ele>
        <time>2023-04-30T16:15:31Z</time>
      </trkpt>
      <trkpt lat="48.09108" lon="6.46929">
        <ele>404.7</ele>
        <time>2023-04-30T16:15:32Z</time>
      </trkpt>
      <trkpt lat="48.09113" lon="6.46925">
        <ele>404.5</ele>
        <time>2023-04-30T16:15:33Z</time>
      </trkpt>
      <trkpt lat="48.09119" lon="6.46923">
        <ele>404.4</ele>
        <time>2023-04-30T16:15:34Z</time>
      </trkpt>
      <trkpt lat="48.09124" lon="6.46923">
        <ele>404.2</ele>
        <time>2023-04-30T16:15:35Z</time>
      </trkpt>
      <trkpt lat="48.0913" lon="6.46924">
        <ele>404</ele>
        <time>2023-04-30T16:15:36Z</time>
      </trkpt>
      <trkpt lat="48.09136" lon="6.46925">
        <ele>403.9</ele>
        <time>2023-04-30T16:15:37Z</time>
      </trkpt>
      <trkpt lat="48.09142" lon="6.46926">
        <ele>403.8</ele>
        <time>2023-04-30T16:15:38Z</time>
      </trkpt>
      <trkpt lat="48.09148" lon="6.46927">
        <ele>403.7</ele>
        <time>2023-04-30T16:15:39Z</time>
      </trkpt>
      <trkpt lat="48.09154" lon="6.46927">
        <ele>403.6</ele>
        <time>2023-04-30T16:15:40Z</time>
      </trkpt>
      <trkpt lat="48.0916" lon="6.46928">
        <ele>403.5</ele>
        <time>2023-04-30T16:15:41Z</time>
      </trkpt>
      <trkpt lat="48.09166" lon="6.46929">
        <ele>403.5</ele>
        <time>2023-04-30T16:15:42Z</time>
      </trkpt>
      <trkpt lat="48.09172" lon="6.46929">
        <ele>403.5</ele>
        <time>2023-04-30T16:15:43Z</time>
      </trkpt>
      <trkpt lat="48.09178" lon="6.46929">
        <ele>403.5</ele>
        <time>2023-04-30T16:15:44Z</time>
      </trkpt>
      <trkpt lat="48.09184" lon="6.4693">
        <ele>403.6</ele>
        <time>2023-04-30T16:15:45Z</time>
      </trkpt>
      <trkpt lat="48.09191" lon="6.4693">
        <ele>403.7</ele>
        <time>2023-04-30T16:15:46Z</time>
      </trkpt>
      <trkpt lat="48.09197" lon="6.46929">
        <ele>403.8</ele>
        <time>2023-04-30T16:15:47Z</time>
      </trkpt>
      <trkpt lat="48.09203" lon="6.46928">
        <ele>403.9</ele>
        <time>2023-04-30T16:15:48Z</time>
      </trkpt>
      <trkpt lat="48.09209" lon="6.46926">
        <ele>404</ele>
        <time>2023-04-30T16:15:49Z</time>
      </trkpt>
      <trkpt lat="48.09215" lon="6.46924">
        <ele>404.2</ele>
        <time>2023-04-30T16:15:50Z</time>
      </trkpt>
      <trkpt lat="48.09221" lon="6.46922">
        <ele>404.4</ele>
        <time>2023-04-30T16:15:51Z</time>
      </trkpt>
      <trkpt lat="48.09227" lon="6.46919">
        <ele>404.6</ele>
        <time>2023-04-30T16:15:52Z</time>
      </trkpt>
      <trkpt lat="48.09232" lon="6.46915">
        <ele>404.9</ele>
        <time>2023-04-30T16:15:53Z</time>
      </trkpt>
      <trkpt lat="48.09237" lon="6.46912">
        <ele>405.1</ele>
        <time>2023-04-30T16:15:54Z</time>
      </trkpt>
      <trkpt lat="48.09241" lon="6.46908">
        <ele>405.3</ele>
        <time>2023-04-30T16:15:55Z</time>
      </trkpt>
      <trkpt lat="48.09246" lon="6.46904">
        <ele>405.6</ele>
        <time>2023-04-30T16:15:56Z</time>
      </trkpt>
      <trkpt lat="48.0925" lon="6.469">
        <ele>405.8</ele>
        <time>2023-04-30T16:15:57Z</time>
      </trkpt>
      <trkpt lat="48.09254" lon="6.46896">
        <ele>406</ele>
        <time>2023-04-30T16:15:58Z</time>
      </trkpt>
      <trkpt lat="48.09259" lon="6.46892">
        <ele>406.3</ele>
        <time>2023-04-30T16:15:59Z</time>
      </trkpt>
      <trkpt lat="48.09263" lon="6.46888">
        <ele>406.5</ele>
        <time>2023-04-30T16:16:00Z</time>
      </trkpt>
      <trkpt lat="48.09267" lon="6.46884">
        <ele>406.6</ele>
        <time>2023-04-30T16:16:01Z</time>
      </trkpt>
      <trkpt lat="48.09271" lon="6.4688">
        <ele>406.8</ele>
        <time>2023-04-30T16:16:02Z</time>
      </trkpt>
      <trkpt lat="48.09275" lon="6.46877">
        <ele>407</ele>
        <time>2023-04-30T16:16:03Z</time>
      </trkpt>
      <trkpt lat="48.09279" lon="6.46873">
        <ele>407.2</ele>
        <time>2023-04-30T16:16:04Z</time>
      </trkpt>
      <trkpt lat="48.09283" lon="6.46869">
        <ele>407.4</ele>
        <time>2023-04-30T16:16:05Z</time>
      </trkpt>
      <trkpt lat="48.09287" lon="6.46866">
        <ele>407.6</ele>
        <time>2023-04-30T16:16:06Z</time>
      </trkpt>
      <trkpt lat="48.09291" lon="6.46862">
        <ele>407.7</ele>
        <time>2023-04-30T16:16:07Z</time>
      </trkpt>
      <trkpt lat="48.09295" lon="6.46858">
        <ele>407.9</ele>
        <time>2023-04-30T16:16:08Z</time>
      </trkpt>
      <trkpt lat="48.09299" lon="6.46854">
        <ele>408.1</ele>
        <time>2023-04-30T16:16:09Z</time>
      </trkpt>
      <trkpt lat="48.09303" lon="6.46851">
        <ele>408.2</ele>
        <time>2023-04-30T16:16:10Z</time>
      </trkpt>
      <trkpt lat="48.09307" lon="6.46847">
        <ele>408.3</ele>
        <time>2023-04-30T16:16:11Z</time>
      </trkpt>
      <trkpt lat="48.09311" lon="6.46843">
        <ele>408.4</ele>
        <time>2023-04-30T16:16:12Z</time>
      </trkpt>
      <trkpt lat="48.09315" lon="6.46839">
        <ele>408.5</ele>
        <time>2023-04-30T16:16:13Z</time>
      </trkpt>
      <trkpt lat="48.09319" lon="6.46835">
        <ele>408.6</ele>
        <time>2023-04-30T16:16:14Z</time>
      </trkpt>
      <trkpt lat="48.09323" lon="6.46831">
        <ele>408.7</ele>
        <time>2023-04-30T16:16:15Z</time>
      </trkpt>
      <trkpt lat="48.09327" lon="6.46827">
        <ele>408.8</ele>
        <time>2023-04-30T16:16:16Z</time>
      </trkpt>
      <trkpt lat="48.09332" lon="6.46822">
        <ele>408.8</ele>
        <time>2023-04-30T16:16:17Z</time>
      </trkpt>
      <trkpt lat="48.09336" lon="6.46819">
        <ele>408.9</ele>
        <time>2023-04-30T16:16:18Z</time>
      </trkpt>
      <trkpt lat="48.0934" lon="6.46814">
        <ele>408.9</ele>
        <time>2023-04-30T16:16:19Z</time>
      </trkpt>
      <trkpt lat="48.09345" lon="6.46811">
        <ele>408.9</ele>
        <time>2023-04-30T16:16:20Z</time>
      </trkpt>
      <trkpt lat="48.09349" lon="6.46806">
        <ele>408.9</ele>
        <time>2023-04-30T16:16:21Z</time>
      </trkpt>
      <trkpt lat="48.09354" lon="6.46802">
        <ele>409</ele>
        <time>2023-04-30T16:16:22Z</time>
      </trkpt>
      <trkpt lat="48.09358" lon="6.46798">
        <ele>409</ele>
        <time>2023-04-30T16:16:23Z</time>
      </trkpt>
      <trkpt lat="48.09362" lon="6.46795">
        <ele>409</ele>
        <time>2023-04-30T16:16:24Z</time>
      </trkpt>
      <trkpt lat="48.09366" lon="6.4679">
        <ele>409.1</ele>
        <time>2023-04-30T16:16:25Z</time>
      </trkpt>
      <trkpt lat="48.09371" lon="6.46786">
        <ele>409.1</ele>
        <time>2023-04-30T16:16:26Z</time>
      </trkpt>
      <trkpt lat="48.09376" lon="6.46782">
        <ele>409.1</ele>
        <time>2023-04-30T16:16:27Z</time>
      </trkpt>
      <trkpt lat="48.0938" lon="6.46778">
        <ele>409.1</ele>
        <time>2023-04-30T16:16:28Z</time>
      </trkpt>
      <trkpt lat="48.09385" lon="6.46773">
        <ele>409.1</ele>
        <time>2023-04-30T16:16:29Z</time>
      </trkpt>
      <trkpt lat="48.0939" lon="6.46768">
        <ele>409.1</ele>
        <time>2023-04-30T16:16:30Z</time>
      </trkpt>
      <trkpt lat="48.09394" lon="6.46763">
        <ele>409.1</ele>
        <time>2023-04-30T16:16:31Z</time>
      </trkpt>
      <trkpt lat="48.094" lon="6.46759">
        <ele>409.1</ele>
        <time>2023-04-30T16:16:32Z</time>
      </trkpt>
      <trkpt lat="48.09404" lon="6.46754">
        <ele>409.1</ele>
        <time>2023-04-30T16:16:33Z</time>
      </trkpt>
      <trkpt lat="48.09409" lon="6.4675">
        <ele>409.1</ele>
        <time>2023-04-30T16:16:34Z</time>
      </trkpt>
      <trkpt lat="48.09414" lon="6.46745">
        <ele>409.1</ele>
        <time>2023-04-30T16:16:35Z</time>
      </trkpt>
      <trkpt lat="48.09419" lon="6.4674">
        <ele>409.1</ele>
        <time>2023-04-30T16:16:36Z</time>
      </trkpt>
      <trkpt lat="48.09425" lon="6.46735">
        <ele>409.1</ele>
        <time>2023-04-30T16:16:37Z</time>
      </trkpt>
      <trkpt lat="48.0943" lon="6.4673">
        <ele>409.1</ele>
        <time>2023-04-30T16:16:38Z</time>
      </trkpt>
      <trkpt lat="48.09436" lon="6.46725">
        <ele>409.1</ele>
        <time>2023-04-30T16:16:39Z</time>
      </trkpt>
      <trkpt lat="48.09441" lon="6.46719">
        <ele>409.1</ele>
        <time>2023-04-30T16:16:40Z</time>
      </trkpt>
      <trkpt lat="48.09447" lon="6.46714">
        <ele>409.1</ele>
        <time>2023-04-30T16:16:41Z</time>
      </trkpt>
      <trkpt lat="48.09452" lon="6.46709">
        <ele>409.2</ele>
        <time>2023-04-30T16:16:42Z</time>
      </trkpt>
      <trkpt lat="48.09457" lon="6.46704">
        <ele>409.2</ele>
        <time>2023-04-30T16:16:43Z</time>
      </trkpt>
      <trkpt lat="48.09462" lon="6.46699">
        <ele>409.3</ele>
        <time>2023-04-30T16:16:44Z</time>
      </trkpt>
      <trkpt lat="48.09468" lon="6.46694">
        <ele>409.3</ele>
        <time>2023-04-30T16:16:45Z</time>
      </trkpt>
      <trkpt lat="48.09474" lon="6.46689">
        <ele>409.2</ele>
        <time>2023-04-30T16:16:46Z</time>
      </trkpt>
      <trkpt lat="48.09479" lon="6.46684">
        <ele>409.2</ele>
        <time>2023-04-30T16:16:47Z</time>
      </trkpt>
      <trkpt lat="48.09485" lon="6.46679">
        <ele>409.2</ele>
        <time>2023-04-30T16:16:48Z</time>
      </trkpt>
      <trkpt lat="48.0949" lon="6.46674">
        <ele>409.2</ele>
        <time>2023-04-30T16:16:49Z</time>
      </trkpt>
      <trkpt lat="48.09495" lon="6.46669">
        <ele>409.2</ele>
        <time>2023-04-30T16:16:50Z</time>
      </trkpt>
      <trkpt lat="48.09501" lon="6.46665">
        <ele>409.2</ele>
        <time>2023-04-30T16:16:51Z</time>
      </trkpt>
      <trkpt lat="48.09506" lon="6.4666">
        <ele>409.2</ele>
        <time>2023-04-30T16:16:52Z</time>
      </trkpt>
      <trkpt lat="48.09511" lon="6.46655">
        <ele>409.2</ele>
        <time>2023-04-30T16:16:53Z</time>
      </trkpt>
      <trkpt lat="48.09516" lon="6.4665">
        <ele>409.2</ele>
        <time>2023-04-30T16:16:54Z</time>
      </trkpt>
      <trkpt lat="48.09522" lon="6.46644">
        <ele>409.2</ele>
        <time>2023-04-30T16:16:55Z</time>
      </trkpt>
      <trkpt lat="48.09527" lon="6.46639">
        <ele>409.2</ele>
        <time>2023-04-30T16:16:56Z</time>
      </trkpt>
      <trkpt lat="48.09532" lon="6.46634">
        <ele>409.2</ele>
        <time>2023-04-30T16:16:57Z</time>
      </trkpt>
      <trkpt lat="48.09537" lon="6.46629">
        <ele>409.2</ele>
        <time>2023-04-30T16:16:58Z</time>
      </trkpt>
      <trkpt lat="48.09543" lon="6.46625">
        <ele>409.2</ele>
        <time>2023-04-30T16:16:59Z</time>
      </trkpt>
      <trkpt lat="48.09548" lon="6.4662">
        <ele>409.1</ele>
        <time>2023-04-30T16:17:00Z</time>
      </trkpt>
      <trkpt lat="48.09553" lon="6.46615">
        <ele>409.1</ele>
        <time>2023-04-30T16:17:01Z</time>
      </trkpt>
      <trkpt lat="48.09558" lon="6.46609">
        <ele>409.1</ele>
        <time>2023-04-30T16:17:02Z</time>
      </trkpt>
      <trkpt lat="48.09564" lon="6.46604">
        <ele>409.1</ele>
        <time>2023-04-30T16:17:03Z</time>
      </trkpt>
      <trkpt lat="48.09569" lon="6.46599">
        <ele>409.1</ele>
        <time>2023-04-30T16:17:04Z</time>
      </trkpt>
      <trkpt lat="48.09575" lon="6.46594">
        <ele>409</ele>
        <time>2023-04-30T16:17:05Z</time>
      </trkpt>
      <trkpt lat="48.0958" lon="6.46588">
        <ele>409</ele>
        <time>2023-04-30T16:17:06Z</time>
      </trkpt>
      <trkpt lat="48.09585" lon="6.46584">
        <ele>408.9</ele>
        <time>2023-04-30T16:17:07Z</time>
      </trkpt>
      <trkpt lat="48.0959" lon="6.46578">
        <ele>408.9</ele>
        <time>2023-04-30T16:17:08Z</time>
      </trkpt>
      <trkpt lat="48.09596" lon="6.46573">
        <ele>408.8</ele>
        <time>2023-04-30T16:17:09Z</time>
      </trkpt>
      <trkpt lat="48.09601" lon="6.46568">
        <ele>408.8</ele>
        <time>2023-04-30T16:17:10Z</time>
      </trkpt>
      <trkpt lat="48.09606" lon="6.46562">
        <ele>408.8</ele>
        <time>2023-04-30T16:17:11Z</time>
      </trkpt>
      <trkpt lat="48.09611" lon="6.46558">
        <ele>408.7</ele>
        <time>2023-04-30T16:17:12Z</time>
      </trkpt>
      <trkpt lat="48.09617" lon="6.46553">
        <ele>408.7</ele>
        <time>2023-04-30T16:17:13Z</time>
      </trkpt>
      <trkpt lat="48.09622" lon="6.46547">
        <ele>408.7</ele>
        <time>2023-04-30T16:17:14Z</time>
      </trkpt>
      <trkpt lat="48.09628" lon="6.46542">
        <ele>408.6</ele>
        <time>2023-04-30T16:17:15Z</time>
      </trkpt>
      <trkpt lat="48.09633" lon="6.46536">
        <ele>408.6</ele>
        <time>2023-04-30T16:17:16Z</time>
      </trkpt>
      <trkpt lat="48.09638" lon="6.46531">
        <ele>408.6</ele>
        <time>2023-04-30T16:17:17Z</time>
      </trkpt>
      <trkpt lat="48.09644" lon="6.46526">
        <ele>408.6</ele>
        <time>2023-04-30T16:17:18Z</time>
      </trkpt>
      <trkpt lat="48.09649" lon="6.46521">
        <ele>408.6</ele>
        <time>2023-04-30T16:17:19Z</time>
      </trkpt>
      <trkpt lat="48.09654" lon="6.46515">
        <ele>408.6</ele>
        <time>2023-04-30T16:17:20Z</time>
      </trkpt>
      <trkpt lat="48.0966" lon="6.4651">
        <ele>408.6</ele>
        <time>2023-04-30T16:17:21Z</time>
      </trkpt>
      <trkpt lat="48.09665" lon="6.46505">
        <ele>408.7</ele>
        <time>2023-04-30T16:17:22Z</time>
      </trkpt>
      <trkpt lat="48.09671" lon="6.46499">
        <ele>408.8</ele>
        <time>2023-04-30T16:17:23Z</time>
      </trkpt>
      <trkpt lat="48.09676" lon="6.46494">
        <ele>408.8</ele>
        <time>2023-04-30T16:17:24Z</time>
      </trkpt>
      <trkpt lat="48.09682" lon="6.46489">
        <ele>408.9</ele>
        <time>2023-04-30T16:17:25Z</time>
      </trkpt>
      <trkpt lat="48.09687" lon="6.46484">
        <ele>409</ele>
        <time>2023-04-30T16:17:26Z</time>
      </trkpt>
      <trkpt lat="48.09692" lon="6.46479">
        <ele>409.1</ele>
        <time>2023-04-30T16:17:27Z</time>
      </trkpt>
      <trkpt lat="48.09697" lon="6.46474">
        <ele>409.2</ele>
        <time>2023-04-30T16:17:28Z</time>
      </trkpt>
      <trkpt lat="48.09703" lon="6.46469">
        <ele>409.3</ele>
        <time>2023-04-30T16:17:29Z</time>
      </trkpt>
      <trkpt lat="48.09708" lon="6.46464">
        <ele>409.4</ele>
        <time>2023-04-30T16:17:30Z</time>
      </trkpt>
      <trkpt lat="48.09713" lon="6.46459">
        <ele>409.5</ele>
        <time>2023-04-30T16:17:31Z</time>
      </trkpt>
      <trkpt lat="48.09718" lon="6.46455">
        <ele>409.6</ele>
        <time>2023-04-30T16:17:32Z</time>
      </trkpt>
      <trkpt lat="48.09723" lon="6.46449">
        <ele>409.7</ele>
        <time>2023-04-30T16:17:33Z</time>
      </trkpt>
      <trkpt lat="48.09729" lon="6.46445">
        <ele>409.7</ele>
        <time>2023-04-30T16:17:34Z</time>
      </trkpt>
      <trkpt lat="48.09734" lon="6.4644">
        <ele>409.9</ele>
        <time>2023-04-30T16:17:35Z</time>
      </trkpt>
      <trkpt lat="48.09739" lon="6.46435">
        <ele>410</ele>
        <time>2023-04-30T16:17:36Z</time>
      </trkpt>
      <trkpt lat="48.09744" lon="6.4643">
        <ele>410.1</ele>
        <time>2023-04-30T16:17:37Z</time>
      </trkpt>
      <trkpt lat="48.09749" lon="6.46425">
        <ele>410.2</ele>
        <time>2023-04-30T16:17:38Z</time>
      </trkpt>
      <trkpt lat="48.09754" lon="6.46421">
        <ele>410.3</ele>
        <time>2023-04-30T16:17:39Z</time>
      </trkpt>
      <trkpt lat="48.09759" lon="6.46416">
        <ele>410.4</ele>
        <time>2023-04-30T16:17:40Z</time>
      </trkpt>
      <trkpt lat="48.09764" lon="6.4641">
        <ele>410.5</ele>
        <time>2023-04-30T16:17:41Z</time>
      </trkpt>
      <trkpt lat="48.09769" lon="6.46406">
        <ele>410.5</ele>
        <time>2023-04-30T16:17:42Z</time>
      </trkpt>
      <trkpt lat="48.09775" lon="6.46402">
        <ele>410.6</ele>
        <time>2023-04-30T16:17:43Z</time>
      </trkpt>
      <trkpt lat="48.0978" lon="6.46397">
        <ele>410.7</ele>
        <time>2023-04-30T16:17:44Z</time>
      </trkpt>
      <trkpt lat="48.09785" lon="6.46392">
        <ele>410.8</ele>
        <time>2023-04-30T16:17:45Z</time>
      </trkpt>
      <trkpt lat="48.09789" lon="6.46388">
        <ele>410.9</ele>
        <time>2023-04-30T16:17:46Z</time>
      </trkpt>
      <trkpt lat="48.09794" lon="6.46383">
        <ele>410.9</ele>
        <time>2023-04-30T16:17:47Z</time>
      </trkpt>
      <trkpt lat="48.09799" lon="6.46379">
        <ele>411</ele>
        <time>2023-04-30T16:17:48Z</time>
      </trkpt>
      <trkpt lat="48.09804" lon="6.46374">
        <ele>411.1</ele>
        <time>2023-04-30T16:17:49Z</time>
      </trkpt>
      <trkpt lat="48.09809" lon="6.4637">
        <ele>411.2</ele>
        <time>2023-04-30T16:17:50Z</time>
      </trkpt>
      <trkpt lat="48.09814" lon="6.46365">
        <ele>411.4</ele>
        <time>2023-04-30T16:17:51Z</time>
      </trkpt>
      <trkpt lat="48.09818" lon="6.4636">
        <ele>411.5</ele>
        <time>2023-04-30T16:17:52Z</time>
      </trkpt>
      <trkpt lat="48.09823" lon="6.46355">
        <ele>411.6</ele>
        <time>2023-04-30T16:17:53Z</time>
      </trkpt>
      <trkpt lat="48.09828" lon="6.46351">
        <ele>411.7</ele>
        <time>2023-04-30T16:17:54Z</time>
      </trkpt>
      <trkpt lat="48.09832" lon="6.46347">
        <ele>411.8</ele>
        <time>2023-04-30T16:17:55Z</time>
      </trkpt>
      <trkpt lat="48.09837" lon="6.46342">
        <ele>411.9</ele>
        <time>2023-04-30T16:17:56Z</time>
      </trkpt>
      <trkpt lat="48.09841" lon="6.46338">
        <ele>412</ele>
        <time>2023-04-30T16:17:57Z</time>
      </trkpt>
      <trkpt lat="48.09846" lon="6.46333">
        <ele>412.1</ele>
        <time>2023-04-30T16:17:58Z</time>
      </trkpt>
      <trkpt lat="48.09851" lon="6.46329">
        <ele>412.2</ele>
        <time>2023-04-30T16:17:59Z</time>
      </trkpt>
      <trkpt lat="48.09855" lon="6.46324">
        <ele>412.3</ele>
        <time>2023-04-30T16:18:00Z</time>
      </trkpt>
      <trkpt lat="48.0986" lon="6.4632">
        <ele>412.4</ele>
        <time>2023-04-30T16:18:01Z</time>
      </trkpt>
      <trkpt lat="48.09864" lon="6.46315">
        <ele>412.4</ele>
        <time>2023-04-30T16:18:02Z</time>
      </trkpt>
      <trkpt lat="48.09869" lon="6.46311">
        <ele>412.5</ele>
        <time>2023-04-30T16:18:03Z</time>
      </trkpt>
      <trkpt lat="48.09873" lon="6.46307">
        <ele>412.6</ele>
        <time>2023-04-30T16:18:04Z</time>
      </trkpt>
      <trkpt lat="48.09878" lon="6.46303">
        <ele>412.7</ele>
        <time>2023-04-30T16:18:05Z</time>
      </trkpt>
      <trkpt lat="48.09883" lon="6.46298">
        <ele>412.8</ele>
        <time>2023-04-30T16:18:06Z</time>
      </trkpt>
      <trkpt lat="48.09887" lon="6.46294">
        <ele>412.9</ele>
        <time>2023-04-30T16:18:07Z</time>
      </trkpt>
      <trkpt lat="48.09892" lon="6.46289">
        <ele>413</ele>
        <time>2023-04-30T16:18:08Z</time>
      </trkpt>
      <trkpt lat="48.09896" lon="6.46285">
        <ele>413.1</ele>
        <time>2023-04-30T16:18:09Z</time>
      </trkpt>
      <trkpt lat="48.09901" lon="6.46281">
        <ele>413.2</ele>
        <time>2023-04-30T16:18:10Z</time>
      </trkpt>
      <trkpt lat="48.09905" lon="6.46277">
        <ele>413.3</ele>
        <time>2023-04-30T16:18:11Z</time>
      </trkpt>
      <trkpt lat="48.0991" lon="6.46272">
        <ele>413.3</ele>
        <time>2023-04-30T16:18:12Z</time>
      </trkpt>
      <trkpt lat="48.09915" lon="6.46268">
        <ele>413.4</ele>
        <time>2023-04-30T16:18:13Z</time>
      </trkpt>
      <trkpt lat="48.0992" lon="6.46264">
        <ele>413.5</ele>
        <time>2023-04-30T16:18:14Z</time>
      </trkpt>
      <trkpt lat="48.09924" lon="6.46259">
        <ele>413.5</ele>
        <time>2023-04-30T16:18:15Z</time>
      </trkpt>
      <trkpt lat="48.09929" lon="6.46255">
        <ele>413.6</ele>
        <time>2023-04-30T16:18:16Z</time>
      </trkpt>
      <trkpt lat="48.09933" lon="6.4625">
        <ele>413.6</ele>
        <time>2023-04-30T16:18:17Z</time>
      </trkpt>
      <trkpt lat="48.09938" lon="6.46246">
        <ele>413.7</ele>
        <time>2023-04-30T16:18:18Z</time>
      </trkpt>
      <trkpt lat="48.09943" lon="6.46242">
        <ele>413.7</ele>
        <time>2023-04-30T16:18:19Z</time>
      </trkpt>
      <trkpt lat="48.09947" lon="6.46238">
        <ele>413.8</ele>
        <time>2023-04-30T16:18:20Z</time>
      </trkpt>
      <trkpt lat="48.09952" lon="6.46234">
        <ele>413.8</ele>
        <time>2023-04-30T16:18:21Z</time>
      </trkpt>
      <trkpt lat="48.09957" lon="6.46229">
        <ele>413.8</ele>
        <time>2023-04-30T16:18:22Z</time>
      </trkpt>
      <trkpt lat="48.09961" lon="6.46225">
        <ele>413.8</ele>
        <time>2023-04-30T16:18:23Z</time>
      </trkpt>
      <trkpt lat="48.09966" lon="6.46221">
        <ele>413.8</ele>
        <time>2023-04-30T16:18:24Z</time>
      </trkpt>
      <trkpt lat="48.09971" lon="6.46218">
        <ele>413.8</ele>
        <time>2023-04-30T16:18:25Z</time>
      </trkpt>
      <trkpt lat="48.09976" lon="6.46215">
        <ele>413.8</ele>
        <time>2023-04-30T16:18:26Z</time>
      </trkpt>
      <trkpt lat="48.09982" lon="6.46211">
        <ele>413.8</ele>
        <time>2023-04-30T16:18:27Z</time>
      </trkpt>
      <trkpt lat="48.09986" lon="6.46207">
        <ele>413.8</ele>
        <time>2023-04-30T16:18:28Z</time>
      </trkpt>
      <trkpt lat="48.09992" lon="6.46204">
        <ele>413.8</ele>
        <time>2023-04-30T16:18:29Z</time>
      </trkpt>
      <trkpt lat="48.09998" lon="6.46201">
        <ele>413.8</ele>
        <time>2023-04-30T16:18:30Z</time>
      </trkpt>
      <trkpt lat="48.10003" lon="6.46199">
        <ele>413.9</ele>
        <time>2023-04-30T16:18:31Z</time>
      </trkpt>
      <trkpt lat="48.10008" lon="6.46196">
        <ele>413.9</ele>
        <time>2023-04-30T16:18:32Z</time>
      </trkpt>
      <trkpt lat="48.10013" lon="6.46194">
        <ele>413.9</ele>
        <time>2023-04-30T16:18:33Z</time>
      </trkpt>
      <trkpt lat="48.10019" lon="6.46191">
        <ele>413.9</ele>
        <time>2023-04-30T16:18:34Z</time>
      </trkpt>
      <trkpt lat="48.10024" lon="6.46189">
        <ele>413.9</ele>
        <time>2023-04-30T16:18:35Z</time>
      </trkpt>
      <trkpt lat="48.10029" lon="6.46186">
        <ele>413.9</ele>
        <time>2023-04-30T16:18:36Z</time>
      </trkpt>
      <trkpt lat="48.10035" lon="6.46184">
        <ele>413.9</ele>
        <time>2023-04-30T16:18:37Z</time>
      </trkpt>
      <trkpt lat="48.1004" lon="6.46182">
        <ele>413.9</ele>
        <time>2023-04-30T16:18:38Z</time>
      </trkpt>
      <trkpt lat="48.10045" lon="6.4618">
        <ele>413.8</ele>
        <time>2023-04-30T16:18:39Z</time>
      </trkpt>
      <trkpt lat="48.1005" lon="6.46177">
        <ele>413.8</ele>
        <time>2023-04-30T16:18:40Z</time>
      </trkpt>
      <trkpt lat="48.10055" lon="6.46175">
        <ele>413.8</ele>
        <time>2023-04-30T16:18:41Z</time>
      </trkpt>
      <trkpt lat="48.10061" lon="6.46172">
        <ele>413.8</ele>
        <time>2023-04-30T16:18:42Z</time>
      </trkpt>
      <trkpt lat="48.10066" lon="6.46171">
        <ele>413.8</ele>
        <time>2023-04-30T16:18:43Z</time>
      </trkpt>
      <trkpt lat="48.10071" lon="6.46169">
        <ele>413.8</ele>
        <time>2023-04-30T16:18:44Z</time>
      </trkpt>
      <trkpt lat="48.10077" lon="6.46166">
        <ele>413.8</ele>
        <time>2023-04-30T16:18:45Z</time>
      </trkpt>
      <trkpt lat="48.10082" lon="6.46164">
        <ele>413.7</ele>
        <time>2023-04-30T16:18:46Z</time>
      </trkpt>
      <trkpt lat="48.10088" lon="6.46162">
        <ele>413.7</ele>
        <time>2023-04-30T16:18:47Z</time>
      </trkpt>
      <trkpt lat="48.10093" lon="6.46159">
        <ele>413.8</ele>
        <time>2023-04-30T16:18:48Z</time>
      </trkpt>
      <trkpt lat="48.10099" lon="6.46157">
        <ele>413.8</ele>
        <time>2023-04-30T16:18:49Z</time>
      </trkpt>
      <trkpt lat="48.10104" lon="6.46155">
        <ele>413.7</ele>
        <time>2023-04-30T16:18:50Z</time>
      </trkpt>
      <trkpt lat="48.1011" lon="6.46153">
        <ele>413.7</ele>
        <time>2023-04-30T16:18:51Z</time>
      </trkpt>
      <trkpt lat="48.10116" lon="6.4615">
        <ele>413.7</ele>
        <time>2023-04-30T16:18:52Z</time>
      </trkpt>
      <trkpt lat="48.10121" lon="6.46148">
        <ele>413.7</ele>
        <time>2023-04-30T16:18:53Z</time>
      </trkpt>
      <trkpt lat="48.10127" lon="6.46145">
        <ele>413.7</ele>
        <time>2023-04-30T16:18:54Z</time>
      </trkpt>
      <trkpt lat="48.10133" lon="6.46143">
        <ele>413.7</ele>
        <time>2023-04-30T16:18:55Z</time>
      </trkpt>
      <trkpt lat="48.10138" lon="6.46141">
        <ele>413.7</ele>
        <time>2023-04-30T16:18:56Z</time>
      </trkpt>
      <trkpt lat="48.10144" lon="6.46139">
        <ele>413.7</ele>
        <time>2023-04-30T16:18:57Z</time>
      </trkpt>
      <trkpt lat="48.10149" lon="6.46136">
        <ele>413.7</ele>
        <time>2023-04-30T16:18:58Z</time>
      </trkpt>
      <trkpt lat="48.10154" lon="6.46134">
        <ele>413.7</ele>
        <time>2023-04-30T16:18:59Z</time>
      </trkpt>
      <trkpt lat="48.1016" lon="6.46132">
        <ele>413.7</ele>
        <time>2023-04-30T16:19:00Z</time>
      </trkpt>
      <trkpt lat="48.10165" lon="6.4613">
        <ele>413.7</ele>
        <time>2023-04-30T16:19:01Z</time>
      </trkpt>
      <trkpt lat="48.1017" lon="6.46127">
        <ele>413.7</ele>
        <time>2023-04-30T16:19:02Z</time>
      </trkpt>
      <trkpt lat="48.10175" lon="6.46125">
        <ele>413.7</ele>
        <time>2023-04-30T16:19:03Z</time>
      </trkpt>
      <trkpt lat="48.10181" lon="6.46124">
        <ele>413.7</ele>
        <time>2023-04-30T16:19:04Z</time>
      </trkpt>
      <trkpt lat="48.10186" lon="6.46122">
        <ele>413.7</ele>
        <time>2023-04-30T16:19:05Z</time>
      </trkpt>
      <trkpt lat="48.10192" lon="6.4612">
        <ele>413.7</ele>
        <time>2023-04-30T16:19:06Z</time>
      </trkpt>
      <trkpt lat="48.10197" lon="6.46117">
        <ele>413.7</ele>
        <time>2023-04-30T16:19:07Z</time>
      </trkpt>
      <trkpt lat="48.10202" lon="6.46114">
        <ele>413.7</ele>
        <time>2023-04-30T16:19:08Z</time>
      </trkpt>
      <trkpt lat="48.10207" lon="6.46112">
        <ele>413.7</ele>
        <time>2023-04-30T16:19:09Z</time>
      </trkpt>
      <trkpt lat="48.10213" lon="6.4611">
        <ele>413.7</ele>
        <time>2023-04-30T16:19:10Z</time>
      </trkpt>
      <trkpt lat="48.10218" lon="6.46108">
        <ele>413.7</ele>
        <time>2023-04-30T16:19:11Z</time>
      </trkpt>
      <trkpt lat="48.10224" lon="6.46106">
        <ele>413.7</ele>
        <time>2023-04-30T16:19:12Z</time>
      </trkpt>
      <trkpt lat="48.1023" lon="6.46103">
        <ele>413.6</ele>
        <time>2023-04-30T16:19:13Z</time>
      </trkpt>
      <trkpt lat="48.10235" lon="6.46101">
        <ele>413.6</ele>
        <time>2023-04-30T16:19:14Z</time>
      </trkpt>
      <trkpt lat="48.10241" lon="6.46099">
        <ele>413.6</ele>
        <time>2023-04-30T16:19:15Z</time>
      </trkpt>
      <trkpt lat="48.10247" lon="6.46097">
        <ele>413.6</ele>
        <time>2023-04-30T16:19:16Z</time>
      </trkpt>
      <trkpt lat="48.10252" lon="6.46095">
        <ele>413.6</ele>
        <time>2023-04-30T16:19:17Z</time>
      </trkpt>
      <trkpt lat="48.10257" lon="6.46093">
        <ele>413.5</ele>
        <time>2023-04-30T16:19:18Z</time>
      </trkpt>
      <trkpt lat="48.10263" lon="6.4609">
        <ele>413.5</ele>
        <time>2023-04-30T16:19:19Z</time>
      </trkpt>
      <trkpt lat="48.10268" lon="6.46088">
        <ele>413.4</ele>
        <time>2023-04-30T16:19:20Z</time>
      </trkpt>
      <trkpt lat="48.10274" lon="6.46085">
        <ele>413.4</ele>
        <time>2023-04-30T16:19:21Z</time>
      </trkpt>
      <trkpt lat="48.1028" lon="6.46083">
        <ele>413.3</ele>
        <time>2023-04-30T16:19:22Z</time>
      </trkpt>
      <trkpt lat="48.10286" lon="6.46081">
        <ele>413.2</ele>
        <time>2023-04-30T16:19:23Z</time>
      </trkpt>
      <trkpt lat="48.10292" lon="6.46079">
        <ele>413.2</ele>
        <time>2023-04-30T16:19:24Z</time>
      </trkpt>
      <trkpt lat="48.10298" lon="6.46077">
        <ele>413.1</ele>
        <time>2023-04-30T16:19:25Z</time>
      </trkpt>
      <trkpt lat="48.10303" lon="6.46074">
        <ele>413</ele>
        <time>2023-04-30T16:19:26Z</time>
      </trkpt>
      <trkpt lat="48.1031" lon="6.46072">
        <ele>412.9</ele>
        <time>2023-04-30T16:19:27Z</time>
      </trkpt>
      <trkpt lat="48.10316" lon="6.4607">
        <ele>412.8</ele>
        <time>2023-04-30T16:19:28Z</time>
      </trkpt>
      <trkpt lat="48.10321" lon="6.46068">
        <ele>412.7</ele>
        <time>2023-04-30T16:19:29Z</time>
      </trkpt>
      <trkpt lat="48.10327" lon="6.46066">
        <ele>412.7</ele>
        <time>2023-04-30T16:19:30Z</time>
      </trkpt>
      <trkpt lat="48.10334" lon="6.46063">
        <ele>412.6</ele>
        <time>2023-04-30T16:19:31Z</time>
      </trkpt>
      <trkpt lat="48.1034" lon="6.46061">
        <ele>412.5</ele>
        <time>2023-04-30T16:19:32Z</time>
      </trkpt>
      <trkpt lat="48.10346" lon="6.46058">
        <ele>412.4</ele>
        <time>2023-04-30T16:19:33Z</time>
      </trkpt>
      <trkpt lat="48.10353" lon="6.46056">
        <ele>412.3</ele>
        <time>2023-04-30T16:19:34Z</time>
      </trkpt>
      <trkpt lat="48.10359" lon="6.46053">
        <ele>412.2</ele>
        <time>2023-04-30T16:19:35Z</time>
      </trkpt>
      <trkpt lat="48.10365" lon="6.4605">
        <ele>412.1</ele>
        <time>2023-04-30T16:19:36Z</time>
      </trkpt>
      <trkpt lat="48.10371" lon="6.46047">
        <ele>411.9</ele>
        <time>2023-04-30T16:19:37Z</time>
      </trkpt>
      <trkpt lat="48.10378" lon="6.46043">
        <ele>411.8</ele>
        <time>2023-04-30T16:19:38Z</time>
      </trkpt>
      <trkpt lat="48.10385" lon="6.46041">
        <ele>411.7</ele>
        <time>2023-04-30T16:19:39Z</time>
      </trkpt>
      <trkpt lat="48.10391" lon="6.46038">
        <ele>411.6</ele>
        <time>2023-04-30T16:19:40Z</time>
      </trkpt>
      <trkpt lat="48.10398" lon="6.46035">
        <ele>411.5</ele>
        <time>2023-04-30T16:19:41Z</time>
      </trkpt>
      <trkpt lat="48.10405" lon="6.46032">
        <ele>411.4</ele>
        <time>2023-04-30T16:19:42Z</time>
      </trkpt>
      <trkpt lat="48.10411" lon="6.46029">
        <ele>411.3</ele>
        <time>2023-04-30T16:19:43Z</time>
      </trkpt>
      <trkpt lat="48.10418" lon="6.46027">
        <ele>411.2</ele>
        <time>2023-04-30T16:19:44Z</time>
      </trkpt>
      <trkpt lat="48.10424" lon="6.46024">
        <ele>411.1</ele>
        <time>2023-04-30T16:19:45Z</time>
      </trkpt>
      <trkpt lat="48.10431" lon="6.46022">
        <ele>411</ele>
        <time>2023-04-30T16:19:46Z</time>
      </trkpt>
      <trkpt lat="48.10437" lon="6.4602">
        <ele>411</ele>
        <time>2023-04-30T16:19:47Z</time>
      </trkpt>
      <trkpt lat="48.10444" lon="6.46017">
        <ele>410.9</ele>
        <time>2023-04-30T16:19:48Z</time>
      </trkpt>
      <trkpt lat="48.1045" lon="6.46015">
        <ele>410.8</ele>
        <time>2023-04-30T16:19:49Z</time>
      </trkpt>
      <trkpt lat="48.10457" lon="6.46012">
        <ele>410.7</ele>
        <time>2023-04-30T16:19:50Z</time>
      </trkpt>
      <trkpt lat="48.10464" lon="6.46009">
        <ele>410.6</ele>
        <time>2023-04-30T16:19:51Z</time>
      </trkpt>
      <trkpt lat="48.1047" lon="6.46006">
        <ele>410.5</ele>
        <time>2023-04-30T16:19:52Z</time>
      </trkpt>
      <trkpt lat="48.10477" lon="6.46003">
        <ele>410.4</ele>
        <time>2023-04-30T16:19:53Z</time>
      </trkpt>
      <trkpt lat="48.10484" lon="6.46">
        <ele>410.3</ele>
        <time>2023-04-30T16:19:54Z</time>
      </trkpt>
      <trkpt lat="48.1049" lon="6.45997">
        <ele>410.3</ele>
        <time>2023-04-30T16:19:55Z</time>
      </trkpt>
      <trkpt lat="48.10496" lon="6.45995">
        <ele>410.2</ele>
        <time>2023-04-30T16:19:56Z</time>
      </trkpt>
      <trkpt lat="48.10502" lon="6.45992">
        <ele>410.1</ele>
        <time>2023-04-30T16:19:57Z</time>
      </trkpt>
      <trkpt lat="48.10508" lon="6.4599">
        <ele>410.1</ele>
        <time>2023-04-30T16:19:58Z</time>
      </trkpt>
      <trkpt lat="48.10514" lon="6.45987">
        <ele>410.1</ele>
        <time>2023-04-30T16:19:59Z</time>
      </trkpt>
      <trkpt lat="48.1052" lon="6.45985">
        <ele>410</ele>
        <time>2023-04-30T16:20:00Z</time>
      </trkpt>
      <trkpt lat="48.10525" lon="6.45981">
        <ele>410</ele>
        <time>2023-04-30T16:20:01Z</time>
      </trkpt>
      <trkpt lat="48.10531" lon="6.45979">
        <ele>410</ele>
        <time>2023-04-30T16:20:02Z</time>
      </trkpt>
      <trkpt lat="48.10537" lon="6.45976">
        <ele>409.9</ele>
        <time>2023-04-30T16:20:03Z</time>
      </trkpt>
      <trkpt lat="48.10541" lon="6.45972">
        <ele>409.9</ele>
        <time>2023-04-30T16:20:04Z</time>
      </trkpt>
      <trkpt lat="48.10543" lon="6.45965">
        <ele>409.6</ele>
        <time>2023-04-30T16:20:05Z</time>
      </trkpt>
      <trkpt lat="48.10542" lon="6.45956">
        <ele>409.1</ele>
        <time>2023-04-30T16:20:06Z</time>
      </trkpt>
      <trkpt lat="48.10539" lon="6.45948">
        <ele>408.5</ele>
        <time>2023-04-30T16:20:07Z</time>
      </trkpt>
      <trkpt lat="48.10536" lon="6.45939">
        <ele>407.9</ele>
        <time>2023-04-30T16:20:08Z</time>
      </trkpt>
      <trkpt lat="48.10532" lon="6.4593">
        <ele>407.3</ele>
        <time>2023-04-30T16:20:09Z</time>
      </trkpt>
      <trkpt lat="48.10527" lon="6.4592">
        <ele>406.9</ele>
        <time>2023-04-30T16:20:10Z</time>
      </trkpt>
      <trkpt lat="48.10523" lon="6.4591">
        <ele>406.5</ele>
        <time>2023-04-30T16:20:11Z</time>
      </trkpt>
      <trkpt lat="48.10518" lon="6.459">
        <ele>406.1</ele>
        <time>2023-04-30T16:20:12Z</time>
      </trkpt>
      <trkpt lat="48.10514" lon="6.45889">
        <ele>405.9</ele>
        <time>2023-04-30T16:20:13Z</time>
      </trkpt>
      <trkpt lat="48.1051" lon="6.45878">
        <ele>405.7</ele>
        <time>2023-04-30T16:20:14Z</time>
      </trkpt>
      <trkpt lat="48.10506" lon="6.45867">
        <ele>405.5</ele>
        <time>2023-04-30T16:20:15Z</time>
      </trkpt>
      <trkpt lat="48.10504" lon="6.45855">
        <ele>405.4</ele>
        <time>2023-04-30T16:20:16Z</time>
      </trkpt>
      <trkpt lat="48.10501" lon="6.45843">
        <ele>405.4</ele>
        <time>2023-04-30T16:20:17Z</time>
      </trkpt>
      <trkpt lat="48.10499" lon="6.45831">
        <ele>405.3</ele>
        <time>2023-04-30T16:20:18Z</time>
      </trkpt>
      <trkpt lat="48.10497" lon="6.45819">
        <ele>405.4</ele>
        <time>2023-04-30T16:20:19Z</time>
      </trkpt>
      <trkpt lat="48.10495" lon="6.45808">
        <ele>405.5</ele>
        <time>2023-04-30T16:20:20Z</time>
      </trkpt>
      <trkpt lat="48.10494" lon="6.45796">
        <ele>405.6</ele>
        <time>2023-04-30T16:20:21Z</time>
      </trkpt>
      <trkpt lat="48.10493" lon="6.45784">
        <ele>405.8</ele>
        <time>2023-04-30T16:20:22Z</time>
      </trkpt>
      <trkpt lat="48.10492" lon="6.45772">
        <ele>406.1</ele>
        <time>2023-04-30T16:20:23Z</time>
      </trkpt>
      <trkpt lat="48.10491" lon="6.45761">
        <ele>406.5</ele>
        <time>2023-04-30T16:20:24Z</time>
      </trkpt>
      <trkpt lat="48.10491" lon="6.45749">
        <ele>407</ele>
        <time>2023-04-30T16:20:25Z</time>
      </trkpt>
      <trkpt lat="48.10491" lon="6.45739">
        <ele>407.5</ele>
        <time>2023-04-30T16:20:26Z</time>
      </trkpt>
      <trkpt lat="48.10491" lon="6.45729">
        <ele>408</ele>
        <time>2023-04-30T16:20:27Z</time>
      </trkpt>
      <trkpt lat="48.10491" lon="6.4572">
        <ele>408.5</ele>
        <time>2023-04-30T16:20:28Z</time>
      </trkpt>
      <trkpt lat="48.1049" lon="6.45712">
        <ele>409</ele>
        <time>2023-04-30T16:20:29Z</time>
      </trkpt>
      <trkpt lat="48.1049" lon="6.45705">
        <ele>409.4</ele>
        <time>2023-04-30T16:20:30Z</time>
      </trkpt>
      <trkpt lat="48.10489" lon="6.45698">
        <ele>409.8</ele>
        <time>2023-04-30T16:20:31Z</time>
      </trkpt>
      <trkpt lat="48.10487" lon="6.45692">
        <ele>410.1</ele>
        <time>2023-04-30T16:20:32Z</time>
      </trkpt>
      <trkpt lat="48.10485" lon="6.45686">
        <ele>410.5</ele>
        <time>2023-04-30T16:20:33Z</time>
      </trkpt>
      <trkpt lat="48.10483" lon="6.4568">
        <ele>410.8</ele>
        <time>2023-04-30T16:20:34Z</time>
      </trkpt>
      <trkpt lat="48.10481" lon="6.45673">
        <ele>411</ele>
        <time>2023-04-30T16:20:35Z</time>
      </trkpt>
      <trkpt lat="48.10479" lon="6.45667">
        <ele>411.3</ele>
        <time>2023-04-30T16:20:36Z</time>
      </trkpt>
      <trkpt lat="48.10476" lon="6.45661">
        <ele>411.5</ele>
        <time>2023-04-30T16:20:37Z</time>
      </trkpt>
      <trkpt lat="48.10474" lon="6.45654">
        <ele>411.7</ele>
        <time>2023-04-30T16:20:38Z</time>
      </trkpt>
      <trkpt lat="48.10471" lon="6.45648">
        <ele>411.8</ele>
        <time>2023-04-30T16:20:39Z</time>
      </trkpt>
      <trkpt lat="48.10469" lon="6.45642">
        <ele>411.9</ele>
        <time>2023-04-30T16:20:40Z</time>
      </trkpt>
      <trkpt lat="48.10467" lon="6.45635">
        <ele>411.9</ele>
        <time>2023-04-30T16:20:41Z</time>
      </trkpt>
      <trkpt lat="48.10464" lon="6.45629">
        <ele>411.9</ele>
        <time>2023-04-30T16:20:42Z</time>
      </trkpt>
      <trkpt lat="48.10462" lon="6.45622">
        <ele>411.9</ele>
        <time>2023-04-30T16:20:43Z</time>
      </trkpt>
      <trkpt lat="48.1046" lon="6.45614">
        <ele>411.8</ele>
        <time>2023-04-30T16:20:44Z</time>
      </trkpt>
      <trkpt lat="48.10458" lon="6.45606">
        <ele>411.7</ele>
        <time>2023-04-30T16:20:45Z</time>
      </trkpt>
      <trkpt lat="48.10455" lon="6.45598">
        <ele>411.5</ele>
        <time>2023-04-30T16:20:46Z</time>
      </trkpt>
      <trkpt lat="48.10453" lon="6.4559">
        <ele>411.3</ele>
        <time>2023-04-30T16:20:47Z</time>
      </trkpt>
      <trkpt lat="48.1045" lon="6.4558">
        <ele>411</ele>
        <time>2023-04-30T16:20:48Z</time>
      </trkpt>
      <trkpt lat="48.10447" lon="6.45571">
        <ele>410.7</ele>
        <time>2023-04-30T16:20:49Z</time>
      </trkpt>
      <trkpt lat="48.10445" lon="6.45561">
        <ele>410.4</ele>
        <time>2023-04-30T16:20:50Z</time>
      </trkpt>
      <trkpt lat="48.10442" lon="6.4555">
        <ele>410</ele>
        <time>2023-04-30T16:20:51Z</time>
      </trkpt>
      <trkpt lat="48.10439" lon="6.45539">
        <ele>409.7</ele>
        <time>2023-04-30T16:20:52Z</time>
      </trkpt>
      <trkpt lat="48.10436" lon="6.45528">
        <ele>409.4</ele>
        <time>2023-04-30T16:20:53Z</time>
      </trkpt>
      <trkpt lat="48.10433" lon="6.45517">
        <ele>409</ele>
        <time>2023-04-30T16:20:54Z</time>
      </trkpt>
      <trkpt lat="48.1043" lon="6.45505">
        <ele>408.7</ele>
        <time>2023-04-30T16:20:55Z</time>
      </trkpt>
      <trkpt lat="48.10427" lon="6.45493">
        <ele>408.3</ele>
        <time>2023-04-30T16:20:56Z</time>
      </trkpt>
      <trkpt lat="48.10424" lon="6.45481">
        <ele>408</ele>
        <time>2023-04-30T16:20:57Z</time>
      </trkpt>
      <trkpt lat="48.10421" lon="6.45469">
        <ele>407.5</ele>
        <time>2023-04-30T16:20:58Z</time>
      </trkpt>
      <trkpt lat="48.10419" lon="6.45457">
        <ele>407.1</ele>
        <time>2023-04-30T16:20:59Z</time>
      </trkpt>
      <trkpt lat="48.10416" lon="6.45444">
        <ele>406.7</ele>
        <time>2023-04-30T16:21:00Z</time>
      </trkpt>
      <trkpt lat="48.10414" lon="6.4543">
        <ele>406.2</ele>
        <time>2023-04-30T16:21:01Z</time>
      </trkpt>
      <trkpt lat="48.10413" lon="6.45416">
        <ele>405.8</ele>
        <time>2023-04-30T16:21:02Z</time>
      </trkpt>
      <trkpt lat="48.10411" lon="6.45403">
        <ele>405.5</ele>
        <time>2023-04-30T16:21:03Z</time>
      </trkpt>
      <trkpt lat="48.10409" lon="6.45389">
        <ele>405.1</ele>
        <time>2023-04-30T16:21:04Z</time>
      </trkpt>
      <trkpt lat="48.10408" lon="6.45375">
        <ele>404.8</ele>
        <time>2023-04-30T16:21:05Z</time>
      </trkpt>
      <trkpt lat="48.10406" lon="6.45361">
        <ele>404.5</ele>
        <time>2023-04-30T16:21:06Z</time>
      </trkpt>
      <trkpt lat="48.10404" lon="6.45347">
        <ele>404.2</ele>
        <time>2023-04-30T16:21:07Z</time>
      </trkpt>
      <trkpt lat="48.10404" lon="6.45332">
        <ele>403.9</ele>
        <time>2023-04-30T16:21:08Z</time>
      </trkpt>
      <trkpt lat="48.10406" lon="6.45317">
        <ele>403.7</ele>
        <time>2023-04-30T16:21:09Z</time>
      </trkpt>
      <trkpt lat="48.10409" lon="6.45303">
        <ele>403.5</ele>
        <time>2023-04-30T16:21:10Z</time>
      </trkpt>
      <trkpt lat="48.10414" lon="6.4529">
        <ele>403.3</ele>
        <time>2023-04-30T16:21:11Z</time>
      </trkpt>
      <trkpt lat="48.10419" lon="6.45277">
        <ele>403.3</ele>
        <time>2023-04-30T16:21:12Z</time>
      </trkpt>
      <trkpt lat="48.10424" lon="6.45266">
        <ele>403.3</ele>
        <time>2023-04-30T16:21:13Z</time>
      </trkpt>
      <trkpt lat="48.1043" lon="6.45255">
        <ele>403.3</ele>
        <time>2023-04-30T16:21:14Z</time>
      </trkpt>
      <trkpt lat="48.10435" lon="6.45243">
        <ele>403.3</ele>
        <time>2023-04-30T16:21:15Z</time>
      </trkpt>
      <trkpt lat="48.10439" lon="6.45232">
        <ele>403.4</ele>
        <time>2023-04-30T16:21:16Z</time>
      </trkpt>
      <trkpt lat="48.10443" lon="6.45221">
        <ele>403.4</ele>
        <time>2023-04-30T16:21:17Z</time>
      </trkpt>
      <trkpt lat="48.10447" lon="6.45209">
        <ele>403.4</ele>
        <time>2023-04-30T16:21:18Z</time>
      </trkpt>
      <trkpt lat="48.1045" lon="6.45197">
        <ele>403.4</ele>
        <time>2023-04-30T16:21:19Z</time>
      </trkpt>
      <trkpt lat="48.10452" lon="6.45185">
        <ele>403.4</ele>
        <time>2023-04-30T16:21:20Z</time>
      </trkpt>
      <trkpt lat="48.10454" lon="6.45173">
        <ele>403.5</ele>
        <time>2023-04-30T16:21:21Z</time>
      </trkpt>
      <trkpt lat="48.10456" lon="6.45161">
        <ele>403.5</ele>
        <time>2023-04-30T16:21:22Z</time>
      </trkpt>
      <trkpt lat="48.10457" lon="6.45149">
        <ele>403.6</ele>
        <time>2023-04-30T16:21:23Z</time>
      </trkpt>
      <trkpt lat="48.10458" lon="6.45137">
        <ele>403.7</ele>
        <time>2023-04-30T16:21:24Z</time>
      </trkpt>
      <trkpt lat="48.10459" lon="6.45125">
        <ele>403.7</ele>
        <time>2023-04-30T16:21:25Z</time>
      </trkpt>
      <trkpt lat="48.1046" lon="6.45113">
        <ele>403.8</ele>
        <time>2023-04-30T16:21:26Z</time>
      </trkpt>
      <trkpt lat="48.10461" lon="6.45101">
        <ele>403.9</ele>
        <time>2023-04-30T16:21:27Z</time>
      </trkpt>
      <trkpt lat="48.10462" lon="6.45089">
        <ele>404</ele>
        <time>2023-04-30T16:21:28Z</time>
      </trkpt>
      <trkpt lat="48.10462" lon="6.45077">
        <ele>404.1</ele>
        <time>2023-04-30T16:21:29Z</time>
      </trkpt>
      <trkpt lat="48.10463" lon="6.45066">
        <ele>404.2</ele>
        <time>2023-04-30T16:21:30Z</time>
      </trkpt>
      <trkpt lat="48.10464" lon="6.45054">
        <ele>404.4</ele>
        <time>2023-04-30T16:21:31Z</time>
      </trkpt>
      <trkpt lat="48.10464" lon="6.45043">
        <ele>404.6</ele>
        <time>2023-04-30T16:21:32Z</time>
      </trkpt>
      <trkpt lat="48.10464" lon="6.45033">
        <ele>404.8</ele>
        <time>2023-04-30T16:21:33Z</time>
      </trkpt>
      <trkpt lat="48.10465" lon="6.45022">
        <ele>405</ele>
        <time>2023-04-30T16:21:34Z</time>
      </trkpt>
      <trkpt lat="48.10465" lon="6.45012">
        <ele>405.2</ele>
        <time>2023-04-30T16:21:35Z</time>
      </trkpt>
      <trkpt lat="48.10464" lon="6.45002">
        <ele>405.4</ele>
        <time>2023-04-30T16:21:36Z</time>
      </trkpt>
      <trkpt lat="48.10464" lon="6.44992">
        <ele>405.6</ele>
        <time>2023-04-30T16:21:37Z</time>
      </trkpt>
      <trkpt lat="48.10464" lon="6.44982">
        <ele>405.8</ele>
        <time>2023-04-30T16:21:38Z</time>
      </trkpt>
      <trkpt lat="48.10464" lon="6.44973">
        <ele>406</ele>
        <time>2023-04-30T16:21:39Z</time>
      </trkpt>
      <trkpt lat="48.10465" lon="6.44963">
        <ele>406.2</ele>
        <time>2023-04-30T16:21:40Z</time>
      </trkpt>
      <trkpt lat="48.10465" lon="6.44954">
        <ele>406.3</ele>
        <time>2023-04-30T16:21:41Z</time>
      </trkpt>
      <trkpt lat="48.10465" lon="6.44945">
        <ele>406.5</ele>
        <time>2023-04-30T16:21:42Z</time>
      </trkpt>
      <trkpt lat="48.10465" lon="6.44936">
        <ele>406.5</ele>
        <time>2023-04-30T16:21:43Z</time>
      </trkpt>
      <trkpt lat="48.10465" lon="6.44927">
        <ele>406.6</ele>
        <time>2023-04-30T16:21:44Z</time>
      </trkpt>
      <trkpt lat="48.10465" lon="6.44919">
        <ele>406.6</ele>
        <time>2023-04-30T16:21:45Z</time>
      </trkpt>
      <trkpt lat="48.10464" lon="6.4491">
        <ele>406.7</ele>
        <time>2023-04-30T16:21:46Z</time>
      </trkpt>
      <trkpt lat="48.10464" lon="6.449">
        <ele>406.7</ele>
        <time>2023-04-30T16:21:47Z</time>
      </trkpt>
      <trkpt lat="48.10463" lon="6.44891">
        <ele>406.7</ele>
        <time>2023-04-30T16:21:48Z</time>
      </trkpt>
      <trkpt lat="48.10464" lon="6.44882">
        <ele>406.7</ele>
        <time>2023-04-30T16:21:49Z</time>
      </trkpt>
      <trkpt lat="48.10464" lon="6.44872">
        <ele>406.6</ele>
        <time>2023-04-30T16:21:50Z</time>
      </trkpt>
      <trkpt lat="48.10465" lon="6.44863">
        <ele>406.6</ele>
        <time>2023-04-30T16:21:51Z</time>
      </trkpt>
      <trkpt lat="48.10465" lon="6.44853">
        <ele>406.6</ele>
        <time>2023-04-30T16:21:52Z</time>
      </trkpt>
      <trkpt lat="48.10466" lon="6.44843">
        <ele>406.6</ele>
        <time>2023-04-30T16:21:53Z</time>
      </trkpt>
      <trkpt lat="48.10467" lon="6.44832">
        <ele>406.6</ele>
        <time>2023-04-30T16:21:54Z</time>
      </trkpt>
      <trkpt lat="48.10468" lon="6.44822">
        <ele>406.6</ele>
        <time>2023-04-30T16:21:55Z</time>
      </trkpt>
      <trkpt lat="48.10469" lon="6.44812">
        <ele>406.7</ele>
        <time>2023-04-30T16:21:56Z</time>
      </trkpt>
      <trkpt lat="48.1047" lon="6.44802">
        <ele>406.8</ele>
        <time>2023-04-30T16:21:57Z</time>
      </trkpt>
      <trkpt lat="48.10471" lon="6.44792">
        <ele>406.8</ele>
        <time>2023-04-30T16:21:58Z</time>
      </trkpt>
      <trkpt lat="48.10472" lon="6.44781">
        <ele>406.9</ele>
        <time>2023-04-30T16:21:59Z</time>
      </trkpt>
      <trkpt lat="48.10472" lon="6.44771">
        <ele>407</ele>
        <time>2023-04-30T16:22:00Z</time>
      </trkpt>
      <trkpt lat="48.10473" lon="6.44761">
        <ele>407.1</ele>
        <time>2023-04-30T16:22:01Z</time>
      </trkpt>
      <trkpt lat="48.10474" lon="6.44751">
        <ele>407.3</ele>
        <time>2023-04-30T16:22:02Z</time>
      </trkpt>
      <trkpt lat="48.10474" lon="6.44741">
        <ele>407.4</ele>
        <time>2023-04-30T16:22:03Z</time>
      </trkpt>
      <trkpt lat="48.10474" lon="6.44731">
        <ele>407.6</ele>
        <time>2023-04-30T16:22:04Z</time>
      </trkpt>
      <trkpt lat="48.10474" lon="6.44721">
        <ele>407.8</ele>
        <time>2023-04-30T16:22:05Z</time>
      </trkpt>
      <trkpt lat="48.10474" lon="6.44711">
        <ele>408</ele>
        <time>2023-04-30T16:22:06Z</time>
      </trkpt>
      <trkpt lat="48.10475" lon="6.44702">
        <ele>408.1</ele>
        <time>2023-04-30T16:22:07Z</time>
      </trkpt>
      <trkpt lat="48.10475" lon="6.44691">
        <ele>408.3</ele>
        <time>2023-04-30T16:22:08Z</time>
      </trkpt>
      <trkpt lat="48.10475" lon="6.44681">
        <ele>408.4</ele>
        <time>2023-04-30T16:22:09Z</time>
      </trkpt>
      <trkpt lat="48.10476" lon="6.44671">
        <ele>408.6</ele>
        <time>2023-04-30T16:22:10Z</time>
      </trkpt>
      <trkpt lat="48.10476" lon="6.44662">
        <ele>408.7</ele>
        <time>2023-04-30T16:22:11Z</time>
      </trkpt>
      <trkpt lat="48.10476" lon="6.44653">
        <ele>408.8</ele>
        <time>2023-04-30T16:22:12Z</time>
      </trkpt>
      <trkpt lat="48.10477" lon="6.44644">
        <ele>409</ele>
        <time>2023-04-30T16:22:13Z</time>
      </trkpt>
      <trkpt lat="48.10478" lon="6.44635">
        <ele>409.1</ele>
        <time>2023-04-30T16:22:14Z</time>
      </trkpt>
      <trkpt lat="48.10479" lon="6.44626">
        <ele>409.3</ele>
        <time>2023-04-30T16:22:15Z</time>
      </trkpt>
      <trkpt lat="48.1048" lon="6.44617">
        <ele>409.4</ele>
        <time>2023-04-30T16:22:16Z</time>
      </trkpt>
      <trkpt lat="48.10481" lon="6.44608">
        <ele>409.6</ele>
        <time>2023-04-30T16:22:17Z</time>
      </trkpt>
      <trkpt lat="48.10481" lon="6.446">
        <ele>409.7</ele>
        <time>2023-04-30T16:22:18Z</time>
      </trkpt>
      <trkpt lat="48.10482" lon="6.44592">
        <ele>409.9</ele>
        <time>2023-04-30T16:22:19Z</time>
      </trkpt>
      <trkpt lat="48.10483" lon="6.44583">
        <ele>410</ele>
        <time>2023-04-30T16:22:20Z</time>
      </trkpt>
      <trkpt lat="48.10483" lon="6.44574">
        <ele>410.2</ele>
        <time>2023-04-30T16:22:21Z</time>
      </trkpt>
      <trkpt lat="48.10484" lon="6.44565">
        <ele>410.3</ele>
        <time>2023-04-30T16:22:22Z</time>
      </trkpt>
      <trkpt lat="48.10485" lon="6.44557">
        <ele>410.4</ele>
        <time>2023-04-30T16:22:23Z</time>
      </trkpt>
      <trkpt lat="48.10486" lon="6.44549">
        <ele>410.6</ele>
        <time>2023-04-30T16:22:24Z</time>
      </trkpt>
      <trkpt lat="48.10487" lon="6.44542">
        <ele>410.7</ele>
        <time>2023-04-30T16:22:25Z</time>
      </trkpt>
      <trkpt lat="48.10488" lon="6.44534">
        <ele>410.9</ele>
        <time>2023-04-30T16:22:26Z</time>
      </trkpt>
      <trkpt lat="48.10489" lon="6.44527">
        <ele>411</ele>
        <time>2023-04-30T16:22:27Z</time>
      </trkpt>
      <trkpt lat="48.10489" lon="6.4452">
        <ele>411.1</ele>
        <time>2023-04-30T16:22:28Z</time>
      </trkpt>
      <trkpt lat="48.1049" lon="6.44512">
        <ele>411.3</ele>
        <time>2023-04-30T16:22:29Z</time>
      </trkpt>
      <trkpt lat="48.10491" lon="6.44506">
        <ele>411.4</ele>
        <time>2023-04-30T16:22:30Z</time>
      </trkpt>
      <trkpt lat="48.10491" lon="6.44499">
        <ele>411.5</ele>
        <time>2023-04-30T16:22:31Z</time>
      </trkpt>
      <trkpt lat="48.10491" lon="6.44492">
        <ele>411.7</ele>
        <time>2023-04-30T16:22:32Z</time>
      </trkpt>
      <trkpt lat="48.10492" lon="6.44485">
        <ele>411.8</ele>
        <time>2023-04-30T16:22:33Z</time>
      </trkpt>
      <trkpt lat="48.10492" lon="6.4448">
        <ele>411.9</ele>
        <time>2023-04-30T16:22:34Z</time>
      </trkpt>
      <trkpt lat="48.10492" lon="6.44474">
        <ele>412.1</ele>
        <time>2023-04-30T16:22:35Z</time>
      </trkpt>
      <trkpt lat="48.10493" lon="6.44469">
        <ele>412.2</ele>
        <time>2023-04-30T16:22:36Z</time>
      </trkpt>
      <trkpt lat="48.10495" lon="6.44463">
        <ele>412.3</ele>
        <time>2023-04-30T16:22:37Z</time>
      </trkpt>
      <trkpt lat="48.10497" lon="6.44457">
        <ele>412.5</ele>
        <time>2023-04-30T16:22:38Z</time>
      </trkpt>
      <trkpt lat="48.10499" lon="6.4445">
        <ele>412.7</ele>
        <time>2023-04-30T16:22:39Z</time>
      </trkpt>
      <trkpt lat="48.10501" lon="6.44446">
        <ele>412.8</ele>
        <time>2023-04-30T16:22:40Z</time>
      </trkpt>
      <trkpt lat="48.10504" lon="6.44444">
        <ele>413</ele>
        <time>2023-04-30T16:22:41Z</time>
      </trkpt>
      <trkpt lat="48.10507" lon="6.44437">
        <ele>413.2</ele>
        <time>2023-04-30T16:22:42Z</time>
      </trkpt>
      <trkpt lat="48.10509" lon="6.4443">
        <ele>413.2</ele>
        <time>2023-04-30T16:22:43Z</time>
      </trkpt>
      <trkpt lat="48.10511" lon="6.44424">
        <ele>413.3</ele>
        <time>2023-04-30T16:22:45Z</time>
      </trkpt>
      <trkpt lat="48.10511" lon="6.44419">
        <ele>413.3</ele>
        <time>2023-04-30T16:22:46Z</time>
      </trkpt>
      <trkpt lat="48.10512" lon="6.44412">
        <ele>413.3</ele>
        <time>2023-04-30T16:22:47Z</time>
      </trkpt>
      <trkpt lat="48.10513" lon="6.44405">
        <ele>413.3</ele>
        <time>2023-04-30T16:22:48Z</time>
      </trkpt>
      <trkpt lat="48.10515" lon="6.44399">
        <ele>413.3</ele>
        <time>2023-04-30T16:22:49Z</time>
      </trkpt>
      <trkpt lat="48.10517" lon="6.44391">
        <ele>413.3</ele>
        <time>2023-04-30T16:22:51Z</time>
      </trkpt>
      <trkpt lat="48.1052" lon="6.44385">
        <ele>413.3</ele>
        <time>2023-04-30T16:22:52Z</time>
      </trkpt>
      <trkpt lat="48.10522" lon="6.44378">
        <ele>413.3</ele>
        <time>2023-04-30T16:22:53Z</time>
      </trkpt>
      <trkpt lat="48.10524" lon="6.44372">
        <ele>413.3</ele>
        <time>2023-04-30T16:22:54Z</time>
      </trkpt>
      <trkpt lat="48.10527" lon="6.44365">
        <ele>413.2</ele>
        <time>2023-04-30T16:22:55Z</time>
      </trkpt>
      <trkpt lat="48.1053" lon="6.44359">
        <ele>413.2</ele>
        <time>2023-04-30T16:22:56Z</time>
      </trkpt>
      <trkpt lat="48.10532" lon="6.44352">
        <ele>413.2</ele>
        <time>2023-04-30T16:22:57Z</time>
      </trkpt>
      <trkpt lat="48.10535" lon="6.44345">
        <ele>413.2</ele>
        <time>2023-04-30T16:22:58Z</time>
      </trkpt>
      <trkpt lat="48.10538" lon="6.44338">
        <ele>413.2</ele>
        <time>2023-04-30T16:22:59Z</time>
      </trkpt>
      <trkpt lat="48.10541" lon="6.44331">
        <ele>413.2</ele>
        <time>2023-04-30T16:23:00Z</time>
      </trkpt>
      <trkpt lat="48.10543" lon="6.44325">
        <ele>413.2</ele>
        <time>2023-04-30T16:23:01Z</time>
      </trkpt>
      <trkpt lat="48.10546" lon="6.44318">
        <ele>413.2</ele>
        <time>2023-04-30T16:23:02Z</time>
      </trkpt>
      <trkpt lat="48.10549" lon="6.44311">
        <ele>413.2</ele>
        <time>2023-04-30T16:23:03Z</time>
      </trkpt>
      <trkpt lat="48.10552" lon="6.44304">
        <ele>413.2</ele>
        <time>2023-04-30T16:23:04Z</time>
      </trkpt>
      <trkpt lat="48.10555" lon="6.44296">
        <ele>413.2</ele>
        <time>2023-04-30T16:23:05Z</time>
      </trkpt>
      <trkpt lat="48.10558" lon="6.44288">
        <ele>413.3</ele>
        <time>2023-04-30T16:23:06Z</time>
      </trkpt>
      <trkpt lat="48.10561" lon="6.44281">
        <ele>413.3</ele>
        <time>2023-04-30T16:23:07Z</time>
      </trkpt>
      <trkpt lat="48.10563" lon="6.44274">
        <ele>413.3</ele>
        <time>2023-04-30T16:23:08Z</time>
      </trkpt>
      <trkpt lat="48.10566" lon="6.44266">
        <ele>413.3</ele>
        <time>2023-04-30T16:23:09Z</time>
      </trkpt>
      <trkpt lat="48.10569" lon="6.44259">
        <ele>413.4</ele>
        <time>2023-04-30T16:23:10Z</time>
      </trkpt>
      <trkpt lat="48.10571" lon="6.44252">
        <ele>413.4</ele>
        <time>2023-04-30T16:23:11Z</time>
      </trkpt>
      <trkpt lat="48.10573" lon="6.44245">
        <ele>413.5</ele>
        <time>2023-04-30T16:23:12Z</time>
      </trkpt>
      <trkpt lat="48.10576" lon="6.44238">
        <ele>413.5</ele>
        <time>2023-04-30T16:23:13Z</time>
      </trkpt>
      <trkpt lat="48.10579" lon="6.4423">
        <ele>413.6</ele>
        <time>2023-04-30T16:23:14Z</time>
      </trkpt>
      <trkpt lat="48.10582" lon="6.44222">
        <ele>413.7</ele>
        <time>2023-04-30T16:23:15Z</time>
      </trkpt>
      <trkpt lat="48.10584" lon="6.44213">
        <ele>413.8</ele>
        <time>2023-04-30T16:23:16Z</time>
      </trkpt>
      <trkpt lat="48.10586" lon="6.44205">
        <ele>413.9</ele>
        <time>2023-04-30T16:23:17Z</time>
      </trkpt>
      <trkpt lat="48.10589" lon="6.44197">
        <ele>413.9</ele>
        <time>2023-04-30T16:23:18Z</time>
      </trkpt>
      <trkpt lat="48.10592" lon="6.44189">
        <ele>414</ele>
        <time>2023-04-30T16:23:19Z</time>
      </trkpt>
      <trkpt lat="48.10594" lon="6.44181">
        <ele>414.1</ele>
        <time>2023-04-30T16:23:20Z</time>
      </trkpt>
      <trkpt lat="48.10597" lon="6.44173">
        <ele>414.2</ele>
        <time>2023-04-30T16:23:21Z</time>
      </trkpt>
      <trkpt lat="48.106" lon="6.44165">
        <ele>414.3</ele>
        <time>2023-04-30T16:23:22Z</time>
      </trkpt>
      <trkpt lat="48.10602" lon="6.44157">
        <ele>414.3</ele>
        <time>2023-04-30T16:23:23Z</time>
      </trkpt>
      <trkpt lat="48.10604" lon="6.44149">
        <ele>414.4</ele>
        <time>2023-04-30T16:23:24Z</time>
      </trkpt>
      <trkpt lat="48.10607" lon="6.44141">
        <ele>414.4</ele>
        <time>2023-04-30T16:23:25Z</time>
      </trkpt>
      <trkpt lat="48.10609" lon="6.44133">
        <ele>414.5</ele>
        <time>2023-04-30T16:23:26Z</time>
      </trkpt>
      <trkpt lat="48.10611" lon="6.44125">
        <ele>414.5</ele>
        <time>2023-04-30T16:23:27Z</time>
      </trkpt>
      <trkpt lat="48.10614" lon="6.44117">
        <ele>414.6</ele>
        <time>2023-04-30T16:23:28Z</time>
      </trkpt>
      <trkpt lat="48.10616" lon="6.44109">
        <ele>414.6</ele>
        <time>2023-04-30T16:23:29Z</time>
      </trkpt>
      <trkpt lat="48.10618" lon="6.44101">
        <ele>414.7</ele>
        <time>2023-04-30T16:23:30Z</time>
      </trkpt>
      <trkpt lat="48.1062" lon="6.44093">
        <ele>414.7</ele>
        <time>2023-04-30T16:23:31Z</time>
      </trkpt>
      <trkpt lat="48.10622" lon="6.44085">
        <ele>414.7</ele>
        <time>2023-04-30T16:23:32Z</time>
      </trkpt>
      <trkpt lat="48.10624" lon="6.44077">
        <ele>414.7</ele>
        <time>2023-04-30T16:23:33Z</time>
      </trkpt>
      <trkpt lat="48.10625" lon="6.44068">
        <ele>414.7</ele>
        <time>2023-04-30T16:23:34Z</time>
      </trkpt>
      <trkpt lat="48.10627" lon="6.44059">
        <ele>414.7</ele>
        <time>2023-04-30T16:23:35Z</time>
      </trkpt>
      <trkpt lat="48.10628" lon="6.4405">
        <ele>414.8</ele>
        <time>2023-04-30T16:23:36Z</time>
      </trkpt>
      <trkpt lat="48.10629" lon="6.44041">
        <ele>414.8</ele>
        <time>2023-04-30T16:23:37Z</time>
      </trkpt>
      <trkpt lat="48.10631" lon="6.44033">
        <ele>414.8</ele>
        <time>2023-04-30T16:23:38Z</time>
      </trkpt>
      <trkpt lat="48.10632" lon="6.44024">
        <ele>414.8</ele>
        <time>2023-04-30T16:23:39Z</time>
      </trkpt>
      <trkpt lat="48.10633" lon="6.44015">
        <ele>414.8</ele>
        <time>2023-04-30T16:23:40Z</time>
      </trkpt>
      <trkpt lat="48.10635" lon="6.44007">
        <ele>414.8</ele>
        <time>2023-04-30T16:23:41Z</time>
      </trkpt>
      <trkpt lat="48.10636" lon="6.43998">
        <ele>414.8</ele>
        <time>2023-04-30T16:23:42Z</time>
      </trkpt>
      <trkpt lat="48.10637" lon="6.43989">
        <ele>414.8</ele>
        <time>2023-04-30T16:23:43Z</time>
      </trkpt>
      <trkpt lat="48.10639" lon="6.4398">
        <ele>414.8</ele>
        <time>2023-04-30T16:23:44Z</time>
      </trkpt>
      <trkpt lat="48.1064" lon="6.43971">
        <ele>414.8</ele>
        <time>2023-04-30T16:23:45Z</time>
      </trkpt>
      <trkpt lat="48.10641" lon="6.43962">
        <ele>414.8</ele>
        <time>2023-04-30T16:23:46Z</time>
      </trkpt>
      <trkpt lat="48.10643" lon="6.43953">
        <ele>414.8</ele>
        <time>2023-04-30T16:23:47Z</time>
      </trkpt>
      <trkpt lat="48.10644" lon="6.43944">
        <ele>414.7</ele>
        <time>2023-04-30T16:23:48Z</time>
      </trkpt>
      <trkpt lat="48.10645" lon="6.43934">
        <ele>414.6</ele>
        <time>2023-04-30T16:23:49Z</time>
      </trkpt>
      <trkpt lat="48.10646" lon="6.43925">
        <ele>414.5</ele>
        <time>2023-04-30T16:23:50Z</time>
      </trkpt>
      <trkpt lat="48.10647" lon="6.43915">
        <ele>414.4</ele>
        <time>2023-04-30T16:23:51Z</time>
      </trkpt>
      <trkpt lat="48.10648" lon="6.43905">
        <ele>414.4</ele>
        <time>2023-04-30T16:23:52Z</time>
      </trkpt>
      <trkpt lat="48.10648" lon="6.43895">
        <ele>414.3</ele>
        <time>2023-04-30T16:23:53Z</time>
      </trkpt>
      <trkpt lat="48.10649" lon="6.43886">
        <ele>414.3</ele>
        <time>2023-04-30T16:23:54Z</time>
      </trkpt>
      <trkpt lat="48.10649" lon="6.43876">
        <ele>414.3</ele>
        <time>2023-04-30T16:23:55Z</time>
      </trkpt>
      <trkpt lat="48.10649" lon="6.43867">
        <ele>414.3</ele>
        <time>2023-04-30T16:23:56Z</time>
      </trkpt>
      <trkpt lat="48.1065" lon="6.43858">
        <ele>414.3</ele>
        <time>2023-04-30T16:23:57Z</time>
      </trkpt>
      <trkpt lat="48.1065" lon="6.43848">
        <ele>414.3</ele>
        <time>2023-04-30T16:23:58Z</time>
      </trkpt>
      <trkpt lat="48.10651" lon="6.43838">
        <ele>414.3</ele>
        <time>2023-04-30T16:23:59Z</time>
      </trkpt>
      <trkpt lat="48.10651" lon="6.43829">
        <ele>414.3</ele>
        <time>2023-04-30T16:24:00Z</time>
      </trkpt>
      <trkpt lat="48.10652" lon="6.43819">
        <ele>414.3</ele>
        <time>2023-04-30T16:24:01Z</time>
      </trkpt>
      <trkpt lat="48.10652" lon="6.43809">
        <ele>414.4</ele>
        <time>2023-04-30T16:24:02Z</time>
      </trkpt>
      <trkpt lat="48.10653" lon="6.43799">
        <ele>414.4</ele>
        <time>2023-04-30T16:24:03Z</time>
      </trkpt>
      <trkpt lat="48.10654" lon="6.4379">
        <ele>414.5</ele>
        <time>2023-04-30T16:24:04Z</time>
      </trkpt>
      <trkpt lat="48.10655" lon="6.4378">
        <ele>414.5</ele>
        <time>2023-04-30T16:24:05Z</time>
      </trkpt>
      <trkpt lat="48.10657" lon="6.43771">
        <ele>414.5</ele>
        <time>2023-04-30T16:24:06Z</time>
      </trkpt>
      <trkpt lat="48.10658" lon="6.43761">
        <ele>414.6</ele>
        <time>2023-04-30T16:24:07Z</time>
      </trkpt>
      <trkpt lat="48.10659" lon="6.43752">
        <ele>414.7</ele>
        <time>2023-04-30T16:24:08Z</time>
      </trkpt>
      <trkpt lat="48.1066" lon="6.43743">
        <ele>414.8</ele>
        <time>2023-04-30T16:24:09Z</time>
      </trkpt>
      <trkpt lat="48.10661" lon="6.43733">
        <ele>414.8</ele>
        <time>2023-04-30T16:24:10Z</time>
      </trkpt>
      <trkpt lat="48.10662" lon="6.43724">
        <ele>414.9</ele>
        <time>2023-04-30T16:24:11Z</time>
      </trkpt>
      <trkpt lat="48.10663" lon="6.43715">
        <ele>414.9</ele>
        <time>2023-04-30T16:24:12Z</time>
      </trkpt>
      <trkpt lat="48.10664" lon="6.43706">
        <ele>415</ele>
        <time>2023-04-30T16:24:13Z</time>
      </trkpt>
      <trkpt lat="48.10666" lon="6.43697">
        <ele>415.1</ele>
        <time>2023-04-30T16:24:14Z</time>
      </trkpt>
      <trkpt lat="48.10667" lon="6.43688">
        <ele>415.2</ele>
        <time>2023-04-30T16:24:15Z</time>
      </trkpt>
      <trkpt lat="48.10669" lon="6.43679">
        <ele>415.3</ele>
        <time>2023-04-30T16:24:16Z</time>
      </trkpt>
      <trkpt lat="48.10669" lon="6.4367">
        <ele>415.5</ele>
        <time>2023-04-30T16:24:17Z</time>
      </trkpt>
      <trkpt lat="48.10669" lon="6.43661">
        <ele>415.6</ele>
        <time>2023-04-30T16:24:18Z</time>
      </trkpt>
      <trkpt lat="48.10668" lon="6.43653">
        <ele>415.8</ele>
        <time>2023-04-30T16:24:19Z</time>
      </trkpt>
      <trkpt lat="48.10665" lon="6.43645">
        <ele>415.9</ele>
        <time>2023-04-30T16:24:20Z</time>
      </trkpt>
      <trkpt lat="48.10661" lon="6.43637">
        <ele>415.9</ele>
        <time>2023-04-30T16:24:21Z</time>
      </trkpt>
      <trkpt lat="48.10656" lon="6.4363">
        <ele>415.9</ele>
        <time>2023-04-30T16:24:22Z</time>
      </trkpt>
      <trkpt lat="48.1065" lon="6.43625">
        <ele>415.9</ele>
        <time>2023-04-30T16:24:23Z</time>
      </trkpt>
      <trkpt lat="48.10643" lon="6.43622">
        <ele>415.9</ele>
        <time>2023-04-30T16:24:24Z</time>
      </trkpt>
      <trkpt lat="48.10636" lon="6.43619">
        <ele>415.8</ele>
        <time>2023-04-30T16:24:25Z</time>
      </trkpt>
      <trkpt lat="48.10629" lon="6.43616">
        <ele>415.8</ele>
        <time>2023-04-30T16:24:26Z</time>
      </trkpt>
      <trkpt lat="48.10623" lon="6.43613">
        <ele>415.8</ele>
        <time>2023-04-30T16:24:27Z</time>
      </trkpt>
      <trkpt lat="48.10616" lon="6.4361">
        <ele>415.9</ele>
        <time>2023-04-30T16:24:28Z</time>
      </trkpt>
      <trkpt lat="48.10609" lon="6.43608">
        <ele>415.9</ele>
        <time>2023-04-30T16:24:29Z</time>
      </trkpt>
      <trkpt lat="48.10603" lon="6.43605">
        <ele>416</ele>
        <time>2023-04-30T16:24:30Z</time>
      </trkpt>
      <trkpt lat="48.10597" lon="6.43601">
        <ele>416.1</ele>
        <time>2023-04-30T16:24:31Z</time>
      </trkpt>
      <trkpt lat="48.10591" lon="6.43597">
        <ele>416.2</ele>
        <time>2023-04-30T16:24:32Z</time>
      </trkpt>
      <trkpt lat="48.10585" lon="6.43592">
        <ele>416.3</ele>
        <time>2023-04-30T16:24:33Z</time>
      </trkpt>
      <trkpt lat="48.10579" lon="6.43586">
        <ele>416.4</ele>
        <time>2023-04-30T16:24:34Z</time>
      </trkpt>
      <trkpt lat="48.10574" lon="6.4358">
        <ele>416.5</ele>
        <time>2023-04-30T16:24:35Z</time>
      </trkpt>
      <trkpt lat="48.1057" lon="6.43572">
        <ele>416.6</ele>
        <time>2023-04-30T16:24:36Z</time>
      </trkpt>
      <trkpt lat="48.10566" lon="6.43565">
        <ele>416.6</ele>
        <time>2023-04-30T16:24:37Z</time>
      </trkpt>
      <trkpt lat="48.10563" lon="6.43557">
        <ele>416.7</ele>
        <time>2023-04-30T16:24:38Z</time>
      </trkpt>
      <trkpt lat="48.10559" lon="6.4355">
        <ele>416.8</ele>
        <time>2023-04-30T16:24:39Z</time>
      </trkpt>
      <trkpt lat="48.10556" lon="6.43542">
        <ele>416.9</ele>
        <time>2023-04-30T16:24:40Z</time>
      </trkpt>
      <trkpt lat="48.10553" lon="6.43534">
        <ele>417</ele>
        <time>2023-04-30T16:24:41Z</time>
      </trkpt>
      <trkpt lat="48.1055" lon="6.43525">
        <ele>417.1</ele>
        <time>2023-04-30T16:24:42Z</time>
      </trkpt>
      <trkpt lat="48.10547" lon="6.43517">
        <ele>417.1</ele>
        <time>2023-04-30T16:24:43Z</time>
      </trkpt>
      <trkpt lat="48.10544" lon="6.43509">
        <ele>417.2</ele>
        <time>2023-04-30T16:24:44Z</time>
      </trkpt>
      <trkpt lat="48.10541" lon="6.43501">
        <ele>417.3</ele>
        <time>2023-04-30T16:24:45Z</time>
      </trkpt>
      <trkpt lat="48.10538" lon="6.43493">
        <ele>417.4</ele>
        <time>2023-04-30T16:24:46Z</time>
      </trkpt>
      <trkpt lat="48.10536" lon="6.43485">
        <ele>417.6</ele>
        <time>2023-04-30T16:24:47Z</time>
      </trkpt>
      <trkpt lat="48.10533" lon="6.43477">
        <ele>417.7</ele>
        <time>2023-04-30T16:24:48Z</time>
      </trkpt>
      <trkpt lat="48.10531" lon="6.43469">
        <ele>417.8</ele>
        <time>2023-04-30T16:24:49Z</time>
      </trkpt>
      <trkpt lat="48.10528" lon="6.43461">
        <ele>418</ele>
        <time>2023-04-30T16:24:50Z</time>
      </trkpt>
      <trkpt lat="48.10525" lon="6.43453">
        <ele>418.1</ele>
        <time>2023-04-30T16:24:51Z</time>
      </trkpt>
      <trkpt lat="48.10522" lon="6.43445">
        <ele>418.3</ele>
        <time>2023-04-30T16:24:52Z</time>
      </trkpt>
      <trkpt lat="48.10519" lon="6.43437">
        <ele>418.4</ele>
        <time>2023-04-30T16:24:53Z</time>
      </trkpt>
      <trkpt lat="48.10517" lon="6.43429">
        <ele>418.5</ele>
        <time>2023-04-30T16:24:54Z</time>
      </trkpt>
      <trkpt lat="48.10514" lon="6.4342">
        <ele>418.6</ele>
        <time>2023-04-30T16:24:55Z</time>
      </trkpt>
      <trkpt lat="48.10512" lon="6.43412">
        <ele>418.7</ele>
        <time>2023-04-30T16:24:56Z</time>
      </trkpt>
      <trkpt lat="48.10509" lon="6.43404">
        <ele>418.8</ele>
        <time>2023-04-30T16:24:57Z</time>
      </trkpt>
      <trkpt lat="48.10507" lon="6.43395">
        <ele>419</ele>
        <time>2023-04-30T16:24:58Z</time>
      </trkpt>
      <trkpt lat="48.10505" lon="6.43386">
        <ele>419</ele>
        <time>2023-04-30T16:24:59Z</time>
      </trkpt>
      <trkpt lat="48.10503" lon="6.43377">
        <ele>419.1</ele>
        <time>2023-04-30T16:25:00Z</time>
      </trkpt>
      <trkpt lat="48.10502" lon="6.43368">
        <ele>419.2</ele>
        <time>2023-04-30T16:25:01Z</time>
      </trkpt>
      <trkpt lat="48.105" lon="6.43359">
        <ele>419.3</ele>
        <time>2023-04-30T16:25:02Z</time>
      </trkpt>
      <trkpt lat="48.10499" lon="6.4335">
        <ele>419.4</ele>
        <time>2023-04-30T16:25:03Z</time>
      </trkpt>
      <trkpt lat="48.10497" lon="6.43342">
        <ele>419.5</ele>
        <time>2023-04-30T16:25:04Z</time>
      </trkpt>
      <trkpt lat="48.10495" lon="6.43333">
        <ele>419.5</ele>
        <time>2023-04-30T16:25:05Z</time>
      </trkpt>
      <trkpt lat="48.10494" lon="6.43325">
        <ele>419.6</ele>
        <time>2023-04-30T16:25:06Z</time>
      </trkpt>
      <trkpt lat="48.10492" lon="6.43316">
        <ele>419.6</ele>
        <time>2023-04-30T16:25:07Z</time>
      </trkpt>
      <trkpt lat="48.1049" lon="6.43308">
        <ele>419.6</ele>
        <time>2023-04-30T16:25:08Z</time>
      </trkpt>
      <trkpt lat="48.10487" lon="6.43301">
        <ele>419.6</ele>
        <time>2023-04-30T16:25:09Z</time>
      </trkpt>
      <trkpt lat="48.10485" lon="6.43293">
        <ele>419.6</ele>
        <time>2023-04-30T16:25:10Z</time>
      </trkpt>
      <trkpt lat="48.10483" lon="6.43285">
        <ele>419.6</ele>
        <time>2023-04-30T16:25:11Z</time>
      </trkpt>
      <trkpt lat="48.10479" lon="6.43277">
        <ele>419.5</ele>
        <time>2023-04-30T16:25:12Z</time>
      </trkpt>
      <trkpt lat="48.10476" lon="6.43269">
        <ele>419.5</ele>
        <time>2023-04-30T16:25:13Z</time>
      </trkpt>
      <trkpt lat="48.10472" lon="6.43261">
        <ele>419.4</ele>
        <time>2023-04-30T16:25:14Z</time>
      </trkpt>
      <trkpt lat="48.10469" lon="6.43252">
        <ele>419.2</ele>
        <time>2023-04-30T16:25:15Z</time>
      </trkpt>
      <trkpt lat="48.10465" lon="6.43243">
        <ele>419.1</ele>
        <time>2023-04-30T16:25:16Z</time>
      </trkpt>
      <trkpt lat="48.10461" lon="6.43234">
        <ele>419</ele>
        <time>2023-04-30T16:25:17Z</time>
      </trkpt>
      <trkpt lat="48.10457" lon="6.43225">
        <ele>418.8</ele>
        <time>2023-04-30T16:25:18Z</time>
      </trkpt>
      <trkpt lat="48.10453" lon="6.43215">
        <ele>418.6</ele>
        <time>2023-04-30T16:25:19Z</time>
      </trkpt>
      <trkpt lat="48.10449" lon="6.43206">
        <ele>418.4</ele>
        <time>2023-04-30T16:25:20Z</time>
      </trkpt>
      <trkpt lat="48.10444" lon="6.43196">
        <ele>418.3</ele>
        <time>2023-04-30T16:25:21Z</time>
      </trkpt>
      <trkpt lat="48.1044" lon="6.43186">
        <ele>418.1</ele>
        <time>2023-04-30T16:25:22Z</time>
      </trkpt>
      <trkpt lat="48.10435" lon="6.43175">
        <ele>417.8</ele>
        <time>2023-04-30T16:25:23Z</time>
      </trkpt>
      <trkpt lat="48.10431" lon="6.43165">
        <ele>417.6</ele>
        <time>2023-04-30T16:25:24Z</time>
      </trkpt>
      <trkpt lat="48.10426" lon="6.43155">
        <ele>417.3</ele>
        <time>2023-04-30T16:25:25Z</time>
      </trkpt>
      <trkpt lat="48.10421" lon="6.43144">
        <ele>416.9</ele>
        <time>2023-04-30T16:25:26Z</time>
      </trkpt>
      <trkpt lat="48.10416" lon="6.43133">
        <ele>416.5</ele>
        <time>2023-04-30T16:25:27Z</time>
      </trkpt>
      <trkpt lat="48.10411" lon="6.43122">
        <ele>416.1</ele>
        <time>2023-04-30T16:25:28Z</time>
      </trkpt>
      <trkpt lat="48.10405" lon="6.43111">
        <ele>415.7</ele>
        <time>2023-04-30T16:25:29Z</time>
      </trkpt>
      <trkpt lat="48.10399" lon="6.43099">
        <ele>415.3</ele>
        <time>2023-04-30T16:25:30Z</time>
      </trkpt>
      <trkpt lat="48.10394" lon="6.43088">
        <ele>414.8</ele>
        <time>2023-04-30T16:25:31Z</time>
      </trkpt>
      <trkpt lat="48.10388" lon="6.43076">
        <ele>414.4</ele>
        <time>2023-04-30T16:25:32Z</time>
      </trkpt>
      <trkpt lat="48.10384" lon="6.43063">
        <ele>413.9</ele>
        <time>2023-04-30T16:25:33Z</time>
      </trkpt>
      <trkpt lat="48.1038" lon="6.4305">
        <ele>413.4</ele>
        <time>2023-04-30T16:25:34Z</time>
      </trkpt>
      <trkpt lat="48.10376" lon="6.43036">
        <ele>412.9</ele>
        <time>2023-04-30T16:25:35Z</time>
      </trkpt>
      <trkpt lat="48.10372" lon="6.43022">
        <ele>412.3</ele>
        <time>2023-04-30T16:25:36Z</time>
      </trkpt>
      <trkpt lat="48.10369" lon="6.43008">
        <ele>411.7</ele>
        <time>2023-04-30T16:25:37Z</time>
      </trkpt>
      <trkpt lat="48.10366" lon="6.42994">
        <ele>411.1</ele>
        <time>2023-04-30T16:25:38Z</time>
      </trkpt>
      <trkpt lat="48.10362" lon="6.42979">
        <ele>410.4</ele>
        <time>2023-04-30T16:25:39Z</time>
      </trkpt>
      <trkpt lat="48.10359" lon="6.42965">
        <ele>409.7</ele>
        <time>2023-04-30T16:25:40Z</time>
      </trkpt>
      <trkpt lat="48.10355" lon="6.4295">
        <ele>409</ele>
        <time>2023-04-30T16:25:41Z</time>
      </trkpt>
      <trkpt lat="48.10352" lon="6.42934">
        <ele>408.3</ele>
        <time>2023-04-30T16:25:42Z</time>
      </trkpt>
      <trkpt lat="48.10348" lon="6.42919">
        <ele>407.6</ele>
        <time>2023-04-30T16:25:43Z</time>
      </trkpt>
      <trkpt lat="48.10344" lon="6.42904">
        <ele>406.8</ele>
        <time>2023-04-30T16:25:44Z</time>
      </trkpt>
      <trkpt lat="48.10339" lon="6.42888">
        <ele>406.1</ele>
        <time>2023-04-30T16:25:45Z</time>
      </trkpt>
      <trkpt lat="48.10334" lon="6.42873">
        <ele>405.5</ele>
        <time>2023-04-30T16:25:46Z</time>
      </trkpt>
      <trkpt lat="48.10328" lon="6.42857">
        <ele>404.8</ele>
        <time>2023-04-30T16:25:47Z</time>
      </trkpt>
      <trkpt lat="48.10322" lon="6.42842">
        <ele>404.3</ele>
        <time>2023-04-30T16:25:48Z</time>
      </trkpt>
      <trkpt lat="48.10317" lon="6.42827">
        <ele>403.7</ele>
        <time>2023-04-30T16:25:49Z</time>
      </trkpt>
      <trkpt lat="48.10311" lon="6.42812">
        <ele>403.2</ele>
        <time>2023-04-30T16:25:50Z</time>
      </trkpt>
      <trkpt lat="48.10305" lon="6.42796">
        <ele>402.7</ele>
        <time>2023-04-30T16:25:51Z</time>
      </trkpt>
      <trkpt lat="48.103" lon="6.42781">
        <ele>402.2</ele>
        <time>2023-04-30T16:25:52Z</time>
      </trkpt>
      <trkpt lat="48.10294" lon="6.42766">
        <ele>401.8</ele>
        <time>2023-04-30T16:25:53Z</time>
      </trkpt>
      <trkpt lat="48.10288" lon="6.42749">
        <ele>401.4</ele>
        <time>2023-04-30T16:25:54Z</time>
      </trkpt>
      <trkpt lat="48.10283" lon="6.42734">
        <ele>401</ele>
        <time>2023-04-30T16:25:55Z</time>
      </trkpt>
      <trkpt lat="48.10277" lon="6.42718">
        <ele>400.6</ele>
        <time>2023-04-30T16:25:56Z</time>
      </trkpt>
      <trkpt lat="48.10271" lon="6.42703">
        <ele>400.2</ele>
        <time>2023-04-30T16:25:57Z</time>
      </trkpt>
      <trkpt lat="48.10265" lon="6.42687">
        <ele>399.8</ele>
        <time>2023-04-30T16:25:58Z</time>
      </trkpt>
      <trkpt lat="48.10259" lon="6.42673">
        <ele>399.3</ele>
        <time>2023-04-30T16:25:59Z</time>
      </trkpt>
      <trkpt lat="48.10254" lon="6.42658">
        <ele>398.9</ele>
        <time>2023-04-30T16:26:00Z</time>
      </trkpt>
      <trkpt lat="48.10248" lon="6.42643">
        <ele>398.4</ele>
        <time>2023-04-30T16:26:01Z</time>
      </trkpt>
      <trkpt lat="48.10242" lon="6.42628">
        <ele>397.9</ele>
        <time>2023-04-30T16:26:02Z</time>
      </trkpt>
      <trkpt lat="48.10237" lon="6.42613">
        <ele>397.4</ele>
        <time>2023-04-30T16:26:03Z</time>
      </trkpt>
      <trkpt lat="48.10231" lon="6.42597">
        <ele>396.9</ele>
        <time>2023-04-30T16:26:04Z</time>
      </trkpt>
      <trkpt lat="48.10226" lon="6.42581">
        <ele>396.4</ele>
        <time>2023-04-30T16:26:05Z</time>
      </trkpt>
      <trkpt lat="48.10221" lon="6.42565">
        <ele>395.9</ele>
        <time>2023-04-30T16:26:06Z</time>
      </trkpt>
      <trkpt lat="48.10216" lon="6.42547">
        <ele>395.5</ele>
        <time>2023-04-30T16:26:07Z</time>
      </trkpt>
      <trkpt lat="48.10213" lon="6.4253">
        <ele>395.1</ele>
        <time>2023-04-30T16:26:08Z</time>
      </trkpt>
      <trkpt lat="48.1021" lon="6.42513">
        <ele>394.7</ele>
        <time>2023-04-30T16:26:09Z</time>
      </trkpt>
      <trkpt lat="48.10208" lon="6.42496">
        <ele>394.4</ele>
        <time>2023-04-30T16:26:10Z</time>
      </trkpt>
      <trkpt lat="48.10206" lon="6.42479">
        <ele>394.2</ele>
        <time>2023-04-30T16:26:11Z</time>
      </trkpt>
      <trkpt lat="48.10204" lon="6.42463">
        <ele>394.1</ele>
        <time>2023-04-30T16:26:12Z</time>
      </trkpt>
      <trkpt lat="48.10202" lon="6.42446">
        <ele>394</ele>
        <time>2023-04-30T16:26:13Z</time>
      </trkpt>
      <trkpt lat="48.10201" lon="6.4243">
        <ele>394</ele>
        <time>2023-04-30T16:26:14Z</time>
      </trkpt>
      <trkpt lat="48.102" lon="6.42415">
        <ele>394.1</ele>
        <time>2023-04-30T16:26:15Z</time>
      </trkpt>
      <trkpt lat="48.102" lon="6.424">
        <ele>394.3</ele>
        <time>2023-04-30T16:26:16Z</time>
      </trkpt>
      <trkpt lat="48.102" lon="6.42386">
        <ele>394.5</ele>
        <time>2023-04-30T16:26:17Z</time>
      </trkpt>
      <trkpt lat="48.10199" lon="6.42372">
        <ele>394.8</ele>
        <time>2023-04-30T16:26:18Z</time>
      </trkpt>
      <trkpt lat="48.10199" lon="6.42358">
        <ele>395.1</ele>
        <time>2023-04-30T16:26:19Z</time>
      </trkpt>
      <trkpt lat="48.10199" lon="6.42345">
        <ele>395.4</ele>
        <time>2023-04-30T16:26:20Z</time>
      </trkpt>
      <trkpt lat="48.10199" lon="6.42332">
        <ele>395.6</ele>
        <time>2023-04-30T16:26:21Z</time>
      </trkpt>
      <trkpt lat="48.102" lon="6.42319">
        <ele>395.8</ele>
        <time>2023-04-30T16:26:22Z</time>
      </trkpt>
      <trkpt lat="48.102" lon="6.42306">
        <ele>396</ele>
        <time>2023-04-30T16:26:23Z</time>
      </trkpt>
      <trkpt lat="48.102" lon="6.42294">
        <ele>396.2</ele>
        <time>2023-04-30T16:26:24Z</time>
      </trkpt>
      <trkpt lat="48.102" lon="6.42281">
        <ele>396.4</ele>
        <time>2023-04-30T16:26:25Z</time>
      </trkpt>
      <trkpt lat="48.102" lon="6.42268">
        <ele>396.6</ele>
        <time>2023-04-30T16:26:26Z</time>
      </trkpt>
      <trkpt lat="48.10202" lon="6.42258">
        <ele>396.8</ele>
        <time>2023-04-30T16:26:27Z</time>
      </trkpt>
      <trkpt lat="48.10203" lon="6.42249">
        <ele>397</ele>
        <time>2023-04-30T16:26:28Z</time>
      </trkpt>
      <trkpt lat="48.10204" lon="6.42242">
        <ele>397.2</ele>
        <time>2023-04-30T16:26:29Z</time>
      </trkpt>
      <trkpt lat="48.10205" lon="6.42234">
        <ele>397.3</ele>
        <time>2023-04-30T16:26:30Z</time>
      </trkpt>
      <trkpt lat="48.10205" lon="6.42224">
        <ele>397.4</ele>
        <time>2023-04-30T16:26:31Z</time>
      </trkpt>
      <trkpt lat="48.10205" lon="6.42213">
        <ele>397.6</ele>
        <time>2023-04-30T16:26:32Z</time>
      </trkpt>
      <trkpt lat="48.10205" lon="6.42203">
        <ele>397.7</ele>
        <time>2023-04-30T16:26:33Z</time>
      </trkpt>
      <trkpt lat="48.10205" lon="6.4219">
        <ele>397.8</ele>
        <time>2023-04-30T16:26:34Z</time>
      </trkpt>
      <trkpt lat="48.10205" lon="6.42178">
        <ele>397.8</ele>
        <time>2023-04-30T16:26:35Z</time>
      </trkpt>
      <trkpt lat="48.10205" lon="6.42167">
        <ele>397.8</ele>
        <time>2023-04-30T16:26:36Z</time>
      </trkpt>
      <trkpt lat="48.10205" lon="6.42156">
        <ele>397.8</ele>
        <time>2023-04-30T16:26:37Z</time>
      </trkpt>
      <trkpt lat="48.10205" lon="6.42144">
        <ele>397.8</ele>
        <time>2023-04-30T16:26:38Z</time>
      </trkpt>
      <trkpt lat="48.10205" lon="6.42132">
        <ele>397.8</ele>
        <time>2023-04-30T16:26:39Z</time>
      </trkpt>
      <trkpt lat="48.10204" lon="6.4212">
        <ele>397.7</ele>
        <time>2023-04-30T16:26:40Z</time>
      </trkpt>
      <trkpt lat="48.10204" lon="6.42108">
        <ele>397.6</ele>
        <time>2023-04-30T16:26:41Z</time>
      </trkpt>
      <trkpt lat="48.10203" lon="6.42096">
        <ele>397.5</ele>
        <time>2023-04-30T16:26:42Z</time>
      </trkpt>
      <trkpt lat="48.10202" lon="6.42085">
        <ele>397.4</ele>
        <time>2023-04-30T16:26:43Z</time>
      </trkpt>
      <trkpt lat="48.10201" lon="6.42073">
        <ele>397.3</ele>
        <time>2023-04-30T16:26:44Z</time>
      </trkpt>
      <trkpt lat="48.10201" lon="6.42061">
        <ele>397.2</ele>
        <time>2023-04-30T16:26:45Z</time>
      </trkpt>
      <trkpt lat="48.102" lon="6.4205">
        <ele>397</ele>
        <time>2023-04-30T16:26:46Z</time>
      </trkpt>
      <trkpt lat="48.10199" lon="6.42038">
        <ele>396.8</ele>
        <time>2023-04-30T16:26:47Z</time>
      </trkpt>
      <trkpt lat="48.10198" lon="6.42026">
        <ele>396.6</ele>
        <time>2023-04-30T16:26:48Z</time>
      </trkpt>
      <trkpt lat="48.10197" lon="6.42014">
        <ele>396.4</ele>
        <time>2023-04-30T16:26:49Z</time>
      </trkpt>
      <trkpt lat="48.10195" lon="6.42003">
        <ele>396.1</ele>
        <time>2023-04-30T16:26:50Z</time>
      </trkpt>
      <trkpt lat="48.10194" lon="6.41991">
        <ele>395.9</ele>
        <time>2023-04-30T16:26:51Z</time>
      </trkpt>
      <trkpt lat="48.10193" lon="6.41979">
        <ele>395.5</ele>
        <time>2023-04-30T16:26:52Z</time>
      </trkpt>
      <trkpt lat="48.1019" lon="6.41967">
        <ele>395.1</ele>
        <time>2023-04-30T16:26:53Z</time>
      </trkpt>
      <trkpt lat="48.10187" lon="6.41955">
        <ele>394.6</ele>
        <time>2023-04-30T16:26:54Z</time>
      </trkpt>
      <trkpt lat="48.10184" lon="6.41942">
        <ele>393.8</ele>
        <time>2023-04-30T16:26:55Z</time>
      </trkpt>
      <trkpt lat="48.1018" lon="6.41928">
        <ele>393</ele>
        <time>2023-04-30T16:26:56Z</time>
      </trkpt>
      <trkpt lat="48.10177" lon="6.41914">
        <ele>392.1</ele>
        <time>2023-04-30T16:26:57Z</time>
      </trkpt>
      <trkpt lat="48.10174" lon="6.419">
        <ele>391.3</ele>
        <time>2023-04-30T16:26:58Z</time>
      </trkpt>
      <trkpt lat="48.10171" lon="6.41885">
        <ele>390.4</ele>
        <time>2023-04-30T16:26:59Z</time>
      </trkpt>
      <trkpt lat="48.10167" lon="6.4187">
        <ele>389.4</ele>
        <time>2023-04-30T16:27:00Z</time>
      </trkpt>
      <trkpt lat="48.10163" lon="6.41853">
        <ele>388.3</ele>
        <time>2023-04-30T16:27:01Z</time>
      </trkpt>
      <trkpt lat="48.10159" lon="6.41837">
        <ele>387.2</ele>
        <time>2023-04-30T16:27:02Z</time>
      </trkpt>
      <trkpt lat="48.10154" lon="6.4182">
        <ele>386</ele>
        <time>2023-04-30T16:27:03Z</time>
      </trkpt>
      <trkpt lat="48.10148" lon="6.41804">
        <ele>384.9</ele>
        <time>2023-04-30T16:27:04Z</time>
      </trkpt>
      <trkpt lat="48.10142" lon="6.41786">
        <ele>383.8</ele>
        <time>2023-04-30T16:27:05Z</time>
      </trkpt>
      <trkpt lat="48.10136" lon="6.41768">
        <ele>382.7</ele>
        <time>2023-04-30T16:27:06Z</time>
      </trkpt>
      <trkpt lat="48.10129" lon="6.41751">
        <ele>381.6</ele>
        <time>2023-04-30T16:27:07Z</time>
      </trkpt>
      <trkpt lat="48.10122" lon="6.41735">
        <ele>380.5</ele>
        <time>2023-04-30T16:27:08Z</time>
      </trkpt>
      <trkpt lat="48.10116" lon="6.4172">
        <ele>379.5</ele>
        <time>2023-04-30T16:27:09Z</time>
      </trkpt>
      <trkpt lat="48.10109" lon="6.41705">
        <ele>378.5</ele>
        <time>2023-04-30T16:27:10Z</time>
      </trkpt>
      <trkpt lat="48.10102" lon="6.41691">
        <ele>377.4</ele>
        <time>2023-04-30T16:27:11Z</time>
      </trkpt>
      <trkpt lat="48.10095" lon="6.41679">
        <ele>376.5</ele>
        <time>2023-04-30T16:27:12Z</time>
      </trkpt>
      <trkpt lat="48.10089" lon="6.41666">
        <ele>375.7</ele>
        <time>2023-04-30T16:27:13Z</time>
      </trkpt>
      <trkpt lat="48.10083" lon="6.41653">
        <ele>375</ele>
        <time>2023-04-30T16:27:14Z</time>
      </trkpt>
      <trkpt lat="48.10076" lon="6.4164">
        <ele>374.3</ele>
        <time>2023-04-30T16:27:15Z</time>
      </trkpt>
      <trkpt lat="48.1007" lon="6.41626">
        <ele>373.8</ele>
        <time>2023-04-30T16:27:16Z</time>
      </trkpt>
      <trkpt lat="48.10065" lon="6.41612">
        <ele>373.7</ele>
        <time>2023-04-30T16:27:17Z</time>
      </trkpt>
      <trkpt lat="48.10061" lon="6.41598">
        <ele>373.6</ele>
        <time>2023-04-30T16:27:18Z</time>
      </trkpt>
      <trkpt lat="48.10058" lon="6.41586">
        <ele>373.6</ele>
        <time>2023-04-30T16:27:19Z</time>
      </trkpt>
      <trkpt lat="48.10056" lon="6.41576">
        <ele>373.7</ele>
        <time>2023-04-30T16:27:20Z</time>
      </trkpt>
      <trkpt lat="48.10054" lon="6.41569">
        <ele>373.7</ele>
        <time>2023-04-30T16:27:21Z</time>
      </trkpt>
      <trkpt lat="48.10054" lon="6.41562">
        <ele>373.8</ele>
        <time>2023-04-30T16:27:22Z</time>
      </trkpt>
      <trkpt lat="48.10054" lon="6.41556">
        <ele>373.8</ele>
        <time>2023-04-30T16:27:23Z</time>
      </trkpt>
      <trkpt lat="48.10052" lon="6.4155">
        <ele>373.9</ele>
        <time>2023-04-30T16:27:24Z</time>
      </trkpt>
      <trkpt lat="48.1005" lon="6.41544">
        <ele>374</ele>
        <time>2023-04-30T16:27:25Z</time>
      </trkpt>
      <trkpt lat="48.10046" lon="6.4154">
        <ele>374.1</ele>
        <time>2023-04-30T16:27:26Z</time>
      </trkpt>
      <trkpt lat="48.10043" lon="6.41538">
        <ele>374.1</ele>
        <time>2023-04-30T16:27:27Z</time>
      </trkpt>
      <trkpt lat="48.1004" lon="6.41537">
        <ele>374.1</ele>
        <time>2023-04-30T16:27:28Z</time>
      </trkpt>
      <trkpt lat="48.10037" lon="6.41536">
        <ele>374.2</ele>
        <time>2023-04-30T16:27:29Z</time>
      </trkpt>
      <trkpt lat="48.10034" lon="6.41534">
        <ele>374.2</ele>
        <time>2023-04-30T16:27:30Z</time>
      </trkpt>
      <trkpt lat="48.10029" lon="6.4153">
        <ele>374.2</ele>
        <time>2023-04-30T16:27:31Z</time>
      </trkpt>
      <trkpt lat="48.10022" lon="6.41522">
        <ele>374.2</ele>
        <time>2023-04-30T16:27:32Z</time>
      </trkpt>
      <trkpt lat="48.10018" lon="6.41518">
        <ele>374.2</ele>
        <time>2023-04-30T16:27:33Z</time>
      </trkpt>
      <trkpt lat="48.10014" lon="6.41513">
        <ele>374.2</ele>
        <time>2023-04-30T16:27:34Z</time>
      </trkpt>
      <trkpt lat="48.10009" lon="6.41508">
        <ele>374.3</ele>
        <time>2023-04-30T16:27:35Z</time>
      </trkpt>
      <trkpt lat="48.10005" lon="6.41502">
        <ele>374.3</ele>
        <time>2023-04-30T16:27:36Z</time>
      </trkpt>
      <trkpt lat="48.1" lon="6.41496">
        <ele>374.4</ele>
        <time>2023-04-30T16:27:37Z</time>
      </trkpt>
      <trkpt lat="48.09995" lon="6.41491">
        <ele>374.5</ele>
        <time>2023-04-30T16:27:38Z</time>
      </trkpt>
      <trkpt lat="48.09992" lon="6.41485">
        <ele>374.5</ele>
        <time>2023-04-30T16:27:39Z</time>
      </trkpt>
      <trkpt lat="48.09988" lon="6.41479">
        <ele>374.6</ele>
        <time>2023-04-30T16:27:40Z</time>
      </trkpt>
      <trkpt lat="48.09984" lon="6.41473">
        <ele>374.8</ele>
        <time>2023-04-30T16:27:41Z</time>
      </trkpt>
      <trkpt lat="48.0998" lon="6.41466">
        <ele>374.9</ele>
        <time>2023-04-30T16:27:42Z</time>
      </trkpt>
      <trkpt lat="48.09977" lon="6.4146">
        <ele>375</ele>
        <time>2023-04-30T16:27:43Z</time>
      </trkpt>
      <trkpt lat="48.09974" lon="6.41453">
        <ele>375.1</ele>
        <time>2023-04-30T16:27:44Z</time>
      </trkpt>
      <trkpt lat="48.0997" lon="6.41447">
        <ele>375.2</ele>
        <time>2023-04-30T16:27:45Z</time>
      </trkpt>
      <trkpt lat="48.09967" lon="6.4144">
        <ele>375.3</ele>
        <time>2023-04-30T16:27:46Z</time>
      </trkpt>
      <trkpt lat="48.09964" lon="6.41434">
        <ele>375.3</ele>
        <time>2023-04-30T16:27:47Z</time>
      </trkpt>
      <trkpt lat="48.09961" lon="6.41427">
        <ele>375.4</ele>
        <time>2023-04-30T16:27:48Z</time>
      </trkpt>
      <trkpt lat="48.09958" lon="6.4142">
        <ele>375.4</ele>
        <time>2023-04-30T16:27:49Z</time>
      </trkpt>
      <trkpt lat="48.09956" lon="6.41412">
        <ele>375.4</ele>
        <time>2023-04-30T16:27:50Z</time>
      </trkpt>
      <trkpt lat="48.09953" lon="6.41405">
        <ele>375.4</ele>
        <time>2023-04-30T16:27:51Z</time>
      </trkpt>
      <trkpt lat="48.09951" lon="6.41397">
        <ele>375.3</ele>
        <time>2023-04-30T16:27:52Z</time>
      </trkpt>
      <trkpt lat="48.09948" lon="6.41389">
        <ele>375.2</ele>
        <time>2023-04-30T16:27:53Z</time>
      </trkpt>
      <trkpt lat="48.09946" lon="6.41381">
        <ele>375.1</ele>
        <time>2023-04-30T16:27:54Z</time>
      </trkpt>
      <trkpt lat="48.09943" lon="6.41373">
        <ele>375</ele>
        <time>2023-04-30T16:27:55Z</time>
      </trkpt>
      <trkpt lat="48.09941" lon="6.41364">
        <ele>374.9</ele>
        <time>2023-04-30T16:27:56Z</time>
      </trkpt>
      <trkpt lat="48.09939" lon="6.41356">
        <ele>374.9</ele>
        <time>2023-04-30T16:27:57Z</time>
      </trkpt>
      <trkpt lat="48.09936" lon="6.41348">
        <ele>374.8</ele>
        <time>2023-04-30T16:27:58Z</time>
      </trkpt>
      <trkpt lat="48.09934" lon="6.41339">
        <ele>374.7</ele>
        <time>2023-04-30T16:27:59Z</time>
      </trkpt>
      <trkpt lat="48.09932" lon="6.41332">
        <ele>374.6</ele>
        <time>2023-04-30T16:28:00Z</time>
      </trkpt>
      <trkpt lat="48.09931" lon="6.41326">
        <ele>374.6</ele>
        <time>2023-04-30T16:28:01Z</time>
      </trkpt>
      <trkpt lat="48.0993" lon="6.41321">
        <ele>374.5</ele>
        <time>2023-04-30T16:28:02Z</time>
      </trkpt>
      <trkpt lat="48.09929" lon="6.41317">
        <ele>374.5</ele>
        <time>2023-04-30T16:28:03Z</time>
      </trkpt>
      <trkpt lat="48.09927" lon="6.41313">
        <ele>374.5</ele>
        <time>2023-04-30T16:28:04Z</time>
      </trkpt>
      <trkpt lat="48.09926" lon="6.41307">
        <ele>374.4</ele>
        <time>2023-04-30T16:28:05Z</time>
      </trkpt>
      <trkpt lat="48.09926" lon="6.41301">
        <ele>374.4</ele>
        <time>2023-04-30T16:28:06Z</time>
      </trkpt>
      <trkpt lat="48.09926" lon="6.41292">
        <ele>374.3</ele>
        <time>2023-04-30T16:28:07Z</time>
      </trkpt>
      <trkpt lat="48.09926" lon="6.41281">
        <ele>374.2</ele>
        <time>2023-04-30T16:28:08Z</time>
      </trkpt>
      <trkpt lat="48.09927" lon="6.41271">
        <ele>374.1</ele>
        <time>2023-04-30T16:28:09Z</time>
      </trkpt>
      <trkpt lat="48.09928" lon="6.41262">
        <ele>374</ele>
        <time>2023-04-30T16:28:10Z</time>
      </trkpt>
      <trkpt lat="48.0993" lon="6.41253">
        <ele>373.9</ele>
        <time>2023-04-30T16:28:11Z</time>
      </trkpt>
      <trkpt lat="48.09932" lon="6.41244">
        <ele>373.8</ele>
        <time>2023-04-30T16:28:12Z</time>
      </trkpt>
      <trkpt lat="48.09934" lon="6.41235">
        <ele>373.8</ele>
        <time>2023-04-30T16:28:13Z</time>
      </trkpt>
      <trkpt lat="48.09937" lon="6.41226">
        <ele>373.7</ele>
        <time>2023-04-30T16:28:14Z</time>
      </trkpt>
      <trkpt lat="48.09941" lon="6.41217">
        <ele>373.6</ele>
        <time>2023-04-30T16:28:15Z</time>
      </trkpt>
      <trkpt lat="48.09945" lon="6.41209">
        <ele>373.5</ele>
        <time>2023-04-30T16:28:16Z</time>
      </trkpt>
      <trkpt lat="48.09949" lon="6.41202">
        <ele>373.4</ele>
        <time>2023-04-30T16:28:17Z</time>
      </trkpt>
      <trkpt lat="48.09955" lon="6.41196">
        <ele>373.4</ele>
        <time>2023-04-30T16:28:18Z</time>
      </trkpt>
      <trkpt lat="48.0996" lon="6.4119">
        <ele>373.3</ele>
        <time>2023-04-30T16:28:19Z</time>
      </trkpt>
      <trkpt lat="48.09966" lon="6.41184">
        <ele>373.3</ele>
        <time>2023-04-30T16:28:20Z</time>
      </trkpt>
      <trkpt lat="48.09971" lon="6.41179">
        <ele>373.3</ele>
        <time>2023-04-30T16:28:21Z</time>
      </trkpt>
      <trkpt lat="48.09977" lon="6.41173">
        <ele>373.2</ele>
        <time>2023-04-30T16:28:22Z</time>
      </trkpt>
      <trkpt lat="48.09983" lon="6.41168">
        <ele>373.2</ele>
        <time>2023-04-30T16:28:23Z</time>
      </trkpt>
      <trkpt lat="48.09989" lon="6.41162">
        <ele>373.1</ele>
        <time>2023-04-30T16:28:24Z</time>
      </trkpt>
      <trkpt lat="48.09994" lon="6.41156">
        <ele>373</ele>
        <time>2023-04-30T16:28:25Z</time>
      </trkpt>
      <trkpt lat="48.09999" lon="6.41149">
        <ele>373</ele>
        <time>2023-04-30T16:28:26Z</time>
      </trkpt>
      <trkpt lat="48.10004" lon="6.41142">
        <ele>373</ele>
        <time>2023-04-30T16:28:27Z</time>
      </trkpt>
      <trkpt lat="48.10008" lon="6.41136">
        <ele>373</ele>
        <time>2023-04-30T16:28:28Z</time>
      </trkpt>
      <trkpt lat="48.10011" lon="6.41129">
        <ele>373</ele>
        <time>2023-04-30T16:28:29Z</time>
      </trkpt>
      <trkpt lat="48.10015" lon="6.4112">
        <ele>373</ele>
        <time>2023-04-30T16:28:30Z</time>
      </trkpt>
      <trkpt lat="48.10018" lon="6.41112">
        <ele>373</ele>
        <time>2023-04-30T16:28:31Z</time>
      </trkpt>
      <trkpt lat="48.10022" lon="6.41103">
        <ele>373</ele>
        <time>2023-04-30T16:28:32Z</time>
      </trkpt>
      <trkpt lat="48.10025" lon="6.41095">
        <ele>373</ele>
        <time>2023-04-30T16:28:33Z</time>
      </trkpt>
      <trkpt lat="48.10028" lon="6.41085">
        <ele>373</ele>
        <time>2023-04-30T16:28:34Z</time>
      </trkpt>
      <trkpt lat="48.10032" lon="6.41076">
        <ele>373.1</ele>
        <time>2023-04-30T16:28:35Z</time>
      </trkpt>
      <trkpt lat="48.10035" lon="6.41066">
        <ele>373.1</ele>
        <time>2023-04-30T16:28:36Z</time>
      </trkpt>
      <trkpt lat="48.10039" lon="6.41057">
        <ele>373.1</ele>
        <time>2023-04-30T16:28:37Z</time>
      </trkpt>
      <trkpt lat="48.10042" lon="6.41048">
        <ele>373.1</ele>
        <time>2023-04-30T16:28:38Z</time>
      </trkpt>
      <trkpt lat="48.10044" lon="6.41038">
        <ele>373.1</ele>
        <time>2023-04-30T16:28:39Z</time>
      </trkpt>
      <trkpt lat="48.10046" lon="6.41029">
        <ele>373.1</ele>
        <time>2023-04-30T16:28:40Z</time>
      </trkpt>
      <trkpt lat="48.10048" lon="6.4102">
        <ele>373.1</ele>
        <time>2023-04-30T16:28:41Z</time>
      </trkpt>
      <trkpt lat="48.1005" lon="6.41011">
        <ele>373</ele>
        <time>2023-04-30T16:28:42Z</time>
      </trkpt>
      <trkpt lat="48.10051" lon="6.41001">
        <ele>373</ele>
        <time>2023-04-30T16:28:43Z</time>
      </trkpt>
      <trkpt lat="48.10051" lon="6.40992">
        <ele>372.9</ele>
        <time>2023-04-30T16:28:44Z</time>
      </trkpt>
      <trkpt lat="48.10052" lon="6.40983">
        <ele>372.8</ele>
        <time>2023-04-30T16:28:45Z</time>
      </trkpt>
      <trkpt lat="48.10052" lon="6.40973">
        <ele>372.7</ele>
        <time>2023-04-30T16:28:46Z</time>
      </trkpt>
      <trkpt lat="48.10052" lon="6.40962">
        <ele>372.5</ele>
        <time>2023-04-30T16:28:47Z</time>
      </trkpt>
      <trkpt lat="48.10051" lon="6.40951">
        <ele>372.4</ele>
        <time>2023-04-30T16:28:48Z</time>
      </trkpt>
      <trkpt lat="48.1005" lon="6.4094">
        <ele>371.9</ele>
        <time>2023-04-30T16:28:49Z</time>
      </trkpt>
      <trkpt lat="48.10048" lon="6.40928">
        <ele>371.4</ele>
        <time>2023-04-30T16:28:50Z</time>
      </trkpt>
      <trkpt lat="48.10047" lon="6.40917">
        <ele>371</ele>
        <time>2023-04-30T16:28:51Z</time>
      </trkpt>
      <trkpt lat="48.10047" lon="6.40905">
        <ele>370.5</ele>
        <time>2023-04-30T16:28:52Z</time>
      </trkpt>
      <trkpt lat="48.10047" lon="6.40892">
        <ele>370</ele>
        <time>2023-04-30T16:28:53Z</time>
      </trkpt>
      <trkpt lat="48.10047" lon="6.4088">
        <ele>369.5</ele>
        <time>2023-04-30T16:28:54Z</time>
      </trkpt>
      <trkpt lat="48.10048" lon="6.40866">
        <ele>369</ele>
        <time>2023-04-30T16:28:55Z</time>
      </trkpt>
      <trkpt lat="48.1005" lon="6.40853">
        <ele>368.5</ele>
        <time>2023-04-30T16:28:56Z</time>
      </trkpt>
      <trkpt lat="48.10052" lon="6.4084">
        <ele>368</ele>
        <time>2023-04-30T16:28:57Z</time>
      </trkpt>
      <trkpt lat="48.10054" lon="6.40826">
        <ele>367.6</ele>
        <time>2023-04-30T16:28:58Z</time>
      </trkpt>
      <trkpt lat="48.10056" lon="6.40813">
        <ele>367.2</ele>
        <time>2023-04-30T16:28:59Z</time>
      </trkpt>
      <trkpt lat="48.10059" lon="6.408">
        <ele>366.8</ele>
        <time>2023-04-30T16:29:00Z</time>
      </trkpt>
      <trkpt lat="48.10062" lon="6.40787">
        <ele>366.5</ele>
        <time>2023-04-30T16:29:01Z</time>
      </trkpt>
      <trkpt lat="48.10065" lon="6.40773">
        <ele>366.2</ele>
        <time>2023-04-30T16:29:02Z</time>
      </trkpt>
      <trkpt lat="48.10068" lon="6.4076">
        <ele>366</ele>
        <time>2023-04-30T16:29:03Z</time>
      </trkpt>
      <trkpt lat="48.10072" lon="6.40748">
        <ele>365.8</ele>
        <time>2023-04-30T16:29:04Z</time>
      </trkpt>
      <trkpt lat="48.10075" lon="6.40735">
        <ele>365.7</ele>
        <time>2023-04-30T16:29:05Z</time>
      </trkpt>
      <trkpt lat="48.10078" lon="6.40722">
        <ele>365.6</ele>
        <time>2023-04-30T16:29:06Z</time>
      </trkpt>
      <trkpt lat="48.10081" lon="6.40709">
        <ele>365.6</ele>
        <time>2023-04-30T16:29:07Z</time>
      </trkpt>
      <trkpt lat="48.10083" lon="6.40696">
        <ele>365.6</ele>
        <time>2023-04-30T16:29:08Z</time>
      </trkpt>
      <trkpt lat="48.10084" lon="6.40683">
        <ele>365.7</ele>
        <time>2023-04-30T16:29:09Z</time>
      </trkpt>
      <trkpt lat="48.10086" lon="6.4067">
        <ele>365.9</ele>
        <time>2023-04-30T16:29:10Z</time>
      </trkpt>
      <trkpt lat="48.10087" lon="6.40658">
        <ele>366.1</ele>
        <time>2023-04-30T16:29:11Z</time>
      </trkpt>
      <trkpt lat="48.10088" lon="6.40645">
        <ele>366.3</ele>
        <time>2023-04-30T16:29:12Z</time>
      </trkpt>
      <trkpt lat="48.10089" lon="6.40634">
        <ele>366.6</ele>
        <time>2023-04-30T16:29:13Z</time>
      </trkpt>
      <trkpt lat="48.10089" lon="6.40624">
        <ele>366.9</ele>
        <time>2023-04-30T16:29:14Z</time>
      </trkpt>
      <trkpt lat="48.1009" lon="6.40614">
        <ele>367.2</ele>
        <time>2023-04-30T16:29:15Z</time>
      </trkpt>
      <trkpt lat="48.1009" lon="6.40603">
        <ele>367.5</ele>
        <time>2023-04-30T16:29:16Z</time>
      </trkpt>
      <trkpt lat="48.10091" lon="6.40593">
        <ele>367.8</ele>
        <time>2023-04-30T16:29:17Z</time>
      </trkpt>
      <trkpt lat="48.10091" lon="6.40583">
        <ele>368.1</ele>
        <time>2023-04-30T16:29:18Z</time>
      </trkpt>
      <trkpt lat="48.1009" lon="6.40574">
        <ele>368.4</ele>
        <time>2023-04-30T16:29:19Z</time>
      </trkpt>
      <trkpt lat="48.10089" lon="6.40565">
        <ele>368.7</ele>
        <time>2023-04-30T16:29:20Z</time>
      </trkpt>
      <trkpt lat="48.10087" lon="6.40556">
        <ele>368.9</ele>
        <time>2023-04-30T16:29:21Z</time>
      </trkpt>
      <trkpt lat="48.10086" lon="6.40548">
        <ele>369.1</ele>
        <time>2023-04-30T16:29:22Z</time>
      </trkpt>
      <trkpt lat="48.10085" lon="6.4054">
        <ele>369.4</ele>
        <time>2023-04-30T16:29:23Z</time>
      </trkpt>
      <trkpt lat="48.10083" lon="6.40533">
        <ele>369.6</ele>
        <time>2023-04-30T16:29:24Z</time>
      </trkpt>
      <trkpt lat="48.10081" lon="6.40525">
        <ele>369.6</ele>
        <time>2023-04-30T16:29:25Z</time>
      </trkpt>
      <trkpt lat="48.10079" lon="6.40518">
        <ele>369.7</ele>
        <time>2023-04-30T16:29:26Z</time>
      </trkpt>
      <trkpt lat="48.10076" lon="6.4051">
        <ele>369.7</ele>
        <time>2023-04-30T16:29:27Z</time>
      </trkpt>
      <trkpt lat="48.10073" lon="6.40503">
        <ele>369.7</ele>
        <time>2023-04-30T16:29:28Z</time>
      </trkpt>
      <trkpt lat="48.1007" lon="6.40496">
        <ele>369.7</ele>
        <time>2023-04-30T16:29:29Z</time>
      </trkpt>
      <trkpt lat="48.10067" lon="6.40488">
        <ele>369.7</ele>
        <time>2023-04-30T16:29:30Z</time>
      </trkpt>
      <trkpt lat="48.10063" lon="6.4048">
        <ele>369.6</ele>
        <time>2023-04-30T16:29:31Z</time>
      </trkpt>
      <trkpt lat="48.1006" lon="6.40471">
        <ele>369.5</ele>
        <time>2023-04-30T16:29:32Z</time>
      </trkpt>
      <trkpt lat="48.10057" lon="6.40462">
        <ele>369.3</ele>
        <time>2023-04-30T16:29:33Z</time>
      </trkpt>
      <trkpt lat="48.10054" lon="6.40454">
        <ele>369</ele>
        <time>2023-04-30T16:29:34Z</time>
      </trkpt>
      <trkpt lat="48.10051" lon="6.40444">
        <ele>368.7</ele>
        <time>2023-04-30T16:29:35Z</time>
      </trkpt>
      <trkpt lat="48.10049" lon="6.40433">
        <ele>368.4</ele>
        <time>2023-04-30T16:29:36Z</time>
      </trkpt>
      <trkpt lat="48.10048" lon="6.40422">
        <ele>368</ele>
        <time>2023-04-30T16:29:37Z</time>
      </trkpt>
      <trkpt lat="48.10048" lon="6.4041">
        <ele>367.6</ele>
        <time>2023-04-30T16:29:38Z</time>
      </trkpt>
      <trkpt lat="48.10049" lon="6.40398">
        <ele>367.2</ele>
        <time>2023-04-30T16:29:39Z</time>
      </trkpt>
      <trkpt lat="48.1005" lon="6.40386">
        <ele>366.7</ele>
        <time>2023-04-30T16:29:40Z</time>
      </trkpt>
      <trkpt lat="48.10052" lon="6.40375">
        <ele>366.2</ele>
        <time>2023-04-30T16:29:41Z</time>
      </trkpt>
      <trkpt lat="48.10053" lon="6.40361">
        <ele>365.7</ele>
        <time>2023-04-30T16:29:42Z</time>
      </trkpt>
      <trkpt lat="48.10055" lon="6.40347">
        <ele>365.2</ele>
        <time>2023-04-30T16:29:43Z</time>
      </trkpt>
      <trkpt lat="48.10057" lon="6.40333">
        <ele>364.7</ele>
        <time>2023-04-30T16:29:44Z</time>
      </trkpt>
      <trkpt lat="48.1006" lon="6.4032">
        <ele>364.2</ele>
        <time>2023-04-30T16:29:45Z</time>
      </trkpt>
      <trkpt lat="48.10062" lon="6.40307">
        <ele>363.8</ele>
        <time>2023-04-30T16:29:46Z</time>
      </trkpt>
      <trkpt lat="48.10065" lon="6.40292">
        <ele>363.3</ele>
        <time>2023-04-30T16:29:47Z</time>
      </trkpt>
      <trkpt lat="48.10067" lon="6.40279">
        <ele>362.9</ele>
        <time>2023-04-30T16:29:48Z</time>
      </trkpt>
      <trkpt lat="48.10069" lon="6.40264">
        <ele>362.5</ele>
        <time>2023-04-30T16:29:49Z</time>
      </trkpt>
      <trkpt lat="48.10071" lon="6.4025">
        <ele>362.1</ele>
        <time>2023-04-30T16:29:50Z</time>
      </trkpt>
      <trkpt lat="48.10072" lon="6.40236">
        <ele>361.7</ele>
        <time>2023-04-30T16:29:51Z</time>
      </trkpt>
      <trkpt lat="48.10074" lon="6.40221">
        <ele>361.3</ele>
        <time>2023-04-30T16:29:52Z</time>
      </trkpt>
      <trkpt lat="48.10075" lon="6.40206">
        <ele>361</ele>
        <time>2023-04-30T16:29:53Z</time>
      </trkpt>
      <trkpt lat="48.10075" lon="6.40191">
        <ele>360.6</ele>
        <time>2023-04-30T16:29:54Z</time>
      </trkpt>
      <trkpt lat="48.10074" lon="6.40177">
        <ele>360.4</ele>
        <time>2023-04-30T16:29:55Z</time>
      </trkpt>
      <trkpt lat="48.10074" lon="6.40162">
        <ele>360.2</ele>
        <time>2023-04-30T16:29:56Z</time>
      </trkpt>
      <trkpt lat="48.10073" lon="6.40148">
        <ele>360</ele>
        <time>2023-04-30T16:29:57Z</time>
      </trkpt>
      <trkpt lat="48.10073" lon="6.40134">
        <ele>359.9</ele>
        <time>2023-04-30T16:29:58Z</time>
      </trkpt>
      <trkpt lat="48.10072" lon="6.4012">
        <ele>359.8</ele>
        <time>2023-04-30T16:29:59Z</time>
      </trkpt>
      <trkpt lat="48.10071" lon="6.40106">
        <ele>359.8</ele>
        <time>2023-04-30T16:30:00Z</time>
      </trkpt>
      <trkpt lat="48.10071" lon="6.40092">
        <ele>359.8</ele>
        <time>2023-04-30T16:30:01Z</time>
      </trkpt>
      <trkpt lat="48.1007" lon="6.40079">
        <ele>359.7</ele>
        <time>2023-04-30T16:30:02Z</time>
      </trkpt>
      <trkpt lat="48.10069" lon="6.40065">
        <ele>359.7</ele>
        <time>2023-04-30T16:30:03Z</time>
      </trkpt>
      <trkpt lat="48.10068" lon="6.40052">
        <ele>359.7</ele>
        <time>2023-04-30T16:30:04Z</time>
      </trkpt>
      <trkpt lat="48.10068" lon="6.40039">
        <ele>359.6</ele>
        <time>2023-04-30T16:30:05Z</time>
      </trkpt>
      <trkpt lat="48.10067" lon="6.40026">
        <ele>359.6</ele>
        <time>2023-04-30T16:30:06Z</time>
      </trkpt>
      <trkpt lat="48.10067" lon="6.40013">
        <ele>359.6</ele>
        <time>2023-04-30T16:30:07Z</time>
      </trkpt>
      <trkpt lat="48.10066" lon="6.40001">
        <ele>359.6</ele>
        <time>2023-04-30T16:30:08Z</time>
      </trkpt>
      <trkpt lat="48.10066" lon="6.39989">
        <ele>359.6</ele>
        <time>2023-04-30T16:30:09Z</time>
      </trkpt>
      <trkpt lat="48.10065" lon="6.39976">
        <ele>359.6</ele>
        <time>2023-04-30T16:30:10Z</time>
      </trkpt>
      <trkpt lat="48.10065" lon="6.39965">
        <ele>359.6</ele>
        <time>2023-04-30T16:30:11Z</time>
      </trkpt>
      <trkpt lat="48.10065" lon="6.39952">
        <ele>359.6</ele>
        <time>2023-04-30T16:30:12Z</time>
      </trkpt>
      <trkpt lat="48.10068" lon="6.39941">
        <ele>359.5</ele>
        <time>2023-04-30T16:30:13Z</time>
      </trkpt>
      <trkpt lat="48.10071" lon="6.3993">
        <ele>359.5</ele>
        <time>2023-04-30T16:30:14Z</time>
      </trkpt>
      <trkpt lat="48.10074" lon="6.39919">
        <ele>359.4</ele>
        <time>2023-04-30T16:30:15Z</time>
      </trkpt>
      <trkpt lat="48.10078" lon="6.39909">
        <ele>359.4</ele>
        <time>2023-04-30T16:30:16Z</time>
      </trkpt>
      <trkpt lat="48.10083" lon="6.39899">
        <ele>359.4</ele>
        <time>2023-04-30T16:30:17Z</time>
      </trkpt>
      <trkpt lat="48.10089" lon="6.3989">
        <ele>359.3</ele>
        <time>2023-04-30T16:30:18Z</time>
      </trkpt>
      <trkpt lat="48.10095" lon="6.39883">
        <ele>359.2</ele>
        <time>2023-04-30T16:30:19Z</time>
      </trkpt>
      <trkpt lat="48.10102" lon="6.39877">
        <ele>359.2</ele>
        <time>2023-04-30T16:30:20Z</time>
      </trkpt>
      <trkpt lat="48.10109" lon="6.39872">
        <ele>359.1</ele>
        <time>2023-04-30T16:30:21Z</time>
      </trkpt>
      <trkpt lat="48.10115" lon="6.39866">
        <ele>359</ele>
        <time>2023-04-30T16:30:22Z</time>
      </trkpt>
      <trkpt lat="48.10121" lon="6.3986">
        <ele>359</ele>
        <time>2023-04-30T16:30:23Z</time>
      </trkpt>
      <trkpt lat="48.10127" lon="6.39852">
        <ele>358.9</ele>
        <time>2023-04-30T16:30:24Z</time>
      </trkpt>
      <trkpt lat="48.10132" lon="6.39842">
        <ele>358.9</ele>
        <time>2023-04-30T16:30:25Z</time>
      </trkpt>
      <trkpt lat="48.10135" lon="6.39829">
        <ele>358.9</ele>
        <time>2023-04-30T16:30:26Z</time>
      </trkpt>
      <trkpt lat="48.10137" lon="6.39817">
        <ele>359</ele>
        <time>2023-04-30T16:30:27Z</time>
      </trkpt>
      <trkpt lat="48.10138" lon="6.39806">
        <ele>359.2</ele>
        <time>2023-04-30T16:30:28Z</time>
      </trkpt>
      <trkpt lat="48.10139" lon="6.39796">
        <ele>359.6</ele>
        <time>2023-04-30T16:30:29Z</time>
      </trkpt>
      <trkpt lat="48.10138" lon="6.39788">
        <ele>359.9</ele>
        <time>2023-04-30T16:30:30Z</time>
      </trkpt>
      <trkpt lat="48.10137" lon="6.39784">
        <ele>360.1</ele>
        <time>2023-04-30T16:30:31Z</time>
      </trkpt>
      <trkpt lat="48.10137" lon="6.39779">
        <ele>360.3</ele>
        <time>2023-04-30T16:30:32Z</time>
      </trkpt>
      <trkpt lat="48.10139" lon="6.39773">
        <ele>360.6</ele>
        <time>2023-04-30T16:30:33Z</time>
      </trkpt>
      <trkpt lat="48.10139" lon="6.39771">
        <ele>360.7</ele>
        <time>2023-04-30T16:30:34Z</time>
      </trkpt>
      <trkpt lat="48.10139" lon="6.39767">
        <ele>360.9</ele>
        <time>2023-04-30T16:30:35Z</time>
      </trkpt>
      <trkpt lat="48.1014" lon="6.39761">
        <ele>361.3</ele>
        <time>2023-04-30T16:30:36Z</time>
      </trkpt>
      <trkpt lat="48.1014" lon="6.39755">
        <ele>361.6</ele>
        <time>2023-04-30T16:30:37Z</time>
      </trkpt>
      <trkpt lat="48.10139" lon="6.39753">
        <ele>361.8</ele>
        <time>2023-04-30T16:30:38Z</time>
      </trkpt>
      <trkpt lat="48.10139" lon="6.39744">
        <ele>362.3</ele>
        <time>2023-04-30T16:30:39Z</time>
      </trkpt>
      <trkpt lat="48.10139" lon="6.39738">
        <ele>362.7</ele>
        <time>2023-04-30T16:30:40Z</time>
      </trkpt>
      <trkpt lat="48.10139" lon="6.39734">
        <ele>363</ele>
        <time>2023-04-30T16:30:41Z</time>
      </trkpt>
      <trkpt lat="48.10138" lon="6.39728">
        <ele>363.4</ele>
        <time>2023-04-30T16:30:42Z</time>
      </trkpt>
      <trkpt lat="48.10138" lon="6.39721">
        <ele>364</ele>
        <time>2023-04-30T16:30:43Z</time>
      </trkpt>
      <trkpt lat="48.10136" lon="6.39715">
        <ele>364.5</ele>
        <time>2023-04-30T16:30:44Z</time>
      </trkpt>
      <trkpt lat="48.10136" lon="6.39708">
        <ele>365</ele>
        <time>2023-04-30T16:30:45Z</time>
      </trkpt>
      <trkpt lat="48.10136" lon="6.39702">
        <ele>365.5</ele>
        <time>2023-04-30T16:30:46Z</time>
      </trkpt>
      <trkpt lat="48.10135" lon="6.39696">
        <ele>366</ele>
        <time>2023-04-30T16:30:48Z</time>
      </trkpt>
      <trkpt lat="48.10134" lon="6.3969">
        <ele>366.4</ele>
        <time>2023-04-30T16:30:49Z</time>
      </trkpt>
      <trkpt lat="48.10134" lon="6.39683">
        <ele>367</ele>
        <time>2023-04-30T16:30:50Z</time>
      </trkpt>
      <trkpt lat="48.10134" lon="6.39677">
        <ele>367.5</ele>
        <time>2023-04-30T16:30:51Z</time>
      </trkpt>
      <trkpt lat="48.10134" lon="6.3967">
        <ele>368</ele>
        <time>2023-04-30T16:30:52Z</time>
      </trkpt>
      <trkpt lat="48.10134" lon="6.39665">
        <ele>368.4</ele>
        <time>2023-04-30T16:30:53Z</time>
      </trkpt>
      <trkpt lat="48.10133" lon="6.39658">
        <ele>368.8</ele>
        <time>2023-04-30T16:30:54Z</time>
      </trkpt>
      <trkpt lat="48.10134" lon="6.39653">
        <ele>369.3</ele>
        <time>2023-04-30T16:30:55Z</time>
      </trkpt>
      <trkpt lat="48.10134" lon="6.39648">
        <ele>369.6</ele>
        <time>2023-04-30T16:30:56Z</time>
      </trkpt>
      <trkpt lat="48.10134" lon="6.39643">
        <ele>370</ele>
        <time>2023-04-30T16:30:57Z</time>
      </trkpt>
      <trkpt lat="48.10135" lon="6.39637">
        <ele>370.4</ele>
        <time>2023-04-30T16:30:58Z</time>
      </trkpt>
      <trkpt lat="48.10136" lon="6.39632">
        <ele>370.8</ele>
        <time>2023-04-30T16:30:59Z</time>
      </trkpt>
      <trkpt lat="48.10138" lon="6.39627">
        <ele>371.2</ele>
        <time>2023-04-30T16:31:01Z</time>
      </trkpt>
      <trkpt lat="48.1014" lon="6.39623">
        <ele>371.7</ele>
        <time>2023-04-30T16:31:02Z</time>
      </trkpt>
      <trkpt lat="48.10142" lon="6.39619">
        <ele>372</ele>
        <time>2023-04-30T16:31:03Z</time>
      </trkpt>
      <trkpt lat="48.10144" lon="6.39613">
        <ele>372.4</ele>
        <time>2023-04-30T16:31:04Z</time>
      </trkpt>
      <trkpt lat="48.10147" lon="6.39606">
        <ele>372.8</ele>
        <time>2023-04-30T16:31:05Z</time>
      </trkpt>
      <trkpt lat="48.10149" lon="6.396">
        <ele>373.2</ele>
        <time>2023-04-30T16:31:06Z</time>
      </trkpt>
      <trkpt lat="48.10151" lon="6.39595">
        <ele>373.5</ele>
        <time>2023-04-30T16:31:07Z</time>
      </trkpt>
      <trkpt lat="48.10153" lon="6.3959">
        <ele>373.8</ele>
        <time>2023-04-30T16:31:08Z</time>
      </trkpt>
      <trkpt lat="48.10155" lon="6.39584">
        <ele>374.2</ele>
        <time>2023-04-30T16:31:10Z</time>
      </trkpt>
      <trkpt lat="48.10157" lon="6.39579">
        <ele>374.4</ele>
        <time>2023-04-30T16:31:11Z</time>
      </trkpt>
      <trkpt lat="48.1016" lon="6.39573">
        <ele>374.8</ele>
        <time>2023-04-30T16:31:12Z</time>
      </trkpt>
      <trkpt lat="48.10161" lon="6.39569">
        <ele>375</ele>
        <time>2023-04-30T16:31:13Z</time>
      </trkpt>
      <trkpt lat="48.10163" lon="6.39563">
        <ele>375.3</ele>
        <time>2023-04-30T16:31:14Z</time>
      </trkpt>
      <trkpt lat="48.10165" lon="6.39559">
        <ele>375.5</ele>
        <time>2023-04-30T16:31:16Z</time>
      </trkpt>
      <trkpt lat="48.10166" lon="6.39554">
        <ele>375.8</ele>
        <time>2023-04-30T16:31:17Z</time>
      </trkpt>
      <trkpt lat="48.10169" lon="6.39549">
        <ele>376</ele>
        <time>2023-04-30T16:31:18Z</time>
      </trkpt>
      <trkpt lat="48.10172" lon="6.39542">
        <ele>376.4</ele>
        <time>2023-04-30T16:31:20Z</time>
      </trkpt>
      <trkpt lat="48.10173" lon="6.39537">
        <ele>376.5</ele>
        <time>2023-04-30T16:31:21Z</time>
      </trkpt>
      <trkpt lat="48.10177" lon="6.3953">
        <ele>376.9</ele>
        <time>2023-04-30T16:31:23Z</time>
      </trkpt>
      <trkpt lat="48.10179" lon="6.39525">
        <ele>377.1</ele>
        <time>2023-04-30T16:31:24Z</time>
      </trkpt>
      <trkpt lat="48.10181" lon="6.3952">
        <ele>377.3</ele>
        <time>2023-04-30T16:31:25Z</time>
      </trkpt>
      <trkpt lat="48.10183" lon="6.39516">
        <ele>377.4</ele>
        <time>2023-04-30T16:31:26Z</time>
      </trkpt>
      <trkpt lat="48.10186" lon="6.39508">
        <ele>377.7</ele>
        <time>2023-04-30T16:31:28Z</time>
      </trkpt>
      <trkpt lat="48.10189" lon="6.39501">
        <ele>377.9</ele>
        <time>2023-04-30T16:31:29Z</time>
      </trkpt>
      <trkpt lat="48.10192" lon="6.39495">
        <ele>378.1</ele>
        <time>2023-04-30T16:31:30Z</time>
      </trkpt>
      <trkpt lat="48.10194" lon="6.39491">
        <ele>378.2</ele>
        <time>2023-04-30T16:31:31Z</time>
      </trkpt>
      <trkpt lat="48.10196" lon="6.39486">
        <ele>378.3</ele>
        <time>2023-04-30T16:31:33Z</time>
      </trkpt>
      <trkpt lat="48.10198" lon="6.39482">
        <ele>378.4</ele>
        <time>2023-04-30T16:31:34Z</time>
      </trkpt>
      <trkpt lat="48.102" lon="6.3948">
        <ele>378.5</ele>
        <time>2023-04-30T16:31:35Z</time>
      </trkpt>
      <trkpt lat="48.10203" lon="6.39473">
        <ele>378.6</ele>
        <time>2023-04-30T16:31:37Z</time>
      </trkpt>
      <trkpt lat="48.10205" lon="6.39469">
        <ele>378.7</ele>
        <time>2023-04-30T16:31:38Z</time>
      </trkpt>
      <trkpt lat="48.10207" lon="6.39465">
        <ele>378.8</ele>
        <time>2023-04-30T16:31:39Z</time>
      </trkpt>
      <trkpt lat="48.10211" lon="6.39458">
        <ele>378.9</ele>
        <time>2023-04-30T16:31:40Z</time>
      </trkpt>
      <trkpt lat="48.10213" lon="6.39454">
        <ele>379</ele>
        <time>2023-04-30T16:31:42Z</time>
      </trkpt>
      <trkpt lat="48.10217" lon="6.39448">
        <ele>379.1</ele>
        <time>2023-04-30T16:31:43Z</time>
      </trkpt>
      <trkpt lat="48.1022" lon="6.39444">
        <ele>379.1</ele>
        <time>2023-04-30T16:31:44Z</time>
      </trkpt>
      <trkpt lat="48.10225" lon="6.39437">
        <ele>379.2</ele>
        <time>2023-04-30T16:31:46Z</time>
      </trkpt>
      <trkpt lat="48.10227" lon="6.39434">
        <ele>379.3</ele>
        <time>2023-04-30T16:31:47Z</time>
      </trkpt>
      <trkpt lat="48.10231" lon="6.39431">
        <ele>379.3</ele>
        <time>2023-04-30T16:31:49Z</time>
      </trkpt>
      <trkpt lat="48.10233" lon="6.39427">
        <ele>379.4</ele>
        <time>2023-04-30T16:31:50Z</time>
      </trkpt>
      <trkpt lat="48.10239" lon="6.3942">
        <ele>379.4</ele>
        <time>2023-04-30T16:31:52Z</time>
      </trkpt>
      <trkpt lat="48.10242" lon="6.39416">
        <ele>379.5</ele>
        <time>2023-04-30T16:31:53Z</time>
      </trkpt>
      <trkpt lat="48.10246" lon="6.3941">
        <ele>379.5</ele>
        <time>2023-04-30T16:31:54Z</time>
      </trkpt>
      <trkpt lat="48.10249" lon="6.39406">
        <ele>379.5</ele>
        <time>2023-04-30T16:31:55Z</time>
      </trkpt>
      <trkpt lat="48.10253" lon="6.39401">
        <ele>379.5</ele>
        <time>2023-04-30T16:31:56Z</time>
      </trkpt>
      <trkpt lat="48.10256" lon="6.39396">
        <ele>379.5</ele>
        <time>2023-04-30T16:31:57Z</time>
      </trkpt>
      <trkpt lat="48.1026" lon="6.39391">
        <ele>379.5</ele>
        <time>2023-04-30T16:31:59Z</time>
      </trkpt>
      <trkpt lat="48.10263" lon="6.39387">
        <ele>379.5</ele>
        <time>2023-04-30T16:32:00Z</time>
      </trkpt>
      <trkpt lat="48.10267" lon="6.39382">
        <ele>379.4</ele>
        <time>2023-04-30T16:32:01Z</time>
      </trkpt>
      <trkpt lat="48.10273" lon="6.39375">
        <ele>379.4</ele>
        <time>2023-04-30T16:32:02Z</time>
      </trkpt>
      <trkpt lat="48.10277" lon="6.3937">
        <ele>379.3</ele>
        <time>2023-04-30T16:32:04Z</time>
      </trkpt>
      <trkpt lat="48.10282" lon="6.39366">
        <ele>379.3</ele>
        <time>2023-04-30T16:32:05Z</time>
      </trkpt>
      <trkpt lat="48.10286" lon="6.39362">
        <ele>379.2</ele>
        <time>2023-04-30T16:32:06Z</time>
      </trkpt>
      <trkpt lat="48.1029" lon="6.39358">
        <ele>379.2</ele>
        <time>2023-04-30T16:32:07Z</time>
      </trkpt>
      <trkpt lat="48.10294" lon="6.39354">
        <ele>379.1</ele>
        <time>2023-04-30T16:32:08Z</time>
      </trkpt>
      <trkpt lat="48.10298" lon="6.39351">
        <ele>379.1</ele>
        <time>2023-04-30T16:32:09Z</time>
      </trkpt>
      <trkpt lat="48.10303" lon="6.39347">
        <ele>379.1</ele>
        <time>2023-04-30T16:32:10Z</time>
      </trkpt>
      <trkpt lat="48.10308" lon="6.39343">
        <ele>379</ele>
        <time>2023-04-30T16:32:11Z</time>
      </trkpt>
      <trkpt lat="48.10312" lon="6.3934">
        <ele>379</ele>
        <time>2023-04-30T16:32:12Z</time>
      </trkpt>
      <trkpt lat="48.10318" lon="6.39336">
        <ele>379</ele>
        <time>2023-04-30T16:32:13Z</time>
      </trkpt>
      <trkpt lat="48.10322" lon="6.39332">
        <ele>379</ele>
        <time>2023-04-30T16:32:14Z</time>
      </trkpt>
      <trkpt lat="48.10327" lon="6.39329">
        <ele>379</ele>
        <time>2023-04-30T16:32:15Z</time>
      </trkpt>
      <trkpt lat="48.10332" lon="6.39325">
        <ele>379</ele>
        <time>2023-04-30T16:32:16Z</time>
      </trkpt>
      <trkpt lat="48.10336" lon="6.39321">
        <ele>379.1</ele>
        <time>2023-04-30T16:32:17Z</time>
      </trkpt>
      <trkpt lat="48.10341" lon="6.39317">
        <ele>379.2</ele>
        <time>2023-04-30T16:32:18Z</time>
      </trkpt>
      <trkpt lat="48.10346" lon="6.39313">
        <ele>379.2</ele>
        <time>2023-04-30T16:32:19Z</time>
      </trkpt>
      <trkpt lat="48.10351" lon="6.3931">
        <ele>379.3</ele>
        <time>2023-04-30T16:32:20Z</time>
      </trkpt>
      <trkpt lat="48.10356" lon="6.39306">
        <ele>379.5</ele>
        <time>2023-04-30T16:32:21Z</time>
      </trkpt>
      <trkpt lat="48.1036" lon="6.39302">
        <ele>379.6</ele>
        <time>2023-04-30T16:32:22Z</time>
      </trkpt>
      <trkpt lat="48.10365" lon="6.39299">
        <ele>379.7</ele>
        <time>2023-04-30T16:32:23Z</time>
      </trkpt>
      <trkpt lat="48.10369" lon="6.39296">
        <ele>379.9</ele>
        <time>2023-04-30T16:32:24Z</time>
      </trkpt>
      <trkpt lat="48.10373" lon="6.39293">
        <ele>380</ele>
        <time>2023-04-30T16:32:25Z</time>
      </trkpt>
      <trkpt lat="48.10377" lon="6.39289">
        <ele>380.2</ele>
        <time>2023-04-30T16:32:26Z</time>
      </trkpt>
      <trkpt lat="48.10381" lon="6.39286">
        <ele>380.3</ele>
        <time>2023-04-30T16:32:27Z</time>
      </trkpt>
      <trkpt lat="48.10386" lon="6.39283">
        <ele>380.5</ele>
        <time>2023-04-30T16:32:28Z</time>
      </trkpt>
      <trkpt lat="48.1039" lon="6.3928">
        <ele>380.6</ele>
        <time>2023-04-30T16:32:29Z</time>
      </trkpt>
      <trkpt lat="48.10394" lon="6.39277">
        <ele>380.8</ele>
        <time>2023-04-30T16:32:30Z</time>
      </trkpt>
      <trkpt lat="48.10398" lon="6.39274">
        <ele>380.9</ele>
        <time>2023-04-30T16:32:31Z</time>
      </trkpt>
      <trkpt lat="48.10402" lon="6.39271">
        <ele>381.1</ele>
        <time>2023-04-30T16:32:32Z</time>
      </trkpt>
      <trkpt lat="48.10406" lon="6.39268">
        <ele>381.3</ele>
        <time>2023-04-30T16:32:33Z</time>
      </trkpt>
      <trkpt lat="48.1041" lon="6.39265">
        <ele>381.4</ele>
        <time>2023-04-30T16:32:34Z</time>
      </trkpt>
      <trkpt lat="48.10413" lon="6.39263">
        <ele>381.5</ele>
        <time>2023-04-30T16:32:35Z</time>
      </trkpt>
      <trkpt lat="48.10416" lon="6.39261">
        <ele>381.7</ele>
        <time>2023-04-30T16:32:36Z</time>
      </trkpt>
      <trkpt lat="48.10421" lon="6.39258">
        <ele>381.8</ele>
        <time>2023-04-30T16:32:37Z</time>
      </trkpt>
      <trkpt lat="48.10426" lon="6.39256">
        <ele>382</ele>
        <time>2023-04-30T16:32:38Z</time>
      </trkpt>
      <trkpt lat="48.1043" lon="6.39254">
        <ele>382.2</ele>
        <time>2023-04-30T16:32:39Z</time>
      </trkpt>
      <trkpt lat="48.10434" lon="6.39252">
        <ele>382.3</ele>
        <time>2023-04-30T16:32:40Z</time>
      </trkpt>
      <trkpt lat="48.10441" lon="6.39248">
        <ele>382.5</ele>
        <time>2023-04-30T16:32:41Z</time>
      </trkpt>
      <trkpt lat="48.10445" lon="6.39247">
        <ele>382.7</ele>
        <time>2023-04-30T16:32:42Z</time>
      </trkpt>
      <trkpt lat="48.10451" lon="6.39245">
        <ele>382.9</ele>
        <time>2023-04-30T16:32:44Z</time>
      </trkpt>
      <trkpt lat="48.10455" lon="6.39244">
        <ele>383</ele>
        <time>2023-04-30T16:32:45Z</time>
      </trkpt>
      <trkpt lat="48.1046" lon="6.39241">
        <ele>383.1</ele>
        <time>2023-04-30T16:32:46Z</time>
      </trkpt>
      <trkpt lat="48.10468" lon="6.39242">
        <ele>383.4</ele>
        <time>2023-04-30T16:32:48Z</time>
      </trkpt>
      <trkpt lat="48.10473" lon="6.39242">
        <ele>383.5</ele>
        <time>2023-04-30T16:32:49Z</time>
      </trkpt>
      <trkpt lat="48.10478" lon="6.39241">
        <ele>383.6</ele>
        <time>2023-04-30T16:32:50Z</time>
      </trkpt>
      <trkpt lat="48.10482" lon="6.39241">
        <ele>383.8</ele>
        <time>2023-04-30T16:32:51Z</time>
      </trkpt>
      <trkpt lat="48.10486" lon="6.39241">
        <ele>383.9</ele>
        <time>2023-04-30T16:32:52Z</time>
      </trkpt>
      <trkpt lat="48.10491" lon="6.39242">
        <ele>384</ele>
        <time>2023-04-30T16:32:53Z</time>
      </trkpt>
      <trkpt lat="48.10497" lon="6.39242">
        <ele>384.2</ele>
        <time>2023-04-30T16:32:54Z</time>
      </trkpt>
      <trkpt lat="48.10502" lon="6.39243">
        <ele>384.3</ele>
        <time>2023-04-30T16:32:55Z</time>
      </trkpt>
      <trkpt lat="48.10506" lon="6.39244">
        <ele>384.4</ele>
        <time>2023-04-30T16:32:56Z</time>
      </trkpt>
      <trkpt lat="48.10511" lon="6.39244">
        <ele>384.5</ele>
        <time>2023-04-30T16:32:57Z</time>
      </trkpt>
      <trkpt lat="48.10516" lon="6.39244">
        <ele>384.6</ele>
        <time>2023-04-30T16:32:59Z</time>
      </trkpt>
      <trkpt lat="48.10523" lon="6.39243">
        <ele>384.8</ele>
        <time>2023-04-30T16:33:00Z</time>
      </trkpt>
      <trkpt lat="48.10527" lon="6.39244">
        <ele>384.9</ele>
        <time>2023-04-30T16:33:02Z</time>
      </trkpt>
      <trkpt lat="48.10533" lon="6.39245">
        <ele>385</ele>
        <time>2023-04-30T16:33:03Z</time>
      </trkpt>
      <trkpt lat="48.10538" lon="6.39246">
        <ele>385.1</ele>
        <time>2023-04-30T16:33:04Z</time>
      </trkpt>
      <trkpt lat="48.10544" lon="6.39246">
        <ele>385.3</ele>
        <time>2023-04-30T16:33:05Z</time>
      </trkpt>
      <trkpt lat="48.10548" lon="6.39247">
        <ele>385.3</ele>
        <time>2023-04-30T16:33:07Z</time>
      </trkpt>
      <trkpt lat="48.10553" lon="6.39248">
        <ele>385.3</ele>
        <time>2023-04-30T16:33:08Z</time>
      </trkpt>
      <trkpt lat="48.10558" lon="6.39248">
        <ele>385.3</ele>
        <time>2023-04-30T16:33:09Z</time>
      </trkpt>
      <trkpt lat="48.10563" lon="6.39248">
        <ele>385.3</ele>
        <time>2023-04-30T16:33:10Z</time>
      </trkpt>
      <trkpt lat="48.10569" lon="6.39248">
        <ele>385.3</ele>
        <time>2023-04-30T16:33:11Z</time>
      </trkpt>
      <trkpt lat="48.10574" lon="6.39247">
        <ele>385.3</ele>
        <time>2023-04-30T16:33:12Z</time>
      </trkpt>
      <trkpt lat="48.10579" lon="6.39248">
        <ele>385.3</ele>
        <time>2023-04-30T16:33:14Z</time>
      </trkpt>
      <trkpt lat="48.10584" lon="6.39249">
        <ele>385.3</ele>
        <time>2023-04-30T16:33:15Z</time>
      </trkpt>
      <trkpt lat="48.10591" lon="6.39249">
        <ele>385.3</ele>
        <time>2023-04-30T16:33:16Z</time>
      </trkpt>
      <trkpt lat="48.10596" lon="6.39249">
        <ele>385.3</ele>
        <time>2023-04-30T16:33:17Z</time>
      </trkpt>
      <trkpt lat="48.10602" lon="6.3925">
        <ele>385.3</ele>
        <time>2023-04-30T16:33:19Z</time>
      </trkpt>
      <trkpt lat="48.10607" lon="6.39251">
        <ele>385.2</ele>
        <time>2023-04-30T16:33:20Z</time>
      </trkpt>
      <trkpt lat="48.10611" lon="6.39252">
        <ele>385.2</ele>
        <time>2023-04-30T16:33:21Z</time>
      </trkpt>
      <trkpt lat="48.10616" lon="6.39254">
        <ele>385.2</ele>
        <time>2023-04-30T16:33:22Z</time>
      </trkpt>
      <trkpt lat="48.10621" lon="6.39255">
        <ele>385.1</ele>
        <time>2023-04-30T16:33:23Z</time>
      </trkpt>
      <trkpt lat="48.10625" lon="6.39256">
        <ele>385.1</ele>
        <time>2023-04-30T16:33:24Z</time>
      </trkpt>
      <trkpt lat="48.1063" lon="6.39258">
        <ele>385</ele>
        <time>2023-04-30T16:33:25Z</time>
      </trkpt>
      <trkpt lat="48.10634" lon="6.39261">
        <ele>385</ele>
        <time>2023-04-30T16:33:26Z</time>
      </trkpt>
      <trkpt lat="48.10639" lon="6.39263">
        <ele>384.9</ele>
        <time>2023-04-30T16:33:27Z</time>
      </trkpt>
      <trkpt lat="48.10644" lon="6.39265">
        <ele>384.9</ele>
        <time>2023-04-30T16:33:28Z</time>
      </trkpt>
      <trkpt lat="48.10648" lon="6.39267">
        <ele>384.9</ele>
        <time>2023-04-30T16:33:29Z</time>
      </trkpt>
      <trkpt lat="48.10653" lon="6.3927">
        <ele>384.8</ele>
        <time>2023-04-30T16:33:30Z</time>
      </trkpt>
      <trkpt lat="48.10657" lon="6.39273">
        <ele>384.8</ele>
        <time>2023-04-30T16:33:31Z</time>
      </trkpt>
      <trkpt lat="48.10661" lon="6.39276">
        <ele>384.8</ele>
        <time>2023-04-30T16:33:32Z</time>
      </trkpt>
      <trkpt lat="48.10665" lon="6.3928">
        <ele>384.8</ele>
        <time>2023-04-30T16:33:33Z</time>
      </trkpt>
      <trkpt lat="48.10669" lon="6.39284">
        <ele>384.8</ele>
        <time>2023-04-30T16:33:34Z</time>
      </trkpt>
      <trkpt lat="48.10673" lon="6.39287">
        <ele>384.8</ele>
        <time>2023-04-30T16:33:35Z</time>
      </trkpt>
      <trkpt lat="48.10678" lon="6.39291">
        <ele>384.8</ele>
        <time>2023-04-30T16:33:36Z</time>
      </trkpt>
      <trkpt lat="48.10682" lon="6.39294">
        <ele>384.7</ele>
        <time>2023-04-30T16:33:37Z</time>
      </trkpt>
      <trkpt lat="48.10686" lon="6.39298">
        <ele>384.7</ele>
        <time>2023-04-30T16:33:38Z</time>
      </trkpt>
      <trkpt lat="48.1069" lon="6.39303">
        <ele>384.7</ele>
        <time>2023-04-30T16:33:39Z</time>
      </trkpt>
      <trkpt lat="48.10694" lon="6.39307">
        <ele>384.6</ele>
        <time>2023-04-30T16:33:40Z</time>
      </trkpt>
      <trkpt lat="48.10698" lon="6.39311">
        <ele>384.5</ele>
        <time>2023-04-30T16:33:41Z</time>
      </trkpt>
      <trkpt lat="48.10703" lon="6.39316">
        <ele>384.4</ele>
        <time>2023-04-30T16:33:42Z</time>
      </trkpt>
      <trkpt lat="48.10707" lon="6.39321">
        <ele>384.3</ele>
        <time>2023-04-30T16:33:43Z</time>
      </trkpt>
      <trkpt lat="48.10711" lon="6.39326">
        <ele>384.3</ele>
        <time>2023-04-30T16:33:44Z</time>
      </trkpt>
      <trkpt lat="48.10716" lon="6.39331">
        <ele>384.2</ele>
        <time>2023-04-30T16:33:45Z</time>
      </trkpt>
      <trkpt lat="48.1072" lon="6.39337">
        <ele>384.1</ele>
        <time>2023-04-30T16:33:46Z</time>
      </trkpt>
      <trkpt lat="48.10724" lon="6.39343">
        <ele>384.1</ele>
        <time>2023-04-30T16:33:47Z</time>
      </trkpt>
      <trkpt lat="48.10728" lon="6.39348">
        <ele>384.1</ele>
        <time>2023-04-30T16:33:48Z</time>
      </trkpt>
      <trkpt lat="48.10732" lon="6.39353">
        <ele>384</ele>
        <time>2023-04-30T16:33:49Z</time>
      </trkpt>
      <trkpt lat="48.10736" lon="6.39359">
        <ele>384</ele>
        <time>2023-04-30T16:33:50Z</time>
      </trkpt>
      <trkpt lat="48.1074" lon="6.39365">
        <ele>384</ele>
        <time>2023-04-30T16:33:51Z</time>
      </trkpt>
      <trkpt lat="48.10744" lon="6.3937">
        <ele>384</ele>
        <time>2023-04-30T16:33:52Z</time>
      </trkpt>
      <trkpt lat="48.10748" lon="6.39376">
        <ele>384</ele>
        <time>2023-04-30T16:33:53Z</time>
      </trkpt>
      <trkpt lat="48.10752" lon="6.39381">
        <ele>384</ele>
        <time>2023-04-30T16:33:54Z</time>
      </trkpt>
      <trkpt lat="48.10756" lon="6.39386">
        <ele>384.1</ele>
        <time>2023-04-30T16:33:55Z</time>
      </trkpt>
      <trkpt lat="48.1076" lon="6.39392">
        <ele>384.1</ele>
        <time>2023-04-30T16:33:56Z</time>
      </trkpt>
      <trkpt lat="48.10764" lon="6.39397">
        <ele>384.2</ele>
        <time>2023-04-30T16:33:57Z</time>
      </trkpt>
      <trkpt lat="48.10768" lon="6.39402">
        <ele>384.2</ele>
        <time>2023-04-30T16:33:58Z</time>
      </trkpt>
      <trkpt lat="48.10773" lon="6.39406">
        <ele>384.3</ele>
        <time>2023-04-30T16:33:59Z</time>
      </trkpt>
      <trkpt lat="48.10777" lon="6.39409">
        <ele>384.3</ele>
        <time>2023-04-30T16:34:00Z</time>
      </trkpt>
      <trkpt lat="48.10782" lon="6.39413">
        <ele>384.4</ele>
        <time>2023-04-30T16:34:01Z</time>
      </trkpt>
      <trkpt lat="48.10786" lon="6.39417">
        <ele>384.5</ele>
        <time>2023-04-30T16:34:02Z</time>
      </trkpt>
      <trkpt lat="48.10791" lon="6.3942">
        <ele>384.5</ele>
        <time>2023-04-30T16:34:03Z</time>
      </trkpt>
      <trkpt lat="48.10796" lon="6.39422">
        <ele>384.6</ele>
        <time>2023-04-30T16:34:04Z</time>
      </trkpt>
      <trkpt lat="48.108" lon="6.39425">
        <ele>384.7</ele>
        <time>2023-04-30T16:34:05Z</time>
      </trkpt>
      <trkpt lat="48.10805" lon="6.39427">
        <ele>384.9</ele>
        <time>2023-04-30T16:34:06Z</time>
      </trkpt>
      <trkpt lat="48.1081" lon="6.39429">
        <ele>385</ele>
        <time>2023-04-30T16:34:07Z</time>
      </trkpt>
      <trkpt lat="48.10815" lon="6.39431">
        <ele>385.1</ele>
        <time>2023-04-30T16:34:08Z</time>
      </trkpt>
      <trkpt lat="48.1082" lon="6.39432">
        <ele>385.3</ele>
        <time>2023-04-30T16:34:09Z</time>
      </trkpt>
      <trkpt lat="48.10824" lon="6.39432">
        <ele>385.4</ele>
        <time>2023-04-30T16:34:10Z</time>
      </trkpt>
      <trkpt lat="48.10829" lon="6.39433">
        <ele>385.5</ele>
        <time>2023-04-30T16:34:11Z</time>
      </trkpt>
      <trkpt lat="48.10833" lon="6.39433">
        <ele>385.5</ele>
        <time>2023-04-30T16:34:12Z</time>
      </trkpt>
      <trkpt lat="48.10837" lon="6.3943">
        <ele>385.5</ele>
        <time>2023-04-30T16:34:13Z</time>
      </trkpt>
      <trkpt lat="48.10841" lon="6.39427">
        <ele>385.5</ele>
        <time>2023-04-30T16:34:14Z</time>
      </trkpt>
      <trkpt lat="48.10845" lon="6.39422">
        <ele>385.5</ele>
        <time>2023-04-30T16:34:15Z</time>
      </trkpt>
      <trkpt lat="48.10848" lon="6.39415">
        <ele>385.4</ele>
        <time>2023-04-30T16:34:16Z</time>
      </trkpt>
      <trkpt lat="48.10852" lon="6.39408">
        <ele>385.4</ele>
        <time>2023-04-30T16:34:17Z</time>
      </trkpt>
      <trkpt lat="48.10856" lon="6.39401">
        <ele>385.3</ele>
        <time>2023-04-30T16:34:18Z</time>
      </trkpt>
      <trkpt lat="48.1086" lon="6.39393">
        <ele>385.3</ele>
        <time>2023-04-30T16:34:19Z</time>
      </trkpt>
      <trkpt lat="48.10864" lon="6.39385">
        <ele>385.2</ele>
        <time>2023-04-30T16:34:20Z</time>
      </trkpt>
      <trkpt lat="48.10869" lon="6.39378">
        <ele>385.2</ele>
        <time>2023-04-30T16:34:21Z</time>
      </trkpt>
      <trkpt lat="48.10874" lon="6.39372">
        <ele>385.2</ele>
        <time>2023-04-30T16:34:22Z</time>
      </trkpt>
      <trkpt lat="48.10878" lon="6.39366">
        <ele>385.2</ele>
        <time>2023-04-30T16:34:23Z</time>
      </trkpt>
      <trkpt lat="48.10883" lon="6.39359">
        <ele>385.2</ele>
        <time>2023-04-30T16:34:24Z</time>
      </trkpt>
      <trkpt lat="48.10887" lon="6.39353">
        <ele>385.3</ele>
        <time>2023-04-30T16:34:25Z</time>
      </trkpt>
      <trkpt lat="48.10891" lon="6.39347">
        <ele>385.4</ele>
        <time>2023-04-30T16:34:26Z</time>
      </trkpt>
      <trkpt lat="48.10896" lon="6.39341">
        <ele>385.5</ele>
        <time>2023-04-30T16:34:27Z</time>
      </trkpt>
      <trkpt lat="48.109" lon="6.39335">
        <ele>385.6</ele>
        <time>2023-04-30T16:34:28Z</time>
      </trkpt>
      <trkpt lat="48.10904" lon="6.39329">
        <ele>385.8</ele>
        <time>2023-04-30T16:34:29Z</time>
      </trkpt>
      <trkpt lat="48.10908" lon="6.39323">
        <ele>385.9</ele>
        <time>2023-04-30T16:34:30Z</time>
      </trkpt>
      <trkpt lat="48.10912" lon="6.39317">
        <ele>386.1</ele>
        <time>2023-04-30T16:34:31Z</time>
      </trkpt>
      <trkpt lat="48.10916" lon="6.39312">
        <ele>386.2</ele>
        <time>2023-04-30T16:34:32Z</time>
      </trkpt>
      <trkpt lat="48.1092" lon="6.39306">
        <ele>386.4</ele>
        <time>2023-04-30T16:34:33Z</time>
      </trkpt>
      <trkpt lat="48.10923" lon="6.39301">
        <ele>386.5</ele>
        <time>2023-04-30T16:34:34Z</time>
      </trkpt>
      <trkpt lat="48.10927" lon="6.39295">
        <ele>386.7</ele>
        <time>2023-04-30T16:34:35Z</time>
      </trkpt>
      <trkpt lat="48.10931" lon="6.3929">
        <ele>386.9</ele>
        <time>2023-04-30T16:34:36Z</time>
      </trkpt>
      <trkpt lat="48.10934" lon="6.39285">
        <ele>387.1</ele>
        <time>2023-04-30T16:34:37Z</time>
      </trkpt>
      <trkpt lat="48.10937" lon="6.3928">
        <ele>387.3</ele>
        <time>2023-04-30T16:34:38Z</time>
      </trkpt>
      <trkpt lat="48.10941" lon="6.39275">
        <ele>387.5</ele>
        <time>2023-04-30T16:34:39Z</time>
      </trkpt>
      <trkpt lat="48.10944" lon="6.39271">
        <ele>387.8</ele>
        <time>2023-04-30T16:34:40Z</time>
      </trkpt>
      <trkpt lat="48.10946" lon="6.39268">
        <ele>387.9</ele>
        <time>2023-04-30T16:34:41Z</time>
      </trkpt>
      <trkpt lat="48.1095" lon="6.39263">
        <ele>388.2</ele>
        <time>2023-04-30T16:34:42Z</time>
      </trkpt>
      <trkpt lat="48.10952" lon="6.39259">
        <ele>388.4</ele>
        <time>2023-04-30T16:34:43Z</time>
      </trkpt>
      <trkpt lat="48.10955" lon="6.39255">
        <ele>388.6</ele>
        <time>2023-04-30T16:34:44Z</time>
      </trkpt>
      <trkpt lat="48.10958" lon="6.39251">
        <ele>388.9</ele>
        <time>2023-04-30T16:34:45Z</time>
      </trkpt>
      <trkpt lat="48.10961" lon="6.39247">
        <ele>389.2</ele>
        <time>2023-04-30T16:34:46Z</time>
      </trkpt>
      <trkpt lat="48.10963" lon="6.39245">
        <ele>389.4</ele>
        <time>2023-04-30T16:34:47Z</time>
      </trkpt>
      <trkpt lat="48.10965" lon="6.39242">
        <ele>389.6</ele>
        <time>2023-04-30T16:34:48Z</time>
      </trkpt>
      <trkpt lat="48.10972" lon="6.39234">
        <ele>390.2</ele>
        <time>2023-04-30T16:34:49Z</time>
      </trkpt>
      <trkpt lat="48.10976" lon="6.39231">
        <ele>390.4</ele>
        <time>2023-04-30T16:34:50Z</time>
      </trkpt>
      <trkpt lat="48.10979" lon="6.39228">
        <ele>390.7</ele>
        <time>2023-04-30T16:34:52Z</time>
      </trkpt>
      <trkpt lat="48.10983" lon="6.39223">
        <ele>391</ele>
        <time>2023-04-30T16:34:53Z</time>
      </trkpt>
      <trkpt lat="48.10987" lon="6.3922">
        <ele>391.2</ele>
        <time>2023-04-30T16:34:54Z</time>
      </trkpt>
      <trkpt lat="48.10991" lon="6.39218">
        <ele>391.4</ele>
        <time>2023-04-30T16:34:56Z</time>
      </trkpt>
      <trkpt lat="48.10993" lon="6.39216">
        <ele>391.5</ele>
        <time>2023-04-30T16:34:57Z</time>
      </trkpt>
      <trkpt lat="48.10998" lon="6.39215">
        <ele>391.7</ele>
        <time>2023-04-30T16:34:58Z</time>
      </trkpt>
      <trkpt lat="48.10999" lon="6.39215">
        <ele>391.8</ele>
        <time>2023-04-30T16:34:59Z</time>
      </trkpt>
      <trkpt lat="48.11002" lon="6.39216">
        <ele>391.9</ele>
        <time>2023-04-30T16:35:00Z</time>
      </trkpt>
      <trkpt lat="48.11006" lon="6.39214">
        <ele>392</ele>
        <time>2023-04-30T16:35:01Z</time>
      </trkpt>
      <trkpt lat="48.11009" lon="6.39214">
        <ele>392.2</ele>
        <time>2023-04-30T16:35:02Z</time>
      </trkpt>
      <trkpt lat="48.11014" lon="6.39213">
        <ele>392.3</ele>
        <time>2023-04-30T16:35:03Z</time>
      </trkpt>
      <trkpt lat="48.11021" lon="6.39209">
        <ele>392.6</ele>
        <time>2023-04-30T16:35:05Z</time>
      </trkpt>
      <trkpt lat="48.11027" lon="6.39205">
        <ele>392.8</ele>
        <time>2023-04-30T16:35:06Z</time>
      </trkpt>
      <trkpt lat="48.11031" lon="6.39202">
        <ele>393</ele>
        <time>2023-04-30T16:35:07Z</time>
      </trkpt>
      <trkpt lat="48.11036" lon="6.39201">
        <ele>393.1</ele>
        <time>2023-04-30T16:35:08Z</time>
      </trkpt>
      <trkpt lat="48.11041" lon="6.39199">
        <ele>393.2</ele>
        <time>2023-04-30T16:35:09Z</time>
      </trkpt>
      <trkpt lat="48.11045" lon="6.39198">
        <ele>393.3</ele>
        <time>2023-04-30T16:35:11Z</time>
      </trkpt>
      <trkpt lat="48.11049" lon="6.39197">
        <ele>393.3</ele>
        <time>2023-04-30T16:35:12Z</time>
      </trkpt>
      <trkpt lat="48.11056" lon="6.39194">
        <ele>393.4</ele>
        <time>2023-04-30T16:35:14Z</time>
      </trkpt>
      <trkpt lat="48.1106" lon="6.39192">
        <ele>393.3</ele>
        <time>2023-04-30T16:35:15Z</time>
      </trkpt>
      <trkpt lat="48.11065" lon="6.39191">
        <ele>393.3</ele>
        <time>2023-04-30T16:35:16Z</time>
      </trkpt>
      <trkpt lat="48.11074" lon="6.39186">
        <ele>393</ele>
        <time>2023-04-30T16:35:18Z</time>
      </trkpt>
      <trkpt lat="48.11079" lon="6.39186">
        <ele>392.8</ele>
        <time>2023-04-30T16:35:19Z</time>
      </trkpt>
      <trkpt lat="48.11085" lon="6.39184">
        <ele>392.6</ele>
        <time>2023-04-30T16:35:21Z</time>
      </trkpt>
      <trkpt lat="48.11091" lon="6.39183">
        <ele>392.3</ele>
        <time>2023-04-30T16:35:22Z</time>
      </trkpt>
      <trkpt lat="48.11097" lon="6.39182">
        <ele>392</ele>
        <time>2023-04-30T16:35:23Z</time>
      </trkpt>
      <trkpt lat="48.11103" lon="6.39182">
        <ele>391.7</ele>
        <time>2023-04-30T16:35:24Z</time>
      </trkpt>
      <trkpt lat="48.1111" lon="6.39183">
        <ele>391.3</ele>
        <time>2023-04-30T16:35:25Z</time>
      </trkpt>
      <trkpt lat="48.11117" lon="6.39183">
        <ele>390.9</ele>
        <time>2023-04-30T16:35:26Z</time>
      </trkpt>
      <trkpt lat="48.11124" lon="6.39184">
        <ele>390.5</ele>
        <time>2023-04-30T16:35:27Z</time>
      </trkpt>
      <trkpt lat="48.11132" lon="6.39185">
        <ele>390</ele>
        <time>2023-04-30T16:35:28Z</time>
      </trkpt>
      <trkpt lat="48.1114" lon="6.39186">
        <ele>389.6</ele>
        <time>2023-04-30T16:35:29Z</time>
      </trkpt>
      <trkpt lat="48.11148" lon="6.39187">
        <ele>389.3</ele>
        <time>2023-04-30T16:35:30Z</time>
      </trkpt>
      <trkpt lat="48.11157" lon="6.39187">
        <ele>389.1</ele>
        <time>2023-04-30T16:35:31Z</time>
      </trkpt>
      <trkpt lat="48.11165" lon="6.39187">
        <ele>389</ele>
        <time>2023-04-30T16:35:32Z</time>
      </trkpt>
      <trkpt lat="48.11173" lon="6.39188">
        <ele>389</ele>
        <time>2023-04-30T16:35:33Z</time>
      </trkpt>
      <trkpt lat="48.11182" lon="6.39187">
        <ele>389.1</ele>
        <time>2023-04-30T16:35:34Z</time>
      </trkpt>
      <trkpt lat="48.11189" lon="6.39185">
        <ele>389.2</ele>
        <time>2023-04-30T16:35:35Z</time>
      </trkpt>
      <trkpt lat="48.11197" lon="6.39182">
        <ele>389.5</ele>
        <time>2023-04-30T16:35:36Z</time>
      </trkpt>
      <trkpt lat="48.11205" lon="6.39178">
        <ele>389.6</ele>
        <time>2023-04-30T16:35:37Z</time>
      </trkpt>
      <trkpt lat="48.11212" lon="6.39172">
        <ele>389.6</ele>
        <time>2023-04-30T16:35:38Z</time>
      </trkpt>
      <trkpt lat="48.11217" lon="6.39164">
        <ele>389.7</ele>
        <time>2023-04-30T16:35:39Z</time>
      </trkpt>
      <trkpt lat="48.11224" lon="6.39157">
        <ele>390.2</ele>
        <time>2023-04-30T16:35:40Z</time>
      </trkpt>
      <trkpt lat="48.11227" lon="6.39148">
        <ele>390.6</ele>
        <time>2023-04-30T16:35:41Z</time>
      </trkpt>
      <trkpt lat="48.1123" lon="6.3914">
        <ele>391</ele>
        <time>2023-04-30T16:35:42Z</time>
      </trkpt>
      <trkpt lat="48.11232" lon="6.39133">
        <ele>391.5</ele>
        <time>2023-04-30T16:35:43Z</time>
      </trkpt>
      <trkpt lat="48.11234" lon="6.39126">
        <ele>391.9</ele>
        <time>2023-04-30T16:35:44Z</time>
      </trkpt>
      <trkpt lat="48.11236" lon="6.3912">
        <ele>392.3</ele>
        <time>2023-04-30T16:35:45Z</time>
      </trkpt>
      <trkpt lat="48.11237" lon="6.39116">
        <ele>392.7</ele>
        <time>2023-04-30T16:35:46Z</time>
      </trkpt>
      <trkpt lat="48.1124" lon="6.3911">
        <ele>393.1</ele>
        <time>2023-04-30T16:35:47Z</time>
      </trkpt>
      <trkpt lat="48.11241" lon="6.39108">
        <ele>393.2</ele>
        <time>2023-04-30T16:35:48Z</time>
      </trkpt>
      <trkpt lat="48.11242" lon="6.39104">
        <ele>393.6</ele>
        <time>2023-04-30T16:35:49Z</time>
      </trkpt>
      <trkpt lat="48.11245" lon="6.391">
        <ele>394</ele>
        <time>2023-04-30T16:35:50Z</time>
      </trkpt>
      <trkpt lat="48.11247" lon="6.39095">
        <ele>394.4</ele>
        <time>2023-04-30T16:35:51Z</time>
      </trkpt>
      <trkpt lat="48.1125" lon="6.39089">
        <ele>394.9</ele>
        <time>2023-04-30T16:35:52Z</time>
      </trkpt>
      <trkpt lat="48.11255" lon="6.3908">
        <ele>395.7</ele>
        <time>2023-04-30T16:35:53Z</time>
      </trkpt>
      <trkpt lat="48.11258" lon="6.39076">
        <ele>396.2</ele>
        <time>2023-04-30T16:35:54Z</time>
      </trkpt>
      <trkpt lat="48.11265" lon="6.39067">
        <ele>397.1</ele>
        <time>2023-04-30T16:35:56Z</time>
      </trkpt>
      <trkpt lat="48.11269" lon="6.39063">
        <ele>397.6</ele>
        <time>2023-04-30T16:35:57Z</time>
      </trkpt>
      <trkpt lat="48.11273" lon="6.39059">
        <ele>398.1</ele>
        <time>2023-04-30T16:35:59Z</time>
      </trkpt>
      <trkpt lat="48.11277" lon="6.39055">
        <ele>398.6</ele>
        <time>2023-04-30T16:36:00Z</time>
      </trkpt>
      <trkpt lat="48.11281" lon="6.39051">
        <ele>399</ele>
        <time>2023-04-30T16:36:01Z</time>
      </trkpt>
      <trkpt lat="48.11285" lon="6.39047">
        <ele>399.4</ele>
        <time>2023-04-30T16:36:02Z</time>
      </trkpt>
      <trkpt lat="48.11289" lon="6.39044">
        <ele>399.8</ele>
        <time>2023-04-30T16:36:03Z</time>
      </trkpt>
      <trkpt lat="48.11293" lon="6.39041">
        <ele>400.2</ele>
        <time>2023-04-30T16:36:04Z</time>
      </trkpt>
      <trkpt lat="48.11296" lon="6.39039">
        <ele>400.5</ele>
        <time>2023-04-30T16:36:06Z</time>
      </trkpt>
      <trkpt lat="48.113" lon="6.39036">
        <ele>400.8</ele>
        <time>2023-04-30T16:36:07Z</time>
      </trkpt>
      <trkpt lat="48.11304" lon="6.39035">
        <ele>401.1</ele>
        <time>2023-04-30T16:36:08Z</time>
      </trkpt>
      <trkpt lat="48.11308" lon="6.39032">
        <ele>401.4</ele>
        <time>2023-04-30T16:36:09Z</time>
      </trkpt>
      <trkpt lat="48.11313" lon="6.39029">
        <ele>401.9</ele>
        <time>2023-04-30T16:36:10Z</time>
      </trkpt>
      <trkpt lat="48.11317" lon="6.39026">
        <ele>402.1</ele>
        <time>2023-04-30T16:36:12Z</time>
      </trkpt>
      <trkpt lat="48.11321" lon="6.39023">
        <ele>402.5</ele>
        <time>2023-04-30T16:36:13Z</time>
      </trkpt>
      <trkpt lat="48.11325" lon="6.39021">
        <ele>402.7</ele>
        <time>2023-04-30T16:36:14Z</time>
      </trkpt>
      <trkpt lat="48.11328" lon="6.39019">
        <ele>403</ele>
        <time>2023-04-30T16:36:15Z</time>
      </trkpt>
      <trkpt lat="48.11331" lon="6.39017">
        <ele>403.2</ele>
        <time>2023-04-30T16:36:17Z</time>
      </trkpt>
      <trkpt lat="48.11334" lon="6.39016">
        <ele>403.3</ele>
        <time>2023-04-30T16:36:18Z</time>
      </trkpt>
      <trkpt lat="48.11339" lon="6.39013">
        <ele>403.6</ele>
        <time>2023-04-30T16:36:20Z</time>
      </trkpt>
      <trkpt lat="48.11342" lon="6.39011">
        <ele>403.8</ele>
        <time>2023-04-30T16:36:21Z</time>
      </trkpt>
      <trkpt lat="48.11345" lon="6.39009">
        <ele>404</ele>
        <time>2023-04-30T16:36:22Z</time>
      </trkpt>
      <trkpt lat="48.11349" lon="6.39007">
        <ele>404.1</ele>
        <time>2023-04-30T16:36:23Z</time>
      </trkpt>
      <trkpt lat="48.11352" lon="6.39005">
        <ele>404.2</ele>
        <time>2023-04-30T16:36:24Z</time>
      </trkpt>
      <trkpt lat="48.11358" lon="6.39002">
        <ele>404.4</ele>
        <time>2023-04-30T16:36:26Z</time>
      </trkpt>
      <trkpt lat="48.11362" lon="6.38999">
        <ele>404.5</ele>
        <time>2023-04-30T16:36:27Z</time>
      </trkpt>
      <trkpt lat="48.11366" lon="6.38997">
        <ele>404.6</ele>
        <time>2023-04-30T16:36:28Z</time>
      </trkpt>
      <trkpt lat="48.1137" lon="6.38995">
        <ele>404.7</ele>
        <time>2023-04-30T16:36:29Z</time>
      </trkpt>
      <trkpt lat="48.11373" lon="6.38993">
        <ele>404.8</ele>
        <time>2023-04-30T16:36:31Z</time>
      </trkpt>
      <trkpt lat="48.11377" lon="6.38991">
        <ele>404.9</ele>
        <time>2023-04-30T16:36:32Z</time>
      </trkpt>
      <trkpt lat="48.1138" lon="6.38988">
        <ele>405</ele>
        <time>2023-04-30T16:36:33Z</time>
      </trkpt>
      <trkpt lat="48.11385" lon="6.38986">
        <ele>405.1</ele>
        <time>2023-04-30T16:36:34Z</time>
      </trkpt>
      <trkpt lat="48.11388" lon="6.38984">
        <ele>405.2</ele>
        <time>2023-04-30T16:36:35Z</time>
      </trkpt>
      <trkpt lat="48.11392" lon="6.38981">
        <ele>405.2</ele>
        <time>2023-04-30T16:36:36Z</time>
      </trkpt>
      <trkpt lat="48.11397" lon="6.38978">
        <ele>405.3</ele>
        <time>2023-04-30T16:36:38Z</time>
      </trkpt>
      <trkpt lat="48.114" lon="6.38976">
        <ele>405.4</ele>
        <time>2023-04-30T16:36:39Z</time>
      </trkpt>
      <trkpt lat="48.11405" lon="6.38974">
        <ele>405.5</ele>
        <time>2023-04-30T16:36:40Z</time>
      </trkpt>
      <trkpt lat="48.11408" lon="6.38972">
        <ele>405.6</ele>
        <time>2023-04-30T16:36:41Z</time>
      </trkpt>
      <trkpt lat="48.11413" lon="6.3897">
        <ele>405.7</ele>
        <time>2023-04-30T16:36:42Z</time>
      </trkpt>
      <trkpt lat="48.11417" lon="6.38968">
        <ele>405.8</ele>
        <time>2023-04-30T16:36:44Z</time>
      </trkpt>
      <trkpt lat="48.11421" lon="6.38966">
        <ele>405.9</ele>
        <time>2023-04-30T16:36:45Z</time>
      </trkpt>
      <trkpt lat="48.11425" lon="6.38965">
        <ele>406</ele>
        <time>2023-04-30T16:36:46Z</time>
      </trkpt>
      <trkpt lat="48.11432" lon="6.38962">
        <ele>406.1</ele>
        <time>2023-04-30T16:36:47Z</time>
      </trkpt>
      <trkpt lat="48.11436" lon="6.3896">
        <ele>406.2</ele>
        <time>2023-04-30T16:36:49Z</time>
      </trkpt>
      <trkpt lat="48.11441" lon="6.38959">
        <ele>406.3</ele>
        <time>2023-04-30T16:36:50Z</time>
      </trkpt>
      <trkpt lat="48.11446" lon="6.38959">
        <ele>406.4</ele>
        <time>2023-04-30T16:36:51Z</time>
      </trkpt>
      <trkpt lat="48.11452" lon="6.38959">
        <ele>406.5</ele>
        <time>2023-04-30T16:36:53Z</time>
      </trkpt>
      <trkpt lat="48.11456" lon="6.3896">
        <ele>406.5</ele>
        <time>2023-04-30T16:36:54Z</time>
      </trkpt>
      <trkpt lat="48.11461" lon="6.3896">
        <ele>406.6</ele>
        <time>2023-04-30T16:36:55Z</time>
      </trkpt>
      <trkpt lat="48.11466" lon="6.38961">
        <ele>406.7</ele>
        <time>2023-04-30T16:36:56Z</time>
      </trkpt>
      <trkpt lat="48.1147" lon="6.38962">
        <ele>406.8</ele>
        <time>2023-04-30T16:36:57Z</time>
      </trkpt>
      <trkpt lat="48.11475" lon="6.38963">
        <ele>406.9</ele>
        <time>2023-04-30T16:36:58Z</time>
      </trkpt>
      <trkpt lat="48.11479" lon="6.38964">
        <ele>407</ele>
        <time>2023-04-30T16:37:00Z</time>
      </trkpt>
      <trkpt lat="48.11483" lon="6.38965">
        <ele>407.3</ele>
        <time>2023-04-30T16:37:01Z</time>
      </trkpt>
      <trkpt lat="48.11489" lon="6.38969">
        <ele>407.7</ele>
        <time>2023-04-30T16:37:02Z</time>
      </trkpt>
      <trkpt lat="48.11492" lon="6.38971">
        <ele>407.9</ele>
        <time>2023-04-30T16:37:04Z</time>
      </trkpt>
      <trkpt lat="48.11496" lon="6.38974">
        <ele>408.1</ele>
        <time>2023-04-30T16:37:05Z</time>
      </trkpt>
      <trkpt lat="48.115" lon="6.38978">
        <ele>408.4</ele>
        <time>2023-04-30T16:37:06Z</time>
      </trkpt>
      <trkpt lat="48.11504" lon="6.38982">
        <ele>408.7</ele>
        <time>2023-04-30T16:37:07Z</time>
      </trkpt>
      <trkpt lat="48.11508" lon="6.38985">
        <ele>409</ele>
        <time>2023-04-30T16:37:08Z</time>
      </trkpt>
      <trkpt lat="48.11511" lon="6.38989">
        <ele>409.3</ele>
        <time>2023-04-30T16:37:09Z</time>
      </trkpt>
      <trkpt lat="48.11514" lon="6.38992">
        <ele>409.6</ele>
        <time>2023-04-30T16:37:10Z</time>
      </trkpt>
      <trkpt lat="48.11518" lon="6.38994">
        <ele>409.8</ele>
        <time>2023-04-30T16:37:11Z</time>
      </trkpt>
      <trkpt lat="48.11521" lon="6.38997">
        <ele>410.1</ele>
        <time>2023-04-30T16:37:13Z</time>
      </trkpt>
      <trkpt lat="48.11524" lon="6.39001">
        <ele>410.4</ele>
        <time>2023-04-30T16:37:14Z</time>
      </trkpt>
      <trkpt lat="48.11527" lon="6.39004">
        <ele>410.6</ele>
        <time>2023-04-30T16:37:15Z</time>
      </trkpt>
      <trkpt lat="48.11531" lon="6.39007">
        <ele>410.9</ele>
        <time>2023-04-30T16:37:16Z</time>
      </trkpt>
      <trkpt lat="48.11534" lon="6.3901">
        <ele>411.2</ele>
        <time>2023-04-30T16:37:17Z</time>
      </trkpt>
      <trkpt lat="48.11537" lon="6.39013">
        <ele>411.5</ele>
        <time>2023-04-30T16:37:18Z</time>
      </trkpt>
      <trkpt lat="48.1154" lon="6.39016">
        <ele>411.8</ele>
        <time>2023-04-30T16:37:19Z</time>
      </trkpt>
      <trkpt lat="48.11544" lon="6.39019">
        <ele>412.1</ele>
        <time>2023-04-30T16:37:21Z</time>
      </trkpt>
      <trkpt lat="48.11547" lon="6.39021">
        <ele>412.4</ele>
        <time>2023-04-30T16:37:22Z</time>
      </trkpt>
      <trkpt lat="48.1155" lon="6.39023">
        <ele>412.6</ele>
        <time>2023-04-30T16:37:23Z</time>
      </trkpt>
      <trkpt lat="48.11553" lon="6.39026">
        <ele>413</ele>
        <time>2023-04-30T16:37:24Z</time>
      </trkpt>
      <trkpt lat="48.11556" lon="6.39029">
        <ele>413.2</ele>
        <time>2023-04-30T16:37:26Z</time>
      </trkpt>
      <trkpt lat="48.11559" lon="6.39033">
        <ele>413.5</ele>
        <time>2023-04-30T16:37:27Z</time>
      </trkpt>
      <trkpt lat="48.11563" lon="6.39037">
        <ele>413.8</ele>
        <time>2023-04-30T16:37:28Z</time>
      </trkpt>
      <trkpt lat="48.11567" lon="6.39038">
        <ele>414.1</ele>
        <time>2023-04-30T16:37:30Z</time>
      </trkpt>
      <trkpt lat="48.11569" lon="6.39039">
        <ele>414.2</ele>
        <time>2023-04-30T16:37:31Z</time>
      </trkpt>
      <trkpt lat="48.11573" lon="6.39043">
        <ele>414.5</ele>
        <time>2023-04-30T16:37:32Z</time>
      </trkpt>
      <trkpt lat="48.11577" lon="6.39047">
        <ele>414.7</ele>
        <time>2023-04-30T16:37:33Z</time>
      </trkpt>
      <trkpt lat="48.1158" lon="6.39051">
        <ele>414.9</ele>
        <time>2023-04-30T16:37:34Z</time>
      </trkpt>
      <trkpt lat="48.11583" lon="6.39054">
        <ele>415.1</ele>
        <time>2023-04-30T16:37:35Z</time>
      </trkpt>
      <trkpt lat="48.11587" lon="6.39058">
        <ele>415.4</ele>
        <time>2023-04-30T16:37:37Z</time>
      </trkpt>
      <trkpt lat="48.11592" lon="6.39063">
        <ele>415.6</ele>
        <time>2023-04-30T16:37:38Z</time>
      </trkpt>
      <trkpt lat="48.11595" lon="6.39066">
        <ele>415.8</ele>
        <time>2023-04-30T16:37:40Z</time>
      </trkpt>
      <trkpt lat="48.11598" lon="6.39069">
        <ele>416</ele>
        <time>2023-04-30T16:37:41Z</time>
      </trkpt>
      <trkpt lat="48.11602" lon="6.39073">
        <ele>416.3</ele>
        <time>2023-04-30T16:37:42Z</time>
      </trkpt>
      <trkpt lat="48.11605" lon="6.39076">
        <ele>416.5</ele>
        <time>2023-04-30T16:37:43Z</time>
      </trkpt>
      <trkpt lat="48.11607" lon="6.39078">
        <ele>416.6</ele>
        <time>2023-04-30T16:37:44Z</time>
      </trkpt>
      <trkpt lat="48.1161" lon="6.39081">
        <ele>416.9</ele>
        <time>2023-04-30T16:37:46Z</time>
      </trkpt>
      <trkpt lat="48.11612" lon="6.39084">
        <ele>417.1</ele>
        <time>2023-04-30T16:37:47Z</time>
      </trkpt>
      <trkpt lat="48.11615" lon="6.39086">
        <ele>417.3</ele>
        <time>2023-04-30T16:37:48Z</time>
      </trkpt>
      <trkpt lat="48.11619" lon="6.39089">
        <ele>417.5</ele>
        <time>2023-04-30T16:37:49Z</time>
      </trkpt>
      <trkpt lat="48.11622" lon="6.39092">
        <ele>417.8</ele>
        <time>2023-04-30T16:37:50Z</time>
      </trkpt>
      <trkpt lat="48.11626" lon="6.39095">
        <ele>418.1</ele>
        <time>2023-04-30T16:37:51Z</time>
      </trkpt>
      <trkpt lat="48.11629" lon="6.39098">
        <ele>418.3</ele>
        <time>2023-04-30T16:37:52Z</time>
      </trkpt>
      <trkpt lat="48.11632" lon="6.391">
        <ele>418.5</ele>
        <time>2023-04-30T16:37:54Z</time>
      </trkpt>
      <trkpt lat="48.11634" lon="6.39103">
        <ele>418.7</ele>
        <time>2023-04-30T16:37:55Z</time>
      </trkpt>
      <trkpt lat="48.11637" lon="6.39106">
        <ele>419</ele>
        <time>2023-04-30T16:37:56Z</time>
      </trkpt>
      <trkpt lat="48.1164" lon="6.39109">
        <ele>419.2</ele>
        <time>2023-04-30T16:37:57Z</time>
      </trkpt>
      <trkpt lat="48.11643" lon="6.3911">
        <ele>419.4</ele>
        <time>2023-04-30T16:37:58Z</time>
      </trkpt>
      <trkpt lat="48.11645" lon="6.39112">
        <ele>419.6</ele>
        <time>2023-04-30T16:37:59Z</time>
      </trkpt>
      <trkpt lat="48.11648" lon="6.39115">
        <ele>419.8</ele>
        <time>2023-04-30T16:38:00Z</time>
      </trkpt>
      <trkpt lat="48.11652" lon="6.39121">
        <ele>420.2</ele>
        <time>2023-04-30T16:38:02Z</time>
      </trkpt>
      <trkpt lat="48.11656" lon="6.39126">
        <ele>420.5</ele>
        <time>2023-04-30T16:38:04Z</time>
      </trkpt>
      <trkpt lat="48.11658" lon="6.39129">
        <ele>420.7</ele>
        <time>2023-04-30T16:38:05Z</time>
      </trkpt>
      <trkpt lat="48.11662" lon="6.39135">
        <ele>421.1</ele>
        <time>2023-04-30T16:38:07Z</time>
      </trkpt>
      <trkpt lat="48.11663" lon="6.39137">
        <ele>421.2</ele>
        <time>2023-04-30T16:38:08Z</time>
      </trkpt>
      <trkpt lat="48.11664" lon="6.39139">
        <ele>421.3</ele>
        <time>2023-04-30T16:38:09Z</time>
      </trkpt>
      <trkpt lat="48.11667" lon="6.39142">
        <ele>421.5</ele>
        <time>2023-04-30T16:38:10Z</time>
      </trkpt>
      <trkpt lat="48.11668" lon="6.39143">
        <ele>421.6</ele>
        <time>2023-04-30T16:38:11Z</time>
      </trkpt>
      <trkpt lat="48.11672" lon="6.39146">
        <ele>421.8</ele>
        <time>2023-04-30T16:38:12Z</time>
      </trkpt>
      <trkpt lat="48.11674" lon="6.39147">
        <ele>421.9</ele>
        <time>2023-04-30T16:38:13Z</time>
      </trkpt>
      <trkpt lat="48.11676" lon="6.3915">
        <ele>422.1</ele>
        <time>2023-04-30T16:38:15Z</time>
      </trkpt>
      <trkpt lat="48.11678" lon="6.39154">
        <ele>422.3</ele>
        <time>2023-04-30T16:38:16Z</time>
      </trkpt>
      <trkpt lat="48.1168" lon="6.39158">
        <ele>422.5</ele>
        <time>2023-04-30T16:38:17Z</time>
      </trkpt>
      <trkpt lat="48.11682" lon="6.39161">
        <ele>422.7</ele>
        <time>2023-04-30T16:38:18Z</time>
      </trkpt>
      <trkpt lat="48.11684" lon="6.39165">
        <ele>422.8</ele>
        <time>2023-04-30T16:38:19Z</time>
      </trkpt>
      <trkpt lat="48.11686" lon="6.39169">
        <ele>423</ele>
        <time>2023-04-30T16:38:20Z</time>
      </trkpt>
      <trkpt lat="48.11689" lon="6.39172">
        <ele>423.1</ele>
        <time>2023-04-30T16:38:21Z</time>
      </trkpt>
      <trkpt lat="48.11694" lon="6.39178">
        <ele>423.5</ele>
        <time>2023-04-30T16:38:23Z</time>
      </trkpt>
      <trkpt lat="48.11697" lon="6.39182">
        <ele>423.7</ele>
        <time>2023-04-30T16:38:25Z</time>
      </trkpt>
      <trkpt lat="48.11699" lon="6.39185">
        <ele>423.9</ele>
        <time>2023-04-30T16:38:26Z</time>
      </trkpt>
      <trkpt lat="48.11704" lon="6.39188">
        <ele>424.1</ele>
        <time>2023-04-30T16:38:27Z</time>
      </trkpt>
      <trkpt lat="48.11707" lon="6.39192">
        <ele>424.4</ele>
        <time>2023-04-30T16:38:29Z</time>
      </trkpt>
      <trkpt lat="48.11712" lon="6.39197">
        <ele>424.8</ele>
        <time>2023-04-30T16:38:30Z</time>
      </trkpt>
      <trkpt lat="48.11716" lon="6.392">
        <ele>425</ele>
        <time>2023-04-30T16:38:31Z</time>
      </trkpt>
      <trkpt lat="48.11719" lon="6.39203">
        <ele>425.4</ele>
        <time>2023-04-30T16:38:32Z</time>
      </trkpt>
      <trkpt lat="48.11722" lon="6.39208">
        <ele>425.7</ele>
        <time>2023-04-30T16:38:33Z</time>
      </trkpt>
      <trkpt lat="48.11727" lon="6.39215">
        <ele>426.2</ele>
        <time>2023-04-30T16:38:35Z</time>
      </trkpt>
      <trkpt lat="48.1173" lon="6.39218">
        <ele>426.5</ele>
        <time>2023-04-30T16:38:37Z</time>
      </trkpt>
      <trkpt lat="48.11736" lon="6.39223">
        <ele>427</ele>
        <time>2023-04-30T16:38:38Z</time>
      </trkpt>
      <trkpt lat="48.1174" lon="6.39228">
        <ele>427.5</ele>
        <time>2023-04-30T16:38:39Z</time>
      </trkpt>
      <trkpt lat="48.11742" lon="6.39232">
        <ele>427.8</ele>
        <time>2023-04-30T16:38:41Z</time>
      </trkpt>
      <trkpt lat="48.11748" lon="6.39237">
        <ele>428.3</ele>
        <time>2023-04-30T16:38:42Z</time>
      </trkpt>
      <trkpt lat="48.11753" lon="6.3924">
        <ele>428.8</ele>
        <time>2023-04-30T16:38:43Z</time>
      </trkpt>
      <trkpt lat="48.11758" lon="6.39245">
        <ele>429.4</ele>
        <time>2023-04-30T16:38:45Z</time>
      </trkpt>
      <trkpt lat="48.11762" lon="6.39249">
        <ele>429.8</ele>
        <time>2023-04-30T16:38:46Z</time>
      </trkpt>
      <trkpt lat="48.11768" lon="6.39252">
        <ele>430.4</ele>
        <time>2023-04-30T16:38:47Z</time>
      </trkpt>
      <trkpt lat="48.11773" lon="6.39254">
        <ele>430.9</ele>
        <time>2023-04-30T16:38:49Z</time>
      </trkpt>
      <trkpt lat="48.11779" lon="6.39257">
        <ele>431.4</ele>
        <time>2023-04-30T16:38:50Z</time>
      </trkpt>
      <trkpt lat="48.11786" lon="6.39262">
        <ele>432.1</ele>
        <time>2023-04-30T16:38:52Z</time>
      </trkpt>
      <trkpt lat="48.1179" lon="6.39264">
        <ele>432.5</ele>
        <time>2023-04-30T16:38:53Z</time>
      </trkpt>
      <trkpt lat="48.11796" lon="6.39266">
        <ele>433</ele>
        <time>2023-04-30T16:38:55Z</time>
      </trkpt>
      <trkpt lat="48.11798" lon="6.39268">
        <ele>433.2</ele>
        <time>2023-04-30T16:38:56Z</time>
      </trkpt>
      <trkpt lat="48.11803" lon="6.39269">
        <ele>433.6</ele>
        <time>2023-04-30T16:38:57Z</time>
      </trkpt>
      <trkpt lat="48.11807" lon="6.39272">
        <ele>434</ele>
        <time>2023-04-30T16:38:58Z</time>
      </trkpt>
      <trkpt lat="48.1181" lon="6.39274">
        <ele>434.3</ele>
        <time>2023-04-30T16:38:59Z</time>
      </trkpt>
      <trkpt lat="48.11814" lon="6.39276">
        <ele>434.6</ele>
        <time>2023-04-30T16:39:01Z</time>
      </trkpt>
      <trkpt lat="48.11817" lon="6.39278">
        <ele>434.9</ele>
        <time>2023-04-30T16:39:02Z</time>
      </trkpt>
      <trkpt lat="48.11822" lon="6.39281">
        <ele>435.3</ele>
        <time>2023-04-30T16:39:03Z</time>
      </trkpt>
      <trkpt lat="48.11826" lon="6.39282">
        <ele>435.6</ele>
        <time>2023-04-30T16:39:04Z</time>
      </trkpt>
      <trkpt lat="48.11829" lon="6.39284">
        <ele>435.9</ele>
        <time>2023-04-30T16:39:05Z</time>
      </trkpt>
      <trkpt lat="48.11832" lon="6.39287">
        <ele>436.2</ele>
        <time>2023-04-30T16:39:07Z</time>
      </trkpt>
      <trkpt lat="48.11836" lon="6.39289">
        <ele>436.5</ele>
        <time>2023-04-30T16:39:08Z</time>
      </trkpt>
      <trkpt lat="48.11839" lon="6.39291">
        <ele>436.8</ele>
        <time>2023-04-30T16:39:09Z</time>
      </trkpt>
      <trkpt lat="48.11843" lon="6.39294">
        <ele>437.2</ele>
        <time>2023-04-30T16:39:10Z</time>
      </trkpt>
      <trkpt lat="48.11847" lon="6.39297">
        <ele>437.5</ele>
        <time>2023-04-30T16:39:11Z</time>
      </trkpt>
      <trkpt lat="48.11851" lon="6.393">
        <ele>437.9</ele>
        <time>2023-04-30T16:39:12Z</time>
      </trkpt>
      <trkpt lat="48.11854" lon="6.39303">
        <ele>438.2</ele>
        <time>2023-04-30T16:39:13Z</time>
      </trkpt>
      <trkpt lat="48.11858" lon="6.39307">
        <ele>438.6</ele>
        <time>2023-04-30T16:39:14Z</time>
      </trkpt>
      <trkpt lat="48.11862" lon="6.3931">
        <ele>438.9</ele>
        <time>2023-04-30T16:39:16Z</time>
      </trkpt>
      <trkpt lat="48.11866" lon="6.39314">
        <ele>439.4</ele>
        <time>2023-04-30T16:39:17Z</time>
      </trkpt>
      <trkpt lat="48.11869" lon="6.39319">
        <ele>439.8</ele>
        <time>2023-04-30T16:39:18Z</time>
      </trkpt>
      <trkpt lat="48.11873" lon="6.39323">
        <ele>440.2</ele>
        <time>2023-04-30T16:39:19Z</time>
      </trkpt>
      <trkpt lat="48.11876" lon="6.39326">
        <ele>440.6</ele>
        <time>2023-04-30T16:39:21Z</time>
      </trkpt>
      <trkpt lat="48.11879" lon="6.39329">
        <ele>440.9</ele>
        <time>2023-04-30T16:39:22Z</time>
      </trkpt>
      <trkpt lat="48.11882" lon="6.39333">
        <ele>441.2</ele>
        <time>2023-04-30T16:39:23Z</time>
      </trkpt>
      <trkpt lat="48.11886" lon="6.39338">
        <ele>441.6</ele>
        <time>2023-04-30T16:39:24Z</time>
      </trkpt>
      <trkpt lat="48.11888" lon="6.39342">
        <ele>441.9</ele>
        <time>2023-04-30T16:39:25Z</time>
      </trkpt>
      <trkpt lat="48.11891" lon="6.39346">
        <ele>442.1</ele>
        <time>2023-04-30T16:39:26Z</time>
      </trkpt>
      <trkpt lat="48.11894" lon="6.3935">
        <ele>442.4</ele>
        <time>2023-04-30T16:39:28Z</time>
      </trkpt>
      <trkpt lat="48.11897" lon="6.39353">
        <ele>442.6</ele>
        <time>2023-04-30T16:39:29Z</time>
      </trkpt>
      <trkpt lat="48.119" lon="6.39356">
        <ele>442.9</ele>
        <time>2023-04-30T16:39:30Z</time>
      </trkpt>
      <trkpt lat="48.11904" lon="6.39361">
        <ele>443.1</ele>
        <time>2023-04-30T16:39:31Z</time>
      </trkpt>
      <trkpt lat="48.11906" lon="6.39365">
        <ele>443.2</ele>
        <time>2023-04-30T16:39:33Z</time>
      </trkpt>
      <trkpt lat="48.11904" lon="6.39361">
        <ele>443.4</ele>
        <time>2023-04-30T16:39:34Z</time>
      </trkpt>
      <trkpt lat="48.11904" lon="6.3936">
        <ele>443.4</ele>
        <time>2023-04-30T16:39:35Z</time>
      </trkpt>
      <trkpt lat="48.11904" lon="6.39362">
        <ele>443.4</ele>
        <time>2023-04-30T16:39:36Z</time>
      </trkpt>
      <trkpt lat="48.11906" lon="6.39363">
        <ele>443.5</ele>
        <time>2023-04-30T16:39:37Z</time>
      </trkpt>
      <trkpt lat="48.11909" lon="6.39367">
        <ele>443.6</ele>
        <time>2023-04-30T16:39:38Z</time>
      </trkpt>
      <trkpt lat="48.1191" lon="6.39369">
        <ele>443.6</ele>
        <time>2023-04-30T16:39:39Z</time>
      </trkpt>
      <trkpt lat="48.11912" lon="6.39371">
        <ele>443.7</ele>
        <time>2023-04-30T16:39:41Z</time>
      </trkpt>
      <trkpt lat="48.11913" lon="6.39372">
        <ele>443.7</ele>
        <time>2023-04-30T16:39:42Z</time>
      </trkpt>
      <trkpt lat="48.11917" lon="6.39376">
        <ele>443.7</ele>
        <time>2023-04-30T16:39:44Z</time>
      </trkpt>
      <trkpt lat="48.11919" lon="6.39379">
        <ele>443.7</ele>
        <time>2023-04-30T16:39:45Z</time>
      </trkpt>
      <trkpt lat="48.11921" lon="6.39383">
        <ele>443.6</ele>
        <time>2023-04-30T16:39:46Z</time>
      </trkpt>
      <trkpt lat="48.11924" lon="6.39386">
        <ele>443.6</ele>
        <time>2023-04-30T16:39:47Z</time>
      </trkpt>
      <trkpt lat="48.11926" lon="6.39389">
        <ele>443.5</ele>
        <time>2023-04-30T16:39:48Z</time>
      </trkpt>
      <trkpt lat="48.11929" lon="6.39394">
        <ele>443.4</ele>
        <time>2023-04-30T16:39:49Z</time>
      </trkpt>
      <trkpt lat="48.11934" lon="6.39402">
        <ele>443.1</ele>
        <time>2023-04-30T16:39:51Z</time>
      </trkpt>
      <trkpt lat="48.11938" lon="6.39406">
        <ele>443</ele>
        <time>2023-04-30T16:39:52Z</time>
      </trkpt>
      <trkpt lat="48.11941" lon="6.3941">
        <ele>442.8</ele>
        <time>2023-04-30T16:39:54Z</time>
      </trkpt>
      <trkpt lat="48.11945" lon="6.39412">
        <ele>442.6</ele>
        <time>2023-04-30T16:39:55Z</time>
      </trkpt>
      <trkpt lat="48.11949" lon="6.39414">
        <ele>442.5</ele>
        <time>2023-04-30T16:39:56Z</time>
      </trkpt>
      <trkpt lat="48.11953" lon="6.39417">
        <ele>442.3</ele>
        <time>2023-04-30T16:39:57Z</time>
      </trkpt>
      <trkpt lat="48.11962" lon="6.39421">
        <ele>442</ele>
        <time>2023-04-30T16:39:59Z</time>
      </trkpt>
      <trkpt lat="48.11967" lon="6.39423">
        <ele>441.9</ele>
        <time>2023-04-30T16:40:00Z</time>
      </trkpt>
      <trkpt lat="48.11972" lon="6.39423">
        <ele>441.7</ele>
        <time>2023-04-30T16:40:01Z</time>
      </trkpt>
      <trkpt lat="48.11977" lon="6.39425">
        <ele>441.6</ele>
        <time>2023-04-30T16:40:02Z</time>
      </trkpt>
      <trkpt lat="48.11982" lon="6.39426">
        <ele>441.5</ele>
        <time>2023-04-30T16:40:03Z</time>
      </trkpt>
      <trkpt lat="48.11986" lon="6.39427">
        <ele>441.4</ele>
        <time>2023-04-30T16:40:04Z</time>
      </trkpt>
      <trkpt lat="48.11991" lon="6.39428">
        <ele>441.2</ele>
        <time>2023-04-30T16:40:05Z</time>
      </trkpt>
      <trkpt lat="48.11996" lon="6.39428">
        <ele>441</ele>
        <time>2023-04-30T16:40:06Z</time>
      </trkpt>
      <trkpt lat="48.12001" lon="6.39429">
        <ele>440.7</ele>
        <time>2023-04-30T16:40:07Z</time>
      </trkpt>
      <trkpt lat="48.12006" lon="6.39429">
        <ele>440.4</ele>
        <time>2023-04-30T16:40:08Z</time>
      </trkpt>
      <trkpt lat="48.12012" lon="6.3943">
        <ele>440.1</ele>
        <time>2023-04-30T16:40:09Z</time>
      </trkpt>
      <trkpt lat="48.12018" lon="6.3943">
        <ele>439.7</ele>
        <time>2023-04-30T16:40:10Z</time>
      </trkpt>
      <trkpt lat="48.12024" lon="6.39431">
        <ele>439.4</ele>
        <time>2023-04-30T16:40:11Z</time>
      </trkpt>
      <trkpt lat="48.12031" lon="6.3943">
        <ele>439</ele>
        <time>2023-04-30T16:40:12Z</time>
      </trkpt>
      <trkpt lat="48.12038" lon="6.3943">
        <ele>438.6</ele>
        <time>2023-04-30T16:40:13Z</time>
      </trkpt>
      <trkpt lat="48.12045" lon="6.39429">
        <ele>438.2</ele>
        <time>2023-04-30T16:40:14Z</time>
      </trkpt>
      <trkpt lat="48.12052" lon="6.39429">
        <ele>437.8</ele>
        <time>2023-04-30T16:40:15Z</time>
      </trkpt>
      <trkpt lat="48.1206" lon="6.39429">
        <ele>437.4</ele>
        <time>2023-04-30T16:40:16Z</time>
      </trkpt>
      <trkpt lat="48.12068" lon="6.39428">
        <ele>436.9</ele>
        <time>2023-04-30T16:40:17Z</time>
      </trkpt>
      <trkpt lat="48.12076" lon="6.39426">
        <ele>436.5</ele>
        <time>2023-04-30T16:40:18Z</time>
      </trkpt>
      <trkpt lat="48.12084" lon="6.39424">
        <ele>436.1</ele>
        <time>2023-04-30T16:40:19Z</time>
      </trkpt>
      <trkpt lat="48.12092" lon="6.39419">
        <ele>435.8</ele>
        <time>2023-04-30T16:40:20Z</time>
      </trkpt>
      <trkpt lat="48.12098" lon="6.39411">
        <ele>435.4</ele>
        <time>2023-04-30T16:40:21Z</time>
      </trkpt>
      <trkpt lat="48.12103" lon="6.39401">
        <ele>435</ele>
        <time>2023-04-30T16:40:22Z</time>
      </trkpt>
      <trkpt lat="48.12108" lon="6.3939">
        <ele>434.5</ele>
        <time>2023-04-30T16:40:23Z</time>
      </trkpt>
      <trkpt lat="48.12112" lon="6.39379">
        <ele>434.1</ele>
        <time>2023-04-30T16:40:24Z</time>
      </trkpt>
      <trkpt lat="48.12117" lon="6.39369">
        <ele>433.7</ele>
        <time>2023-04-30T16:40:25Z</time>
      </trkpt>
      <trkpt lat="48.12122" lon="6.39358">
        <ele>433.3</ele>
        <time>2023-04-30T16:40:26Z</time>
      </trkpt>
      <trkpt lat="48.12126" lon="6.39347">
        <ele>432.9</ele>
        <time>2023-04-30T16:40:27Z</time>
      </trkpt>
      <trkpt lat="48.12132" lon="6.39335">
        <ele>432.6</ele>
        <time>2023-04-30T16:40:28Z</time>
      </trkpt>
      <trkpt lat="48.12137" lon="6.39324">
        <ele>432.3</ele>
        <time>2023-04-30T16:40:29Z</time>
      </trkpt>
      <trkpt lat="48.12143" lon="6.39314">
        <ele>432.1</ele>
        <time>2023-04-30T16:40:30Z</time>
      </trkpt>
      <trkpt lat="48.1215" lon="6.39307">
        <ele>431.8</ele>
        <time>2023-04-30T16:40:31Z</time>
      </trkpt>
      <trkpt lat="48.12159" lon="6.39303">
        <ele>431.5</ele>
        <time>2023-04-30T16:40:32Z</time>
      </trkpt>
      <trkpt lat="48.12167" lon="6.39301">
        <ele>431.3</ele>
        <time>2023-04-30T16:40:33Z</time>
      </trkpt>
      <trkpt lat="48.12175" lon="6.39301">
        <ele>431.1</ele>
        <time>2023-04-30T16:40:34Z</time>
      </trkpt>
      <trkpt lat="48.12183" lon="6.39301">
        <ele>431</ele>
        <time>2023-04-30T16:40:35Z</time>
      </trkpt>
      <trkpt lat="48.12191" lon="6.39302">
        <ele>430.9</ele>
        <time>2023-04-30T16:40:36Z</time>
      </trkpt>
      <trkpt lat="48.12199" lon="6.39302">
        <ele>430.8</ele>
        <time>2023-04-30T16:40:37Z</time>
      </trkpt>
      <trkpt lat="48.12207" lon="6.39303">
        <ele>430.7</ele>
        <time>2023-04-30T16:40:38Z</time>
      </trkpt>
      <trkpt lat="48.12215" lon="6.39303">
        <ele>430.7</ele>
        <time>2023-04-30T16:40:39Z</time>
      </trkpt>
      <trkpt lat="48.12222" lon="6.39304">
        <ele>430.6</ele>
        <time>2023-04-30T16:40:40Z</time>
      </trkpt>
      <trkpt lat="48.1223" lon="6.39304">
        <ele>430.5</ele>
        <time>2023-04-30T16:40:41Z</time>
      </trkpt>
      <trkpt lat="48.12238" lon="6.39305">
        <ele>430.4</ele>
        <time>2023-04-30T16:40:42Z</time>
      </trkpt>
      <trkpt lat="48.12245" lon="6.39305">
        <ele>430.3</ele>
        <time>2023-04-30T16:40:43Z</time>
      </trkpt>
      <trkpt lat="48.12252" lon="6.39305">
        <ele>430.3</ele>
        <time>2023-04-30T16:40:44Z</time>
      </trkpt>
      <trkpt lat="48.1226" lon="6.39305">
        <ele>430.3</ele>
        <time>2023-04-30T16:40:45Z</time>
      </trkpt>
      <trkpt lat="48.12267" lon="6.39305">
        <ele>430.3</ele>
        <time>2023-04-30T16:40:46Z</time>
      </trkpt>
      <trkpt lat="48.12274" lon="6.39305">
        <ele>430.3</ele>
        <time>2023-04-30T16:40:47Z</time>
      </trkpt>
      <trkpt lat="48.12281" lon="6.39306">
        <ele>430.3</ele>
        <time>2023-04-30T16:40:48Z</time>
      </trkpt>
      <trkpt lat="48.12288" lon="6.39306">
        <ele>430.3</ele>
        <time>2023-04-30T16:40:49Z</time>
      </trkpt>
      <trkpt lat="48.12295" lon="6.39307">
        <ele>430.3</ele>
        <time>2023-04-30T16:40:50Z</time>
      </trkpt>
      <trkpt lat="48.12302" lon="6.39306">
        <ele>430.3</ele>
        <time>2023-04-30T16:40:51Z</time>
      </trkpt>
      <trkpt lat="48.12308" lon="6.39307">
        <ele>430.3</ele>
        <time>2023-04-30T16:40:52Z</time>
      </trkpt>
      <trkpt lat="48.12315" lon="6.39307">
        <ele>430.3</ele>
        <time>2023-04-30T16:40:53Z</time>
      </trkpt>
      <trkpt lat="48.12322" lon="6.39308">
        <ele>430.2</ele>
        <time>2023-04-30T16:40:54Z</time>
      </trkpt>
      <trkpt lat="48.12328" lon="6.39309">
        <ele>430.2</ele>
        <time>2023-04-30T16:40:55Z</time>
      </trkpt>
      <trkpt lat="48.12335" lon="6.3931">
        <ele>430.2</ele>
        <time>2023-04-30T16:40:56Z</time>
      </trkpt>
      <trkpt lat="48.12342" lon="6.39311">
        <ele>430.2</ele>
        <time>2023-04-30T16:40:57Z</time>
      </trkpt>
      <trkpt lat="48.12349" lon="6.39312">
        <ele>430.2</ele>
        <time>2023-04-30T16:40:58Z</time>
      </trkpt>
      <trkpt lat="48.12356" lon="6.39313">
        <ele>430.3</ele>
        <time>2023-04-30T16:40:59Z</time>
      </trkpt>
      <trkpt lat="48.12362" lon="6.39315">
        <ele>430.4</ele>
        <time>2023-04-30T16:41:00Z</time>
      </trkpt>
      <trkpt lat="48.12368" lon="6.39317">
        <ele>430.4</ele>
        <time>2023-04-30T16:41:01Z</time>
      </trkpt>
      <trkpt lat="48.12374" lon="6.39319">
        <ele>430.5</ele>
        <time>2023-04-30T16:41:02Z</time>
      </trkpt>
      <trkpt lat="48.1238" lon="6.39321">
        <ele>430.6</ele>
        <time>2023-04-30T16:41:03Z</time>
      </trkpt>
      <trkpt lat="48.12386" lon="6.39323">
        <ele>430.6</ele>
        <time>2023-04-30T16:41:04Z</time>
      </trkpt>
      <trkpt lat="48.12392" lon="6.39325">
        <ele>430.7</ele>
        <time>2023-04-30T16:41:05Z</time>
      </trkpt>
      <trkpt lat="48.12398" lon="6.39327">
        <ele>430.8</ele>
        <time>2023-04-30T16:41:06Z</time>
      </trkpt>
      <trkpt lat="48.12403" lon="6.39329">
        <ele>430.8</ele>
        <time>2023-04-30T16:41:07Z</time>
      </trkpt>
      <trkpt lat="48.12409" lon="6.39331">
        <ele>430.9</ele>
        <time>2023-04-30T16:41:08Z</time>
      </trkpt>
      <trkpt lat="48.12414" lon="6.39333">
        <ele>430.9</ele>
        <time>2023-04-30T16:41:09Z</time>
      </trkpt>
      <trkpt lat="48.1242" lon="6.39336">
        <ele>431</ele>
        <time>2023-04-30T16:41:10Z</time>
      </trkpt>
      <trkpt lat="48.12425" lon="6.39338">
        <ele>431</ele>
        <time>2023-04-30T16:41:11Z</time>
      </trkpt>
      <trkpt lat="48.12431" lon="6.39341">
        <ele>431.1</ele>
        <time>2023-04-30T16:41:12Z</time>
      </trkpt>
      <trkpt lat="48.12437" lon="6.39344">
        <ele>431.1</ele>
        <time>2023-04-30T16:41:13Z</time>
      </trkpt>
      <trkpt lat="48.12442" lon="6.39347">
        <ele>431.2</ele>
        <time>2023-04-30T16:41:14Z</time>
      </trkpt>
      <trkpt lat="48.12447" lon="6.39351">
        <ele>431.3</ele>
        <time>2023-04-30T16:41:15Z</time>
      </trkpt>
      <trkpt lat="48.12452" lon="6.39355">
        <ele>431.4</ele>
        <time>2023-04-30T16:41:16Z</time>
      </trkpt>
      <trkpt lat="48.12458" lon="6.39359">
        <ele>431.5</ele>
        <time>2023-04-30T16:41:17Z</time>
      </trkpt>
      <trkpt lat="48.12463" lon="6.39362">
        <ele>431.6</ele>
        <time>2023-04-30T16:41:18Z</time>
      </trkpt>
      <trkpt lat="48.12467" lon="6.39366">
        <ele>431.7</ele>
        <time>2023-04-30T16:41:19Z</time>
      </trkpt>
      <trkpt lat="48.12471" lon="6.3937">
        <ele>431.7</ele>
        <time>2023-04-30T16:41:20Z</time>
      </trkpt>
      <trkpt lat="48.12477" lon="6.39373">
        <ele>431.8</ele>
        <time>2023-04-30T16:41:21Z</time>
      </trkpt>
      <trkpt lat="48.12482" lon="6.39374">
        <ele>431.8</ele>
        <time>2023-04-30T16:41:22Z</time>
      </trkpt>
      <trkpt lat="48.12488" lon="6.39375">
        <ele>431.8</ele>
        <time>2023-04-30T16:41:23Z</time>
      </trkpt>
      <trkpt lat="48.12493" lon="6.39375">
        <ele>431.8</ele>
        <time>2023-04-30T16:41:24Z</time>
      </trkpt>
      <trkpt lat="48.12498" lon="6.39374">
        <ele>431.9</ele>
        <time>2023-04-30T16:41:25Z</time>
      </trkpt>
      <trkpt lat="48.12504" lon="6.39372">
        <ele>431.9</ele>
        <time>2023-04-30T16:41:26Z</time>
      </trkpt>
      <trkpt lat="48.12509" lon="6.39369">
        <ele>432</ele>
        <time>2023-04-30T16:41:27Z</time>
      </trkpt>
      <trkpt lat="48.12514" lon="6.39366">
        <ele>432</ele>
        <time>2023-04-30T16:41:28Z</time>
      </trkpt>
      <trkpt lat="48.12519" lon="6.39362">
        <ele>432.1</ele>
        <time>2023-04-30T16:41:29Z</time>
      </trkpt>
      <trkpt lat="48.12523" lon="6.39359">
        <ele>432.1</ele>
        <time>2023-04-30T16:41:30Z</time>
      </trkpt>
      <trkpt lat="48.12527" lon="6.39356">
        <ele>432.1</ele>
        <time>2023-04-30T16:41:31Z</time>
      </trkpt>
      <trkpt lat="48.12531" lon="6.39353">
        <ele>432.1</ele>
        <time>2023-04-30T16:41:32Z</time>
      </trkpt>
      <trkpt lat="48.12535" lon="6.39352">
        <ele>432.1</ele>
        <time>2023-04-30T16:41:33Z</time>
      </trkpt>
      <trkpt lat="48.12537" lon="6.39351">
        <ele>432.1</ele>
        <time>2023-04-30T16:41:34Z</time>
      </trkpt>
      <trkpt lat="48.12539" lon="6.3935">
        <ele>432.1</ele>
        <time>2023-04-30T16:41:35Z</time>
      </trkpt>
      <trkpt lat="48.12544" lon="6.39346">
        <ele>432.1</ele>
        <time>2023-04-30T16:41:36Z</time>
      </trkpt>
      <trkpt lat="48.12547" lon="6.39342">
        <ele>432.1</ele>
        <time>2023-04-30T16:41:37Z</time>
      </trkpt>
      <trkpt lat="48.12551" lon="6.39336">
        <ele>432</ele>
        <time>2023-04-30T16:41:38Z</time>
      </trkpt>
      <trkpt lat="48.12556" lon="6.39328">
        <ele>431.9</ele>
        <time>2023-04-30T16:41:39Z</time>
      </trkpt>
      <trkpt lat="48.12561" lon="6.3932">
        <ele>431.9</ele>
        <time>2023-04-30T16:41:40Z</time>
      </trkpt>
      <trkpt lat="48.12564" lon="6.39313">
        <ele>431.8</ele>
        <time>2023-04-30T16:41:41Z</time>
      </trkpt>
      <trkpt lat="48.12566" lon="6.39305">
        <ele>431.7</ele>
        <time>2023-04-30T16:41:42Z</time>
      </trkpt>
      <trkpt lat="48.12568" lon="6.39298">
        <ele>431.6</ele>
        <time>2023-04-30T16:41:43Z</time>
      </trkpt>
      <trkpt lat="48.1257" lon="6.39292">
        <ele>431.5</ele>
        <time>2023-04-30T16:41:44Z</time>
      </trkpt>
      <trkpt lat="48.12572" lon="6.39285">
        <ele>431.4</ele>
        <time>2023-04-30T16:41:45Z</time>
      </trkpt>
      <trkpt lat="48.12573" lon="6.39277">
        <ele>431.3</ele>
        <time>2023-04-30T16:41:46Z</time>
      </trkpt>
      <trkpt lat="48.12575" lon="6.39269">
        <ele>431.2</ele>
        <time>2023-04-30T16:41:47Z</time>
      </trkpt>
      <trkpt lat="48.12577" lon="6.39262">
        <ele>431.1</ele>
        <time>2023-04-30T16:41:48Z</time>
      </trkpt>
      <trkpt lat="48.12579" lon="6.39258">
        <ele>431</ele>
        <time>2023-04-30T16:41:49Z</time>
      </trkpt>
      <trkpt lat="48.12581" lon="6.39253">
        <ele>430.9</ele>
        <time>2023-04-30T16:41:50Z</time>
      </trkpt>
      <trkpt lat="48.12582" lon="6.3925">
        <ele>430.9</ele>
        <time>2023-04-30T16:41:51Z</time>
      </trkpt>
      <trkpt lat="48.1259" lon="6.39238">
        <ele>430.5</ele>
        <time>2023-04-30T16:41:53Z</time>
      </trkpt>
      <trkpt lat="48.12595" lon="6.39231">
        <ele>430.3</ele>
        <time>2023-04-30T16:41:54Z</time>
      </trkpt>
      <trkpt lat="48.12598" lon="6.39223">
        <ele>430.1</ele>
        <time>2023-04-30T16:41:55Z</time>
      </trkpt>
      <trkpt lat="48.12602" lon="6.39214">
        <ele>429.9</ele>
        <time>2023-04-30T16:41:56Z</time>
      </trkpt>
      <trkpt lat="48.12606" lon="6.39205">
        <ele>429.7</ele>
        <time>2023-04-30T16:41:57Z</time>
      </trkpt>
      <trkpt lat="48.12611" lon="6.39196">
        <ele>429.6</ele>
        <time>2023-04-30T16:41:58Z</time>
      </trkpt>
      <trkpt lat="48.12615" lon="6.39187">
        <ele>429.4</ele>
        <time>2023-04-30T16:41:59Z</time>
      </trkpt>
      <trkpt lat="48.12619" lon="6.39177">
        <ele>429.4</ele>
        <time>2023-04-30T16:42:00Z</time>
      </trkpt>
      <trkpt lat="48.12623" lon="6.39168">
        <ele>429.4</ele>
        <time>2023-04-30T16:42:01Z</time>
      </trkpt>
      <trkpt lat="48.12626" lon="6.3916">
        <ele>429.3</ele>
        <time>2023-04-30T16:42:02Z</time>
      </trkpt>
      <trkpt lat="48.12628" lon="6.39151">
        <ele>429.2</ele>
        <time>2023-04-30T16:42:03Z</time>
      </trkpt>
      <trkpt lat="48.12631" lon="6.3914">
        <ele>429.1</ele>
        <time>2023-04-30T16:42:04Z</time>
      </trkpt>
      <trkpt lat="48.12632" lon="6.39131">
        <ele>429.1</ele>
        <time>2023-04-30T16:42:05Z</time>
      </trkpt>
      <trkpt lat="48.12633" lon="6.3912">
        <ele>429</ele>
        <time>2023-04-30T16:42:06Z</time>
      </trkpt>
      <trkpt lat="48.12634" lon="6.39106">
        <ele>429</ele>
        <time>2023-04-30T16:42:07Z</time>
      </trkpt>
      <trkpt lat="48.12635" lon="6.39095">
        <ele>429</ele>
        <time>2023-04-30T16:42:08Z</time>
      </trkpt>
      <trkpt lat="48.12635" lon="6.39084">
        <ele>429</ele>
        <time>2023-04-30T16:42:09Z</time>
      </trkpt>
      <trkpt lat="48.12636" lon="6.39074">
        <ele>429</ele>
        <time>2023-04-30T16:42:10Z</time>
      </trkpt>
      <trkpt lat="48.12637" lon="6.39064">
        <ele>429</ele>
        <time>2023-04-30T16:42:11Z</time>
      </trkpt>
      <trkpt lat="48.12638" lon="6.39054">
        <ele>429.1</ele>
        <time>2023-04-30T16:42:12Z</time>
      </trkpt>
      <trkpt lat="48.1264" lon="6.39044">
        <ele>429.1</ele>
        <time>2023-04-30T16:42:13Z</time>
      </trkpt>
      <trkpt lat="48.12641" lon="6.39033">
        <ele>429.3</ele>
        <time>2023-04-30T16:42:14Z</time>
      </trkpt>
      <trkpt lat="48.12641" lon="6.39023">
        <ele>429.3</ele>
        <time>2023-04-30T16:42:15Z</time>
      </trkpt>
      <trkpt lat="48.12642" lon="6.39013">
        <ele>429.4</ele>
        <time>2023-04-30T16:42:16Z</time>
      </trkpt>
      <trkpt lat="48.12642" lon="6.39003">
        <ele>429.5</ele>
        <time>2023-04-30T16:42:17Z</time>
      </trkpt>
      <trkpt lat="48.12642" lon="6.38995">
        <ele>429.6</ele>
        <time>2023-04-30T16:42:18Z</time>
      </trkpt>
      <trkpt lat="48.12642" lon="6.38987">
        <ele>429.7</ele>
        <time>2023-04-30T16:42:19Z</time>
      </trkpt>
      <trkpt lat="48.12642" lon="6.38979">
        <ele>429.8</ele>
        <time>2023-04-30T16:42:20Z</time>
      </trkpt>
      <trkpt lat="48.12642" lon="6.38971">
        <ele>429.9</ele>
        <time>2023-04-30T16:42:21Z</time>
      </trkpt>
      <trkpt lat="48.12642" lon="6.38963">
        <ele>430.1</ele>
        <time>2023-04-30T16:42:22Z</time>
      </trkpt>
      <trkpt lat="48.12642" lon="6.38954">
        <ele>430.3</ele>
        <time>2023-04-30T16:42:23Z</time>
      </trkpt>
      <trkpt lat="48.12642" lon="6.38945">
        <ele>430.6</ele>
        <time>2023-04-30T16:42:24Z</time>
      </trkpt>
      <trkpt lat="48.12642" lon="6.38937">
        <ele>430.8</ele>
        <time>2023-04-30T16:42:25Z</time>
      </trkpt>
      <trkpt lat="48.12641" lon="6.38929">
        <ele>431.1</ele>
        <time>2023-04-30T16:42:26Z</time>
      </trkpt>
      <trkpt lat="48.12641" lon="6.38923">
        <ele>431.3</ele>
        <time>2023-04-30T16:42:27Z</time>
      </trkpt>
      <trkpt lat="48.12641" lon="6.38919">
        <ele>431.4</ele>
        <time>2023-04-30T16:42:28Z</time>
      </trkpt>
      <trkpt lat="48.12642" lon="6.38913">
        <ele>431.6</ele>
        <time>2023-04-30T16:42:29Z</time>
      </trkpt>
      <trkpt lat="48.12643" lon="6.38908">
        <ele>431.8</ele>
        <time>2023-04-30T16:42:30Z</time>
      </trkpt>
      <trkpt lat="48.12643" lon="6.38897">
        <ele>432.1</ele>
        <time>2023-04-30T16:42:31Z</time>
      </trkpt>
      <trkpt lat="48.12643" lon="6.3889">
        <ele>432.3</ele>
        <time>2023-04-30T16:42:32Z</time>
      </trkpt>
      <trkpt lat="48.12643" lon="6.38884">
        <ele>432.4</ele>
        <time>2023-04-30T16:42:33Z</time>
      </trkpt>
      <trkpt lat="48.12643" lon="6.38875">
        <ele>432.5</ele>
        <time>2023-04-30T16:42:35Z</time>
      </trkpt>
      <trkpt lat="48.12643" lon="6.38868">
        <ele>432.5</ele>
        <time>2023-04-30T16:42:36Z</time>
      </trkpt>
      <trkpt lat="48.12643" lon="6.38857">
        <ele>432.5</ele>
        <time>2023-04-30T16:42:37Z</time>
      </trkpt>
      <trkpt lat="48.12644" lon="6.38847">
        <ele>432.3</ele>
        <time>2023-04-30T16:42:38Z</time>
      </trkpt>
      <trkpt lat="48.12644" lon="6.38837">
        <ele>432.2</ele>
        <time>2023-04-30T16:42:39Z</time>
      </trkpt>
      <trkpt lat="48.12644" lon="6.38828">
        <ele>431.9</ele>
        <time>2023-04-30T16:42:40Z</time>
      </trkpt>
      <trkpt lat="48.12644" lon="6.38818">
        <ele>431.6</ele>
        <time>2023-04-30T16:42:41Z</time>
      </trkpt>
      <trkpt lat="48.12645" lon="6.38807">
        <ele>431.3</ele>
        <time>2023-04-30T16:42:42Z</time>
      </trkpt>
      <trkpt lat="48.12645" lon="6.38795">
        <ele>430.9</ele>
        <time>2023-04-30T16:42:43Z</time>
      </trkpt>
      <trkpt lat="48.12645" lon="6.38783">
        <ele>430.5</ele>
        <time>2023-04-30T16:42:44Z</time>
      </trkpt>
      <trkpt lat="48.12645" lon="6.38773">
        <ele>430.2</ele>
        <time>2023-04-30T16:42:45Z</time>
      </trkpt>
      <trkpt lat="48.12645" lon="6.38754">
        <ele>429.9</ele>
        <time>2023-04-30T16:42:46Z</time>
      </trkpt>
      <trkpt lat="48.12644" lon="6.38743">
        <ele>429.7</ele>
        <time>2023-04-30T16:42:47Z</time>
      </trkpt>
      <trkpt lat="48.12644" lon="6.38734">
        <ele>429.7</ele>
        <time>2023-04-30T16:42:48Z</time>
      </trkpt>
      <trkpt lat="48.12645" lon="6.38726">
        <ele>429.6</ele>
        <time>2023-04-30T16:42:49Z</time>
      </trkpt>
      <trkpt lat="48.12645" lon="6.38716">
        <ele>429.5</ele>
        <time>2023-04-30T16:42:50Z</time>
      </trkpt>
      <trkpt lat="48.12645" lon="6.38706">
        <ele>429.4</ele>
        <time>2023-04-30T16:42:51Z</time>
      </trkpt>
      <trkpt lat="48.12645" lon="6.38696">
        <ele>429.2</ele>
        <time>2023-04-30T16:42:52Z</time>
      </trkpt>
      <trkpt lat="48.12645" lon="6.38686">
        <ele>429.1</ele>
        <time>2023-04-30T16:42:53Z</time>
      </trkpt>
      <trkpt lat="48.12645" lon="6.38668">
        <ele>428.7</ele>
        <time>2023-04-30T16:42:54Z</time>
      </trkpt>
      <trkpt lat="48.12646" lon="6.38656">
        <ele>428.5</ele>
        <time>2023-04-30T16:42:55Z</time>
      </trkpt>
      <trkpt lat="48.12647" lon="6.38645">
        <ele>428.3</ele>
        <time>2023-04-30T16:42:56Z</time>
      </trkpt>
      <trkpt lat="48.1265" lon="6.38635">
        <ele>428.2</ele>
        <time>2023-04-30T16:42:57Z</time>
      </trkpt>
      <trkpt lat="48.12653" lon="6.38626">
        <ele>428.1</ele>
        <time>2023-04-30T16:42:58Z</time>
      </trkpt>
      <trkpt lat="48.12658" lon="6.3862">
        <ele>428.3</ele>
        <time>2023-04-30T16:42:59Z</time>
      </trkpt>
      <trkpt lat="48.12665" lon="6.38609">
        <ele>428.7</ele>
        <time>2023-04-30T16:43:00Z</time>
      </trkpt>
      <trkpt lat="48.12672" lon="6.38602">
        <ele>429.2</ele>
        <time>2023-04-30T16:43:01Z</time>
      </trkpt>
      <trkpt lat="48.12676" lon="6.386">
        <ele>429.4</ele>
        <time>2023-04-30T16:43:02Z</time>
      </trkpt>
      <trkpt lat="48.1268" lon="6.386">
        <ele>429.6</ele>
        <time>2023-04-30T16:43:03Z</time>
      </trkpt>
      <trkpt lat="48.12684" lon="6.38599">
        <ele>429.7</ele>
        <time>2023-04-30T16:43:04Z</time>
      </trkpt>
      <trkpt lat="48.12688" lon="6.38598">
        <ele>429.9</ele>
        <time>2023-04-30T16:43:05Z</time>
      </trkpt>
      <trkpt lat="48.12691" lon="6.38598">
        <ele>430.1</ele>
        <time>2023-04-30T16:43:06Z</time>
      </trkpt>
      <trkpt lat="48.12695" lon="6.38598">
        <ele>430.2</ele>
        <time>2023-04-30T16:43:07Z</time>
      </trkpt>
      <trkpt lat="48.12699" lon="6.38599">
        <ele>430.4</ele>
        <time>2023-04-30T16:43:08Z</time>
      </trkpt>
      <trkpt lat="48.12704" lon="6.38598">
        <ele>430.7</ele>
        <time>2023-04-30T16:43:09Z</time>
      </trkpt>
      <trkpt lat="48.12709" lon="6.38598">
        <ele>430.9</ele>
        <time>2023-04-30T16:43:10Z</time>
      </trkpt>
      <trkpt lat="48.12713" lon="6.38597">
        <ele>431.1</ele>
        <time>2023-04-30T16:43:11Z</time>
      </trkpt>
      <trkpt lat="48.12719" lon="6.38596">
        <ele>431.4</ele>
        <time>2023-04-30T16:43:12Z</time>
      </trkpt>
      <trkpt lat="48.12722" lon="6.38596">
        <ele>431.6</ele>
        <time>2023-04-30T16:43:13Z</time>
      </trkpt>
      <trkpt lat="48.12728" lon="6.38593">
        <ele>431.9</ele>
        <time>2023-04-30T16:43:14Z</time>
      </trkpt>
      <trkpt lat="48.12733" lon="6.38591">
        <ele>432.2</ele>
        <time>2023-04-30T16:43:15Z</time>
      </trkpt>
      <trkpt lat="48.1274" lon="6.38587">
        <ele>432.6</ele>
        <time>2023-04-30T16:43:16Z</time>
      </trkpt>
      <trkpt lat="48.12744" lon="6.38583">
        <ele>432.8</ele>
        <time>2023-04-30T16:43:18Z</time>
      </trkpt>
      <trkpt lat="48.12748" lon="6.38579">
        <ele>432.9</ele>
        <time>2023-04-30T16:43:19Z</time>
      </trkpt>
      <trkpt lat="48.12754" lon="6.38573">
        <ele>433.1</ele>
        <time>2023-04-30T16:43:20Z</time>
      </trkpt>
      <trkpt lat="48.12761" lon="6.38565">
        <ele>433.2</ele>
        <time>2023-04-30T16:43:22Z</time>
      </trkpt>
      <trkpt lat="48.12766" lon="6.38562">
        <ele>433.2</ele>
        <time>2023-04-30T16:43:23Z</time>
      </trkpt>
      <trkpt lat="48.1277" lon="6.38557">
        <ele>433.3</ele>
        <time>2023-04-30T16:43:24Z</time>
      </trkpt>
      <trkpt lat="48.12774" lon="6.38554">
        <ele>433.3</ele>
        <time>2023-04-30T16:43:25Z</time>
      </trkpt>
      <trkpt lat="48.12778" lon="6.38551">
        <ele>433.3</ele>
        <time>2023-04-30T16:43:26Z</time>
      </trkpt>
      <trkpt lat="48.12783" lon="6.38548">
        <ele>433.3</ele>
        <time>2023-04-30T16:43:27Z</time>
      </trkpt>
      <trkpt lat="48.12787" lon="6.38545">
        <ele>433.3</ele>
        <time>2023-04-30T16:43:28Z</time>
      </trkpt>
      <trkpt lat="48.12792" lon="6.38542">
        <ele>433.3</ele>
        <time>2023-04-30T16:43:29Z</time>
      </trkpt>
      <trkpt lat="48.12796" lon="6.38539">
        <ele>433.3</ele>
        <time>2023-04-30T16:43:30Z</time>
      </trkpt>
      <trkpt lat="48.12801" lon="6.38537">
        <ele>433.3</ele>
        <time>2023-04-30T16:43:31Z</time>
      </trkpt>
      <trkpt lat="48.12806" lon="6.38535">
        <ele>433.3</ele>
        <time>2023-04-30T16:43:32Z</time>
      </trkpt>
      <trkpt lat="48.12811" lon="6.38532">
        <ele>433.3</ele>
        <time>2023-04-30T16:43:33Z</time>
      </trkpt>
      <trkpt lat="48.12816" lon="6.3853">
        <ele>433.4</ele>
        <time>2023-04-30T16:43:34Z</time>
      </trkpt>
      <trkpt lat="48.12821" lon="6.38528">
        <ele>433.4</ele>
        <time>2023-04-30T16:43:35Z</time>
      </trkpt>
      <trkpt lat="48.12826" lon="6.38527">
        <ele>433.4</ele>
        <time>2023-04-30T16:43:36Z</time>
      </trkpt>
      <trkpt lat="48.12831" lon="6.38525">
        <ele>433.5</ele>
        <time>2023-04-30T16:43:37Z</time>
      </trkpt>
      <trkpt lat="48.12836" lon="6.38523">
        <ele>433.5</ele>
        <time>2023-04-30T16:43:38Z</time>
      </trkpt>
      <trkpt lat="48.12841" lon="6.38522">
        <ele>433.5</ele>
        <time>2023-04-30T16:43:39Z</time>
      </trkpt>
      <trkpt lat="48.12846" lon="6.38522">
        <ele>433.6</ele>
        <time>2023-04-30T16:43:40Z</time>
      </trkpt>
      <trkpt lat="48.12851" lon="6.3852">
        <ele>433.6</ele>
        <time>2023-04-30T16:43:41Z</time>
      </trkpt>
      <trkpt lat="48.12856" lon="6.3852">
        <ele>433.6</ele>
        <time>2023-04-30T16:43:42Z</time>
      </trkpt>
      <trkpt lat="48.12861" lon="6.38519">
        <ele>433.6</ele>
        <time>2023-04-30T16:43:43Z</time>
      </trkpt>
      <trkpt lat="48.12866" lon="6.38518">
        <ele>433.7</ele>
        <time>2023-04-30T16:43:44Z</time>
      </trkpt>
      <trkpt lat="48.12871" lon="6.38516">
        <ele>433.7</ele>
        <time>2023-04-30T16:43:45Z</time>
      </trkpt>
      <trkpt lat="48.12876" lon="6.38515">
        <ele>433.8</ele>
        <time>2023-04-30T16:43:46Z</time>
      </trkpt>
      <trkpt lat="48.12882" lon="6.38514">
        <ele>433.8</ele>
        <time>2023-04-30T16:43:47Z</time>
      </trkpt>
      <trkpt lat="48.12887" lon="6.38513">
        <ele>433.9</ele>
        <time>2023-04-30T16:43:48Z</time>
      </trkpt>
      <trkpt lat="48.12892" lon="6.38512">
        <ele>434</ele>
        <time>2023-04-30T16:43:49Z</time>
      </trkpt>
      <trkpt lat="48.12897" lon="6.3851">
        <ele>434</ele>
        <time>2023-04-30T16:43:50Z</time>
      </trkpt>
      <trkpt lat="48.12902" lon="6.38509">
        <ele>434.1</ele>
        <time>2023-04-30T16:43:51Z</time>
      </trkpt>
      <trkpt lat="48.12907" lon="6.38507">
        <ele>434.1</ele>
        <time>2023-04-30T16:43:52Z</time>
      </trkpt>
      <trkpt lat="48.12912" lon="6.38505">
        <ele>434.2</ele>
        <time>2023-04-30T16:43:53Z</time>
      </trkpt>
      <trkpt lat="48.12917" lon="6.38504">
        <ele>434.2</ele>
        <time>2023-04-30T16:43:54Z</time>
      </trkpt>
      <trkpt lat="48.12922" lon="6.38502">
        <ele>434.3</ele>
        <time>2023-04-30T16:43:55Z</time>
      </trkpt>
      <trkpt lat="48.12927" lon="6.38501">
        <ele>434.4</ele>
        <time>2023-04-30T16:43:56Z</time>
      </trkpt>
      <trkpt lat="48.12932" lon="6.385">
        <ele>434.4</ele>
        <time>2023-04-30T16:43:57Z</time>
      </trkpt>
      <trkpt lat="48.12936" lon="6.38499">
        <ele>434.5</ele>
        <time>2023-04-30T16:43:58Z</time>
      </trkpt>
      <trkpt lat="48.12941" lon="6.38498">
        <ele>434.5</ele>
        <time>2023-04-30T16:43:59Z</time>
      </trkpt>
      <trkpt lat="48.12946" lon="6.38497">
        <ele>434.6</ele>
        <time>2023-04-30T16:44:00Z</time>
      </trkpt>
      <trkpt lat="48.12951" lon="6.38495">
        <ele>434.6</ele>
        <time>2023-04-30T16:44:01Z</time>
      </trkpt>
      <trkpt lat="48.12956" lon="6.38494">
        <ele>434.7</ele>
        <time>2023-04-30T16:44:02Z</time>
      </trkpt>
      <trkpt lat="48.12961" lon="6.38492">
        <ele>434.7</ele>
        <time>2023-04-30T16:44:03Z</time>
      </trkpt>
      <trkpt lat="48.12966" lon="6.38491">
        <ele>434.7</ele>
        <time>2023-04-30T16:44:04Z</time>
      </trkpt>
      <trkpt lat="48.12971" lon="6.38489">
        <ele>434.6</ele>
        <time>2023-04-30T16:44:05Z</time>
      </trkpt>
      <trkpt lat="48.12976" lon="6.38488">
        <ele>434.6</ele>
        <time>2023-04-30T16:44:06Z</time>
      </trkpt>
      <trkpt lat="48.12981" lon="6.38486">
        <ele>434.6</ele>
        <time>2023-04-30T16:44:07Z</time>
      </trkpt>
      <trkpt lat="48.12986" lon="6.38483">
        <ele>434.5</ele>
        <time>2023-04-30T16:44:08Z</time>
      </trkpt>
      <trkpt lat="48.12992" lon="6.38481">
        <ele>434.4</ele>
        <time>2023-04-30T16:44:09Z</time>
      </trkpt>
      <trkpt lat="48.12997" lon="6.38479">
        <ele>434.4</ele>
        <time>2023-04-30T16:44:10Z</time>
      </trkpt>
      <trkpt lat="48.13002" lon="6.38478">
        <ele>434.3</ele>
        <time>2023-04-30T16:44:11Z</time>
      </trkpt>
      <trkpt lat="48.13008" lon="6.38476">
        <ele>434.1</ele>
        <time>2023-04-30T16:44:12Z</time>
      </trkpt>
      <trkpt lat="48.13013" lon="6.38476">
        <ele>433.9</ele>
        <time>2023-04-30T16:44:13Z</time>
      </trkpt>
      <trkpt lat="48.13019" lon="6.38475">
        <ele>433.7</ele>
        <time>2023-04-30T16:44:14Z</time>
      </trkpt>
      <trkpt lat="48.13025" lon="6.38474">
        <ele>433.4</ele>
        <time>2023-04-30T16:44:15Z</time>
      </trkpt>
      <trkpt lat="48.13031" lon="6.38473">
        <ele>433.1</ele>
        <time>2023-04-30T16:44:16Z</time>
      </trkpt>
      <trkpt lat="48.13037" lon="6.38473">
        <ele>432.8</ele>
        <time>2023-04-30T16:44:17Z</time>
      </trkpt>
      <trkpt lat="48.13043" lon="6.38471">
        <ele>432.4</ele>
        <time>2023-04-30T16:44:18Z</time>
      </trkpt>
      <trkpt lat="48.13049" lon="6.3847">
        <ele>432.1</ele>
        <time>2023-04-30T16:44:19Z</time>
      </trkpt>
      <trkpt lat="48.13056" lon="6.38467">
        <ele>431.7</ele>
        <time>2023-04-30T16:44:20Z</time>
      </trkpt>
      <trkpt lat="48.13063" lon="6.38465">
        <ele>431.2</ele>
        <time>2023-04-30T16:44:21Z</time>
      </trkpt>
      <trkpt lat="48.13069" lon="6.38459">
        <ele>430.7</ele>
        <time>2023-04-30T16:44:22Z</time>
      </trkpt>
      <trkpt lat="48.13075" lon="6.38452">
        <ele>430.2</ele>
        <time>2023-04-30T16:44:23Z</time>
      </trkpt>
      <trkpt lat="48.13079" lon="6.38443">
        <ele>429.6</ele>
        <time>2023-04-30T16:44:24Z</time>
      </trkpt>
      <trkpt lat="48.13084" lon="6.38433">
        <ele>429.2</ele>
        <time>2023-04-30T16:44:25Z</time>
      </trkpt>
      <trkpt lat="48.13089" lon="6.38422">
        <ele>428.8</ele>
        <time>2023-04-30T16:44:26Z</time>
      </trkpt>
      <trkpt lat="48.13095" lon="6.38412">
        <ele>428.6</ele>
        <time>2023-04-30T16:44:27Z</time>
      </trkpt>
      <trkpt lat="48.131" lon="6.38403">
        <ele>428.5</ele>
        <time>2023-04-30T16:44:28Z</time>
      </trkpt>
      <trkpt lat="48.13107" lon="6.38396">
        <ele>428.5</ele>
        <time>2023-04-30T16:44:29Z</time>
      </trkpt>
      <trkpt lat="48.13114" lon="6.38391">
        <ele>428.6</ele>
        <time>2023-04-30T16:44:30Z</time>
      </trkpt>
      <trkpt lat="48.13121" lon="6.38389">
        <ele>428.7</ele>
        <time>2023-04-30T16:44:31Z</time>
      </trkpt>
      <trkpt lat="48.13129" lon="6.38389">
        <ele>428.8</ele>
        <time>2023-04-30T16:44:32Z</time>
      </trkpt>
      <trkpt lat="48.13136" lon="6.38392">
        <ele>429</ele>
        <time>2023-04-30T16:44:33Z</time>
      </trkpt>
      <trkpt lat="48.13143" lon="6.38395">
        <ele>429.3</ele>
        <time>2023-04-30T16:44:34Z</time>
      </trkpt>
      <trkpt lat="48.13148" lon="6.38398">
        <ele>429.5</ele>
        <time>2023-04-30T16:44:35Z</time>
      </trkpt>
      <trkpt lat="48.13154" lon="6.38403">
        <ele>429.8</ele>
        <time>2023-04-30T16:44:36Z</time>
      </trkpt>
      <trkpt lat="48.13159" lon="6.38408">
        <ele>430.2</ele>
        <time>2023-04-30T16:44:37Z</time>
      </trkpt>
      <trkpt lat="48.13164" lon="6.38413">
        <ele>430.5</ele>
        <time>2023-04-30T16:44:38Z</time>
      </trkpt>
      <trkpt lat="48.13169" lon="6.38419">
        <ele>430.9</ele>
        <time>2023-04-30T16:44:39Z</time>
      </trkpt>
      <trkpt lat="48.13173" lon="6.38425">
        <ele>431.3</ele>
        <time>2023-04-30T16:44:40Z</time>
      </trkpt>
      <trkpt lat="48.13177" lon="6.3843">
        <ele>431.7</ele>
        <time>2023-04-30T16:44:41Z</time>
      </trkpt>
      <trkpt lat="48.13181" lon="6.38435">
        <ele>432</ele>
        <time>2023-04-30T16:44:42Z</time>
      </trkpt>
      <trkpt lat="48.13185" lon="6.3844">
        <ele>432.4</ele>
        <time>2023-04-30T16:44:43Z</time>
      </trkpt>
      <trkpt lat="48.13189" lon="6.38445">
        <ele>432.8</ele>
        <time>2023-04-30T16:44:44Z</time>
      </trkpt>
      <trkpt lat="48.13192" lon="6.38449">
        <ele>433.1</ele>
        <time>2023-04-30T16:44:45Z</time>
      </trkpt>
      <trkpt lat="48.13196" lon="6.38453">
        <ele>433.4</ele>
        <time>2023-04-30T16:44:46Z</time>
      </trkpt>
      <trkpt lat="48.13199" lon="6.38457">
        <ele>433.7</ele>
        <time>2023-04-30T16:44:47Z</time>
      </trkpt>
      <trkpt lat="48.13201" lon="6.38459">
        <ele>433.9</ele>
        <time>2023-04-30T16:44:48Z</time>
      </trkpt>
      <trkpt lat="48.13206" lon="6.38464">
        <ele>434.4</ele>
        <time>2023-04-30T16:44:49Z</time>
      </trkpt>
      <trkpt lat="48.1321" lon="6.38468">
        <ele>434.8</ele>
        <time>2023-04-30T16:44:50Z</time>
      </trkpt>
      <trkpt lat="48.13215" lon="6.38472">
        <ele>435.3</ele>
        <time>2023-04-30T16:44:51Z</time>
      </trkpt>
      <trkpt lat="48.13219" lon="6.38476">
        <ele>435.7</ele>
        <time>2023-04-30T16:44:52Z</time>
      </trkpt>
      <trkpt lat="48.13223" lon="6.38479">
        <ele>436.1</ele>
        <time>2023-04-30T16:44:53Z</time>
      </trkpt>
      <trkpt lat="48.13227" lon="6.38482">
        <ele>436.6</ele>
        <time>2023-04-30T16:44:54Z</time>
      </trkpt>
      <trkpt lat="48.13231" lon="6.38485">
        <ele>437</ele>
        <time>2023-04-30T16:44:55Z</time>
      </trkpt>
      <trkpt lat="48.13236" lon="6.38486">
        <ele>437.4</ele>
        <time>2023-04-30T16:44:56Z</time>
      </trkpt>
      <trkpt lat="48.1324" lon="6.38486">
        <ele>437.9</ele>
        <time>2023-04-30T16:44:57Z</time>
      </trkpt>
      <trkpt lat="48.13245" lon="6.38487">
        <ele>438.3</ele>
        <time>2023-04-30T16:44:58Z</time>
      </trkpt>
      <trkpt lat="48.13249" lon="6.38484">
        <ele>438.5</ele>
        <time>2023-04-30T16:44:59Z</time>
      </trkpt>
      <trkpt lat="48.13251" lon="6.38478">
        <ele>438.8</ele>
        <time>2023-04-30T16:45:00Z</time>
      </trkpt>
      <trkpt lat="48.13251" lon="6.38472">
        <ele>439.1</ele>
        <time>2023-04-30T16:45:01Z</time>
      </trkpt>
      <trkpt lat="48.13252" lon="6.38466">
        <ele>439.4</ele>
        <time>2023-04-30T16:45:03Z</time>
      </trkpt>
      <trkpt lat="48.13255" lon="6.38457">
        <ele>439.8</ele>
        <time>2023-04-30T16:45:04Z</time>
      </trkpt>
      <trkpt lat="48.13259" lon="6.38446">
        <ele>440.3</ele>
        <time>2023-04-30T16:45:06Z</time>
      </trkpt>
      <trkpt lat="48.1326" lon="6.38442">
        <ele>440.5</ele>
        <time>2023-04-30T16:45:07Z</time>
      </trkpt>
      <trkpt lat="48.13262" lon="6.38436">
        <ele>440.7</ele>
        <time>2023-04-30T16:45:08Z</time>
      </trkpt>
      <trkpt lat="48.13263" lon="6.38429">
        <ele>440.9</ele>
        <time>2023-04-30T16:45:09Z</time>
      </trkpt>
      <trkpt lat="48.13264" lon="6.38422">
        <ele>441.2</ele>
        <time>2023-04-30T16:45:10Z</time>
      </trkpt>
      <trkpt lat="48.13265" lon="6.38417">
        <ele>441.4</ele>
        <time>2023-04-30T16:45:11Z</time>
      </trkpt>
      <trkpt lat="48.13265" lon="6.38411">
        <ele>441.6</ele>
        <time>2023-04-30T16:45:13Z</time>
      </trkpt>
      <trkpt lat="48.13267" lon="6.38405">
        <ele>441.8</ele>
        <time>2023-04-30T16:45:14Z</time>
      </trkpt>
      <trkpt lat="48.13268" lon="6.38398">
        <ele>442</ele>
        <time>2023-04-30T16:45:15Z</time>
      </trkpt>
      <trkpt lat="48.13268" lon="6.38393">
        <ele>442.1</ele>
        <time>2023-04-30T16:45:16Z</time>
      </trkpt>
      <trkpt lat="48.1327" lon="6.38388">
        <ele>442.3</ele>
        <time>2023-04-30T16:45:18Z</time>
      </trkpt>
      <trkpt lat="48.13274" lon="6.3838">
        <ele>442.5</ele>
        <time>2023-04-30T16:45:19Z</time>
      </trkpt>
      <trkpt lat="48.13275" lon="6.38372">
        <ele>442.7</ele>
        <time>2023-04-30T16:45:21Z</time>
      </trkpt>
      <trkpt lat="48.13277" lon="6.38367">
        <ele>442.8</ele>
        <time>2023-04-30T16:45:22Z</time>
      </trkpt>
      <trkpt lat="48.13279" lon="6.38361">
        <ele>442.9</ele>
        <time>2023-04-30T16:45:23Z</time>
      </trkpt>
      <trkpt lat="48.13281" lon="6.38357">
        <ele>443</ele>
        <time>2023-04-30T16:45:24Z</time>
      </trkpt>
      <trkpt lat="48.13283" lon="6.38352">
        <ele>443.1</ele>
        <time>2023-04-30T16:45:25Z</time>
      </trkpt>
      <trkpt lat="48.13285" lon="6.38346">
        <ele>443.2</ele>
        <time>2023-04-30T16:45:27Z</time>
      </trkpt>
      <trkpt lat="48.13286" lon="6.38342">
        <ele>443.3</ele>
        <time>2023-04-30T16:45:28Z</time>
      </trkpt>
      <trkpt lat="48.13287" lon="6.38341">
        <ele>443.3</ele>
        <time>2023-04-30T16:45:29Z</time>
      </trkpt>
      <trkpt lat="48.13289" lon="6.38335">
        <ele>443.4</ele>
        <time>2023-04-30T16:45:30Z</time>
      </trkpt>
      <trkpt lat="48.1329" lon="6.38333">
        <ele>443.4</ele>
        <time>2023-04-30T16:45:31Z</time>
      </trkpt>
      <trkpt lat="48.13292" lon="6.38326">
        <ele>443.5</ele>
        <time>2023-04-30T16:45:32Z</time>
      </trkpt>
      <trkpt lat="48.13295" lon="6.38319">
        <ele>443.6</ele>
        <time>2023-04-30T16:45:34Z</time>
      </trkpt>
      <trkpt lat="48.13297" lon="6.38313">
        <ele>443.6</ele>
        <time>2023-04-30T16:45:35Z</time>
      </trkpt>
      <trkpt lat="48.13299" lon="6.38305">
        <ele>443.7</ele>
        <time>2023-04-30T16:45:36Z</time>
      </trkpt>
      <trkpt lat="48.13301" lon="6.38298">
        <ele>443.7</ele>
        <time>2023-04-30T16:45:37Z</time>
      </trkpt>
      <trkpt lat="48.13304" lon="6.38288">
        <ele>443.8</ele>
        <time>2023-04-30T16:45:38Z</time>
      </trkpt>
      <trkpt lat="48.13307" lon="6.3828">
        <ele>443.8</ele>
        <time>2023-04-30T16:45:40Z</time>
      </trkpt>
      <trkpt lat="48.1331" lon="6.38272">
        <ele>443.8</ele>
        <time>2023-04-30T16:45:41Z</time>
      </trkpt>
      <trkpt lat="48.13312" lon="6.38264">
        <ele>443.9</ele>
        <time>2023-04-30T16:45:42Z</time>
      </trkpt>
      <trkpt lat="48.13315" lon="6.38257">
        <ele>443.9</ele>
        <time>2023-04-30T16:45:43Z</time>
      </trkpt>
      <trkpt lat="48.13316" lon="6.38251">
        <ele>444</ele>
        <time>2023-04-30T16:45:44Z</time>
      </trkpt>
      <trkpt lat="48.1332" lon="6.38243">
        <ele>444</ele>
        <time>2023-04-30T16:45:45Z</time>
      </trkpt>
      <trkpt lat="48.13322" lon="6.38236">
        <ele>444.1</ele>
        <time>2023-04-30T16:45:46Z</time>
      </trkpt>
      <trkpt lat="48.13326" lon="6.3823">
        <ele>444.2</ele>
        <time>2023-04-30T16:45:47Z</time>
      </trkpt>
      <trkpt lat="48.13329" lon="6.38225">
        <ele>444.2</ele>
        <time>2023-04-30T16:45:48Z</time>
      </trkpt>
      <trkpt lat="48.13332" lon="6.38219">
        <ele>444.3</ele>
        <time>2023-04-30T16:45:49Z</time>
      </trkpt>
      <trkpt lat="48.13335" lon="6.38214">
        <ele>444.5</ele>
        <time>2023-04-30T16:45:50Z</time>
      </trkpt>
      <trkpt lat="48.13339" lon="6.38212">
        <ele>444.4</ele>
        <time>2023-04-30T16:45:51Z</time>
      </trkpt>
      <trkpt lat="48.13342" lon="6.38211">
        <ele>444.4</ele>
        <time>2023-04-30T16:45:52Z</time>
      </trkpt>
      <trkpt lat="48.13346" lon="6.38214">
        <ele>444.5</ele>
        <time>2023-04-30T16:45:53Z</time>
      </trkpt>
      <trkpt lat="48.13352" lon="6.38218">
        <ele>444.6</ele>
        <time>2023-04-30T16:45:54Z</time>
      </trkpt>
      <trkpt lat="48.13356" lon="6.38223">
        <ele>444.8</ele>
        <time>2023-04-30T16:45:55Z</time>
      </trkpt>
      <trkpt lat="48.13363" lon="6.38232">
        <ele>445</ele>
        <time>2023-04-30T16:45:57Z</time>
      </trkpt>
      <trkpt lat="48.13366" lon="6.38236">
        <ele>445.2</ele>
        <time>2023-04-30T16:45:59Z</time>
      </trkpt>
      <trkpt lat="48.1337" lon="6.38237">
        <ele>445.3</ele>
        <time>2023-04-30T16:46:00Z</time>
      </trkpt>
      <trkpt lat="48.13374" lon="6.38241">
        <ele>445.5</ele>
        <time>2023-04-30T16:46:01Z</time>
      </trkpt>
      <trkpt lat="48.13381" lon="6.38246">
        <ele>445.8</ele>
        <time>2023-04-30T16:46:03Z</time>
      </trkpt>
      <trkpt lat="48.13385" lon="6.38248">
        <ele>446</ele>
        <time>2023-04-30T16:46:04Z</time>
      </trkpt>
      <trkpt lat="48.1339" lon="6.38251">
        <ele>446.2</ele>
        <time>2023-04-30T16:46:05Z</time>
      </trkpt>
      <trkpt lat="48.13395" lon="6.38254">
        <ele>446.4</ele>
        <time>2023-04-30T16:46:06Z</time>
      </trkpt>
      <trkpt lat="48.134" lon="6.38256">
        <ele>446.6</ele>
        <time>2023-04-30T16:46:07Z</time>
      </trkpt>
      <trkpt lat="48.13405" lon="6.38259">
        <ele>446.8</ele>
        <time>2023-04-30T16:46:09Z</time>
      </trkpt>
      <trkpt lat="48.13409" lon="6.38261">
        <ele>447</ele>
        <time>2023-04-30T16:46:10Z</time>
      </trkpt>
      <trkpt lat="48.13414" lon="6.38264">
        <ele>447.3</ele>
        <time>2023-04-30T16:46:11Z</time>
      </trkpt>
      <trkpt lat="48.13418" lon="6.38267">
        <ele>447.5</ele>
        <time>2023-04-30T16:46:12Z</time>
      </trkpt>
      <trkpt lat="48.13424" lon="6.3827">
        <ele>447.8</ele>
        <time>2023-04-30T16:46:13Z</time>
      </trkpt>
      <trkpt lat="48.13428" lon="6.38273">
        <ele>448.1</ele>
        <time>2023-04-30T16:46:14Z</time>
      </trkpt>
      <trkpt lat="48.13434" lon="6.38275">
        <ele>448.4</ele>
        <time>2023-04-30T16:46:15Z</time>
      </trkpt>
      <trkpt lat="48.13438" lon="6.38278">
        <ele>448.6</ele>
        <time>2023-04-30T16:46:17Z</time>
      </trkpt>
      <trkpt lat="48.13442" lon="6.3828">
        <ele>448.8</ele>
        <time>2023-04-30T16:46:18Z</time>
      </trkpt>
      <trkpt lat="48.13445" lon="6.38282">
        <ele>449</ele>
        <time>2023-04-30T16:46:19Z</time>
      </trkpt>
      <trkpt lat="48.13448" lon="6.38283">
        <ele>449.2</ele>
        <time>2023-04-30T16:46:20Z</time>
      </trkpt>
      <trkpt lat="48.13451" lon="6.38286">
        <ele>449.4</ele>
        <time>2023-04-30T16:46:22Z</time>
      </trkpt>
      <trkpt lat="48.13453" lon="6.38287">
        <ele>449.5</ele>
        <time>2023-04-30T16:46:23Z</time>
      </trkpt>
      <trkpt lat="48.13455" lon="6.3829">
        <ele>449.6</ele>
        <time>2023-04-30T16:46:24Z</time>
      </trkpt>
      <trkpt lat="48.13456" lon="6.38291">
        <ele>449.7</ele>
        <time>2023-04-30T16:46:25Z</time>
      </trkpt>
      <trkpt lat="48.1346" lon="6.38294">
        <ele>449.9</ele>
        <time>2023-04-30T16:46:26Z</time>
      </trkpt>
      <trkpt lat="48.13461" lon="6.38295">
        <ele>450</ele>
        <time>2023-04-30T16:46:27Z</time>
      </trkpt>
      <trkpt lat="48.13464" lon="6.38298">
        <ele>450.2</ele>
        <time>2023-04-30T16:46:29Z</time>
      </trkpt>
      <trkpt lat="48.1347" lon="6.38302">
        <ele>450.5</ele>
        <time>2023-04-30T16:46:31Z</time>
      </trkpt>
      <trkpt lat="48.13475" lon="6.38306">
        <ele>450.7</ele>
        <time>2023-04-30T16:46:32Z</time>
      </trkpt>
      <trkpt lat="48.13479" lon="6.3831">
        <ele>450.9</ele>
        <time>2023-04-30T16:46:33Z</time>
      </trkpt>
      <trkpt lat="48.13484" lon="6.38313">
        <ele>451.1</ele>
        <time>2023-04-30T16:46:34Z</time>
      </trkpt>
      <trkpt lat="48.13489" lon="6.38316">
        <ele>451.4</ele>
        <time>2023-04-30T16:46:35Z</time>
      </trkpt>
      <trkpt lat="48.135" lon="6.38324">
        <ele>451.9</ele>
        <time>2023-04-30T16:46:37Z</time>
      </trkpt>
      <trkpt lat="48.13505" lon="6.38327">
        <ele>452.1</ele>
        <time>2023-04-30T16:46:39Z</time>
      </trkpt>
      <trkpt lat="48.1351" lon="6.38328">
        <ele>452.3</ele>
        <time>2023-04-30T16:46:40Z</time>
      </trkpt>
      <trkpt lat="48.13514" lon="6.3833">
        <ele>452.5</ele>
        <time>2023-04-30T16:46:41Z</time>
      </trkpt>
      <trkpt lat="48.13519" lon="6.38333">
        <ele>452.7</ele>
        <time>2023-04-30T16:46:42Z</time>
      </trkpt>
      <trkpt lat="48.13521" lon="6.38333">
        <ele>452.8</ele>
        <time>2023-04-30T16:46:43Z</time>
      </trkpt>
      <trkpt lat="48.13527" lon="6.38336">
        <ele>453.1</ele>
        <time>2023-04-30T16:46:45Z</time>
      </trkpt>
      <trkpt lat="48.1353" lon="6.3834">
        <ele>453.3</ele>
        <time>2023-04-30T16:46:47Z</time>
      </trkpt>
      <trkpt lat="48.13534" lon="6.38343">
        <ele>453.5</ele>
        <time>2023-04-30T16:46:48Z</time>
      </trkpt>
      <trkpt lat="48.13539" lon="6.38347">
        <ele>453.7</ele>
        <time>2023-04-30T16:46:49Z</time>
      </trkpt>
      <trkpt lat="48.13543" lon="6.3835">
        <ele>453.9</ele>
        <time>2023-04-30T16:46:50Z</time>
      </trkpt>
      <trkpt lat="48.13547" lon="6.38354">
        <ele>454.1</ele>
        <time>2023-04-30T16:46:51Z</time>
      </trkpt>
      <trkpt lat="48.13552" lon="6.3836">
        <ele>454.4</ele>
        <time>2023-04-30T16:46:53Z</time>
      </trkpt>
      <trkpt lat="48.13555" lon="6.38365">
        <ele>454.6</ele>
        <time>2023-04-30T16:46:55Z</time>
      </trkpt>
      <trkpt lat="48.13559" lon="6.3837">
        <ele>454.8</ele>
        <time>2023-04-30T16:46:56Z</time>
      </trkpt>
      <trkpt lat="48.13565" lon="6.38375">
        <ele>455.1</ele>
        <time>2023-04-30T16:46:57Z</time>
      </trkpt>
      <trkpt lat="48.13569" lon="6.38379">
        <ele>455.3</ele>
        <time>2023-04-30T16:46:58Z</time>
      </trkpt>
      <trkpt lat="48.13574" lon="6.38385">
        <ele>455.5</ele>
        <time>2023-04-30T16:47:00Z</time>
      </trkpt>
      <trkpt lat="48.1358" lon="6.38393">
        <ele>455.8</ele>
        <time>2023-04-30T16:47:01Z</time>
      </trkpt>
      <trkpt lat="48.13583" lon="6.38399">
        <ele>456</ele>
        <time>2023-04-30T16:47:03Z</time>
      </trkpt>
      <trkpt lat="48.13589" lon="6.38404">
        <ele>456.2</ele>
        <time>2023-04-30T16:47:04Z</time>
      </trkpt>
      <trkpt lat="48.13596" lon="6.38411">
        <ele>456.6</ele>
        <time>2023-04-30T16:47:06Z</time>
      </trkpt>
      <trkpt lat="48.13601" lon="6.38417">
        <ele>456.8</ele>
        <time>2023-04-30T16:47:07Z</time>
      </trkpt>
      <trkpt lat="48.13605" lon="6.38422">
        <ele>457</ele>
        <time>2023-04-30T16:47:08Z</time>
      </trkpt>
      <trkpt lat="48.13613" lon="6.38432">
        <ele>457.3</ele>
        <time>2023-04-30T16:47:10Z</time>
      </trkpt>
      <trkpt lat="48.13617" lon="6.38437">
        <ele>457.5</ele>
        <time>2023-04-30T16:47:12Z</time>
      </trkpt>
      <trkpt lat="48.13622" lon="6.38444">
        <ele>457.7</ele>
        <time>2023-04-30T16:47:13Z</time>
      </trkpt>
      <trkpt lat="48.13627" lon="6.3845">
        <ele>457.8</ele>
        <time>2023-04-30T16:47:14Z</time>
      </trkpt>
      <trkpt lat="48.13632" lon="6.38458">
        <ele>458</ele>
        <time>2023-04-30T16:47:16Z</time>
      </trkpt>
      <trkpt lat="48.13635" lon="6.38463">
        <ele>458.1</ele>
        <time>2023-04-30T16:47:17Z</time>
      </trkpt>
      <trkpt lat="48.13638" lon="6.38468">
        <ele>458.2</ele>
        <time>2023-04-30T16:47:18Z</time>
      </trkpt>
      <trkpt lat="48.13641" lon="6.38474">
        <ele>458.3</ele>
        <time>2023-04-30T16:47:19Z</time>
      </trkpt>
      <trkpt lat="48.13644" lon="6.3848">
        <ele>458.4</ele>
        <time>2023-04-30T16:47:20Z</time>
      </trkpt>
      <trkpt lat="48.13647" lon="6.38484">
        <ele>458.5</ele>
        <time>2023-04-30T16:47:21Z</time>
      </trkpt>
      <trkpt lat="48.1365" lon="6.38494">
        <ele>458.6</ele>
        <time>2023-04-30T16:47:22Z</time>
      </trkpt>
      <trkpt lat="48.13653" lon="6.38505">
        <ele>458.8</ele>
        <time>2023-04-30T16:47:24Z</time>
      </trkpt>
      <trkpt lat="48.13655" lon="6.38512">
        <ele>458.9</ele>
        <time>2023-04-30T16:47:25Z</time>
      </trkpt>
      <trkpt lat="48.13657" lon="6.38518">
        <ele>458.9</ele>
        <time>2023-04-30T16:47:26Z</time>
      </trkpt>
      <trkpt lat="48.13657" lon="6.38525">
        <ele>459</ele>
        <time>2023-04-30T16:47:27Z</time>
      </trkpt>
      <trkpt lat="48.1366" lon="6.38535">
        <ele>459.1</ele>
        <time>2023-04-30T16:47:28Z</time>
      </trkpt>
      <trkpt lat="48.13662" lon="6.38542">
        <ele>459.2</ele>
        <time>2023-04-30T16:47:29Z</time>
      </trkpt>
      <trkpt lat="48.13663" lon="6.38549">
        <ele>459.3</ele>
        <time>2023-04-30T16:47:30Z</time>
      </trkpt>
      <trkpt lat="48.13664" lon="6.38557">
        <ele>459.4</ele>
        <time>2023-04-30T16:47:32Z</time>
      </trkpt>
      <trkpt lat="48.13666" lon="6.38566">
        <ele>459.5</ele>
        <time>2023-04-30T16:47:33Z</time>
      </trkpt>
      <trkpt lat="48.13667" lon="6.38574">
        <ele>459.6</ele>
        <time>2023-04-30T16:47:34Z</time>
      </trkpt>
      <trkpt lat="48.13667" lon="6.38585">
        <ele>459.7</ele>
        <time>2023-04-30T16:47:36Z</time>
      </trkpt>
      <trkpt lat="48.13668" lon="6.38593">
        <ele>459.7</ele>
        <time>2023-04-30T16:47:37Z</time>
      </trkpt>
      <trkpt lat="48.13668" lon="6.38601">
        <ele>459.8</ele>
        <time>2023-04-30T16:47:38Z</time>
      </trkpt>
      <trkpt lat="48.13668" lon="6.3861">
        <ele>459.9</ele>
        <time>2023-04-30T16:47:40Z</time>
      </trkpt>
      <trkpt lat="48.13668" lon="6.38618">
        <ele>459.9</ele>
        <time>2023-04-30T16:47:41Z</time>
      </trkpt>
      <trkpt lat="48.13668" lon="6.38626">
        <ele>460</ele>
        <time>2023-04-30T16:47:42Z</time>
      </trkpt>
      <trkpt lat="48.13668" lon="6.38633">
        <ele>460</ele>
        <time>2023-04-30T16:47:43Z</time>
      </trkpt>
      <trkpt lat="48.13667" lon="6.38641">
        <ele>460</ele>
        <time>2023-04-30T16:47:44Z</time>
      </trkpt>
      <trkpt lat="48.13667" lon="6.38648">
        <ele>460.1</ele>
        <time>2023-04-30T16:47:45Z</time>
      </trkpt>
      <trkpt lat="48.13666" lon="6.38655">
        <ele>460.1</ele>
        <time>2023-04-30T16:47:46Z</time>
      </trkpt>
      <trkpt lat="48.13666" lon="6.38662">
        <ele>460.2</ele>
        <time>2023-04-30T16:47:47Z</time>
      </trkpt>
      <trkpt lat="48.13665" lon="6.38669">
        <ele>460.2</ele>
        <time>2023-04-30T16:47:48Z</time>
      </trkpt>
      <trkpt lat="48.13664" lon="6.38677">
        <ele>460.3</ele>
        <time>2023-04-30T16:47:49Z</time>
      </trkpt>
      <trkpt lat="48.13664" lon="6.38684">
        <ele>460.3</ele>
        <time>2023-04-30T16:47:50Z</time>
      </trkpt>
      <trkpt lat="48.13663" lon="6.38691">
        <ele>460.3</ele>
        <time>2023-04-30T16:47:51Z</time>
      </trkpt>
      <trkpt lat="48.13662" lon="6.38698">
        <ele>460.4</ele>
        <time>2023-04-30T16:47:52Z</time>
      </trkpt>
      <trkpt lat="48.13662" lon="6.38706">
        <ele>460.5</ele>
        <time>2023-04-30T16:47:53Z</time>
      </trkpt>
      <trkpt lat="48.13661" lon="6.38713">
        <ele>460.6</ele>
        <time>2023-04-30T16:47:54Z</time>
      </trkpt>
      <trkpt lat="48.1366" lon="6.3872">
        <ele>460.6</ele>
        <time>2023-04-30T16:47:55Z</time>
      </trkpt>
      <trkpt lat="48.13659" lon="6.38727">
        <ele>460.7</ele>
        <time>2023-04-30T16:47:56Z</time>
      </trkpt>
      <trkpt lat="48.13659" lon="6.38734">
        <ele>460.8</ele>
        <time>2023-04-30T16:47:57Z</time>
      </trkpt>
      <trkpt lat="48.13659" lon="6.38741">
        <ele>460.8</ele>
        <time>2023-04-30T16:47:58Z</time>
      </trkpt>
      <trkpt lat="48.13658" lon="6.38748">
        <ele>460.9</ele>
        <time>2023-04-30T16:47:59Z</time>
      </trkpt>
      <trkpt lat="48.13657" lon="6.38755">
        <ele>460.9</ele>
        <time>2023-04-30T16:48:00Z</time>
      </trkpt>
      <trkpt lat="48.13656" lon="6.38762">
        <ele>461</ele>
        <time>2023-04-30T16:48:01Z</time>
      </trkpt>
      <trkpt lat="48.13656" lon="6.38769">
        <ele>461</ele>
        <time>2023-04-30T16:48:02Z</time>
      </trkpt>
      <trkpt lat="48.13655" lon="6.38776">
        <ele>461.1</ele>
        <time>2023-04-30T16:48:03Z</time>
      </trkpt>
      <trkpt lat="48.13655" lon="6.38783">
        <ele>461.2</ele>
        <time>2023-04-30T16:48:04Z</time>
      </trkpt>
      <trkpt lat="48.13654" lon="6.3879">
        <ele>461.2</ele>
        <time>2023-04-30T16:48:05Z</time>
      </trkpt>
      <trkpt lat="48.13653" lon="6.38797">
        <ele>461.3</ele>
        <time>2023-04-30T16:48:06Z</time>
      </trkpt>
      <trkpt lat="48.13653" lon="6.38804">
        <ele>461.3</ele>
        <time>2023-04-30T16:48:07Z</time>
      </trkpt>
      <trkpt lat="48.13652" lon="6.38812">
        <ele>461.4</ele>
        <time>2023-04-30T16:48:08Z</time>
      </trkpt>
      <trkpt lat="48.13652" lon="6.38819">
        <ele>461.5</ele>
        <time>2023-04-30T16:48:09Z</time>
      </trkpt>
      <trkpt lat="48.13652" lon="6.38826">
        <ele>461.6</ele>
        <time>2023-04-30T16:48:10Z</time>
      </trkpt>
      <trkpt lat="48.13651" lon="6.38833">
        <ele>461.7</ele>
        <time>2023-04-30T16:48:11Z</time>
      </trkpt>
      <trkpt lat="48.13651" lon="6.3884">
        <ele>461.8</ele>
        <time>2023-04-30T16:48:12Z</time>
      </trkpt>
      <trkpt lat="48.13651" lon="6.38847">
        <ele>461.9</ele>
        <time>2023-04-30T16:48:13Z</time>
      </trkpt>
      <trkpt lat="48.13652" lon="6.38854">
        <ele>462</ele>
        <time>2023-04-30T16:48:14Z</time>
      </trkpt>
      <trkpt lat="48.13652" lon="6.3886">
        <ele>462.1</ele>
        <time>2023-04-30T16:48:15Z</time>
      </trkpt>
      <trkpt lat="48.13653" lon="6.38868">
        <ele>462.1</ele>
        <time>2023-04-30T16:48:16Z</time>
      </trkpt>
      <trkpt lat="48.13654" lon="6.38875">
        <ele>462.2</ele>
        <time>2023-04-30T16:48:17Z</time>
      </trkpt>
      <trkpt lat="48.13656" lon="6.38882">
        <ele>462.3</ele>
        <time>2023-04-30T16:48:18Z</time>
      </trkpt>
      <trkpt lat="48.13657" lon="6.38889">
        <ele>462.4</ele>
        <time>2023-04-30T16:48:19Z</time>
      </trkpt>
      <trkpt lat="48.13659" lon="6.38895">
        <ele>462.5</ele>
        <time>2023-04-30T16:48:20Z</time>
      </trkpt>
      <trkpt lat="48.13661" lon="6.38902">
        <ele>462.7</ele>
        <time>2023-04-30T16:48:21Z</time>
      </trkpt>
      <trkpt lat="48.13663" lon="6.38909">
        <ele>462.8</ele>
        <time>2023-04-30T16:48:22Z</time>
      </trkpt>
      <trkpt lat="48.13665" lon="6.38915">
        <ele>462.9</ele>
        <time>2023-04-30T16:48:23Z</time>
      </trkpt>
      <trkpt lat="48.13667" lon="6.38921">
        <ele>463</ele>
        <time>2023-04-30T16:48:24Z</time>
      </trkpt>
      <trkpt lat="48.13669" lon="6.38927">
        <ele>463.1</ele>
        <time>2023-04-30T16:48:25Z</time>
      </trkpt>
      <trkpt lat="48.13671" lon="6.38934">
        <ele>463.2</ele>
        <time>2023-04-30T16:48:26Z</time>
      </trkpt>
      <trkpt lat="48.13673" lon="6.3894">
        <ele>463.2</ele>
        <time>2023-04-30T16:48:27Z</time>
      </trkpt>
      <trkpt lat="48.13675" lon="6.38946">
        <ele>463.3</ele>
        <time>2023-04-30T16:48:28Z</time>
      </trkpt>
      <trkpt lat="48.13677" lon="6.38953">
        <ele>463.4</ele>
        <time>2023-04-30T16:48:29Z</time>
      </trkpt>
      <trkpt lat="48.13679" lon="6.38959">
        <ele>463.5</ele>
        <time>2023-04-30T16:48:30Z</time>
      </trkpt>
      <trkpt lat="48.13681" lon="6.38966">
        <ele>463.6</ele>
        <time>2023-04-30T16:48:31Z</time>
      </trkpt>
      <trkpt lat="48.13683" lon="6.38972">
        <ele>463.7</ele>
        <time>2023-04-30T16:48:32Z</time>
      </trkpt>
      <trkpt lat="48.13686" lon="6.38978">
        <ele>463.8</ele>
        <time>2023-04-30T16:48:33Z</time>
      </trkpt>
      <trkpt lat="48.13688" lon="6.38985">
        <ele>463.9</ele>
        <time>2023-04-30T16:48:34Z</time>
      </trkpt>
      <trkpt lat="48.1369" lon="6.38991">
        <ele>463.9</ele>
        <time>2023-04-30T16:48:35Z</time>
      </trkpt>
      <trkpt lat="48.13692" lon="6.38998">
        <ele>464</ele>
        <time>2023-04-30T16:48:36Z</time>
      </trkpt>
      <trkpt lat="48.13694" lon="6.39004">
        <ele>464.1</ele>
        <time>2023-04-30T16:48:37Z</time>
      </trkpt>
      <trkpt lat="48.13696" lon="6.39011">
        <ele>464.2</ele>
        <time>2023-04-30T16:48:38Z</time>
      </trkpt>
      <trkpt lat="48.13698" lon="6.39017">
        <ele>464.3</ele>
        <time>2023-04-30T16:48:39Z</time>
      </trkpt>
      <trkpt lat="48.13701" lon="6.39024">
        <ele>464.4</ele>
        <time>2023-04-30T16:48:40Z</time>
      </trkpt>
      <trkpt lat="48.13703" lon="6.3903">
        <ele>464.4</ele>
        <time>2023-04-30T16:48:41Z</time>
      </trkpt>
      <trkpt lat="48.13705" lon="6.39037">
        <ele>464.5</ele>
        <time>2023-04-30T16:48:42Z</time>
      </trkpt>
      <trkpt lat="48.13707" lon="6.39044">
        <ele>464.5</ele>
        <time>2023-04-30T16:48:43Z</time>
      </trkpt>
      <trkpt lat="48.13709" lon="6.3905">
        <ele>464.6</ele>
        <time>2023-04-30T16:48:44Z</time>
      </trkpt>
      <trkpt lat="48.13711" lon="6.39057">
        <ele>464.6</ele>
        <time>2023-04-30T16:48:45Z</time>
      </trkpt>
      <trkpt lat="48.13713" lon="6.39063">
        <ele>464.6</ele>
        <time>2023-04-30T16:48:46Z</time>
      </trkpt>
      <trkpt lat="48.13716" lon="6.3907">
        <ele>464.6</ele>
        <time>2023-04-30T16:48:47Z</time>
      </trkpt>
      <trkpt lat="48.13718" lon="6.39076">
        <ele>464.7</ele>
        <time>2023-04-30T16:48:48Z</time>
      </trkpt>
      <trkpt lat="48.1372" lon="6.39083">
        <ele>464.7</ele>
        <time>2023-04-30T16:48:49Z</time>
      </trkpt>
      <trkpt lat="48.13723" lon="6.39089">
        <ele>464.7</ele>
        <time>2023-04-30T16:48:50Z</time>
      </trkpt>
      <trkpt lat="48.13725" lon="6.39096">
        <ele>464.6</ele>
        <time>2023-04-30T16:48:51Z</time>
      </trkpt>
      <trkpt lat="48.13728" lon="6.39102">
        <ele>464.6</ele>
        <time>2023-04-30T16:48:52Z</time>
      </trkpt>
      <trkpt lat="48.1373" lon="6.39108">
        <ele>464.5</ele>
        <time>2023-04-30T16:48:53Z</time>
      </trkpt>
      <trkpt lat="48.13733" lon="6.39115">
        <ele>464.5</ele>
        <time>2023-04-30T16:48:54Z</time>
      </trkpt>
      <trkpt lat="48.13737" lon="6.3912">
        <ele>464.4</ele>
        <time>2023-04-30T16:48:55Z</time>
      </trkpt>
      <trkpt lat="48.1374" lon="6.39126">
        <ele>464.3</ele>
        <time>2023-04-30T16:48:56Z</time>
      </trkpt>
      <trkpt lat="48.13744" lon="6.39133">
        <ele>464.1</ele>
        <time>2023-04-30T16:48:57Z</time>
      </trkpt>
      <trkpt lat="48.13748" lon="6.3914">
        <ele>463.9</ele>
        <time>2023-04-30T16:48:58Z</time>
      </trkpt>
      <trkpt lat="48.13752" lon="6.39146">
        <ele>463.7</ele>
        <time>2023-04-30T16:48:59Z</time>
      </trkpt>
      <trkpt lat="48.13756" lon="6.39153">
        <ele>463.5</ele>
        <time>2023-04-30T16:49:00Z</time>
      </trkpt>
      <trkpt lat="48.13761" lon="6.3916">
        <ele>463.3</ele>
        <time>2023-04-30T16:49:01Z</time>
      </trkpt>
      <trkpt lat="48.13766" lon="6.39167">
        <ele>463</ele>
        <time>2023-04-30T16:49:02Z</time>
      </trkpt>
      <trkpt lat="48.13771" lon="6.39174">
        <ele>462.8</ele>
        <time>2023-04-30T16:49:03Z</time>
      </trkpt>
      <trkpt lat="48.13776" lon="6.3918">
        <ele>462.6</ele>
        <time>2023-04-30T16:49:04Z</time>
      </trkpt>
      <trkpt lat="48.13781" lon="6.39187">
        <ele>462.4</ele>
        <time>2023-04-30T16:49:05Z</time>
      </trkpt>
      <trkpt lat="48.13786" lon="6.39193">
        <ele>462.2</ele>
        <time>2023-04-30T16:49:06Z</time>
      </trkpt>
      <trkpt lat="48.13791" lon="6.392">
        <ele>462</ele>
        <time>2023-04-30T16:49:07Z</time>
      </trkpt>
      <trkpt lat="48.13796" lon="6.39207">
        <ele>461.8</ele>
        <time>2023-04-30T16:49:08Z</time>
      </trkpt>
      <trkpt lat="48.13801" lon="6.39214">
        <ele>461.6</ele>
        <time>2023-04-30T16:49:09Z</time>
      </trkpt>
      <trkpt lat="48.13806" lon="6.39221">
        <ele>461.4</ele>
        <time>2023-04-30T16:49:10Z</time>
      </trkpt>
      <trkpt lat="48.13811" lon="6.39228">
        <ele>461.2</ele>
        <time>2023-04-30T16:49:11Z</time>
      </trkpt>
      <trkpt lat="48.13817" lon="6.39235">
        <ele>461.1</ele>
        <time>2023-04-30T16:49:12Z</time>
      </trkpt>
      <trkpt lat="48.13822" lon="6.39242">
        <ele>461.1</ele>
        <time>2023-04-30T16:49:13Z</time>
      </trkpt>
      <trkpt lat="48.13827" lon="6.39249">
        <ele>461</ele>
        <time>2023-04-30T16:49:14Z</time>
      </trkpt>
      <trkpt lat="48.13833" lon="6.39256">
        <ele>461</ele>
        <time>2023-04-30T16:49:15Z</time>
      </trkpt>
      <trkpt lat="48.13838" lon="6.39264">
        <ele>461</ele>
        <time>2023-04-30T16:49:16Z</time>
      </trkpt>
      <trkpt lat="48.13844" lon="6.39271">
        <ele>461</ele>
        <time>2023-04-30T16:49:17Z</time>
      </trkpt>
      <trkpt lat="48.13849" lon="6.39277">
        <ele>461.1</ele>
        <time>2023-04-30T16:49:18Z</time>
      </trkpt>
      <trkpt lat="48.13854" lon="6.39284">
        <ele>461.2</ele>
        <time>2023-04-30T16:49:19Z</time>
      </trkpt>
      <trkpt lat="48.13859" lon="6.39291">
        <ele>461.2</ele>
        <time>2023-04-30T16:49:20Z</time>
      </trkpt>
      <trkpt lat="48.13865" lon="6.39297">
        <ele>461.3</ele>
        <time>2023-04-30T16:49:21Z</time>
      </trkpt>
      <trkpt lat="48.1387" lon="6.39304">
        <ele>461.3</ele>
        <time>2023-04-30T16:49:22Z</time>
      </trkpt>
      <trkpt lat="48.13875" lon="6.3931">
        <ele>461.3</ele>
        <time>2023-04-30T16:49:23Z</time>
      </trkpt>
      <trkpt lat="48.1388" lon="6.39316">
        <ele>461.4</ele>
        <time>2023-04-30T16:49:24Z</time>
      </trkpt>
      <trkpt lat="48.13884" lon="6.39322">
        <ele>461.5</ele>
        <time>2023-04-30T16:49:25Z</time>
      </trkpt>
      <trkpt lat="48.13889" lon="6.39328">
        <ele>461.6</ele>
        <time>2023-04-30T16:49:26Z</time>
      </trkpt>
      <trkpt lat="48.13893" lon="6.39334">
        <ele>461.7</ele>
        <time>2023-04-30T16:49:27Z</time>
      </trkpt>
      <trkpt lat="48.13898" lon="6.3934">
        <ele>461.8</ele>
        <time>2023-04-30T16:49:28Z</time>
      </trkpt>
      <trkpt lat="48.13902" lon="6.39345">
        <ele>461.9</ele>
        <time>2023-04-30T16:49:29Z</time>
      </trkpt>
      <trkpt lat="48.13906" lon="6.39351">
        <ele>462</ele>
        <time>2023-04-30T16:49:30Z</time>
      </trkpt>
      <trkpt lat="48.1391" lon="6.39355">
        <ele>462.2</ele>
        <time>2023-04-30T16:49:31Z</time>
      </trkpt>
      <trkpt lat="48.13914" lon="6.39361">
        <ele>462.3</ele>
        <time>2023-04-30T16:49:32Z</time>
      </trkpt>
      <trkpt lat="48.13918" lon="6.39365">
        <ele>462.4</ele>
        <time>2023-04-30T16:49:33Z</time>
      </trkpt>
      <trkpt lat="48.13922" lon="6.3937">
        <ele>462.4</ele>
        <time>2023-04-30T16:49:34Z</time>
      </trkpt>
      <trkpt lat="48.13925" lon="6.39375">
        <ele>462.5</ele>
        <time>2023-04-30T16:49:35Z</time>
      </trkpt>
      <trkpt lat="48.1393" lon="6.3938">
        <ele>462.6</ele>
        <time>2023-04-30T16:49:36Z</time>
      </trkpt>
      <trkpt lat="48.13934" lon="6.39384">
        <ele>462.6</ele>
        <time>2023-04-30T16:49:37Z</time>
      </trkpt>
      <trkpt lat="48.13938" lon="6.39389">
        <ele>462.6</ele>
        <time>2023-04-30T16:49:38Z</time>
      </trkpt>
      <trkpt lat="48.13942" lon="6.39394">
        <ele>462.7</ele>
        <time>2023-04-30T16:49:39Z</time>
      </trkpt>
      <trkpt lat="48.13946" lon="6.39399">
        <ele>462.7</ele>
        <time>2023-04-30T16:49:40Z</time>
      </trkpt>
      <trkpt lat="48.13951" lon="6.39403">
        <ele>462.7</ele>
        <time>2023-04-30T16:49:41Z</time>
      </trkpt>
      <trkpt lat="48.13955" lon="6.39407">
        <ele>462.7</ele>
        <time>2023-04-30T16:49:42Z</time>
      </trkpt>
      <trkpt lat="48.1396" lon="6.3941">
        <ele>462.7</ele>
        <time>2023-04-30T16:49:43Z</time>
      </trkpt>
      <trkpt lat="48.13965" lon="6.39413">
        <ele>462.8</ele>
        <time>2023-04-30T16:49:44Z</time>
      </trkpt>
      <trkpt lat="48.1397" lon="6.39416">
        <ele>462.8</ele>
        <time>2023-04-30T16:49:45Z</time>
      </trkpt>
      <trkpt lat="48.13975" lon="6.39417">
        <ele>462.8</ele>
        <time>2023-04-30T16:49:46Z</time>
      </trkpt>
      <trkpt lat="48.1398" lon="6.39419">
        <ele>462.8</ele>
        <time>2023-04-30T16:49:47Z</time>
      </trkpt>
      <trkpt lat="48.13985" lon="6.3942">
        <ele>462.8</ele>
        <time>2023-04-30T16:49:48Z</time>
      </trkpt>
      <trkpt lat="48.13991" lon="6.3942">
        <ele>462.8</ele>
        <time>2023-04-30T16:49:49Z</time>
      </trkpt>
      <trkpt lat="48.13996" lon="6.39421">
        <ele>462.8</ele>
        <time>2023-04-30T16:49:50Z</time>
      </trkpt>
      <trkpt lat="48.14002" lon="6.39421">
        <ele>462.8</ele>
        <time>2023-04-30T16:49:51Z</time>
      </trkpt>
      <trkpt lat="48.14007" lon="6.39421">
        <ele>462.8</ele>
        <time>2023-04-30T16:49:52Z</time>
      </trkpt>
      <trkpt lat="48.14013" lon="6.39421">
        <ele>462.8</ele>
        <time>2023-04-30T16:49:53Z</time>
      </trkpt>
      <trkpt lat="48.14019" lon="6.3942">
        <ele>462.8</ele>
        <time>2023-04-30T16:49:54Z</time>
      </trkpt>
      <trkpt lat="48.14024" lon="6.3942">
        <ele>462.8</ele>
        <time>2023-04-30T16:49:55Z</time>
      </trkpt>
      <trkpt lat="48.1403" lon="6.39419">
        <ele>462.8</ele>
        <time>2023-04-30T16:49:56Z</time>
      </trkpt>
      <trkpt lat="48.14035" lon="6.39418">
        <ele>462.8</ele>
        <time>2023-04-30T16:49:57Z</time>
      </trkpt>
      <trkpt lat="48.14041" lon="6.39418">
        <ele>462.9</ele>
        <time>2023-04-30T16:49:58Z</time>
      </trkpt>
      <trkpt lat="48.14046" lon="6.39417">
        <ele>462.9</ele>
        <time>2023-04-30T16:49:59Z</time>
      </trkpt>
      <trkpt lat="48.14052" lon="6.39417">
        <ele>463</ele>
        <time>2023-04-30T16:50:00Z</time>
      </trkpt>
      <trkpt lat="48.14057" lon="6.39416">
        <ele>463</ele>
        <time>2023-04-30T16:50:01Z</time>
      </trkpt>
      <trkpt lat="48.14062" lon="6.39415">
        <ele>463.1</ele>
        <time>2023-04-30T16:50:02Z</time>
      </trkpt>
      <trkpt lat="48.14067" lon="6.39415">
        <ele>463.2</ele>
        <time>2023-04-30T16:50:03Z</time>
      </trkpt>
      <trkpt lat="48.14072" lon="6.39414">
        <ele>463.2</ele>
        <time>2023-04-30T16:50:04Z</time>
      </trkpt>
      <trkpt lat="48.14077" lon="6.39414">
        <ele>463.3</ele>
        <time>2023-04-30T16:50:05Z</time>
      </trkpt>
      <trkpt lat="48.14082" lon="6.39413">
        <ele>463.4</ele>
        <time>2023-04-30T16:50:06Z</time>
      </trkpt>
      <trkpt lat="48.14087" lon="6.39412">
        <ele>463.4</ele>
        <time>2023-04-30T16:50:07Z</time>
      </trkpt>
      <trkpt lat="48.14092" lon="6.39412">
        <ele>463.5</ele>
        <time>2023-04-30T16:50:08Z</time>
      </trkpt>
      <trkpt lat="48.14097" lon="6.39413">
        <ele>463.6</ele>
        <time>2023-04-30T16:50:09Z</time>
      </trkpt>
      <trkpt lat="48.14102" lon="6.39413">
        <ele>463.7</ele>
        <time>2023-04-30T16:50:10Z</time>
      </trkpt>
      <trkpt lat="48.14108" lon="6.39414">
        <ele>463.8</ele>
        <time>2023-04-30T16:50:11Z</time>
      </trkpt>
      <trkpt lat="48.14113" lon="6.39414">
        <ele>463.8</ele>
        <time>2023-04-30T16:50:12Z</time>
      </trkpt>
      <trkpt lat="48.14118" lon="6.39414">
        <ele>464</ele>
        <time>2023-04-30T16:50:13Z</time>
      </trkpt>
      <trkpt lat="48.14124" lon="6.39415">
        <ele>464.1</ele>
        <time>2023-04-30T16:50:14Z</time>
      </trkpt>
      <trkpt lat="48.14129" lon="6.39416">
        <ele>464.3</ele>
        <time>2023-04-30T16:50:15Z</time>
      </trkpt>
      <trkpt lat="48.14135" lon="6.39417">
        <ele>464.4</ele>
        <time>2023-04-30T16:50:16Z</time>
      </trkpt>
      <trkpt lat="48.1414" lon="6.39419">
        <ele>464.5</ele>
        <time>2023-04-30T16:50:17Z</time>
      </trkpt>
      <trkpt lat="48.14145" lon="6.39421">
        <ele>464.5</ele>
        <time>2023-04-30T16:50:18Z</time>
      </trkpt>
      <trkpt lat="48.1415" lon="6.39424">
        <ele>464.7</ele>
        <time>2023-04-30T16:50:19Z</time>
      </trkpt>
      <trkpt lat="48.14155" lon="6.39427">
        <ele>464.8</ele>
        <time>2023-04-30T16:50:20Z</time>
      </trkpt>
      <trkpt lat="48.1416" lon="6.3943">
        <ele>464.9</ele>
        <time>2023-04-30T16:50:21Z</time>
      </trkpt>
      <trkpt lat="48.14165" lon="6.39434">
        <ele>465</ele>
        <time>2023-04-30T16:50:22Z</time>
      </trkpt>
      <trkpt lat="48.14169" lon="6.39436">
        <ele>465.1</ele>
        <time>2023-04-30T16:50:23Z</time>
      </trkpt>
      <trkpt lat="48.14173" lon="6.39439">
        <ele>465.2</ele>
        <time>2023-04-30T16:50:24Z</time>
      </trkpt>
      <trkpt lat="48.14178" lon="6.39442">
        <ele>465.3</ele>
        <time>2023-04-30T16:50:25Z</time>
      </trkpt>
      <trkpt lat="48.14183" lon="6.39445">
        <ele>465.5</ele>
        <time>2023-04-30T16:50:26Z</time>
      </trkpt>
      <trkpt lat="48.14187" lon="6.39448">
        <ele>465.6</ele>
        <time>2023-04-30T16:50:27Z</time>
      </trkpt>
      <trkpt lat="48.1419" lon="6.39448">
        <ele>465.6</ele>
        <time>2023-04-30T16:50:28Z</time>
      </trkpt>
      <trkpt lat="48.14191" lon="6.39449">
        <ele>465.7</ele>
        <time>2023-04-30T16:50:29Z</time>
      </trkpt>
      <trkpt lat="48.14192" lon="6.3945">
        <ele>465.7</ele>
        <time>2023-04-30T16:50:30Z</time>
      </trkpt>
      <trkpt lat="48.14199" lon="6.39456">
        <ele>465.8</ele>
        <time>2023-04-30T16:50:31Z</time>
      </trkpt>
      <trkpt lat="48.14205" lon="6.39459">
        <ele>465.9</ele>
        <time>2023-04-30T16:50:32Z</time>
      </trkpt>
      <trkpt lat="48.1421" lon="6.39463">
        <ele>466</ele>
        <time>2023-04-30T16:50:33Z</time>
      </trkpt>
      <trkpt lat="48.14216" lon="6.39466">
        <ele>466.1</ele>
        <time>2023-04-30T16:50:34Z</time>
      </trkpt>
      <trkpt lat="48.14221" lon="6.3947">
        <ele>466.2</ele>
        <time>2023-04-30T16:50:35Z</time>
      </trkpt>
      <trkpt lat="48.14225" lon="6.39474">
        <ele>466.3</ele>
        <time>2023-04-30T16:50:36Z</time>
      </trkpt>
      <trkpt lat="48.14231" lon="6.39477">
        <ele>466.3</ele>
        <time>2023-04-30T16:50:37Z</time>
      </trkpt>
      <trkpt lat="48.14236" lon="6.3948">
        <ele>466.4</ele>
        <time>2023-04-30T16:50:38Z</time>
      </trkpt>
      <trkpt lat="48.14241" lon="6.39484">
        <ele>466.5</ele>
        <time>2023-04-30T16:50:39Z</time>
      </trkpt>
      <trkpt lat="48.14246" lon="6.39488">
        <ele>466.5</ele>
        <time>2023-04-30T16:50:40Z</time>
      </trkpt>
      <trkpt lat="48.14251" lon="6.39492">
        <ele>466.6</ele>
        <time>2023-04-30T16:50:41Z</time>
      </trkpt>
      <trkpt lat="48.14255" lon="6.39496">
        <ele>466.6</ele>
        <time>2023-04-30T16:50:42Z</time>
      </trkpt>
      <trkpt lat="48.1426" lon="6.39499">
        <ele>466.6</ele>
        <time>2023-04-30T16:50:43Z</time>
      </trkpt>
      <trkpt lat="48.14266" lon="6.39503">
        <ele>466.6</ele>
        <time>2023-04-30T16:50:44Z</time>
      </trkpt>
      <trkpt lat="48.14271" lon="6.39507">
        <ele>466.6</ele>
        <time>2023-04-30T16:50:45Z</time>
      </trkpt>
      <trkpt lat="48.14276" lon="6.3951">
        <ele>466.5</ele>
        <time>2023-04-30T16:50:46Z</time>
      </trkpt>
      <trkpt lat="48.14282" lon="6.39514">
        <ele>466.5</ele>
        <time>2023-04-30T16:50:47Z</time>
      </trkpt>
      <trkpt lat="48.14287" lon="6.39518">
        <ele>466.5</ele>
        <time>2023-04-30T16:50:48Z</time>
      </trkpt>
      <trkpt lat="48.14292" lon="6.39522">
        <ele>466.5</ele>
        <time>2023-04-30T16:50:49Z</time>
      </trkpt>
      <trkpt lat="48.14298" lon="6.39525">
        <ele>466.5</ele>
        <time>2023-04-30T16:50:50Z</time>
      </trkpt>
      <trkpt lat="48.14303" lon="6.39529">
        <ele>466.5</ele>
        <time>2023-04-30T16:50:51Z</time>
      </trkpt>
      <trkpt lat="48.14308" lon="6.39532">
        <ele>466.5</ele>
        <time>2023-04-30T16:50:52Z</time>
      </trkpt>
      <trkpt lat="48.14312" lon="6.39536">
        <ele>466.5</ele>
        <time>2023-04-30T16:50:53Z</time>
      </trkpt>
      <trkpt lat="48.14317" lon="6.39538">
        <ele>466.5</ele>
        <time>2023-04-30T16:50:54Z</time>
      </trkpt>
      <trkpt lat="48.14322" lon="6.39542">
        <ele>466.4</ele>
        <time>2023-04-30T16:50:55Z</time>
      </trkpt>
      <trkpt lat="48.14327" lon="6.39545">
        <ele>466.4</ele>
        <time>2023-04-30T16:50:56Z</time>
      </trkpt>
      <trkpt lat="48.14332" lon="6.39548">
        <ele>466.4</ele>
        <time>2023-04-30T16:50:57Z</time>
      </trkpt>
      <trkpt lat="48.14338" lon="6.39551">
        <ele>466.3</ele>
        <time>2023-04-30T16:50:58Z</time>
      </trkpt>
      <trkpt lat="48.14344" lon="6.39555">
        <ele>466.3</ele>
        <time>2023-04-30T16:50:59Z</time>
      </trkpt>
      <trkpt lat="48.1435" lon="6.39559">
        <ele>466.2</ele>
        <time>2023-04-30T16:51:00Z</time>
      </trkpt>
      <trkpt lat="48.14356" lon="6.39563">
        <ele>466.2</ele>
        <time>2023-04-30T16:51:01Z</time>
      </trkpt>
      <trkpt lat="48.14362" lon="6.39567">
        <ele>466.2</ele>
        <time>2023-04-30T16:51:02Z</time>
      </trkpt>
      <trkpt lat="48.14368" lon="6.39571">
        <ele>466.2</ele>
        <time>2023-04-30T16:51:03Z</time>
      </trkpt>
      <trkpt lat="48.14373" lon="6.39574">
        <ele>466.2</ele>
        <time>2023-04-30T16:51:04Z</time>
      </trkpt>
      <trkpt lat="48.14379" lon="6.39579">
        <ele>466.2</ele>
        <time>2023-04-30T16:51:05Z</time>
      </trkpt>
      <trkpt lat="48.14385" lon="6.39583">
        <ele>466.2</ele>
        <time>2023-04-30T16:51:06Z</time>
      </trkpt>
      <trkpt lat="48.14391" lon="6.39587">
        <ele>466.1</ele>
        <time>2023-04-30T16:51:07Z</time>
      </trkpt>
      <trkpt lat="48.14396" lon="6.39591">
        <ele>466.1</ele>
        <time>2023-04-30T16:51:08Z</time>
      </trkpt>
      <trkpt lat="48.14402" lon="6.39596">
        <ele>466.1</ele>
        <time>2023-04-30T16:51:09Z</time>
      </trkpt>
      <trkpt lat="48.14407" lon="6.39601">
        <ele>466.1</ele>
        <time>2023-04-30T16:51:10Z</time>
      </trkpt>
      <trkpt lat="48.14412" lon="6.39606">
        <ele>466.1</ele>
        <time>2023-04-30T16:51:11Z</time>
      </trkpt>
      <trkpt lat="48.14417" lon="6.3961">
        <ele>466.1</ele>
        <time>2023-04-30T16:51:12Z</time>
      </trkpt>
      <trkpt lat="48.14422" lon="6.39615">
        <ele>466.1</ele>
        <time>2023-04-30T16:51:13Z</time>
      </trkpt>
      <trkpt lat="48.14427" lon="6.39621">
        <ele>466</ele>
        <time>2023-04-30T16:51:14Z</time>
      </trkpt>
      <trkpt lat="48.14432" lon="6.39626">
        <ele>466</ele>
        <time>2023-04-30T16:51:15Z</time>
      </trkpt>
      <trkpt lat="48.14436" lon="6.39631">
        <ele>466</ele>
        <time>2023-04-30T16:51:16Z</time>
      </trkpt>
      <trkpt lat="48.14441" lon="6.39637">
        <ele>465.9</ele>
        <time>2023-04-30T16:51:17Z</time>
      </trkpt>
      <trkpt lat="48.14446" lon="6.39643">
        <ele>465.9</ele>
        <time>2023-04-30T16:51:18Z</time>
      </trkpt>
      <trkpt lat="48.14451" lon="6.39649">
        <ele>465.9</ele>
        <time>2023-04-30T16:51:19Z</time>
      </trkpt>
      <trkpt lat="48.14456" lon="6.39655">
        <ele>465.9</ele>
        <time>2023-04-30T16:51:20Z</time>
      </trkpt>
      <trkpt lat="48.14461" lon="6.39661">
        <ele>465.9</ele>
        <time>2023-04-30T16:51:21Z</time>
      </trkpt>
      <trkpt lat="48.14466" lon="6.39668">
        <ele>465.9</ele>
        <time>2023-04-30T16:51:22Z</time>
      </trkpt>
      <trkpt lat="48.1447" lon="6.39674">
        <ele>465.9</ele>
        <time>2023-04-30T16:51:23Z</time>
      </trkpt>
      <trkpt lat="48.14475" lon="6.3968">
        <ele>465.9</ele>
        <time>2023-04-30T16:51:24Z</time>
      </trkpt>
      <trkpt lat="48.14479" lon="6.39686">
        <ele>465.8</ele>
        <time>2023-04-30T16:51:25Z</time>
      </trkpt>
      <trkpt lat="48.14483" lon="6.39693">
        <ele>465.7</ele>
        <time>2023-04-30T16:51:26Z</time>
      </trkpt>
      <trkpt lat="48.14488" lon="6.397">
        <ele>465.6</ele>
        <time>2023-04-30T16:51:27Z</time>
      </trkpt>
      <trkpt lat="48.14492" lon="6.39707">
        <ele>465.5</ele>
        <time>2023-04-30T16:51:28Z</time>
      </trkpt>
      <trkpt lat="48.14497" lon="6.39715">
        <ele>465.3</ele>
        <time>2023-04-30T16:51:29Z</time>
      </trkpt>
      <trkpt lat="48.145" lon="6.39722">
        <ele>465.2</ele>
        <time>2023-04-30T16:51:30Z</time>
      </trkpt>
      <trkpt lat="48.14503" lon="6.3973">
        <ele>465.1</ele>
        <time>2023-04-30T16:51:31Z</time>
      </trkpt>
      <trkpt lat="48.14508" lon="6.39738">
        <ele>464.9</ele>
        <time>2023-04-30T16:51:32Z</time>
      </trkpt>
      <trkpt lat="48.14512" lon="6.39746">
        <ele>464.7</ele>
        <time>2023-04-30T16:51:33Z</time>
      </trkpt>
      <trkpt lat="48.14515" lon="6.39755">
        <ele>464.5</ele>
        <time>2023-04-30T16:51:34Z</time>
      </trkpt>
      <trkpt lat="48.14519" lon="6.39763">
        <ele>464.3</ele>
        <time>2023-04-30T16:51:35Z</time>
      </trkpt>
      <trkpt lat="48.14524" lon="6.39771">
        <ele>464.1</ele>
        <time>2023-04-30T16:51:36Z</time>
      </trkpt>
      <trkpt lat="48.14528" lon="6.3978">
        <ele>463.8</ele>
        <time>2023-04-30T16:51:37Z</time>
      </trkpt>
      <trkpt lat="48.14532" lon="6.39789">
        <ele>463.6</ele>
        <time>2023-04-30T16:51:38Z</time>
      </trkpt>
      <trkpt lat="48.14536" lon="6.39798">
        <ele>463.4</ele>
        <time>2023-04-30T16:51:39Z</time>
      </trkpt>
      <trkpt lat="48.1454" lon="6.39807">
        <ele>463.1</ele>
        <time>2023-04-30T16:51:40Z</time>
      </trkpt>
      <trkpt lat="48.14545" lon="6.39815">
        <ele>462.9</ele>
        <time>2023-04-30T16:51:41Z</time>
      </trkpt>
      <trkpt lat="48.1455" lon="6.39823">
        <ele>462.7</ele>
        <time>2023-04-30T16:51:42Z</time>
      </trkpt>
      <trkpt lat="48.14555" lon="6.3983">
        <ele>462.5</ele>
        <time>2023-04-30T16:51:43Z</time>
      </trkpt>
      <trkpt lat="48.14561" lon="6.39839">
        <ele>462.2</ele>
        <time>2023-04-30T16:51:44Z</time>
      </trkpt>
      <trkpt lat="48.14566" lon="6.39847">
        <ele>462</ele>
        <time>2023-04-30T16:51:45Z</time>
      </trkpt>
      <trkpt lat="48.14571" lon="6.39855">
        <ele>461.8</ele>
        <time>2023-04-30T16:51:46Z</time>
      </trkpt>
      <trkpt lat="48.14575" lon="6.39864">
        <ele>461.5</ele>
        <time>2023-04-30T16:51:47Z</time>
      </trkpt>
      <trkpt lat="48.14581" lon="6.39873">
        <ele>461.3</ele>
        <time>2023-04-30T16:51:48Z</time>
      </trkpt>
      <trkpt lat="48.14586" lon="6.39882">
        <ele>461</ele>
        <time>2023-04-30T16:51:49Z</time>
      </trkpt>
      <trkpt lat="48.14588" lon="6.39889">
        <ele>460.8</ele>
        <time>2023-04-30T16:51:50Z</time>
      </trkpt>
      <trkpt lat="48.14591" lon="6.39899">
        <ele>460.5</ele>
        <time>2023-04-30T16:51:51Z</time>
      </trkpt>
      <trkpt lat="48.14594" lon="6.3991">
        <ele>460.2</ele>
        <time>2023-04-30T16:51:52Z</time>
      </trkpt>
      <trkpt lat="48.14597" lon="6.39922">
        <ele>459.7</ele>
        <time>2023-04-30T16:51:53Z</time>
      </trkpt>
      <trkpt lat="48.14599" lon="6.39934">
        <ele>459.4</ele>
        <time>2023-04-30T16:51:54Z</time>
      </trkpt>
      <trkpt lat="48.14601" lon="6.39946">
        <ele>459.1</ele>
        <time>2023-04-30T16:51:55Z</time>
      </trkpt>
      <trkpt lat="48.14603" lon="6.39959">
        <ele>458.8</ele>
        <time>2023-04-30T16:51:56Z</time>
      </trkpt>
      <trkpt lat="48.14605" lon="6.39971">
        <ele>458.5</ele>
        <time>2023-04-30T16:51:57Z</time>
      </trkpt>
      <trkpt lat="48.14607" lon="6.39984">
        <ele>458.3</ele>
        <time>2023-04-30T16:51:58Z</time>
      </trkpt>
      <trkpt lat="48.14608" lon="6.39996">
        <ele>458</ele>
        <time>2023-04-30T16:51:59Z</time>
      </trkpt>
      <trkpt lat="48.1461" lon="6.40008">
        <ele>457.8</ele>
        <time>2023-04-30T16:52:00Z</time>
      </trkpt>
      <trkpt lat="48.14611" lon="6.40021">
        <ele>457.5</ele>
        <time>2023-04-30T16:52:01Z</time>
      </trkpt>
      <trkpt lat="48.14612" lon="6.40033">
        <ele>457.2</ele>
        <time>2023-04-30T16:52:02Z</time>
      </trkpt>
      <trkpt lat="48.14614" lon="6.40048">
        <ele>456.8</ele>
        <time>2023-04-30T16:52:03Z</time>
      </trkpt>
      <trkpt lat="48.14616" lon="6.40061">
        <ele>456.5</ele>
        <time>2023-04-30T16:52:04Z</time>
      </trkpt>
      <trkpt lat="48.14617" lon="6.40075">
        <ele>456.2</ele>
        <time>2023-04-30T16:52:05Z</time>
      </trkpt>
      <trkpt lat="48.14619" lon="6.40088">
        <ele>455.9</ele>
        <time>2023-04-30T16:52:06Z</time>
      </trkpt>
      <trkpt lat="48.1462" lon="6.40101">
        <ele>455.6</ele>
        <time>2023-04-30T16:52:07Z</time>
      </trkpt>
      <trkpt lat="48.14621" lon="6.40115">
        <ele>455.2</ele>
        <time>2023-04-30T16:52:08Z</time>
      </trkpt>
      <trkpt lat="48.14622" lon="6.40128">
        <ele>454.9</ele>
        <time>2023-04-30T16:52:09Z</time>
      </trkpt>
      <trkpt lat="48.14623" lon="6.40142">
        <ele>454.5</ele>
        <time>2023-04-30T16:52:10Z</time>
      </trkpt>
      <trkpt lat="48.14624" lon="6.40156">
        <ele>454.1</ele>
        <time>2023-04-30T16:52:11Z</time>
      </trkpt>
      <trkpt lat="48.14625" lon="6.4017">
        <ele>453.8</ele>
        <time>2023-04-30T16:52:12Z</time>
      </trkpt>
      <trkpt lat="48.14626" lon="6.40184">
        <ele>453.5</ele>
        <time>2023-04-30T16:52:13Z</time>
      </trkpt>
      <trkpt lat="48.14627" lon="6.40198">
        <ele>453.3</ele>
        <time>2023-04-30T16:52:14Z</time>
      </trkpt>
      <trkpt lat="48.14629" lon="6.40213">
        <ele>453.1</ele>
        <time>2023-04-30T16:52:15Z</time>
      </trkpt>
      <trkpt lat="48.14631" lon="6.40228">
        <ele>453</ele>
        <time>2023-04-30T16:52:16Z</time>
      </trkpt>
      <trkpt lat="48.14633" lon="6.40241">
        <ele>452.9</ele>
        <time>2023-04-30T16:52:17Z</time>
      </trkpt>
      <trkpt lat="48.14635" lon="6.40255">
        <ele>452.8</ele>
        <time>2023-04-30T16:52:18Z</time>
      </trkpt>
      <trkpt lat="48.14637" lon="6.40268">
        <ele>452.7</ele>
        <time>2023-04-30T16:52:19Z</time>
      </trkpt>
      <trkpt lat="48.14639" lon="6.40281">
        <ele>452.6</ele>
        <time>2023-04-30T16:52:20Z</time>
      </trkpt>
      <trkpt lat="48.14642" lon="6.40293">
        <ele>452.5</ele>
        <time>2023-04-30T16:52:21Z</time>
      </trkpt>
      <trkpt lat="48.14644" lon="6.40304">
        <ele>452.5</ele>
        <time>2023-04-30T16:52:22Z</time>
      </trkpt>
      <trkpt lat="48.14648" lon="6.40315">
        <ele>452.5</ele>
        <time>2023-04-30T16:52:23Z</time>
      </trkpt>
      <trkpt lat="48.14651" lon="6.40326">
        <ele>452.6</ele>
        <time>2023-04-30T16:52:24Z</time>
      </trkpt>
      <trkpt lat="48.14655" lon="6.40336">
        <ele>452.7</ele>
        <time>2023-04-30T16:52:25Z</time>
      </trkpt>
      <trkpt lat="48.14659" lon="6.40347">
        <ele>452.7</ele>
        <time>2023-04-30T16:52:26Z</time>
      </trkpt>
      <trkpt lat="48.14665" lon="6.40357">
        <ele>452.7</ele>
        <time>2023-04-30T16:52:27Z</time>
      </trkpt>
      <trkpt lat="48.1467" lon="6.40366">
        <ele>452.8</ele>
        <time>2023-04-30T16:52:28Z</time>
      </trkpt>
      <trkpt lat="48.14676" lon="6.40374">
        <ele>452.9</ele>
        <time>2023-04-30T16:52:29Z</time>
      </trkpt>
      <trkpt lat="48.14682" lon="6.40383">
        <ele>453.1</ele>
        <time>2023-04-30T16:52:30Z</time>
      </trkpt>
      <trkpt lat="48.14687" lon="6.40391">
        <ele>453.3</ele>
        <time>2023-04-30T16:52:31Z</time>
      </trkpt>
      <trkpt lat="48.14693" lon="6.40399">
        <ele>453.5</ele>
        <time>2023-04-30T16:52:32Z</time>
      </trkpt>
      <trkpt lat="48.14698" lon="6.40406">
        <ele>453.7</ele>
        <time>2023-04-30T16:52:33Z</time>
      </trkpt>
      <trkpt lat="48.14704" lon="6.40413">
        <ele>453.9</ele>
        <time>2023-04-30T16:52:34Z</time>
      </trkpt>
      <trkpt lat="48.14709" lon="6.40419">
        <ele>454.2</ele>
        <time>2023-04-30T16:52:35Z</time>
      </trkpt>
      <trkpt lat="48.14715" lon="6.40425">
        <ele>454.5</ele>
        <time>2023-04-30T16:52:36Z</time>
      </trkpt>
      <trkpt lat="48.14721" lon="6.4043">
        <ele>454.8</ele>
        <time>2023-04-30T16:52:37Z</time>
      </trkpt>
      <trkpt lat="48.14726" lon="6.40435">
        <ele>455.2</ele>
        <time>2023-04-30T16:52:38Z</time>
      </trkpt>
      <trkpt lat="48.14731" lon="6.40441">
        <ele>455.5</ele>
        <time>2023-04-30T16:52:39Z</time>
      </trkpt>
      <trkpt lat="48.14736" lon="6.40446">
        <ele>455.9</ele>
        <time>2023-04-30T16:52:40Z</time>
      </trkpt>
      <trkpt lat="48.14741" lon="6.40451">
        <ele>456.3</ele>
        <time>2023-04-30T16:52:41Z</time>
      </trkpt>
      <trkpt lat="48.14747" lon="6.40455">
        <ele>456.7</ele>
        <time>2023-04-30T16:52:42Z</time>
      </trkpt>
      <trkpt lat="48.14752" lon="6.40461">
        <ele>457.1</ele>
        <time>2023-04-30T16:52:43Z</time>
      </trkpt>
      <trkpt lat="48.14757" lon="6.40465">
        <ele>457.6</ele>
        <time>2023-04-30T16:52:44Z</time>
      </trkpt>
      <trkpt lat="48.14763" lon="6.4047">
        <ele>458</ele>
        <time>2023-04-30T16:52:45Z</time>
      </trkpt>
      <trkpt lat="48.14768" lon="6.40474">
        <ele>458.5</ele>
        <time>2023-04-30T16:52:46Z</time>
      </trkpt>
      <trkpt lat="48.14773" lon="6.4048">
        <ele>459</ele>
        <time>2023-04-30T16:52:47Z</time>
      </trkpt>
      <trkpt lat="48.14778" lon="6.40483">
        <ele>459.5</ele>
        <time>2023-04-30T16:52:48Z</time>
      </trkpt>
      <trkpt lat="48.14783" lon="6.40487">
        <ele>459.9</ele>
        <time>2023-04-30T16:52:49Z</time>
      </trkpt>
      <trkpt lat="48.14788" lon="6.40492">
        <ele>460.4</ele>
        <time>2023-04-30T16:52:50Z</time>
      </trkpt>
      <trkpt lat="48.14793" lon="6.40497">
        <ele>460.9</ele>
        <time>2023-04-30T16:52:51Z</time>
      </trkpt>
      <trkpt lat="48.14798" lon="6.40501">
        <ele>461.3</ele>
        <time>2023-04-30T16:52:52Z</time>
      </trkpt>
      <trkpt lat="48.14803" lon="6.40505">
        <ele>461.7</ele>
        <time>2023-04-30T16:52:53Z</time>
      </trkpt>
      <trkpt lat="48.14808" lon="6.4051">
        <ele>462.2</ele>
        <time>2023-04-30T16:52:54Z</time>
      </trkpt>
      <trkpt lat="48.14813" lon="6.40515">
        <ele>462.6</ele>
        <time>2023-04-30T16:52:55Z</time>
      </trkpt>
      <trkpt lat="48.14818" lon="6.4052">
        <ele>463</ele>
        <time>2023-04-30T16:52:56Z</time>
      </trkpt>
      <trkpt lat="48.14824" lon="6.40525">
        <ele>463.5</ele>
        <time>2023-04-30T16:52:57Z</time>
      </trkpt>
      <trkpt lat="48.1483" lon="6.40531">
        <ele>463.9</ele>
        <time>2023-04-30T16:52:58Z</time>
      </trkpt>
      <trkpt lat="48.14835" lon="6.40537">
        <ele>464.2</ele>
        <time>2023-04-30T16:52:59Z</time>
      </trkpt>
      <trkpt lat="48.14839" lon="6.40544">
        <ele>464.5</ele>
        <time>2023-04-30T16:53:00Z</time>
      </trkpt>
      <trkpt lat="48.14843" lon="6.40551">
        <ele>464.7</ele>
        <time>2023-04-30T16:53:01Z</time>
      </trkpt>
      <trkpt lat="48.14848" lon="6.40557">
        <ele>465</ele>
        <time>2023-04-30T16:53:02Z</time>
      </trkpt>
      <trkpt lat="48.14852" lon="6.40564">
        <ele>465.1</ele>
        <time>2023-04-30T16:53:03Z</time>
      </trkpt>
      <trkpt lat="48.14855" lon="6.40571">
        <ele>465.2</ele>
        <time>2023-04-30T16:53:04Z</time>
      </trkpt>
      <trkpt lat="48.14858" lon="6.40578">
        <ele>465.3</ele>
        <time>2023-04-30T16:53:05Z</time>
      </trkpt>
      <trkpt lat="48.14862" lon="6.40585">
        <ele>465.4</ele>
        <time>2023-04-30T16:53:06Z</time>
      </trkpt>
      <trkpt lat="48.14866" lon="6.40592">
        <ele>465.4</ele>
        <time>2023-04-30T16:53:07Z</time>
      </trkpt>
      <trkpt lat="48.14869" lon="6.40599">
        <ele>465.4</ele>
        <time>2023-04-30T16:53:08Z</time>
      </trkpt>
      <trkpt lat="48.14872" lon="6.40607">
        <ele>465.4</ele>
        <time>2023-04-30T16:53:09Z</time>
      </trkpt>
      <trkpt lat="48.14876" lon="6.40614">
        <ele>465.4</ele>
        <time>2023-04-30T16:53:10Z</time>
      </trkpt>
      <trkpt lat="48.14879" lon="6.40621">
        <ele>465.4</ele>
        <time>2023-04-30T16:53:11Z</time>
      </trkpt>
      <trkpt lat="48.14883" lon="6.40629">
        <ele>465.4</ele>
        <time>2023-04-30T16:53:12Z</time>
      </trkpt>
      <trkpt lat="48.14886" lon="6.40636">
        <ele>465.4</ele>
        <time>2023-04-30T16:53:13Z</time>
      </trkpt>
      <trkpt lat="48.1489" lon="6.40643">
        <ele>465.4</ele>
        <time>2023-04-30T16:53:14Z</time>
      </trkpt>
      <trkpt lat="48.14894" lon="6.4065">
        <ele>465.4</ele>
        <time>2023-04-30T16:53:15Z</time>
      </trkpt>
      <trkpt lat="48.14898" lon="6.40658">
        <ele>465.4</ele>
        <time>2023-04-30T16:53:16Z</time>
      </trkpt>
      <trkpt lat="48.14901" lon="6.40665">
        <ele>465.4</ele>
        <time>2023-04-30T16:53:17Z</time>
      </trkpt>
      <trkpt lat="48.14905" lon="6.40672">
        <ele>465.4</ele>
        <time>2023-04-30T16:53:18Z</time>
      </trkpt>
      <trkpt lat="48.14909" lon="6.40679">
        <ele>465.4</ele>
        <time>2023-04-30T16:53:19Z</time>
      </trkpt>
      <trkpt lat="48.14913" lon="6.40686">
        <ele>465.4</ele>
        <time>2023-04-30T16:53:20Z</time>
      </trkpt>
      <trkpt lat="48.14916" lon="6.40694">
        <ele>465.4</ele>
        <time>2023-04-30T16:53:21Z</time>
      </trkpt>
      <trkpt lat="48.1492" lon="6.40701">
        <ele>465.5</ele>
        <time>2023-04-30T16:53:22Z</time>
      </trkpt>
      <trkpt lat="48.14923" lon="6.40707">
        <ele>465.5</ele>
        <time>2023-04-30T16:53:23Z</time>
      </trkpt>
      <trkpt lat="48.14926" lon="6.40714">
        <ele>465.6</ele>
        <time>2023-04-30T16:53:24Z</time>
      </trkpt>
      <trkpt lat="48.14929" lon="6.4072">
        <ele>465.7</ele>
        <time>2023-04-30T16:53:25Z</time>
      </trkpt>
      <trkpt lat="48.14933" lon="6.40726">
        <ele>465.7</ele>
        <time>2023-04-30T16:53:26Z</time>
      </trkpt>
      <trkpt lat="48.14936" lon="6.40732">
        <ele>465.8</ele>
        <time>2023-04-30T16:53:27Z</time>
      </trkpt>
      <trkpt lat="48.14938" lon="6.40738">
        <ele>465.8</ele>
        <time>2023-04-30T16:53:28Z</time>
      </trkpt>
      <trkpt lat="48.14942" lon="6.40745">
        <ele>465.9</ele>
        <time>2023-04-30T16:53:29Z</time>
      </trkpt>
      <trkpt lat="48.14945" lon="6.40752">
        <ele>465.9</ele>
        <time>2023-04-30T16:53:30Z</time>
      </trkpt>
      <trkpt lat="48.14948" lon="6.40758">
        <ele>466</ele>
        <time>2023-04-30T16:53:31Z</time>
      </trkpt>
      <trkpt lat="48.14951" lon="6.40764">
        <ele>466</ele>
        <time>2023-04-30T16:53:32Z</time>
      </trkpt>
      <trkpt lat="48.14954" lon="6.4077">
        <ele>466.1</ele>
        <time>2023-04-30T16:53:33Z</time>
      </trkpt>
      <trkpt lat="48.14957" lon="6.40776">
        <ele>466.1</ele>
        <time>2023-04-30T16:53:34Z</time>
      </trkpt>
      <trkpt lat="48.1496" lon="6.40782">
        <ele>466.2</ele>
        <time>2023-04-30T16:53:35Z</time>
      </trkpt>
      <trkpt lat="48.14963" lon="6.40787">
        <ele>466.2</ele>
        <time>2023-04-30T16:53:36Z</time>
      </trkpt>
      <trkpt lat="48.14965" lon="6.40794">
        <ele>466.2</ele>
        <time>2023-04-30T16:53:37Z</time>
      </trkpt>
      <trkpt lat="48.14968" lon="6.408">
        <ele>466.3</ele>
        <time>2023-04-30T16:53:38Z</time>
      </trkpt>
      <trkpt lat="48.14971" lon="6.40805">
        <ele>466.3</ele>
        <time>2023-04-30T16:53:39Z</time>
      </trkpt>
      <trkpt lat="48.14974" lon="6.40811">
        <ele>466.3</ele>
        <time>2023-04-30T16:53:40Z</time>
      </trkpt>
      <trkpt lat="48.14977" lon="6.40817">
        <ele>466.3</ele>
        <time>2023-04-30T16:53:41Z</time>
      </trkpt>
      <trkpt lat="48.14979" lon="6.40822">
        <ele>466.3</ele>
        <time>2023-04-30T16:53:42Z</time>
      </trkpt>
      <trkpt lat="48.14982" lon="6.40828">
        <ele>466.3</ele>
        <time>2023-04-30T16:53:43Z</time>
      </trkpt>
      <trkpt lat="48.14985" lon="6.40834">
        <ele>466.3</ele>
        <time>2023-04-30T16:53:44Z</time>
      </trkpt>
      <trkpt lat="48.14988" lon="6.4084">
        <ele>466.3</ele>
        <time>2023-04-30T16:53:45Z</time>
      </trkpt>
      <trkpt lat="48.14991" lon="6.40846">
        <ele>466.2</ele>
        <time>2023-04-30T16:53:46Z</time>
      </trkpt>
      <trkpt lat="48.14994" lon="6.40852">
        <ele>466.2</ele>
        <time>2023-04-30T16:53:47Z</time>
      </trkpt>
      <trkpt lat="48.14997" lon="6.40858">
        <ele>466.1</ele>
        <time>2023-04-30T16:53:48Z</time>
      </trkpt>
      <trkpt lat="48.15" lon="6.40864">
        <ele>466</ele>
        <time>2023-04-30T16:53:49Z</time>
      </trkpt>
      <trkpt lat="48.15003" lon="6.4087">
        <ele>465.9</ele>
        <time>2023-04-30T16:53:50Z</time>
      </trkpt>
      <trkpt lat="48.15006" lon="6.40877">
        <ele>465.7</ele>
        <time>2023-04-30T16:53:51Z</time>
      </trkpt>
      <trkpt lat="48.15009" lon="6.40883">
        <ele>465.6</ele>
        <time>2023-04-30T16:53:52Z</time>
      </trkpt>
      <trkpt lat="48.15013" lon="6.4089">
        <ele>465.4</ele>
        <time>2023-04-30T16:53:53Z</time>
      </trkpt>
      <trkpt lat="48.15016" lon="6.40897">
        <ele>465.2</ele>
        <time>2023-04-30T16:53:54Z</time>
      </trkpt>
      <trkpt lat="48.1502" lon="6.40904">
        <ele>464.9</ele>
        <time>2023-04-30T16:53:55Z</time>
      </trkpt>
      <trkpt lat="48.15024" lon="6.40911">
        <ele>464.7</ele>
        <time>2023-04-30T16:53:56Z</time>
      </trkpt>
      <trkpt lat="48.15028" lon="6.40918">
        <ele>464.5</ele>
        <time>2023-04-30T16:53:57Z</time>
      </trkpt>
      <trkpt lat="48.15032" lon="6.40926">
        <ele>464.3</ele>
        <time>2023-04-30T16:53:58Z</time>
      </trkpt>
      <trkpt lat="48.15035" lon="6.40935">
        <ele>464.1</ele>
        <time>2023-04-30T16:53:59Z</time>
      </trkpt>
      <trkpt lat="48.15039" lon="6.40943">
        <ele>464</ele>
        <time>2023-04-30T16:54:00Z</time>
      </trkpt>
      <trkpt lat="48.15043" lon="6.4095">
        <ele>463.9</ele>
        <time>2023-04-30T16:54:01Z</time>
      </trkpt>
      <trkpt lat="48.15047" lon="6.40957">
        <ele>463.8</ele>
        <time>2023-04-30T16:54:02Z</time>
      </trkpt>
      <trkpt lat="48.15051" lon="6.40965">
        <ele>463.8</ele>
        <time>2023-04-30T16:54:03Z</time>
      </trkpt>
      <trkpt lat="48.15054" lon="6.40972">
        <ele>463.7</ele>
        <time>2023-04-30T16:54:04Z</time>
      </trkpt>
      <trkpt lat="48.15058" lon="6.40979">
        <ele>463.8</ele>
        <time>2023-04-30T16:54:05Z</time>
      </trkpt>
      <trkpt lat="48.15061" lon="6.40986">
        <ele>463.8</ele>
        <time>2023-04-30T16:54:06Z</time>
      </trkpt>
      <trkpt lat="48.15064" lon="6.40993">
        <ele>463.8</ele>
        <time>2023-04-30T16:54:07Z</time>
      </trkpt>
      <trkpt lat="48.15067" lon="6.41">
        <ele>463.8</ele>
        <time>2023-04-30T16:54:08Z</time>
      </trkpt>
      <trkpt lat="48.15069" lon="6.41007">
        <ele>463.8</ele>
        <time>2023-04-30T16:54:09Z</time>
      </trkpt>
      <trkpt lat="48.15072" lon="6.41014">
        <ele>463.8</ele>
        <time>2023-04-30T16:54:10Z</time>
      </trkpt>
      <trkpt lat="48.15074" lon="6.41021">
        <ele>463.9</ele>
        <time>2023-04-30T16:54:11Z</time>
      </trkpt>
      <trkpt lat="48.15076" lon="6.41028">
        <ele>463.9</ele>
        <time>2023-04-30T16:54:12Z</time>
      </trkpt>
      <trkpt lat="48.15078" lon="6.41034">
        <ele>464</ele>
        <time>2023-04-30T16:54:13Z</time>
      </trkpt>
      <trkpt lat="48.15079" lon="6.41041">
        <ele>464</ele>
        <time>2023-04-30T16:54:14Z</time>
      </trkpt>
      <trkpt lat="48.1508" lon="6.41048">
        <ele>464.1</ele>
        <time>2023-04-30T16:54:15Z</time>
      </trkpt>
      <trkpt lat="48.15082" lon="6.41054">
        <ele>464.1</ele>
        <time>2023-04-30T16:54:16Z</time>
      </trkpt>
      <trkpt lat="48.15083" lon="6.41062">
        <ele>464.2</ele>
        <time>2023-04-30T16:54:17Z</time>
      </trkpt>
      <trkpt lat="48.15084" lon="6.41069">
        <ele>464.4</ele>
        <time>2023-04-30T16:54:18Z</time>
      </trkpt>
      <trkpt lat="48.15085" lon="6.41075">
        <ele>464.5</ele>
        <time>2023-04-30T16:54:19Z</time>
      </trkpt>
      <trkpt lat="48.15086" lon="6.41082">
        <ele>464.6</ele>
        <time>2023-04-30T16:54:20Z</time>
      </trkpt>
      <trkpt lat="48.15087" lon="6.41089">
        <ele>464.8</ele>
        <time>2023-04-30T16:54:21Z</time>
      </trkpt>
      <trkpt lat="48.15088" lon="6.41095">
        <ele>464.9</ele>
        <time>2023-04-30T16:54:22Z</time>
      </trkpt>
      <trkpt lat="48.15089" lon="6.41102">
        <ele>465</ele>
        <time>2023-04-30T16:54:23Z</time>
      </trkpt>
      <trkpt lat="48.1509" lon="6.41109">
        <ele>465.2</ele>
        <time>2023-04-30T16:54:24Z</time>
      </trkpt>
      <trkpt lat="48.15091" lon="6.41116">
        <ele>465.3</ele>
        <time>2023-04-30T16:54:25Z</time>
      </trkpt>
      <trkpt lat="48.15092" lon="6.41122">
        <ele>465.4</ele>
        <time>2023-04-30T16:54:26Z</time>
      </trkpt>
      <trkpt lat="48.15093" lon="6.41129">
        <ele>465.6</ele>
        <time>2023-04-30T16:54:27Z</time>
      </trkpt>
      <trkpt lat="48.15094" lon="6.41136">
        <ele>465.7</ele>
        <time>2023-04-30T16:54:28Z</time>
      </trkpt>
      <trkpt lat="48.15096" lon="6.41142">
        <ele>465.8</ele>
        <time>2023-04-30T16:54:29Z</time>
      </trkpt>
      <trkpt lat="48.15097" lon="6.41149">
        <ele>466</ele>
        <time>2023-04-30T16:54:30Z</time>
      </trkpt>
      <trkpt lat="48.15097" lon="6.41156">
        <ele>466.1</ele>
        <time>2023-04-30T16:54:31Z</time>
      </trkpt>
      <trkpt lat="48.15099" lon="6.41162">
        <ele>466.3</ele>
        <time>2023-04-30T16:54:32Z</time>
      </trkpt>
      <trkpt lat="48.151" lon="6.41169">
        <ele>466.4</ele>
        <time>2023-04-30T16:54:33Z</time>
      </trkpt>
      <trkpt lat="48.15101" lon="6.41175">
        <ele>466.6</ele>
        <time>2023-04-30T16:54:34Z</time>
      </trkpt>
      <trkpt lat="48.15102" lon="6.41182">
        <ele>466.8</ele>
        <time>2023-04-30T16:54:35Z</time>
      </trkpt>
      <trkpt lat="48.15103" lon="6.41188">
        <ele>466.9</ele>
        <time>2023-04-30T16:54:36Z</time>
      </trkpt>
      <trkpt lat="48.15104" lon="6.41195">
        <ele>467.1</ele>
        <time>2023-04-30T16:54:37Z</time>
      </trkpt>
      <trkpt lat="48.15105" lon="6.41199">
        <ele>467.2</ele>
        <time>2023-04-30T16:54:38Z</time>
      </trkpt>
      <trkpt lat="48.15107" lon="6.41205">
        <ele>467.3</ele>
        <time>2023-04-30T16:54:39Z</time>
      </trkpt>
      <trkpt lat="48.15109" lon="6.41212">
        <ele>467.5</ele>
        <time>2023-04-30T16:54:40Z</time>
      </trkpt>
      <trkpt lat="48.15111" lon="6.41218">
        <ele>467.6</ele>
        <time>2023-04-30T16:54:41Z</time>
      </trkpt>
      <trkpt lat="48.15113" lon="6.41223">
        <ele>467.8</ele>
        <time>2023-04-30T16:54:42Z</time>
      </trkpt>
      <trkpt lat="48.15115" lon="6.4123">
        <ele>468</ele>
        <time>2023-04-30T16:54:43Z</time>
      </trkpt>
      <trkpt lat="48.15119" lon="6.41239">
        <ele>468.2</ele>
        <time>2023-04-30T16:54:44Z</time>
      </trkpt>
      <trkpt lat="48.15121" lon="6.41244">
        <ele>468.3</ele>
        <time>2023-04-30T16:54:45Z</time>
      </trkpt>
      <trkpt lat="48.15124" lon="6.41252">
        <ele>468.5</ele>
        <time>2023-04-30T16:54:47Z</time>
      </trkpt>
      <trkpt lat="48.15127" lon="6.41258">
        <ele>468.6</ele>
        <time>2023-04-30T16:54:48Z</time>
      </trkpt>
      <trkpt lat="48.1513" lon="6.41264">
        <ele>468.6</ele>
        <time>2023-04-30T16:54:49Z</time>
      </trkpt>
      <trkpt lat="48.15132" lon="6.4127">
        <ele>468.7</ele>
        <time>2023-04-30T16:54:50Z</time>
      </trkpt>
    </trkseg>
  </trk>
</gpx>